Wetterdaten als csv (Semikolon):

DATE_TIME;CHN1_DEG;CHN1_RF;CHN1_DEW;PRES_LOC;PRES_ABS;FORECAST;W_CHILL;W_TEMP;W_GUST;W_SPEED;DIRECTION;RAIN_SUM
2011-01-01 11:08:00; 2,9; 49; -6,8; 971,0618; 996,6250;5; ; ; ; ; ; 0,0
2011-01-01 11:02:59; ; ; ; 973,4993; 999,0625;5; ; ; ; ; ; 0,0
2011-01-01 11:08:00; 26,4; 34; 9,3; 973,4993; 999,0625;5; 26,0; 26,0; 0,0; 0,8;225,0; 16,2
2020-01-22 11:42:00; 3,3; 74; -0,9; 972,5618; 998,1250;5; 27,6; 27,6; 0,0; 0,0; 67,5; 16,2
2020-01-22 11:56:59; 2,7; 80; -0,4; 972,3118; 997,8750;5; 26,7; 26,7; 0,0; 0,0;337,5; 16,2
2020-01-22 12:07:00; 2,9; 79; -0,4; 972,3118; 997,8750;5; 26,4; 26,4; 0,0; 0,0;337,5; 16,2
2020-01-22 12:16:59; 3,0; 78; -0,5; 972,0618; 997,6250;5; 26,1; 26,1; 0,0; 0,0;337,5; 16,2
2020-01-22 12:27:00; 2,8; 79; -0,5; 972,0618; 997,6250;5; 26,0; 26,0; 0,0; 0,0;337,5; 16,2
2020-01-22 12:36:59; 2,7; 79; -0,6; 972,1868; 997,7500;4; 25,9; 25,9; 0,0; 0,0;337,5; 16,2
2020-01-22 12:47:00; 2,3; 81; -0,6; 972,1868; 997,7500;4; 25,9; 25,9; 0,0; 0,0;337,5; 16,2
2020-01-22 12:57:00; 2,3; 83; -0,3; 972,1868; 997,7500;4; 25,9; 25,9; 0,0; 0,0;337,5; 16,2
2020-01-22 13:06:59; 2,3; 84; -0,1; 972,1868; 997,7500;4; 25,9; 25,9; 0,0; 0,0;337,5; 16,2
2020-01-22 13:17:00; 2,4; 84; 0,0; 997,5618;1023,1250;5; 26,0; 26,0; 0,0; 0,0;337,5; 16,2
2020-01-22 13:26:59; 2,4; 84; 0,0; 997,5618;1023,1250;5; 26,0; 26,0; 0,0; 0,0;337,5; 16,2
2020-01-22 13:37:00; 2,5; 84; 0,1; 996,6243;1022,1875;5; 26,0; 26,0; 0,0; 0,0;337,5; 16,2
2020-01-22 13:46:59; 2,5; 83; -0,1; 996,6243;1022,1875;5; 26,0; 26,0; 0,0; 0,0;337,5; 16,2
2020-01-22 13:57:00; 2,7; 84; 0,3; 996,8743;1022,4375;5; 26,0; 26,0; 0,0; 0,0;337,5; 16,2
2020-01-22 14:06:59; 2,6; 84; 0,2; 996,8743;1022,4375;5; 26,0; 26,0; 0,0; 0,0;337,5; 16,2
2020-01-22 14:17:00; 2,4; 84; 0,0; 996,5618;1022,1250;5; 26,0; 26,0; 0,0; 0,0;337,5; 16,2
2020-01-22 14:27:00; 2,3; 85; 0,0; 996,5618;1022,1250;5; 26,0; 26,0; 0,0; 0,0;337,5; 16,2
2020-01-22 14:36:59; 2,1; 86; 0,0; 996,5618;1022,1250;5; 26,0; 26,0; 0,0; 0,0;337,5; 16,2
2020-01-22 14:47:00; 1,9; 87; 0,0; 996,5618;1022,1250;5; 26,0; 26,0; 0,0; 0,0;337,5; 16,2
2020-01-22 14:56:59; 1,9; 88; 0,1; 996,3743;1021,9375;5; 26,0; 26,0; 0,0; 0,0;337,5; 16,2
2020-01-22 15:07:00; 7,8; 76; 3,8; 996,3743;1021,9375;5; 26,0; 26,0; 0,0; 0,0;337,5; 16,2
2020-01-22 15:16:59; 4,1; 77; 0,4; 996,5618;1022,1250;5; 25,9; 25,9; 0,0; 0,0;337,5; 16,2
2020-01-22 15:27:00; 2,8; 80; -0,3; 996,5618;1022,1250;5; 25,8; 25,8; 0,0; 0,0;337,5; 16,2
2020-01-22 15:36:59; 2,4; 83; -0,2; 996,4993;1022,0625;5; 25,7; 25,7; 0,0; 0,0;337,5; 16,2
2020-01-22 15:47:00; 2,2; 84; -0,2; 996,4993;1022,0625;5; 25,7; 25,7; 0,0; 0,0; 0,0; 16,2
2020-01-22 15:57:00; 2,1; 84; -0,3; 996,7493;1022,3125;5; 25,7; 25,7; 0,0; 0,0; 0,0; 16,2
2020-01-22 16:06:59; 2,1; 85; -0,2; 996,7493;1022,3125;5; 26,0; 26,0; 0,0; 0,0; 0,0; 16,2
2020-01-22 16:17:00; 2,0; 86; -0,1; 997,2493;1022,8125;5; 26,1; 26,1; 0,0; 0,0; 0,0; 16,2
2020-01-22 16:26:59; 2,0; 86; -0,1; 997,2493;1022,8125;5; 26,1; 26,1; 0,0; 0,0; 0,0; 16,2
2020-01-22 16:37:00; 2,1; 86; 0,0; 997,9368;1023,5000;5; 26,0; 26,0; 0,0; 0,0; 0,0; 16,2
2020-01-22 16:46:59; 2,0; 86; -0,1; 997,9368;1023,5000;5; 26,0; 26,0; 0,0; 0,0; 0,0; 16,2
2020-01-22 16:57:00; 2,0; 85; -0,3; 997,4993;1023,0625;5; 25,9; 25,9; 0,0; 0,0; 0,0; 16,2
2020-01-22 17:06:59; 2,0; 86; -0,1; 997,4993;1023,0625;5; 25,9; 25,9; 0,0; 0,0; 0,0; 16,2
2020-01-22 17:17:00; 2,0; 86; -0,1; 997,6243;1023,1875;5; 25,9; 25,9; 0,0; 0,0; 0,0; 16,2
2020-01-22 17:27:00; 2,1; 86; 0,0; 997,6243;1023,1875;5; 25,8; 25,8; 0,0; 0,0; 0,0; 16,2
2020-01-22 17:36:59; 2,1; 86; 0,0; 997,8743;1023,4375;5; 25,7; 25,7; 0,0; 0,0; 0,0; 16,2
2020-01-22 17:47:00; 2,1; 85; -0,2; 997,8743;1023,4375;5; 25,7; 25,7; 0,0; 0,0;337,5; 16,2
2020-01-22 17:56:59; 2,1; 86; 0,0; 997,9993;1023,5625;5; 25,7; 25,7; 0,0; 0,0;337,5; 16,2
2020-01-22 18:07:00; 2,1; 85; -0,2; 997,9993;1023,5625;5; 25,7; 25,7; 0,0; 0,0;337,5; 16,2
2020-01-22 18:16:59; 2,1; 85; -0,2; 997,8118;1023,3750;5; 25,6; 25,6; 0,0; 0,0;337,5; 16,2
2020-01-22 18:27:00; 2,1; 86; 0,0; 997,8118;1023,3750;5; 25,5; 25,5; 0,0; 0,0;337,5; 16,2
2020-01-22 18:36:59; 2,1; 86; 0,0; 998,0618;1023,6250;5; 25,5; 25,5; 0,0; 0,0;337,5; 16,2
2020-01-22 18:47:00; 2,1; 86; 0,0; 998,0618;1023,6250;5; 25,5; 25,5; 0,0; 0,0;337,5; 16,2
2020-01-22 18:57:00; 2,2; 86; 0,1; 997,9993;1023,5625;5; 25,4; 25,4; 0,0; 0,0;337,5; 16,2
2020-01-22 19:06:59; 2,2; 86; 0,1; 997,9993;1023,5625;5; 25,3; 25,3; 0,0; 0,0;337,5; 16,2
2020-01-22 19:17:00; 2,3; 85; 0,0; 998,1868;1023,7500;5; 25,3; 25,3; 0,0; 0,0;337,5; 16,2
2020-01-22 19:26:59; 2,3; 86; 0,2; 998,1868;1023,7500;5; 25,3; 25,3; 0,0; 0,0;337,5; 16,2
2020-01-22 19:37:00; 2,3; 86; 0,2; 998,3118;1023,8750;5; 25,3; 25,3; 0,0; 0,0;337,5; 16,2
2020-01-22 19:46:59; 2,3; 85; 0,0; 998,3118;1023,8750;5; 25,2; 25,2; 0,0; 0,0;337,5; 16,2
2020-01-22 19:57:00; 2,3; 86; 0,2; 998,2493;1023,8125;5; 25,2; 25,2; 0,0; 0,0;337,5; 16,2
2020-01-22 20:06:59; 2,3; 86; 0,2; 998,2493;1023,8125;5; 25,2; 25,2; 0,0; 0,0;337,5; 16,2
2020-01-22 20:17:00; 2,3; 86; 0,2; 998,3118;1023,8750;5; 25,2; 25,2; 0,0; 0,0;337,5; 16,2
2020-01-22 20:27:00; 2,3; 86; 0,2; 998,3118;1023,8750;5; 25,2; 25,2; 0,0; 0,0;337,5; 16,2
2020-01-22 20:36:59; 2,3; 86; 0,2; ; ;5; 25,2; 25,2; 0,0; 0,0;337,5; 16,2
2020-01-22 20:47:00; 2,4; 86; 0,3; ; ;5; 25,1; 25,1; 0,0; 0,0;337,5; 16,2
2020-01-22 20:56:59; 2,4; 85; 0,1; 998,4993;1024,0625;5; 25,1; 25,1; 0,0; 0,0;337,5; 16,2
2020-01-22 21:07:00; 2,4; 86; 0,3; 998,4993;1024,0625;5; 25,1; 25,1; 0,0; 0,0;337,5; 16,2
2020-01-22 21:16:59; 2,4; 86; 0,3; 998,1868;1023,7500;5; 25,1; 25,1; 0,0; 0,0;337,5; 16,2
2020-01-22 21:27:00; 2,4; 86; 0,3; 998,1868;1023,7500;5; 25,1; 25,1; 0,0; 0,0;337,5; 16,2
2020-01-22 21:36:59; 2,5; 86; 0,4; 998,2493;1023,8125;5; 25,1; 25,1; 0,0; 0,0;337,5; 16,2
2020-01-22 21:47:00; 2,5; 86; 0,4; 998,2493;1023,8125;5; 25,1; 25,1; 0,0; 0,0;337,5; 16,2
2020-01-22 21:57:00; 2,5; 86; 0,4; 998,2493;1023,8125;5; 25,1; 25,1; 0,0; 0,0;337,5; 16,2
2020-01-22 22:06:59; 2,6; 86; 0,5; 998,2493;1023,8125;5; 25,1; 25,1; 0,0; 0,0;337,5; 16,2
2020-01-22 22:17:00; 2,6; 86; 0,5; 998,3118;1023,8750;5; 25,0; 25,0; 0,0; 0,0;337,5; 16,2
2020-01-22 22:26:59; 2,5; 85; 0,2; 998,3118;1023,8750;5; 25,0; 25,0; 0,0; 0,0;337,5; 16,2
2020-01-22 22:37:00; 2,6; 85; 0,3; ; ;5; 25,0; 25,0; 0,0; 0,0;337,5; 16,2
2020-01-22 22:46:59; 2,6; 85; 0,3; ; ;5; 25,0; 25,0; 0,0; 0,0;337,5; 16,2
2020-01-22 22:57:00; 2,5; 85; 0,2; 998,6868;1024,2500;5; 25,0; 25,0; 0,0; 0,0;337,5; 16,2
2020-01-22 23:06:59; 2,6; 85; 0,3; 998,6868;1024,2500;5; 25,0; 25,0; 0,0; 0,0;337,5; 16,2
2020-01-22 23:17:00; 2,6; 85; 0,3; 998,5618;1024,1250;5; 24,9; 24,9; 0,0; 0,0;337,5; 16,2
2020-01-22 23:27:00; 2,6; 85; 0,3; 998,5618;1024,1250;5; 24,9; 24,9; 0,0; 0,0;337,5; 16,2
2020-01-22 23:36:59; 2,6; 84; 0,2; 998,8118;1024,3750;5; 24,9; 24,9; 0,0; 0,0;337,5; 16,2
2020-01-22 23:47:00; 2,6; 84; 0,2; 998,8118;1024,3750;5; 24,9; 24,9; 0,0; 0,0;337,5; 16,2
2020-01-22 23:56:59; 2,5; 85; 0,2; 998,8743;1024,4375;5; 24,9; 24,9; 0,0; 0,0;337,5; 16,2
2020-01-23 00:07:00; 2,5; 84; 0,1; 998,8743;1024,4375;5; 24,9; 24,9; 0,0; 0,0;337,5; 16,2
2020-01-23 00:16:59; 2,5; 85; 0,2; 998,9993;1024,5625;5; 24,9; 24,9; 0,0; 0,0;337,5; 16,2
2020-01-23 00:27:00; 2,5; 84; 0,1; 998,9993;1024,5625;5; 24,9; 24,9; 0,0; 0,0;337,5; 16,2
2020-01-23 00:36:59; 2,5; 84; 0,1; 998,8118;1024,3750;5; 24,9; 24,9; 0,0; 0,0;337,5; 16,2
2020-01-23 00:47:00; 2,5; 84; 0,1; 998,8118;1024,3750;5; 24,9; 24,9; 0,0; 0,0;337,5; 16,2
2020-01-23 00:57:00; 2,5; 84; 0,1; 998,6243;1024,1875;5; 24,9; 24,9; 0,0; 0,0;337,5; 16,2
2020-01-23 01:06:59; 2,5; 85; 0,2; 998,6243;1024,1875;5; 24,9; 24,9; 0,0; 0,0;337,5; 16,2
2020-01-23 01:17:00; 2,4; 85; 0,1; 998,6243;1024,1875;5; 24,9; 24,9; 0,0; 0,0;337,5; 16,2
2020-01-23 01:26:59; 2,5; 85; 0,2; 998,6243;1024,1875;5; 24,9; 24,9; 0,0; 0,0;337,5; 16,2
2020-01-23 01:37:00; 2,5; 85; 0,2; 998,6868;1024,2500;5; 24,9; 24,9; 0,0; 0,0;337,5; 16,2
2020-01-23 01:46:59; 2,4; 85; 0,1; 998,6868;1024,2500;5; 24,9; 24,9; 0,0; 0,0;337,5; 16,2
2020-01-23 01:57:00; 2,5; 85; 0,2; 998,6243;1024,1875;5; 24,9; 24,9; 0,0; 0,0;337,5; 16,2
2020-01-23 02:06:59; 2,5; 85; 0,2; 998,6243;1024,1875;5; 24,9; 24,9; 0,0; 0,0;337,5; 16,2
2020-01-23 02:17:00; 2,5; 84; 0,1; 998,5618;1024,1250;5; 24,8; 24,8; 0,0; 0,0;337,5; 16,2
2020-01-23 02:27:00; 2,4; 84; 0,0; 998,5618;1024,1250;5; 24,8; 24,8; 0,0; 0,0;337,5; 16,2
2020-01-23 02:36:59; 2,4; 84; 0,0; 998,4368;1024,0000;5; 24,8; 24,8; 0,0; 0,0;337,5; 16,2
2020-01-23 02:47:00; 2,4; 84; 0,0; 998,4368;1024,0000;5; 24,8; 24,8; 0,0; 0,0;337,5; 16,2
2020-01-23 02:56:59; 2,3; 84; -0,1; 998,3118;1023,8750;5; 24,8; 24,8; 0,0; 0,0;337,5; 16,2
2020-01-23 03:07:00; 2,3; 84; -0,1; 998,3118;1023,8750;5; 24,8; 24,8; 0,0; 0,0;337,5; 16,2
2020-01-23 03:16:59; 2,3; 84; -0,1; 998,1868;1023,7500;5; 24,8; 24,8; 0,0; 0,0;337,5; 16,2
2020-01-23 03:27:00; 2,3; 85; 0,0; 998,1868;1023,7500;5; 24,8; 24,8; 0,0; 0,0;337,5; 16,2
2020-01-23 03:36:59; 2,3; 85; 0,0; 997,9993;1023,5625;5; 24,8; 24,8; 0,0; 0,0;337,5; 16,2
2020-01-23 03:47:00; 2,3; 85; 0,0; 997,9993;1023,5625;5; 24,8; 24,8; 0,0; 0,0;337,5; 16,2
2020-01-23 03:57:00; 2,3; 85; 0,0; 998,0618;1023,6250;5; 24,8; 24,8; 0,0; 0,0;337,5; 16,2
2020-01-23 04:06:59; 2,3; 85; 0,0; 998,0618;1023,6250;5; 24,8; 24,8; 0,0; 0,0;337,5; 16,2
2020-01-23 04:17:00; 2,4; 84; 0,0; 997,9993;1023,5625;5; 24,8; 24,8; 0,0; 0,0;337,5; 16,2
2020-01-23 04:26:59; 2,3; 84; -0,1; 997,9993;1023,5625;5; 24,8; 24,8; 0,0; 0,0;337,5; 16,2
2020-01-23 04:37:00; 2,4; 85; 0,1; 997,8743;1023,4375;5; 24,8; 24,8; 0,0; 0,0;337,5; 16,2
2020-01-23 04:46:59; 2,4; 84; 0,0; 997,8743;1023,4375;5; 24,8; 24,8; 0,0; 0,0;337,5; 16,2
2020-01-23 04:57:00; 2,4; 84; 0,0; 998,0618;1023,6250;5; 24,8; 24,8; 0,0; 0,0;337,5; 16,2
2020-01-23 05:06:59; 2,4; 84; 0,0; 998,0618;1023,6250;5; 24,8; 24,8; 0,0; 0,0;337,5; 16,2
2020-01-23 05:17:00; 2,3; 84; -0,1; 998,0618;1023,6250;5; 24,8; 24,8; 0,0; 0,0;337,5; 16,2
2020-01-23 05:27:00; 2,3; 84; -0,1; 998,0618;1023,6250;5; 24,8; 24,8; 0,0; 0,0;337,5; 16,2
2020-01-23 05:36:59; 2,3; 84; -0,1; 998,1868;1023,7500;5; 24,8; 24,8; 0,0; 0,0;337,5; 16,2
2020-01-23 05:47:00; 2,3; 84; -0,1; 998,1868;1023,7500;5; 24,8; 24,8; 0,0; 0,0;337,5; 16,2
2020-01-23 05:56:59; 2,3; 84; -0,1; 998,1868;1023,7500;5; 24,8; 24,8; 0,0; 0,0;337,5; 16,2
2020-01-23 06:07:00; 2,3; 84; -0,1; 998,1868;1023,7500;5; 24,8; 24,8; 0,0; 0,0;337,5; 16,2
2020-01-23 06:16:59; 2,3; 84; -0,1; 998,0618;1023,6250;5; 24,8; 24,8; 0,0; 0,0;337,5; 16,2
2020-01-23 06:27:00; 2,3; 83; -0,3; 998,0618;1023,6250;5; 24,7; 24,7; 0,0; 0,0;337,5; 16,2
2020-01-23 06:36:59; 2,3; 83; -0,3; 998,1868;1023,7500;5; 24,7; 24,7; 0,0; 0,0;337,5; 16,2
2020-01-23 06:47:00; 2,3; 83; -0,3; 998,1868;1023,7500;5; 24,7; 24,7; 0,0; 0,0;337,5; 16,2
2020-01-23 06:57:00; 2,3; 83; -0,3; 998,1868;1023,7500;5; 24,7; 24,7; 0,0; 0,0;337,5; 16,2
2020-01-23 07:06:59; 2,4; 83; -0,2; 998,1868;1023,7500;5; 24,7; 24,7; 0,0; 0,0;337,5; 16,2
2020-01-23 07:17:00; 2,4; 82; -0,4; 998,4368;1024,0000;5; 24,7; 24,7; 0,0; 0,0;337,5; 16,2
2020-01-23 07:26:59; 2,4; 82; -0,4; 998,4368;1024,0000;5; 24,7; 24,7; 0,0; 0,0;337,5; 16,2
2020-01-23 07:37:00; 2,3; 81; -0,6; 998,2493;1023,8125;5; 24,7; 24,7; 0,0; 0,0;337,5; 16,2
2020-01-23 07:46:59; 2,4; 82; -0,4; 998,2493;1023,8125;5; 24,7; 24,7; 0,0; 0,0;337,5; 16,2
2020-01-23 07:57:00; 2,5; 81; -0,4; 998,1868;1023,7500;5; 24,7; 24,7; 0,0; 0,0;337,5; 16,2
2020-01-23 08:06:59; 2,5; 81; -0,4; 998,1868;1023,7500;5; 24,7; 24,7; 0,0; 0,0;337,5; 16,2
2020-01-23 08:17:00; 2,6; 81; -0,3; 998,1243;1023,6875;5; 24,7; 24,7; 0,0; 0,0;337,5; 16,2
2020-01-23 08:27:00; 2,7; 80; -0,4; 998,1243;1023,6875;5; 24,8; 24,8; 3,5; 0,4;180,0; 16,2
2020-01-23 08:36:59; 2,8; 80; -0,3; 998,1868;1023,7500;5; 25,1; 25,1; 0,0; 0,2;180,0; 16,2
2020-01-23 08:47:00; 2,9; 79; -0,4; 998,1868;1023,7500;5; 25,4; 25,4; 0,0; 0,0;180,0; 16,2
2020-01-23 08:56:59; 3,1; 79; -0,2; 998,2493;1023,8125;5; 25,7; 25,7; 0,0; 0,0;180,0; 16,2
2020-01-23 09:07:00; 3,1; 79; -0,2; 998,2493;1023,8125;5; 25,9; 25,9; 0,0; 0,0;180,0; 16,2
2020-01-23 09:16:59; 3,3; 78; -0,2; 998,2493;1023,8125;5; 26,0; 26,0; 0,0; 0,0;180,0; 16,2
2020-01-23 09:27:00; 3,5; 77; -0,2; 998,2493;1023,8125;5; 26,1; 26,1; 0,0; 0,0;180,0; 16,2
2020-01-23 09:36:59; 3,5; 77; -0,2; 998,4993;1024,0625;5; 26,2; 26,2; 0,0; 0,0;180,0; 16,2
2020-01-23 09:47:00; 3,6; 76; -0,2; 998,4993;1024,0625;5; 26,3; 26,3; 0,0; 0,0;180,0; 16,2
2020-01-23 09:57:00; 3,8; 76; 0,0; ; ;5; 26,4; 26,4; 0,0; 0,0;180,0; 16,2
2020-01-23 10:06:59; 3,9; 75; -0,1; ; ;5; 26,4; 26,4; 0,0; 0,0;180,0; 16,2
2020-01-23 10:17:00; 4,1; 74; -0,1; 998,1243;1023,6875;5; 26,4; 26,4; 0,0; 0,0;180,0; 16,2
2020-01-23 10:26:59; 4,2; 72; -0,4; 998,1243;1023,6875;5; 26,4; 26,4; 0,0; 0,0;180,0; 16,2
2020-01-23 10:37:00; 4,3; 71; -0,5; 997,8743;1023,4375;5; 26,4; 26,4; 0,0; 0,0;180,0; 16,2
2020-01-23 10:46:59; 4,5; 70; -0,5; 997,8743;1023,4375;5; 26,4; 26,4; 0,0; 0,0;180,0; 16,2
2020-01-23 10:57:00; 4,5; 69; -0,7; 997,9993;1023,5625;5; 26,4; 26,4; 0,0; 0,0;180,0; 16,2
2020-01-23 11:06:59; 4,4; 68; -1,0; 997,9993;1023,5625;5; 26,4; 26,4; 0,0; 0,0;180,0; 16,2
2020-01-23 11:17:00; 4,4; 69; -0,8; 997,7493;1023,3125;5; 26,4; 26,4; 0,0; 0,0;180,0; 16,2
2020-01-23 11:27:00; 4,5; 68; -0,9; 997,7493;1023,3125;5; 26,4; 26,4; 0,0; 0,0;180,0; 16,2
2020-01-23 11:36:59; 4,5; 68; -0,9; 997,6868;1023,2500;5; 26,4; 26,4; 0,0; 0,0;180,0; 16,2
2020-01-23 11:47:00; 4,5; 68; -0,9; 997,6868;1023,2500;5; 26,4; 26,4; 0,0; 0,0;180,0; 16,2
2020-01-23 11:56:59; 4,4; 68; -1,0; 997,4993;1023,0625;5; 26,4; 26,4; 0,0; 0,0;180,0; 16,2
2020-01-23 12:07:00; 4,4; 68; -1,0; 997,4993;1023,0625;5; 26,4; 26,4; 0,0; 0,0;180,0; 16,2
2020-01-23 12:16:59; 4,5; 68; -0,9; 997,1243;1022,6875;5; 22,8; 22,8; 0,0; 0,1;315,0; 16,2
2020-01-23 12:27:00; 4,4; 67; -1,2; 997,1243;1022,6875;5; 20,3; 20,3; 0,0; 0,0; 22,5; 17,6
2020-01-23 12:36:59; 4,5; 67; -1,1; 996,8118;1022,3750;5; 22,5; 22,5; 0,0; 0,0; 22,5; 17,6
2020-01-23 12:47:00; 4,5; 66; -1,3; 996,8118;1022,3750;5; 23,8; 23,8; 0,0; 0,0; 22,5; 17,6
2020-01-23 12:57:00; 4,5; 66; -1,3; 996,3743;1021,9375;5; 24,6; 24,6; 0,0; 0,0; 22,5; 17,6
2020-01-23 13:06:59; 4,5; 66; -1,3; 996,3743;1021,9375;5; 25,1; 25,1; 0,0; 0,0; 22,5; 17,6
2020-01-23 13:17:00; 4,5; 65; -1,5; 995,9993;1021,5625;5; 25,3; 25,3; 0,0; 0,0; 22,5; 17,6
2020-01-23 13:26:59; 4,5; 65; -1,5; 995,9993;1021,5625;5; 25,5; 25,5; 0,0; 0,0; 22,5; 17,6
2020-01-23 13:37:00; 4,5; 65; -1,5; 995,8743;1021,4375;5; 25,6; 25,6; 0,0; 0,0; 22,5; 17,6
2020-01-23 13:46:59; 4,5; 65; -1,5; 995,8743;1021,4375;5; 25,7; 25,7; 0,0; 0,0; 22,5; 17,6
2020-01-23 13:57:00; 4,5; 65; -1,5; 995,9368;1021,5000;5; 25,7; 25,7; 0,0; 0,0; 22,5; 17,6
2020-01-23 14:06:59; 4,5; 65; -1,5; 995,9368;1021,5000;5; 25,7; 25,7; 0,0; 0,0; 22,5; 17,6
2020-01-23 14:17:00; 4,3; 65; -1,7; 995,8118;1021,3750;5; 25,7; 25,7; 0,0; 0,0; 22,5; 17,6
2020-01-23 14:27:00; 4,2; 65; -1,8; 995,8118;1021,3750;5; 25,7; 25,7; 0,0; 0,0; 22,5; 17,6
2020-01-23 14:36:59; 4,1; 65; -1,9; 995,5618;1021,1250;4; 25,7; 25,7; 0,0; 0,0; 22,5; 17,6
2020-01-23 14:47:00; 3,9; 66; -1,9; 995,5618;1021,1250;4; 25,8; 25,8; 0,0; 0,0; 22,5; 17,6
2020-01-23 14:56:59; 3,8; 67; -1,8; 995,1868;1020,7500;4; 25,8; 25,8; 0,0; 0,0; 22,5; 17,6
2020-01-23 15:07:00; 3,5; 67; -2,1; 995,1868;1020,7500;4; 25,8; 25,8; 0,0; 0,0; 22,5; 17,6
2020-01-23 15:16:59; 3,2; 68; -2,1; 994,9368;1020,5000;4; 25,8; 25,8; 0,0; 0,0; 22,5; 17,6
2020-01-23 15:27:00; 2,9; 68; -2,4; 994,9368;1020,5000;4; 25,8; 25,8; 0,0; 0,0; 22,5; 17,6
2020-01-23 15:36:59; 2,7; 69; -2,4; 994,6243;1020,1875;4; 25,8; 25,8; 0,0; 0,0; 22,5; 17,6
2020-01-23 15:47:00; 2,3; 70; -2,6; 994,6243;1020,1875;4; 25,8; 25,8; 0,0; 0,0;315,0; 17,6
2020-01-23 15:57:00; 2,2; 70; -2,7; 994,8743;1020,4375;4; 25,8; 25,8; 0,0; 0,0;315,0; 17,6
2020-01-23 16:06:59; 1,8; 70; -3,1; 994,8743;1020,4375;4; 25,9; 25,9; 0,0; 0,0;315,0; 17,6
2020-01-23 16:17:00; 1,5; 72; -3,0; 994,5618;1020,1250;4; 25,9; 25,9; 0,0; 0,0;315,0; 17,6
2020-01-23 16:26:59; 1,5; 73; -2,8; 994,5618;1020,1250;4; 25,9; 25,9; 0,0; 0,0;315,0; 17,6
2020-01-23 16:37:00; 1,5; 73; -2,8; 994,3743;1019,9375;4; 26,0; 26,0; 0,0; 0,0;315,0; 17,6
2020-01-23 16:46:59; 1,3; 73; -3,0; 994,3743;1019,9375;4; 26,0; 26,0; 0,0; 0,0;315,0; 17,6
2020-01-23 16:57:00; 1,1; 74; -3,0; 994,4993;1020,0625;4; 26,0; 26,0; 0,0; 0,0;315,0; 17,6
2020-01-23 17:06:59; 1,1; 75; -2,8; 994,4993;1020,0625;4; 26,0; 26,0; 0,0; 0,0;315,0; 17,6
2020-01-23 17:17:00; 0,9; 75; -3,0; 994,1868;1019,7500;4; 26,0; 26,0; 0,0; 0,0;315,0; 17,6
2020-01-23 17:27:00; 0,8; 75; -3,1; 994,1868;1019,7500;4; 25,9; 25,9; 0,0; 0,0;315,0; 17,6
2020-01-23 17:36:59; 0,7; 76; -3,0; 993,9993;1019,5625;4; 25,9; 25,9; 0,0; 0,0;315,0; 17,6
2020-01-23 17:47:00; 0,5; 76; -3,2; 993,9993;1019,5625;4; 25,7; 25,7; 0,0; 0,0;315,0; 17,6
2020-01-23 17:56:59; 0,4; 76; -3,3; 993,6243;1019,1875;1; 25,7; 25,7; 0,0; 0,0;315,0; 17,6
2020-01-23 18:07:00; 0,2; 76; -3,5; 993,6243;1019,1875;1; 25,6; 25,6; 0,0; 0,0;315,0; 17,6
2020-01-23 18:16:59; -0,1; 76; -3,8; 993,1868;1018,7500;1; 25,5; 25,5; 0,0; 0,0;315,0; 17,6
2020-01-23 18:27:00; -0,2; 77; -3,7; 993,1868;1018,7500;1; 25,5; 25,5; 0,0; 0,0;315,0; 17,6
2020-01-23 18:36:59; -0,3; 77; -3,8; 992,9368;1018,5000;1; 25,4; 25,4; 0,0; 0,0;315,0; 17,6
2020-01-23 18:47:00; -0,3; 78; -3,7; 992,9368;1018,5000;1; 25,4; 25,4; 0,0; 0,0;315,0; 17,6
2020-01-23 18:57:00; -0,5; 78; -3,9; 992,7493;1018,3125;1; 25,3; 25,3; 0,0; 0,0;315,0; 17,6
2020-01-23 19:06:59; -0,6; 78; -4,0; 992,7493;1018,3125;1; 25,3; 25,3; 0,0; 0,0;315,0; 17,6
2020-01-23 19:17:00; -0,8; 78; -4,2; 992,4993;1018,0625;1; 25,3; 25,3; 0,0; 0,0;315,0; 17,6
2020-01-23 19:26:59; -0,9; 78; -4,3; 992,4993;1018,0625;1; 25,3; 25,3; 0,0; 0,0;315,0; 17,6
2020-01-23 19:37:00; -1,1; 78; -4,4; 992,4368;1018,0000;1; 25,3; 25,3; 0,0; 0,0;315,0; 17,6
2020-01-23 19:46:59; -1,1; 78; -4,4; 992,4368;1018,0000;1; 25,2; 25,2; 0,0; 0,0;315,0; 17,6
2020-01-23 19:57:00; -1,2; 78; -4,5; 992,3743;1017,9375;1; 25,2; 25,2; 0,0; 0,0;315,0; 17,6
2020-01-23 20:06:59; -1,3; 79; -4,5; 992,3743;1017,9375;1; 25,2; 25,2; 0,0; 0,0;315,0; 17,6
2020-01-23 20:17:00; -1,4; 78; -4,7; 992,3118;1017,8750;1; 25,2; 25,2; 0,0; 0,0;315,0; 17,6
2020-01-23 20:27:00; -1,5; 79; -4,7; 992,3118;1017,8750;1; 25,2; 25,2; 0,0; 0,0;315,0; 17,6
2020-01-23 20:36:59; -1,7; 79; -4,9; 992,1868;1017,7500;1; 25,2; 25,2; 0,0; 0,0;315,0; 17,6
2020-01-23 20:47:00; -1,7; 79; -4,9; 992,1868;1017,7500;1; 25,2; 25,2; 0,0; 0,0;315,0; 17,6
2020-01-23 20:56:59; -1,9; 80; -4,9; 991,9368;1017,5000;1; 25,2; 25,2; 0,0; 0,0;315,0; 17,6
2020-01-23 21:07:00; -2,0; 80; -5,0; 991,9368;1017,5000;1; 25,1; 25,1; 0,0; 0,0;315,0; 17,6
2020-01-23 21:16:59; -2,0; 81; -4,8; 991,8118;1017,3750;1; 25,1; 25,1; 0,0; 0,0;315,0; 17,6
2020-01-23 21:27:00; -2,1; 81; -4,9; 991,8118;1017,3750;1; 25,1; 25,1; 0,0; 0,0;315,0; 17,6
2020-01-23 21:36:59; -2,2; 82; -4,9; 991,6243;1017,1875;1; 25,1; 25,1; 0,0; 0,0;315,0; 17,6
2020-01-23 21:47:00; -2,3; 81; -5,1; 991,6243;1017,1875;1; 25,1; 25,1; 0,0; 0,0;315,0; 17,6
2020-01-23 21:57:00; -2,3; 82; -5,0; 991,4368;1017,0000;1; 25,1; 25,1; 0,0; 0,0;315,0; 17,6
2020-01-23 22:06:59; -2,4; 82; -5,1; 991,4368;1017,0000;1; 25,1; 25,1; 0,0; 0,0;315,0; 17,6
2020-01-23 22:17:00; -2,5; 82; -5,1; 991,3743;1016,9375;1; 25,1; 25,1; 0,0; 0,0;315,0; 17,6
2020-01-23 22:26:59; -2,5; 83; -5,0; 991,3743;1016,9375;1; 25,1; 25,1; 0,0; 0,0;315,0; 17,6
2020-01-23 22:37:00; -2,5; 82; -5,1; 991,4368;1017,0000;1; 25,1; 25,1; 0,0; 0,0;315,0; 17,6
2020-01-23 22:46:59; -2,6; 82; -5,2; 991,4368;1017,0000;1; 25,1; 25,1; 0,0; 0,0;315,0; 17,6
2020-01-23 22:57:00; -2,7; 82; -5,3; 991,3743;1016,9375;1; 25,1; 25,1; 0,0; 0,0;315,0; 17,6
2020-01-23 23:06:59; -2,8; 82; -5,4; 991,3743;1016,9375;1; 25,1; 25,1; 0,0; 0,0;315,0; 17,6
2020-01-23 23:17:00; -2,9; 82; -5,5; 991,1868;1016,7500;1; 25,1; 25,1; 0,0; 0,0;315,0; 17,6
2020-01-23 23:27:00; -2,9; 82; -5,5; 991,1868;1016,7500;1; 25,1; 25,1; 0,0; 0,0;315,0; 17,6
2020-01-23 23:36:59; -2,9; 82; -5,5; 990,9993;1016,5625;1; 25,1; 25,1; 0,0; 0,0;315,0; 17,6
2020-01-23 23:47:00; -3,0; 82; -5,6; 990,9993;1016,5625;1; 25,0; 25,0; 0,0; 0,0;315,0; 17,6
2020-01-23 23:56:59; -3,0; 83; -5,5; 990,8743;1016,4375;1; 25,0; 25,0; 0,0; 0,0;315,0; 17,6
2020-01-24 00:07:00; -2,9; 83; -5,4; 990,8743;1016,4375;1; 25,0; 25,0; 0,0; 0,0;315,0; 17,6
2020-01-24 00:16:59; -3,2; 83; -5,7; 990,4993;1016,0625;1; 25,0; 25,0; 0,0; 0,0;315,0; 17,6
2020-01-24 00:27:00; -3,2; 83; -5,7; 990,4993;1016,0625;1; 25,0; 25,0; 0,0; 0,0;315,0; 17,6
2020-01-24 00:36:59; -3,3; 83; -5,8; 990,4368;1016,0000;1; 25,0; 25,0; 0,0; 0,0;315,0; 17,6
2020-01-24 00:47:00; -3,3; 83; -5,8; 990,4368;1016,0000;1; 25,0; 25,0; 0,0; 0,0;315,0; 17,6
2020-01-24 00:57:00; -3,4; 83; -5,9; 990,3118;1015,8750;1; 25,0; 25,0; 0,0; 0,0;315,0; 17,6
2020-01-24 01:06:59; -3,5; 82; -6,1; 990,3118;1015,8750;1; 25,0; 25,0; 0,0; 0,0;315,0; 17,6
2020-01-24 01:17:00; -3,6; 83; -6,1; 990,2493;1015,8125;1; 25,0; 25,0; 0,0; 0,0;315,0; 17,6
2020-01-24 01:26:59; -3,5; 83; -6,0; 990,2493;1015,8125;1; 25,0; 25,0; 0,0; 0,0;315,0; 17,6
2020-01-24 01:37:00; -3,5; 83; -6,0; 989,6868;1015,2500;1; 25,0; 25,0; 0,0; 0,0;315,0; 17,6
2020-01-24 01:46:59; -3,5; 84; -5,8; 989,6868;1015,2500;1; 25,0; 25,0; 0,0; 0,0;315,0; 17,6
2020-01-24 01:57:00; -3,5; 84; -5,8; 989,7493;1015,3125;1; 24,9; 24,9; 0,0; 0,0;315,0; 17,6
2020-01-24 02:06:59; -3,6; 83; -6,1; 989,7493;1015,3125;1; 24,9; 24,9; 0,0; 0,0;315,0; 17,6
2020-01-24 02:17:00; -3,6; 83; -6,1; 989,5618;1015,1250;1; 24,9; 24,9; 0,0; 0,0;315,0; 17,6
2020-01-24 02:27:00; -3,7; 83; -6,2; 989,5618;1015,1250;1; 24,9; 24,9; 0,0; 0,0;315,0; 17,6
2020-01-24 02:36:59; -3,8; 83; -6,3; 988,9993;1014,5625;1; 24,9; 24,9; 0,0; 0,0;315,0; 17,6
2020-01-24 02:47:00; -3,8; 84; -6,1; 988,9993;1014,5625;1; 24,9; 24,9; 0,0; 0,0;315,0; 17,6
2020-01-24 02:56:59; -3,9; 84; -6,2; 989,0618;1014,6250;1; 24,9; 24,9; 0,0; 0,0;315,0; 17,6
2020-01-24 03:07:00; -4,0; 84; -6,3; 989,0618;1014,6250;1; 24,9; 24,9; 0,0; 0,0;315,0; 17,6
2020-01-24 03:16:59; -4,0; 84; -6,3; 988,7493;1014,3125;1; 24,9; 24,9; 0,0; 0,0;315,0; 17,6
2020-01-24 03:27:00; -3,8; 84; -6,1; 988,7493;1014,3125;1; 24,9; 24,9; 0,0; 0,0;315,0; 17,6
2020-01-24 03:36:59; -3,8; 84; -6,1; 988,6868;1014,2500;1; 24,9; 24,9; 0,0; 0,0;315,0; 17,6
2020-01-24 03:47:00; -3,9; 83; -6,4; 988,6868;1014,2500;1; 24,9; 24,9; 0,0; 0,0;315,0; 17,6
2020-01-24 03:57:00; -4,1; 83; -6,6; 988,8118;1014,3750;1; 24,9; 24,9; 0,0; 0,0;315,0; 17,6
2020-01-24 04:06:59; -4,1; 83; -6,6; 988,8118;1014,3750;1; 24,9; 24,9; 0,0; 0,0;315,0; 17,6
2020-01-24 04:17:00; -4,0; 83; -6,5; 988,7493;1014,3125;1; 24,9; 24,9; 0,0; 0,0;315,0; 17,6
2020-01-24 04:26:59; -4,1; 83; -6,6; 988,7493;1014,3125;1; 24,9; 24,9; 0,0; 0,0;315,0; 17,6
2020-01-24 04:37:00; -4,1; 83; -6,6; 988,6243;1014,1875;1; 24,9; 24,9; 0,0; 0,0;315,0; 17,6
2020-01-24 04:46:59; -4,2; 82; -6,8; 988,6243;1014,1875;1; 24,9; 24,9; 0,0; 0,0;315,0; 17,6
2020-01-24 04:57:00; -4,3; 82; -6,9; 988,6243;1014,1875;1; 24,9; 24,9; 0,0; 0,0;315,0; 17,6
2020-01-24 05:06:59; -4,4; 82; -7,0; 988,6243;1014,1875;1; 24,9; 24,9; 0,0; 0,0;315,0; 17,6
2020-01-24 05:17:00; -4,4; 83; -6,8; 988,4368;1014,0000;0; 24,9; 24,9; 0,0; 0,0;315,0; 17,6
2020-01-24 05:27:00; -4,4; 83; -6,8; 988,4368;1014,0000;0; 24,9; 24,9; 0,0; 0,0;315,0; 17,6
2020-01-24 05:36:59; -4,4; 83; -6,8; 988,2493;1013,8125;0; 24,9; 24,9; 0,0; 0,0;315,0; 17,6
2020-01-24 05:47:00; -4,5; 83; -6,9; 988,2493;1013,8125;0; 24,9; 24,9; 0,0; 0,0;315,0; 17,6
2020-01-24 05:56:59; -4,4; 83; -6,8; 988,2493;1013,8125;0; 24,9; 24,9; 0,0; 0,0;315,0; 17,6
2020-01-24 06:07:00; -4,5; 83; -6,9; 988,2493;1013,8125;0; 24,9; 24,9; 0,0; 0,0;315,0; 17,6
2020-01-24 06:16:59; -4,5; 83; -6,9; 988,1243;1013,6875;0; 24,9; 24,9; 0,0; 0,0;315,0; 17,6
2020-01-24 06:27:00; -4,6; 82; -7,2; 988,1243;1013,6875;0; 24,9; 24,9; 0,0; 0,0;315,0; 17,6
2020-01-24 06:36:59; -4,6; 83; -7,0; 988,2493;1013,8125;0; 24,9; 24,9; 0,0; 0,0;315,0; 17,6
2020-01-24 06:47:00; -4,5; 83; -6,9; 988,2493;1013,8125;0; 24,9; 24,9; 0,0; 0,0;315,0; 17,6
2020-01-24 06:57:00; -4,5; 82; -7,1; 988,1868;1013,7500;0; 24,9; 24,9; 0,0; 0,0;315,0; 17,6
2020-01-24 07:06:59; -4,5; 82; -7,1; 988,1868;1013,7500;0; 24,9; 24,9; 0,0; 0,0;315,0; 17,6
2020-01-24 07:17:00; -4,5; 82; -7,1; 988,1868;1013,7500;0; 24,9; 24,9; 0,0; 0,0;315,0; 17,6
2020-01-24 07:26:59; -4,4; 82; -7,0; 988,1868;1013,7500;0; 24,9; 24,9; 0,0; 0,0;315,0; 17,6
2020-01-24 07:37:00; -4,2; 82; -6,8; 988,3118;1013,8750;0; 24,9; 24,9; 0,0; 0,0;315,0; 17,6
2020-01-24 07:46:59; -4,1; 82; -6,7; 988,3118;1013,8750;0; 24,9; 24,9; 0,0; 0,0;315,0; 17,6
2020-01-24 07:57:00; -4,1; 82; -6,7; 988,1243;1013,6875;0; 24,9; 24,9; 0,0; 0,0;315,0; 17,6
2020-01-24 08:06:59; -3,7; 82; -6,3; 988,1243;1013,6875;0; 24,9; 24,9; 0,0; 0,0;315,0; 17,6
2020-01-24 08:17:00; -3,7; 82; -6,3; 987,9993;1013,5625;0; 24,9; 24,9; 0,0; 0,0;315,0; 17,6
2020-01-24 08:27:00; -3,2; 82; -5,8; 987,9993;1013,5625;0; 25,1; 25,1; 0,0; 0,0;315,0; 17,6
2020-01-24 08:36:59; -2,8; 81; -5,6; 988,2493;1013,8125;0; 25,2; 25,2; 0,0; 0,0;315,0; 17,6
2020-01-24 08:47:00; -2,3; 80; -5,3; 988,2493;1013,8125;0; 25,3; 25,3; 0,0; 0,0;315,0; 17,6
2020-01-24 08:56:59; -2,1; 79; -5,2; 988,5618;1014,1250;0; 25,4; 25,4; 0,0; 0,0;315,0; 17,6
2020-01-24 09:07:00; -1,7; 79; -4,9; 988,5618;1014,1250;0; 25,5; 25,5; 0,0; 0,0;315,0; 17,6
2020-01-24 09:16:59; -1,2; 79; -4,4; 988,9993;1014,5625;0; 25,5; 25,5; 0,0; 0,0;315,0; 17,6
2020-01-24 09:27:00; -0,7; 78; -4,1; 988,9993;1014,5625;0; 25,6; 25,6; 0,0; 0,0;315,0; 17,6
2020-01-24 09:36:59; -0,2; 78; -3,6; 988,9993;1014,5625;0; 25,7; 25,7; 0,0; 0,0;315,0; 17,6
2020-01-24 09:47:00; 0,3; 78; -3,1; 988,9993;1014,5625;0; 25,7; 25,7; 0,0; 0,0;315,0; 17,6
2020-01-24 09:57:00; 0,7; 77; -2,9; 988,9993;1014,5625;0; 25,8; 25,8; 0,0; 0,0;315,0; 17,6
2020-01-24 10:06:59; 1,3; 76; -2,5; 988,9993;1014,5625;0; 25,8; 25,8; 0,0; 0,0;315,0; 17,6
2020-01-24 10:17:00; 1,8; 75; -2,2; 988,8743;1014,4375;0; 25,8; 25,8; 0,0; 0,0;315,0; 17,6
2020-01-24 10:26:59; 2,1; 74; -2,0; 988,8743;1014,4375;0; 25,8; 25,8; 0,0; 0,0;315,0; 17,6
2020-01-24 10:37:00; 2,7; 74; -1,5; 988,4993;1014,0625;0; 25,9; 25,9; 0,0; 0,0;315,0; 17,6
2020-01-24 10:46:59; 3,1; 73; -1,3; 988,4993;1014,0625;0; 26,0; 26,0; 0,0; 0,0;315,0; 17,6
2020-01-24 10:57:00; 3,5; 72; -1,1; 988,5618;1014,1250;2; 26,0; 26,0; 0,0; 0,0;315,0; 17,6
2020-01-24 11:06:59; 3,8; 70; -1,2; 988,5618;1014,1250;2; 26,2; 26,2; 0,0; 0,0;315,0; 17,6
2020-01-24 11:17:00; 4,2; 70; -0,8; 988,7493;1014,3125;2; 26,2; 26,2; 0,0; 0,0;315,0; 17,6
2020-01-24 11:27:00; 4,5; 68; -0,9; 988,7493;1014,3125;2; 26,3; 26,3; 0,0; 0,0;315,0; 17,6
2020-01-24 11:36:59; 4,9; 67; -0,7; 988,9368;1014,5000;2; 26,4; 26,4; 0,0; 0,0;315,0; 17,6
2020-01-24 11:47:00; 5,0; 65; -1,0; 988,9368;1014,5000;2; 26,6; 26,6; 0,0; 0,0;315,0; 17,6
2020-01-24 11:56:59; 5,2; 64; -1,1; 988,6868;1014,2500;2; 26,6; 26,6; 0,0; 0,0;315,0; 17,6
2020-01-24 12:07:00; 5,3; 64; -1,0; 988,6868;1014,2500;2; 26,7; 26,7; 0,0; 0,0;315,0; 17,6
2020-01-24 12:16:59; 5,4; 63; -1,1; 988,6868;1014,2500;2; 26,7; 26,7; 0,0; 0,0;315,0; 17,6
2020-01-24 12:27:00; 5,6; 63; -0,9; 988,6868;1014,2500;2; 26,8; 26,8; 0,0; 0,0;315,0; 17,6
2020-01-24 12:36:59; 5,8; 62; -0,9; 988,6868;1014,2500;2; 26,8; 26,8; 0,0; 0,0;315,0; 17,6
2020-01-24 12:47:00; 5,7; 61; -1,2; 988,6868;1014,2500;2; 26,8; 26,8; 0,0; 0,0;315,0; 17,6
2020-01-24 12:57:00; 5,7; 61; -1,2; 988,4993;1014,0625;2; 26,8; 26,8; 0,0; 0,0;315,0; 17,6
2020-01-24 13:06:59; 5,5; 61; -1,4; 988,4993;1014,0625;2; 26,9; 26,9; 0,0; 0,0;315,0; 17,6
2020-01-24 13:17:00; 5,4; 61; -1,5; 988,4368;1014,0000;2; 26,9; 26,9; 0,0; 0,0;315,0; 17,6
2020-01-24 13:26:59; 5,1; 61; -1,8; 988,4368;1014,0000;2; 26,9; 26,9; 0,0; 0,0;315,0; 17,6
2020-01-24 13:37:00; 5,0; 61; -1,9; 988,3118;1013,8750;2; 26,8; 26,8; 0,0; 0,0;315,0; 17,6
2020-01-24 13:46:59; 4,8; 61; -2,1; 988,3118;1013,8750;2; 26,8; 26,8; 0,0; 0,0;315,0; 17,6
2020-01-24 13:57:00; 4,5; 62; -2,2; 987,9368;1013,5000;2; 26,8; 26,8; 0,0; 0,0;315,0; 17,6
2020-01-24 14:06:59; 4,2; 63; -2,2; 987,9368;1013,5000;2; 26,8; 26,8; 0,0; 0,0;315,0; 17,6
2020-01-24 14:17:00; 4,0; 64; -2,2; 987,8743;1013,4375;2; 26,6; 26,6; 0,0; 0,0;315,0; 17,6
2020-01-24 14:27:00; 3,6; 64; -2,6; 987,8743;1013,4375;2; 26,7; 26,7; 0,0; 0,0;315,0; 17,6
2020-01-24 14:36:59; 3,3; 65; -2,7; 987,7493;1013,3125;2; 26,6; 26,6; 0,0; 0,0;315,0; 17,6
2020-01-24 14:47:00; 3,2; 65; -2,7; 987,7493;1013,3125;2; 26,6; 26,6; 0,0; 0,0;315,0; 17,6
2020-01-24 14:56:59; 3,0; 66; -2,7; 987,8743;1013,4375;2; 26,6; 26,6; 0,0; 0,0;315,0; 17,6
2020-01-24 15:07:00; 2,7; 66; -3,0; 987,8743;1013,4375;2; 26,6; 26,6; 0,0; 0,0;315,0; 17,6
2020-01-24 15:16:59; 2,3; 68; -3,0; 987,8743;1013,4375;0; 26,5; 26,5; 0,0; 0,0;315,0; 17,6
2020-01-24 15:27:00; 1,9; 68; -3,4; 987,8743;1013,4375;0; 26,5; 26,5; 0,0; 0,0;315,0; 17,6
2020-01-24 15:36:59; 1,7; 69; -3,4; 987,5618;1013,1250;0; 26,5; 26,5; 0,0; 0,0;315,0; 17,6
2020-01-24 15:47:00; 1,4; 70; -3,5; 987,5618;1013,1250;0; 26,4; 26,4; 0,0; 0,0;315,0; 17,6
2020-01-24 15:57:00; 1,1; 71; -3,6; 987,4368;1013,0000;0; 26,4; 26,4; 0,0; 0,0;315,0; 17,6
2020-01-24 16:06:59; 0,9; 71; -3,8; 987,4368;1013,0000;0; 26,4; 26,4; 0,0; 0,0;112,5; 17,6
2020-01-24 16:17:00; 0,8; 72; -3,7; 987,4993;1013,0625;0; 26,1; 26,1; 0,0; 0,0;112,5; 17,6
2020-01-24 16:26:59; 0,5; 73; -3,8; 987,4993;1013,0625;0; 25,9; 25,9; 0,0; 0,0;112,5; 17,6
2020-01-24 16:37:00; 0,4; 73; -3,9; 987,4993;1013,0625;0; 25,8; 25,8; 0,0; 0,0;112,5; 17,6
2020-01-24 16:46:59; 0,3; 73; -4,0; 987,4993;1013,0625;0; 25,7; 25,7; 0,0; 0,0;112,5; 17,6
2020-01-24 16:57:00; 0,0; 74; -4,1; 987,9368;1013,5000;0; 25,6; 25,6; 0,0; 0,0;112,5; 17,6
2020-01-24 17:06:59; -0,2; 75; -4,1; 987,9368;1013,5000;0; 25,5; 25,5; 0,0; 0,0;112,5; 17,6
2020-01-24 17:17:00; -0,4; 75; -4,3; 987,5618;1013,1250;0; 25,3; 25,3; 0,0; 0,0;112,5; 17,6
2020-01-24 17:27:00; -0,5; 76; -4,2; 987,5618;1013,1250;0; 25,3; 25,3; 0,0; 0,0;112,5; 17,6
2020-01-24 17:36:59; -0,6; 77; -4,1; 987,5618;1013,1250;0; 25,2; 25,2; 0,0; 0,0;112,5; 17,6
2020-01-24 17:47:00; -0,9; 77; -4,4; 987,5618;1013,1250;0; 25,2; 25,2; 0,0; 0,0;112,5; 17,6
2020-01-24 17:56:59; -0,9; 77; -4,4; 987,4993;1013,0625;0; 25,1; 25,1; 0,0; 0,0;112,5; 17,6
2020-01-24 18:07:00; -1,2; 78; -4,5; 987,4993;1013,0625;0; 25,1; 25,1; 0,0; 0,0;112,5; 17,6
2020-01-24 18:16:59; -1,3; 78; -4,6; 987,3743;1012,9375;0; 25,0; 25,0; 0,0; 0,0;112,5; 17,6
2020-01-24 18:27:00; -1,3; 78; -4,6; 987,3743;1012,9375;0; 24,9; 24,9; 0,0; 0,0;112,5; 17,6
2020-01-24 18:36:59; -1,4; 79; -4,6; 987,0618;1012,6250;0; 24,9; 24,9; 0,0; 0,0;112,5; 17,6
2020-01-24 18:47:00; -1,5; 79; -4,7; 987,0618;1012,6250;0; 24,9; 24,9; 0,0; 0,0;112,5; 17,6
2020-01-24 18:57:00; -1,6; 79; -4,8; 986,9993;1012,5625;0; 24,9; 24,9; 0,0; 0,0;112,5; 17,6
2020-01-24 19:06:59; -1,7; 80; -4,7; 986,9993;1012,5625;0; 24,8; 24,8; 0,0; 0,0;112,5; 17,6
2020-01-24 19:17:00; -1,7; 80; -4,7; 986,9368;1012,5000;0; 24,8; 24,8; 0,0; 0,0;112,5; 17,6
2020-01-24 19:26:59; -1,8; 79; -5,0; 986,9368;1012,5000;0; 24,8; 24,8; 0,0; 0,0;112,5; 17,6
2020-01-24 19:37:00; -1,9; 80; -4,9; 986,8118;1012,3750;0; 24,8; 24,8; 0,0; 0,0;112,5; 17,6
2020-01-24 19:46:59; -2,0; 80; -5,0; 986,8118;1012,3750;0; 24,8; 24,8; 0,0; 0,0;112,5; 17,6
2020-01-24 19:57:00; -2,1; 80; -5,1; 987,6868;1013,2500;0; 24,8; 24,8; 0,0; 0,0;112,5; 17,6
2020-01-24 20:06:59; -2,3; 80; -5,3; 987,6868;1013,2500;0; 24,8; 24,8; 0,0; 0,0;112,5; 17,6
2020-01-24 20:17:00; -2,3; 80; -5,3; 987,1243;1012,6875;0; 24,7; 24,7; 0,0; 0,0;112,5; 17,6
2020-01-24 20:27:00; -2,4; 80; -5,4; 987,1243;1012,6875;0; 24,7; 24,7; 0,0; 0,0;112,5; 17,6
2020-01-24 20:36:59; -2,3; 82; -5,0; 987,3118;1012,8750;0; 24,7; 24,7; 0,0; 0,0;112,5; 17,6
2020-01-24 20:47:00; -2,5; 82; -5,1; 987,3118;1012,8750;0; 24,7; 24,7; 0,0; 0,0;112,5; 17,6
2020-01-24 20:56:59; -2,6; 81; -5,4; 987,3118;1012,8750;0; 24,6; 24,6; 0,0; 0,0;112,5; 17,6
2020-01-24 21:07:00; -2,7; 82; -5,3; 987,3118;1012,8750;0; 24,6; 24,6; 0,0; 0,0;112,5; 17,6
2020-01-24 21:16:59; -2,8; 81; -5,6; 987,3118;1012,8750;0; 24,6; 24,6; 0,0; 0,0;112,5; 17,6
2020-01-24 21:27:00; -2,9; 82; -5,5; 987,3118;1012,8750;0; 24,6; 24,6; 0,0; 0,0;112,5; 17,6
2020-01-24 21:36:59; -2,8; 82; -5,4; 987,3118;1012,8750;0; 24,6; 24,6; 0,0; 0,0;112,5; 17,6
2020-01-24 21:47:00; -2,7; 83; -5,2; 987,3118;1012,8750;0; 24,6; 24,6; 0,0; 0,0;112,5; 17,6
2020-01-24 21:57:00; -2,7; 83; -5,2; 987,1868;1012,7500;0; 24,6; 24,6; 0,0; 0,0;112,5; 17,6
2020-01-24 22:06:59; -2,7; 83; -5,2; 987,1868;1012,7500;0; 24,6; 24,6; 0,0; 0,0;112,5; 17,6
2020-01-24 22:17:00; -2,8; 83; -5,3; 987,3743;1012,9375;0; 24,6; 24,6; 0,0; 0,0;112,5; 17,6
2020-01-24 22:26:59; -2,8; 83; -5,3; 987,3743;1012,9375;0; 24,6; 24,6; 0,0; 0,0;112,5; 17,6
2020-01-24 22:37:00; -2,9; 83; -5,4; 987,5618;1013,1250;0; 24,5; 24,5; 0,0; 0,0;112,5; 17,6
2020-01-24 22:46:59; -2,9; 83; -5,4; 987,5618;1013,1250;0; 24,5; 24,5; 0,0; 0,0;112,5; 17,6
2020-01-24 22:57:00; -2,8; 83; -5,3; 987,3118;1012,8750;0; 24,5; 24,5; 0,0; 0,0;112,5; 17,6
2020-01-24 23:06:59; -2,9; 83; -5,4; 987,3118;1012,8750;0; 24,5; 24,5; 0,0; 0,0;112,5; 17,6
2020-01-24 23:17:00; -2,8; 84; -5,1; 987,3118;1012,8750;0; 24,5; 24,5; 0,0; 0,0;112,5; 17,6
2020-01-24 23:27:00; -2,9; 83; -5,4; 987,3118;1012,8750;0; 24,5; 24,5; 0,0; 0,0;112,5; 17,6
2020-01-24 23:36:59; -3,0; 83; -5,5; 987,1868;1012,7500;0; 24,4; 24,4; 0,0; 0,0;112,5; 17,6
2020-01-24 23:47:00; -3,1; 83; -5,6; 987,1868;1012,7500;0; 24,4; 24,4; 0,0; 0,0;112,5; 17,6
2020-01-24 23:56:59; -3,2; 83; -5,7; 986,9368;1012,5000;0; 24,4; 24,4; 0,0; 0,0;112,5; 17,6
2020-01-25 00:07:00; -3,3; 83; -5,8; 986,9368;1012,5000;0; 24,4; 24,4; 0,0; 0,0;112,5; 17,6
2020-01-25 00:16:59; -3,3; 84; -5,6; 986,5618;1012,1250;0; 24,4; 24,4; 0,0; 0,0;112,5; 17,6
2020-01-25 00:27:00; -3,4; 84; -5,7; 986,5618;1012,1250;0; 24,4; 24,4; 0,0; 0,0;112,5; 17,6
2020-01-25 00:36:59; -3,4; 84; -5,7; 986,5618;1012,1250;0; 24,4; 24,4; 0,0; 0,0;112,5; 17,6
2020-01-25 00:47:00; -3,5; 84; -5,8; 986,5618;1012,1250;0; 24,4; 24,4; 0,0; 0,0;112,5; 17,6
2020-01-25 00:57:00; -3,4; 84; -5,7; 986,6868;1012,2500;0; 24,4; 24,4; 0,0; 0,0;112,5; 17,6
2020-01-25 01:06:59; -3,5; 84; -5,8; 986,6868;1012,2500;0; 24,4; 24,4; 0,0; 0,0;112,5; 17,6
2020-01-25 01:17:00; -3,6; 84; -5,9; 987,0618;1012,6250;0; 24,4; 24,4; 0,0; 0,0;112,5; 17,6
2020-01-25 01:26:59; -3,7; 84; -6,0; 987,0618;1012,6250;0; 24,4; 24,4; 0,0; 0,0;112,5; 17,6
2020-01-25 01:37:00; -3,7; 84; -6,0; 986,4993;1012,0625;0; 24,4; 24,4; 0,0; 0,0;112,5; 17,6
2020-01-25 01:46:59; -3,7; 84; -6,0; 986,4993;1012,0625;0; 24,4; 24,4; 0,0; 0,0;112,5; 17,6
2020-01-25 01:57:00; -3,7; 84; -6,0; 986,2493;1011,8125;0; 24,4; 24,4; 0,0; 0,0;112,5; 17,6
2020-01-25 02:06:59; -3,7; 84; -6,0; 986,2493;1011,8125;0; 24,4; 24,4; 0,0; 0,0;112,5; 17,6
2020-01-25 02:17:00; -3,8; 84; -6,1; 986,3118;1011,8750;0; 24,3; 24,3; 0,0; 0,0;112,5; 17,6
2020-01-25 02:27:00; -3,8; 84; -6,1; 986,3118;1011,8750;0; 24,3; 24,3; 0,0; 0,0;112,5; 17,6
2020-01-25 02:36:59; -3,8; 84; -6,1; 986,0618;1011,6250;0; 24,3; 24,3; 0,0; 0,0;112,5; 17,6
2020-01-25 02:47:00; -3,8; 84; -6,1; 986,0618;1011,6250;0; 24,3; 24,3; 0,0; 0,0;112,5; 17,6
2020-01-25 02:56:59; -3,7; 84; -6,0; 986,0618;1011,6250;0; 24,3; 24,3; 0,0; 0,0;112,5; 17,6
2020-01-25 03:07:00; -3,8; 84; -6,1; 986,0618;1011,6250;0; 24,3; 24,3; 0,0; 0,0;112,5; 17,6
2020-01-25 03:16:59; -3,8; 84; -6,1; 986,0618;1011,6250;0; 24,3; 24,3; 0,0; 0,0;112,5; 17,6
2020-01-25 03:27:00; -3,8; 84; -6,1; 986,0618;1011,6250;0; 24,3; 24,3; 0,0; 0,0;112,5; 17,6
2020-01-25 03:36:59; -3,9; 84; -6,2; 986,1868;1011,7500;0; 24,3; 24,3; 0,0; 0,0;112,5; 17,6
2020-01-25 03:47:00; -4,0; 84; -6,3; 986,1868;1011,7500;0; 24,2; 24,2; 0,0; 0,0;112,5; 17,6
2020-01-25 03:57:00; -4,1; 84; -6,4; 986,1868;1011,7500;0; 24,3; 24,3; 0,0; 0,0;112,5; 17,6
2020-01-25 04:06:59; -4,1; 83; -6,6; 986,1868;1011,7500;0; 24,3; 24,3; 0,0; 0,0;112,5; 17,6
2020-01-25 04:17:00; -4,3; 83; -6,8; 986,2493;1011,8125;0; 24,3; 24,3; 0,0; 0,0;112,5; 17,6
2020-01-25 04:26:59; -4,3; 83; -6,8; 986,2493;1011,8125;0; 24,3; 24,3; 0,0; 0,0;112,5; 17,6
2020-01-25 04:37:00; -4,4; 83; -6,8; 986,2493;1011,8125;0; 24,3; 24,3; 0,0; 0,0;112,5; 17,6
2020-01-25 04:46:59; -4,5; 83; -6,9; 986,2493;1011,8125;0; 24,3; 24,3; 0,0; 0,0;112,5; 17,6
2020-01-25 04:57:00; -4,5; 84; -6,8; 986,2493;1011,8125;0; 24,3; 24,3; 0,0; 0,0;112,5; 17,6
2020-01-25 05:06:59; -4,5; 84; -6,8; 986,2493;1011,8125;0; 24,3; 24,3; 0,0; 0,0;112,5; 17,6
2020-01-25 05:17:00; -4,5; 84; -6,8; 986,3118;1011,8750;0; 24,3; 24,3; 0,0; 0,0;112,5; 17,6
2020-01-25 05:27:00; -4,5; 84; -6,8; 986,3118;1011,8750;0; 24,3; 24,3; 0,0; 0,0;112,5; 17,6
2020-01-25 05:36:59; -4,4; 84; -6,7; 986,4368;1012,0000;0; 24,2; 24,2; 0,0; 0,0;112,5; 17,6
2020-01-25 05:47:00; -4,4; 84; -6,7; 986,4368;1012,0000;0; 24,2; 24,2; 0,0; 0,0;112,5; 17,6
2020-01-25 05:56:59; -4,3; 84; -6,6; 986,4993;1012,0625;0; 24,2; 24,2; 0,0; 0,0;112,5; 17,6
2020-01-25 06:07:00; -4,1; 85; -6,2; 986,4993;1012,0625;0; 24,2; 24,2; 0,0; 0,0;112,5; 17,6
2020-01-25 06:16:59; -3,9; 86; -5,9; 986,6243;1012,1875;0; 24,2; 24,2; 0,0; 0,0;112,5; 17,6
2020-01-25 06:27:00; -3,7; 86; -5,7; 986,6243;1012,1875;0; 24,2; 24,2; 0,0; 0,0;112,5; 17,6
2020-01-25 06:36:59; -3,6; 86; -5,6; 986,6243;1012,1875;0; 24,2; 24,2; 0,0; 0,0;112,5; 17,6
2020-01-25 06:47:00; -3,5; 86; -5,5; 986,6243;1012,1875;0; 24,2; 24,2; 0,0; 0,0;112,5; 17,6
2020-01-25 06:57:00; -3,4; 86; -5,4; 986,7493;1012,3125;0; 24,2; 24,2; 0,0; 0,0;112,5; 17,6
2020-01-25 07:06:59; -3,4; 85; -5,6; 986,7493;1012,3125;0; 24,2; 24,2; 0,0; 0,0;112,5; 17,6
2020-01-25 07:17:00; -3,2; 86; -5,2; 986,8118;1012,3750;0; 24,2; 24,2; 0,0; 0,0;112,5; 17,6
2020-01-25 07:26:59; -3,1; 86; -5,1; 986,8118;1012,3750;0; 24,2; 24,2; 0,0; 0,0;112,5; 17,6
2020-01-25 07:37:00; -3,0; 86; -5,0; 986,9368;1012,5000;0; 24,2; 24,2; 0,0; 0,0;112,5; 17,6
2020-01-25 07:46:59; -2,9; 86; -4,9; 986,9368;1012,5000;0; 24,2; 24,2; 0,0; 0,0;112,5; 17,6
2020-01-25 07:57:00; -2,7; 86; -4,7; 986,8118;1012,3750;0; 24,2; 24,2; 0,0; 0,0;112,5; 17,6
2020-01-25 08:06:59; -2,5; 86; -4,5; 986,8118;1012,3750;0; 24,2; 24,2; 0,0; 0,0;112,5; 17,6
2020-01-25 08:17:00; -2,4; 87; -4,3; 987,2493;1012,8125;0; 24,2; 24,2; 0,0; 0,0;112,5; 17,6
2020-01-25 08:27:00; -2,2; 86; -4,2; 987,2493;1012,8125;0; 24,2; 24,2; 0,0; 0,0;112,5; 17,6
2020-01-25 08:36:59; -2,1; 86; -4,1; 987,4368;1013,0000;0; 24,2; 24,2; 0,0; 0,0;112,5; 17,6
2020-01-25 08:47:00; -2,1; 86; -4,1; 987,4368;1013,0000;0; 24,2; 24,2; 0,0; 0,0;112,5; 17,6
2020-01-25 08:56:59; -1,9; 86; -3,9; 987,6868;1013,2500;0; 24,2; 24,2; 0,0; 0,0;112,5; 17,6
2020-01-25 09:07:00; -1,7; 86; -3,7; 987,6868;1013,2500;0; 24,2; 24,2; 0,0; 0,0;112,5; 17,6
2020-01-25 09:16:59; -1,5; 86; -3,5; 987,6868;1013,2500;0; 24,2; 24,2; 0,0; 0,0;112,5; 17,6
2020-01-25 09:27:00; -1,3; 86; -3,3; 987,6868;1013,2500;0; 24,2; 24,2; 0,0; 0,0;112,5; 17,6
2020-01-25 09:36:59; -1,2; 86; -3,2; 987,7493;1013,3125;1; 24,2; 24,2; 0,0; 0,0;112,5; 17,6
2020-01-25 09:47:00; -1,0; 86; -3,0; 987,7493;1013,3125;1; 24,2; 24,2; 0,0; 0,0;112,5; 17,6
2020-01-25 09:57:00; -0,8; 85; -3,0; 987,9368;1013,5000;1; 24,2; 24,2; 0,0; 0,0;112,5; 17,6
2020-01-25 10:06:59; -0,7; 85; -2,9; 987,9368;1013,5000;1; 24,2; 24,2; 0,0; 0,0;112,5; 17,6
2020-01-25 10:17:00; -0,5; 84; -2,9; 987,9993;1013,5625;1; 24,2; 24,2; 0,0; 0,0;112,5; 17,6
2020-01-25 10:26:59; -0,4; 84; -2,8; 987,9993;1013,5625;1; 24,2; 24,2; 0,0; 0,0;112,5; 17,6
2020-01-25 10:37:00; -0,3; 84; -2,7; 987,8118;1013,3750;1; 24,2; 24,2; 0,0; 0,0;112,5; 17,6
2020-01-25 10:46:59; -0,4; 84; -2,8; 987,8118;1013,3750;1; 24,2; 24,2; 0,0; 0,0;112,5; 17,6
2020-01-25 10:57:00; -0,4; 83; -2,9; 987,6243;1013,1875;1; 24,2; 24,2; 0,0; 0,0;112,5; 17,6
2020-01-25 11:06:59; -0,3; 83; -2,8; 987,6243;1013,1875;1; 24,2; 24,2; 0,0; 0,0;112,5; 17,6
2020-01-25 11:17:00; -0,1; 83; -2,6; 987,2493;1012,8125;1; 24,2; 24,2; 0,0; 0,0;112,5; 17,6
2020-01-25 11:27:00; -0,1; 83; -2,6; 987,2493;1012,8125;1; 24,2; 24,2; 0,0; 0,0;112,5; 17,6
2020-01-25 11:36:59; 0,1; 83; -2,4; 987,0618;1012,6250;0; 24,2; 24,2; 0,0; 0,0;112,5; 17,6
2020-01-25 11:47:00; 0,0; 82; -2,7; 987,0618;1012,6250;0; 24,2; 24,2; 0,0; 0,0;112,5; 17,6
2020-01-25 11:56:59; -0,1; 82; -2,8; 986,9993;1012,5625;0; 24,2; 24,2; 0,0; 0,0;112,5; 17,6
2020-01-25 12:07:00; -0,1; 82; -2,8; 986,9993;1012,5625;0; 24,2; 24,2; 0,0; 0,0;112,5; 17,6
2020-01-25 12:16:59; -0,1; 82; -2,8; 986,8118;1012,3750;0; 24,2; 24,2; 0,0; 0,0;112,5; 17,6
2020-01-25 12:27:00; 0,1; 82; -2,6; 986,8118;1012,3750;0; 24,2; 24,2; 0,0; 0,0;112,5; 17,6
2020-01-25 12:36:59; 0,2; 82; -2,5; 986,4993;1012,0625;0; 24,2; 24,2; 0,0; 0,0;112,5; 17,6
2020-01-25 12:47:00; 0,5; 82; -2,2; 986,4993;1012,0625;0; 24,2; 24,2; 0,0; 0,0;112,5; 17,6
2020-01-25 12:57:00; 0,7; 81; -2,2; 986,1868;1011,7500;0; 24,2; 24,2; 0,0; 0,0;112,5; 17,6
2020-01-25 13:06:59; 0,8; 81; -2,1; 986,1868;1011,7500;0; 24,3; 24,3; 0,0; 0,0;112,5; 17,6
2020-01-25 13:17:00; 1,0; 80; -2,1; 986,0618;1011,6250;0; 24,3; 24,3; 0,0; 0,0;112,5; 17,6
2020-01-25 13:26:59; 1,0; 80; -2,1; 986,0618;1011,6250;0; 24,3; 24,3; 0,0; 0,0;112,5; 17,6
2020-01-25 13:37:00; 1,1; 80; -2,0; 985,9993;1011,5625;0; 24,4; 24,4; 0,0; 0,0;112,5; 17,6
2020-01-25 13:46:59; 1,3; 79; -1,9; 985,9993;1011,5625;0; 24,5; 24,5; 0,0; 0,0;112,5; 17,6
2020-01-25 13:57:00; 1,4; 78; -2,0; 985,9993;1011,5625;0; 24,5; 24,5; 0,0; 0,0;112,5; 17,6
2020-01-25 14:06:59; 1,2; 78; -2,2; 985,9993;1011,5625;0; 24,5; 24,5; 0,0; 0,0;112,5; 17,6
2020-01-25 14:17:00; 1,3; 78; -2,1; 986,0618;1011,6250;0; 24,4; 24,4; 0,0; 0,0;112,5; 17,6
2020-01-25 14:27:00; 1,2; 78; -2,2; 986,0618;1011,6250;0; 24,4; 24,4; 0,0; 0,0;112,5; 17,6
2020-01-25 14:36:59; 1,1; 78; -2,3; 985,9993;1011,5625;0; 24,4; 24,4; 0,0; 0,0;112,5; 17,6
2020-01-25 14:47:00; 0,8; 78; -2,6; 985,9993;1011,5625;0; 24,4; 24,4; 0,0; 0,0;112,5; 17,6
2020-01-25 14:56:59; 0,7; 79; -2,5; 985,8118;1011,3750;0; 24,3; 24,3; 0,0; 0,0;112,5; 17,6
2020-01-25 15:07:00; 0,6; 80; -2,5; 985,8118;1011,3750;0; 24,3; 24,3; 0,0; 0,0;112,5; 17,6
2020-01-25 15:16:59; 0,5; 80; -2,5; 985,8118;1011,3750;0; 24,3; 24,3; 0,0; 0,0;112,5; 17,6
2020-01-25 15:27:00; 0,4; 80; -2,6; 985,8118;1011,3750;0; 24,2; 24,2; 0,0; 0,0;112,5; 17,6
2020-01-25 15:36:59; 0,3; 80; -2,7; 985,9368;1011,5000;0; 24,2; 24,2; 0,0; 0,0;112,5; 17,6
2020-01-25 15:47:00; 0,3; 80; -2,7; 985,9368;1011,5000;0; 24,1; 24,1; 0,0; 0,0;112,5; 17,6
2020-01-25 15:57:00; 0,2; 81; -2,7; 985,9368;1011,5000;0; 24,1; 24,1; 0,0; 0,0;112,5; 17,6
2020-01-25 16:06:59; 0,2; 81; -2,7; 985,9368;1011,5000;0; 24,1; 24,1; 0,0; 0,0;112,5; 17,6
2020-01-25 16:17:00; -0,1; 82; -2,8; 985,8743;1011,4375;0; 24,1; 24,1; 0,0; 0,0;112,5; 17,6
2020-01-25 16:26:59; -0,2; 82; -2,9; 985,8743;1011,4375;0; 24,1; 24,1; 0,0; 0,0;112,5; 17,6
2020-01-25 16:37:00; -0,3; 82; -3,0; 986,0618;1011,6250;0; 24,1; 24,1; 0,0; 0,0;112,5; 17,6
2020-01-25 16:46:59; -0,4; 82; -3,1; 986,0618;1011,6250;0; 24,1; 24,1; 0,0; 0,0;112,5; 17,6
2020-01-25 16:57:00; -0,5; 82; -3,2; 985,9993;1011,5625;0; 24,1; 24,1; 0,0; 0,0;112,5; 17,6
2020-01-25 17:06:59; -0,7; 82; -3,4; 985,9993;1011,5625;0; 24,1; 24,1; 0,0; 0,0;112,5; 17,6
2020-01-25 17:17:00; -0,9; 82; -3,6; 986,0618;1011,6250;0; 24,0; 24,0; 0,0; 0,0;112,5; 17,6
2020-01-25 17:27:00; -1,0; 82; -3,7; 986,0618;1011,6250;0; 24,0; 24,0; 0,0; 0,0;112,5; 17,6
2020-01-25 17:36:59; -1,2; 82; -3,9; 985,9993;1011,5625;0; 24,0; 24,0; 0,0; 0,0;112,5; 17,6
2020-01-25 17:47:00; -1,3; 82; -4,0; 985,9993;1011,5625;0; 24,0; 24,0; 0,0; 0,0;112,5; 17,6
2020-01-25 17:56:59; -1,5; 82; -4,2; 986,1243;1011,6875;0; 24,0; 24,0; 0,0; 0,0;112,5; 17,6
2020-01-25 18:07:00; -1,6; 82; -4,3; 986,1243;1011,6875;0; 24,0; 24,0; 0,0; 0,0;112,5; 17,6
2020-01-25 18:16:59; -1,7; 83; -4,2; 985,9368;1011,5000;0; 24,0; 24,0; 0,0; 0,0;112,5; 17,6
2020-01-25 18:27:00; -1,9; 83; -4,4; 985,9368;1011,5000;0; 23,9; 23,9; 0,0; 0,0;112,5; 17,6
2020-01-25 18:36:59; -2,0; 83; -4,5; 985,9368;1011,5000;0; 23,9; 23,9; 0,0; 0,0;112,5; 17,6
2020-01-25 18:47:00; -2,1; 83; -4,6; 985,9368;1011,5000;0; 23,9; 23,9; 0,0; 0,0;112,5; 17,6
2020-01-25 18:57:00; -2,1; 83; -4,6; 985,9368;1011,5000;0; 23,9; 23,9; 0,0; 0,0;112,5; 17,6
2020-01-25 19:06:59; -2,3; 83; -4,8; 985,9368;1011,5000;0; 23,9; 23,9; 0,0; 0,0;112,5; 17,6
2020-01-25 19:17:00; -2,5; 83; -5,0; 985,9368;1011,5000;0; 23,9; 23,9; 0,0; 0,0;112,5; 17,6
2020-01-25 19:26:59; -2,6; 83; -5,1; 985,9368;1011,5000;0; 23,9; 23,9; 0,0; 0,0;112,5; 17,6
2020-01-25 19:37:00; -2,6; 83; -5,1; 985,9993;1011,5625;0; 23,9; 23,9; 0,0; 0,0;112,5; 17,6
2020-01-25 19:46:59; -2,6; 84; -4,9; 985,9993;1011,5625;0; 23,9; 23,9; 0,0; 0,0;112,5; 17,6
2020-01-25 19:57:00; -2,5; 84; -4,8; 985,9368;1011,5000;0; 23,9; 23,9; 0,0; 0,0;112,5; 17,6
2020-01-25 20:06:59; -2,5; 85; -4,7; 985,9368;1011,5000;0; 23,9; 23,9; 0,0; 0,0;112,5; 17,6
2020-01-25 20:17:00; -2,4; 85; -4,6; 985,9368;1011,5000;0; 23,9; 23,9; 0,0; 0,0;112,5; 17,6
2020-01-25 20:27:00; -2,2; 85; -4,4; 985,9368;1011,5000;0; 23,9; 23,9; 0,0; 0,0;112,5; 17,6
2020-01-25 20:36:59; -2,2; 85; -4,4; 985,9368;1011,5000;0; 23,9; 23,9; 0,0; 0,0;112,5; 17,6
2020-01-25 20:47:00; -2,2; 85; -4,4; 985,9368;1011,5000;0; 23,9; 23,9; 0,0; 0,0;112,5; 17,6
2020-01-25 20:56:59; -2,2; 85; -4,4; 985,6868;1011,2500;0; 23,9; 23,9; 0,0; 0,0;112,5; 17,6
2020-01-25 21:07:00; -2,2; 85; -4,4; 985,6868;1011,2500;0; 23,9; 23,9; 0,0; 0,0;112,5; 17,6
2020-01-25 21:16:59; -2,2; 85; -4,4; 985,4368;1011,0000;0; 23,9; 23,9; 0,0; 0,0;112,5; 17,6
2020-01-25 21:27:00; -2,3; 85; -4,5; 985,4368;1011,0000;0; 23,9; 23,9; 0,0; 0,0;112,5; 17,6
2020-01-25 21:36:59; -2,3; 85; -4,5; 985,3743;1010,9375;0; 23,9; 23,9; 0,0; 0,0;112,5; 17,6
2020-01-25 21:47:00; -2,4; 85; -4,6; 985,3743;1010,9375;0; 23,9; 23,9; 0,0; 0,0;112,5; 17,6
2020-01-25 21:57:00; -2,4; 85; -4,6; 985,4993;1011,0625;0; 23,9; 23,9; 0,0; 0,0;112,5; 17,6
2020-01-25 22:06:59; -2,4; 86; -4,4; 985,4993;1011,0625;0; 23,9; 23,9; 0,0; 0,0;112,5; 17,6
2020-01-25 22:17:00; -2,4; 86; -4,4; 985,4993;1011,0625;0; 23,9; 23,9; 0,0; 0,0;112,5; 17,6
2020-01-25 22:26:59; -2,4; 87; -4,3; 985,4993;1011,0625;0; 23,9; 23,9; 0,0; 0,0;112,5; 17,6
2020-01-25 22:37:00; -2,4; 87; -4,3; 985,4368;1011,0000;0; 23,9; 23,9; 0,0; 0,0;112,5; 17,6
2020-01-25 22:46:59; -2,5; 87; -4,4; 985,4368;1011,0000;0; 23,9; 23,9; 0,0; 0,0;112,5; 17,6
2020-01-25 22:57:00; -2,5; 87; -4,4; 985,3118;1010,8750;0; 23,9; 23,9; 0,0; 0,0;112,5; 17,6
2020-01-25 23:06:59; -2,5; 87; -4,4; 985,3118;1010,8750;0; 23,9; 23,9; 0,0; 0,0;112,5; 17,6
2020-01-25 23:17:00; -2,5; 87; -4,4; 985,2493;1010,8125;0; 23,8; 23,8; 0,0; 0,0;112,5; 17,6
2020-01-25 23:27:00; -2,6; 87; -4,5; 985,2493;1010,8125;0; 23,9; 23,9; 0,0; 0,0;112,5; 17,6
2020-01-25 23:36:59; -2,7; 87; -4,6; 985,0618;1010,6250;0; 23,8; 23,8; 0,0; 0,0;112,5; 17,6
2020-01-25 23:47:00; -2,8; 87; -4,7; 985,0618;1010,6250;0; 23,8; 23,8; 0,0; 0,0;112,5; 17,6
2020-01-25 23:56:59; -2,9; 87; -4,8; 984,9993;1010,5625;0; 23,8; 23,8; 0,0; 0,0;112,5; 17,6
2020-01-26 00:07:00; -3,0; 87; -4,9; 984,9993;1010,5625;0; 23,8; 23,8; 0,0; 0,0;112,5; 17,6
2020-01-26 00:16:59; -3,0; 87; -4,9; 984,8743;1010,4375;0; 23,8; 23,8; 0,0; 0,0;112,5; 17,6
2020-01-26 00:27:00; -3,1; 87; -5,0; 984,8743;1010,4375;0; 23,8; 23,8; 0,0; 0,0;112,5; 17,6
2020-01-26 00:36:59; -3,2; 86; -5,2; 984,8118;1010,3750;0; 23,8; 23,8; 0,0; 0,0;112,5; 17,6
2020-01-26 00:47:00; -3,3; 86; -5,3; 984,8118;1010,3750;0; 23,8; 23,8; 0,0; 0,0;112,5; 17,6
2020-01-26 00:57:00; -3,4; 86; -5,4; 984,7493;1010,3125;0; 23,8; 23,8; 0,0; 0,0;112,5; 17,6
2020-01-26 01:06:59; -3,5; 86; -5,5; 984,7493;1010,3125;0; 23,8; 23,8; 0,0; 0,0;112,5; 17,6
2020-01-26 01:17:00; -3,5; 86; -5,5; 984,7493;1010,3125;0; 23,8; 23,8; 0,0; 0,0;112,5; 17,6
2020-01-26 01:26:59; -3,6; 86; -5,6; 984,7493;1010,3125;0; 23,8; 23,8; 0,0; 0,0;112,5; 17,6
2020-01-26 01:37:00; -3,6; 86; -5,6; 984,6243;1010,1875;0; 23,8; 23,8; 0,0; 0,0;112,5; 17,6
2020-01-26 01:46:59; -3,7; 86; -5,7; 984,6243;1010,1875;0; 23,8; 23,8; 0,0; 0,0;112,5; 17,6
2020-01-26 01:57:00; -3,7; 85; -5,9; 984,4993;1010,0625;0; 23,8; 23,8; 0,0; 0,0;112,5; 17,6
2020-01-26 02:06:59; -3,7; 85; -5,9; 984,4993;1010,0625;0; 23,8; 23,8; 0,0; 0,0;112,5; 17,6
2020-01-26 02:17:00; -3,7; 85; -5,9; 984,3118;1009,8750;0; 23,8; 23,8; 0,0; 0,0;112,5; 17,6
2020-01-26 02:27:00; -3,7; 85; -5,9; 984,3118;1009,8750;0; 23,8; 23,8; 0,0; 0,0;112,5; 17,6
2020-01-26 02:36:59; -3,8; 85; -5,9; 984,2493;1009,8125;0; 23,8; 23,8; 0,0; 0,0;112,5; 17,6
2020-01-26 02:47:00; -3,9; 85; -6,0; 984,2493;1009,8125;0; 23,8; 23,8; 0,0; 0,0;112,5; 17,6
2020-01-26 02:56:59; -3,9; 85; -6,0; 984,0618;1009,6250;0; 23,8; 23,8; 0,0; 0,0;112,5; 17,6
2020-01-26 03:07:00; -3,9; 85; -6,0; 984,0618;1009,6250;0; 23,8; 23,8; 0,0; 0,0;112,5; 17,6
2020-01-26 03:16:59; -3,9; 85; -6,0; 984,0618;1009,6250;0; 23,8; 23,8; 0,0; 0,0;112,5; 17,6
2020-01-26 03:27:00; -3,9; 85; -6,0; 984,0618;1009,6250;0; 23,8; 23,8; 0,0; 0,0;112,5; 17,6
2020-01-26 03:36:59; -3,9; 86; -5,9; 984,1243;1009,6875;0; 23,8; 23,8; 0,0; 0,0;112,5; 17,6
2020-01-26 03:47:00; -3,7; 86; -5,7; 984,1243;1009,6875;0; 23,8; 23,8; 0,0; 0,0;112,5; 17,6
2020-01-26 03:57:00; -3,7; 86; -5,7; 984,0618;1009,6250;0; 23,8; 23,8; 0,0; 0,0;112,5; 17,6
2020-01-26 04:06:59; -3,7; 86; -5,7; 984,0618;1009,6250;0; 23,8; 23,8; 0,0; 0,0;112,5; 17,6
2020-01-26 04:17:00; -3,6; 86; -5,6; 984,0618;1009,6250;0; 23,8; 23,8; 0,0; 0,0;112,5; 17,6
2020-01-26 04:26:59; -3,7; 86; -5,7; 984,0618;1009,6250;0; 23,8; 23,8; 0,0; 0,0;112,5; 17,6
2020-01-26 04:37:00; -3,7; 86; -5,7; 983,9993;1009,5625;0; 23,8; 23,8; 0,0; 0,0;112,5; 17,6
2020-01-26 04:46:59; -3,7; 86; -5,7; 983,9993;1009,5625;0; 23,8; 23,8; 0,0; 0,0;112,5; 17,6
2020-01-26 04:57:00; -3,7; 86; -5,7; 983,7493;1009,3125;0; 23,7; 23,7; 0,0; 0,0;112,5; 17,6
2020-01-26 05:06:59; -3,7; 86; -5,7; 983,7493;1009,3125;0; 23,7; 23,7; 0,0; 0,0;112,5; 17,6
2020-01-26 05:17:00; -3,8; 86; -5,8; 983,8118;1009,3750;0; 23,7; 23,7; 0,0; 0,0;112,5; 17,6
2020-01-26 05:27:00; -3,9; 86; -5,9; 983,8118;1009,3750;0; 23,7; 23,7; 0,0; 0,0;112,5; 17,6
2020-01-26 05:36:59; -4,0; 86; -6,0; 983,7493;1009,3125;0; 23,7; 23,7; 0,0; 0,0;112,5; 17,6
2020-01-26 05:47:00; -4,0; 86; -6,0; 983,7493;1009,3125;0; 23,7; 23,7; 0,0; 0,0;112,5; 17,6
2020-01-26 05:56:59; -3,9; 86; -5,9; 983,8118;1009,3750;0; 23,7; 23,7; 0,0; 0,0;112,5; 17,6
2020-01-26 06:07:00; -3,9; 86; -5,9; 983,8118;1009,3750;0; 23,7; 23,7; 0,0; 0,0;112,5; 17,6
2020-01-26 06:16:59; -3,9; 86; -5,9; 983,8743;1009,4375;0; 23,7; 23,7; 0,0; 0,0;112,5; 17,6
2020-01-26 06:27:00; -4,1; 86; -6,1; 983,8743;1009,4375;0; 23,7; 23,7; 0,0; 0,0;112,5; 17,6
2020-01-26 06:36:59; -4,1; 86; -6,1; 984,7493;1010,3125;0; 23,7; 23,7; 0,0; 0,0;112,5; 17,6
2020-01-26 06:47:00; -4,1; 86; -6,1; 984,7493;1010,3125;0; 23,7; 23,7; 0,0; 0,0;112,5; 17,6
2020-01-26 06:57:00; -4,0; 86; -6,0; 983,8743;1009,4375;0; 23,7; 23,7; 0,0; 0,0;112,5; 17,6
2020-01-26 07:06:59; -3,9; 86; -5,9; 983,8743;1009,4375;0; 23,7; 23,7; 0,0; 0,0;112,5; 17,6
2020-01-26 07:17:00; -3,9; 86; -5,9; 983,7493;1009,3125;0; 23,7; 23,7; 0,0; 0,0;112,5; 17,6
2020-01-26 07:26:59; -3,7; 86; -5,7; 983,7493;1009,3125;0; 23,8; 23,8; 0,0; 0,0;112,5; 17,6
2020-01-26 07:37:00; -3,5; 87; -5,3; 983,7493;1009,3125;0; 23,8; 23,8; 0,0; 0,0;112,5; 17,6
2020-01-26 07:46:59; -3,3; 87; -5,2; 983,7493;1009,3125;0; 23,8; 23,8; 0,0; 0,0;112,5; 17,6
2020-01-26 07:57:00; -3,1; 86; -5,1; 983,8118;1009,3750;0; 23,8; 23,8; 0,0; 0,0;112,5; 17,6
2020-01-26 08:06:59; -2,9; 86; -4,9; 983,8118;1009,3750;0; 23,9; 23,9; 0,0; 0,0;112,5; 17,6
2020-01-26 08:17:00; -2,5; 86; -4,5; 984,0618;1009,6250;0; 23,9; 23,9; 0,0; 0,0;112,5; 17,6
2020-01-26 08:27:00; -2,1; 86; -4,1; 984,0618;1009,6250;0; 24,1; 24,1; 0,0; 0,0;112,5; 17,6
2020-01-26 08:36:59; -1,8; 86; -3,8; 984,3118;1009,8750;0; 24,3; 24,3; 0,0; 0,0;112,5; 17,6
2020-01-26 08:47:00; -1,4; 86; -3,4; 984,3118;1009,8750;0; 24,4; 24,4; 0,0; 0,0;112,5; 17,6
2020-01-26 08:56:59; -1,2; 85; -3,4; 984,3743;1009,9375;0; 24,4; 24,4; 0,0; 0,0;112,5; 17,6
2020-01-26 09:07:00; -1,0; 85; -3,2; 984,3743;1009,9375;0; 24,4; 24,4; 0,0; 0,0;112,5; 17,6
2020-01-26 09:16:59; -0,8; 85; -3,0; 984,4368;1010,0000;0; 24,4; 24,4; 0,0; 0,0;112,5; 17,6
2020-01-26 09:27:00; -0,5; 85; -2,7; 984,4368;1010,0000;0; 24,4; 24,4; 0,0; 0,0;112,5; 17,6
2020-01-26 09:36:59; -0,3; 84; -2,7; 984,6868;1010,2500;0; 24,4; 24,4; 0,0; 0,0;112,5; 17,6
2020-01-26 09:47:00; -0,1; 84; -2,5; 984,6868;1010,2500;0; 24,3; 24,3; 0,0; 0,0;112,5; 17,6
2020-01-26 09:57:00; 0,2; 85; -2,0; 984,6868;1010,2500;0; 24,3; 24,3; 0,0; 0,0;112,5; 17,6
2020-01-26 10:06:59; 0,4; 85; -1,8; 984,6868;1010,2500;0; 24,3; 24,3; 0,0; 0,0;112,5; 17,6
2020-01-26 10:17:00; 0,7; 84; -1,7; 984,3743;1009,9375;0; 24,2; 24,2; 0,0; 0,0;112,5; 17,6
2020-01-26 10:26:59; 0,9; 84; -1,5; 984,3743;1009,9375;0; 24,3; 24,3; 0,0; 0,0;112,5; 17,6
2020-01-26 10:37:00; 1,1; 84; -1,3; 984,2493;1009,8125;0; 24,2; 24,2; 0,0; 0,0;112,5; 17,6
2020-01-26 10:46:59; 1,3; 83; -1,3; 984,2493;1009,8125;0; 24,2; 24,2; 0,0; 0,0;112,5; 17,6
2020-01-26 10:57:00; 1,5; 83; -1,1; 984,1243;1009,6875;0; 24,1; 24,1; 0,0; 0,0;112,5; 17,6
2020-01-26 11:06:59; 1,5; 83; -1,1; 984,1243;1009,6875;0; 24,1; 24,1; 0,0; 0,0;112,5; 17,6
2020-01-26 11:17:00; 1,8; 83; -0,8; 984,0618;1009,6250;0; 24,1; 24,1; 0,0; 0,0;112,5; 17,6
2020-01-26 11:27:00; 1,9; 83; -0,7; 984,0618;1009,6250;0; 24,1; 24,1; 0,0; 0,0;112,5; 17,6
2020-01-26 11:36:59; 2,1; 83; -0,5; 983,9368;1009,5000;0; 24,1; 24,1; 0,0; 0,0;112,5; 17,6
2020-01-26 11:47:00; 2,2; 82; -0,6; 983,9368;1009,5000;0; 24,0; 24,0; 0,0; 0,0;112,5; 17,6
2020-01-26 11:56:59; 2,3; 82; -0,5; 983,7493;1009,3125;0; 24,0; 24,0; 0,0; 0,0;112,5; 17,6
2020-01-26 12:07:00; 2,3; 82; -0,5; 983,7493;1009,3125;0; 23,9; 23,9; 0,0; 0,0;112,5; 17,6
2020-01-26 12:16:59; 2,4; 82; -0,4; 983,6243;1009,1875;0; 23,9; 23,9; 0,0; 0,0;112,5; 17,6
2020-01-26 12:27:00; 2,4; 82; -0,4; 983,6243;1009,1875;0; 23,9; 23,9; 0,0; 0,0;112,5; 17,6
2020-01-26 12:36:59; 2,4; 81; -0,5; 983,5618;1009,1250;0; 23,9; 23,9; 0,0; 0,0;112,5; 17,6
2020-01-26 12:47:00; 2,5; 81; -0,4; 983,5618;1009,1250;0; 23,9; 23,9; 0,0; 0,0;112,5; 17,6
2020-01-26 12:57:00; 2,4; 81; -0,5; 983,2493;1008,8125;0; 23,9; 23,9; 0,0; 0,0;112,5; 17,6
2020-01-26 13:06:59; 2,5; 81; -0,4; 983,2493;1008,8125;0; 23,9; 23,9; 0,0; 0,0;112,5; 17,6
2020-01-26 13:17:00; 2,4; 81; -0,5; 983,0618;1008,6250;0; 23,8; 23,8; 0,0; 0,0;112,5; 17,6
2020-01-26 13:26:59; 2,4; 81; -0,5; 983,0618;1008,6250;0; 23,8; 23,8; 0,0; 0,0;112,5; 17,6
2020-01-26 13:37:00; 2,4; 81; -0,5; 983,0618;1008,6250;0; 23,8; 23,8; 0,0; 0,0;112,5; 17,6
2020-01-26 13:46:59; 2,4; 81; -0,5; 983,0618;1008,6250;0; 23,8; 23,8; 0,0; 0,0;112,5; 17,6
2020-01-26 13:57:00; 2,4; 81; -0,5; 982,5618;1008,1250;0; 23,8; 23,8; 0,0; 0,0;112,5; 17,6
2020-01-26 14:06:59; 2,3; 81; -0,6; 982,5618;1008,1250;0; 23,8; 23,8; 0,0; 0,0;112,5; 17,6
2020-01-26 14:17:00; 2,3; 81; -0,6; 982,6868;1008,2500;0; 23,8; 23,8; 0,0; 0,0;112,5; 17,6
2020-01-26 14:27:00; 2,2; 81; -0,7; 982,6868;1008,2500;0; 23,8; 23,8; 0,0; 0,0;112,5; 17,6
2020-01-26 14:36:59; 2,1; 81; -0,8; ; ;0; 23,8; 23,8; 0,0; 0,0;112,5; 17,6
2020-01-26 14:47:00; 2,1; 81; -0,8; ; ;0; 23,8; 23,8; 0,0; 0,0;112,5; 17,6
2020-01-26 14:56:59; 2,0; 81; -0,9; 982,5618;1008,1250;0; 23,8; 23,8; 0,0; 0,0;112,5; 17,6
2020-01-26 15:07:00; 1,8; 81; -1,1; 982,5618;1008,1250;0; 23,8; 23,8; 0,0; 0,0;112,5; 17,6
2020-01-26 15:16:59; 1,7; 81; -1,2; 982,5618;1008,1250;0; 23,7; 23,7; 0,0; 0,0;112,5; 17,6
2020-01-26 15:27:00; 1,6; 81; -1,3; 982,5618;1008,1250;0; 23,7; 23,7; 0,0; 0,0;112,5; 17,6
2020-01-26 15:36:59; 1,5; 82; -1,2; 982,4368;1008,0000;0; 23,7; 23,7; 0,0; 0,0;112,5; 17,6
2020-01-26 15:47:00; 1,5; 82; -1,2; 982,4368;1008,0000;0; 23,7; 23,7; 0,0; 0,0;112,5; 17,6
2020-01-26 15:57:00; 1,4; 82; -1,3; 982,2493;1007,8125;0; 23,7; 23,7; 0,0; 0,0;112,5; 17,6
2020-01-26 16:06:59; 1,4; 82; -1,3; 982,2493;1007,8125;0; 23,6; 23,6; 0,0; 0,0;112,5; 17,6
2020-01-26 16:17:00; 1,3; 82; -1,4; 982,2493;1007,8125;0; 23,6; 23,6; 0,0; 0,0;112,5; 17,6
2020-01-26 16:26:59; 1,1; 83; -1,5; 982,2493;1007,8125;0; 23,6; 23,6; 0,0; 0,0;112,5; 17,6
2020-01-26 16:37:00; 1,1; 83; -1,5; 982,1243;1007,6875;0; 23,6; 23,6; 0,0; 0,0;112,5; 17,6
2020-01-26 16:46:59; 1,1; 83; -1,5; 982,1243;1007,6875;0; 23,6; 23,6; 0,0; 0,0;112,5; 17,6
2020-01-26 16:57:00; 1,0; 83; -1,6; 982,1868;1007,7500;0; 23,6; 23,6; 0,0; 0,0;112,5; 17,6
2020-01-26 17:06:59; 0,9; 83; -1,7; 982,1868;1007,7500;0; 23,6; 23,6; 0,0; 0,0;112,5; 17,6
2020-01-26 17:17:00; 0,8; 83; -1,8; 981,7493;1007,3125;0; 23,6; 23,6; 0,0; 0,0;112,5; 17,6
2020-01-26 17:27:00; 0,7; 83; -1,9; 981,7493;1007,3125;0; 23,6; 23,6; 0,0; 0,0;112,5; 17,6
2020-01-26 17:36:59; 0,7; 83; -1,9; 981,8743;1007,4375;0; 23,6; 23,6; 0,0; 0,0;112,5; 17,6
2020-01-26 17:47:00; 0,7; 83; -1,9; 981,8743;1007,4375;0; 23,6; 23,6; 0,0; 0,0;112,5; 17,6
2020-01-26 17:56:59; 0,7; 84; -1,7; 981,7493;1007,3125;0; 23,6; 23,6; 0,0; 0,0;112,5; 17,6
2020-01-26 18:07:00; 0,7; 84; -1,7; 981,7493;1007,3125;0; 23,6; 23,6; 0,0; 0,0;112,5; 17,6
2020-01-26 18:16:59; 0,7; 84; -1,7; 981,8118;1007,3750;0; 23,6; 23,6; 0,0; 0,0;112,5; 17,6
2020-01-26 18:27:00; 0,7; 84; -1,7; 981,8118;1007,3750;0; 23,6; 23,6; 0,0; 0,0;112,5; 17,6
2020-01-26 18:36:59; 0,7; 84; -1,7; 981,7493;1007,3125;0; 23,6; 23,6; 0,0; 0,0;112,5; 17,6
2020-01-26 18:47:00; 0,7; 84; -1,7; 981,7493;1007,3125;0; 23,6; 23,6; 0,0; 0,0;112,5; 17,6
2020-01-26 18:57:00; 0,8; 84; -1,6; 981,8118;1007,3750;0; 23,6; 23,6; 0,0; 0,0;112,5; 17,6
2020-01-26 19:06:59; 0,8; 84; -1,6; 981,8118;1007,3750;0; 23,6; 23,6; 0,0; 0,0;112,5; 17,6
2020-01-26 19:17:00; 0,8; 84; -1,6; 981,9368;1007,5000;0; 23,6; 23,6; 0,0; 0,0;112,5; 17,6
2020-01-26 19:26:59; 0,8; 84; -1,6; 981,9368;1007,5000;0; 23,6; 23,6; 0,0; 0,0;112,5; 17,6
2020-01-26 19:37:00; 0,8; 84; -1,6; 981,9993;1007,5625;0; 23,6; 23,6; 0,0; 0,0;112,5; 17,6
2020-01-26 19:46:59; 0,9; 84; -1,5; 981,9993;1007,5625;0; 23,6; 23,6; 0,0; 0,0;112,5; 17,6
2020-01-26 19:57:00; 0,9; 84; -1,5; 981,7493;1007,3125;0; 23,6; 23,6; 0,0; 0,0;112,5; 17,6
2020-01-26 20:06:59; 0,9; 84; -1,5; 981,7493;1007,3125;0; 23,6; 23,6; 0,0; 0,0;112,5; 17,6
2020-01-26 20:17:00; 0,9; 84; -1,5; 981,9368;1007,5000;0; 23,6; 23,6; 0,0; 0,0;112,5; 17,6
2020-01-26 20:27:00; 0,9; 84; -1,5; 981,9368;1007,5000;0; 23,5; 23,5; 0,0; 0,0;112,5; 17,6
2020-01-26 20:36:59; 0,9; 84; -1,5; 981,8743;1007,4375;0; 23,6; 23,6; 0,0; 0,0;112,5; 17,6
2020-01-26 20:47:00; 0,9; 84; -1,5; 981,8743;1007,4375;0; 23,5; 23,5; 0,0; 0,0;112,5; 17,6
2020-01-26 20:56:59; 0,9; 84; -1,5; 981,9368;1007,5000;0; 23,5; 23,5; 0,0; 0,0;112,5; 17,6
2020-01-26 21:07:00; 0,8; 84; -1,6; 981,9368;1007,5000;0; 23,6; 23,6; 0,0; 0,0;112,5; 17,6
2020-01-26 21:16:59; 0,8; 84; -1,6; 981,6243;1007,1875;0; 23,5; 23,5; 0,0; 0,0;112,5; 17,6
2020-01-26 21:27:00; 0,8; 84; -1,6; 981,6243;1007,1875;0; 23,5; 23,5; 0,0; 0,0;112,5; 17,6
2020-01-26 21:36:59; 0,8; 84; -1,6; 981,6868;1007,2500;0; 23,6; 23,6; 0,0; 0,0;112,5; 17,6
2020-01-26 21:47:00; 0,8; 84; -1,6; 981,6868;1007,2500;0; 23,5; 23,5; 0,0; 0,0;112,5; 17,6
2020-01-26 21:57:00; 0,9; 84; -1,5; 981,4368;1007,0000;0; 23,6; 23,6; 0,0; 0,0;112,5; 17,6
2020-01-26 22:06:59; 0,9; 85; -1,3; 981,4368;1007,0000;0; 23,6; 23,6; 0,0; 0,0;112,5; 17,6
2020-01-26 22:17:00; 0,9; 85; -1,3; 981,3118;1006,8750;0; 23,5; 23,5; 0,0; 0,0;112,5; 17,6
2020-01-26 22:26:59; 0,9; 85; -1,3; 981,3118;1006,8750;0; 23,5; 23,5; 0,0; 0,0;112,5; 17,6
2020-01-26 22:37:00; 0,9; 85; -1,3; 981,3118;1006,8750;0; 23,5; 23,5; 0,0; 0,0;112,5; 17,6
2020-01-26 22:46:59; 0,9; 86; -1,2; 981,3118;1006,8750;0; 23,5; 23,5; 0,0; 0,0;112,5; 17,6
2020-01-26 22:57:00; 0,9; 86; -1,2; 981,1868;1006,7500;0; 23,5; 23,5; 0,0; 0,0;112,5; 17,6
2020-01-26 23:06:59; 0,9; 86; -1,2; 981,1868;1006,7500;0; 23,4; 23,4; 0,0; 0,0;112,5; 17,6
2020-01-26 23:17:00; 0,9; 86; -1,2; 981,1243;1006,6875;0; 23,4; 23,4; 0,0; 0,0;112,5; 17,6
2020-01-26 23:27:00; 0,9; 86; -1,2; 981,1243;1006,6875;0; 23,5; 23,5; 0,0; 0,0;112,5; 17,6
2020-01-26 23:36:59; 0,9; 86; -1,2; 980,9368;1006,5000;0; 23,5; 23,5; 0,0; 0,0;112,5; 17,6
2020-01-26 23:47:00; 0,9; 86; -1,2; 980,9368;1006,5000;0; 23,5; 23,5; 0,0; 0,0;112,5; 17,6
2020-01-26 23:56:59; 0,9; 86; -1,2; 980,9368;1006,5000;0; 23,4; 23,4; 0,0; 0,0;112,5; 17,6
2020-01-27 00:07:00; 0,9; 86; -1,2; 980,9368;1006,5000;0; 23,5; 23,5; 0,0; 0,0;112,5; 17,6
2020-01-27 00:16:59; 0,9; 86; -1,2; 980,6868;1006,2500;0; 23,5; 23,5; 0,0; 0,0;112,5; 17,6
2020-01-27 00:27:00; 0,9; 86; -1,2; 980,6868;1006,2500;0; 23,4; 23,4; 0,0; 0,0;112,5; 17,6
2020-01-27 00:36:59; 0,9; 86; -1,2; 980,6868;1006,2500;0; 23,5; 23,5; 0,0; 0,0;112,5; 17,6
2020-01-27 00:47:00; 0,9; 86; -1,2; 980,6868;1006,2500;0; 23,5; 23,5; 0,0; 0,0;112,5; 17,6
2020-01-27 00:57:00; 0,8; 87; -1,1; 980,5618;1006,1250;0; 23,4; 23,4; 0,0; 0,0;112,5; 17,6
2020-01-27 01:06:59; 0,8; 86; -1,3; 980,5618;1006,1250;0; 23,5; 23,5; 0,0; 0,0;112,5; 17,6
2020-01-27 01:17:00; 0,7; 87; -1,2; 980,3743;1005,9375;0; 23,5; 23,5; 0,0; 0,0;112,5; 17,6
2020-01-27 01:26:59; 0,7; 87; -1,2; 980,3743;1005,9375;0; 23,5; 23,5; 0,0; 0,0;112,5; 17,6
2020-01-27 01:37:00; 0,7; 87; -1,2; 980,4993;1006,0625;0; 23,4; 23,4; 0,0; 0,0;112,5; 17,6
2020-01-27 01:46:59; 0,7; 87; -1,2; 980,4993;1006,0625;0; 23,5; 23,5; 0,0; 0,0;112,5; 17,6
2020-01-27 01:57:00; 0,7; 87; -1,2; 980,4368;1006,0000;0; 23,5; 23,5; 0,0; 0,0;112,5; 17,6
2020-01-27 02:06:59; 0,6; 87; -1,3; 980,4368;1006,0000;0; 23,5; 23,5; 0,0; 0,0;112,5; 17,6
2020-01-27 02:17:00; 0,4; 87; -1,5; 980,2493;1005,8125;0; 23,4; 23,4; 0,0; 0,0;112,5; 17,6
2020-01-27 02:27:00; 0,4; 87; -1,5; 980,2493;1005,8125;0; 23,5; 23,5; 0,0; 0,0;112,5; 17,6
2020-01-27 02:36:59; 0,3; 87; -1,6; 979,8743;1005,4375;0; 23,5; 23,5; 0,0; 0,0;112,5; 17,6
2020-01-27 02:47:00; 0,3; 88; -1,5; 979,8743;1005,4375;0; 23,5; 23,5; 0,0; 0,0;112,5; 17,6
2020-01-27 02:56:59; 0,3; 87; -1,6; 979,9993;1005,5625;0; 23,4; 23,4; 0,0; 0,0;112,5; 17,6
2020-01-27 03:07:00; 0,1; 87; -1,8; 979,9993;1005,5625;0; 23,5; 23,5; 0,0; 0,0;112,5; 17,6
2020-01-27 03:16:59; 0,1; 88; -1,7; 980,1243;1005,6875;0; 23,4; 23,4; 0,0; 0,0;112,5; 17,6
2020-01-27 03:27:00; 0,0; 88; -1,7; 980,1243;1005,6875;0; 23,4; 23,4; 0,0; 0,0;112,5; 17,6
2020-01-27 03:36:59; -0,1; 88; -1,8; 979,9993;1005,5625;0; 23,4; 23,4; 0,0; 0,0;112,5; 17,6
2020-01-27 03:47:00; -0,1; 88; -1,8; 979,9993;1005,5625;0; 23,4; 23,4; 0,0; 0,0;112,5; 17,6
2020-01-27 03:57:00; 0,0; 88; -1,7; 979,6868;1005,2500;0; 23,4; 23,4; 0,0; 0,0;112,5; 17,6
2020-01-27 04:06:59; 0,0; 88; -1,7; 979,6868;1005,2500;0; 23,4; 23,4; 0,0; 0,0;112,5; 17,6
2020-01-27 04:17:00; 0,1; 89; -1,5; 979,6868;1005,2500;0; 23,4; 23,4; 0,0; 0,0;112,5; 17,6
2020-01-27 04:26:59; 0,2; 89; -1,4; 979,6868;1005,2500;0; 23,4; 23,4; 0,0; 0,0;112,5; 17,6
2020-01-27 04:37:00; 0,3; 89; -1,3; 979,8118;1005,3750;0; 23,4; 23,4; 0,0; 0,0;112,5; 17,6
2020-01-27 04:46:59; 0,2; 89; -1,4; 979,8118;1005,3750;0; 23,4; 23,4; 0,0; 0,0;112,5; 17,6
2020-01-27 04:57:00; 0,3; 89; -1,3; 979,6868;1005,2500;0; 23,4; 23,4; 0,0; 0,0;112,5; 17,6
2020-01-27 05:06:59; 0,4; 89; -1,2; 979,6868;1005,2500;0; 23,4; 23,4; 0,0; 0,0;112,5; 17,6
2020-01-27 05:17:00; 0,3; 89; -1,3; 979,4993;1005,0625;0; 23,4; 23,4; 0,0; 0,0;112,5; 17,6
2020-01-27 05:27:00; 0,3; 89; -1,3; 979,4993;1005,0625;0; 23,4; 23,4; 0,0; 0,0;112,5; 17,6
2020-01-27 05:36:59; 0,3; 88; -1,5; 979,7493;1005,3125;0; 23,4; 23,4; 0,0; 0,0;112,5; 17,6
2020-01-27 05:47:00; 0,2; 88; -1,6; 979,7493;1005,3125;0; 23,4; 23,4; 0,0; 0,0;112,5; 17,6
2020-01-27 05:56:59; 0,3; 89; -1,3; 979,7493;1005,3125;0; 23,4; 23,4; 0,0; 0,0;112,5; 17,6
2020-01-27 06:07:00; 0,3; 89; -1,3; 979,7493;1005,3125;0; 23,4; 23,4; 0,0; 0,0;112,5; 17,6
2020-01-27 06:16:59; 0,3; 89; -1,3; 979,6868;1005,2500;0; 23,4; 23,4; 0,0; 0,0;112,5; 17,6
2020-01-27 06:27:00; 0,3; 89; -1,3; 979,6868;1005,2500;0; 23,4; 23,4; 0,0; 0,0;112,5; 17,6
2020-01-27 06:36:59; 0,1; 89; -1,5; 979,3118;1004,8750;0; 23,4; 23,4; 0,0; 0,0;112,5; 17,6
2020-01-27 06:47:00; -0,1; 88; -1,8; 979,3118;1004,8750;0; 23,4; 23,4; 0,0; 0,0;112,5; 17,6
2020-01-27 06:57:00; 0,0; 89; -1,6; 979,4368;1005,0000;0; 23,4; 23,4; 0,0; 0,0;112,5; 17,6
2020-01-27 07:06:59; -0,1; 89; -1,7; 979,4368;1005,0000;0; 23,4; 23,4; 0,0; 0,0;112,5; 17,6
2020-01-27 07:17:00; 0,0; 89; -1,6; 979,3118;1004,8750;0; 23,4; 23,4; 0,0; 0,0;112,5; 17,6
2020-01-27 07:26:59; 0,1; 89; -1,5; 979,3118;1004,8750;0; 23,4; 23,4; 0,0; 0,0;112,5; 17,6
2020-01-27 07:37:00; 0,3; 89; -1,3; 979,3118;1004,8750;0; 23,4; 23,4; 0,0; 0,0;112,5; 17,6
2020-01-27 07:46:59; 0,4; 89; -1,2; 979,3118;1004,8750;0; 23,4; 23,4; 0,0; 0,0;112,5; 17,6
2020-01-27 07:57:00; 0,6; 89; -1,0; 979,1868;1004,7500;0; 23,5; 23,5; 0,0; 0,0;112,5; 17,6
2020-01-27 08:06:59; 0,8; 89; -0,8; 979,1868;1004,7500;0; 23,5; 23,5; 0,0; 0,0;112,5; 17,6
2020-01-27 08:17:00; 1,1; 89; -0,5; 979,2493;1004,8125;0; 23,6; 23,6; 0,0; 0,0;112,5; 17,6
2020-01-27 08:27:00; 1,3; 89; -0,3; 979,2493;1004,8125;0; 23,9; 23,9; 0,0; 0,0;112,5; 17,6
2020-01-27 08:36:59; 1,8; 88; 0,0; 979,1868;1004,7500;0; 24,3; 24,3; 0,0; 0,0;112,5; 17,6
2020-01-27 08:47:00; 2,2; 88; 0,4; 979,1868;1004,7500;0; 24,4; 24,4; 0,0; 0,0;112,5; 17,6
2020-01-27 08:56:59; 2,7; 87; 0,8; 979,1868;1004,7500;0; 24,6; 24,6; 0,0; 0,0;112,5; 17,6
2020-01-27 09:07:00; 3,2; 86; 1,1; 979,1868;1004,7500;0; 24,8; 24,8; 0,0; 0,0;112,5; 17,6
2020-01-27 09:16:59; 3,7; 85; 1,4; 978,5618;1004,1250;2; 24,8; 24,8; 0,0; 0,0;112,5; 17,6
2020-01-27 09:27:00; 4,0; 84; 1,5; 978,5618;1004,1250;2; 24,8; 24,8; 0,0; 0,0;112,5; 17,6
2020-01-27 09:36:59; 4,7; 82; 1,9; 979,1868;1004,7500;2; 24,9; 24,9; 0,0; 0,0;112,5; 17,6
2020-01-27 09:47:00; 4,9; 80; 1,7; 979,1868;1004,7500;2; 24,9; 24,9; 0,0; 0,0;112,5; 17,6
2020-01-27 09:57:00; 5,1; 80; 1,9; 979,0618;1004,6250;2; 24,9; 24,9; 0,0; 0,0;112,5; 17,6
2020-01-27 10:06:59; 5,5; 79; 2,1; 979,0618;1004,6250;2; 24,9; 24,9; 0,0; 0,0;112,5; 17,6
2020-01-27 10:17:00; 6,1; 79; 2,7; 978,8118;1004,3750;2; 24,8; 24,8; 0,0; 0,0;112,5; 17,6
2020-01-27 10:26:59; 6,5; 78; 2,9; 978,8118;1004,3750;2; 24,7; 24,7; 0,0; 0,0;112,5; 17,6
2020-01-27 10:37:00; 6,8; 77; 3,1; 978,4368;1004,0000;2; 24,6; 24,6; 0,0; 0,0;112,5; 17,6
2020-01-27 10:46:59; 6,9; 75; 2,8; 978,4368;1004,0000;2; 24,7; 24,7; 0,0; 0,0;112,5; 17,6
2020-01-27 10:57:00; 7,1; 75; 3,0; 978,3118;1003,8750;2; 24,7; 24,7; 0,0; 0,0;112,5; 17,6
2020-01-27 11:06:59; 7,5; 74; 3,2; 978,3118;1003,8750;2; 24,8; 24,8; 0,0; 0,0;112,5; 17,6
2020-01-27 11:17:00; 7,5; 74; 3,2; 978,3118;1003,8750;2; 24,8; 24,8; 0,0; 0,0;112,5; 17,6
2020-01-27 11:27:00; 7,6; 72; 2,9; 978,3118;1003,8750;2; 24,8; 24,8; 0,0; 0,0;112,5; 17,6
2020-01-27 11:36:59; 7,6; 73; 3,1; 978,0618;1003,6250;2; 24,8; 24,8; 0,0; 0,0;112,5; 17,6
2020-01-27 11:47:00; 8,0; 72; 3,3; 978,0618;1003,6250;2; 24,9; 24,9; 0,0; 0,0;112,5; 17,6
2020-01-27 11:56:59; 8,4; 72; 3,6; 978,1868;1003,7500;2; 25,0; 25,0; 0,0; 0,0;112,5; 17,6
2020-01-27 12:07:00; 8,6; 70; 3,4; 978,1868;1003,7500;2; 25,1; 25,1; 0,0; 0,0;112,5; 17,6
2020-01-27 12:16:59; 8,6; 70; 3,4; 978,0618;1003,6250;2; 25,2; 25,2; 0,0; 0,0;112,5; 17,6
2020-01-27 12:27:00; 8,7; 70; 3,5; 978,0618;1003,6250;2; 25,1; 25,1; 0,0; 0,0;112,5; 17,6
2020-01-27 12:36:59; 9,3; 69; 3,9; 977,6243;1003,1875;2; 25,1; 25,1; 0,0; 0,0;112,5; 17,6
2020-01-27 12:47:00; 9,4; 67; 3,6; 977,6243;1003,1875;2; 25,1; 25,1; 0,0; 0,0;112,5; 17,6
2020-01-27 12:57:00; 9,9; 67; 4,1; 977,4993;1003,0625;2; 25,1; 25,1; 0,0; 0,0;112,5; 17,6
2020-01-27 13:06:59; 10,2; 66; 4,1; 977,4993;1003,0625;2; 25,1; 25,1; 0,0; 0,0;112,5; 17,6
2020-01-27 13:17:00; 10,2; 65; 3,9; 977,3118;1002,8750;2; 25,2; 25,2; 0,0; 0,0;112,5; 17,6
2020-01-27 13:26:59; 10,1; 65; 3,8; 977,3118;1002,8750;2; 25,2; 25,2; 0,0; 0,0;112,5; 17,6
2020-01-27 13:37:00; 10,1; 65; 3,8; 977,1243;1002,6875;2; 25,2; 25,2; 0,0; 0,0;112,5; 17,6
2020-01-27 13:46:59; 10,1; 64; 3,6; 977,1243;1002,6875;2; 25,1; 25,1; 0,0; 0,0;112,5; 17,6
2020-01-27 13:57:00; 9,6; 64; 3,1; 977,0618;1002,6250;2; 25,1; 25,1; 0,0; 0,0;112,5; 17,6
2020-01-27 14:06:59; 9,2; 65; 3,0; 977,0618;1002,6250;2; 24,9; 24,9; 0,0; 0,0;112,5; 17,6
2020-01-27 14:17:00; 8,8; 66; 2,8; 976,6868;1002,2500;2; 24,9; 24,9; 0,0; 0,0;112,5; 17,6
2020-01-27 14:27:00; 8,5; 67; 2,7; 976,6868;1002,2500;2; 24,8; 24,8; 0,0; 0,0;112,5; 17,6
2020-01-27 14:36:59; 8,0; 67; 2,2; 976,6868;1002,2500;2; 24,7; 24,7; 0,0; 0,0;112,5; 17,6
2020-01-27 14:47:00; 7,6; 69; 2,3; 976,6868;1002,2500;2; 24,6; 24,6; 0,0; 0,0;112,5; 17,6
2020-01-27 14:56:59; 7,3; 69; 2,0; 976,4993;1002,0625;2; 24,5; 24,5; 0,0; 0,0;112,5; 17,6
2020-01-27 15:07:00; 7,1; 70; 2,0; 976,4993;1002,0625;2; 24,4; 24,4; 0,0; 0,0;112,5; 17,6
2020-01-27 15:16:59; 6,8; 71; 1,9; 976,2493;1001,8125;2; 24,4; 24,4; 0,0; 0,0;112,5; 17,6
2020-01-27 15:27:00; 6,7; 71; 1,8; 976,2493;1001,8125;2; 24,3; 24,3; 0,0; 0,0;112,5; 17,6
2020-01-27 15:36:59; 6,6; 72; 1,9; 976,0618;1001,6250;2; 24,2; 24,2; 0,0; 0,0;112,5; 17,6
2020-01-27 15:47:00; 6,5; 72; 1,8; 976,0618;1001,6250;2; 24,2; 24,2; 0,0; 0,0;112,5; 17,6
2020-01-27 15:57:00; 6,3; 72; 1,6; 975,5618;1001,1250;2; 24,2; 24,2; 0,0; 0,0;112,5; 17,6
2020-01-27 16:06:59; 6,2; 72; 1,5; 975,5618;1001,1250;2; 24,1; 24,1; 0,0; 0,0;112,5; 17,6
2020-01-27 16:17:00; 6,0; 73; 1,5; 975,2493;1000,8125;2; 24,1; 24,1; 0,0; 0,0;112,5; 17,6
2020-01-27 16:26:59; 5,6; 73; 1,1; 975,2493;1000,8125;2; 24,1; 24,1; 0,0; 0,0;112,5; 17,6
2020-01-27 16:37:00; 5,0; 75; 0,9; 975,1243;1000,6875;2; 24,0; 24,0; 0,0; 0,0;112,5; 17,6
2020-01-27 16:46:59; 4,6; 76; 0,7; 975,1243;1000,6875;2; 24,0; 24,0; 0,0; 0,0;112,5; 17,6
2020-01-27 16:57:00; 4,3; 77; 0,6; 974,8743;1000,4375;2; 23,9; 23,9; 0,0; 0,0;112,5; 17,6
2020-01-27 17:06:59; 4,0; 78; 0,5; 974,8743;1000,4375;2; 23,9; 23,9; 0,0; 0,0;112,5; 17,6
2020-01-27 17:17:00; 3,9; 79; 0,6; 974,6868;1000,2500;2; 23,9; 23,9; 0,0; 0,0;112,5; 17,6
2020-01-27 17:27:00; 3,8; 80; 0,7; 974,6868;1000,2500;2; 23,9; 23,9; 0,0; 0,0;112,5; 17,6
2020-01-27 17:36:59; 3,6; 81; 0,6; 974,4368;1000,0000;2; 23,9; 23,9; 0,0; 0,0;112,5; 17,6
2020-01-27 17:47:00; 3,6; 81; 0,6; 974,4368;1000,0000;2; 23,9; 23,9; 0,0; 0,0;112,5; 17,6
2020-01-27 17:56:59; 3,6; 81; 0,6; 974,1868; 999,7500;2; 23,9; 23,9; 0,0; 0,0;112,5; 17,6
2020-01-27 18:07:00; 3,6; 82; 0,8; 974,1868; 999,7500;2; 23,8; 23,8; 0,0; 0,0;112,5; 17,6
2020-01-27 18:16:59; 3,7; 82; 0,9; 973,9993; 999,5625;2; 23,8; 23,8; 0,0; 0,0;112,5; 17,6
2020-01-27 18:27:00; 4,2; 81; 1,2; 973,9993; 999,5625;2; 23,8; 23,8; 0,0; 0,0;112,5; 17,6
2020-01-27 18:36:59; 4,6; 80; 1,4; 973,7493; 999,3125;2; 23,8; 23,8; 0,0; 0,0;112,5; 17,6
2020-01-27 18:47:00; 4,9; 79; 1,6; 973,7493; 999,3125;2; 23,8; 23,8; 0,0; 0,0;112,5; 17,6
2020-01-27 18:57:00; 4,9; 79; 1,6; 973,3743; 998,9375;2; 23,8; 23,8; 0,0; 0,0;112,5; 17,6
2020-01-27 19:06:59; 5,0; 79; 1,7; 973,3743; 998,9375;2; 23,8; 23,8; 0,0; 0,0;112,5; 17,6
2020-01-27 19:17:00; 5,0; 79; 1,7; 973,1868; 998,7500;2; 23,8; 23,8; 0,0; 0,0;112,5; 17,6
2020-01-27 19:26:59; 5,1; 79; 1,8; 973,1868; 998,7500;2; 23,8; 23,8; 0,0; 0,0;112,5; 17,6
2020-01-27 19:37:00; 5,0; 78; 1,5; 972,8743; 998,4375;2; 23,8; 23,8; 0,0; 0,0;112,5; 17,6
2020-01-27 19:46:59; 5,1; 78; 1,6; 972,8743; 998,4375;2; 23,8; 23,8; 0,0; 0,0;112,5; 17,6
2020-01-27 19:57:00; 5,1; 78; 1,6; 972,4368; 998,0000;2; 23,7; 23,7; 0,0; 0,0;112,5; 17,6
2020-01-27 20:06:59; 5,1; 78; 1,6; 972,4368; 998,0000;2; 23,7; 23,7; 0,0; 0,0;112,5; 17,6
2020-01-27 20:17:00; 5,3; 77; 1,6; 972,0618; 997,6250;2; 23,7; 23,7; 0,0; 0,0;112,5; 17,6
2020-01-27 20:27:00; 5,3; 78; 1,8; 972,0618; 997,6250;2; 23,7; 23,7; 0,0; 0,0;112,5; 17,6
2020-01-27 20:36:59; 4,9; 79; 1,6; 971,7493; 997,3125;2; 23,7; 23,7; 0,0; 0,0;112,5; 17,6
2020-01-27 20:47:00; 4,7; 80; 1,5; 971,7493; 997,3125;2; 23,7; 23,7; 0,0; 0,0;112,5; 17,6
2020-01-27 20:56:59; 4,4; 81; 1,4; 971,5618; 997,1250;2; 23,7; 23,7; 0,0; 0,0;112,5; 17,6
2020-01-27 21:07:00; 4,3; 81; 1,3; 971,5618; 997,1250;2; 23,7; 23,7; 0,0; 0,0;112,5; 17,6
2020-01-27 21:16:59; 4,2; 81; 1,2; 971,4993; 997,0625;2; 23,7; 23,7; 0,0; 0,0;112,5; 17,6
2020-01-27 21:27:00; 4,2; 81; 1,2; 971,4993; 997,0625;2; 23,7; 23,7; 0,0; 0,0;112,5; 17,6
2020-01-27 21:36:59; 4,1; 82; 1,3; 971,1868; 996,7500;2; 23,6; 23,6; 0,0; 0,0;112,5; 17,6
2020-01-27 21:47:00; 4,2; 82; 1,4; 971,1868; 996,7500;2; 23,6; 23,6; 0,0; 0,0;112,5; 17,6
2020-01-27 21:57:00; 4,7; 82; 1,9; 970,6243; 996,1875;2; 23,6; 23,6; 0,0; 0,0;112,5; 17,6
2020-01-27 22:06:59; 5,1; 81; 2,1; 970,6243; 996,1875;2; 23,6; 23,6; 0,0; 0,0;112,5; 17,6
2020-01-27 22:17:00; 5,3; 79; 2,0; 970,4368; 996,0000;2; 23,6; 23,6; 0,0; 0,0;112,5; 17,6
2020-01-27 22:26:59; 5,5; 79; 2,1; 970,4368; 996,0000;2; 23,6; 23,6; 0,0; 0,0;112,5; 17,6
2020-01-27 22:37:00; 5,7; 78; 2,2; 969,5618; 995,1250;2; 23,6; 23,6; 0,0; 0,0;112,5; 17,6
2020-01-27 22:46:59; 5,9; 77; 2,2; 969,5618; 995,1250;2; 23,6; 23,6; 0,0; 0,0;112,5; 17,6
2020-01-27 22:57:00; 5,9; 77; 2,2; 969,7493; 995,3125;2; 23,6; 23,6; 0,0; 0,0;112,5; 17,6
2020-01-27 23:06:59; 6,0; 77; 2,3; 969,7493; 995,3125;2; 23,6; 23,6; 0,0; 0,0;112,5; 17,6
2020-01-27 23:17:00; 5,9; 77; 2,2; 969,3118; 994,8750;2; 23,6; 23,6; 0,0; 0,0;112,5; 17,6
2020-01-27 23:27:00; 5,9; 76; 2,0; 969,3118; 994,8750;2; 23,6; 23,6; 0,0; 0,0;112,5; 17,6
2020-01-27 23:36:59; 5,8; 76; 1,9; 968,9993; 994,5625;2; 23,6; 23,6; 0,0; 0,0;112,5; 17,6
2020-01-27 23:47:00; 5,9; 76; 2,0; 968,9993; 994,5625;2; 23,6; 23,6; 0,0; 0,0;112,5; 17,6
2020-01-27 23:56:59; 5,9; 76; 2,0; 968,6243; 994,1875;2; 23,6; 23,6; 0,0; 0,0;112,5; 17,6
2020-01-28 00:07:00; 5,8; 76; 1,9; 968,6243; 994,1875;2; 23,6; 23,6; 0,0; 0,0;112,5; 17,6
2020-01-28 00:16:59; 5,9; 76; 2,0; 968,3743; 993,9375;2; 23,6; 23,6; 0,0; 0,0;112,5; 17,6
2020-01-28 00:27:00; 6,0; 76; 2,1; 968,3743; 993,9375;2; 23,6; 23,6; 0,0; 0,0;112,5; 17,6
2020-01-28 00:36:59; 6,0; 76; 2,1; 968,1243; 993,6875;2; 23,6; 23,6; 0,0; 0,0;112,5; 17,6
2020-01-28 00:47:00; 6,0; 76; 2,1; 968,1243; 993,6875;2; 23,6; 23,6; 0,0; 0,0;112,5; 17,6
2020-01-28 00:57:00; 6,0; 76; 2,1; 967,8743; 993,4375;2; 23,6; 23,6; 0,0; 0,0;112,5; 17,6
2020-01-28 01:06:59; 6,0; 76; 2,1; 967,8743; 993,4375;2; 23,6; 23,6; 0,0; 0,0;112,5; 17,6
2020-01-28 01:17:00; 6,1; 76; 2,2; 967,2493; 992,8125;2; 23,6; 23,6; 0,0; 0,0;112,5; 17,6
2020-01-28 01:26:59; 6,1; 76; 2,2; 967,2493; 992,8125;2; 23,6; 23,6; 0,0; 0,0;112,5; 17,6
2020-01-28 01:37:00; 6,0; 76; 2,1; 967,1868; 992,7500;2; 23,6; 23,6; 0,0; 0,0;112,5; 17,6
2020-01-28 01:46:59; 6,1; 76; 2,2; 967,1868; 992,7500;2; 23,5; 23,5; 0,0; 0,0;112,5; 17,6
2020-01-28 01:57:00; 6,1; 75; 2,0; 966,9993; 992,5625;2; 23,6; 23,6; 0,0; 0,0;112,5; 17,6
2020-01-28 02:06:59; 6,1; 75; 2,0; 966,9993; 992,5625;2; 23,5; 23,5; 0,0; 0,0;112,5; 17,6
2020-01-28 02:17:00; 6,0; 75; 1,9; 966,8118; 992,3750;2; 23,5; 23,5; 0,0; 0,0;112,5; 17,6
2020-01-28 02:27:00; 6,0; 75; 1,9; 966,8118; 992,3750;2; 23,6; 23,6; 0,0; 0,0;112,5; 17,6
2020-01-28 02:36:59; 6,0; 75; 1,9; ; ;2; 23,5; 23,5; 0,0; 0,0;112,5; 17,6
2020-01-28 02:47:00; 6,0; 75; 1,9; ; ;2; 23,5; 23,5; 0,0; 0,0;112,5; 17,6
2020-01-28 02:56:59; 6,1; 75; 2,0; 965,7493; 991,3125;2; 23,6; 23,6; 0,0; 0,0;112,5; 17,6
2020-01-28 03:07:00; 6,0; 75; 1,9; 965,7493; 991,3125;2; 23,5; 23,5; 0,0; 0,0;112,5; 17,6
2020-01-28 03:16:59; 6,0; 75; 1,9; 965,5618; 991,1250;2; 23,6; 23,6; 0,0; 0,0;112,5; 17,6
2020-01-28 03:27:00; 6,1; 76; 2,2; 965,5618; 991,1250;2; 23,6; 23,6; 0,0; 0,0;112,5; 17,6
2020-01-28 03:36:59; 6,1; 76; 2,2; 965,0618; 990,6250;2; 23,5; 23,5; 0,0; 0,0;112,5; 17,6
2020-01-28 03:47:00; 6,1; 75; 2,0; 965,0618; 990,6250;2; 23,5; 23,5; 0,0; 0,0;112,5; 17,6
2020-01-28 03:57:00; 6,2; 75; 2,1; 964,6868; 990,2500;2; 23,5; 23,5; 0,0; 0,0;112,5; 17,6
2020-01-28 04:06:59; 6,1; 75; 2,0; 964,6868; 990,2500;2; 23,4; 23,4; 0,0; 0,0;112,5; 17,6
2020-01-28 04:17:00; 6,1; 76; 2,2; 964,3743; 989,9375;2; 23,4; 23,4; 0,0; 0,0;112,5; 17,6
2020-01-28 04:26:59; 6,1; 76; 2,2; 964,3743; 989,9375;2; 23,5; 23,5; 0,0; 0,0;112,5; 17,6
2020-01-28 04:37:00; 6,1; 76; 2,2; 964,2493; 989,8125;2; 23,4; 23,4; 0,0; 0,0;112,5; 17,6
2020-01-28 04:46:59; 6,1; 76; 2,2; 964,2493; 989,8125;2; 23,4; 23,4; 0,0; 0,0;112,5; 17,6
2020-01-28 04:57:00; 6,2; 76; 2,3; 963,9993; 989,5625;2; 23,4; 23,4; 0,0; 0,0;112,5; 17,6
2020-01-28 05:06:59; 6,2; 75; 2,1; 963,9993; 989,5625;2; 23,4; 23,4; 0,0; 0,0;112,5; 17,6
2020-01-28 05:17:00; 6,3; 75; 2,2; 963,9993; 989,5625;2; 23,4; 23,4; 0,0; 0,0;112,5; 17,6
2020-01-28 05:27:00; 6,3; 76; 2,4; 963,9993; 989,5625;2; 23,5; 23,5; 0,0; 0,0;112,5; 17,6
2020-01-28 05:36:59; 6,3; 78; 2,7; 964,0618; 989,6250;2; 23,5; 23,5; 0,0; 0,0;112,5; 17,6
2020-01-28 05:47:00; 6,2; 78; 2,6; 964,0618; 989,6250;2; 23,4; 23,4; 0,0; 0,0;112,5; 17,6
2020-01-28 05:56:59; 6,3; 79; 2,9; 963,9368; 989,5000;2; 23,4; 23,4; 0,0; 0,0;112,5; 17,6
2020-01-28 06:07:00; 6,2; 79; 2,8; 963,9368; 989,5000;2; 23,5; 23,5; 0,0; 0,0;112,5; 17,6
2020-01-28 06:16:59; 6,1; 79; 2,7; 963,8118; 989,3750;2; 23,4; 23,4; 0,0; 0,0;112,5; 17,6
2020-01-28 06:27:00; 6,1; 80; 2,9; 963,8118; 989,3750;2; 23,4; 23,4; 0,0; 0,0;112,5; 17,6
2020-01-28 06:36:59; 6,0; 80; 2,8; 963,4368; 989,0000;2; 23,5; 23,5; 0,0; 0,0;112,5; 17,6
2020-01-28 06:47:00; 6,0; 80; 2,8; 963,4368; 989,0000;2; 23,4; 23,4; 0,0; 0,0;112,5; 17,6
2020-01-28 06:57:00; 6,0; 79; 2,6; 963,3743; 988,9375;2; 23,4; 23,4; 0,0; 0,0;112,5; 17,6
2020-01-28 07:06:59; 6,0; 78; 2,5; 963,3743; 988,9375;2; 23,4; 23,4; 0,0; 0,0;112,5; 17,6
2020-01-28 07:17:00; 5,9; 78; 2,4; 963,3743; 988,9375;2; 23,4; 23,4; 0,0; 0,0;112,5; 17,6
2020-01-28 07:26:59; 5,9; 78; 2,4; 963,3743; 988,9375;2; 23,5; 23,5; 0,0; 0,0;112,5; 17,6
2020-01-28 07:37:00; 5,8; 78; 2,3; 963,3118; 988,8750;2; 23,4; 23,4; 0,0; 0,0;112,5; 17,6
2020-01-28 07:46:59; 5,9; 78; 2,4; 963,3118; 988,8750;2; 23,4; 23,4; 0,0; 0,0;112,5; 17,6
2020-01-28 07:57:00; 5,9; 77; 2,2; 963,2493; 988,8125;2; 23,4; 23,4; 0,0; 0,0;112,5; 17,6
2020-01-28 08:06:59; 6,1; 77; 2,4; 963,2493; 988,8125;2; 23,5; 23,5; 0,0; 0,0;112,5; 17,6
2020-01-28 08:17:00; 6,3; 76; 2,4; 962,9368; 988,5000;2; 23,5; 23,5; 0,0; 0,0;112,5; 17,6
2020-01-28 08:27:00; 6,4; 75; 2,3; 962,9368; 988,5000;2; 23,6; 23,6; 0,0; 0,0;112,5; 17,6
2020-01-28 08:36:59; 6,6; 75; 2,5; 962,8118; 988,3750;2; 23,8; 23,8; 0,0; 0,0;112,5; 17,6
2020-01-28 08:47:00; 6,8; 74; 2,5; 962,8118; 988,3750;2; 23,9; 23,9; 0,0; 0,0;112,5; 17,6
2020-01-28 08:56:59; 7,1; 73; 2,6; 962,9368; 988,5000;2; 24,2; 24,2; 0,0; 0,0;112,5; 17,6
2020-01-28 09:07:00; 7,4; 71; 2,5; 962,9368; 988,5000;2; 24,3; 24,3; 0,0; 0,0;112,5; 17,6
2020-01-28 09:16:59; 7,5; 71; 2,6; 963,4368; 989,0000;2; 24,4; 24,4; 0,0; 0,0;112,5; 17,6
2020-01-28 09:27:00; 7,7; 71; 2,8; 963,4368; 989,0000;2; 24,4; 24,4; 0,0; 0,0;112,5; 17,6
2020-01-28 09:36:59; 7,9; 71; 3,0; 962,9993; 988,5625;4; 24,3; 24,3; 0,0; 0,0;112,5; 17,6
2020-01-28 09:47:00; 7,9; 70; 2,8; 962,9993; 988,5625;4; 24,3; 24,3; 0,0; 0,0;112,5; 17,6
2020-01-28 09:57:00; 7,9; 69; 2,6; 962,8118; 988,3750;4; 24,3; 24,3; 0,0; 0,0;112,5; 17,6
2020-01-28 10:06:59; 8,0; 70; 2,9; 962,8118; 988,3750;4; 24,2; 24,2; 0,0; 0,0;112,5; 17,6
2020-01-28 10:17:00; 8,1; 69; 2,8; 962,8118; 988,3750;4; 24,2; 24,2; 0,0; 0,0;112,5; 17,6
2020-01-28 10:26:59; 8,1; 69; 2,8; 962,8118; 988,3750;4; 24,2; 24,2; 0,0; 0,0;112,5; 17,6
2020-01-28 10:37:00; 8,0; 69; 2,7; 962,3118; 987,8750;4; 24,2; 24,2; 0,0; 0,0;112,5; 17,6
2020-01-28 10:46:59; 8,1; 68; 2,5; 962,3118; 987,8750;4; 24,3; 24,3; 0,0; 0,0;112,5; 17,6
2020-01-28 10:57:00; 8,1; 69; 2,8; 962,0618; 987,6250;4; 24,2; 24,2; 0,0; 0,0;112,5; 17,6
2020-01-28 11:06:59; 8,0; 69; 2,7; 962,0618; 987,6250;4; 24,2; 24,2; 0,0; 0,0;112,5; 17,6
2020-01-28 11:17:00; 8,0; 70; 2,9; 961,8118; 987,3750;4; 24,3; 24,3; 0,0; 0,0;112,5; 17,6
2020-01-28 11:27:00; 8,1; 72; 3,4; 961,8118; 987,3750;4; 24,3; 24,3; 0,0; 0,0;112,5; 17,6
2020-01-28 11:36:59; 8,4; 72; 3,6; 961,4368; 987,0000;3; 24,4; 24,4; 0,0; 0,0;112,5; 17,6
2020-01-28 11:47:00; 8,3; 71; 3,4; 961,4368; 987,0000;3; 24,5; 24,5; 0,0; 0,0;112,5; 17,6
2020-01-28 11:56:59; 8,5; 70; 3,3; 961,3743; 986,9375;3; 24,5; 24,5; 0,0; 0,0;112,5; 17,6
2020-01-28 12:07:00; 8,5; 69; 3,1; 961,3743; 986,9375;3; 24,4; 24,4; 0,0; 0,0;112,5; 17,6
2020-01-28 12:16:59; 8,5; 69; 3,1; 960,5618; 986,1250;3; 24,3; 24,3; 0,0; 0,0;112,5; 17,6
2020-01-28 12:27:00; 8,5; 68; 2,9; 960,5618; 986,1250;3; 24,2; 24,2; 0,0; 0,0;112,5; 17,6
2020-01-28 12:36:59; 8,4; 68; 2,8; 960,2493; 985,8125;2; 24,2; 24,2; 0,0; 0,0;112,5; 17,6
2020-01-28 12:47:00; 8,1; 69; 2,8; 960,2493; 985,8125;2; 24,1; 24,1; 0,0; 0,0;112,5; 17,6
2020-01-28 12:57:00; 7,9; 72; 3,2; 960,2493; 985,8125;2; 24,1; 24,1; 0,0; 0,0;112,5; 17,6
2020-01-28 13:06:59; 7,1; 73; 2,6; 960,2493; 985,8125;2; 24,1; 24,1; 0,0; 0,0;112,5; 17,6
2020-01-28 13:17:00; 6,8; 72; 2,1; 960,3743; 985,9375;3; 24,0; 24,0; 0,0; 0,0;112,5; 17,6
2020-01-28 13:26:59; 6,6; 71; 1,7; 960,3743; 985,9375;3; 24,0; 24,0; 0,0; 0,0;112,5; 17,6
2020-01-28 13:37:00; 6,5; 70; 1,4; 960,1243; 985,6875;3; 24,0; 24,0; 0,0; 0,0;112,5; 17,6
2020-01-28 13:46:59; 6,6; 70; 1,5; 960,1243; 985,6875;3; 24,0; 24,0; 0,0; 0,0;112,5; 17,6
2020-01-28 13:57:00; 7,0; 69; 1,7; 960,7493; 986,3125;3; 24,1; 24,1; 0,0; 0,0;112,5; 17,6
2020-01-28 14:06:59; 6,9; 69; 1,6; 960,7493; 986,3125;3; 24,1; 24,1; 0,0; 0,0;112,5; 17,6
2020-01-28 14:17:00; 6,4; 68; 0,9; 960,9993; 986,5625;3; 24,1; 24,1; 0,0; 0,0;112,5; 17,6
2020-01-28 14:27:00; 6,1; 70; 1,0; 960,9993; 986,5625;3; 24,0; 24,0; 0,0; 0,0;112,5; 17,6
2020-01-28 14:36:59; 6,2; 71; 1,3; 961,3118; 986,8750;3; 24,0; 24,0; 0,0; 0,0;112,5; 17,6
2020-01-28 14:47:00; 6,1; 69; 0,8; 961,3118; 986,8750;3; 23,9; 23,9; 0,0; 0,0;112,5; 17,6
2020-01-28 14:56:59; 6,1; 69; 0,8; 961,5618; 987,1250;3; 23,9; 23,9; 0,0; 0,0;112,5; 17,6
2020-01-28 15:07:00; 6,0; 69; 0,7; 961,5618; 987,1250;3; 23,9; 23,9; 0,0; 0,0;112,5; 17,6
2020-01-28 15:16:59; 5,4; 74; 1,1; 962,3118; 987,8750;3; 23,9; 23,9; 0,0; 0,0;112,5; 17,6
2020-01-28 15:27:00; 4,8; 74; 0,6; 962,3118; 987,8750;3; 23,9; 23,9; 0,0; 0,0;112,5; 17,6
2020-01-28 15:36:59; 4,7; 73; 0,3; 962,3118; 987,8750;3; 23,9; 23,9; 0,0; 0,0;112,5; 17,6
2020-01-28 15:47:00; 4,6; 73; 0,2; 962,3118; 987,8750;3; 23,9; 23,9; 0,0; 0,0;112,5; 17,6
2020-01-28 15:57:00; 4,6; 73; 0,2; 962,4993; 988,0625;3; 23,9; 23,9; 0,0; 0,0;112,5; 17,6
2020-01-28 16:06:59; 4,4; 75; 0,4; 962,4993; 988,0625;3; 23,9; 23,9; 0,0; 0,0;112,5; 17,6
2020-01-28 16:17:00; 4,4; 76; 0,5; 962,3743; 987,9375;3; 23,9; 23,9; 0,0; 0,0;112,5; 17,6
2020-01-28 16:26:59; 4,5; 75; 0,5; 962,3743; 987,9375;3; 23,8; 23,8; 0,0; 0,0;112,5; 17,6
2020-01-28 16:37:00; 4,5; 75; 0,5; 962,8118; 988,3750;3; 23,8; 23,8; 0,0; 0,0;112,5; 17,6
2020-01-28 16:46:59; 4,1; 76; 0,3; 962,8118; 988,3750;3; 23,8; 23,8; 0,0; 0,0;112,5; 17,6
2020-01-28 16:57:00; 3,6; 78; 0,1; 963,2493; 988,8125;4; 23,8; 23,8; 0,0; 0,0;112,5; 17,6
2020-01-28 17:06:59; 3,4; 78; -0,1; 963,2493; 988,8125;4; 23,8; 23,8; 0,0; 0,0;112,5; 17,6
2020-01-28 17:17:00; 3,3; 77; -0,3; 963,3743; 988,9375;4; 23,8; 23,8; 0,0; 0,0;112,5; 17,6
2020-01-28 17:27:00; 3,3; 76; -0,5; 963,3743; 988,9375;4; 23,8; 23,8; 0,0; 0,0;112,5; 17,6
2020-01-28 17:36:59; 3,3; 76; -0,5; 963,3743; 988,9375;4; 23,8; 23,8; 0,0; 0,0;112,5; 17,6
2020-01-28 17:47:00; 3,3; 76; -0,5; 963,3743; 988,9375;4; 23,8; 23,8; 0,0; 0,0;112,5; 17,6
2020-01-28 17:56:59; 3,3; 76; -0,5; 963,3743; 988,9375;4; 23,8; 23,8; 0,0; 0,0;112,5; 17,6
2020-01-28 18:07:00; 3,3; 76; -0,5; 963,3743; 988,9375;4; 23,8; 23,8; 0,0; 0,0;112,5; 17,6
2020-01-28 18:16:59; 3,4; 74; -0,8; 963,6243; 989,1875;4; 23,8; 23,8; 0,0; 0,0;112,5; 17,6
2020-01-28 18:27:00; 3,4; 73; -1,0; 963,6243; 989,1875;4; 23,8; 23,8; 0,0; 0,0;112,5; 17,6
2020-01-28 18:36:59; 3,4; 73; -1,0; 963,7493; 989,3125;4; 23,8; 23,8; 0,0; 0,0;112,5; 17,6
2020-01-28 18:47:00; 3,5; 72; -1,1; 963,7493; 989,3125;4; 23,8; 23,8; 0,0; 0,0;112,5; 17,6
2020-01-28 18:57:00; 3,4; 72; -1,2; 963,9368; 989,5000;4; 23,8; 23,8; 0,0; 0,0;112,5; 17,6
2020-01-28 19:06:59; 3,4; 73; -1,0; 963,9368; 989,5000;4; 23,8; 23,8; 0,0; 0,0;112,5; 17,6
2020-01-28 19:17:00; 3,4; 73; -1,0; 964,0618; 989,6250;4; 23,8; 23,8; 0,0; 0,0;112,5; 17,6
2020-01-28 19:26:59; 3,5; 73; -0,9; 964,0618; 989,6250;4; 23,8; 23,8; 0,0; 0,0;112,5; 17,6
2020-01-28 19:37:00; 3,5; 73; -0,9; 964,4368; 990,0000;4; 23,7; 23,7; 0,0; 0,0;112,5; 17,6
2020-01-28 19:46:59; 3,5; 72; -1,1; 964,4368; 990,0000;4; 23,7; 23,7; 0,0; 0,0;112,5; 17,6
2020-01-28 19:57:00; 3,4; 72; -1,2; 964,4368; 990,0000;4; 23,7; 23,7; 0,0; 0,0;112,5; 17,6
2020-01-28 20:06:59; 3,3; 72; -1,3; 964,4368; 990,0000;4; 23,7; 23,7; 0,0; 0,0;112,5; 17,6
2020-01-28 20:17:00; 3,3; 72; -1,3; 964,5618; 990,1250;4; 23,7; 23,7; 0,0; 0,0;112,5; 17,6
2020-01-28 20:27:00; 3,3; 71; -1,5; 964,5618; 990,1250;4; 23,7; 23,7; 0,0; 0,0;112,5; 17,6
2020-01-28 20:36:59; 3,3; 71; -1,5; 964,6868; 990,2500;4; 23,7; 23,7; 0,0; 0,0;112,5; 17,6
2020-01-28 20:47:00; 3,3; 70; -1,6; 964,6868; 990,2500;4; 23,7; 23,7; 0,0; 0,0;112,5; 17,6
2020-01-28 20:56:59; 3,3; 70; -1,6; 964,7493; 990,3125;4; 23,7; 23,7; 0,0; 0,0;112,5; 17,6
2020-01-28 21:07:00; 3,3; 69; -1,8; 964,7493; 990,3125;4; 23,7; 23,7; 0,0; 0,0;112,5; 17,6
2020-01-28 21:16:59; 3,3; 69; -1,8; 964,8743; 990,4375;4; 23,7; 23,7; 0,0; 0,0;112,5; 17,6
2020-01-28 21:27:00; 3,3; 69; -1,8; 964,8743; 990,4375;4; 23,7; 23,7; 0,0; 0,0;112,5; 17,6
2020-01-28 21:36:59; 3,2; 70; -1,7; 965,0618; 990,6250;4; 23,6; 23,6; 0,0; 0,0;112,5; 17,6
2020-01-28 21:47:00; 3,1; 71; -1,6; 965,0618; 990,6250;4; 23,6; 23,6; 0,0; 0,0;112,5; 17,6
2020-01-28 21:57:00; 3,1; 71; -1,6; 965,3743; 990,9375;4; 23,6; 23,6; 0,0; 0,0;112,5; 17,6
2020-01-28 22:06:59; 3,1; 71; -1,6; 965,3743; 990,9375;4; 23,6; 23,6; 0,0; 0,0;112,5; 17,6
2020-01-28 22:17:00; 3,0; 71; -1,7; 965,5618; 991,1250;4; 23,6; 23,6; 0,0; 0,0;112,5; 17,6
2020-01-28 22:26:59; 3,0; 70; -1,9; 965,5618; 991,1250;4; 23,6; 23,6; 0,0; 0,0;112,5; 17,6
2020-01-28 22:37:00; 3,0; 69; -2,1; 965,8743; 991,4375;4; 23,6; 23,6; 0,0; 0,0;112,5; 17,6
2020-01-28 22:46:59; 2,9; 69; -2,2; 965,8743; 991,4375;4; 23,6; 23,6; 0,0; 0,0;112,5; 17,6
2020-01-28 22:57:00; 2,9; 70; -2,0; 965,6868; 991,2500;4; 23,6; 23,6; 0,0; 0,0;112,5; 17,6
2020-01-28 23:06:59; 2,9; 70; -2,0; 965,6868; 991,2500;4; 23,6; 23,6; 0,0; 0,0;112,5; 17,6
2020-01-28 23:17:00; 2,8; 70; -2,1; 965,4368; 991,0000;4; 23,6; 23,6; 0,0; 0,0;112,5; 17,6
2020-01-28 23:27:00; 2,7; 70; -2,2; 965,4368; 991,0000;4; 23,6; 23,6; 0,0; 0,0;112,5; 17,6
2020-01-28 23:36:59; 2,7; 70; -2,2; 965,3743; 990,9375;4; 23,6; 23,6; 0,0; 0,0;112,5; 17,6
2020-01-28 23:47:00; 2,7; 70; -2,2; 965,3743; 990,9375;4; 23,6; 23,6; 0,0; 0,0;112,5; 17,6
2020-01-28 23:56:59; 2,7; 69; -2,4; 965,3743; 990,9375;4; 23,6; 23,6; 0,0; 0,0;112,5; 17,6
2020-01-29 00:07:00; 2,8; 69; -2,3; 965,3743; 990,9375;4; 23,6; 23,6; 0,0; 0,0;112,5; 17,6
2020-01-29 00:16:59; 2,9; 69; -2,2; 965,3743; 990,9375;4; 23,6; 23,6; 0,0; 0,0;112,5; 17,6
2020-01-29 00:27:00; 2,9; 69; -2,2; 965,3743; 990,9375;4; 23,6; 23,6; 0,0; 0,0;112,5; 17,6
2020-01-29 00:36:59; 2,9; 69; -2,2; 965,4993; 991,0625;4; 23,6; 23,6; 0,0; 0,0;112,5; 17,6
2020-01-29 00:47:00; 2,9; 69; -2,2; 965,4993; 991,0625;4; 23,6; 23,6; 0,0; 0,0;112,5; 17,6
2020-01-29 00:57:00; 3,1; 69; -2,0; 965,4368; 991,0000;4; 23,6; 23,6; 0,0; 0,0;112,5; 17,6
2020-01-29 01:06:59; 3,1; 69; -2,0; 965,4368; 991,0000;4; 23,6; 23,6; 0,0; 0,0;112,5; 17,6
2020-01-29 01:17:00; 3,1; 69; -2,0; 965,6243; 991,1875;4; 23,6; 23,6; 0,0; 0,0;112,5; 17,6
2020-01-29 01:26:59; 3,1; 69; -2,0; 965,6243; 991,1875;4; 23,6; 23,6; 0,0; 0,0;112,5; 17,6
2020-01-29 01:37:00; 3,1; 69; -2,0; 965,4368; 991,0000;4; 23,6; 23,6; 0,0; 0,0;112,5; 17,6
2020-01-29 01:46:59; 3,1; 69; -2,0; 965,4368; 991,0000;4; 23,6; 23,6; 0,0; 0,0;112,5; 17,6
2020-01-29 01:57:00; 3,1; 69; -2,0; 965,4368; 991,0000;4; 23,6; 23,6; 0,0; 0,0;112,5; 17,6
2020-01-29 02:06:59; 3,1; 69; -2,0; 965,4368; 991,0000;4; 23,6; 23,6; 0,0; 0,0;112,5; 17,6
2020-01-29 02:17:00; 3,1; 68; -2,2; 965,6243; 991,1875;4; 23,6; 23,6; 0,0; 0,0;112,5; 17,6
2020-01-29 02:27:00; 2,9; 68; -2,4; 965,6243; 991,1875;4; 23,6; 23,6; 0,0; 0,0;112,5; 17,6
2020-01-29 02:36:59; 2,8; 69; -2,3; 965,7493; 991,3125;4; 23,6; 23,6; 0,0; 0,0;112,5; 17,6
2020-01-29 02:47:00; 2,7; 69; -2,4; 965,7493; 991,3125;4; 23,6; 23,6; 0,0; 0,0;112,5; 17,6
2020-01-29 02:56:59; 2,6; 69; -2,5; 965,7493; 991,3125;4; 23,6; 23,6; 0,0; 0,0;112,5; 17,6
2020-01-29 03:07:00; 2,5; 70; -2,4; 965,7493; 991,3125;4; 23,6; 23,6; 0,0; 0,0;112,5; 17,6
2020-01-29 03:16:59; 2,5; 70; -2,4; 965,6868; 991,2500;4; 23,6; 23,6; 0,0; 0,0;112,5; 17,6
2020-01-29 03:27:00; 2,4; 70; -2,5; 965,6868; 991,2500;4; 23,6; 23,6; 0,0; 0,0;112,5; 17,6
2020-01-29 03:36:59; 2,3; 70; -2,6; 965,8743; 991,4375;4; 23,6; 23,6; 0,0; 0,0;112,5; 17,6
2020-01-29 03:47:00; 2,3; 70; -2,6; 965,8743; 991,4375;4; 23,5; 23,5; 0,0; 0,0;112,5; 17,6
2020-01-29 03:57:00; 2,3; 70; -2,6; 966,1868; 991,7500;4; 23,5; 23,5; 0,0; 0,0;112,5; 17,6
2020-01-29 04:06:59; 2,2; 70; -2,7; 966,1868; 991,7500;4; 23,6; 23,6; 0,0; 0,0;112,5; 17,6
2020-01-29 04:17:00; 2,2; 70; -2,7; ; ;4; 23,5; 23,5; 0,0; 0,0;112,5; 17,6
2020-01-29 04:26:59; 2,2; 70; -2,7; ; ;4; 23,5; 23,5; 0,0; 0,0;112,5; 17,6
2020-01-29 04:37:00; 2,1; 70; -2,8; 966,7493; 992,3125;4; 23,6; 23,6; 0,0; 0,0;112,5; 17,6
2020-01-29 04:46:59; 2,1; 70; -2,8; 966,7493; 992,3125;4; 23,5; 23,5; 0,0; 0,0;112,5; 17,6
2020-01-29 04:57:00; 2,1; 70; -2,8; 966,8118; 992,3750;4; 23,6; 23,6; 0,0; 0,0;112,5; 17,6
2020-01-29 05:06:59; 2,1; 70; -2,8; 966,8118; 992,3750;4; 23,6; 23,6; 0,0; 0,0;112,5; 17,6
2020-01-29 05:17:00; 2,1; 70; -2,8; 966,8743; 992,4375;4; 23,5; 23,5; 0,0; 0,0;112,5; 17,6
2020-01-29 05:27:00; 2,1; 70; -2,8; 966,8743; 992,4375;4; 23,6; 23,6; 0,0; 0,0;112,5; 17,6
2020-01-29 05:36:59; 2,2; 71; -2,5; 967,1243; 992,6875;4; 23,5; 23,5; 0,0; 0,0;112,5; 17,6
2020-01-29 05:47:00; 2,3; 71; -2,4; 967,1243; 992,6875;4; 23,5; 23,5; 0,0; 0,0;112,5; 17,6
2020-01-29 05:56:59; 2,3; 71; -2,4; 967,3118; 992,8750;4; 23,6; 23,6; 0,0; 0,0;112,5; 17,6
2020-01-29 06:07:00; 2,3; 71; -2,4; 967,3118; 992,8750;4; 23,5; 23,5; 0,0; 0,0;112,5; 17,6
2020-01-29 06:16:59; 2,3; 71; -2,4; 967,3118; 992,8750;4; 23,5; 23,5; 0,0; 0,0;112,5; 17,6
2020-01-29 06:27:00; 2,3; 72; -2,2; 967,3118; 992,8750;4; 23,6; 23,6; 0,0; 0,0;112,5; 17,6
2020-01-29 06:36:59; 2,5; 73; -1,8; 967,8118; 993,3750;4; 23,5; 23,5; 0,0; 0,0;112,5; 17,6
2020-01-29 06:47:00; 2,4; 73; -1,9; 967,8118; 993,3750;4; 23,6; 23,6; 0,0; 0,0;112,5; 17,6
2020-01-29 06:57:00; 2,5; 73; -1,8; 968,1243; 993,6875;4; 23,6; 23,6; 0,0; 0,0;112,5; 17,6
2020-01-29 07:06:59; 2,6; 73; -1,8; 968,1243; 993,6875;4; 23,6; 23,6; 0,0; 0,0;112,5; 17,6
2020-01-29 07:17:00; 2,7; 73; -1,7; 968,3118; 993,8750;4; 23,6; 23,6; 0,0; 0,0;112,5; 17,6
2020-01-29 07:26:59; 2,9; 73; -1,5; 968,3118; 993,8750;4; 23,6; 23,6; 0,0; 0,0;112,5; 17,6
2020-01-29 07:37:00; 2,9; 72; -1,6; 968,6243; 994,1875;4; 23,6; 23,6; 0,0; 0,0;112,5; 17,6
2020-01-29 07:46:59; 3,2; 72; -1,4; 968,6243; 994,1875;4; 23,6; 23,6; 0,0; 0,0;112,5; 17,6
2020-01-29 07:57:00; 3,3; 72; -1,3; 968,5618; 994,1250;4; 23,6; 23,6; 0,0; 0,0;112,5; 17,6
2020-01-29 08:06:59; 3,5; 72; -1,1; 968,5618; 994,1250;4; 23,6; 23,6; 0,0; 0,0;112,5; 17,6
2020-01-29 08:17:00; 3,6; 71; -1,2; 968,4993; 994,0625;4; 23,7; 23,7; 0,0; 0,0;112,5; 17,6
2020-01-29 08:27:00; 3,8; 71; -1,0; 968,4993; 994,0625;4; 23,9; 23,9; 0,0; 0,0;112,5; 17,6
2020-01-29 08:36:59; 4,0; 70; -1,0; 968,9368; 994,5000;5; 23,9; 23,9; 0,0; 0,0;112,5; 17,6
2020-01-29 08:47:00; 4,0; 69; -1,2; 968,9368; 994,5000;5; 23,9; 23,9; 0,0; 0,0;112,5; 17,6
2020-01-29 08:56:59; 4,1; 69; -1,1; 969,0618; 994,6250;5; 24,0; 24,0; 0,0; 0,0;112,5; 17,6
2020-01-29 09:07:00; 4,2; 68; -1,2; 969,0618; 994,6250;5; 24,0; 24,0; 0,0; 0,0;112,5; 17,6
2020-01-29 09:16:59; 4,3; 68; -1,1; 969,3118; 994,8750;5; 24,0; 24,0; 0,0; 0,0;112,5; 17,6
2020-01-29 09:27:00; 4,3; 68; -1,1; 969,3118; 994,8750;5; 24,1; 24,1; 0,0; 0,0;112,5; 17,6
2020-01-29 09:36:59; 4,4; 68; -1,0; 969,4993; 995,0625;5; 24,1; 24,1; 0,0; 0,0;112,5; 17,6
2020-01-29 09:47:00; 4,5; 68; -0,9; 969,4993; 995,0625;5; 24,1; 24,1; 0,0; 0,0;112,5; 17,6
2020-01-29 09:57:00; 4,6; 67; -1,0; 969,6243; 995,1875;5; 24,1; 24,1; 0,0; 0,0;112,5; 17,6
2020-01-29 10:06:59; 4,7; 67; -0,9; 969,6243; 995,1875;5; 24,1; 24,1; 0,0; 0,0;112,5; 17,6
2020-01-29 10:17:00; 4,8; 67; -0,8; 969,6868; 995,2500;5; 24,2; 24,2; 0,0; 0,0;112,5; 17,6
2020-01-29 10:26:59; 5,1; 66; -0,7; 969,6868; 995,2500;5; 24,3; 24,3; 0,0; 0,0;112,5; 17,6
2020-01-29 10:37:00; 5,1; 66; -0,7; 969,8743; 995,4375;5; 24,2; 24,2; 0,0; 0,0;112,5; 17,6
2020-01-29 10:46:59; 4,9; 66; -0,9; 969,8743; 995,4375;5; 24,3; 24,3; 0,0; 0,0;112,5; 17,6
2020-01-29 10:57:00; 5,1; 66; -0,7; 969,8743; 995,4375;5; 24,4; 24,4; 0,0; 0,0;112,5; 17,6
2020-01-29 11:06:59; 5,7; 66; -0,2; 969,8743; 995,4375;5; 24,6; 24,6; 0,0; 0,0;112,5; 17,6
2020-01-29 11:17:00; 5,6; 65; -0,5; 970,1868; 995,7500;5; 24,9; 24,9; 0,0; 0,3; 22,5; 17,6
2020-01-29 11:27:00; 5,5; 66; -0,3; 970,1868; 995,7500;5; 24,9; 24,9; 0,0; 0,0; 22,5; 17,6
2020-01-29 11:36:59; 5,6; 66; -0,3; 970,5618; 996,1250;5; 24,9; 24,9; 0,0; 0,0; 22,5; 17,6
2020-01-29 11:47:00; 6,8; 64; 0,5; 970,5618; 996,1250;5; 24,8; 24,8; 0,0; 0,0; 22,5; 17,6
2020-01-29 11:56:59; 5,9; 64; -0,4; 970,6868; 996,2500;5; 24,8; 24,8; 0,0; 0,0; 22,5; 17,6
2020-01-29 12:07:00; 5,8; 65; -0,3; 970,6868; 996,2500;5; 24,6; 24,6; 0,0; 0,0; 22,5; 17,6
2020-01-29 12:16:59; 5,8; 65; -0,3; 970,6243; 996,1875;5; 24,6; 24,6; 0,0; 0,0; 22,5; 17,6
2020-01-29 12:27:00; 5,8; 65; -0,3; 970,6243; 996,1875;5; 24,6; 24,6; 0,0; 0,0; 22,5; 17,6
2020-01-29 12:36:59; 6,0; 65; -0,1; 970,8118; 996,3750;5; 24,8; 24,8; 0,0; 0,0; 22,5; 17,6
2020-01-29 12:47:00; 6,3; 63; -0,2; 970,8118; 996,3750;5; 25,0; 25,0; 0,0; 0,0; 67,5; 19,0
2020-01-29 12:57:00; 5,9; 63; -0,6; 970,9368; 996,5000;5; 25,1; 25,1; 0,0; 0,0; 67,5; 19,0
2020-01-29 13:06:59; 5,7; 63; -0,8; 970,9368; 996,5000;5; 25,2; 25,2; 0,0; 0,0; 67,5; 19,0
2020-01-29 13:17:00; 5,6; 63; -0,9; 971,1243; 996,6875;5; 25,2; 25,2; 0,0; 0,0; 67,5; 19,0
2020-01-29 13:26:59; 5,7; 64; -0,6; 971,1243; 996,6875;5; 25,1; 25,1; 0,0; 0,0; 67,5; 19,0
2020-01-29 13:37:00; 5,6; 63; -0,9; 971,2493; 996,8125;5; 25,0; 25,0; 0,0; 0,0; 67,5; 19,0
2020-01-29 13:46:59; 5,6; 64; -0,7; 971,2493; 996,8125;5; 24,9; 24,9; 0,0; 0,0; 67,5; 19,0
2020-01-29 13:57:00; 5,6; 64; -0,7; 971,3118; 996,8750;5; 24,9; 24,9; 0,0; 0,0; 67,5; 19,0
2020-01-29 14:06:59; 5,5; 64; -0,8; 971,3118; 996,8750;5; 24,8; 24,8; 0,0; 0,0; 67,5; 19,0
2020-01-29 14:17:00; 5,4; 64; -0,9; 971,4368; 997,0000;5; 24,8; 24,8; 0,0; 0,0; 67,5; 19,0
2020-01-29 14:27:00; 5,3; 64; -1,0; 971,4368; 997,0000;5; 24,6; 24,6; 0,0; 0,0; 67,5; 19,0
2020-01-29 14:36:59; 5,3; 63; -1,2; 971,4368; 997,0000;5; 24,6; 24,6; 0,0; 0,0; 67,5; 19,0
2020-01-29 14:47:00; 5,1; 63; -1,4; 971,4368; 997,0000;5; 24,4; 24,4; 0,0; 0,0; 67,5; 19,0
2020-01-29 14:56:59; 5,0; 64; -1,2; 971,6243; 997,1875;5; 24,4; 24,4; 0,0; 0,0; 67,5; 19,0
2020-01-29 15:07:00; 4,8; 64; -1,4; 971,6243; 997,1875;5; 24,4; 24,4; 0,0; 0,0; 67,5; 19,0
2020-01-29 15:16:59; 4,7; 65; -1,3; 971,5618; 997,1250;5; 24,3; 24,3; 0,0; 0,0; 67,5; 19,0
2020-01-29 15:27:00; 4,7; 65; -1,3; 971,5618; 997,1250;5; 24,3; 24,3; 0,0; 0,0; 67,5; 19,0
2020-01-29 15:36:59; 4,7; 65; -1,3; 971,8743; 997,4375;5; 24,4; 24,4; 0,0; 0,0; 67,5; 19,0
2020-01-29 15:47:00; 4,7; 64; -1,5; 971,8743; 997,4375;5; 24,4; 24,4; 0,0; 0,0; 67,5; 19,0
2020-01-29 15:57:00; 4,6; 65; -1,4; 971,8743; 997,4375;5; 24,5; 24,5; 0,0; 0,0; 67,5; 19,0
2020-01-29 16:06:59; 4,5; 65; -1,5; 971,8743; 997,4375;5; 24,4; 24,4; 0,0; 0,0; 67,5; 19,0
2020-01-29 16:17:00; 4,5; 65; -1,5; 972,1868; 997,7500;5; 24,4; 24,4; 0,0; 0,0; 67,5; 19,0
2020-01-29 16:26:59; 4,5; 66; -1,3; 972,1868; 997,7500;5; 24,5; 24,5; 0,0; 0,0; 67,5; 19,0
2020-01-29 16:37:00; 4,5; 66; -1,3; 972,3118; 997,8750;5; 24,6; 24,6; 0,0; 0,0; 67,5; 19,0
2020-01-29 16:46:59; 4,5; 67; -1,1; 972,3118; 997,8750;5; 24,6; 24,6; 0,0; 0,0; 67,5; 19,0
2020-01-29 16:57:00; 4,4; 67; -1,2; 972,5618; 998,1250;5; 24,5; 24,5; 0,0; 0,0; 67,5; 19,0
2020-01-29 17:06:59; 4,4; 67; -1,2; 972,5618; 998,1250;5; 24,5; 24,5; 0,0; 0,0; 67,5; 19,0
2020-01-29 17:17:00; 4,4; 68; -1,0; 972,5618; 998,1250;5; 24,4; 24,4; 0,0; 0,0; 67,5; 19,0
2020-01-29 17:27:00; 4,5; 68; -0,9; 972,5618; 998,1250;5; 24,4; 24,4; 0,0; 0,0; 67,5; 19,0
2020-01-29 17:36:59; 4,5; 68; -0,9; 973,0618; 998,6250;5; 24,4; 24,4; 0,0; 0,0; 67,5; 19,0
2020-01-29 17:47:00; 4,5; 68; -0,9; 973,0618; 998,6250;5; 24,4; 24,4; 0,0; 0,0; 67,5; 19,0
2020-01-29 17:56:59; 4,5; 68; -0,9; 972,8743; 998,4375;5; 24,3; 24,3; 0,0; 0,0; 67,5; 19,0
2020-01-29 18:07:00; 4,5; 69; -0,7; 972,8743; 998,4375;5; 24,3; 24,3; 0,0; 0,0; 67,5; 19,0
2020-01-29 18:16:59; 4,4; 70; -0,6; 973,2493; 998,8125;5; 24,3; 24,3; 0,0; 0,0; 67,5; 19,0
2020-01-29 18:27:00; 3,9; 76; 0,1; 973,2493; 998,8125;5; 24,3; 24,3; 0,0; 0,0; 67,5; 19,0
2020-01-29 18:36:59; 3,5; 79; 0,2; 973,8118; 999,3750;5; 24,3; 24,3; 0,0; 0,0; 67,5; 19,0
2020-01-29 18:47:00; 3,4; 79; 0,1; 973,8118; 999,3750;5; 24,2; 24,2; 0,0; 0,0; 67,5; 19,0
2020-01-29 18:57:00; 3,2; 80; 0,1; 973,8743; 999,4375;5; 24,2; 24,2; 0,0; 0,0; 67,5; 19,0
2020-01-29 19:06:59; 3,1; 80; 0,0; 973,8743; 999,4375;5; 24,2; 24,2; 0,0; 0,0; 67,5; 19,0
2020-01-29 19:17:00; 3,0; 80; -0,1; 973,9993; 999,5625;5; 24,2; 24,2; 0,0; 0,0; 67,5; 19,0
2020-01-29 19:26:59; 2,9; 80; -0,2; 973,9993; 999,5625;5; 24,2; 24,2; 0,0; 0,0; 67,5; 19,0
2020-01-29 19:37:00; 3,0; 80; -0,1; 974,1868; 999,7500;5; 24,2; 24,2; 0,0; 0,0; 67,5; 19,0
2020-01-29 19:46:59; 3,0; 81; 0,1; 974,1868; 999,7500;5; 24,1; 24,1; 0,0; 0,0; 67,5; 19,0
2020-01-29 19:57:00; 3,0; 82; 0,2; 974,4993;1000,0625;5; 24,1; 24,1; 0,0; 0,0; 67,5; 19,0
2020-01-29 20:06:59; 2,9; 82; 0,1; 974,4993;1000,0625;5; 24,1; 24,1; 0,0; 0,0; 67,5; 19,0
2020-01-29 20:17:00; 2,8; 83; 0,2; 974,8118;1000,3750;5; 24,1; 24,1; 0,0; 0,0; 67,5; 19,0
2020-01-29 20:27:00; 2,7; 83; 0,1; 974,8118;1000,3750;5; 24,1; 24,1; 0,0; 0,0; 67,5; 19,0
2020-01-29 20:36:59; 2,7; 83; 0,1; 974,9993;1000,5625;5; 24,1; 24,1; 0,0; 0,0; 67,5; 19,0
2020-01-29 20:47:00; 2,7; 83; 0,1; 974,9993;1000,5625;5; 24,1; 24,1; 0,0; 0,0; 67,5; 19,0
2020-01-29 20:56:59; 2,8; 83; 0,2; 975,1243;1000,6875;5; 24,1; 24,1; 0,0; 0,0; 67,5; 19,0
2020-01-29 21:07:00; 2,9; 83; 0,3; 975,1243;1000,6875;5; 24,1; 24,1; 0,0; 0,0; 67,5; 19,0
2020-01-29 21:16:59; 3,0; 82; 0,2; 975,4368;1001,0000;5; 24,1; 24,1; 0,0; 0,0; 67,5; 19,0
2020-01-29 21:27:00; 3,1; 80; 0,0; 975,4368;1001,0000;5; 24,1; 24,1; 0,0; 0,0; 67,5; 19,0
2020-01-29 21:36:59; 3,3; 79; 0,0; 975,7493;1001,3125;5; 24,1; 24,1; 0,0; 0,0; 67,5; 19,0
2020-01-29 21:47:00; 3,4; 77; -0,2; 975,7493;1001,3125;5; 24,1; 24,1; 0,0; 0,0; 67,5; 19,0
2020-01-29 21:57:00; 3,5; 76; -0,3; 975,9993;1001,5625;5; 24,1; 24,1; 0,0; 0,0; 67,5; 19,0
2020-01-29 22:06:59; 3,5; 76; -0,3; 975,9993;1001,5625;5; 24,1; 24,1; 0,0; 0,0; 67,5; 19,0
2020-01-29 22:17:00; 3,5; 76; -0,3; 976,1868;1001,7500;5; 24,1; 24,1; 0,0; 0,0; 67,5; 19,0
2020-01-29 22:26:59; 3,6; 76; -0,2; 976,1868;1001,7500;5; 24,1; 24,1; 0,0; 0,0; 67,5; 19,0
2020-01-29 22:37:00; 3,7; 75; -0,3; 976,4993;1002,0625;5; 24,0; 24,0; 0,0; 0,0; 67,5; 19,0
2020-01-29 22:46:59; 3,7; 75; -0,3; 976,4993;1002,0625;5; 24,0; 24,0; 0,0; 0,0; 67,5; 19,0
2020-01-29 22:57:00; 3,7; 75; -0,3; 976,7493;1002,3125;5; 24,0; 24,0; 0,0; 0,0; 67,5; 19,0
2020-01-29 23:06:59; 3,7; 74; -0,5; 976,7493;1002,3125;5; 24,0; 24,0; 0,0; 0,0; 67,5; 19,0
2020-01-29 23:17:00; 3,5; 74; -0,7; 976,8118;1002,3750;5; 24,0; 24,0; 0,0; 0,0; 67,5; 19,0
2020-01-29 23:27:00; 3,5; 74; -0,7; 976,8118;1002,3750;5; 24,0; 24,0; 0,0; 0,0; 67,5; 19,0
2020-01-29 23:36:59; 3,5; 74; -0,7; 976,9993;1002,5625;5; 24,0; 24,0; 0,0; 0,0; 67,5; 19,0
2020-01-29 23:47:00; 3,5; 74; -0,7; 976,9993;1002,5625;5; 24,0; 24,0; 0,0; 0,0; 67,5; 19,0
2020-01-29 23:56:59; 3,4; 75; -0,6; 977,0618;1002,6250;5; 24,0; 24,0; 0,0; 0,0; 67,5; 19,0
2020-01-30 00:07:00; 3,3; 75; -0,7; 977,0618;1002,6250;5; 24,0; 24,0; 0,0; 0,0; 67,5; 19,0
2020-01-30 00:16:59; 3,3; 75; -0,7; 977,3743;1002,9375;5; 24,0; 24,0; 0,0; 0,0; 67,5; 19,0
2020-01-30 00:27:00; 3,3; 75; -0,7; 977,3743;1002,9375;5; 23,9; 23,9; 0,0; 0,0; 67,5; 19,0
2020-01-30 00:36:59; 3,3; 74; -0,9; 977,4368;1003,0000;5; 23,9; 23,9; 0,0; 0,0; 67,5; 19,0
2020-01-30 00:47:00; 3,4; 74; -0,8; 977,4368;1003,0000;5; 23,9; 23,9; 0,0; 0,0; 67,5; 19,0
2020-01-30 00:57:00; 3,4; 74; -0,8; 977,6243;1003,1875;5; 23,9; 23,9; 0,0; 0,0; 67,5; 19,0
2020-01-30 01:06:59; 3,4; 74; -0,8; 977,6243;1003,1875;5; 23,9; 23,9; 0,0; 0,0; 67,5; 19,0
2020-01-30 01:17:00; 3,5; 73; -0,9; 977,8743;1003,4375;5; 23,9; 23,9; 0,0; 0,0; 67,5; 19,0
2020-01-30 01:26:59; 3,5; 73; -0,9; 977,8743;1003,4375;5; 23,9; 23,9; 0,0; 0,0; 67,5; 19,0
2020-01-30 01:37:00; 3,4; 72; -1,2; 977,8118;1003,3750;5; 23,9; 23,9; 0,0; 0,0; 67,5; 19,0
2020-01-30 01:46:59; 3,2; 73; -1,2; 977,8118;1003,3750;5; 23,9; 23,9; 0,0; 0,0; 67,5; 19,0
2020-01-30 01:57:00; 3,1; 73; -1,3; 977,8118;1003,3750;5; 23,9; 23,9; 0,0; 0,0; 67,5; 19,0
2020-01-30 02:06:59; 3,0; 73; -1,4; 977,8118;1003,3750;5; 23,9; 23,9; 0,0; 0,0; 67,5; 19,0
2020-01-30 02:17:00; 2,9; 73; -1,5; 977,6243;1003,1875;5; 23,9; 23,9; 0,0; 0,0; 67,5; 19,0
2020-01-30 02:27:00; 2,8; 74; -1,4; 977,6243;1003,1875;5; 23,9; 23,9; 0,0; 0,0; 67,5; 19,0
2020-01-30 02:36:59; 2,8; 74; -1,4; 977,6243;1003,1875;5; 23,9; 23,9; 0,0; 0,0; 67,5; 19,0
2020-01-30 02:47:00; 2,7; 74; -1,5; 977,6243;1003,1875;5; 23,9; 23,9; 0,0; 0,0; 67,5; 19,0
2020-01-30 02:56:59; 2,7; 74; -1,5; 977,6243;1003,1875;5; 23,9; 23,9; 0,0; 0,0; 67,5; 19,0
2020-01-30 03:07:00; 2,7; 74; -1,5; 977,6243;1003,1875;5; 23,9; 23,9; 0,0; 0,0; 67,5; 19,0
2020-01-30 03:16:59; 2,7; 74; -1,5; 977,4993;1003,0625;5; 23,9; 23,9; 0,0; 0,0; 67,5; 19,0
2020-01-30 03:27:00; 2,8; 75; -1,2; 977,4993;1003,0625;5; 23,9; 23,9; 0,0; 0,0; 67,5; 19,0
2020-01-30 03:36:59; 2,9; 75; -1,1; 977,3118;1002,8750;5; 23,9; 23,9; 0,0; 0,0; 67,5; 19,0
2020-01-30 03:47:00; 2,9; 75; -1,1; 977,3118;1002,8750;5; 23,9; 23,9; 0,0; 0,0; 67,5; 19,0
2020-01-30 03:57:00; 3,0; 74; -1,2; 977,0618;1002,6250;5; 23,9; 23,9; 0,0; 0,0; 67,5; 19,0
2020-01-30 04:06:59; 3,1; 74; -1,1; 977,0618;1002,6250;5; 23,9; 23,9; 0,0; 0,0; 67,5; 19,0
2020-01-30 04:17:00; 3,1; 74; -1,1; 976,6868;1002,2500;5; 23,9; 23,9; 0,0; 0,0; 67,5; 19,0
2020-01-30 04:26:59; 3,2; 74; -1,0; 976,6868;1002,2500;5; 23,9; 23,9; 0,0; 0,0; 67,5; 19,0
2020-01-30 04:37:00; 3,3; 73; -1,1; 976,5618;1002,1250;5; 23,9; 23,9; 0,0; 0,0; 67,5; 19,0
2020-01-30 04:46:59; 3,4; 74; -0,8; 976,5618;1002,1250;5; 23,9; 23,9; 0,0; 0,0; 67,5; 19,0
2020-01-30 04:57:00; 3,5; 74; -0,7; 976,5618;1002,1250;5; 23,9; 23,9; 0,0; 0,0; 67,5; 19,0
2020-01-30 05:06:59; 3,6; 75; -0,4; 976,5618;1002,1250;5; 23,9; 23,9; 0,0; 0,0; 67,5; 19,0
2020-01-30 05:17:00; 3,7; 76; -0,1; 976,6243;1002,1875;5; 23,9; 23,9; 0,0; 0,0; 67,5; 19,0
2020-01-30 05:27:00; 3,7; 76; -0,1; 976,6243;1002,1875;5; 23,9; 23,9; 0,0; 0,0; 67,5; 19,0
2020-01-30 05:36:59; 3,7; 76; -0,1; 976,3743;1001,9375;4; 23,9; 23,9; 0,0; 0,0; 67,5; 19,0
2020-01-30 05:47:00; 3,8; 77; 0,1; 976,3743;1001,9375;4; 23,9; 23,9; 0,0; 0,0; 67,5; 19,0
2020-01-30 05:56:59; 3,8; 77; 0,1; 976,7493;1002,3125;4; 23,9; 23,9; 0,0; 0,0; 67,5; 19,0
2020-01-30 06:07:00; 3,9; 77; 0,2; 976,7493;1002,3125;4; 23,9; 23,9; 0,0; 0,0; 67,5; 19,0
2020-01-30 06:16:59; 3,9; 76; 0,1; 976,3743;1001,9375;4; 23,9; 23,9; 0,0; 0,0; 67,5; 19,0
2020-01-30 06:27:00; 4,0; 76; 0,2; 976,3743;1001,9375;4; 23,9; 23,9; 0,0; 0,0; 67,5; 19,0
2020-01-30 06:36:59; 4,0; 76; 0,2; 976,1868;1001,7500;4; 23,9; 23,9; 0,0; 0,0; 67,5; 19,0
2020-01-30 06:47:00; 4,2; 76; 0,3; 976,1868;1001,7500;4; 23,9; 23,9; 0,0; 0,0; 67,5; 19,0
2020-01-30 06:57:00; 4,4; 75; 0,4; 976,2493;1001,8125;4; 24,0; 24,0; 0,0; 0,0; 67,5; 19,0
2020-01-30 07:06:59; 4,6; 74; 0,4; 976,2493;1001,8125;4; 24,0; 24,0; 0,0; 0,0; 67,5; 19,0
2020-01-30 07:17:00; 4,7; 73; 0,3; 976,1243;1001,6875;4; 24,1; 24,1; 0,0; 0,0; 67,5; 19,0
2020-01-30 07:26:59; 4,9; 73; 0,5; 976,1243;1001,6875;4; 24,1; 24,1; 0,0; 0,0; 67,5; 19,0
2020-01-30 07:37:00; 5,0; 73; 0,6; 976,3118;1001,8750;4; 24,1; 24,1; 0,0; 0,0; 67,5; 19,0
2020-01-30 07:46:59; 5,1; 73; 0,7; 976,3118;1001,8750;4; 24,1; 24,1; 0,0; 0,0; 67,5; 19,0
2020-01-30 07:57:00; 5,3; 72; 0,7; 976,4368;1002,0000;4; 24,2; 24,2; 0,0; 0,0; 67,5; 19,0
2020-01-30 08:06:59; 5,4; 72; 0,8; 976,4368;1002,0000;4; 24,2; 24,2; 0,0; 0,0; 67,5; 19,0
2020-01-30 08:17:00; 5,5; 72; 0,9; 976,4993;1002,0625;4; 24,2; 24,2; 0,0; 0,0; 67,5; 19,0
2020-01-30 08:27:00; 5,5; 72; 0,9; 976,4993;1002,0625;4; 24,2; 24,2; 0,0; 0,0; 67,5; 19,0
2020-01-30 08:36:59; 5,6; 72; 1,0; 976,2493;1001,8125;4; 24,2; 24,2; 0,0; 0,0; 67,5; 19,0
2020-01-30 08:47:00; 5,8; 71; 0,9; 976,2493;1001,8125;4; 24,2; 24,2; 0,0; 0,0; 67,5; 19,0
2020-01-30 08:56:59; 5,9; 71; 1,0; 976,4993;1002,0625;4; 24,3; 24,3; 0,0; 0,0; 67,5; 19,0
2020-01-30 09:07:00; 5,9; 71; 1,0; 976,4993;1002,0625;4; 24,4; 24,4; 0,0; 0,0; 67,5; 19,0
2020-01-30 09:16:59; 6,1; 70; 1,0; 976,3743;1001,9375;4; 24,4; 24,4; 0,0; 0,0; 67,5; 19,0
2020-01-30 09:27:00; 6,2; 70; 1,1; 976,3743;1001,9375;4; 24,4; 24,4; 0,0; 0,0; 67,5; 19,0
2020-01-30 09:36:59; 6,4; 70; 1,3; 976,5618;1002,1250;4; 24,4; 24,4; 0,0; 0,0; 67,5; 19,0
2020-01-30 09:47:00; 6,7; 69; 1,4; 976,5618;1002,1250;4; 24,4; 24,4; 0,0; 0,0; 67,5; 19,0
2020-01-30 09:57:00; 6,7; 69; 1,4; 976,6243;1002,1875;4; 24,5; 24,5; 0,0; 0,0; 67,5; 19,0
2020-01-30 10:06:59; 6,7; 70; 1,6; 976,6243;1002,1875;4; 24,5; 24,5; 0,0; 0,0; 67,5; 19,0
2020-01-30 10:17:00; 6,8; 70; 1,7; 976,6243;1002,1875;4; 24,5; 24,5; 0,0; 0,0; 67,5; 19,0
2020-01-30 10:26:59; 6,9; 69; 1,6; 976,6243;1002,1875;4; 24,5; 24,5; 0,0; 0,0; 67,5; 19,0
2020-01-30 10:37:00; 6,9; 69; 1,6; 976,3118;1001,8750;4; 24,5; 24,5; 0,0; 0,0; 67,5; 19,0
2020-01-30 10:46:59; 6,9; 69; 1,6; 976,3118;1001,8750;4; 24,6; 24,6; 0,0; 0,0; 67,5; 19,0
2020-01-30 10:57:00; 7,1; 68; 1,6; 976,1243;1001,6875;4; 24,6; 24,6; 0,0; 0,0; 67,5; 19,0
2020-01-30 11:06:59; 7,1; 68; 1,6; 976,1243;1001,6875;4; 24,6; 24,6; 0,0; 0,0; 67,5; 19,0
2020-01-30 11:17:00; 7,1; 68; 1,6; 976,1868;1001,7500;4; 24,6; 24,6; 0,0; 0,0; 67,5; 19,0
2020-01-30 11:27:00; 7,1; 68; 1,6; 976,1868;1001,7500;4; 24,6; 24,6; 0,0; 0,0; 67,5; 19,0
2020-01-30 11:36:59; 7,2; 67; 1,5; 976,1243;1001,6875;4; 24,6; 24,6; 0,0; 0,0; 67,5; 19,0
2020-01-30 11:47:00; 7,4; 67; 1,7; 976,1243;1001,6875;4; 24,6; 24,6; 0,0; 0,0; 67,5; 19,0
2020-01-30 11:56:59; 7,6; 66; 1,7; 976,0618;1001,6250;4; 24,5; 24,5; 0,0; 0,0; 67,5; 19,0
2020-01-30 12:07:00; 7,9; 66; 1,9; 976,0618;1001,6250;4; 24,6; 24,6; 0,0; 0,0; 67,5; 19,0
2020-01-30 12:16:59; 8,2; 64; 1,8; 975,9368;1001,5000;4; 24,8; 24,8; 0,0; 0,0; 67,5; 19,0
2020-01-30 12:27:00; 8,4; 63; 1,8; 975,9368;1001,5000;4; 24,9; 24,9; 0,0; 0,0; 67,5; 19,0
2020-01-30 12:36:59; 8,3; 63; 1,7; 976,1243;1001,6875;4; 24,9; 24,9; 0,0; 0,0; 67,5; 19,0
2020-01-30 12:47:00; 8,2; 63; 1,6; 976,1243;1001,6875;4; 24,9; 24,9; 0,0; 0,0; 67,5; 19,0
2020-01-30 12:57:00; 8,2; 63; 1,6; 975,8118;1001,3750;4; 24,9; 24,9; 0,0; 0,0; 67,5; 19,0
2020-01-30 13:06:59; 8,1; 63; 1,5; 975,8118;1001,3750;4; 24,8; 24,8; 0,0; 0,0; 67,5; 19,0
2020-01-30 13:17:00; 8,1; 63; 1,5; 975,6243;1001,1875;4; 24,8; 24,8; 0,0; 0,0; 67,5; 19,0
2020-01-30 13:26:59; 8,1; 62; 1,3; 975,6243;1001,1875;4; 24,8; 24,8; 0,0; 0,0; 67,5; 19,0
2020-01-30 13:37:00; 8,2; 63; 1,6; 975,6243;1001,1875;4; 24,7; 24,7; 0,0; 0,0; 67,5; 19,0
2020-01-30 13:46:59; 8,0; 63; 1,4; 975,6243;1001,1875;4; 24,6; 24,6; 0,0; 0,0; 67,5; 19,0
2020-01-30 13:57:00; 7,9; 63; 1,3; 975,5618;1001,1250;4; 24,6; 24,6; 0,0; 0,0; 67,5; 19,0
2020-01-30 14:06:59; 7,9; 63; 1,3; 975,5618;1001,1250;4; 24,5; 24,5; 0,0; 0,0; 67,5; 19,0
2020-01-30 14:17:00; 7,8; 64; 1,4; 975,3743;1000,9375;4; 24,5; 24,5; 0,0; 0,0; 67,5; 19,0
2020-01-30 14:27:00; 7,7; 64; 1,3; 975,3743;1000,9375;4; 24,4; 24,4; 0,0; 0,0; 67,5; 19,0
2020-01-30 14:36:59; 7,7; 64; 1,3; 975,2493;1000,8125;4; 24,4; 24,4; 0,0; 0,0; 67,5; 19,0
2020-01-30 14:47:00; 7,6; 64; 1,2; 975,2493;1000,8125;4; 24,4; 24,4; 0,0; 0,0; 67,5; 19,0
2020-01-30 14:56:59; 7,5; 65; 1,3; 974,9368;1000,5000;4; 24,4; 24,4; 0,0; 0,0; 67,5; 19,0
2020-01-30 15:07:00; 7,5; 65; 1,3; 974,9368;1000,5000;4; 24,4; 24,4; 0,0; 0,0; 67,5; 19,0
2020-01-30 15:16:59; 7,4; 65; 1,3; 975,1868;1000,7500;4; 24,4; 24,4; 0,0; 0,0; 67,5; 19,0
2020-01-30 15:27:00; 7,2; 65; 1,1; 975,1868;1000,7500;4; 24,4; 24,4; 0,0; 0,0; 67,5; 19,0
2020-01-30 15:36:59; 7,1; 66; 1,2; 975,1243;1000,6875;4; 24,4; 24,4; 0,0; 0,0; 67,5; 19,0
2020-01-30 15:47:00; 6,9; 66; 1,0; 975,1243;1000,6875;4; 24,4; 24,4; 0,0; 0,0; 67,5; 19,0
2020-01-30 15:57:00; 6,8; 67; 1,1; 975,0618;1000,6250;4; 24,4; 24,4; 0,0; 0,0; 67,5; 19,0
2020-01-30 16:06:59; 6,7; 67; 1,0; 975,0618;1000,6250;4; 24,5; 24,5; 0,0; 0,0; 67,5; 19,0
2020-01-30 16:17:00; 6,7; 68; 1,2; 974,4368;1000,0000;4; 24,5; 24,5; 0,0; 0,0; 67,5; 19,0
2020-01-30 16:26:59; 6,6; 68; 1,1; 974,4368;1000,0000;4; 24,5; 24,5; 0,0; 0,0; 67,5; 19,0
2020-01-30 16:37:00; 6,5; 69; 1,2; 974,5618;1000,1250;4; 24,5; 24,5; 0,0; 0,0; 67,5; 19,0
2020-01-30 16:46:59; 6,4; 69; 1,1; 974,5618;1000,1250;4; 24,5; 24,5; 0,0; 0,0; 67,5; 19,0
2020-01-30 16:57:00; 6,4; 70; 1,3; 974,1243; 999,6875;4; 24,5; 24,5; 0,0; 0,0; 67,5; 19,0
2020-01-30 17:06:59; 6,3; 70; 1,2; 974,1243; 999,6875;4; 24,5; 24,5; 0,0; 0,0; 67,5; 19,0
2020-01-30 17:17:00; 6,2; 70; 1,1; 974,4993;1000,0625;4; 24,6; 24,6; 0,0; 0,0; 67,5; 19,0
2020-01-30 17:27:00; 6,1; 70; 1,0; 974,4993;1000,0625;4; 24,5; 24,5; 0,0; 0,0; 67,5; 19,0
2020-01-30 17:36:59; 6,0; 70; 0,9; 974,1868; 999,7500;4; 24,5; 24,5; 0,0; 0,0; 67,5; 19,0
2020-01-30 17:47:00; 5,8; 70; 0,8; 974,1868; 999,7500;4; 24,4; 24,4; 0,0; 0,0; 67,5; 19,0
2020-01-30 17:56:59; 5,6; 71; 0,8; 974,1868; 999,7500;4; 24,4; 24,4; 0,0; 0,0; 67,5; 19,0
2020-01-30 18:07:00; 5,3; 71; 0,5; 974,1868; 999,7500;4; 24,4; 24,4; 0,0; 0,0; 67,5; 19,0
2020-01-30 18:16:59; 5,1; 71; 0,3; 973,7493; 999,3125;4; 24,3; 24,3; 0,0; 0,0; 67,5; 19,0
2020-01-30 18:27:00; 4,7; 72; 0,1; 973,7493; 999,3125;4; 24,3; 24,3; 0,0; 0,0; 67,5; 19,0
2020-01-30 18:36:59; 4,6; 73; 0,2; 973,4368; 999,0000;4; 24,3; 24,3; 0,0; 0,0; 67,5; 19,0
2020-01-30 18:47:00; 4,4; 73; 0,0; 973,4368; 999,0000;4; 24,2; 24,2; 0,0; 0,0; 67,5; 19,0
2020-01-30 18:57:00; 4,3; 73; -0,1; 973,1868; 998,7500;4; 24,3; 24,3; 0,0; 0,0; 67,5; 19,0
2020-01-30 19:06:59; 4,2; 74; 0,0; 973,1868; 998,7500;4; 24,3; 24,3; 0,0; 0,0; 67,5; 19,0
2020-01-30 19:17:00; 4,1; 74; -0,1; 972,9993; 998,5625;4; 24,2; 24,2; 0,0; 0,0; 67,5; 19,0
2020-01-30 19:26:59; 4,0; 74; -0,2; 972,9993; 998,5625;4; 24,2; 24,2; 0,0; 0,0; 67,5; 19,0
2020-01-30 19:37:00; 4,0; 74; -0,2; 972,1243; 997,6875;4; 24,2; 24,2; 0,0; 0,0; 67,5; 19,0
2020-01-30 19:46:59; 4,5; 73; 0,1; 972,1243; 997,6875;4; 24,2; 24,2; 0,0; 0,0; 67,5; 19,0
2020-01-30 19:57:00; 4,8; 71; 0,0; 971,6243; 997,1875;4; 24,2; 24,2; 0,0; 0,0; 67,5; 19,0
2020-01-30 20:06:59; 5,0; 70; 0,0; 971,6243; 997,1875;4; 24,2; 24,2; 0,0; 0,0; 67,5; 19,0
2020-01-30 20:17:00; 5,1; 68; -0,3; 971,5618; 997,1250;4; 24,2; 24,2; 0,0; 0,0; 67,5; 19,0
2020-01-30 20:27:00; 5,5; 67; -0,1; 971,5618; 997,1250;4; 24,2; 24,2; 0,0; 0,0; 67,5; 19,0
2020-01-30 20:36:59; 5,4; 67; -0,2; 971,4368; 997,0000;4; 24,2; 24,2; 0,0; 0,0; 67,5; 19,0
2020-01-30 20:47:00; 5,4; 67; -0,2; 971,4368; 997,0000;4; 24,2; 24,2; 0,0; 0,0; 67,5; 19,0
2020-01-30 20:56:59; 5,3; 67; -0,3; 970,9368; 996,5000;4; 24,2; 24,2; 0,0; 0,0; 67,5; 19,0
2020-01-30 21:07:00; 5,4; 67; -0,2; 970,9368; 996,5000;4; 24,2; 24,2; 0,0; 0,0; 67,5; 19,0
2020-01-30 21:16:59; 5,6; 67; 0,0; 970,4368; 996,0000;4; 24,1; 24,1; 0,0; 0,0; 67,5; 19,0
2020-01-30 21:27:00; 5,9; 67; 0,2; 970,4368; 996,0000;4; 24,1; 24,1; 0,0; 0,0; 67,5; 19,0
2020-01-30 21:36:59; 6,2; 68; 0,7; 970,0618; 995,6250;4; 24,1; 24,1; 0,0; 0,0; 67,5; 19,0
2020-01-30 21:47:00; 6,5; 69; 1,2; 970,0618; 995,6250;4; 24,1; 24,1; 0,0; 0,0; 67,5; 19,0
2020-01-30 21:57:00; 6,9; 70; 1,8; 969,5618; 995,1250;3; 24,1; 24,1; 0,0; 0,0; 67,5; 19,0
2020-01-30 22:06:59; 7,5; 69; 2,2; 969,5618; 995,1250;3; 24,1; 24,1; 0,0; 0,0; 67,5; 19,0
2020-01-30 22:17:00; 7,8; 69; 2,5; 968,9993; 994,5625;3; 24,1; 24,1; 0,0; 0,0; 67,5; 19,0
2020-01-30 22:26:59; 8,0; 68; 2,5; 968,9993; 994,5625;3; 24,1; 24,1; 0,0; 0,0; 67,5; 19,0
2020-01-30 22:37:00; 8,1; 69; 2,8; 968,7493; 994,3125;3; 24,1; 24,1; 0,0; 0,0; 67,5; 19,0
2020-01-30 22:46:59; 8,3; 70; 3,1; 968,7493; 994,3125;3; 24,1; 24,1; 0,0; 0,0; 67,5; 19,0
2020-01-30 22:57:00; 8,3; 70; 3,1; 968,1868; 993,7500;3; 24,1; 24,1; 0,0; 0,0; 67,5; 19,0
2020-01-30 23:06:59; 8,3; 70; 3,1; 968,1868; 993,7500;3; 24,1; 24,1; 0,0; 0,0; 67,5; 19,0
2020-01-30 23:17:00; 8,4; 70; 3,2; 968,0618; 993,6250;2; 24,1; 24,1; 0,0; 0,0; 67,5; 19,0
2020-01-30 23:27:00; 8,5; 69; 3,1; 968,0618; 993,6250;2; 24,1; 24,1; 0,0; 0,0; 67,5; 19,0
2020-01-30 23:36:59; 8,7; 69; 3,3; 967,8118; 993,3750;2; 24,1; 24,1; 0,0; 0,0; 67,5; 19,0
2020-01-30 23:47:00; 8,7; 69; 3,3; 967,8118; 993,3750;2; 24,0; 24,0; 0,0; 0,0; 67,5; 19,0
2020-01-30 23:56:59; 8,8; 70; 3,6; 967,4993; 993,0625;2; 24,0; 24,0; 0,0; 0,0; 67,5; 19,0
2020-01-31 00:07:00; 8,8; 71; 3,8; 967,4993; 993,0625;2; 24,0; 24,0; 0,0; 0,0; 67,5; 19,0
2020-01-31 00:16:59; 8,7; 74; 4,3; 967,3118; 992,8750;2; 24,0; 24,0; 0,0; 0,0; 67,5; 19,0
2020-01-31 00:27:00; 8,7; 75; 4,5; 967,3118; 992,8750;2; 24,0; 24,0; 0,0; 0,0; 67,5; 19,0
2020-01-31 00:36:59; 8,6; 77; 4,8; 967,1868; 992,7500;2; 24,0; 24,0; 0,0; 0,0; 67,5; 19,0
2020-01-31 00:47:00; 8,6; 79; 5,2; 967,1868; 992,7500;2; 24,0; 24,0; 0,0; 0,0; 67,5; 19,0
2020-01-31 00:57:00; 8,6; 79; 5,2; 967,1868; 992,7500;2; 24,0; 24,0; 0,0; 0,0; 67,5; 19,0
2020-01-31 01:06:59; 8,7; 79; 5,3; 967,1868; 992,7500;2; 24,0; 24,0; 0,0; 0,0; 67,5; 19,0
2020-01-31 01:17:00; 8,7; 80; 5,4; 966,8743; 992,4375;2; 24,0; 24,0; 0,0; 0,0; 67,5; 19,0
2020-01-31 01:26:59; 8,8; 79; 5,4; 966,8743; 992,4375;2; 23,9; 23,9; 0,0; 0,0; 67,5; 19,0
2020-01-31 01:37:00; 9,1; 78; 5,5; 966,6243; 992,1875;2; 23,9; 23,9; 0,0; 0,0; 67,5; 19,0
2020-01-31 01:46:59; 9,4; 77; 5,6; 966,6243; 992,1875;2; 23,9; 23,9; 0,0; 0,0; 67,5; 19,0
2020-01-31 01:57:00; 9,6; 76; 5,6; 966,5618; 992,1250;2; 23,9; 23,9; 0,0; 0,0; 67,5; 19,0
2020-01-31 02:06:59; 9,9; 76; 5,9; 966,5618; 992,1250;2; 23,9; 23,9; 0,0; 0,0; 67,5; 19,0
2020-01-31 02:17:00; 10,0; 76; 6,0; 966,6243; 992,1875;2; 23,9; 23,9; 0,0; 0,0; 67,5; 19,0
2020-01-31 02:27:00; 10,1; 75; 5,9; 966,6243; 992,1875;2; 23,9; 23,9; 0,0; 0,0; 67,5; 19,0
2020-01-31 02:36:59; 10,3; 75; 6,1; 966,5618; 992,1250;2; 23,9; 23,9; 0,0; 0,0; 67,5; 19,0
2020-01-31 02:47:00; 10,3; 75; 6,1; 966,5618; 992,1250;2; 23,9; 23,9; 0,0; 0,0; 67,5; 19,0
2020-01-31 02:56:59; 10,3; 76; 6,3; 966,9368; 992,5000;2; 23,9; 23,9; 0,0; 0,0; 67,5; 19,0
2020-01-31 03:07:00; 10,3; 77; 6,4; 966,9368; 992,5000;2; 23,9; 23,9; 0,0; 0,0; 67,5; 19,0
2020-01-31 03:16:59; 10,3; 78; 6,6; 967,1243; 992,6875;2; 23,9; 23,9; 0,0; 0,0; 67,5; 19,0
2020-01-31 03:27:00; 10,3; 78; 6,6; 967,1243; 992,6875;2; 23,9; 23,9; 0,0; 0,0; 67,5; 19,0
2020-01-31 03:36:59; 10,4; 78; 6,7; 967,0618; 992,6250;2; 23,9; 23,9; 0,0; 0,0; 67,5; 19,0
2020-01-31 03:47:00; 10,5; 78; 6,8; 967,0618; 992,6250;2; 23,9; 23,9; 0,0; 0,0; 67,5; 19,0
2020-01-31 03:57:00; 10,6; 77; 6,7; 967,4368; 993,0000;2; 23,9; 23,9; 0,0; 0,0; 67,5; 19,0
2020-01-31 04:06:59; 10,7; 78; 7,0; 967,4368; 993,0000;2; 23,9; 23,9; 0,0; 0,0; 67,5; 19,0
2020-01-31 04:17:00; 10,8; 79; 7,3; 967,3118; 992,8750;2; 23,9; 23,9; 0,0; 0,0; 67,5; 19,0
2020-01-31 04:26:59; 10,8; 79; 7,3; 967,3118; 992,8750;2; 23,9; 23,9; 0,0; 0,0; 67,5; 19,0
2020-01-31 04:37:00; 10,8; 79; 7,3; 967,6868; 993,2500;2; 23,9; 23,9; 0,0; 0,0; 67,5; 19,0
2020-01-31 04:46:59; 10,9; 79; 7,4; 967,6868; 993,2500;2; 23,9; 23,9; 0,0; 0,0; 67,5; 19,0
2020-01-31 04:57:00; 11,1; 79; 7,6; 967,9993; 993,5625;2; 23,9; 23,9; 0,0; 0,0; 67,5; 19,0
2020-01-31 05:06:59; 11,2; 80; 7,9; 967,9993; 993,5625;2; 23,9; 23,9; 0,0; 0,0; 67,5; 19,0
2020-01-31 05:17:00; 11,1; 80; 7,8; 967,9993; 993,5625;2; 23,9; 23,9; 0,0; 0,0; 67,5; 19,0
2020-01-31 05:27:00; 11,1; 80; 7,8; 967,9993; 993,5625;2; 23,9; 23,9; 0,0; 0,0; 67,5; 19,0
2020-01-31 05:36:59; 11,0; 80; 7,7; 968,3118; 993,8750;2; 23,9; 23,9; 0,0; 0,0; 67,5; 19,0
2020-01-31 05:47:00; 10,8; 82; 7,9; 968,3118; 993,8750;2; 23,9; 23,9; 0,0; 0,0; 67,5; 19,0
2020-01-31 05:56:59; 10,6; 84; 8,0; 968,8118; 994,3750;3; 23,9; 23,9; 0,0; 0,0; 67,5; 19,0
2020-01-31 06:07:00; 10,4; 85; 8,0; 968,8118; 994,3750;3; 23,9; 23,9; 0,0; 0,0; 67,5; 19,0
2020-01-31 06:16:59; 10,4; 85; 8,0; 968,9993; 994,5625;3; 23,9; 23,9; 0,0; 0,0; 67,5; 19,0
2020-01-31 06:27:00; 10,5; 85; 8,1; 968,9993; 994,5625;3; 23,9; 23,9; 0,0; 0,0; 67,5; 19,0
2020-01-31 06:36:59; 10,3; 85; 7,9; 969,1868; 994,7500;3; 23,9; 23,9; 0,0; 0,0; 67,5; 19,0
2020-01-31 06:47:00; 10,3; 84; 7,7; 969,1868; 994,7500;3; 23,8; 23,8; 0,0; 0,0; 67,5; 19,0
2020-01-31 06:57:00; 10,6; 83; 7,8; 969,5618; 995,1250;3; 23,8; 23,8; 0,0; 0,0; 67,5; 19,0
2020-01-31 07:06:59; 10,7; 82; 7,8; 969,5618; 995,1250;3; 23,8; 23,8; 0,0; 0,0; 67,5; 19,0
2020-01-31 07:17:00; 10,8; 82; 7,9; 970,1868; 995,7500;3; 23,8; 23,8; 0,0; 0,0; 67,5; 19,0
2020-01-31 07:26:59; 10,9; 81; 7,8; 970,1868; 995,7500;3; 23,8; 23,8; 0,0; 0,0; 67,5; 19,0
2020-01-31 07:37:00; 11,0; 78; 7,3; 970,6243; 996,1875;3; 23,8; 23,8; 0,0; 0,0; 67,5; 19,0
2020-01-31 07:46:59; 11,2; 75; 6,9; 970,6243; 996,1875;3; 23,9; 23,9; 0,0; 0,0; 67,5; 19,0
2020-01-31 07:57:00; 11,3; 74; 6,8; 971,3743; 996,9375;3; 23,9; 23,9; 0,0; 0,0; 67,5; 19,0
2020-01-31 08:06:59; 11,4; 73; 6,7; 971,3743; 996,9375;3; 24,0; 24,0; 0,0; 0,0; 67,5; 19,0
2020-01-31 08:17:00; 11,4; 73; 6,7; 971,7493; 997,3125;4; 24,0; 24,0; 0,0; 0,0; 67,5; 19,0
2020-01-31 08:27:00; 11,4; 74; 6,9; 971,7493; 997,3125;4; 24,1; 24,1; 0,0; 0,0; 67,5; 19,0
2020-01-31 08:36:59; 11,4; 73; 6,7; 971,9368; 997,5000;4; 24,1; 24,1; 0,0; 0,0; 67,5; 19,0
2020-01-31 08:47:00; 11,4; 73; 6,7; 971,9368; 997,5000;4; 24,2; 24,2; 0,0; 0,0; 67,5; 19,0
2020-01-31 08:56:59; 11,6; 71; 6,5; 972,2493; 997,8125;4; 24,2; 24,2; 0,0; 0,0; 67,5; 19,0
2020-01-31 09:07:00; 11,7; 70; 6,4; 972,2493; 997,8125;4; 24,2; 24,2; 0,0; 0,0; 67,5; 19,0
2020-01-31 09:16:59; 11,9; 68; 6,2; 972,2493; 997,8125;4; 24,2; 24,2; 0,0; 0,0; 67,5; 19,0
2020-01-31 09:27:00; 12,0; 67; 6,1; 972,2493; 997,8125;4; 24,2; 24,2; 0,0; 0,0; 67,5; 19,0
2020-01-31 09:36:59; 12,1; 68; 6,4; 972,6868; 998,2500;4; 24,2; 24,2; 0,0; 0,0; 67,5; 19,0
2020-01-31 09:47:00; 11,9; 69; 6,4; 972,6868; 998,2500;4; 24,3; 24,3; 0,0; 0,0; 67,5; 19,0
2020-01-31 09:57:00; 11,9; 70; 6,6; 972,8743; 998,4375;4; 24,2; 24,2; 0,0; 0,0; 67,5; 19,0
2020-01-31 10:06:59; 11,9; 69; 6,4; 972,8743; 998,4375;4; 24,3; 24,3; 0,0; 0,0; 67,5; 19,0
2020-01-31 10:17:00; 12,5; 65; 6,1; 973,0618; 998,6250;4; 24,3; 24,3; 0,0; 0,0; 67,5; 19,0
2020-01-31 10:26:59; 12,8; 64; 6,2; 973,0618; 998,6250;4; 24,4; 24,4; 0,0; 0,0; 67,5; 19,0
2020-01-31 10:37:00; 12,8; 63; 5,9; 973,6243; 999,1875;4; 24,5; 24,5; 0,0; 0,0; 67,5; 19,0
2020-01-31 10:46:59; 13,0; 65; 6,6; 973,6243; 999,1875;4; 24,6; 24,6; 0,0; 0,0; 67,5; 19,0
2020-01-31 10:57:00; 13,0; 65; 6,6; 973,7493; 999,3125;4; 24,6; 24,6; 0,0; 0,0; 67,5; 19,0
2020-01-31 11:06:59; 13,0; 64; 6,3; 973,7493; 999,3125;4; 24,7; 24,7; 0,0; 0,0; 67,5; 19,0
2020-01-31 11:17:00; 12,8; 66; 6,6; 973,7493; 999,3125;4; 24,8; 24,8; 0,0; 0,0; 67,5; 19,0
2020-01-31 11:27:00; 13,0; 66; 6,8; 973,7493; 999,3125;4; 24,8; 24,8; 0,0; 0,0; 67,5; 19,0
2020-01-31 11:36:59; 12,8; 65; 6,4; 973,9993; 999,5625;4; 24,8; 24,8; 0,0; 0,0; 67,5; 19,0
2020-01-31 11:47:00; 13,1; 64; 6,4; 973,9993; 999,5625;4; 24,8; 24,8; 0,0; 0,0; 67,5; 19,0
2020-01-31 11:56:59; 13,3; 63; 6,4; 973,9368; 999,5000;4; 24,9; 24,9; 0,0; 0,0; 67,5; 19,0
2020-01-31 12:07:00; 13,1; 63; 6,2; 973,9368; 999,5000;4; 24,9; 24,9; 0,0; 0,0; 67,5; 19,0
2020-01-31 12:16:59; 13,1; 62; 6,0; 974,1243; 999,6875;4; 24,9; 24,9; 0,0; 0,0; 67,5; 19,0
2020-01-31 12:27:00; 12,9; 62; 5,8; 974,1243; 999,6875;4; 24,8; 24,8; 0,0; 0,0; 67,5; 19,0
2020-01-31 12:36:59; 12,9; 62; 5,8; 974,1243; 999,6875;4; 24,8; 24,8; 0,0; 0,0; 67,5; 19,0
2020-01-31 12:47:00; 13,2; 62; 6,1; 974,1243; 999,6875;4; 24,7; 24,7; 0,0; 0,0; 67,5; 19,0
2020-01-31 12:57:00; 13,1; 62; 6,0; 974,2493; 999,8125;4; 24,7; 24,7; 0,0; 0,0; 67,5; 19,0
2020-01-31 13:06:59; 12,9; 61; 5,6; 974,2493; 999,8125;4; 24,6; 24,6; 0,0; 0,0; 67,5; 19,0
2020-01-31 13:17:00; 12,9; 61; 5,6; 974,0618; 999,6250;4; 24,5; 24,5; 0,0; 0,0; 67,5; 19,0
2020-01-31 13:26:59; 12,7; 61; 5,4; 974,0618; 999,6250;4; 24,5; 24,5; 0,0; 0,0; 67,5; 19,0
2020-01-31 13:37:00; 12,7; 61; 5,4; 974,2493; 999,8125;4; 24,4; 24,4; 0,0; 0,0; 67,5; 19,0
2020-01-31 13:46:59; 12,6; 62; 5,5; 974,2493; 999,8125;4; 24,4; 24,4; 0,0; 0,0; 67,5; 19,0
2020-01-31 13:57:00; 12,6; 63; 5,7; 974,2493; 999,8125;4; 24,3; 24,3; 0,0; 0,0; 67,5; 19,0
2020-01-31 14:06:59; 12,6; 64; 6,0; 974,2493; 999,8125;4; 24,3; 24,3; 0,0; 0,0; 67,5; 19,0
2020-01-31 14:17:00; 12,7; 64; 6,1; 974,4368;1000,0000;4; 24,2; 24,2; 0,0; 0,0; 67,5; 19,0
2020-01-31 14:27:00; 12,7; 65; 6,3; 974,4368;1000,0000;4; 24,3; 24,3; 0,0; 0,0; 67,5; 19,0
2020-01-31 14:36:59; 12,8; 65; 6,4; 974,5618;1000,1250;4; 24,4; 24,4; 0,0; 0,0; 67,5; 19,0
2020-01-31 14:47:00; 12,8; 65; 6,4; 974,5618;1000,1250;4; 24,4; 24,4; 0,0; 0,0; 67,5; 19,0
2020-01-31 14:56:59; 12,6; 66; 6,4; 974,8118;1000,3750;4; 24,4; 24,4; 0,0; 0,0; 67,5; 19,0
2020-01-31 15:07:00; 12,6; 66; 6,4; 974,8118;1000,3750;4; 24,5; 24,5; 0,0; 0,0; 67,5; 19,0
2020-01-31 15:16:59; 12,4; 67; 6,4; 975,1243;1000,6875;4; 24,5; 24,5; 0,0; 0,0; 67,5; 19,0
2020-01-31 15:27:00; 12,3; 67; 6,3; 975,1243;1000,6875;4; 24,4; 24,4; 0,0; 0,0; 67,5; 19,0
2020-01-31 15:36:59; 12,1; 68; 6,4; 975,1868;1000,7500;4; 24,4; 24,4; 0,0; 0,0; 67,5; 19,0
2020-01-31 15:47:00; 11,9; 68; 6,2; 975,1868;1000,7500;4; 24,4; 24,4; 0,0; 0,0; 67,5; 19,0
2020-01-31 15:57:00; 11,7; 69; 6,2; 974,9993;1000,5625;4; 24,3; 24,3; 0,0; 0,0; 67,5; 19,0
2020-01-31 16:06:59; 11,5; 69; 6,0; 974,9993;1000,5625;4; 24,3; 24,3; 0,0; 0,0; 67,5; 19,0
2020-01-31 16:17:00; 11,3; 70; 6,0; 975,0618;1000,6250;4; 24,3; 24,3; 0,0; 0,0; 67,5; 19,0
2020-01-31 16:26:59; 11,1; 70; 5,8; 975,0618;1000,6250;4; 24,3; 24,3; 0,0; 0,0; 67,5; 19,0
2020-01-31 16:37:00; 10,9; 71; 5,8; 974,7493;1000,3125;4; 24,2; 24,2; 0,0; 0,0; 67,5; 19,0
2020-01-31 16:46:59; 10,7; 72; 5,9; 974,7493;1000,3125;4; 24,2; 24,2; 0,0; 0,0; 67,5; 19,0
2020-01-31 16:57:00; 10,6; 72; 5,8; 974,7493;1000,3125;4; 24,2; 24,2; 0,0; 0,0; 67,5; 19,0
2020-01-31 17:06:59; 10,6; 73; 6,0; 974,7493;1000,3125;4; 24,1; 24,1; 0,0; 0,0; 67,5; 19,0
2020-01-31 17:17:00; 10,6; 73; 6,0; 974,8118;1000,3750;4; 24,1; 24,1; 0,0; 0,0; 67,5; 19,0
2020-01-31 17:27:00; 10,6; 74; 6,2; 974,8118;1000,3750;4; 24,1; 24,1; 0,0; 0,0; 67,5; 19,0
2020-01-31 17:36:59; 10,8; 73; 6,2; 974,6243;1000,1875;4; 24,1; 24,1; 0,0; 0,0; 67,5; 19,0
2020-01-31 17:47:00; 11,0; 73; 6,3; 974,6243;1000,1875;4; 24,1; 24,1; 0,0; 0,0; 67,5; 19,0
2020-01-31 17:56:59; 11,0; 73; 6,3; 974,6243;1000,1875;4; 24,1; 24,1; 0,0; 0,0; 67,5; 19,0
2020-01-31 18:07:00; 11,1; 73; 6,4; 974,6243;1000,1875;4; 24,1; 24,1; 0,0; 0,0; 67,5; 19,0
2020-01-31 18:16:59; 11,2; 73; 6,5; 974,3743; 999,9375;4; 24,0; 24,0; 0,0; 0,0; 67,5; 19,0
2020-01-31 18:27:00; 11,1; 73; 6,4; 974,3743; 999,9375;4; 24,0; 24,0; 0,0; 0,0; 67,5; 19,0
2020-01-31 18:36:59; 11,1; 73; 6,4; 974,6243;1000,1875;4; 24,0; 24,0; 0,0; 0,0; 67,5; 19,0
2020-01-31 18:47:00; 11,3; 72; 6,4; 974,6243;1000,1875;4; 24,0; 24,0; 0,0; 0,0; 67,5; 19,0
2020-01-31 18:57:00; 11,3; 72; 6,4; 974,6868;1000,2500;4; 24,0; 24,0; 0,0; 0,0; 67,5; 19,0
2020-01-31 19:06:59; 11,3; 72; 6,4; 974,6868;1000,2500;4; 24,0; 24,0; 0,0; 0,0; 67,5; 19,0
2020-01-31 19:17:00; 11,2; 72; 6,3; 974,8118;1000,3750;4; 23,9; 23,9; 0,0; 0,0; 67,5; 19,0
2020-01-31 19:26:59; 11,3; 72; 6,4; 974,8118;1000,3750;4; 23,9; 23,9; 0,0; 0,0; 67,5; 19,0
2020-01-31 19:37:00; 11,3; 72; 6,4; 974,8118;1000,3750;4; 23,9; 23,9; 0,0; 0,0; 67,5; 19,0
2020-01-31 19:46:59; 11,3; 72; 6,4; 974,8118;1000,3750;4; 23,9; 23,9; 0,0; 0,0; 67,5; 19,0
2020-01-31 19:57:00; 11,1; 72; 6,2; 974,8743;1000,4375;4; 23,9; 23,9; 0,0; 0,0; 67,5; 19,0
2020-01-31 20:06:59; 11,2; 72; 6,3; 974,8743;1000,4375;4; 23,9; 23,9; 0,0; 0,0; 67,5; 19,0
2020-01-31 20:17:00; 11,3; 72; 6,4; 974,8118;1000,3750;4; 23,9; 23,9; 0,0; 0,0; 67,5; 19,0
2020-01-31 20:27:00; 11,1; 72; 6,2; 974,8118;1000,3750;4; 23,9; 23,9; 0,0; 0,0; 67,5; 19,0
2020-01-31 20:36:59; 11,1; 73; 6,4; 974,7493;1000,3125;4; 23,9; 23,9; 0,0; 0,0; 67,5; 19,0
2020-01-31 20:47:00; 11,1; 73; 6,4; 974,7493;1000,3125;4; 23,9; 23,9; 0,0; 0,0; 67,5; 19,0
2020-01-31 20:56:59; 11,2; 73; 6,5; 974,7493;1000,3125;4; 23,9; 23,9; 0,0; 0,0; 67,5; 19,0
2020-01-31 21:07:00; 11,3; 73; 6,6; 974,7493;1000,3125;4; 23,9; 23,9; 0,0; 0,0; 67,5; 19,0
2020-01-31 21:16:59; 11,3; 72; 6,4; 974,7493;1000,3125;4; 23,9; 23,9; 0,0; 0,0; 67,5; 19,0
2020-01-31 21:27:00; 11,3; 72; 6,4; 974,7493;1000,3125;4; 23,9; 23,9; 0,0; 0,0; 67,5; 19,0
2020-01-31 21:36:59; 11,3; 72; 6,4; 974,3743; 999,9375;4; 23,9; 23,9; 0,0; 0,0; 67,5; 19,0
2020-01-31 21:47:00; 11,4; 72; 6,5; 974,3743; 999,9375;4; 23,9; 23,9; 0,0; 0,0; 67,5; 19,0
2020-01-31 21:57:00; 11,3; 72; 6,4; 974,4368;1000,0000;4; 23,9; 23,9; 0,0; 0,0; 67,5; 19,0
2020-01-31 22:06:59; 11,3; 72; 6,4; 974,4368;1000,0000;4; 23,9; 23,9; 0,0; 0,0; 67,5; 19,0
2020-01-31 22:17:00; 11,3; 72; 6,4; 974,1868; 999,7500;4; 23,9; 23,9; 0,0; 0,0; 67,5; 19,0
2020-01-31 22:26:59; 11,3; 73; 6,6; 974,1868; 999,7500;4; 23,8; 23,8; 0,0; 0,0; 67,5; 19,0
2020-01-31 22:37:00; 11,3; 73; 6,6; 974,1243; 999,6875;4; 23,8; 23,8; 0,0; 0,0; 67,5; 19,0
2020-01-31 22:46:59; 11,2; 73; 6,5; 974,1243; 999,6875;4; 23,8; 23,8; 0,0; 0,0; 67,5; 19,0
2020-01-31 22:57:00; 11,1; 73; 6,4; 974,6243;1000,1875;4; 23,8; 23,8; 0,0; 0,0; 67,5; 19,0
2020-01-31 23:06:59; 11,0; 73; 6,3; 974,6243;1000,1875;4; 23,8; 23,8; 0,0; 0,0; 67,5; 19,0
2020-01-31 23:17:00; 10,9; 73; 6,3; 974,7493;1000,3125;4; 23,8; 23,8; 0,0; 0,0; 67,5; 19,0
2020-01-31 23:27:00; 10,7; 74; 6,3; 974,7493;1000,3125;4; 23,8; 23,8; 0,0; 0,0; 67,5; 19,0
2020-01-31 23:36:59; 10,7; 75; 6,4; 974,7493;1000,3125;4; 23,8; 23,8; 0,0; 0,0; 67,5; 19,0
2020-01-31 23:47:00; 10,5; 75; 6,3; 974,7493;1000,3125;4; 23,8; 23,8; 0,0; 0,0; 67,5; 19,0
2020-01-31 23:56:59; 10,6; 75; 6,4; 974,6868;1000,2500;4; 23,8; 23,8; 0,0; 0,0; 67,5; 19,0
2020-02-01 00:07:00; 10,6; 74; 6,2; 974,6868;1000,2500;4; 23,8; 23,8; 0,0; 0,0; 67,5; 19,0
2020-02-01 00:16:59; 10,5; 75; 6,3; 974,6868;1000,2500;4; 23,8; 23,8; 0,0; 0,0; 67,5; 19,0
2020-02-01 00:27:00; 10,5; 75; 6,3; 974,6868;1000,2500;4; 23,8; 23,8; 0,0; 0,0; 67,5; 19,0
2020-02-01 00:36:59; 10,6; 75; 6,4; 974,4993;1000,0625;4; 23,8; 23,8; 0,0; 0,0; 67,5; 19,0
2020-02-01 00:47:00; 10,6; 75; 6,4; 974,4993;1000,0625;4; 23,8; 23,8; 0,0; 0,0; 67,5; 19,0
2020-02-01 00:57:00; 10,5; 75; 6,3; 974,4368;1000,0000;4; 23,8; 23,8; 0,0; 0,0; 67,5; 19,0
2020-02-01 01:06:59; 10,5; 75; 6,3; 974,4368;1000,0000;4; 23,8; 23,8; 0,0; 0,0; 67,5; 19,0
2020-02-01 01:17:00; 10,6; 75; 6,4; 974,3743; 999,9375;4; 23,8; 23,8; 0,0; 0,0; 67,5; 19,0
2020-02-01 01:26:59; 10,6; 75; 6,4; 974,3743; 999,9375;4; 23,8; 23,8; 0,0; 0,0; 67,5; 19,0
2020-02-01 01:37:00; 10,6; 75; 6,4; 974,1243; 999,6875;4; 23,8; 23,8; 0,0; 0,0; 67,5; 19,0
2020-02-01 01:46:59; 10,6; 75; 6,4; 974,1243; 999,6875;4; 23,8; 23,8; 0,0; 0,0; 67,5; 19,0
2020-02-01 01:57:00; 10,7; 75; 6,4; 973,5618; 999,1250;4; 23,8; 23,8; 0,0; 0,0; 67,5; 19,0
2020-02-01 02:06:59; 10,8; 75; 6,5; 973,5618; 999,1250;4; 23,8; 23,8; 0,0; 0,0; 67,5; 19,0
2020-02-01 02:17:00; 10,8; 74; 6,4; 973,5618; 999,1250;4; 23,8; 23,8; 0,0; 0,0; 67,5; 19,0
2020-02-01 02:27:00; 10,8; 74; 6,4; 973,5618; 999,1250;4; 23,8; 23,8; 0,0; 0,0; 67,5; 19,0
2020-02-01 02:36:59; 10,8; 74; 6,4; 973,3743; 998,9375;4; 23,8; 23,8; 0,0; 0,0; 67,5; 19,0
2020-02-01 02:47:00; 10,9; 74; 6,4; 973,3743; 998,9375;4; 23,8; 23,8; 0,0; 0,0; 67,5; 19,0
2020-02-01 02:56:59; 11,0; 73; 6,3; 973,1243; 998,6875;4; 23,8; 23,8; 0,0; 0,0; 67,5; 19,0
2020-02-01 03:07:00; 11,1; 73; 6,4; 973,1243; 998,6875;4; 23,8; 23,8; 0,0; 0,0; 67,5; 19,0
2020-02-01 03:16:59; 11,2; 73; 6,5; 972,9993; 998,5625;4; 23,8; 23,8; 0,0; 0,0; 67,5; 19,0
2020-02-01 03:27:00; 11,3; 73; 6,6; 972,9993; 998,5625;4; 23,8; 23,8; 0,0; 0,0; 67,5; 19,0
2020-02-01 03:36:59; 11,4; 72; 6,5; 972,9368; 998,5000;4; 23,8; 23,8; 0,0; 0,0; 67,5; 19,0
2020-02-01 03:47:00; 11,5; 72; 6,6; 972,9368; 998,5000;4; 23,8; 23,8; 0,0; 0,0; 67,5; 19,0
2020-02-01 03:57:00; 11,5; 71; 6,4; 972,7493; 998,3125;4; 23,7; 23,7; 0,0; 0,0; 67,5; 19,0
2020-02-01 04:06:59; 11,5; 71; 6,4; 972,7493; 998,3125;4; 23,7; 23,7; 0,0; 0,0; 67,5; 19,0
2020-02-01 04:17:00; 11,5; 71; 6,4; 972,5618; 998,1250;4; 23,7; 23,7; 0,0; 0,0; 67,5; 19,0
2020-02-01 04:26:59; 11,5; 71; 6,4; 972,5618; 998,1250;4; 23,7; 23,7; 0,0; 0,0; 67,5; 19,0
2020-02-01 04:37:00; 11,5; 71; 6,4; 972,4368; 998,0000;4; 23,7; 23,7; 0,0; 0,0; 67,5; 19,0
2020-02-01 04:46:59; 11,6; 71; 6,5; 972,4368; 998,0000;4; 23,7; 23,7; 0,0; 0,0; 67,5; 19,0
2020-02-01 04:57:00; 11,6; 71; 6,5; 972,2493; 997,8125;4; 23,7; 23,7; 0,0; 0,0; 67,5; 19,0
2020-02-01 05:06:59; 11,6; 71; 6,5; 972,2493; 997,8125;4; 23,7; 23,7; 0,0; 0,0; 67,5; 19,0
2020-02-01 05:17:00; 11,5; 71; 6,4; 971,9368; 997,5000;4; 23,7; 23,7; 0,0; 0,0; 67,5; 19,0
2020-02-01 05:27:00; 11,6; 70; 6,3; 971,9368; 997,5000;4; 23,7; 23,7; 0,0; 0,0; 67,5; 19,0
2020-02-01 05:36:59; 11,6; 70; 6,3; 971,6868; 997,2500;4; 23,7; 23,7; 0,0; 0,0; 67,5; 19,0
2020-02-01 05:47:00; 11,6; 70; 6,3; 971,6868; 997,2500;4; 23,7; 23,7; 0,0; 0,0; 67,5; 19,0
2020-02-01 05:56:59; 11,6; 70; 6,3; 971,1243; 996,6875;4; 23,7; 23,7; 0,0; 0,0; 67,5; 19,0
2020-02-01 06:07:00; 11,7; 70; 6,4; 971,1243; 996,6875;4; 23,7; 23,7; 0,0; 0,0; 67,5; 19,0
2020-02-01 06:16:59; 11,7; 70; 6,4; 970,9993; 996,5625;4; 23,7; 23,7; 0,0; 0,0; 67,5; 19,0
2020-02-01 06:27:00; 11,7; 69; 6,2; 970,9993; 996,5625;4; 23,7; 23,7; 0,0; 0,0; 67,5; 19,0
2020-02-01 06:36:59; 11,7; 69; 6,2; 971,2493; 996,8125;4; 23,7; 23,7; 0,0; 0,0; 67,5; 19,0
2020-02-01 06:47:00; 11,7; 69; 6,2; 971,2493; 996,8125;4; 23,7; 23,7; 0,0; 0,0; 67,5; 19,0
2020-02-01 06:57:00; 11,7; 69; 6,2; 971,1243; 996,6875;4; 23,7; 23,7; 0,0; 0,0; 67,5; 19,0
2020-02-01 07:06:59; 11,7; 69; 6,2; 971,1243; 996,6875;4; 23,7; 23,7; 0,0; 0,0; 67,5; 19,0
2020-02-01 07:17:00; 11,7; 69; 6,2; 971,4368; 997,0000;4; 23,7; 23,7; 0,0; 0,0; 67,5; 19,0
2020-02-01 07:26:59; 11,9; 68; 6,2; 971,4368; 997,0000;4; 23,7; 23,7; 0,0; 0,0; 67,5; 19,0
2020-02-01 07:37:00; 11,9; 68; 6,2; 971,3743; 996,9375;4; 23,7; 23,7; 0,0; 0,0; 67,5; 19,0
2020-02-01 07:46:59; 12,1; 68; 6,4; 971,3743; 996,9375;4; 23,7; 23,7; 0,0; 0,0; 67,5; 19,0
2020-02-01 07:57:00; 12,3; 67; 6,3; 971,2493; 996,8125;4; 23,7; 23,7; 0,0; 0,0; 67,5; 19,0
2020-02-01 08:06:59; 12,3; 67; 6,3; 971,2493; 996,8125;4; 23,8; 23,8; 0,0; 0,0; 67,5; 19,0
2020-02-01 08:17:00; 12,4; 67; 6,4; 971,4368; 997,0000;4; 23,8; 23,8; 0,0; 0,0; 67,5; 19,0
2020-02-01 08:27:00; 12,4; 67; 6,4; 971,4368; 997,0000;4; 23,8; 23,8; 0,0; 0,0; 67,5; 19,0
2020-02-01 08:36:59; 12,5; 67; 6,5; 971,1868; 996,7500;4; 23,8; 23,8; 0,0; 0,0; 67,5; 19,0
2020-02-01 08:47:00; 12,7; 67; 6,7; 971,1868; 996,7500;4; 23,8; 23,8; 0,0; 0,0; 67,5; 19,0
2020-02-01 08:56:59; 12,9; 66; 6,7; 971,1243; 996,6875;4; 23,8; 23,8; 0,0; 0,0; 67,5; 19,0
2020-02-01 09:07:00; 13,0; 66; 6,8; 971,1243; 996,6875;4; 23,8; 23,8; 0,0; 0,0; 67,5; 19,0
2020-02-01 09:16:59; 13,1; 66; 6,9; 971,3743; 996,9375;4; 23,8; 23,8; 0,0; 0,0; 67,5; 19,0
2020-02-01 09:27:00; 13,3; 65; 6,9; 971,3743; 996,9375;4; 23,9; 23,9; 0,0; 0,0; 67,5; 19,0
2020-02-01 09:36:59; 13,5; 64; 6,8; 971,1243; 996,6875;4; 23,9; 23,9; 0,0; 0,0; 67,5; 19,0
2020-02-01 09:47:00; 13,5; 64; 6,8; 971,1243; 996,6875;4; 23,9; 23,9; 0,0; 0,0; 67,5; 19,0
2020-02-01 09:57:00; 13,8; 64; 7,1; 970,8118; 996,3750;4; 23,9; 23,9; 0,0; 0,0; 67,5; 19,0
2020-02-01 10:06:59; 14,1; 63; 7,2; 970,8118; 996,3750;4; 24,0; 24,0; 0,0; 0,0; 67,5; 19,0
2020-02-01 10:17:00; 14,2; 62; 7,0; 970,6868; 996,2500;4; 24,1; 24,1; 0,0; 0,0; 67,5; 19,0
2020-02-01 10:26:59; 14,2; 62; 7,0; 970,6868; 996,2500;4; 24,1; 24,1; 0,0; 0,0; 67,5; 19,0
2020-02-01 10:37:00; 14,3; 62; 7,1; 970,6243; 996,1875;4; 24,1; 24,1; 0,0; 0,0; 67,5; 19,0
2020-02-01 10:46:59; 14,3; 62; 7,1; 970,6243; 996,1875;4; 24,1; 24,1; 0,0; 0,0; 67,5; 19,0
2020-02-01 10:57:00; 14,8; 61; 7,4; 970,6243; 996,1875;4; 24,1; 24,1; 0,0; 0,0; 67,5; 19,0
2020-02-01 11:06:59; 15,1; 60; 7,4; 970,6243; 996,1875;4; 24,2; 24,2; 0,0; 0,0; 67,5; 19,0
2020-02-01 11:17:00; 15,1; 60; 7,4; 970,3118; 995,8750;4; 24,2; 24,2; 0,0; 0,0; 67,5; 19,0
2020-02-01 11:27:00; 15,2; 60; 7,5; 970,3118; 995,8750;4; 24,3; 24,3; 0,0; 0,0; 67,5; 19,0
2020-02-01 11:36:59; 15,3; 60; 7,6; 970,1868; 995,7500;4; 24,2; 24,2; 0,0; 0,0; 67,5; 19,0
2020-02-01 11:47:00; 15,5; 60; 7,8; 970,1868; 995,7500;4; 24,2; 24,2; 0,0; 0,0; 67,5; 19,0
2020-02-01 11:56:59; 15,7; 59; 7,7; 970,0618; 995,6250;4; 24,2; 24,2; 0,0; 0,0; 67,5; 19,0
2020-02-01 12:07:00; 15,4; 59; 7,4; 970,0618; 995,6250;4; 24,3; 24,3; 0,0; 0,0; 67,5; 19,0
2020-02-01 12:16:59; 15,3; 60; 7,6; 969,9368; 995,5000;4; 24,3; 24,3; 0,0; 0,0; 67,5; 19,0
2020-02-01 12:27:00; 15,2; 60; 7,5; 969,9368; 995,5000;4; 24,2; 24,2; 0,0; 0,0; 67,5; 19,0
2020-02-01 12:36:59; 15,2; 60; 7,5; 969,6243; 995,1875;4; 24,2; 24,2; 0,0; 0,0; 67,5; 19,0
2020-02-01 12:47:00; 15,2; 60; 7,5; 969,6243; 995,1875;4; 24,2; 24,2; 0,0; 0,0; 67,5; 19,0
2020-02-01 12:57:00; 15,1; 60; 7,4; 969,3118; 994,8750;3; 24,2; 24,2; 0,0; 0,0; 67,5; 19,0
2020-02-01 13:06:59; 15,1; 60; 7,4; 969,3118; 994,8750;3; 24,2; 24,2; 0,0; 0,0; 67,5; 19,0
2020-02-01 13:17:00; 15,0; 60; 7,3; 969,0618; 994,6250;3; 24,1; 24,1; 0,0; 0,0; 67,5; 19,0
2020-02-01 13:26:59; 14,9; 61; 7,4; 969,0618; 994,6250;3; 24,1; 24,1; 0,0; 0,0; 67,5; 19,0
2020-02-01 13:37:00; 14,9; 61; 7,4; 968,9368; 994,5000;3; 24,1; 24,1; 0,0; 0,0; 67,5; 19,0
2020-02-01 13:46:59; 14,9; 61; 7,4; 968,9368; 994,5000;3; 24,0; 24,0; 0,0; 0,0; 67,5; 19,0
2020-02-01 13:57:00; 14,7; 62; 7,5; 968,8118; 994,3750;3; 24,0; 24,0; 0,0; 0,0; 67,5; 19,0
2020-02-01 14:06:59; 14,6; 63; 7,6; 968,8118; 994,3750;3; 23,9; 23,9; 0,0; 0,0; 67,5; 19,0
2020-02-01 14:17:00; 14,7; 64; 8,0; 968,8118; 994,3750;3; 23,9; 23,9; 0,0; 0,0; 67,5; 19,0
2020-02-01 14:27:00; 14,6; 64; 7,9; 968,8118; 994,3750;3; 23,9; 23,9; 0,0; 0,0; 67,5; 19,0
2020-02-01 14:36:59; 14,4; 64; 7,7; 968,8118; 994,3750;3; 23,9; 23,9; 0,0; 0,0; 67,5; 19,0
2020-02-01 14:47:00; 14,3; 65; 7,8; 968,8118; 994,3750;3; 23,9; 23,9; 0,0; 0,0; 67,5; 19,0
2020-02-01 14:56:59; 14,3; 66; 8,0; 968,4993; 994,0625;3; 23,9; 23,9; 0,0; 0,0; 67,5; 19,0
2020-02-01 15:07:00; 13,8; 71; 8,6; 968,4993; 994,0625;3; 23,9; 23,9; 0,0; 0,0; 67,5; 19,0
2020-02-01 15:16:59; 13,2; 75; 8,9; 968,5618; 994,1250;3; 23,9; 23,9; 0,0; 0,0; 67,5; 19,0
2020-02-01 15:27:00; 13,0; 76; 8,9; 968,5618; 994,1250;3; 23,9; 23,9; 0,0; 0,0; 67,5; 19,0
2020-02-01 15:36:59; 12,7; 77; 8,8; 968,5618; 994,1250;3; 23,8; 23,8; 0,0; 0,0; 67,5; 19,0
2020-02-01 15:47:00; 12,6; 78; 8,9; 968,5618; 994,1250;3; 23,8; 23,8; 0,0; 0,0; 67,5; 19,0
2020-02-01 15:57:00; 12,3; 80; 8,9; 968,9993; 994,5625;3; 23,8; 23,8; 0,0; 0,0; 67,5; 19,0
2020-02-01 16:06:59; 12,2; 79; 8,7; 968,9993; 994,5625;3; 23,8; 23,8; 0,0; 0,0; 67,5; 19,0
2020-02-01 16:17:00; 12,1; 79; 8,6; 968,4368; 994,0000;3; 23,8; 23,8; 0,0; 0,0; 67,5; 19,0
2020-02-01 16:26:59; 12,0; 80; 8,7; 968,4368; 994,0000;3; 23,8; 23,8; 0,0; 0,0; 67,5; 19,0
2020-02-01 16:37:00; 11,9; 81; 8,7; 968,1868; 993,7500;3; 23,8; 23,8; 0,0; 0,0; 67,5; 19,0
2020-02-01 16:46:59; 11,8; 81; 8,6; 968,1868; 993,7500;3; 23,8; 23,8; 0,0; 0,0; 67,5; 19,0
2020-02-01 16:57:00; 11,7; 81; 8,5; 968,4368; 994,0000;3; 23,8; 23,8; 0,0; 0,0; 67,5; 19,0
2020-02-01 17:06:59; 11,6; 81; 8,5; 968,4368; 994,0000;3; 23,8; 23,8; 0,0; 0,0; 67,5; 19,0
2020-02-01 17:17:00; 11,5; 80; 8,2; 968,4368; 994,0000;3; 23,8; 23,8; 0,0; 0,0; 67,5; 19,0
2020-02-01 17:27:00; 11,4; 81; 8,3; 968,4368; 994,0000;3; 23,8; 23,8; 0,0; 0,0; 67,5; 19,0
2020-02-01 17:36:59; 11,3; 82; 8,3; 968,8743; 994,4375;3; 23,8; 23,8; 0,0; 0,0; 67,5; 19,0
2020-02-01 17:47:00; 11,2; 82; 8,2; 968,8743; 994,4375;3; 23,8; 23,8; 0,0; 0,0; 67,5; 19,0
2020-02-01 17:56:59; 11,1; 83; 8,3; 968,9993; 994,5625;3; 23,8; 23,8; 0,0; 0,0; 67,5; 19,0
2020-02-01 18:07:00; 11,1; 83; 8,3; 968,9993; 994,5625;3; 23,8; 23,8; 0,0; 0,0; 67,5; 19,0
2020-02-01 18:16:59; 11,0; 83; 8,2; 969,3118; 994,8750;3; 23,7; 23,7; 0,0; 0,0; 67,5; 19,0
2020-02-01 18:27:00; 11,0; 82; 8,0; 969,3118; 994,8750;3; 23,7; 23,7; 0,0; 0,0; 67,5; 19,0
2020-02-01 18:36:59; 11,0; 82; 8,0; 969,6243; 995,1875;3; 23,7; 23,7; 0,0; 0,0; 67,5; 19,0
2020-02-01 18:47:00; 10,9; 82; 7,9; 969,6243; 995,1875;3; 23,7; 23,7; 0,0; 0,0; 67,5; 19,0
2020-02-01 18:57:00; 10,9; 82; 7,9; 969,6243; 995,1875;3; 23,7; 23,7; 0,0; 0,0; 67,5; 19,0
2020-02-01 19:06:59; 10,9; 82; 7,9; 969,6243; 995,1875;3; 23,7; 23,7; 0,0; 0,0; 67,5; 19,0
2020-02-01 19:17:00; 10,9; 81; 7,8; 969,6868; 995,2500;3; 23,7; 23,7; 0,0; 0,0; 67,5; 19,0
2020-02-01 19:26:59; 10,9; 80; 7,6; 969,6868; 995,2500;3; 23,7; 23,7; 0,0; 0,0; 67,5; 19,0
2020-02-01 19:37:00; 10,8; 80; 7,5; 969,8743; 995,4375;3; 23,7; 23,7; 0,0; 0,0; 67,5; 19,0
2020-02-01 19:46:59; 10,8; 80; 7,5; 969,8743; 995,4375;3; 23,7; 23,7; 0,0; 0,0; 67,5; 19,0
2020-02-01 19:57:00; 10,7; 80; 7,4; 969,8743; 995,4375;3; 23,7; 23,7; 0,0; 0,0; 67,5; 19,0
2020-02-01 20:06:59; 10,8; 79; 7,3; 969,8743; 995,4375;3; 23,7; 23,7; 0,0; 0,0; 67,5; 19,0
2020-02-01 20:17:00; 10,8; 79; 7,3; 969,9368; 995,5000;3; 23,7; 23,7; 0,0; 0,0; 67,5; 19,0
2020-02-01 20:27:00; 10,7; 78; 7,0; 969,9368; 995,5000;3; 23,7; 23,7; 0,0; 0,0; 67,5; 19,0
2020-02-01 20:36:59; 10,7; 78; 7,0; 970,1868; 995,7500;3; 23,7; 23,7; 0,0; 0,0; 67,5; 19,0
2020-02-01 20:47:00; 10,6; 77; 6,7; 970,1868; 995,7500;3; 23,7; 23,7; 0,0; 0,0; 67,5; 19,0
2020-02-01 20:56:59; 10,5; 78; 6,8; 970,3743; 995,9375;3; 23,6; 23,6; 0,0; 0,0; 67,5; 19,0
2020-02-01 21:07:00; 10,4; 78; 6,7; 970,3743; 995,9375;3; 23,6; 23,6; 0,0; 0,0; 67,5; 19,0
2020-02-01 21:16:59; 10,3; 79; 6,8; 970,6243; 996,1875;3; 23,6; 23,6; 0,0; 0,0; 67,5; 19,0
2020-02-01 21:27:00; 10,2; 79; 6,7; 970,6243; 996,1875;3; 23,6; 23,6; 0,0; 0,0; 67,5; 19,0
2020-02-01 21:36:59; 10,1; 79; 6,6; 970,6243; 996,1875;3; 23,6; 23,6; 0,0; 0,0; 67,5; 19,0
2020-02-01 21:47:00; 10,2; 78; 6,5; 970,6243; 996,1875;3; 23,6; 23,6; 0,0; 0,0; 67,5; 19,0
2020-02-01 21:57:00; 10,2; 78; 6,5; 970,5618; 996,1250;3; 23,6; 23,6; 0,0; 0,0; 67,5; 19,0
2020-02-01 22:06:59; 10,3; 77; 6,4; 970,5618; 996,1250;3; 23,6; 23,6; 0,0; 0,0; 67,5; 19,0
2020-02-01 22:17:00; 10,3; 75; 6,1; 970,6868; 996,2500;3; 23,6; 23,6; 0,0; 0,0; 67,5; 19,0
2020-02-01 22:26:59; 10,2; 73; 5,6; 970,6868; 996,2500;3; 23,6; 23,6; 0,0; 0,0; 67,5; 19,0
2020-02-01 22:37:00; 10,0; 73; 5,4; 970,9368; 996,5000;3; 23,6; 23,6; 0,0; 0,0; 67,5; 19,0
2020-02-01 22:46:59; 9,9; 73; 5,3; 970,9368; 996,5000;3; 23,6; 23,6; 0,0; 0,0; 67,5; 19,0
2020-02-01 22:57:00; 9,8; 73; 5,2; 971,1868; 996,7500;3; 23,6; 23,6; 0,0; 0,0; 67,5; 19,0
2020-02-01 23:06:59; 9,7; 73; 5,1; 971,1868; 996,7500;3; 23,6; 23,6; 0,0; 0,0; 67,5; 19,0
2020-02-01 23:17:00; 9,5; 74; 5,1; 971,6868; 997,2500;4; 23,6; 23,6; 0,0; 0,0; 67,5; 19,0
2020-02-01 23:27:00; 8,7; 77; 4,9; 971,6868; 997,2500;4; 23,6; 23,6; 0,0; 0,0; 67,5; 19,0
2020-02-01 23:36:59; 8,4; 79; 5,0; 972,0618; 997,6250;4; 23,6; 23,6; 0,0; 0,0; 67,5; 19,0
2020-02-01 23:47:00; 8,2; 80; 5,0; 972,0618; 997,6250;4; 23,6; 23,6; 0,0; 0,0; 67,5; 19,0
2020-02-01 23:56:59; 8,0; 79; 4,6; 972,3743; 997,9375;4; 23,6; 23,6; 0,0; 0,0; 67,5; 19,0
2020-02-02 00:07:00; 7,9; 78; 4,3; 972,3743; 997,9375;4; 23,6; 23,6; 0,0; 0,0; 67,5; 19,0
2020-02-02 00:16:59; 7,9; 77; 4,1; 972,6868; 998,2500;4; 23,6; 23,6; 0,0; 0,0; 67,5; 19,0
2020-02-02 00:27:00; 7,9; 76; 3,9; 972,6868; 998,2500;4; 23,6; 23,6; 0,0; 0,0; 67,5; 19,0
2020-02-02 00:36:59; 7,9; 75; 3,7; 972,7493; 998,3125;4; 23,6; 23,6; 0,0; 0,0; 67,5; 19,0
2020-02-02 00:47:00; 7,9; 73; 3,4; 972,7493; 998,3125;4; 23,6; 23,6; 0,0; 0,0; 67,5; 19,0
2020-02-02 00:57:00; 7,9; 72; 3,2; 973,1243; 998,6875;4; 23,6; 23,6; 0,0; 0,0; 67,5; 19,0
2020-02-02 01:06:59; 7,9; 71; 3,0; 973,1243; 998,6875;4; 23,6; 23,6; 0,0; 0,0; 67,5; 19,0
2020-02-02 01:17:00; 7,9; 70; 2,8; 973,5618; 999,1250;4; 23,6; 23,6; 0,0; 0,0; 67,5; 19,0
2020-02-02 01:26:59; 7,9; 70; 2,8; 973,5618; 999,1250;4; 23,6; 23,6; 0,0; 0,0; 67,5; 19,0
2020-02-02 01:37:00; 7,7; 71; 2,8; 973,7493; 999,3125;4; 23,6; 23,6; 0,0; 0,0; 67,5; 19,0
2020-02-02 01:46:59; 7,5; 71; 2,6; 973,7493; 999,3125;4; 23,6; 23,6; 0,0; 0,0; 67,5; 19,0
2020-02-02 01:57:00; 7,4; 71; 2,5; 973,9368; 999,5000;4; 23,6; 23,6; 0,0; 0,0; 67,5; 19,0
2020-02-02 02:06:59; 7,2; 72; 2,5; 973,9368; 999,5000;4; 23,6; 23,6; 0,0; 0,0; 67,5; 19,0
2020-02-02 02:17:00; 7,1; 72; 2,4; 973,9368; 999,5000;4; 23,6; 23,6; 0,0; 0,0; 67,5; 19,0
2020-02-02 02:27:00; 7,0; 72; 2,3; 973,9368; 999,5000;4; 23,6; 23,6; 0,0; 0,0; 67,5; 19,0
2020-02-02 02:36:59; 7,1; 72; 2,4; 973,9993; 999,5625;4; 23,6; 23,6; 0,0; 0,0; 67,5; 19,0
2020-02-02 02:47:00; 6,9; 72; 2,2; 973,9993; 999,5625;4; 23,6; 23,6; 0,0; 0,0; 67,5; 19,0
2020-02-02 02:56:59; 6,9; 72; 2,2; 974,0618; 999,6250;4; 23,6; 23,6; 0,0; 0,0; 67,5; 19,0
2020-02-02 03:07:00; 6,8; 72; 2,1; 974,0618; 999,6250;4; 23,6; 23,6; 0,0; 0,0; 67,5; 19,0
2020-02-02 03:16:59; 6,7; 73; 2,2; 974,2493; 999,8125;4; 23,6; 23,6; 0,0; 0,0; 67,5; 19,0
2020-02-02 03:27:00; 6,8; 73; 2,3; 974,2493; 999,8125;4; 23,6; 23,6; 0,0; 0,0; 67,5; 19,0
2020-02-02 03:36:59; 6,8; 73; 2,3; 974,3118; 999,8750;4; 23,6; 23,6; 0,0; 0,0; 67,5; 19,0
2020-02-02 03:47:00; 6,9; 73; 2,4; 974,3118; 999,8750;4; 23,6; 23,6; 0,0; 0,0; 67,5; 19,0
2020-02-02 03:57:00; 6,9; 71; 2,0; 974,6243;1000,1875;4; 23,6; 23,6; 0,0; 0,0; 67,5; 19,0
2020-02-02 04:06:59; 7,1; 72; 2,4; 974,6243;1000,1875;4; 23,6; 23,6; 0,0; 0,0; 67,5; 19,0
2020-02-02 04:17:00; 7,1; 73; 2,6; 974,8118;1000,3750;4; 23,6; 23,6; 0,0; 0,0; 67,5; 19,0
2020-02-02 04:26:59; 6,9; 74; 2,6; 974,8118;1000,3750;4; 23,6; 23,6; 0,0; 0,0; 67,5; 19,0
2020-02-02 04:37:00; 6,8; 75; 2,7; 974,8118;1000,3750;4; 23,6; 23,6; 0,0; 0,0; 67,5; 19,0
2020-02-02 04:46:59; 6,7; 76; 2,8; 974,8118;1000,3750;4; 23,6; 23,6; 0,0; 0,0; 67,5; 19,0
2020-02-02 04:57:00; 6,7; 77; 3,0; 974,7493;1000,3125;4; 23,5; 23,5; 0,0; 0,0; 67,5; 19,0
2020-02-02 05:06:59; 6,7; 77; 3,0; 974,7493;1000,3125;4; 23,5; 23,5; 0,0; 0,0; 67,5; 19,0
2020-02-02 05:17:00; 6,7; 77; 3,0; 974,6243;1000,1875;4; 23,6; 23,6; 0,0; 0,0; 67,5; 19,0
2020-02-02 05:27:00; 6,7; 76; 2,8; 974,6243;1000,1875;4; 23,5; 23,5; 0,0; 0,0; 67,5; 19,0
2020-02-02 05:36:59; 6,8; 75; 2,7; 974,6243;1000,1875;4; 23,5; 23,5; 0,0; 0,0; 67,5; 19,0
2020-02-02 05:47:00; 6,8; 75; 2,7; 974,6243;1000,1875;4; 23,6; 23,6; 0,0; 0,0; 67,5; 19,0
2020-02-02 05:56:59; 6,8; 74; 2,5; 974,7493;1000,3125;4; 23,5; 23,5; 0,0; 0,0; 67,5; 19,0
2020-02-02 06:07:00; 6,9; 74; 2,6; 974,7493;1000,3125;4; 23,5; 23,5; 0,0; 0,0; 67,5; 19,0
2020-02-02 06:16:59; 6,9; 73; 2,4; 974,8743;1000,4375;4; 23,6; 23,6; 0,0; 0,0; 67,5; 19,0
2020-02-02 06:27:00; 6,8; 74; 2,5; 974,8743;1000,4375;4; 23,5; 23,5; 0,0; 0,0; 67,5; 19,0
2020-02-02 06:36:59; 6,8; 75; 2,7; 974,9993;1000,5625;4; 23,6; 23,6; 0,0; 0,0; 67,5; 19,0
2020-02-02 06:47:00; 6,7; 75; 2,6; 974,9993;1000,5625;4; 23,5; 23,5; 0,0; 0,0; 67,5; 19,0
2020-02-02 06:57:00; 6,7; 76; 2,8; 975,1243;1000,6875;4; 23,5; 23,5; 0,0; 0,0; 67,5; 19,0
2020-02-02 07:06:59; 6,6; 76; 2,7; 975,1243;1000,6875;4; 23,6; 23,6; 0,0; 0,0; 67,5; 19,0
2020-02-02 07:17:00; 6,7; 77; 3,0; 975,1243;1000,6875;4; 23,5; 23,5; 0,0; 0,0; 67,5; 19,0
2020-02-02 07:26:59; 6,7; 76; 2,8; 975,1243;1000,6875;4; 23,5; 23,5; 0,0; 0,0; 67,5; 19,0
2020-02-02 07:37:00; 6,8; 75; 2,7; 975,1868;1000,7500;4; 23,5; 23,5; 0,0; 0,0; 67,5; 19,0
2020-02-02 07:46:59; 6,9; 74; 2,6; 975,1868;1000,7500;4; 23,5; 23,5; 0,0; 0,0; 67,5; 19,0
2020-02-02 07:57:00; 7,1; 74; 2,8; 975,1243;1000,6875;4; 23,5; 23,5; 0,0; 0,0; 67,5; 19,0
2020-02-02 08:06:59; 7,2; 74; 2,9; 975,1243;1000,6875;4; 23,6; 23,6; 0,0; 0,0; 67,5; 19,0
2020-02-02 08:17:00; 7,4; 72; 2,7; 974,9993;1000,5625;4; 23,8; 23,8; 0,0; 0,0; 67,5; 19,0
2020-02-02 08:27:00; 7,7; 71; 2,8; 974,9993;1000,5625;4; 24,1; 24,1; 0,0; 0,0; 67,5; 19,0
2020-02-02 08:36:59; 7,8; 70; 2,7; 975,3118;1000,8750;4; 24,1; 24,1; 0,0; 0,0; 67,5; 19,0
2020-02-02 08:47:00; 7,9; 70; 2,8; 975,3118;1000,8750;4; 24,2; 24,2; 0,0; 0,0; 67,5; 19,0
2020-02-02 08:56:59; 8,2; 68; 2,6; 975,6243;1001,1875;4; 24,2; 24,2; 0,0; 0,0; 67,5; 19,0
2020-02-02 09:07:00; 8,3; 68; 2,7; 975,6243;1001,1875;4; 24,2; 24,2; 0,0; 0,0; 67,5; 19,0
2020-02-02 09:16:59; 8,5; 67; 2,7; 975,4993;1001,0625;4; 24,2; 24,2; 0,0; 0,0; 67,5; 19,0
2020-02-02 09:27:00; 8,7; 67; 2,9; 975,4993;1001,0625;4; 24,3; 24,3; 0,0; 0,0; 67,5; 19,0
2020-02-02 09:36:59; 8,8; 66; 2,8; 975,4993;1001,0625;4; 24,2; 24,2; 0,0; 0,0; 67,5; 19,0
2020-02-02 09:47:00; 8,9; 65; 2,7; 975,4993;1001,0625;4; 24,1; 24,1; 0,0; 0,0; 67,5; 19,0
2020-02-02 09:57:00; 9,0; 65; 2,8; 975,5618;1001,1250;4; 24,1; 24,1; 0,0; 0,0; 67,5; 19,0
2020-02-02 10:06:59; 9,2; 65; 3,0; 975,5618;1001,1250;4; 24,1; 24,1; 0,0; 0,0; 67,5; 19,0
2020-02-02 10:17:00; 9,2; 64; 2,7; 975,3743;1000,9375;4; 24,1; 24,1; 0,0; 0,0; 67,5; 19,0
2020-02-02 10:26:59; 9,1; 64; 2,6; 975,3743;1000,9375;4; 24,1; 24,1; 0,0; 0,0; 67,5; 19,0
2020-02-02 10:37:00; 9,1; 64; 2,6; 975,2493;1000,8125;4; 24,0; 24,0; 0,0; 0,0; 67,5; 19,0
2020-02-02 10:46:59; 9,3; 64; 2,8; 975,2493;1000,8125;4; 24,0; 24,0; 0,0; 0,0; 67,5; 19,0
2020-02-02 10:57:00; 9,4; 64; 2,9; 974,9993;1000,5625;4; 23,9; 23,9; 0,0; 0,0; 67,5; 19,0
2020-02-02 11:06:59; 9,4; 63; 2,7; 974,9993;1000,5625;4; 23,9; 23,9; 0,0; 0,0; 67,5; 19,0
2020-02-02 11:17:00; 9,3; 63; 2,6; 974,6243;1000,1875;4; 23,9; 23,9; 0,0; 0,0; 67,5; 19,0
2020-02-02 11:27:00; 9,2; 63; 2,5; 974,6243;1000,1875;4; 23,9; 23,9; 0,0; 0,0; 67,5; 19,0
2020-02-02 11:36:59; 9,2; 63; 2,5; 974,4368;1000,0000;4; 23,9; 23,9; 0,0; 0,0; 67,5; 19,0
2020-02-02 11:47:00; 9,3; 64; 2,8; 974,4368;1000,0000;4; 23,8; 23,8; 0,0; 0,0; 67,5; 19,0
2020-02-02 11:56:59; 9,4; 63; 2,7; 973,8743; 999,4375;4; 23,8; 23,8; 0,0; 0,0; 67,5; 19,0
2020-02-02 12:07:00; 9,3; 63; 2,6; 973,8743; 999,4375;4; 23,8; 23,8; 0,0; 0,0; 67,5; 19,0
2020-02-02 12:16:59; 9,2; 64; 2,7; 973,8118; 999,3750;4; 23,8; 23,8; 0,0; 0,0; 67,5; 19,0
2020-02-02 12:27:00; 9,1; 64; 2,6; 973,8118; 999,3750;4; 23,8; 23,8; 0,0; 0,0; 67,5; 19,0
2020-02-02 12:36:59; 9,0; 66; 3,0; 973,2493; 998,8125;4; 23,8; 23,8; 0,0; 0,0; 67,5; 19,0
2020-02-02 12:47:00; 8,8; 67; 3,0; 973,2493; 998,8125;4; 23,8; 23,8; 0,0; 0,0; 67,5; 19,0
2020-02-02 12:57:00; 8,5; 67; 2,7; 973,1243; 998,6875;4; 23,8; 23,8; 0,0; 0,0; 67,5; 19,0
2020-02-02 13:06:59; 8,3; 69; 2,9; 973,1243; 998,6875;4; 23,8; 23,8; 0,0; 0,0; 67,5; 19,0
2020-02-02 13:17:00; 8,3; 70; 3,1; 972,8743; 998,4375;4; 23,8; 23,8; 0,0; 0,0; 67,5; 19,0
2020-02-02 13:26:59; 8,0; 72; 3,3; 972,8743; 998,4375;4; 23,7; 23,7; 0,0; 0,0; 67,5; 19,0
2020-02-02 13:37:00; 7,9; 73; 3,4; 972,6243; 998,1875;4; 23,7; 23,7; 0,0; 0,0; 67,5; 19,0
2020-02-02 13:46:59; 7,9; 74; 3,6; 972,6243; 998,1875;4; 23,7; 23,7; 0,0; 0,0; 67,5; 19,0
2020-02-02 13:57:00; 7,9; 75; 3,7; 972,1243; 997,6875;4; 23,7; 23,7; 0,0; 0,0; 67,5; 19,0
2020-02-02 14:06:59; 8,0; 76; 4,0; 972,1243; 997,6875;4; 23,7; 23,7; 0,0; 0,0; 67,5; 19,0
2020-02-02 14:17:00; 7,8; 76; 3,8; 971,6868; 997,2500;4; 23,7; 23,7; 0,0; 0,0; 67,5; 19,0
2020-02-02 14:27:00; 7,8; 77; 4,0; 971,6868; 997,2500;4; 23,7; 23,7; 0,0; 0,0; 67,5; 19,0
2020-02-02 14:36:59; 7,9; 78; 4,3; 971,1243; 996,6875;4; 23,7; 23,7; 0,0; 0,0; 67,5; 19,0
2020-02-02 14:47:00; 7,8; 78; 4,2; 971,1243; 996,6875;4; 23,7; 23,7; 0,0; 0,0; 67,5; 19,0
2020-02-02 14:56:59; 7,9; 79; 4,5; 970,6868; 996,2500;4; 23,7; 23,7; 0,0; 0,0; 67,5; 19,0
2020-02-02 15:07:00; 7,5; 79; 4,1; 970,6868; 996,2500;4; 23,7; 23,7; 0,0; 0,0; 67,5; 19,0
2020-02-02 15:16:59; 7,4; 80; 4,2; 970,8118; 996,3750;4; 23,6; 23,6; 0,0; 0,0; 67,5; 19,0
2020-02-02 15:27:00; 7,4; 81; 4,4; 970,8118; 996,3750;4; 23,6; 23,6; 0,0; 0,0; 67,5; 19,0
2020-02-02 15:36:59; 7,2; 81; 4,2; 970,7493; 996,3125;4; 23,6; 23,6; 0,0; 0,0; 67,5; 19,0
2020-02-02 15:47:00; 7,0; 82; 4,1; 970,7493; 996,3125;4; 23,6; 23,6; 0,0; 0,0; 67,5; 19,0
2020-02-02 15:57:00; 6,8; 84; 4,3; 970,1868; 995,7500;4; 23,6; 23,6; 0,0; 0,0; 67,5; 19,0
2020-02-02 16:06:59; 6,7; 84; 4,2; 970,1868; 995,7500;4; 23,6; 23,6; 0,0; 0,0; 67,5; 19,0
2020-02-02 16:17:00; 6,5; 85; 4,2; 970,4368; 996,0000;4; 23,6; 23,6; 0,0; 0,0; 67,5; 19,0
2020-02-02 16:26:59; 6,3; 86; 4,1; 970,4368; 996,0000;4; 23,6; 23,6; 0,0; 0,0; 67,5; 19,0
2020-02-02 16:37:00; 6,2; 86; 4,0; 970,3118; 995,8750;4; 23,6; 23,6; 0,0; 0,0; 67,5; 19,0
2020-02-02 16:46:59; 6,2; 87; 4,2; 970,3118; 995,8750;4; 23,6; 23,6; 0,0; 0,0; 67,5; 19,0
2020-02-02 16:57:00; 6,1; 87; 4,1; 970,2493; 995,8125;4; 23,6; 23,6; 0,0; 0,0; 67,5; 19,0
2020-02-02 17:06:59; 6,2; 87; 4,2; 970,2493; 995,8125;4; 23,6; 23,6; 0,0; 0,0; 67,5; 19,0
2020-02-02 17:17:00; 6,2; 87; 4,2; 970,2493; 995,8125;4; 23,6; 23,6; 0,0; 0,0; 67,5; 19,0
2020-02-02 17:27:00; 6,1; 87; 4,1; 970,2493; 995,8125;4; 23,6; 23,6; 0,0; 0,0; 67,5; 19,0
2020-02-02 17:36:59; 6,2; 87; 4,2; 970,4368; 996,0000;4; 23,6; 23,6; 0,0; 0,0; 67,5; 19,0
2020-02-02 17:47:00; 6,2; 87; 4,2; 970,4368; 996,0000;4; 23,6; 23,6; 0,0; 0,0; 67,5; 19,0
2020-02-02 17:56:59; 6,1; 87; 4,1; 970,1243; 995,6875;4; 23,6; 23,6; 0,0; 0,0; 67,5; 19,0
2020-02-02 18:07:00; 6,0; 87; 4,0; 970,1243; 995,6875;4; 23,6; 23,6; 0,0; 0,0; 67,5; 19,0
2020-02-02 18:16:59; 5,9; 88; 4,1; 971,0618; 996,6250;4; 23,6; 23,6; 0,0; 0,0; 67,5; 19,0
2020-02-02 18:27:00; 5,9; 88; 4,1; 971,0618; 996,6250;4; 23,6; 23,6; 0,0; 0,0; 67,5; 19,0
2020-02-02 18:36:59; 5,9; 88; 4,1; 970,5618; 996,1250;4; 23,6; 23,6; 0,0; 0,0; 67,5; 19,0
2020-02-02 18:47:00; 5,9; 88; 4,1; 970,5618; 996,1250;4; 23,6; 23,6; 0,0; 0,0; 67,5; 19,0
2020-02-02 18:57:00; 5,9; 88; 4,1; 970,9368; 996,5000;4; 23,6; 23,6; 0,0; 0,0; 67,5; 19,0
2020-02-02 19:06:59; 6,0; 88; 4,2; 970,9368; 996,5000;4; 23,6; 23,6; 0,0; 0,0; 67,5; 19,0
2020-02-02 19:17:00; 6,0; 88; 4,2; 971,2493; 996,8125;4; 23,6; 23,6; 0,0; 0,0; 67,5; 19,0
2020-02-02 19:26:59; 6,0; 87; 4,0; 971,2493; 996,8125;4; 23,6; 23,6; 0,0; 0,0; 67,5; 19,0
2020-02-02 19:37:00; 6,0; 88; 4,2; 970,9368; 996,5000;4; 23,6; 23,6; 0,0; 0,0; 67,5; 19,0
2020-02-02 19:46:59; 6,2; 89; 4,5; 970,9368; 996,5000;4; 23,6; 23,6; 0,0; 0,0; 67,5; 19,0
2020-02-02 19:57:00; 6,8; 90; 5,3; 971,3743; 996,9375;4; 23,6; 23,6; 0,0; 0,0; 67,5; 19,0
2020-02-02 20:06:59; 7,4; 88; 5,5; 971,3743; 996,9375;4; 23,6; 23,6; 0,0; 0,0; 67,5; 19,0
2020-02-02 20:17:00; 7,7; 87; 5,7; 971,3743; 996,9375;4; 23,6; 23,6; 0,0; 0,0; 67,5; 19,0
2020-02-02 20:27:00; 8,2; 86; 6,0; 971,3743; 996,9375;4; 23,6; 23,6; 0,0; 0,0; 67,5; 19,0
2020-02-02 20:36:59; 8,5; 85; 6,1; 971,3743; 996,9375;4; 23,6; 23,6; 0,0; 0,0; 67,5; 19,0
2020-02-02 20:47:00; 8,5; 84; 6,0; 971,3743; 996,9375;4; 23,6; 23,6; 0,0; 0,0; 67,5; 19,0
2020-02-02 20:56:59; 8,7; 84; 6,1; 971,4993; 997,0625;4; 23,6; 23,6; 0,0; 0,0; 67,5; 19,0
2020-02-02 21:07:00; 8,7; 84; 6,1; 971,4993; 997,0625;4; 23,6; 23,6; 0,0; 0,0; 67,5; 19,0
2020-02-02 21:16:59; 8,6; 84; 6,0; 971,6868; 997,2500;4; 23,6; 23,6; 0,0; 0,0; 67,5; 19,0
2020-02-02 21:27:00; 8,6; 84; 6,0; 971,6868; 997,2500;4; 23,6; 23,6; 0,0; 0,0; 67,5; 19,0
2020-02-02 21:36:59; 8,7; 84; 6,1; 971,6243; 997,1875;4; 23,6; 23,6; 0,0; 0,0; 67,5; 19,0
2020-02-02 21:47:00; 8,7; 84; 6,1; 971,6243; 997,1875;4; 23,6; 23,6; 0,0; 0,0; 67,5; 19,0
2020-02-02 21:57:00; 8,6; 84; 6,0; 971,8743; 997,4375;4; 23,6; 23,6; 0,0; 0,0; 67,5; 19,0
2020-02-02 22:06:59; 8,5; 84; 6,0; 971,8743; 997,4375;4; 23,5; 23,5; 0,0; 0,0; 67,5; 19,0
2020-02-02 22:17:00; 8,5; 84; 6,0; 971,8118; 997,3750;4; 23,6; 23,6; 0,0; 0,0; 67,5; 19,0
2020-02-02 22:26:59; 8,7; 82; 5,8; 971,8118; 997,3750;4; 23,5; 23,5; 0,0; 0,0; 67,5; 19,0
2020-02-02 22:37:00; 8,8; 81; 5,7; 971,8118; 997,3750;4; 23,5; 23,5; 0,0; 0,0; 67,5; 19,0
2020-02-02 22:46:59; 8,9; 81; 5,8; 971,8118; 997,3750;4; 23,6; 23,6; 0,0; 0,0; 67,5; 19,0
2020-02-02 22:57:00; 9,0; 79; 5,6; 971,9993; 997,5625;4; 23,5; 23,5; 0,0; 0,0; 67,5; 19,0
2020-02-02 23:06:59; 9,1; 79; 5,7; 971,9993; 997,5625;4; 23,6; 23,6; 0,0; 0,0; 67,5; 19,0
2020-02-02 23:17:00; 9,3; 78; 5,7; 972,1868; 997,7500;4; 23,5; 23,5; 0,0; 0,0; 67,5; 19,0
2020-02-02 23:27:00; 9,5; 78; 5,9; 972,1868; 997,7500;4; 23,5; 23,5; 0,0; 0,0; 67,5; 19,0
2020-02-02 23:36:59; 9,4; 80; 6,1; 972,5618; 998,1250;4; 23,6; 23,6; 0,0; 0,0; 67,5; 19,0
2020-02-02 23:47:00; 9,0; 80; 5,7; 972,5618; 998,1250;4; 23,5; 23,5; 0,0; 0,0; 67,5; 19,0
2020-02-02 23:56:59; 9,3; 79; 5,8; 972,5618; 998,1250;4; 23,5; 23,5; 0,0; 0,0; 67,5; 19,0
2020-02-03 00:07:00; 9,3; 78; 5,7; 972,5618; 998,1250;4; 23,6; 23,6; 0,0; 0,0; 67,5; 19,0
2020-02-03 00:16:59; 9,5; 76; 5,5; 972,6243; 998,1875;4; 23,5; 23,5; 0,0; 0,0; 67,5; 19,0
2020-02-03 00:27:00; 9,5; 76; 5,5; 972,6243; 998,1875;4; 23,5; 23,5; 0,0; 0,0; 67,5; 19,0
2020-02-03 00:36:59; 9,5; 76; 5,5; 972,6243; 998,1875;4; 23,5; 23,5; 0,0; 0,0; 67,5; 19,0
2020-02-03 00:47:00; 9,5; 76; 5,5; 972,6243; 998,1875;4; 23,5; 23,5; 0,0; 0,0; 67,5; 19,0
2020-02-03 00:57:00; 9,4; 77; 5,6; 972,6243; 998,1875;4; 23,5; 23,5; 0,0; 0,0; 67,5; 19,0
2020-02-03 01:06:59; 9,2; 78; 5,6; 972,6243; 998,1875;4; 23,5; 23,5; 0,0; 0,0; 67,5; 19,0
2020-02-03 01:17:00; 9,0; 79; 5,6; 972,6243; 998,1875;4; 23,5; 23,5; 0,0; 0,0; 67,5; 19,0
2020-02-03 01:26:59; 8,9; 79; 5,5; 972,6243; 998,1875;4; 23,5; 23,5; 0,0; 0,0; 67,5; 19,0
2020-02-03 01:37:00; 8,7; 79; 5,3; 972,6868; 998,2500;4; 23,4; 23,4; 0,0; 0,0; 67,5; 19,0
2020-02-03 01:46:59; 8,7; 80; 5,4; 972,6868; 998,2500;4; 23,4; 23,4; 0,0; 0,0; 67,5; 19,0
2020-02-03 01:57:00; 8,5; 81; 5,4; 972,8743; 998,4375;4; 23,5; 23,5; 0,0; 0,0; 67,5; 19,0
2020-02-03 02:06:59; 8,3; 83; 5,6; 972,8743; 998,4375;4; 23,4; 23,4; 0,0; 0,0; 67,5; 19,0
2020-02-03 02:17:00; 8,2; 84; 5,7; 972,9368; 998,5000;4; 23,5; 23,5; 0,0; 0,0; 67,5; 19,0
2020-02-03 02:27:00; 8,0; 84; 5,5; 972,9368; 998,5000;4; 23,4; 23,4; 0,0; 0,0; 67,5; 19,0
2020-02-03 02:36:59; 7,9; 85; 5,5; 972,6868; 998,2500;4; 23,4; 23,4; 0,0; 0,0; 67,5; 19,0
2020-02-03 02:47:00; 7,8; 86; 5,6; 972,6868; 998,2500;4; 23,4; 23,4; 0,0; 0,0; 67,5; 19,0
2020-02-03 02:56:59; 7,6; 86; 5,4; 972,9368; 998,5000;4; 23,4; 23,4; 0,0; 0,0; 67,5; 19,0
2020-02-03 03:07:00; 7,5; 84; 5,0; 972,9368; 998,5000;4; 23,5; 23,5; 0,0; 0,0; 67,5; 19,0
2020-02-03 03:16:59; 7,3; 84; 4,8; 972,7493; 998,3125;4; 23,4; 23,4; 0,0; 0,0; 67,5; 19,0
2020-02-03 03:27:00; 7,1; 85; 4,7; 972,7493; 998,3125;4; 23,4; 23,4; 0,0; 0,0; 67,5; 19,0
2020-02-03 03:36:59; 7,1; 85; 4,7; 972,6868; 998,2500;4; 23,4; 23,4; 0,0; 0,0; 67,5; 19,0
2020-02-03 03:47:00; 7,2; 86; 5,0; 972,6868; 998,2500;4; 23,4; 23,4; 0,0; 0,0; 67,5; 19,0
2020-02-03 03:57:00; 7,2; 86; 5,0; 972,7493; 998,3125;4; 23,4; 23,4; 0,0; 0,0; 67,5; 19,0
2020-02-03 04:06:59; 7,3; 85; 4,9; 972,7493; 998,3125;4; 23,4; 23,4; 0,0; 0,0; 67,5; 19,0
2020-02-03 04:17:00; 7,3; 85; 4,9; 972,9368; 998,5000;4; 23,4; 23,4; 0,0; 0,0; 67,5; 19,0
2020-02-03 04:26:59; 7,2; 86; 5,0; 972,9368; 998,5000;4; 23,5; 23,5; 0,0; 0,0; 67,5; 19,0
2020-02-03 04:37:00; 7,1; 86; 4,9; 972,9368; 998,5000;4; 23,5; 23,5; 0,0; 0,0; 67,5; 19,0
2020-02-03 04:46:59; 7,0; 87; 5,0; 972,9368; 998,5000;4; 23,5; 23,5; 0,0; 0,0; 67,5; 19,0
2020-02-03 04:57:00; 7,0; 86; 4,8; 973,0618; 998,6250;4; 23,5; 23,5; 0,0; 0,0; 67,5; 19,0
2020-02-03 05:06:59; 7,0; 85; 4,7; 973,0618; 998,6250;4; 23,4; 23,4; 0,0; 0,0; 67,5; 19,0
2020-02-03 05:17:00; 6,9; 86; 4,7; 972,5618; 998,1250;4; 23,5; 23,5; 0,0; 0,0; 67,5; 19,0
2020-02-03 05:27:00; 6,9; 86; 4,7; 972,5618; 998,1250;4; 23,5; 23,5; 0,0; 0,0; 67,5; 19,0
2020-02-03 05:36:59; 6,9; 88; 5,1; 972,8743; 998,4375;4; 23,4; 23,4; 0,0; 0,0; 67,5; 19,0
2020-02-03 05:47:00; 6,7; 85; 4,4; 972,8743; 998,4375;4; 23,5; 23,5; 0,0; 0,0; 67,5; 19,0
2020-02-03 05:56:59; 6,7; 85; 4,4; 973,3118; 998,8750;4; 23,5; 23,5; 0,0; 0,0; 67,5; 19,0
2020-02-03 06:07:00; 6,6; 86; 4,4; 973,3118; 998,8750;4; 23,5; 23,5; 0,0; 0,0; 67,5; 19,0
2020-02-03 06:16:59; 6,5; 86; 4,3; 973,2493; 998,8125;4; 23,5; 23,5; 0,0; 0,0; 67,5; 19,0
2020-02-03 06:27:00; 6,6; 85; 4,3; 973,2493; 998,8125;4; 23,5; 23,5; 0,0; 0,0; 67,5; 19,0
2020-02-03 06:36:59; 6,6; 85; 4,3; 973,4368; 999,0000;4; 23,5; 23,5; 0,0; 0,0; 67,5; 19,0
2020-02-03 06:47:00; 6,6; 86; 4,4; 973,4368; 999,0000;4; 23,5; 23,5; 0,0; 0,0; 67,5; 19,0
2020-02-03 06:57:00; 6,7; 86; 4,5; 973,1868; 998,7500;4; 23,5; 23,5; 0,0; 0,0; 67,5; 19,0
2020-02-03 07:06:59; 6,7; 87; 4,7; 973,1868; 998,7500;4; 23,5; 23,5; 0,0; 0,0; 67,5; 19,0
2020-02-03 07:17:00; 6,7; 87; 4,7; 973,9368; 999,5000;4; 23,4; 23,4; 0,0; 0,0; 67,5; 19,0
2020-02-03 07:26:59; 6,3; 85; 4,0; 973,9368; 999,5000;4; 23,4; 23,4; 0,0; 0,0; 67,5; 19,0
2020-02-03 07:37:00; 6,2; 86; 4,0; 974,0618; 999,6250;4; 23,4; 23,4; 0,0; 0,0; 67,5; 19,0
2020-02-03 07:46:59; 6,4; 87; 4,4; 974,0618; 999,6250;4; 23,5; 23,5; 0,0; 0,0; 67,5; 19,0
2020-02-03 07:57:00; 6,7; 88; 4,9; 974,3118; 999,8750;4; 23,6; 23,6; 0,0; 0,0; 67,5; 19,0
2020-02-03 08:06:59; 6,8; 88; 5,0; 974,3118; 999,8750;4; 23,5; 23,5; 0,0; 0,0; 67,5; 19,0
2020-02-03 08:17:00; 6,9; 88; 5,1; 974,4993;1000,0625;4; 23,6; 23,6; 0,0; 0,0; 67,5; 19,0
2020-02-03 08:27:00; 7,1; 87; 5,1; 974,4993;1000,0625;4; 23,5; 23,5; 0,0; 0,0; 67,5; 19,0
2020-02-03 08:36:59; 7,4; 86; 5,2; 974,6868;1000,2500;4; 23,5; 23,5; 0,0; 0,0; 67,5; 19,0
2020-02-03 08:47:00; 7,5; 86; 5,3; 974,6868;1000,2500;4; 23,6; 23,6; 0,0; 0,0; 67,5; 19,0
2020-02-03 08:56:59; 7,2; 86; 5,0; 974,9368;1000,5000;4; 23,5; 23,5; 0,0; 0,0; 67,5; 22,6
2020-02-03 09:07:00; 7,4; 86; 5,2; 974,9368;1000,5000;4; 23,6; 23,6; 0,0; 0,0; 67,5; 22,6
2020-02-03 09:16:59; 7,3; 86; 5,1; 975,1243;1000,6875;4; 23,6; 23,6; 0,0; 0,0; 67,5; 22,6
2020-02-03 09:27:00; 7,1; 87; 5,1; 975,1243;1000,6875;4; 23,8; 23,8; 0,0; 0,0; 67,5; 22,6
2020-02-03 09:36:59; 7,1; 87; 5,1; 975,4368;1001,0000;4; 23,8; 23,8; 0,0; 0,0; 67,5; 22,6
2020-02-03 09:47:00; 7,2; 87; 5,2; 975,4368;1001,0000;4; 23,9; 23,9; 0,0; 0,0; 67,5; 22,6
2020-02-03 09:57:00; 7,1; 86; 4,9; 976,0618;1001,6250;4; 23,9; 23,9; 0,0; 0,0; 67,5; 22,6
2020-02-03 10:06:59; 6,8; 87; 4,8; 976,0618;1001,6250;4; 23,9; 23,9; 0,0; 0,0; 67,5; 22,6
2020-02-03 10:17:00; 6,9; 88; 5,1; 976,3118;1001,8750;4; 23,9; 23,9; 0,0; 0,0; 67,5; 22,6
2020-02-03 10:26:59; 7,1; 88; 5,2; 976,3118;1001,8750;4; 24,0; 24,0; 0,0; 0,0; 67,5; 22,6
2020-02-03 10:37:00; 7,5; 87; 5,5; 976,3118;1001,8750;4; 24,1; 24,1; 0,0; 0,0; 67,5; 22,6
2020-02-03 10:46:59; 7,5; 87; 5,5; 976,3118;1001,8750;4; 24,1; 24,1; 0,0; 0,0; 67,5; 22,6
2020-02-03 10:57:00; 7,3; 88; 5,4; 976,5618;1002,1250;4; 24,1; 24,1; 0,0; 0,0; 67,5; 22,6
2020-02-03 11:06:59; 7,2; 88; 5,3; 976,5618;1002,1250;4; 24,1; 24,1; 0,0; 0,0; 67,5; 22,6
2020-02-03 11:17:00; 7,5; 88; 5,6; 976,4368;1002,0000;4; 24,2; 24,2; 0,0; 0,0; 67,5; 22,6
2020-02-03 11:27:00; 8,3; 86; 6,1; 976,4368;1002,0000;4; 24,2; 24,2; 0,0; 0,0; 67,5; 22,6
2020-02-03 11:36:59; 8,8; 83; 6,1; 976,5618;1002,1250;4; 24,2; 24,2; 0,0; 0,0; 67,5; 22,6
2020-02-03 11:47:00; 9,4; 80; 6,1; 976,5618;1002,1250;4; 24,4; 24,4; 0,0; 0,0; 67,5; 22,6
2020-02-03 11:56:59; 9,5; 79; 6,0; 976,4368;1002,0000;4; 24,4; 24,4; 0,0; 0,0; 67,5; 22,6
2020-02-03 12:07:00; 9,5; 78; 5,9; 976,4368;1002,0000;4; 24,4; 24,4; 0,0; 0,0; 67,5; 22,6
2020-02-03 12:16:59; 9,6; 77; 5,8; 976,7493;1002,3125;4; 24,4; 24,4; 0,0; 0,0; 67,5; 22,6
2020-02-03 12:27:00; 9,8; 76; 5,8; 976,7493;1002,3125;4; 24,4; 24,4; 0,0; 0,0; 67,5; 22,6
2020-02-03 12:36:59; 9,8; 76; 5,8; 976,4993;1002,0625;4; 24,5; 24,5; 0,0; 0,0; 67,5; 22,6
2020-02-03 12:47:00; 9,7; 76; 5,7; 976,4993;1002,0625;4; 24,5; 24,5; 0,0; 0,0; 67,5; 22,6
2020-02-03 12:57:00; 9,7; 77; 5,9; 976,4993;1002,0625;4; 24,5; 24,5; 0,0; 0,0; 67,5; 22,6
2020-02-03 13:06:59; 9,5; 78; 5,9; 976,4993;1002,0625;4; 24,5; 24,5; 0,0; 0,0; 67,5; 22,6
2020-02-03 13:17:00; 9,6; 77; 5,8; 976,4368;1002,0000;4; 24,5; 24,5; 0,0; 0,0; 67,5; 22,6
2020-02-03 13:26:59; 9,6; 76; 5,6; 976,4368;1002,0000;4; 24,5; 24,5; 0,0; 0,0; 67,5; 22,6
2020-02-03 13:37:00; 9,9; 76; 5,9; 976,3743;1001,9375;4; 24,6; 24,6; 0,0; 0,0; 67,5; 22,6
2020-02-03 13:46:59; 9,9; 76; 5,9; 976,3743;1001,9375;4; 24,6; 24,6; 0,0; 0,0; 67,5; 22,6
2020-02-03 13:57:00; 9,9; 76; 5,9; 976,4993;1002,0625;4; 24,6; 24,6; 0,0; 0,0; 67,5; 22,6
2020-02-03 14:06:59; 10,0; 75; 5,8; 976,4993;1002,0625;4; 24,6; 24,6; 0,0; 0,0; 67,5; 22,6
2020-02-03 14:17:00; 10,1; 75; 5,9; 976,4368;1002,0000;4; 24,6; 24,6; 0,0; 0,0; 67,5; 22,6
2020-02-03 14:27:00; 10,1; 74; 5,7; 976,4368;1002,0000;4; 24,6; 24,6; 0,0; 0,0; 67,5; 22,6
2020-02-03 14:36:59; 10,0; 74; 5,6; 976,8743;1002,4375;4; 24,6; 24,6; 0,0; 0,0; 67,5; 22,6
2020-02-03 14:47:00; 9,1; 78; 5,5; 976,8743;1002,4375;4; 24,6; 24,6; 0,0; 0,0; 67,5; 22,6
2020-02-03 14:56:59; 8,7; 78; 5,1; 976,8118;1002,3750;4; 24,5; 24,5; 0,0; 0,0; 67,5; 22,6
2020-02-03 15:07:00; 8,5; 79; 5,1; 976,8118;1002,3750;4; 24,5; 24,5; 0,0; 0,0; 67,5; 22,6
2020-02-03 15:16:59; 8,4; 80; 5,2; 976,7493;1002,3125;4; 24,5; 24,5; 0,0; 0,0; 67,5; 22,6
2020-02-03 15:27:00; 8,3; 81; 5,2; 976,7493;1002,3125;4; 24,5; 24,5; 0,0; 0,0; 67,5; 22,6
2020-02-03 15:36:59; 8,3; 81; 5,2; 976,4993;1002,0625;4; 24,5; 24,5; 0,0; 0,0; 67,5; 22,6
2020-02-03 15:47:00; 8,2; 82; 5,3; 976,4993;1002,0625;4; 24,5; 24,5; 0,0; 0,0; 67,5; 22,6
2020-02-03 15:57:00; 8,1; 82; 5,2; 976,6243;1002,1875;4; 24,6; 24,6; 0,0; 0,1; 22,5; 23,3
2020-02-03 16:06:59; 8,2; 80; 5,0; 976,6243;1002,1875;4; 24,6; 24,6; 0,0; 0,0; 22,5; 23,3
2020-02-03 16:17:00; 8,1; 80; 4,9; 976,4993;1002,0625;4; 24,5; 24,5; 0,0; 0,0; 22,5; 23,3
2020-02-03 16:26:59; 8,1; 81; 5,0; 976,4993;1002,0625;4; 24,4; 24,4; 0,0; 0,0; 22,5; 23,3
2020-02-03 16:37:00; 8,0; 81; 4,9; 976,4993;1002,0625;4; 24,4; 24,4; 0,0; 0,0; 22,5; 23,3
2020-02-03 16:46:59; 8,1; 81; 5,0; 976,4993;1002,0625;4; 24,3; 24,3; 0,0; 0,0; 22,5; 23,3
2020-02-03 16:57:00; 8,2; 80; 5,0; 976,4368;1002,0000;4; 24,3; 24,3; 0,0; 0,0; 22,5; 23,3
2020-02-03 17:06:59; 8,3; 80; 5,1; 976,4368;1002,0000;4; 24,3; 24,3; 0,0; 0,0; 22,5; 23,3
2020-02-03 17:17:00; 8,2; 79; 4,8; 976,2493;1001,8125;4; 24,2; 24,2; 0,0; 0,0; 22,5; 23,3
2020-02-03 17:27:00; 8,2; 79; 4,8; 976,2493;1001,8125;4; 24,2; 24,2; 0,0; 0,0; 22,5; 23,3
2020-02-03 17:36:59; 8,2; 79; 4,8; 976,0618;1001,6250;4; 24,2; 24,2; 0,0; 0,0; 22,5; 23,3
2020-02-03 17:47:00; 8,3; 79; 4,9; 976,0618;1001,6250;4; 24,1; 24,1; 0,0; 0,0; 22,5; 23,3
2020-02-03 17:56:59; 8,3; 79; 4,9; 976,0618;1001,6250;4; 24,1; 24,1; 0,0; 0,0; 22,5; 23,3
2020-02-03 18:07:00; 8,4; 79; 5,0; 976,0618;1001,6250;4; 24,1; 24,1; 0,0; 0,0; 22,5; 23,3
2020-02-03 18:16:59; 8,3; 79; 4,9; 975,8743;1001,4375;4; 24,1; 24,1; 0,0; 0,0; 22,5; 23,3
2020-02-03 18:27:00; 8,3; 79; 4,9; 975,8743;1001,4375;4; 24,1; 24,1; 0,0; 0,0; 22,5; 23,3
2020-02-03 18:36:59; 8,2; 79; 4,8; 975,6243;1001,1875;4; 24,1; 24,1; 0,0; 0,0; 22,5; 23,3
2020-02-03 18:47:00; 8,2; 79; 4,8; 975,6243;1001,1875;4; 24,1; 24,1; 0,0; 0,0; 22,5; 23,3
2020-02-03 18:57:00; 8,3; 78; 4,7; 975,6243;1001,1875;4; 24,0; 24,0; 0,0; 0,0; 22,5; 23,3
2020-02-03 19:06:59; 8,3; 78; 4,7; 975,6243;1001,1875;4; 24,0; 24,0; 0,0; 0,0; 22,5; 23,3
2020-02-03 19:17:00; 8,3; 78; 4,7; 975,4993;1001,0625;4; 24,0; 24,0; 0,0; 0,0; 22,5; 23,3
2020-02-03 19:26:59; 8,3; 77; 4,5; 975,4993;1001,0625;4; 24,0; 24,0; 0,0; 0,0; 22,5; 23,3
2020-02-03 19:37:00; 8,3; 77; 4,5; 975,3743;1000,9375;4; 24,0; 24,0; 0,0; 0,0; 22,5; 23,3
2020-02-03 19:46:59; 8,3; 77; 4,5; 975,3743;1000,9375;4; 24,0; 24,0; 0,0; 0,0; 22,5; 23,3
2020-02-03 19:57:00; 8,3; 77; 4,5; 975,3118;1000,8750;4; 23,9; 23,9; 0,0; 0,0; 22,5; 23,3
2020-02-03 20:06:59; 8,3; 77; 4,5; 975,3118;1000,8750;4; 23,9; 23,9; 0,0; 0,0; 22,5; 23,3
2020-02-03 20:17:00; 8,3; 77; 4,5; 975,0618;1000,6250;4; 23,9; 23,9; 0,0; 0,0; 22,5; 23,3
2020-02-03 20:27:00; 8,3; 76; 4,3; 975,0618;1000,6250;4; 23,9; 23,9; 0,0; 0,0; 22,5; 23,3
2020-02-03 20:36:59; 8,4; 76; 4,4; 975,2493;1000,8125;4; 23,9; 23,9; 0,0; 0,0; 22,5; 23,3
2020-02-03 20:47:00; 8,3; 75; 4,1; 975,2493;1000,8125;4; 23,9; 23,9; 0,0; 0,0; 22,5; 23,3
2020-02-03 20:56:59; 8,2; 77; 4,4; 974,8743;1000,4375;4; 23,9; 23,9; 0,0; 0,0; 22,5; 23,3
2020-02-03 21:07:00; 8,1; 77; 4,3; 974,8743;1000,4375;4; 23,9; 23,9; 0,0; 0,0; 22,5; 23,3
2020-02-03 21:16:59; 8,0; 78; 4,4; 974,4368;1000,0000;4; 23,9; 23,9; 0,0; 0,0; 22,5; 23,3
2020-02-03 21:27:00; 8,0; 77; 4,2; 974,4368;1000,0000;4; 23,9; 23,9; 0,0; 0,0; 22,5; 23,3
2020-02-03 21:36:59; 8,0; 77; 4,2; 974,3118; 999,8750;4; 23,9; 23,9; 0,0; 0,0; 22,5; 23,3
2020-02-03 21:47:00; 8,0; 77; 4,2; 974,3118; 999,8750;4; 23,9; 23,9; 0,0; 0,0; 22,5; 23,3
2020-02-03 21:57:00; 7,9; 77; 4,1; 973,8118; 999,3750;4; 23,9; 23,9; 0,0; 0,0; 22,5; 23,3
2020-02-03 22:06:59; 7,9; 77; 4,1; 973,8118; 999,3750;4; 23,9; 23,9; 0,0; 0,0; 22,5; 23,3
2020-02-03 22:17:00; 7,8; 77; 4,0; 973,1868; 998,7500;4; 23,9; 23,9; 0,0; 0,0; 22,5; 23,3
2020-02-03 22:26:59; 7,7; 77; 3,9; 973,1868; 998,7500;4; 23,9; 23,9; 0,0; 0,0; 22,5; 23,3
2020-02-03 22:37:00; 7,7; 77; 3,9; 972,6243; 998,1875;4; 23,9; 23,9; 0,0; 0,0; 22,5; 23,3
2020-02-03 22:46:59; 7,6; 78; 4,0; 972,6243; 998,1875;4; 23,9; 23,9; 0,0; 0,0; 22,5; 23,3
2020-02-03 22:57:00; 7,5; 79; 4,1; 971,8118; 997,3750;4; 23,9; 23,9; 0,0; 0,0; 22,5; 23,3
2020-02-03 23:06:59; 7,3; 79; 3,9; 971,8118; 997,3750;4; 23,9; 23,9; 0,0; 0,0; 22,5; 23,3
2020-02-03 23:17:00; 7,2; 80; 4,0; 971,1868; 996,7500;4; 23,9; 23,9; 0,0; 0,0; 22,5; 23,3
2020-02-03 23:27:00; 7,1; 80; 3,9; 971,1868; 996,7500;4; 23,9; 23,9; 0,0; 0,0; 22,5; 23,3
2020-02-03 23:36:59; 7,1; 81; 4,1; 970,5618; 996,1250;3; 23,9; 23,9; 0,0; 0,0; 22,5; 23,3
2020-02-03 23:47:00; 7,0; 81; 4,0; 970,5618; 996,1250;3; 23,9; 23,9; 0,0; 0,0; 22,5; 23,3
2020-02-03 23:56:59; 7,0; 81; 4,0; 970,2493; 995,8125;2; 23,9; 23,9; 0,0; 0,0; 22,5; 23,3
2020-02-04 00:07:00; 7,0; 81; 4,0; 970,2493; 995,8125;2; 23,9; 23,9; 0,0; 0,0; 22,5; 23,3
2020-02-04 00:16:59; 7,1; 81; 4,1; 969,5618; 995,1250;2; 23,9; 23,9; 0,0; 0,0; 22,5; 23,3
2020-02-04 00:27:00; 7,0; 81; 4,0; 969,5618; 995,1250;2; 23,9; 23,9; 0,0; 0,0; 22,5; 23,3
2020-02-04 00:36:59; 7,0; 81; 4,0; 969,4368; 995,0000;2; 23,9; 23,9; 0,0; 0,0; 22,5; 23,3
2020-02-04 00:47:00; 6,9; 82; 4,0; 969,4368; 995,0000;2; 23,9; 23,9; 0,0; 0,0; 22,5; 23,3
2020-02-04 00:57:00; 6,9; 82; 4,0; 969,0618; 994,6250;2; 23,8; 23,8; 0,0; 0,0; 22,5; 23,3
2020-02-04 01:06:59; 6,7; 83; 4,0; 969,0618; 994,6250;2; 23,8; 23,8; 0,0; 0,0; 22,5; 23,3
2020-02-04 01:17:00; 6,7; 83; 4,0; 968,3743; 993,9375;2; 23,8; 23,8; 0,0; 0,0; 22,5; 23,3
2020-02-04 01:26:59; 6,6; 83; 3,9; 968,3743; 993,9375;2; 23,8; 23,8; 0,0; 0,0; 22,5; 23,3
2020-02-04 01:37:00; 6,5; 83; 3,8; 968,3118; 993,8750;2; 23,8; 23,8; 0,0; 0,0; 22,5; 23,3
2020-02-04 01:46:59; 6,4; 84; 3,9; 968,3118; 993,8750;2; 23,8; 23,8; 0,0; 0,0; 22,5; 23,3
2020-02-04 01:57:00; 6,4; 85; 4,1; 967,2493; 992,8125;2; 23,8; 23,8; 0,0; 0,0; 22,5; 23,3
2020-02-04 02:06:59; 6,3; 85; 4,0; 967,2493; 992,8125;2; 23,8; 23,8; 0,0; 0,0; 22,5; 23,3
2020-02-04 02:17:00; 6,3; 85; 4,0; 966,8118; 992,3750;2; 23,8; 23,8; 0,0; 0,0; 22,5; 23,3
2020-02-04 02:27:00; 6,2; 85; 3,9; 966,8118; 992,3750;2; 23,8; 23,8; 0,0; 0,0; 22,5; 23,3
2020-02-04 02:36:59; 6,1; 85; 3,8; 966,8118; 992,3750;2; 23,8; 23,8; 0,0; 0,0; 22,5; 23,3
2020-02-04 02:47:00; 6,0; 84; 3,5; 966,8118; 992,3750;2; 23,8; 23,8; 0,0; 0,0; 22,5; 23,3
2020-02-04 02:56:59; 5,9; 84; 3,4; 966,1243; 991,6875;2; 23,8; 23,8; 0,0; 0,0; 22,5; 23,3
2020-02-04 03:07:00; 5,8; 84; 3,3; 966,1243; 991,6875;2; 23,8; 23,8; 0,0; 0,0; 22,5; 23,3
2020-02-04 03:16:59; 5,5; 84; 3,0; 965,4993; 991,0625;2; 23,8; 23,8; 0,0; 0,0; 22,5; 23,3
2020-02-04 03:27:00; 5,2; 83; 2,5; 965,4993; 991,0625;2; 23,8; 23,8; 0,0; 0,0; 22,5; 23,3
2020-02-04 03:36:59; 5,1; 84; 2,6; 965,3743; 990,9375;2; 23,8; 23,8; 0,0; 0,0; 22,5; 23,3
2020-02-04 03:47:00; 5,0; 84; 2,5; 965,3743; 990,9375;2; 23,8; 23,8; 0,0; 0,0; 22,5; 23,3
2020-02-04 03:57:00; 4,9; 84; 2,4; 965,0618; 990,6250;2; 23,8; 23,8; 0,0; 0,0; 22,5; 23,3
2020-02-04 04:06:59; 4,7; 85; 2,4; 965,0618; 990,6250;2; 23,8; 23,8; 0,0; 0,0; 22,5; 23,3
2020-02-04 04:17:00; 4,5; 85; 2,2; 964,9993; 990,5625;2; 23,8; 23,8; 0,0; 0,0; 22,5; 23,3
2020-02-04 04:26:59; 4,4; 85; 2,1; 964,9993; 990,5625;2; 23,8; 23,8; 0,0; 0,0; 22,5; 23,3
2020-02-04 04:37:00; 4,3; 86; 2,2; 965,4368; 991,0000;2; 23,8; 23,8; 0,0; 0,0; 22,5; 23,3
2020-02-04 04:46:59; 4,3; 87; 2,3; 965,4368; 991,0000;2; 23,8; 23,8; 0,0; 0,0; 22,5; 23,3
2020-02-04 04:57:00; 4,3; 87; 2,3; 965,6868; 991,2500;2; 23,8; 23,8; 0,0; 0,0; 22,5; 23,3
2020-02-04 05:06:59; 4,0; 85; 1,7; 965,6868; 991,2500;2; 23,8; 23,8; 0,0; 0,0; 22,5; 23,3
2020-02-04 05:17:00; 3,7; 85; 1,4; 966,2493; 991,8125;2; 23,8; 23,8; 0,0; 0,0; 22,5; 23,3
2020-02-04 05:27:00; 3,3; 85; 1,0; 966,2493; 991,8125;2; 23,8; 23,8; 0,0; 0,0; 22,5; 23,3
2020-02-04 05:36:59; 2,7; 86; 0,6; 966,8743; 992,4375;4; 23,8; 23,8; 0,0; 0,0; 22,5; 23,3
2020-02-04 05:47:00; 2,4; 87; 0,5; 966,8743; 992,4375;4; 23,8; 23,8; 0,0; 0,0; 22,5; 23,3
2020-02-04 05:56:59; 2,3; 87; 0,4; 967,5618; 993,1250;4; 23,8; 23,8; 0,0; 0,0; 22,5; 23,3
2020-02-04 06:07:00; 2,3; 88; 0,5; 967,5618; 993,1250;4; 23,8; 23,8; 0,0; 0,0; 22,5; 23,3
2020-02-04 06:16:59; 2,4; 88; 0,6; 968,4368; 994,0000;5; 23,8; 23,8; 0,0; 0,0; 22,5; 23,3
2020-02-04 06:27:00; 2,6; 88; 0,8; 968,4368; 994,0000;5; 23,8; 23,8; 0,0; 0,0; 22,5; 23,3
2020-02-04 06:36:59; 2,6; 88; 0,8; 968,8743; 994,4375;5; 23,8; 23,8; 0,0; 0,0; 22,5; 23,3
2020-02-04 06:47:00; 2,5; 88; 0,7; 968,8743; 994,4375;5; 23,9; 23,9; 0,0; 0,0; 22,5; 23,3
2020-02-04 06:57:00; 2,5; 88; 0,7; 969,6868; 995,2500;5; 23,9; 23,9; 0,0; 0,0; 22,5; 23,3
2020-02-04 07:06:59; 2,4; 88; 0,6; 969,6868; 995,2500;5; 24,0; 24,0; 0,0; 0,0; 22,5; 23,3
2020-02-04 07:17:00; 2,5; 88; 0,7; 970,3118; 995,8750;5; 24,0; 24,0; 0,0; 0,0; 22,5; 23,3
2020-02-04 07:26:59; 2,5; 88; 0,7; 970,3118; 995,8750;5; 24,1; 24,1; 0,0; 0,0; 22,5; 23,3
2020-02-04 07:37:00; 2,6; 88; 0,8; 970,9993; 996,5625;5; 24,1; 24,1; 0,0; 0,0; 22,5; 23,3
2020-02-04 07:46:59; 2,7; 88; 0,9; 970,9993; 996,5625;5; 24,1; 24,1; 0,0; 0,0; 22,5; 23,3
2020-02-04 07:57:00; 2,6; 88; 0,8; 971,2493; 996,8125;5; 24,1; 24,1; 0,0; 0,0; 22,5; 23,3
2020-02-04 08:06:59; 2,7; 88; 0,9; 971,2493; 996,8125;5; 24,2; 24,2; 0,0; 0,0; 22,5; 23,3
2020-02-04 08:17:00; 2,7; 88; 0,9; 971,6868; 997,2500;5; 24,2; 24,2; 0,0; 0,0; 22,5; 23,3
2020-02-04 08:27:00; 2,8; 88; 1,0; 971,6868; 997,2500;5; 24,2; 24,2; 0,0; 0,0; 22,5; 23,3
2020-02-04 08:36:59; 3,1; 88; 1,3; 972,4993; 998,0625;5; 24,2; 24,2; 0,0; 0,0; 22,5; 23,3
2020-02-04 08:47:00; 3,4; 88; 1,6; 972,4993; 998,0625;5; 24,2; 24,2; 0,0; 0,0; 22,5; 23,3
2020-02-04 08:56:59; 3,7; 88; 1,9; 972,6868; 998,2500;5; 24,2; 24,2; 0,0; 0,0; 22,5; 23,3
2020-02-04 09:07:00; 3,9; 87; 1,9; 972,6868; 998,2500;5; 24,3; 24,3; 0,0; 0,0; 22,5; 23,3
2020-02-04 09:16:59; 4,0; 85; 1,7; 973,1243; 998,6875;5; 24,4; 24,4; 0,0; 0,0; 22,5; 23,3
2020-02-04 09:27:00; 4,1; 84; 1,6; 973,1243; 998,6875;5; 24,5; 24,5; 0,0; 0,0; 22,5; 23,3
2020-02-04 09:36:59; 4,2; 84; 1,7; 973,3743; 998,9375;5; 24,6; 24,6; 0,0; 0,0; 22,5; 23,3
2020-02-04 09:47:00; 4,3; 84; 1,8; 973,3743; 998,9375;5; 24,6; 24,6; 0,0; 0,0; 22,5; 23,3
2020-02-04 09:57:00; 4,2; 83; 1,6; 973,8743; 999,4375;5; 24,5; 24,5; 0,0; 0,0; 22,5; 23,3
2020-02-04 10:06:59; 4,5; 82; 1,7; 973,8743; 999,4375;5; 24,5; 24,5; 0,0; 0,0; 22,5; 23,3
2020-02-04 10:17:00; 4,6; 82; 1,8; 973,8743; 999,4375;5; 24,5; 24,5; 0,0; 0,0; 22,5; 23,3
2020-02-04 10:26:59; 4,7; 82; 1,9; 973,8743; 999,4375;5; 24,6; 24,6; 0,0; 0,0; 22,5; 23,3
2020-02-04 10:37:00; 4,7; 82; 1,9; 974,0618; 999,6250;5; 24,6; 24,6; 0,0; 0,0; 22,5; 23,3
2020-02-04 10:46:59; 4,7; 80; 1,5; 974,0618; 999,6250;5; 24,7; 24,7; 0,0; 0,0; 22,5; 23,3
2020-02-04 10:57:00; 4,8; 79; 1,5; 974,1868; 999,7500;5; 24,8; 24,8; 0,0; 0,0; 22,5; 23,3
2020-02-04 11:06:59; 4,9; 79; 1,6; 974,1868; 999,7500;5; 24,8; 24,8; 0,0; 0,0; 22,5; 23,3
2020-02-04 11:17:00; 5,0; 79; 1,7; 974,0618; 999,6250;5; 24,8; 24,8; 0,0; 0,0; 22,5; 23,3
2020-02-04 11:27:00; 4,9; 79; 1,6; 974,0618; 999,6250;5; 24,8; 24,8; 0,0; 0,0; 22,5; 23,3
2020-02-04 11:36:59; 4,8; 78; 1,3; 974,3118; 999,8750;5; 24,8; 24,8; 0,0; 0,0; 22,5; 23,3
2020-02-04 11:47:00; 4,9; 77; 1,2; 974,3118; 999,8750;5; 24,8; 24,8; 0,0; 0,0; 22,5; 23,3
2020-02-04 11:56:59; 5,0; 77; 1,3; 974,4368;1000,0000;5; 24,8; 24,8; 0,0; 0,0; 22,5; 23,3
2020-02-04 12:07:00; 5,2; 76; 1,3; 974,4368;1000,0000;5; 24,9; 24,9; 0,0; 0,0; 22,5; 23,3
2020-02-04 12:16:59; 5,0; 77; 1,3; 974,5618;1000,1250;5; 25,0; 25,0; 0,0; 0,0; 22,5; 23,3
2020-02-04 12:27:00; 4,9; 77; 1,2; 974,5618;1000,1250;5; 25,1; 25,1; 0,0; 0,0; 22,5; 23,3
2020-02-04 12:36:59; 5,1; 76; 1,2; 974,4368;1000,0000;5; 25,1; 25,1; 0,0; 0,0; 22,5; 23,3
2020-02-04 12:47:00; 5,1; 75; 1,0; 974,4368;1000,0000;5; 25,1; 25,1; 0,0; 0,0; 22,5; 23,3
2020-02-04 12:57:00; 4,4; 77; 0,7; 974,7493;1000,3125;5; 25,1; 25,1; 0,0; 0,0; 22,5; 23,3
2020-02-04 13:06:59; 4,5; 78; 1,0; 974,7493;1000,3125;5; 25,1; 25,1; 0,0; 0,0; 22,5; 23,3
2020-02-04 13:17:00; 4,7; 79; 1,4; 974,6243;1000,1875;5; 25,1; 25,1; 0,0; 0,0; 22,5; 23,3
2020-02-04 13:26:59; 5,3; 77; 1,6; 974,6243;1000,1875;5; 25,2; 25,2; 0,0; 0,0; 22,5; 23,3
2020-02-04 13:37:00; 5,9; 73; 1,4; 974,5618;1000,1250;5; 25,3; 25,3; 0,0; 0,0; 22,5; 23,3
2020-02-04 13:46:59; 5,7; 72; 1,0; 974,5618;1000,1250;5; 25,3; 25,3; 0,0; 0,0; 22,5; 23,3
2020-02-04 13:57:00; 5,0; 74; 0,8; 974,9368;1000,5000;4; 25,3; 25,3; 0,0; 0,0; 22,5; 23,3
2020-02-04 14:06:59; 4,4; 77; 0,7; 974,9368;1000,5000;4; 25,3; 25,3; 0,0; 0,0; 22,5; 23,3
2020-02-04 14:17:00; 4,7; 76; 0,8; 975,2493;1000,8125;4; 25,3; 25,3; 0,0; 0,0; 22,5; 23,3
2020-02-04 14:27:00; 5,0; 76; 1,1; 975,2493;1000,8125;4; 25,3; 25,3; 0,0; 0,0; 22,5; 23,3
2020-02-04 14:36:59; 5,2; 74; 0,9; 975,3743;1000,9375;5; 25,3; 25,3; 0,0; 0,0; 22,5; 23,3
2020-02-04 14:47:00; 5,1; 73; 0,7; 975,3743;1000,9375;5; 25,3; 25,3; 0,0; 0,0; 22,5; 23,3
2020-02-04 14:56:59; 5,1; 73; 0,7; 975,4993;1001,0625;5; 25,3; 25,3; 0,0; 0,0; 22,5; 23,3
2020-02-04 15:07:00; 4,8; 74; 0,6; 975,4993;1001,0625;5; 25,3; 25,3; 0,0; 0,0; 22,5; 23,3
2020-02-04 15:16:59; 4,8; 75; 0,7; 975,6868;1001,2500;5; 25,2; 25,2; 0,0; 0,0; 22,5; 23,3
2020-02-04 15:27:00; 4,8; 75; 0,7; 975,6868;1001,2500;5; 25,2; 25,2; 0,0; 0,0; 22,5; 23,3
2020-02-04 15:36:59; 4,7; 74; 0,5; 975,8118;1001,3750;5; 25,2; 25,2; 0,0; 0,0; 22,5; 23,3
2020-02-04 15:47:00; 4,8; 74; 0,6; 975,8118;1001,3750;5; 25,2; 25,2; 0,0; 0,0; 22,5; 23,3
2020-02-04 15:57:00; 4,7; 75; 0,6; 975,9993;1001,5625;5; 25,2; 25,2; 0,0; 0,0; 22,5; 23,3
2020-02-04 16:06:59; 4,6; 75; 0,6; 975,9993;1001,5625;5; 25,2; 25,2; 0,0; 0,0; 22,5; 23,3
2020-02-04 16:17:00; 4,5; 75; 0,5; 976,3118;1001,8750;5; 25,2; 25,2; 0,0; 0,0; 22,5; 23,3
2020-02-04 16:26:59; 4,3; 76; 0,4; 976,3118;1001,8750;5; 25,2; 25,2; 0,0; 0,0; 22,5; 23,3
2020-02-04 16:37:00; 4,2; 76; 0,3; 977,3743;1002,9375;5; 25,2; 25,2; 0,0; 0,0; 22,5; 23,3
2020-02-04 16:46:59; 4,1; 76; 0,3; 977,3743;1002,9375;5; 25,2; 25,2; 0,0; 0,0; 22,5; 23,3
2020-02-04 16:57:00; 4,0; 76; 0,2; 977,9368;1003,5000;5; 25,2; 25,2; 0,0; 0,0; 22,5; 23,3
2020-02-04 17:06:59; 3,9; 76; 0,1; 977,9368;1003,5000;5; 25,2; 25,2; 0,0; 0,0; 22,5; 23,3
2020-02-04 17:17:00; 3,9; 77; 0,2; 978,3118;1003,8750;5; 25,1; 25,1; 0,0; 0,0; 22,5; 23,3
2020-02-04 17:27:00; 3,8; 77; 0,1; 978,3118;1003,8750;5; 25,1; 25,1; 0,0; 0,0; 22,5; 23,3
2020-02-04 17:36:59; 3,9; 77; 0,2; 978,1868;1003,7500;5; 25,0; 25,0; 0,0; 0,0; 22,5; 23,3
2020-02-04 17:47:00; 3,9; 77; 0,2; 978,1868;1003,7500;5; 24,9; 24,9; 0,0; 0,0; 22,5; 23,3
2020-02-04 17:56:59; 3,9; 77; 0,2; 978,4368;1004,0000;5; 24,9; 24,9; 0,0; 0,0; 22,5; 23,3
2020-02-04 18:07:00; 3,9; 76; 0,1; 978,4368;1004,0000;5; 24,9; 24,9; 0,0; 0,0; 22,5; 23,3
2020-02-04 18:16:59; 3,9; 76; 0,1; 978,4368;1004,0000;5; 24,9; 24,9; 0,0; 0,0; 22,5; 23,3
2020-02-04 18:27:00; 3,9; 77; 0,2; 978,4368;1004,0000;5; 24,8; 24,8; 0,0; 0,0; 22,5; 23,3
2020-02-04 18:36:59; 3,8; 78; 0,3; 978,3743;1003,9375;5; 24,8; 24,8; 0,0; 0,0; 22,5; 23,3
2020-02-04 18:47:00; 3,8; 79; 0,5; 978,3743;1003,9375;5; 24,8; 24,8; 0,0; 0,0; 22,5; 23,3
2020-02-04 18:57:00; 3,7; 79; 0,4; 978,4368;1004,0000;5; 24,8; 24,8; 0,0; 0,0; 22,5; 23,3
2020-02-04 19:06:59; 3,6; 79; 0,3; 978,4368;1004,0000;5; 24,8; 24,8; 0,0; 0,0; 22,5; 23,3
2020-02-04 19:17:00; 3,6; 79; 0,3; 978,5618;1004,1250;5; 24,8; 24,8; 0,0; 0,0; 22,5; 23,3
2020-02-04 19:26:59; 3,7; 79; 0,4; 978,5618;1004,1250;5; 24,8; 24,8; 0,0; 0,0; 22,5; 23,3
2020-02-04 19:37:00; 3,7; 79; 0,4; 978,6868;1004,2500;5; 24,8; 24,8; 0,0; 0,0; 22,5; 23,3
2020-02-04 19:46:59; 3,5; 81; 0,5; 978,6868;1004,2500;5; 24,7; 24,7; 0,0; 0,0; 22,5; 23,3
2020-02-04 19:57:00; 3,4; 82; 0,6; 978,6868;1004,2500;5; 24,7; 24,7; 0,0; 0,0; 22,5; 23,3
2020-02-04 20:06:59; 3,2; 83; 0,6; 978,6868;1004,2500;5; 24,7; 24,7; 0,0; 0,0; 22,5; 23,3
2020-02-04 20:17:00; 3,2; 83; 0,6; 978,6868;1004,2500;5; 24,7; 24,7; 0,0; 0,0; 22,5; 23,3
2020-02-04 20:27:00; 3,3; 83; 0,7; 978,6868;1004,2500;5; 24,7; 24,7; 0,0; 0,0; 22,5; 23,3
2020-02-04 20:36:59; 3,1; 83; 0,5; 978,9368;1004,5000;5; 24,6; 24,6; 0,0; 0,0; 22,5; 23,3
2020-02-04 20:47:00; 2,8; 84; 0,4; 978,9368;1004,5000;5; 24,6; 24,6; 0,0; 0,0; 22,5; 23,3
2020-02-04 20:56:59; 2,4; 85; 0,1; 979,0618;1004,6250;5; 24,6; 24,6; 0,0; 0,0; 22,5; 23,3
2020-02-04 21:07:00; 2,4; 86; 0,3; 979,0618;1004,6250;5; 24,6; 24,6; 0,0; 0,0; 22,5; 23,3
2020-02-04 21:16:59; 2,7; 86; 0,6; 979,0618;1004,6250;5; 24,6; 24,6; 0,0; 0,0; 22,5; 23,3
2020-02-04 21:27:00; 2,9; 85; 0,6; 979,0618;1004,6250;5; 24,6; 24,6; 0,0; 0,0; 22,5; 23,3
2020-02-04 21:36:59; 3,1; 85; 0,8; 979,0618;1004,6250;5; 24,6; 24,6; 0,0; 0,0; 22,5; 23,3
2020-02-04 21:47:00; 3,2; 85; 0,9; 979,0618;1004,6250;5; 24,6; 24,6; 0,0; 0,0; 22,5; 23,3
2020-02-04 21:57:00; 3,3; 85; 1,0; 979,1243;1004,6875;5; 24,6; 24,6; 0,0; 0,0; 22,5; 23,3
2020-02-04 22:06:59; 3,3; 85; 1,0; 979,1243;1004,6875;5; 24,6; 24,6; 0,0; 0,0; 22,5; 23,3
2020-02-04 22:17:00; 3,2; 86; 1,1; 979,2493;1004,8125;5; 24,6; 24,6; 0,0; 0,0; 22,5; 23,3
2020-02-04 22:26:59; 3,3; 86; 1,2; 979,2493;1004,8125;5; 24,6; 24,6; 0,0; 0,0; 22,5; 23,3
2020-02-04 22:37:00; 3,4; 85; 1,1; 979,4993;1005,0625;6; 24,6; 24,6; 0,0; 0,0; 22,5; 23,3
2020-02-04 22:46:59; 3,4; 85; 1,1; 979,4993;1005,0625;6; 24,6; 24,6; 0,0; 0,0; 22,5; 23,3
2020-02-04 22:57:00; 2,9; 84; 0,5; 980,2493;1005,8125;6; 24,6; 24,6; 0,0; 0,0; 22,5; 23,3
2020-02-04 23:06:59; 2,8; 84; 0,4; 980,2493;1005,8125;6; 24,6; 24,6; 0,0; 0,0; 22,5; 23,3
2020-02-04 23:17:00; 2,7; 85; 0,4; 980,1868;1005,7500;6; 24,6; 24,6; 0,0; 0,0; 22,5; 23,3
2020-02-04 23:27:00; 2,7; 85; 0,4; 980,1868;1005,7500;6; 24,6; 24,6; 0,0; 0,0; 22,5; 23,3
2020-02-04 23:36:59; 2,7; 85; 0,4; 980,6868;1006,2500;6; 24,6; 24,6; 0,0; 0,0; 22,5; 23,3
2020-02-04 23:47:00; 2,7; 84; 0,3; 980,6868;1006,2500;6; 24,6; 24,6; 0,0; 0,0; 22,5; 23,3
2020-02-04 23:56:59; 2,8; 83; 0,2; 980,8118;1006,3750;6; 24,6; 24,6; 0,0; 0,0; 22,5; 23,3
2020-02-05 00:07:00; 2,8; 82; 0,0; 980,8118;1006,3750;6; 24,5; 24,5; 0,0; 0,0; 22,5; 23,3
2020-02-05 00:16:59; 2,8; 82; 0,0; 980,8118;1006,3750;6; 24,5; 24,5; 0,0; 0,0; 22,5; 23,3
2020-02-05 00:27:00; 2,9; 82; 0,1; 980,8118;1006,3750;6; 24,5; 24,5; 0,0; 0,0; 22,5; 23,3
2020-02-05 00:36:59; 2,8; 82; 0,0; 980,9993;1006,5625;6; 24,5; 24,5; 0,0; 0,0; 22,5; 23,3
2020-02-05 00:47:00; 2,8; 82; 0,0; 980,9993;1006,5625;6; 24,5; 24,5; 0,0; 0,0; 22,5; 23,3
2020-02-05 00:57:00; 2,8; 80; -0,3; 981,3743;1006,9375;6; 24,5; 24,5; 0,0; 0,0; 22,5; 23,3
2020-02-05 01:06:59; 2,7; 80; -0,4; 981,3743;1006,9375;6; 24,5; 24,5; 0,0; 0,0; 22,5; 23,3
2020-02-05 01:17:00; 2,7; 79; -0,6; 981,4368;1007,0000;6; 24,5; 24,5; 0,0; 0,0; 22,5; 23,3
2020-02-05 01:26:59; 2,7; 80; -0,4; 981,4368;1007,0000;6; 24,5; 24,5; 0,0; 0,0; 22,5; 23,3
2020-02-05 01:37:00; 2,7; 79; -0,6; 981,6243;1007,1875;6; 24,5; 24,5; 0,0; 0,0; 22,5; 23,3
2020-02-05 01:46:59; 2,7; 79; -0,6; 981,6243;1007,1875;6; 24,5; 24,5; 0,0; 0,0; 22,5; 23,3
2020-02-05 01:57:00; 2,7; 78; -0,8; 981,8743;1007,4375;6; 24,5; 24,5; 0,0; 0,0; 22,5; 23,3
2020-02-05 02:06:59; 2,6; 79; -0,7; 981,8743;1007,4375;6; 24,5; 24,5; 0,0; 0,0; 22,5; 23,3
2020-02-05 02:17:00; 2,5; 80; -0,6; 982,1868;1007,7500;6; 24,5; 24,5; 0,0; 0,0; 22,5; 23,3
2020-02-05 02:27:00; 2,4; 80; -0,7; 982,1868;1007,7500;6; 24,5; 24,5; 0,0; 0,0; 22,5; 23,3
2020-02-05 02:36:59; 2,4; 80; -0,7; 982,5618;1008,1250;6; 24,5; 24,5; 0,0; 0,0; 22,5; 23,3
2020-02-05 02:47:00; 2,4; 80; -0,7; 982,5618;1008,1250;6; 24,5; 24,5; 0,0; 0,0; 22,5; 23,3
2020-02-05 02:56:59; 2,4; 81; -0,5; 983,0618;1008,6250;6; 24,5; 24,5; 0,0; 0,0; 22,5; 23,3
2020-02-05 03:07:00; 2,3; 82; -0,5; 983,0618;1008,6250;6; 24,4; 24,4; 0,0; 0,0; 22,5; 23,3
2020-02-05 03:16:59; 2,1; 84; -0,3; 983,4993;1009,0625;6; 24,4; 24,4; 0,0; 0,0; 22,5; 23,3
2020-02-05 03:27:00; 1,9; 85; -0,4; 983,4993;1009,0625;6; 24,4; 24,4; 0,0; 0,0; 22,5; 23,3
2020-02-05 03:36:59; 1,8; 86; -0,3; 984,0618;1009,6250;6; 24,4; 24,4; 0,0; 0,0; 22,5; 23,3
2020-02-05 03:47:00; 1,8; 86; -0,3; 984,0618;1009,6250;6; 24,4; 24,4; 0,0; 0,0; 22,5; 23,3
2020-02-05 03:57:00; 1,9; 87; 0,0; 984,6243;1010,1875;6; 24,4; 24,4; 0,0; 0,0; 22,5; 23,3
2020-02-05 04:06:59; 1,9; 87; 0,0; 984,6243;1010,1875;6; 24,4; 24,4; 0,0; 0,0; 22,5; 23,3
2020-02-05 04:17:00; 1,9; 87; 0,0; 985,4368;1011,0000;6; 24,4; 24,4; 0,0; 0,0; 22,5; 23,3
2020-02-05 04:26:59; 1,9; 88; 0,1; 985,4368;1011,0000;6; 24,4; 24,4; 0,0; 0,0; 22,5; 23,3
2020-02-05 04:37:00; 2,0; 88; 0,2; 985,8743;1011,4375;6; 24,4; 24,4; 0,0; 0,0; 22,5; 23,3
2020-02-05 04:46:59; 2,1; 88; 0,3; 985,8743;1011,4375;6; 24,4; 24,4; 0,0; 0,0; 22,5; 23,3
2020-02-05 04:57:00; 2,0; 88; 0,2; 986,4993;1012,0625;6; 24,4; 24,4; 0,0; 0,0; 22,5; 23,3
2020-02-05 05:06:59; 1,9; 88; 0,1; 986,4993;1012,0625;6; 24,4; 24,4; 0,0; 0,0; 22,5; 23,3
2020-02-05 05:17:00; 1,9; 88; 0,1; 986,8743;1012,4375;6; 24,5; 24,5; 0,0; 0,0; 22,5; 23,3
2020-02-05 05:27:00; 2,1; 88; 0,3; 986,8743;1012,4375;6; 24,5; 24,5; 0,0; 0,0; 22,5; 23,3
2020-02-05 05:36:59; 2,1; 87; 0,2; 987,8118;1013,3750;6; 24,5; 24,5; 0,0; 0,0; 22,5; 23,3
2020-02-05 05:47:00; 1,7; 87; -0,2; 987,8118;1013,3750;6; 24,5; 24,5; 0,0; 0,0; 22,5; 23,3
2020-02-05 05:56:59; 1,8; 87; -0,1; 988,3118;1013,8750;6; 24,5; 24,5; 0,0; 0,0; 22,5; 23,3
2020-02-05 06:07:00; 1,9; 87; 0,0; 988,3118;1013,8750;6; 24,5; 24,5; 0,0; 0,0; 22,5; 23,3
2020-02-05 06:16:59; 1,9; 86; -0,2; 988,8118;1014,3750;6; 24,5; 24,5; 0,0; 0,0; 22,5; 23,3
2020-02-05 06:27:00; 1,9; 86; -0,2; 988,8118;1014,3750;6; 24,4; 24,4; 0,0; 0,0; 22,5; 23,3
2020-02-05 06:36:59; 2,0; 86; -0,1; 989,4993;1015,0625;6; 24,4; 24,4; 0,0; 0,0; 22,5; 23,3
2020-02-05 06:47:00; 1,9; 86; -0,2; 989,4993;1015,0625;6; 24,5; 24,5; 0,0; 0,0; 22,5; 23,3
2020-02-05 06:57:00; 1,9; 86; -0,2; 990,3118;1015,8750;6; 24,6; 24,6; 0,0; 0,0; 22,5; 23,3
2020-02-05 07:06:59; 2,0; 86; -0,1; 990,3118;1015,8750;6; 24,6; 24,6; 0,0; 0,0; 22,5; 23,3
2020-02-05 07:17:00; 1,9; 86; -0,2; 990,9368;1016,5000;6; 24,6; 24,6; 0,0; 0,0; 22,5; 23,3
2020-02-05 07:26:59; 1,8; 86; -0,3; 990,9368;1016,5000;6; 24,7; 24,7; 0,0; 0,0; 22,5; 23,3
2020-02-05 07:37:00; 1,9; 86; -0,2; 991,1868;1016,7500;6; 24,7; 24,7; 0,0; 0,0; 22,5; 23,3
2020-02-05 07:46:59; 1,9; 86; -0,2; 991,1868;1016,7500;6; 24,8; 24,8; 0,0; 0,0; 22,5; 23,3
2020-02-05 07:57:00; 1,9; 86; -0,2; 991,9368;1017,5000;6; 24,8; 24,8; 0,0; 0,0; 22,5; 23,3
2020-02-05 08:06:59; 1,9; 86; -0,2; 991,9368;1017,5000;6; 24,8; 24,8; 0,0; 0,0; 22,5; 23,3
2020-02-05 08:17:00; 2,0; 86; -0,1; 992,3118;1017,8750;6; 24,8; 24,8; 0,0; 0,0; 22,5; 23,3
2020-02-05 08:27:00; 2,1; 86; 0,0; 992,3118;1017,8750;6; 24,8; 24,8; 0,0; 0,0; 22,5; 23,3
2020-02-05 08:36:59; 2,3; 85; 0,0; 992,9993;1018,5625;6; 24,9; 24,9; 0,0; 0,0; 22,5; 23,3
2020-02-05 08:47:00; 2,5; 84; 0,1; 992,9993;1018,5625;6; 25,0; 25,0; 0,0; 0,0; 22,5; 23,3
2020-02-05 08:56:59; 2,5; 84; 0,1; 993,2493;1018,8125;6; 25,0; 25,0; 0,0; 0,0; 22,5; 23,3
2020-02-05 09:07:00; 2,5; 84; 0,1; 993,2493;1018,8125;6; 25,0; 25,0; 0,0; 0,0; 22,5; 23,3
2020-02-05 09:16:59; 2,3; 84; -0,1; 993,6868;1019,2500;6; 25,0; 25,0; 0,0; 0,0; 22,5; 23,3
2020-02-05 09:27:00; 2,3; 83; -0,3; 993,6868;1019,2500;6; 25,0; 25,0; 0,0; 0,0; 22,5; 23,3
2020-02-05 09:36:59; 2,4; 82; -0,4; 994,1868;1019,7500;6; 25,0; 25,0; 0,0; 0,0; 22,5; 23,3
2020-02-05 09:47:00; 2,5; 81; -0,4; 994,1868;1019,7500;6; 25,0; 25,0; 0,0; 0,0; 22,5; 23,3
2020-02-05 09:57:00; 3,0; 79; -0,3; 994,8118;1020,3750;6; 25,2; 25,2; 0,0; 0,0; 22,5; 23,3
2020-02-05 10:06:59; 3,1; 80; 0,0; 994,8118;1020,3750;6; 25,2; 25,2; 0,0; 0,0;315,0; 23,3
2020-02-05 10:17:00; 3,1; 79; -0,2; 995,0618;1020,6250;6; 25,3; 25,3; 0,0; 0,0;270,0; 23,3
2020-02-05 10:26:59; 3,3; 79; 0,0; 995,0618;1020,6250;6; 25,3; 25,3; 0,0; 0,0;270,0; 44,4
2020-02-05 10:37:00; 3,7; 77; 0,0; 995,4368;1021,0000;6; 25,5; 25,5; 0,0; 0,0;270,0; 44,4
2020-02-05 10:46:59; 3,5; 76; -0,3; 995,4368;1021,0000;6; 25,6; 25,6; 0,0; 0,0;270,0; 44,4
2020-02-05 10:57:00; 3,6; 76; -0,2; 995,4993;1021,0625;6; 25,6; 25,6; 0,0; 0,0;270,0; 44,4
2020-02-05 11:06:59; 3,6; 76; -0,2; 995,4993;1021,0625;6; 25,6; 25,6; 0,0; 0,0;270,0; 44,4
2020-02-05 11:17:00; 3,6; 76; -0,2; 995,9368;1021,5000;6; 25,6; 25,6; 0,0; 0,0;270,0; 44,4
2020-02-05 11:27:00; 3,5; 77; -0,2; 995,9368;1021,5000;6; 25,6; 25,6; 0,0; 0,0;270,0; 44,4
2020-02-05 11:36:59; 3,5; 75; -0,5; 995,9368;1021,5000;6; 25,6; 25,6; 0,0; 0,0;270,0; 44,4
2020-02-05 11:47:00; 3,5; 75; -0,5; 995,9368;1021,5000;6; 25,6; 25,6; 0,0; 0,0;270,0; 44,4
2020-02-05 11:56:59; 3,7; 73; -0,7; 996,0618;1021,6250;6; 25,6; 25,6; 0,0; 0,0;270,0; 44,4
2020-02-05 12:07:00; 3,7; 73; -0,7; 996,0618;1021,6250;6; 25,6; 25,6; 0,0; 0,0;270,0; 44,4
2020-02-05 12:16:59; 3,9; 73; -0,5; 996,4993;1022,0625;6; 25,7; 25,7; 0,0; 0,0;270,0; 44,4
2020-02-05 12:27:00; 4,0; 72; -0,6; 996,4993;1022,0625;6; 25,7; 25,7; 0,0; 0,0;270,0; 44,4
2020-02-05 12:36:59; 3,9; 72; -0,7; 996,6868;1022,2500;5; 25,7; 25,7; 0,0; 0,0;270,0; 44,4
2020-02-05 12:47:00; 3,9; 72; -0,7; 996,6868;1022,2500;5; 25,8; 25,8; 0,0; 0,0;270,0; 44,4
2020-02-05 12:57:00; 4,2; 71; -0,6; 996,9368;1022,5000;5; 26,0; 26,0; 0,0; 0,0;270,0; 44,4
2020-02-05 13:06:59; 4,2; 71; -0,6; 996,9368;1022,5000;5; 26,2; 26,2; 0,0; 0,0;270,0; 44,4
2020-02-05 13:17:00; ; ; ; 996,8743;1022,4375;5; 26,3; 26,3; 0,0; 0,0;270,0; 44,4
2020-02-05 13:26:59; ; ; ; 996,8743;1022,4375;5; 26,4; 26,4; 0,0; 0,0;270,0; 44,4
2020-02-05 13:37:59; ; ; ; 997,0618;1022,6250;5; 26,5; 26,5; 0,0; 0,0;270,0; 44,4
2020-02-05 13:42:00; 4,7; 66; -1,1; 997,0618;1022,6250;5; 26,6; 26,6; 0,0; 0,0;270,0; 44,4
2020-02-05 13:51:59; 4,4; 65; -1,6; 997,0618;1022,6250;5; 26,6; 26,6; 0,0; 0,0;270,0; 44,4
2020-02-05 14:02:00; 4,3; 66; -1,5; 997,3743;1022,9375;5; 26,6; 26,6; 0,0; 0,0;270,0; 44,4
2020-02-05 14:11:59; 4,5; 67; -1,1; 997,3743;1022,9375;5; 26,6; 26,6; 0,0; 0,0;270,0; 44,4
2020-02-05 14:22:00; 4,0; 67; -1,6; 997,2493;1022,8125;5; 26,5; 26,5; 0,0; 0,0;270,0; 44,4
2020-02-05 14:31:59; 3,6; 66; -2,2; 997,2493;1022,8125;5; 26,4; 26,4; 0,0; 0,0;270,0; 44,4
2020-02-05 14:42:00; 3,6; 67; -2,0; 997,6243;1023,1875;5; 26,3; 26,3; 0,0; 0,0;270,0; 44,4
2020-02-05 14:51:59; 3,5; 68; -1,8; 997,6243;1023,1875;5; 26,3; 26,3; 0,0; 0,0;270,0; 44,4
2020-02-05 15:02:00; 3,5; 68; -1,8; 997,7493;1023,3125;5; 26,3; 26,3; 0,0; 0,0;270,0; 44,4
2020-02-05 15:12:00; 3,6; 67; -2,0; 997,7493;1023,3125;5; 26,2; 26,2; 0,0; 0,0;270,0; 44,4
2020-02-05 15:21:59; 3,5; 67; -2,1; 997,6243;1023,1875;5; 26,1; 26,1; 0,0; 0,0;270,0; 44,4
2020-02-05 15:32:00; 3,3; 69; -1,8; 997,6243;1023,1875;5; 26,0; 26,0; 0,0; 0,0;270,0; 44,4
2020-02-05 15:41:59; 3,1; 70; -1,8; 997,5618;1023,1250;5; 25,8; 25,8; 0,0; 0,0;270,0; 44,4
2020-02-05 15:52:00; 2,9; 71; -1,8; 997,5618;1023,1250;5; 25,8; 25,8; 0,0; 0,0;270,0; 44,4
2020-02-05 16:01:59; 2,7; 71; -2,0; 997,3118;1022,8750;5; 25,7; 25,7; 0,0; 0,0;270,0; 44,4
2020-02-05 16:12:00; 2,4; 72; -2,1; 997,3118;1022,8750;5; 25,6; 25,6; 0,0; 0,0;270,0; 44,4
2020-02-05 16:21:59; 2,3; 72; -2,2; 997,3118;1022,8750;5; 25,5; 25,5; 0,0; 0,0;270,0; 44,4
2020-02-05 16:32:00; 2,1; 73; -2,2; 997,3118;1022,8750;5; 25,5; 25,5; 0,0; 0,0;270,0; 44,4
2020-02-05 16:42:00; 2,0; 74; -2,1; 997,2493;1022,8125;5; 25,5; 25,5; 0,0; 0,0;270,0; 44,4
2020-02-05 16:51:59; 1,9; 75; -2,1; 997,2493;1022,8125;5; 25,4; 25,4; 0,0; 0,0;270,0; 44,4
2020-02-05 17:02:00; 1,7; 76; -2,1; 997,1868;1022,7500;5; 25,3; 25,3; 0,0; 0,0;270,0; 44,4
2020-02-05 17:11:59; 1,6; 76; -2,2; 997,1868;1022,7500;5; 25,3; 25,3; 0,0; 0,0;270,0; 44,4
2020-02-05 17:22:00; 1,5; 77; -2,1; 997,2493;1022,8125;5; 25,3; 25,3; 0,0; 0,0;270,0; 44,4
2020-02-05 17:31:59; 1,4; 77; -2,2; 997,2493;1022,8125;5; 25,3; 25,3; 0,0; 0,0;270,0; 44,4
2020-02-05 17:42:00; 1,3; 77; -2,3; 997,2493;1022,8125;5; 25,3; 25,3; 0,0; 0,0;270,0; 44,4
2020-02-05 17:51:59; 1,1; 78; -2,3; 997,2493;1022,8125;5; 25,2; 25,2; 0,0; 0,0;270,0; 44,4
2020-02-05 18:02:00; 1,1; 79; -2,1; 997,1868;1022,7500;5; 25,2; 25,2; 0,0; 0,0;270,0; 44,4
2020-02-05 18:12:00; 1,0; 79; -2,2; 997,1868;1022,7500;5; 25,2; 25,2; 0,0; 0,0;270,0; 44,4
2020-02-05 18:21:59; 0,9; 79; -2,3; 997,2493;1022,8125;5; 25,2; 25,2; 0,0; 0,0;270,0; 44,4
2020-02-05 18:32:00; 0,8; 79; -2,4; 997,2493;1022,8125;5; 25,2; 25,2; 0,0; 0,0;270,0; 44,4
2020-02-05 18:41:59; 0,7; 80; -2,4; 997,1868;1022,7500;5; 25,2; 25,2; 0,0; 0,0;270,0; 44,4
2020-02-05 18:52:00; 0,7; 80; -2,4; 997,1868;1022,7500;5; 25,1; 25,1; 0,0; 0,0;270,0; 44,4
2020-02-05 19:01:59; 0,7; 80; -2,4; 997,4993;1023,0625;5; 25,1; 25,1; 0,0; 0,0;270,0; 44,4
2020-02-05 19:12:00; 0,6; 80; -2,5; 997,4993;1023,0625;5; 25,1; 25,1; 0,0; 0,0;270,0; 44,4
2020-02-05 19:21:59; 0,5; 79; -2,7; 997,1243;1022,6875;5; 25,1; 25,1; 0,0; 0,0;270,0; 44,4
2020-02-05 19:32:00; 0,5; 80; -2,5; 997,1243;1022,6875;5; 25,1; 25,1; 0,0; 0,0;270,0; 44,4
2020-02-05 19:42:00; 0,5; 80; -2,5; 997,3118;1022,8750;5; 25,1; 25,1; 0,0; 0,0;270,0; 44,4
2020-02-05 19:51:59; 0,5; 80; -2,5; 997,3118;1022,8750;5; 25,0; 25,0; 0,0; 0,0;270,0; 44,4
2020-02-05 20:02:00; 0,5; 80; -2,5; 997,2493;1022,8125;5; 25,0; 25,0; 0,0; 0,0;270,0; 44,4
2020-02-05 20:11:59; 0,5; 80; -2,5; 997,2493;1022,8125;5; 25,1; 25,1; 0,0; 0,0;270,0; 44,4
2020-02-05 20:22:00; 0,5; 80; -2,5; 997,1243;1022,6875;5; 25,0; 25,0; 0,0; 0,0;270,0; 44,4
2020-02-05 20:31:59; 0,6; 80; -2,5; 997,1243;1022,6875;5; 25,0; 25,0; 0,0; 0,0;270,0; 44,4
2020-02-05 20:42:00; 0,7; 80; -2,4; 996,9368;1022,5000;5; 25,0; 25,0; 0,0; 0,0;270,0; 44,4
2020-02-05 20:51:59; 0,7; 80; -2,4; 996,9368;1022,5000;5; 25,0; 25,0; 0,0; 0,0;270,0; 44,4
2020-02-05 21:02:00; 0,7; 79; -2,5; 996,7493;1022,3125;5; 25,0; 25,0; 0,0; 0,0;270,0; 44,4
2020-02-05 21:12:00; 0,8; 79; -2,4; 996,7493;1022,3125;5; 25,0; 25,0; 0,0; 0,0;270,0; 44,4
2020-02-05 21:21:59; 0,9; 78; -2,5; 996,8118;1022,3750;5; 24,9; 24,9; 0,0; 0,0;270,0; 44,4
2020-02-05 21:32:00; 1,0; 78; -2,4; 996,8118;1022,3750;5; 24,9; 24,9; 0,0; 0,0;270,0; 44,4
2020-02-05 21:41:59; 1,1; 78; -2,3; 996,6868;1022,2500;5; 24,9; 24,9; 0,0; 0,0;270,0; 44,4
2020-02-05 21:52:00; 1,1; 77; -2,5; 996,6868;1022,2500;5; 24,9; 24,9; 0,0; 0,0;270,0; 44,4
2020-02-05 22:01:59; 1,2; 77; -2,4; 996,6243;1022,1875;5; 24,9; 24,9; 0,0; 0,0;270,0; 44,4
2020-02-05 22:12:00; 1,3; 77; -2,3; 996,6243;1022,1875;5; 24,9; 24,9; 0,0; 0,0;270,0; 44,4
2020-02-05 22:21:59; 1,3; 77; -2,3; 996,4368;1022,0000;5; 24,9; 24,9; 0,0; 0,0;270,0; 44,4
2020-02-05 22:32:00; 1,4; 76; -2,4; 996,4368;1022,0000;5; 24,9; 24,9; 0,0; 0,0;270,0; 44,4
2020-02-05 22:42:00; 1,5; 75; -2,4; 996,4368;1022,0000;5; 24,9; 24,9; 0,0; 0,0;270,0; 44,4
2020-02-05 22:51:59; 1,5; 74; -2,6; 996,4368;1022,0000;5; 24,9; 24,9; 0,0; 0,0;270,0; 44,4
2020-02-05 23:02:00; 1,6; 74; -2,5; 996,3743;1021,9375;5; 24,9; 24,9; 0,0; 0,0;270,0; 44,4
2020-02-05 23:11:59; 1,5; 74; -2,6; 996,3743;1021,9375;5; 24,9; 24,9; 0,0; 0,0;270,0; 44,4
2020-02-05 23:22:00; 1,5; 74; -2,6; 996,4368;1022,0000;5; 24,9; 24,9; 0,0; 0,0;270,0; 44,4
2020-02-05 23:31:59; 1,5; 74; -2,6; 996,4368;1022,0000;5; 24,9; 24,9; 0,0; 0,0;270,0; 44,4
2020-02-05 23:42:00; 1,4; 74; -2,7; 996,4993;1022,0625;5; 24,9; 24,9; 0,0; 0,0;270,0; 44,4
2020-02-05 23:51:59; 1,4; 74; -2,7; 996,4993;1022,0625;5; 24,9; 24,9; 0,0; 0,0;270,0; 44,4
2020-02-06 00:02:00; 1,4; 73; -2,9; 996,3743;1021,9375;5; 24,9; 24,9; 0,0; 0,0;270,0; 44,4
2020-02-06 00:12:00; 1,4; 73; -2,9; 996,3743;1021,9375;5; 24,8; 24,8; 0,0; 0,0;270,0; 44,4
2020-02-06 00:21:59; 1,3; 73; -3,0; 996,2493;1021,8125;5; 24,8; 24,8; 0,0; 0,0;270,0; 44,4
2020-02-06 00:32:00; 1,2; 73; -3,1; 996,2493;1021,8125;5; 24,8; 24,8; 0,0; 0,0;270,0; 44,4
2020-02-06 00:41:59; 1,2; 73; -3,1; 995,9368;1021,5000;5; 24,8; 24,8; 0,0; 0,0;270,0; 44,4
2020-02-06 00:52:00; 1,1; 73; -3,2; 995,9368;1021,5000;5; 24,8; 24,8; 0,0; 0,0;270,0; 44,4
2020-02-06 01:01:59; 1,1; 73; -3,2; 995,8118;1021,3750;5; 24,8; 24,8; 0,0; 0,0;270,0; 44,4
2020-02-06 01:12:00; 1,1; 73; -3,2; 995,8118;1021,3750;5; 24,8; 24,8; 0,0; 0,0;270,0; 44,4
2020-02-06 01:21:59; 1,1; 73; -3,2; 995,5618;1021,1250;5; 24,8; 24,8; 0,0; 0,0;270,0; 44,4
2020-02-06 01:32:00; 1,1; 73; -3,2; 995,5618;1021,1250;5; 24,8; 24,8; 0,0; 0,0;270,0; 44,4
2020-02-06 01:42:00; 1,1; 73; -3,2; 995,1243;1020,6875;5; 24,8; 24,8; 0,0; 0,0;270,0; 44,4
2020-02-06 01:51:59; 1,1; 73; -3,2; 995,1243;1020,6875;5; 24,8; 24,8; 0,0; 0,0;270,0; 44,4
2020-02-06 02:02:00; 1,1; 73; -3,2; 994,9368;1020,5000;5; 24,8; 24,8; 0,0; 0,0;270,0; 44,4
2020-02-06 02:11:59; 1,0; 73; -3,3; 994,9368;1020,5000;5; 24,8; 24,8; 0,0; 0,0;270,0; 44,4
2020-02-06 02:22:00; 0,9; 73; -3,4; 994,8118;1020,3750;5; 24,8; 24,8; 0,0; 0,0;270,0; 44,4
2020-02-06 02:31:59; 0,8; 73; -3,5; 994,8118;1020,3750;5; 24,8; 24,8; 0,0; 0,0;270,0; 44,4
2020-02-06 02:42:00; 0,7; 73; -3,6; 994,4993;1020,0625;5; 24,8; 24,8; 0,0; 0,0;270,0; 44,4
2020-02-06 02:51:59; 0,7; 74; -3,4; 994,4993;1020,0625;5; 24,8; 24,8; 0,0; 0,0;270,0; 44,4
2020-02-06 03:02:00; 0,6; 74; -3,5; 994,0618;1019,6250;5; 24,8; 24,8; 0,0; 0,0;270,0; 44,4
2020-02-06 03:12:00; 0,7; 74; -3,4; 994,0618;1019,6250;5; 24,8; 24,8; 0,0; 0,0;270,0; 44,4
2020-02-06 03:21:59; 0,8; 74; -3,3; 994,0618;1019,6250;5; 24,8; 24,8; 0,0; 0,0;270,0; 44,4
2020-02-06 03:32:00; 0,8; 74; -3,3; 994,0618;1019,6250;5; 24,8; 24,8; 0,0; 0,0;270,0; 44,4
2020-02-06 03:41:59; 0,8; 74; -3,3; 993,6868;1019,2500;5; 24,7; 24,7; 0,0; 0,0;270,0; 44,4
2020-02-06 03:52:00; 0,9; 74; -3,2; 993,6868;1019,2500;5; 24,7; 24,7; 0,0; 0,0;270,0; 44,4
2020-02-06 04:01:59; 0,9; 74; -3,2; 993,4993;1019,0625;5; 24,7; 24,7; 0,0; 0,0;270,0; 44,4
2020-02-06 04:12:00; 1,0; 74; -3,1; 993,4993;1019,0625;5; 24,7; 24,7; 0,0; 0,0;270,0; 44,4
2020-02-06 04:21:59; 1,1; 74; -3,0; 993,6243;1019,1875;5; 24,7; 24,7; 0,0; 0,0;270,0; 44,4
2020-02-06 04:32:00; 1,2; 75; -2,7; 993,6243;1019,1875;5; 24,7; 24,7; 0,0; 0,0;270,0; 44,4
2020-02-06 04:42:00; 1,2; 75; -2,7; 993,4368;1019,0000;5; 24,7; 24,7; 0,0; 0,0;270,0; 44,4
2020-02-06 04:51:59; 1,2; 75; -2,7; 993,4368;1019,0000;5; 24,7; 24,7; 0,0; 0,0;270,0; 44,4
2020-02-06 05:02:00; 1,3; 75; -2,6; 993,0618;1018,6250;4; 24,7; 24,7; 0,0; 0,0;270,0; 44,4
2020-02-06 05:11:59; 1,3; 75; -2,6; 993,0618;1018,6250;4; 24,7; 24,7; 0,0; 0,0;270,0; 44,4
2020-02-06 05:22:00; 1,3; 75; -2,6; 993,3743;1018,9375;4; 24,7; 24,7; 0,0; 0,0;270,0; 44,4
2020-02-06 05:31:59; 1,3; 76; -2,5; 993,3743;1018,9375;4; 24,7; 24,7; 0,0; 0,0;270,0; 44,4
2020-02-06 05:42:00; 1,4; 77; -2,2; 992,8743;1018,4375;4; 24,7; 24,7; 0,0; 0,0;270,0; 44,4
2020-02-06 05:51:59; 1,5; 77; -2,1; 992,8743;1018,4375;4; 24,7; 24,7; 0,0; 0,0;270,0; 44,4
2020-02-06 06:02:00; 1,5; 77; -2,1; 993,3743;1018,9375;4; 24,7; 24,7; 0,0; 0,0;270,0; 44,4
2020-02-06 06:12:00; 1,6; 77; -2,0; 993,3743;1018,9375;4; 24,7; 24,7; 0,0; 0,0;270,0; 44,4
2020-02-06 06:21:59; 1,6; 77; -2,0; 993,3743;1018,9375;4; 24,6; 24,6; 0,0; 0,0;270,0; 44,4
2020-02-06 06:32:00; 1,6; 77; -2,0; 993,3743;1018,9375;4; 24,7; 24,7; 0,0; 0,0;270,0; 44,4
2020-02-06 06:41:59; 1,7; 78; -1,7; 993,3118;1018,8750;4; 24,6; 24,6; 0,0; 0,0;270,0; 44,4
2020-02-06 06:52:00; 1,7; 78; -1,7; 993,3118;1018,8750;4; 24,6; 24,6; 0,0; 0,0;270,0; 44,4
2020-02-06 07:01:59; 1,7; 78; -1,7; 993,4368;1019,0000;4; 24,6; 24,6; 0,0; 0,0;270,0; 44,4
2020-02-06 07:12:00; 1,8; 78; -1,6; 993,4368;1019,0000;4; 24,6; 24,6; 0,0; 0,0;270,0; 44,4
2020-02-06 07:21:59; 1,9; 78; -1,5; 993,6868;1019,2500;4; 24,6; 24,6; 0,0; 0,0;270,0; 44,4
2020-02-06 07:32:00; 2,1; 77; -1,5; 993,6868;1019,2500;4; 24,6; 24,6; 0,0; 0,0;270,0; 44,4
2020-02-06 07:42:00; 2,2; 77; -1,4; 993,6243;1019,1875;4; 24,6; 24,6; 0,0; 0,0;270,0; 44,4
2020-02-06 07:51:59; 2,2; 77; -1,4; 993,6243;1019,1875;4; 24,6; 24,6; 0,0; 0,0;270,0; 44,4
2020-02-06 08:02:00; 2,2; 77; -1,4; 993,4993;1019,0625;4; 24,6; 24,6; 0,0; 0,0;270,0; 44,4
2020-02-06 08:11:59; 2,2; 77; -1,4; 993,4993;1019,0625;4; 24,6; 24,6; 0,0; 0,0;270,0; 44,4
2020-02-06 08:22:00; 2,3; 77; -1,3; 993,6243;1019,1875;4; 24,6; 24,6; 0,0; 0,0;270,0; 44,4
2020-02-06 08:31:59; 2,3; 77; -1,3; 993,6243;1019,1875;4; 24,6; 24,6; 0,0; 0,0;270,0; 44,4
2020-02-06 08:42:00; 2,3; 77; -1,3; 993,6868;1019,2500;4; 24,6; 24,6; 0,0; 0,0;270,0; 44,4
2020-02-06 08:51:59; 2,3; 78; -1,1; 993,6868;1019,2500;4; 24,6; 24,6; 0,0; 0,0;270,0; 44,4
2020-02-06 09:02:00; 2,3; 78; -1,1; 993,6868;1019,2500;4; 24,6; 24,6; 0,0; 0,0;270,0; 44,4
2020-02-06 09:12:00; 2,4; 78; -1,0; 993,6868;1019,2500;4; 24,6; 24,6; 0,0; 0,0;270,0; 44,4
2020-02-06 09:21:59; 2,4; 78; -1,0; 993,8118;1019,3750;4; 24,6; 24,6; 0,0; 0,0;270,0; 44,4
2020-02-06 09:32:00; 2,4; 78; -1,0; 993,8118;1019,3750;4; 24,6; 24,6; 0,0; 0,0;270,0; 44,4
2020-02-06 09:41:59; 2,4; 78; -1,0; 993,9993;1019,5625;4; 24,6; 24,6; 0,0; 0,0;270,0; 44,4
2020-02-06 09:52:00; 2,4; 79; -0,9; 993,9993;1019,5625;4; 24,6; 24,6; 0,0; 0,0;270,0; 44,4
2020-02-06 10:01:59; 2,5; 80; -0,6; 993,9993;1019,5625;4; 24,6; 24,6; 0,0; 0,0;270,0; 44,4
2020-02-06 10:12:00; 2,5; 80; -0,6; 993,9993;1019,5625;4; 24,4; 24,4; 0,0; 0,0;270,0; 44,4
2020-02-06 10:21:59; 2,6; 80; -0,5; 993,6243;1019,1875;4; 24,4; 24,4; 0,0; 0,0;270,0; 44,4
2020-02-06 10:32:00; 2,6; 80; -0,5; 993,6243;1019,1875;4; 24,4; 24,4; 0,0; 0,0;270,0; 44,4
2020-02-06 10:42:00; 2,7; 80; -0,4; 993,1243;1018,6875;4; 24,4; 24,4; 0,0; 0,0;270,0; 44,4
2020-02-06 10:51:59; 2,8; 80; -0,3; 993,1243;1018,6875;4; 24,4; 24,4; 0,0; 0,0;270,0; 44,4
2020-02-06 11:02:00; 3,0; 79; -0,3; 992,6868;1018,2500;4; 24,5; 24,5; 0,0; 0,0;270,0; 44,4
2020-02-06 11:11:59; 3,1; 79; -0,2; 992,6868;1018,2500;4; 24,5; 24,5; 0,0; 0,0;270,0; 44,4
2020-02-06 11:22:00; 3,1; 79; -0,2; 993,1868;1018,7500;4; 24,6; 24,6; 0,0; 0,0;270,0; 44,4
2020-02-06 11:31:59; 3,1; 79; -0,2; 993,1868;1018,7500;4; 24,6; 24,6; 0,0; 0,0;270,0; 44,4
2020-02-06 11:42:00; 3,2; 80; 0,1; 993,1243;1018,6875;4; 24,6; 24,6; 0,0; 0,0;270,0; 44,4
2020-02-06 11:51:59; 3,3; 81; 0,4; 993,1243;1018,6875;4; 24,6; 24,6; 0,0; 0,0;270,0; 44,4
2020-02-06 12:02:00; 3,2; 82; 0,4; 993,1243;1018,6875;4; 24,6; 24,6; 0,0; 0,0;270,0; 44,4
2020-02-06 12:12:00; 3,3; 81; 0,4; 993,1243;1018,6875;4; 24,6; 24,6; 0,0; 0,0;270,0; 44,4
2020-02-06 12:21:59; 3,3; 81; 0,4; 993,1243;1018,6875;4; 24,6; 24,6; 0,0; 0,0;270,0; 44,4
2020-02-06 12:32:00; 3,6; 81; 0,6; 993,1243;1018,6875;4; 24,6; 24,6; 0,0; 0,0;270,0; 44,4
2020-02-06 12:41:59; 3,8; 81; 0,8; 993,0618;1018,6250;4; 24,6; 24,6; 0,0; 0,0;270,0; 44,4
2020-02-06 12:52:00; 3,8; 80; 0,7; 993,0618;1018,6250;4; 24,6; 24,6; 0,0; 0,0;270,0; 44,4
2020-02-06 13:01:59; 3,9; 80; 0,8; 992,6868;1018,2500;4; 24,6; 24,6; 0,0; 0,0;270,0; 44,4
2020-02-06 13:12:00; 3,8; 80; 0,7; 992,6868;1018,2500;4; 24,6; 24,6; 0,0; 0,0;270,0; 44,4
2020-02-06 13:21:59; 4,0; 80; 0,9; 992,5618;1018,1250;4; 24,6; 24,6; 0,0; 0,0;270,0; 44,4
2020-02-06 13:32:00; 4,1; 80; 1,0; 992,5618;1018,1250;4; 24,6; 24,6; 0,0; 0,0;270,0; 44,4
2020-02-06 13:42:00; 4,1; 79; 0,8; 992,3118;1017,8750;4; 24,6; 24,6; 0,0; 0,0;270,0; 44,4
2020-02-06 13:51:59; 4,2; 79; 0,9; 992,3118;1017,8750;4; 24,6; 24,6; 0,0; 0,0;270,0; 44,4
2020-02-06 14:02:00; 4,3; 79; 1,0; 991,9993;1017,5625;4; 24,6; 24,6; 0,0; 0,0;270,0; 44,4
2020-02-06 14:11:59; 4,2; 78; 0,7; 991,9993;1017,5625;4; 24,6; 24,6; 0,0; 0,0;270,0; 44,4
2020-02-06 14:22:00; 4,3; 78; 0,8; 991,9368;1017,5000;4; 24,6; 24,6; 0,0; 0,0;270,0; 44,4
2020-02-06 14:31:59; 4,4; 77; 0,7; 991,9368;1017,5000;4; 24,6; 24,6; 0,0; 0,0;270,0; 44,4
2020-02-06 14:42:00; 4,4; 77; 0,7; 992,0618;1017,6250;4; 24,6; 24,6; 0,0; 0,0;270,0; 44,4
2020-02-06 14:51:59; 4,5; 76; 0,6; 992,0618;1017,6250;4; 24,6; 24,6; 0,0; 0,0;270,0; 44,4
2020-02-06 15:02:00; 4,3; 76; 0,4; 992,3743;1017,9375;4; 24,6; 24,6; 0,0; 0,0;270,0; 44,4
2020-02-06 15:12:00; 4,3; 76; 0,4; 992,3743;1017,9375;4; 24,6; 24,6; 0,0; 0,0;270,0; 44,4
2020-02-06 15:21:59; 4,3; 76; 0,4; 992,3743;1017,9375;4; 24,6; 24,6; 0,0; 0,0;270,0; 44,4
2020-02-06 15:32:00; 4,3; 76; 0,4; 992,3743;1017,9375;4; 24,6; 24,6; 0,0; 0,0;270,0; 44,4
2020-02-06 15:41:59; 4,2; 76; 0,3; 992,4993;1018,0625;4; 24,6; 24,6; 0,0; 0,0;270,0; 44,4
2020-02-06 15:52:00; 4,1; 76; 0,3; 992,4993;1018,0625;4; 24,6; 24,6; 0,0; 0,0;270,0; 44,4
2020-02-06 16:01:59; 4,0; 76; 0,2; 992,6243;1018,1875;4; 24,6; 24,6; 0,0; 0,0;270,0; 44,4
2020-02-06 16:12:00; 3,9; 76; 0,1; 992,6243;1018,1875;4; 24,6; 24,6; 0,0; 0,0;270,0; 44,4
2020-02-06 16:21:59; 3,9; 76; 0,1; 992,4993;1018,0625;4; 24,6; 24,6; 0,0; 0,0;270,0; 44,4
2020-02-06 16:32:00; 3,9; 76; 0,1; 992,4993;1018,0625;4; 24,5; 24,5; 0,0; 0,0;270,0; 44,4
2020-02-06 16:42:00; 3,9; 76; 0,1; 992,4993;1018,0625;4; 24,5; 24,5; 0,0; 0,0;270,0; 44,4
2020-02-06 16:51:59; 3,8; 76; 0,0; 992,4993;1018,0625;4; 24,5; 24,5; 0,0; 0,0;270,0; 44,4
2020-02-06 17:02:00; 3,8; 77; 0,1; 992,6243;1018,1875;4; 24,5; 24,5; 0,0; 0,0;270,0; 44,4
2020-02-06 17:11:59; 3,7; 77; 0,0; 992,6243;1018,1875;4; 24,5; 24,5; 0,0; 0,0;270,0; 44,4
2020-02-06 17:22:00; 3,7; 77; 0,0; 992,3118;1017,8750;4; 24,5; 24,5; 0,0; 0,0;270,0; 44,4
2020-02-06 17:31:59; 3,7; 77; 0,0; 992,3118;1017,8750;4; 24,5; 24,5; 0,0; 0,0;270,0; 44,4
2020-02-06 17:42:00; 3,7; 77; 0,0; 992,2493;1017,8125;4; 24,5; 24,5; 0,0; 0,0;270,0; 44,4
2020-02-06 17:51:59; 3,7; 77; 0,0; 992,2493;1017,8125;4; 24,5; 24,5; 0,0; 0,0;270,0; 44,4
2020-02-06 18:02:00; 3,7; 78; 0,2; 992,3118;1017,8750;4; 24,5; 24,5; 0,0; 0,0;270,0; 44,4
2020-02-06 18:12:00; 3,7; 78; 0,2; 992,3118;1017,8750;4; 24,5; 24,5; 0,0; 0,0;270,0; 44,4
2020-02-06 18:21:59; 3,7; 78; 0,2; 992,4368;1018,0000;4; 24,5; 24,5; 0,0; 0,0;270,0; 44,4
2020-02-06 18:32:00; 3,7; 78; 0,2; 992,4368;1018,0000;4; 24,5; 24,5; 0,0; 0,0;270,0; 44,4
2020-02-06 18:41:59; 3,7; 78; 0,2; 992,4368;1018,0000;4; 24,5; 24,5; 0,0; 0,0;270,0; 44,4
2020-02-06 18:52:00; 3,7; 78; 0,2; 992,4368;1018,0000;4; 24,5; 24,5; 0,0; 0,0;270,0; 44,4
2020-02-06 19:01:59; 3,7; 78; 0,2; 992,4993;1018,0625;4; 24,4; 24,4; 0,0; 0,0;270,0; 44,4
2020-02-06 19:12:00; 3,7; 78; 0,2; 992,4993;1018,0625;4; 24,4; 24,4; 0,0; 0,0;270,0; 44,4
2020-02-06 19:21:59; 3,7; 78; 0,2; 992,6243;1018,1875;4; 24,4; 24,4; 0,0; 0,0;270,0; 44,4
2020-02-06 19:32:00; 3,7; 78; 0,2; 992,6243;1018,1875;4; 24,4; 24,4; 0,0; 0,0;270,0; 44,4
2020-02-06 19:42:00; 3,7; 78; 0,2; 992,6243;1018,1875;4; 24,4; 24,4; 0,0; 0,0;270,0; 44,4
2020-02-06 19:51:59; 3,7; 78; 0,2; 992,6243;1018,1875;4; 24,4; 24,4; 0,0; 0,0;270,0; 44,4
2020-02-06 20:02:00; 3,7; 78; 0,2; 992,6243;1018,1875;4; 24,4; 24,4; 0,0; 0,0;270,0; 44,4
2020-02-06 20:11:59; 3,7; 78; 0,2; 992,6243;1018,1875;4; 24,4; 24,4; 0,0; 0,0;270,0; 44,4
2020-02-06 20:22:00; 3,7; 78; 0,2; 992,6868;1018,2500;4; 24,4; 24,4; 0,0; 0,0;270,0; 44,4
2020-02-06 20:31:59; 3,8; 77; 0,1; 992,6868;1018,2500;4; 24,4; 24,4; 0,0; 0,0;270,0; 44,4
2020-02-06 20:42:00; 3,8; 77; 0,1; 992,7493;1018,3125;4; 24,4; 24,4; 0,0; 0,0;270,0; 44,4
2020-02-06 20:51:59; 3,8; 77; 0,1; 992,7493;1018,3125;4; 24,4; 24,4; 0,0; 0,0;270,0; 44,4
2020-02-06 21:02:00; 3,7; 78; 0,2; 992,5618;1018,1250;4; 24,4; 24,4; 0,0; 0,0;270,0; 44,4
2020-02-06 21:12:00; 3,7; 78; 0,2; 992,5618;1018,1250;4; 24,4; 24,4; 0,0; 0,0;270,0; 44,4
2020-02-06 21:21:59; 3,6; 79; 0,3; 992,8743;1018,4375;4; 24,4; 24,4; 0,0; 0,0;270,0; 44,4
2020-02-06 21:32:00; 3,6; 79; 0,3; 992,8743;1018,4375;4; 24,4; 24,4; 0,0; 0,0;270,0; 44,4
2020-02-06 21:41:59; 3,5; 79; 0,2; 992,6868;1018,2500;4; 24,4; 24,4; 0,0; 0,0;270,0; 44,4
2020-02-06 21:52:00; 3,5; 79; 0,2; 992,6868;1018,2500;4; 24,4; 24,4; 0,0; 0,0;270,0; 44,4
2020-02-06 22:01:59; 3,5; 79; 0,2; 992,8118;1018,3750;4; 24,4; 24,4; 0,0; 0,0;270,0; 44,4
2020-02-06 22:12:00; 3,5; 79; 0,2; 992,8118;1018,3750;4; 24,4; 24,4; 0,0; 0,0;270,0; 44,4
2020-02-06 22:21:59; 3,5; 79; 0,2; 992,7493;1018,3125;4; 24,4; 24,4; 0,0; 0,0;270,0; 44,4
2020-02-06 22:32:00; 3,5; 79; 0,2; 992,7493;1018,3125;4; 24,4; 24,4; 0,0; 0,0;270,0; 44,4
2020-02-06 22:42:00; 3,5; 79; 0,2; 992,5618;1018,1250;4; 24,4; 24,4; 0,0; 0,0;270,0; 44,4
2020-02-06 22:51:59; 3,5; 79; 0,2; 992,5618;1018,1250;4; 24,4; 24,4; 0,0; 0,0;270,0; 44,4
2020-02-06 23:02:00; 3,5; 79; 0,2; 992,4368;1018,0000;4; 24,4; 24,4; 0,0; 0,0;270,0; 44,4
2020-02-06 23:11:59; 3,5; 78; 0,0; 992,4368;1018,0000;4; 24,4; 24,4; 0,0; 0,0;270,0; 44,4
2020-02-06 23:22:00; 3,5; 78; 0,0; 992,6243;1018,1875;4; 24,4; 24,4; 0,0; 0,0;270,0; 44,4
2020-02-06 23:31:59; 3,5; 78; 0,0; 992,6243;1018,1875;4; 24,4; 24,4; 0,0; 0,0;270,0; 44,4
2020-02-06 23:42:00; 3,5; 78; 0,0; 992,5618;1018,1250;4; 24,4; 24,4; 0,0; 0,0;270,0; 44,4
2020-02-06 23:51:59; 3,5; 78; 0,0; 992,5618;1018,1250;4; 24,4; 24,4; 0,0; 0,0;270,0; 44,4
2020-02-07 00:02:00; 3,5; 79; 0,2; 992,6868;1018,2500;4; 24,4; 24,4; 0,0; 0,0;270,0; 44,4
2020-02-07 00:12:00; 3,4; 79; 0,1; 992,6868;1018,2500;4; 24,4; 24,4; 0,0; 0,0;270,0; 44,4
2020-02-07 00:21:59; 3,4; 80; 0,3; 992,4368;1018,0000;4; 24,4; 24,4; 0,0; 0,0;270,0; 44,4
2020-02-07 00:32:00; 3,4; 81; 0,4; 992,4368;1018,0000;4; 24,4; 24,4; 0,0; 0,0;270,0; 44,4
2020-02-07 00:41:59; 3,3; 81; 0,4; 992,5618;1018,1250;4; 24,4; 24,4; 0,0; 0,0;270,0; 44,4
2020-02-07 00:52:00; 3,3; 81; 0,4; 992,5618;1018,1250;4; 24,4; 24,4; 0,0; 0,0;270,0; 44,4
2020-02-07 01:01:59; 3,2; 82; 0,4; 992,5618;1018,1250;4; 24,4; 24,4; 0,0; 0,0;270,0; 44,4
2020-02-07 01:12:00; 3,2; 82; 0,4; 992,5618;1018,1250;4; 24,4; 24,4; 0,0; 0,0;270,0; 44,4
2020-02-07 01:21:59; 3,1; 82; 0,3; 992,4993;1018,0625;4; 24,4; 24,4; 0,0; 0,0;270,0; 44,4
2020-02-07 01:32:00; 3,1; 82; 0,3; 992,4993;1018,0625;4; 24,4; 24,4; 0,0; 0,0;270,0; 44,4
2020-02-07 01:42:00; 3,1; 82; 0,3; 992,3118;1017,8750;4; 24,4; 24,4; 0,0; 0,0;270,0; 44,4
2020-02-07 01:51:59; 3,1; 83; 0,5; 992,3118;1017,8750;4; 24,4; 24,4; 0,0; 0,0;270,0; 44,4
2020-02-07 02:02:00; 3,1; 83; 0,5; 992,4993;1018,0625;4; 24,4; 24,4; 0,0; 0,0;270,0; 44,4
2020-02-07 02:11:59; 3,1; 83; 0,5; 992,4993;1018,0625;4; 24,3; 24,3; 0,0; 0,0;270,0; 44,4
2020-02-07 02:22:00; 3,1; 82; 0,3; 992,5618;1018,1250;4; 24,3; 24,3; 0,0; 0,0;270,0; 44,4
2020-02-07 02:31:59; 3,1; 82; 0,3; 992,5618;1018,1250;4; 24,3; 24,3; 0,0; 0,0;270,0; 44,4
2020-02-07 02:42:00; 3,1; 83; 0,5; 992,5618;1018,1250;4; 24,3; 24,3; 0,0; 0,0;270,0; 44,4
2020-02-07 02:51:59; 3,1; 83; 0,5; 992,5618;1018,1250;4; 24,3; 24,3; 0,0; 0,0;270,0; 44,4
2020-02-07 03:02:00; 3,1; 83; 0,5; 992,5618;1018,1250;4; 24,3; 24,3; 0,0; 0,0;270,0; 44,4
2020-02-07 03:12:00; 3,1; 83; 0,5; 992,5618;1018,1250;4; 24,3; 24,3; 0,0; 0,0;270,0; 44,4
2020-02-07 03:21:59; 3,1; 83; 0,5; 992,6868;1018,2500;4; 24,3; 24,3; 0,0; 0,0;270,0; 44,4
2020-02-07 03:32:00; 3,1; 84; 0,7; 992,6868;1018,2500;4; 24,3; 24,3; 0,0; 0,0;270,0; 44,4
2020-02-07 03:41:59; 3,0; 84; 0,6; 992,3743;1017,9375;4; 24,3; 24,3; 0,0; 0,0;270,0; 44,4
2020-02-07 03:52:00; 3,0; 84; 0,6; 992,3743;1017,9375;4; 24,3; 24,3; 0,0; 0,0;270,0; 44,4
2020-02-07 04:01:59; 3,0; 85; 0,7; 992,6868;1018,2500;4; 24,3; 24,3; 0,0; 0,0;270,0; 44,4
2020-02-07 04:12:00; 3,0; 85; 0,7; 992,6868;1018,2500;4; 24,3; 24,3; 0,0; 0,0;270,0; 44,4
2020-02-07 04:21:59; 3,0; 85; 0,7; 992,6868;1018,2500;4; 24,3; 24,3; 0,0; 0,0;270,0; 44,4
2020-02-07 04:32:00; 3,0; 85; 0,7; 992,6868;1018,2500;4; 24,3; 24,3; 0,0; 0,0;270,0; 44,4
2020-02-07 04:42:00; 3,0; 86; 0,9; 992,8118;1018,3750;4; 24,3; 24,3; 0,0; 0,0;270,0; 44,4
2020-02-07 04:51:59; 3,0; 86; 0,9; 992,8118;1018,3750;4; 24,3; 24,3; 0,0; 0,0;270,0; 44,4
2020-02-07 05:02:00; 3,1; 86; 1,0; 992,8743;1018,4375;4; 24,3; 24,3; 0,0; 0,0;270,0; 44,4
2020-02-07 05:11:59; 3,1; 86; 1,0; 992,8743;1018,4375;4; 24,3; 24,3; 0,0; 0,0;270,0; 44,4
2020-02-07 05:22:00; 3,1; 86; 1,0; 992,8118;1018,3750;4; 24,3; 24,3; 0,0; 0,0;270,0; 44,4
2020-02-07 05:31:59; 3,1; 86; 1,0; 992,8118;1018,3750;4; 24,3; 24,3; 0,0; 0,0;270,0; 44,4
2020-02-07 05:42:00; 3,1; 87; 1,1; 992,9993;1018,5625;4; 24,3; 24,3; 0,0; 0,0;270,0; 44,4
2020-02-07 05:51:59; 3,1; 87; 1,1; 992,9993;1018,5625;4; 24,3; 24,3; 0,0; 0,0;270,0; 44,4
2020-02-07 06:02:00; 3,1; 87; 1,1; 993,0618;1018,6250;4; 24,3; 24,3; 0,0; 0,0;270,0; 44,4
2020-02-07 06:12:00; 3,1; 88; 1,3; 993,0618;1018,6250;4; 24,3; 24,3; 0,0; 0,0;270,0; 44,4
2020-02-07 06:21:59; 3,0; 87; 1,0; 992,8118;1018,3750;4; 24,3; 24,3; 0,0; 0,0;270,0; 44,4
2020-02-07 06:32:00; 3,0; 87; 1,0; 992,8118;1018,3750;4; 24,3; 24,3; 0,0; 0,0;270,0; 44,4
2020-02-07 06:41:59; 3,0; 88; 1,2; 993,3118;1018,8750;4; 24,3; 24,3; 0,0; 0,0;270,0; 44,4
2020-02-07 06:52:00; 3,0; 88; 1,2; 993,3118;1018,8750;4; 24,3; 24,3; 0,0; 0,0;270,0; 44,4
2020-02-07 07:01:59; 2,9; 89; 1,3; 993,3118;1018,8750;4; 24,3; 24,3; 0,0; 0,0;270,0; 44,4
2020-02-07 07:12:00; 3,0; 88; 1,2; 993,3118;1018,8750;4; 24,3; 24,3; 0,0; 0,0;270,0; 44,4
2020-02-07 07:21:59; 3,0; 88; 1,2; 993,1243;1018,6875;4; 24,3; 24,3; 0,0; 0,0;270,0; 44,4
2020-02-07 07:32:00; 3,0; 89; 1,4; 993,1243;1018,6875;4; 24,3; 24,3; 0,0; 0,0;270,0; 44,4
2020-02-07 07:42:00; 3,1; 89; 1,5; 993,3743;1018,9375;4; 24,3; 24,3; 0,0; 0,0;270,0; 44,4
2020-02-07 07:51:59; 3,1; 89; 1,5; 993,3743;1018,9375;4; 24,3; 24,3; 0,0; 0,0;270,0; 44,4
2020-02-07 08:02:00; 3,1; 89; 1,5; 993,4368;1019,0000;4; 24,3; 24,3; 0,0; 0,0;270,0; 44,4
2020-02-07 08:11:59; 3,3; 89; 1,7; 993,4368;1019,0000;4; 24,3; 24,3; 0,0; 0,0;270,0; 44,4
2020-02-07 08:22:00; 3,3; 89; 1,7; 993,9993;1019,5625;4; 24,3; 24,3; 0,0; 0,0;270,0; 44,4
2020-02-07 08:31:59; 3,4; 89; 1,8; 993,9993;1019,5625;4; 24,4; 24,4; 0,0; 0,0;270,0; 44,4
2020-02-07 08:42:00; 3,5; 89; 1,9; 993,8743;1019,4375;4; 24,4; 24,4; 0,0; 0,0;270,0; 44,4
2020-02-07 08:51:59; 3,5; 89; 1,9; 993,8743;1019,4375;4; 24,5; 24,5; 0,0; 0,0;270,0; 44,4
2020-02-07 09:02:00; 3,7; 89; 2,1; 994,1243;1019,6875;4; 24,6; 24,6; 0,0; 0,0;270,0; 44,4
2020-02-07 09:12:00; 3,7; 89; 2,1; 994,1243;1019,6875;4; 24,6; 24,6; 0,0; 0,0;270,0; 44,4
2020-02-07 09:21:59; 3,7; 89; 2,1; 994,1243;1019,6875;4; 24,6; 24,6; 0,0; 0,0;270,0; 44,4
2020-02-07 09:32:00; 3,9; 89; 2,3; 994,1243;1019,6875;4; 24,6; 24,6; 0,0; 0,0;270,0; 44,4
2020-02-07 09:41:59; 4,0; 89; 2,4; 994,2493;1019,8125;4; 24,7; 24,7; 0,0; 0,0;270,0; 44,4
2020-02-07 09:52:00; 4,0; 89; 2,4; 994,2493;1019,8125;4; 24,7; 24,7; 0,0; 0,0;270,0; 44,4
2020-02-07 10:01:59; 4,1; 89; 2,5; 994,4368;1020,0000;4; 24,8; 24,8; 0,0; 0,0;270,0; 44,4
2020-02-07 10:12:00; 4,2; 89; 2,5; 994,4368;1020,0000;4; 24,8; 24,8; 0,0; 0,0;270,0; 44,4
2020-02-07 10:21:59; 4,2; 88; 2,4; 994,4368;1020,0000;4; 24,8; 24,8; 0,0; 0,0;270,0; 44,4
2020-02-07 10:32:00; 4,3; 88; 2,5; 994,4368;1020,0000;4; 24,7; 24,7; 0,0; 0,1;247,5; 44,4
2020-02-07 10:42:00; 4,4; 88; 2,6; 994,2493;1019,8125;4; 24,6; 24,6; 0,0; 0,0;247,5; 44,4
2020-02-07 10:51:59; 4,6; 87; 2,6; 994,2493;1019,8125;4; 24,6; 24,6; 0,0; 0,0;247,5; 44,4
2020-02-07 11:02:00; 4,6; 87; 2,6; 994,1868;1019,7500;4; 24,6; 24,6; 0,0; 0,0;247,5; 44,4
2020-02-07 11:11:59; 4,8; 87; 2,8; 994,1868;1019,7500;4; 24,6; 24,6; 0,0; 0,0;247,5; 44,4
2020-02-07 11:22:00; 4,9; 86; 2,8; 994,1243;1019,6875;4; 24,6; 24,6; 0,0; 0,0;247,5; 44,4
2020-02-07 11:31:59; 4,8; 86; 2,7; 994,1243;1019,6875;4; 24,6; 24,6; 0,0; 0,0;247,5; 44,4
2020-02-07 11:42:00; 4,8; 85; 2,5; 994,4993;1020,0625;4; 24,6; 24,6; 0,0; 0,0;247,5; 44,4
2020-02-07 11:51:59; 5,0; 86; 2,9; 994,4993;1020,0625;4; 24,6; 24,6; 0,0; 0,0;247,5; 44,4
2020-02-07 12:02:00; 5,1; 85; 2,8; 994,4368;1020,0000;4; 24,7; 24,7; 0,0; 0,0;247,5; 44,4
2020-02-07 12:12:00; 5,1; 85; 2,8; 994,4368;1020,0000;4; 24,7; 24,7; 0,0; 0,0;247,5; 44,4
2020-02-07 12:21:59; 5,2; 84; 2,7; 994,4368;1020,0000;4; 24,7; 24,7; 0,0; 0,0;247,5; 44,4
2020-02-07 12:32:00; 5,1; 84; 2,6; 994,4368;1020,0000;4; 24,7; 24,7; 0,0; 0,0;247,5; 44,4
2020-02-07 12:41:59; 5,1; 84; 2,6; 994,4993;1020,0625;4; 24,7; 24,7; 0,0; 0,0;247,5; 44,4
2020-02-07 12:52:00; 5,1; 84; 2,6; 994,4993;1020,0625;4; 24,7; 24,7; 0,0; 0,0;247,5; 44,4
2020-02-07 13:01:59; 5,1; 85; 2,8; 994,4368;1020,0000;4; 24,7; 24,7; 0,0; 0,0;247,5; 44,4
2020-02-07 13:12:00; 5,2; 84; 2,7; 994,4368;1020,0000;4; 24,7; 24,7; 0,0; 0,0;247,5; 44,4
2020-02-07 13:21:59; 5,2; 84; 2,7; 994,3743;1019,9375;4; 24,7; 24,7; 0,0; 0,0;247,5; 44,4
2020-02-07 13:32:00; 5,3; 84; 2,8; 994,3743;1019,9375;4; 24,7; 24,7; 0,0; 0,0;247,5; 44,4
2020-02-07 13:42:00; 5,5; 84; 3,0; 993,9993;1019,5625;4; 24,7; 24,7; 0,0; 0,0;247,5; 44,4
2020-02-07 13:51:59; 5,5; 83; 2,8; 993,9993;1019,5625;4; 24,7; 24,7; 0,0; 0,0;247,5; 44,4
2020-02-07 14:02:00; 5,5; 83; 2,8; 993,9993;1019,5625;4; 24,7; 24,7; 0,0; 0,0;247,5; 44,4
2020-02-07 14:11:59; 5,5; 83; 2,8; 993,9993;1019,5625;4; 24,7; 24,7; 0,0; 0,0;247,5; 44,4
2020-02-07 14:22:00; 5,6; 83; 2,9; 994,1868;1019,7500;4; 24,6; 24,6; 0,0; 0,0;247,5; 44,4
2020-02-07 14:31:59; 5,7; 83; 3,0; 994,1868;1019,7500;4; 24,6; 24,6; 0,0; 0,0;247,5; 44,4
2020-02-07 14:42:00; 5,6; 82; 2,8; 993,8743;1019,4375;4; 24,5; 24,5; 0,0; 0,0;247,5; 44,4
2020-02-07 14:51:59; 5,6; 83; 2,9; 993,8743;1019,4375;4; 24,5; 24,5; 0,0; 0,0;247,5; 44,4
2020-02-07 15:02:00; 5,6; 83; 2,9; 993,6868;1019,2500;4; 24,4; 24,4; 0,0; 0,0;247,5; 44,4
2020-02-07 15:12:00; 5,5; 83; 2,8; 993,6868;1019,2500;4; 24,4; 24,4; 0,0; 0,0;247,5; 44,4
2020-02-07 15:21:59; 5,5; 83; 2,8; 993,6243;1019,1875;4; 24,3; 24,3; 0,0; 0,0;247,5; 44,4
2020-02-07 15:32:00; 5,5; 83; 2,8; 993,6243;1019,1875;4; 24,3; 24,3; 0,0; 0,0;247,5; 44,4
2020-02-07 15:41:59; 5,5; 83; 2,8; 993,6243;1019,1875;4; 24,2; 24,2; 0,0; 0,0;247,5; 44,4
2020-02-07 15:52:00; 5,4; 83; 2,7; 993,6243;1019,1875;4; 24,2; 24,2; 0,0; 0,0;247,5; 44,4
2020-02-07 16:01:59; 5,2; 83; 2,5; 993,4368;1019,0000;4; 24,2; 24,2; 0,0; 0,0;247,5; 44,4
2020-02-07 16:12:00; 5,2; 83; 2,5; 993,4368;1019,0000;4; 24,2; 24,2; 0,0; 0,0;247,5; 44,4
2020-02-07 16:21:59; 5,1; 83; 2,5; 993,4368;1019,0000;4; 24,2; 24,2; 0,0; 0,0;247,5; 44,4
2020-02-07 16:32:00; 5,1; 84; 2,6; 993,4368;1019,0000;4; 24,1; 24,1; 0,0; 0,0;247,5; 44,4
2020-02-07 16:42:00; 5,0; 84; 2,5; 993,3118;1018,8750;4; 24,1; 24,1; 0,0; 0,0;247,5; 44,4
2020-02-07 16:51:59; 4,9; 84; 2,4; 993,3118;1018,8750;4; 24,1; 24,1; 0,0; 0,0;247,5; 44,4
2020-02-07 17:02:00; 4,8; 84; 2,3; 993,4368;1019,0000;4; 24,1; 24,1; 0,0; 0,0;247,5; 44,4
2020-02-07 17:11:59; 4,7; 85; 2,4; 993,4368;1019,0000;4; 24,1; 24,1; 0,0; 0,0;247,5; 44,4
2020-02-07 17:22:00; 4,7; 85; 2,4; 993,4368;1019,0000;4; 24,1; 24,1; 0,0; 0,0;247,5; 44,4
2020-02-07 17:31:59; 4,7; 85; 2,4; 993,4368;1019,0000;4; 24,1; 24,1; 0,0; 0,0;247,5; 44,4
2020-02-07 17:42:00; 4,6; 86; 2,5; 993,1868;1018,7500;4; 24,1; 24,1; 0,0; 0,0;247,5; 44,4
2020-02-07 17:51:59; 4,6; 86; 2,5; 993,1868;1018,7500;4; 24,0; 24,0; 0,0; 0,0;247,5; 44,4
2020-02-07 18:02:00; 4,5; 86; 2,4; 993,0618;1018,6250;4; 24,0; 24,0; 0,0; 0,0;247,5; 44,4
2020-02-07 18:12:00; 4,5; 86; 2,4; 993,0618;1018,6250;4; 24,0; 24,0; 0,0; 0,0;247,5; 44,4
2020-02-07 18:21:59; 4,4; 86; 2,3; 992,9993;1018,5625;4; 24,0; 24,0; 0,0; 0,0;247,5; 44,4
2020-02-07 18:32:00; 4,4; 86; 2,3; 992,9993;1018,5625;4; 24,0; 24,0; 0,0; 0,0;247,5; 44,4
2020-02-07 18:41:59; 4,3; 86; 2,2; 992,9368;1018,5000;4; 24,0; 24,0; 0,0; 0,0;247,5; 44,4
2020-02-07 18:52:00; 4,3; 86; 2,2; 992,9368;1018,5000;4; 24,0; 24,0; 0,0; 0,0;247,5; 44,4
2020-02-07 19:01:59; 4,3; 86; 2,2; 992,6243;1018,1875;4; 23,9; 23,9; 0,0; 0,0;247,5; 44,4
2020-02-07 19:12:00; 4,3; 86; 2,2; 992,6243;1018,1875;4; 23,9; 23,9; 0,0; 0,0;247,5; 44,4
2020-02-07 19:21:59; 4,3; 86; 2,2; 992,7493;1018,3125;4; 23,9; 23,9; 0,0; 0,0;247,5; 44,4
2020-02-07 19:32:00; 4,2; 86; 2,1; 992,7493;1018,3125;4; 23,9; 23,9; 0,0; 0,0;247,5; 44,4
2020-02-07 19:42:00; 4,1; 86; 2,0; 992,4368;1018,0000;4; 23,9; 23,9; 0,0; 0,0;247,5; 44,4
2020-02-07 19:51:59; 4,1; 86; 2,0; 992,4368;1018,0000;4; 23,9; 23,9; 0,0; 0,0;247,5; 44,4
2020-02-07 20:02:00; 4,1; 86; 2,0; 992,5618;1018,1250;4; 23,9; 23,9; 0,0; 0,0;247,5; 44,4
2020-02-07 20:11:59; 4,0; 85; 1,7; 992,5618;1018,1250;4; 23,9; 23,9; 0,0; 0,0;247,5; 44,4
2020-02-07 20:22:00; 3,7; 85; 1,4; 992,3118;1017,8750;4; 23,9; 23,9; 0,0; 0,0;247,5; 44,4
2020-02-07 20:31:59; 3,5; 84; 1,1; 992,3118;1017,8750;4; 23,9; 23,9; 0,0; 0,0;247,5; 44,4
2020-02-07 20:42:00; 3,4; 83; 0,8; 992,3118;1017,8750;4; 23,9; 23,9; 0,0; 0,0;247,5; 44,4
2020-02-07 20:51:59; 3,3; 83; 0,7; 992,3118;1017,8750;4; 23,9; 23,9; 0,0; 0,0;247,5; 44,4
2020-02-07 21:02:00; 3,3; 85; 1,0; 992,2493;1017,8125;4; 23,9; 23,9; 0,0; 0,0;247,5; 44,4
2020-02-07 21:12:00; 3,2; 85; 0,9; 992,2493;1017,8125;4; 23,9; 23,9; 0,0; 0,0;247,5; 44,4
2020-02-07 21:21:59; 3,0; 84; 0,6; 992,0618;1017,6250;4; 23,9; 23,9; 0,0; 0,0;247,5; 44,4
2020-02-07 21:32:00; 2,7; 84; 0,3; 992,0618;1017,6250;4; 23,9; 23,9; 0,0; 0,0;247,5; 44,4
2020-02-07 21:41:59; 2,5; 85; 0,2; 991,8118;1017,3750;4; 23,8; 23,8; 0,0; 0,0;247,5; 44,4
2020-02-07 21:52:00; 2,4; 86; 0,3; 991,8118;1017,3750;4; 23,8; 23,8; 0,0; 0,0;247,5; 44,4
2020-02-07 22:01:59; 2,3; 86; 0,2; 991,4993;1017,0625;4; 23,8; 23,8; 0,0; 0,0;247,5; 44,4
2020-02-07 22:12:00; 2,1; 86; 0,0; 991,4993;1017,0625;4; 23,8; 23,8; 0,0; 0,0;247,5; 44,4
2020-02-07 22:21:59; 2,0; 87; 0,1; 991,4368;1017,0000;4; 23,8; 23,8; 0,0; 0,0;247,5; 44,4
2020-02-07 22:32:00; 1,9; 87; 0,0; 991,4368;1017,0000;4; 23,8; 23,8; 0,0; 0,0;247,5; 44,4
2020-02-07 22:42:00; 1,8; 88; 0,0; 991,3743;1016,9375;4; 23,8; 23,8; 0,0; 0,0;247,5; 44,4
2020-02-07 22:51:59; 1,7; 88; -0,1; 991,3743;1016,9375;4; 23,8; 23,8; 0,0; 0,0;247,5; 44,4
2020-02-07 23:02:00; 1,5; 87; -0,4; 991,3743;1016,9375;4; 23,8; 23,8; 0,0; 0,0;247,5; 44,4
2020-02-07 23:11:59; 1,4; 87; -0,5; 991,3743;1016,9375;4; 23,8; 23,8; 0,0; 0,0;247,5; 44,4
2020-02-07 23:22:00; 1,2; 87; -0,7; 991,3118;1016,8750;4; 23,8; 23,8; 0,0; 0,0;247,5; 44,4
2020-02-07 23:31:59; 1,0; 88; -0,8; 991,3118;1016,8750;4; 23,8; 23,8; 0,0; 0,0;247,5; 44,4
2020-02-07 23:42:00; 0,9; 87; -1,0; 991,1868;1016,7500;4; 23,8; 23,8; 0,0; 0,0;247,5; 44,4
2020-02-07 23:51:59; 0,9; 87; -1,0; 991,1868;1016,7500;4; 23,8; 23,8; 0,0; 0,0;247,5; 44,4
2020-02-08 00:02:00; 0,8; 87; -1,1; 990,9368;1016,5000;4; 23,8; 23,8; 0,0; 0,0;247,5; 44,4
2020-02-08 00:12:00; 0,7; 87; -1,2; 990,9368;1016,5000;4; 23,8; 23,8; 0,0; 0,0;247,5; 44,4
2020-02-08 00:21:59; 0,7; 87; -1,2; 990,5618;1016,1250;4; 23,8; 23,8; 0,0; 0,0;247,5; 44,4
2020-02-08 00:32:00; 0,6; 87; -1,3; 990,5618;1016,1250;4; 23,8; 23,8; 0,0; 0,0;247,5; 44,4
2020-02-08 00:41:59; 0,5; 87; -1,4; 990,6243;1016,1875;4; 23,8; 23,8; 0,0; 0,0;247,5; 44,4
2020-02-08 00:52:00; 0,3; 87; -1,6; 990,6243;1016,1875;4; 23,8; 23,8; 0,0; 0,0;247,5; 44,4
2020-02-08 01:01:59; 0,2; 87; -1,7; 990,5618;1016,1250;4; 23,8; 23,8; 0,0; 0,0;247,5; 44,4
2020-02-08 01:12:00; 0,1; 87; -1,8; 990,5618;1016,1250;4; 23,8; 23,8; 0,0; 0,0;247,5; 44,4
2020-02-08 01:21:59; 0,1; 87; -1,8; 990,5618;1016,1250;4; 23,8; 23,8; 0,0; 0,0;247,5; 44,4
2020-02-08 01:32:00; 0,1; 87; -1,8; 990,5618;1016,1250;4; 23,8; 23,8; 0,0; 0,0;247,5; 44,4
2020-02-08 01:42:00; 0,0; 87; -1,9; 990,4368;1016,0000;4; 23,8; 23,8; 0,0; 0,0;247,5; 44,4
2020-02-08 01:51:59; -0,1; 87; -2,0; 990,4368;1016,0000;4; 23,8; 23,8; 0,0; 0,0;247,5; 44,4
2020-02-08 02:02:00; -0,1; 87; -2,0; 990,3118;1015,8750;4; 23,8; 23,8; 0,0; 0,0;247,5; 44,4
2020-02-08 02:11:59; -0,2; 88; -1,9; 990,3118;1015,8750;4; 23,8; 23,8; 0,0; 0,0;247,5; 44,4
2020-02-08 02:22:00; -0,3; 87; -2,2; 990,0618;1015,6250;4; 23,7; 23,7; 0,0; 0,0;247,5; 44,4
2020-02-08 02:31:59; -0,3; 88; -2,0; 990,0618;1015,6250;4; 23,7; 23,7; 0,0; 0,0;247,5; 44,4
2020-02-08 02:42:00; -0,3; 88; -2,0; 989,9993;1015,5625;4; 23,8; 23,8; 0,0; 0,0;247,5; 44,4
2020-02-08 02:51:59; -0,4; 88; -2,1; 989,9993;1015,5625;4; 23,7; 23,7; 0,0; 0,0;247,5; 44,4
2020-02-08 03:02:00; -0,5; 88; -2,2; 989,9368;1015,5000;4; 23,7; 23,7; 0,0; 0,0;247,5; 44,4
2020-02-08 03:12:00; -0,5; 87; -2,4; 989,9368;1015,5000;4; 23,7; 23,7; 0,0; 0,0;247,5; 44,4
2020-02-08 03:21:59; -0,5; 87; -2,4; 989,9368;1015,5000;4; 23,7; 23,7; 0,0; 0,0;247,5; 44,4
2020-02-08 03:32:00; -0,6; 87; -2,5; 989,9368;1015,5000;4; 23,7; 23,7; 0,0; 0,0;247,5; 44,4
2020-02-08 03:41:59; -0,7; 88; -2,4; 989,9368;1015,5000;4; 23,7; 23,7; 0,0; 0,0;247,5; 44,4
2020-02-08 03:52:00; -0,7; 88; -2,4; 989,9368;1015,5000;4; 23,7; 23,7; 0,0; 0,0;247,5; 44,4
2020-02-08 04:01:59; -0,7; 88; -2,4; 989,8118;1015,3750;4; 23,7; 23,7; 0,0; 0,0;247,5; 44,4
2020-02-08 04:12:00; -0,7; 88; -2,4; 989,8118;1015,3750;4; 23,7; 23,7; 0,0; 0,0;247,5; 44,4
2020-02-08 04:21:59; -0,7; 88; -2,4; 989,8118;1015,3750;4; 23,7; 23,7; 0,0; 0,0;247,5; 44,4
2020-02-08 04:32:00; -0,8; 88; -2,5; 989,8118;1015,3750;4; 23,7; 23,7; 0,0; 0,0;247,5; 44,4
2020-02-08 04:42:00; -0,8; 88; -2,5; 989,6243;1015,1875;4; 23,7; 23,7; 0,0; 0,0;247,5; 44,4
2020-02-08 04:51:59; -0,9; 88; -2,6; 989,6243;1015,1875;4; 23,7; 23,7; 0,0; 0,0;247,5; 44,4
2020-02-08 05:02:00; -0,9; 88; -2,6; 989,4993;1015,0625;1; 23,7; 23,7; 0,0; 0,0;247,5; 44,4
2020-02-08 05:11:59; -0,9; 88; -2,6; 989,4993;1015,0625;1; 23,7; 23,7; 0,0; 0,0;247,5; 44,4
2020-02-08 05:22:00; -0,9; 88; -2,6; 989,4368;1015,0000;1; 23,7; 23,7; 0,0; 0,0;247,5; 44,4
2020-02-08 05:31:59; -1,0; 88; -2,7; 989,4368;1015,0000;1; 23,7; 23,7; 0,0; 0,0;247,5; 44,4
2020-02-08 05:42:00; -1,0; 88; -2,7; 989,3118;1014,8750;1; 23,7; 23,7; 0,0; 0,0;247,5; 44,4
2020-02-08 05:51:59; -1,0; 88; -2,7; 989,3118;1014,8750;1; 23,7; 23,7; 0,0; 0,0;247,5; 44,4
2020-02-08 06:02:00; -1,0; 88; -2,7; 989,3118;1014,8750;1; 23,7; 23,7; 0,0; 0,0;247,5; 44,4
2020-02-08 06:12:00; -1,1; 88; -2,8; 989,3118;1014,8750;1; 23,7; 23,7; 0,0; 0,0;247,5; 44,4
2020-02-08 06:21:59; -1,1; 88; -2,8; 989,0618;1014,6250;1; 23,7; 23,7; 0,0; 0,0;247,5; 44,4
2020-02-08 06:32:00; -1,2; 88; -2,9; 989,0618;1014,6250;1; 23,6; 23,6; 0,0; 0,0;247,5; 44,4
2020-02-08 06:41:59; -1,3; 88; -3,0; 989,0618;1014,6250;1; 23,7; 23,7; 0,0; 0,0;247,5; 44,4
2020-02-08 06:52:00; -1,0; 89; -2,6; 989,0618;1014,6250;1; 23,7; 23,7; 0,0; 0,0;247,5; 44,4
2020-02-08 07:01:59; -0,8; 89; -2,4; 988,7493;1014,3125;1; 23,7; 23,7; 0,0; 0,0;247,5; 44,4
2020-02-08 07:12:00; -0,7; 88; -2,4; 988,7493;1014,3125;1; 23,7; 23,7; 0,0; 0,0;247,5; 44,4
2020-02-08 07:21:59; -0,5; 89; -2,1; 989,1868;1014,7500;1; 23,7; 23,7; 0,0; 0,0;247,5; 44,4
2020-02-08 07:32:00; -0,5; 89; -2,1; 989,1868;1014,7500;1; 23,7; 23,7; 0,0; 0,0;247,5; 44,4
2020-02-08 07:42:00; -0,2; 89; -1,8; 989,6868;1015,2500;1; 23,8; 23,8; 0,0; 0,0;247,5; 44,4
2020-02-08 07:51:59; 0,1; 89; -1,5; 989,6868;1015,2500;1; 23,8; 23,8; 0,0; 0,0;247,5; 44,4
2020-02-08 08:02:00; 0,6; 88; -1,2; 989,7493;1015,3125;1; 23,9; 23,9; 0,0; 0,0;247,5; 44,4
2020-02-08 08:11:59; 1,0; 88; -0,8; 989,7493;1015,3125;1; 24,8; 24,8; 0,0; 0,0;247,5; 44,4
2020-02-08 08:22:00; 1,6; 88; -0,2; 989,8118;1015,3750;1; 25,6; 25,6; 0,0; 0,0;247,5; 44,4
2020-02-08 08:31:59; 2,3; 86; 0,2; 989,8118;1015,3750;1; 26,2; 26,2; 0,0; 0,0;247,5; 44,4
2020-02-08 08:42:00; 3,0; 85; 0,7; 990,1868;1015,7500;1; 26,8; 26,8; 0,0; 0,0;247,5; 44,4
2020-02-08 08:51:59; 3,6; 84; 1,2; 990,1868;1015,7500;1; 27,0; 27,0; 0,0; 0,0;247,5; 44,4
2020-02-08 09:02:00; 3,7; 82; 0,9; 990,3118;1015,8750;3; 27,1; 27,1; 0,0; 0,0;247,5; 44,4
2020-02-08 09:12:00; 4,0; 82; 1,2; 990,3118;1015,8750;3; 27,2; 27,2; 0,0; 0,0;247,5; 44,4
2020-02-08 09:21:59; 4,5; 80; 1,4; 990,3118;1015,8750;3; 27,2; 27,2; 0,0; 0,0;247,5; 44,4
2020-02-08 09:32:00; 4,9; 79; 1,6; 990,3118;1015,8750;3; 27,2; 27,2; 0,0; 0,0;247,5; 44,4
2020-02-08 09:41:59; 5,2; 77; 1,5; 990,3743;1015,9375;3; 27,2; 27,2; 0,0; 0,0;247,5; 44,4
2020-02-08 09:52:00; 5,5; 75; 1,4; 990,3743;1015,9375;3; 27,0; 27,0; 0,0; 0,0;247,5; 44,4
2020-02-08 10:01:59; 5,8; 75; 1,7; 990,1868;1015,7500;3; 27,0; 27,0; 0,0; 0,0;247,5; 44,4
2020-02-08 10:12:00; 6,0; 74; 1,7; 990,1868;1015,7500;3; 27,0; 27,0; 0,0; 0,0;247,5; 44,4
2020-02-08 10:21:59; 6,4; 74; 2,1; 990,1868;1015,7500;3; 26,7; 26,7; 0,0; 0,0;247,5; 44,4
2020-02-08 10:32:00; 6,6; 73; 2,1; 990,1868;1015,7500;3; 26,6; 26,6; 0,0; 0,0;247,5; 44,4
2020-02-08 10:42:00; 7,0; 72; 2,3; 990,1243;1015,6875;3; 26,4; 26,4; 0,0; 0,0;247,5; 44,4
2020-02-08 10:51:59; 7,4; 71; 2,5; 990,1243;1015,6875;3; 26,5; 26,5; 0,0; 0,0;247,5; 44,4
2020-02-08 11:02:00; 7,7; 70; 2,6; 989,9368;1015,5000;3; 26,6; 26,6; 0,0; 0,0;247,5; 44,4
2020-02-08 11:11:59; 7,8; 68; 2,3; 989,9368;1015,5000;3; 26,8; 26,8; 0,0; 0,0;247,5; 44,4
2020-02-08 11:22:00; 7,8; 67; 2,1; 989,9368;1015,5000;3; 27,1; 27,1; 0,0; 0,0;247,5; 44,4
2020-02-08 11:31:59; 7,9; 67; 2,2; 989,9368;1015,5000;3; 27,3; 27,3; 0,0; 0,0;247,5; 44,4
2020-02-08 11:42:00; 8,0; 67; 2,2; 989,8743;1015,4375;3; 27,3; 27,3; 0,0; 0,0;247,5; 44,4
2020-02-08 11:51:59; 8,1; 66; 2,1; 989,8743;1015,4375;3; 27,3; 27,3; 0,0; 0,0;247,5; 44,4
2020-02-08 12:02:00; 8,0; 66; 2,0; 989,9368;1015,5000;3; 27,2; 27,2; 0,0; 0,0;247,5; 44,4
2020-02-08 12:12:00; 8,1; 66; 2,1; 989,9368;1015,5000;3; 27,2; 27,2; 0,0; 0,0;247,5; 44,4
2020-02-08 12:21:59; 8,2; 66; 2,2; 989,8118;1015,3750;3; 27,1; 27,1; 0,0; 0,0;247,5; 44,4
2020-02-08 12:32:00; 8,2; 65; 2,0; 989,8118;1015,3750;3; 27,0; 27,0; 0,0; 0,0;247,5; 44,4
2020-02-08 12:41:59; 8,3; 65; 2,1; 989,8743;1015,4375;3; 26,9; 26,9; 0,0; 0,0;247,5; 44,4
2020-02-08 12:52:00; 8,5; 64; 2,1; 989,8743;1015,4375;3; 26,8; 26,8; 0,0; 0,0;247,5; 44,4
2020-02-08 13:01:59; 8,5; 64; 2,1; 989,6243;1015,1875;3; 26,8; 26,8; 0,0; 0,0;247,5; 44,4
2020-02-08 13:12:00; 8,4; 64; 2,0; 989,6243;1015,1875;3; 26,7; 26,7; 0,0; 0,0;247,5; 44,4
2020-02-08 13:21:59; 8,5; 64; 2,1; 989,3743;1014,9375;3; 26,6; 26,6; 0,0; 0,0;247,5; 44,4
2020-02-08 13:32:00; 8,5; 64; 2,1; 989,3743;1014,9375;3; 26,6; 26,6; 0,0; 0,0;247,5; 44,4
2020-02-08 13:42:00; 8,4; 64; 2,0; 989,0618;1014,6250;3; 26,5; 26,5; 0,0; 0,0;247,5; 44,4
2020-02-08 13:51:59; 8,2; 64; 1,8; 989,0618;1014,6250;3; 26,4; 26,4; 0,0; 0,0;247,5; 44,4
2020-02-08 14:02:00; 8,1; 64; 1,7; 989,2493;1014,8125;3; 26,2; 26,2; 0,0; 0,0;247,5; 44,4
2020-02-08 14:11:59; 7,9; 64; 1,5; 989,2493;1014,8125;3; 26,0; 26,0; 0,0; 0,0;247,5; 44,4
2020-02-08 14:22:00; 7,8; 64; 1,4; 988,8118;1014,3750;3; 25,9; 25,9; 0,0; 0,0;247,5; 44,4
2020-02-08 14:31:59; 7,7; 65; 1,5; 988,8118;1014,3750;3; 25,7; 25,7; 0,0; 0,0;247,5; 44,4
2020-02-08 14:42:00; 7,5; 64; 1,1; 988,6243;1014,1875;3; 25,6; 25,6; 0,0; 0,0;247,5; 44,4
2020-02-08 14:51:59; 7,1; 65; 1,0; 988,6243;1014,1875;3; 25,5; 25,5; 0,0; 0,0;247,5; 44,4
2020-02-08 15:02:00; 6,9; 65; 0,8; 988,3743;1013,9375;3; 25,5; 25,5; 0,0; 0,0;247,5; 44,4
2020-02-08 15:12:00; 6,7; 63; 0,2; 988,3743;1013,9375;3; 25,3; 25,3; 0,0; 0,0;247,5; 44,4
2020-02-08 15:21:59; 6,6; 63; 0,1; 988,5618;1014,1250;3; 25,2; 25,2; 0,0; 0,0;247,5; 44,4
2020-02-08 15:32:00; 6,3; 64; 0,0; 988,5618;1014,1250;3; 25,1; 25,1; 0,0; 0,0;247,5; 44,4
2020-02-08 15:41:59; 6,1; 63; -0,4; 988,3118;1013,8750;3; 25,0; 25,0; 0,0; 0,0;247,5; 44,4
2020-02-08 15:52:00; 5,8; 66; -0,1; 988,3118;1013,8750;3; 24,9; 24,9; 0,0; 0,0;247,5; 44,4
2020-02-08 16:01:59; 5,5; 67; -0,1; 988,5618;1014,1250;3; 24,8; 24,8; 0,0; 0,0;247,5; 44,4
2020-02-08 16:12:00; 5,1; 68; -0,3; 988,5618;1014,1250;3; 24,8; 24,8; 0,0; 0,0;247,5; 44,4
2020-02-08 16:21:59; 4,7; 69; -0,5; 988,3118;1013,8750;3; 24,7; 24,7; 0,0; 0,0;247,5; 44,4
2020-02-08 16:32:00; 4,4; 70; -0,6; 988,3118;1013,8750;3; 24,6; 24,6; 0,0; 0,0;247,5; 44,4
2020-02-08 16:42:00; 4,1; 71; -0,7; 988,3118;1013,8750;3; 24,6; 24,6; 0,0; 0,0;247,5; 44,4
2020-02-08 16:51:59; 3,8; 72; -0,8; 988,3118;1013,8750;3; 24,6; 24,6; 0,0; 0,0;247,5; 44,4
2020-02-08 17:02:00; 3,7; 72; -0,9; 988,4368;1014,0000;3; 24,5; 24,5; 0,0; 0,0;247,5; 44,4
2020-02-08 17:11:59; 3,6; 72; -1,0; 988,4368;1014,0000;3; 24,4; 24,4; 0,0; 0,0;247,5; 44,4
2020-02-08 17:22:00; 3,3; 72; -1,3; 988,1868;1013,7500;3; 24,4; 24,4; 0,0; 0,0;247,5; 44,4
2020-02-08 17:31:59; 3,2; 73; -1,2; 988,1868;1013,7500;3; 24,4; 24,4; 0,0; 0,0;247,5; 44,4
2020-02-08 17:42:00; 3,0; 73; -1,4; 988,2493;1013,8125;3; 24,4; 24,4; 0,0; 0,0;247,5; 44,4
2020-02-08 17:51:59; 2,8; 74; -1,4; 988,2493;1013,8125;3; 24,4; 24,4; 0,0; 0,0;247,5; 44,4
2020-02-08 18:02:00; 2,6; 75; -1,4; 988,3118;1013,8750;1; 24,4; 24,4; 0,0; 0,0;247,5; 44,4
2020-02-08 18:12:00; 2,4; 75; -1,6; 988,3118;1013,8750;1; 24,3; 24,3; 0,0; 0,0;247,5; 44,4
2020-02-08 18:21:59; 2,3; 75; -1,7; 988,4368;1014,0000;1; 24,3; 24,3; 0,0; 0,0;247,5; 44,4
2020-02-08 18:32:00; 2,1; 76; -1,7; 988,4368;1014,0000;1; 24,3; 24,3; 0,0; 0,0;247,5; 44,4
2020-02-08 18:41:59; 1,9; 76; -1,9; 988,4993;1014,0625;1; 24,3; 24,3; 0,0; 0,0;247,5; 44,4
2020-02-08 18:52:00; 1,9; 77; -1,7; 988,4993;1014,0625;1; 24,2; 24,2; 0,0; 0,0;247,5; 44,4
2020-02-08 19:01:59; 1,7; 77; -1,9; 988,4368;1014,0000;1; 24,2; 24,2; 0,0; 0,0;247,5; 44,4
2020-02-08 19:12:00; 1,6; 77; -2,0; 988,4368;1014,0000;1; 24,2; 24,2; 0,0; 0,0;247,5; 44,4
2020-02-08 19:21:59; 1,6; 78; -1,8; 988,4368;1014,0000;1; 24,2; 24,2; 0,0; 0,0;247,5; 44,4
2020-02-08 19:32:00; 1,5; 78; -1,9; 988,4368;1014,0000;1; 24,2; 24,2; 0,0; 0,0;247,5; 44,4
2020-02-08 19:42:00; 1,4; 79; -1,8; 988,4368;1014,0000;1; 24,2; 24,2; 0,0; 0,0;247,5; 44,4
2020-02-08 19:51:59; 1,4; 80; -1,7; 988,4368;1014,0000;1; 24,2; 24,2; 0,0; 0,0;247,5; 44,4
2020-02-08 20:02:00; 1,2; 80; -1,9; 988,3118;1013,8750;1; 24,2; 24,2; 0,0; 0,0;247,5; 44,4
2020-02-08 20:11:59; 1,2; 80; -1,9; 988,3118;1013,8750;1; 24,2; 24,2; 0,0; 0,0;247,5; 44,4
2020-02-08 20:22:00; 1,2; 80; -1,9; 988,4368;1014,0000;1; 24,2; 24,2; 0,0; 0,0;247,5; 44,4
2020-02-08 20:31:59; 1,0; 80; -2,1; 988,4368;1014,0000;1; 24,2; 24,2; 0,0; 0,0;247,5; 44,4
2020-02-08 20:42:00; 0,9; 80; -2,2; 988,3743;1013,9375;1; 24,2; 24,2; 0,0; 0,0;247,5; 44,4
2020-02-08 20:51:59; 0,9; 82; -1,8; 988,3743;1013,9375;1; 24,2; 24,2; 0,0; 0,0;247,5; 44,4
2020-02-08 21:02:00; 0,9; 81; -2,0; 988,3118;1013,8750;1; 24,1; 24,1; 0,0; 0,0;247,5; 44,4
2020-02-08 21:12:00; 0,8; 81; -2,1; 988,3118;1013,8750;1; 24,1; 24,1; 0,0; 0,0;247,5; 44,4
2020-02-08 21:21:59; 0,7; 82; -2,0; 988,0618;1013,6250;1; 24,1; 24,1; 0,0; 0,0;247,5; 44,4
2020-02-08 21:32:00; 0,7; 82; -2,0; 988,0618;1013,6250;1; 24,1; 24,1; 0,0; 0,0;247,5; 44,4
2020-02-08 21:41:59; 0,8; 83; -1,8; 987,9993;1013,5625;1; 24,1; 24,1; 0,0; 0,0;247,5; 44,4
2020-02-08 21:52:00; 0,8; 83; -1,8; 987,9993;1013,5625;1; 24,1; 24,1; 0,0; 0,0;247,5; 44,4
2020-02-08 22:01:59; 0,8; 83; -1,8; 987,9368;1013,5000;1; 24,1; 24,1; 0,0; 0,0;247,5; 44,4
2020-02-08 22:12:00; 0,7; 83; -1,9; 987,9368;1013,5000;1; 24,1; 24,1; 0,0; 0,0;247,5; 44,4
2020-02-08 22:21:59; 0,7; 84; -1,7; 987,7493;1013,3125;1; 24,1; 24,1; 0,0; 0,0;247,5; 44,4
2020-02-08 22:32:00; 0,7; 84; -1,7; 987,7493;1013,3125;1; 24,1; 24,1; 0,0; 0,0;247,5; 44,4
2020-02-08 22:42:00; 0,7; 85; -1,5; 987,8743;1013,4375;1; 24,1; 24,1; 0,0; 0,0;247,5; 44,4
2020-02-08 22:51:59; 0,7; 85; -1,5; 987,8743;1013,4375;1; 24,1; 24,1; 0,0; 0,0;247,5; 44,4
2020-02-08 23:02:00; 0,9; 85; -1,3; 987,7493;1013,3125;1; 24,1; 24,1; 0,0; 0,0;247,5; 44,4
2020-02-08 23:11:59; 0,9; 85; -1,3; 987,7493;1013,3125;1; 24,1; 24,1; 0,0; 0,0;247,5; 44,4
2020-02-08 23:22:00; 0,9; 85; -1,3; 987,6868;1013,2500;1; 24,1; 24,1; 0,0; 0,0;247,5; 44,4
2020-02-08 23:31:59; 0,9; 85; -1,3; 987,6868;1013,2500;1; 24,0; 24,0; 0,0; 0,0;247,5; 44,4
2020-02-08 23:42:00; 0,9; 85; -1,3; 987,7493;1013,3125;1; 24,1; 24,1; 0,0; 0,0;247,5; 44,4
2020-02-08 23:51:59; 0,9; 85; -1,3; 987,7493;1013,3125;1; 24,1; 24,1; 0,0; 0,0;247,5; 44,4
2020-02-09 00:02:00; 0,9; 86; -1,2; 987,4993;1013,0625;1; 24,0; 24,0; 0,0; 0,0;247,5; 44,4
2020-02-09 00:12:00; 0,9; 85; -1,3; 987,4993;1013,0625;1; 24,1; 24,1; 0,0; 0,0;247,5; 44,4
2020-02-09 00:21:59; 0,8; 85; -1,4; 987,4368;1013,0000;1; 24,1; 24,1; 0,0; 0,0;247,5; 44,4
2020-02-09 00:32:00; 0,8; 85; -1,4; 987,4368;1013,0000;1; 24,1; 24,1; 0,0; 0,0;247,5; 44,4
2020-02-09 00:41:59; 0,8; 86; -1,3; 987,3118;1012,8750;1; 24,1; 24,1; 0,0; 0,0;247,5; 44,4
2020-02-09 00:52:00; 0,8; 86; -1,3; 987,3118;1012,8750;1; 24,1; 24,1; 0,0; 0,0;247,5; 44,4
2020-02-09 01:01:59; 0,8; 86; -1,3; 987,4993;1013,0625;1; 24,0; 24,0; 0,0; 0,0;247,5; 44,4
2020-02-09 01:12:00; 0,8; 86; -1,3; 987,4993;1013,0625;1; 24,0; 24,0; 0,0; 0,0;247,5; 44,4
2020-02-09 01:21:59; 0,8; 86; -1,3; 987,3118;1012,8750;1; 24,0; 24,0; 0,0; 0,0;247,5; 44,4
2020-02-09 01:32:00; 0,9; 86; -1,2; 987,3118;1012,8750;1; 24,0; 24,0; 0,0; 0,0;247,5; 44,4
2020-02-09 01:42:00; 0,9; 86; -1,2; 987,2493;1012,8125;1; 24,0; 24,0; 0,0; 0,0;247,5; 44,4
2020-02-09 01:51:59; 0,9; 86; -1,2; 987,2493;1012,8125;1; 24,0; 24,0; 0,0; 0,0;247,5; 44,4
2020-02-09 02:02:00; 0,8; 86; -1,3; 987,1243;1012,6875;1; 24,0; 24,0; 0,0; 0,0;247,5; 44,4
2020-02-09 02:11:59; 0,8; 86; -1,3; 987,1243;1012,6875;1; 24,0; 24,0; 0,0; 0,0;247,5; 44,4
2020-02-09 02:22:00; 0,9; 86; -1,2; 986,6868;1012,2500;1; 24,0; 24,0; 0,0; 0,0;247,5; 44,4
2020-02-09 02:31:59; 1,0; 86; -1,1; 986,6868;1012,2500;1; 24,0; 24,0; 0,0; 0,0;247,5; 44,4
2020-02-09 02:42:00; 1,1; 86; -1,0; 986,4368;1012,0000;1; 24,0; 24,0; 0,0; 0,0;247,5; 44,4
2020-02-09 02:51:59; 1,2; 86; -0,9; 986,4368;1012,0000;1; 24,0; 24,0; 0,0; 0,0;247,5; 44,4
2020-02-09 03:02:00; 1,3; 86; -0,8; 986,5618;1012,1250;1; 24,0; 24,0; 0,0; 0,0;247,5; 44,4
2020-02-09 03:12:00; 1,3; 86; -0,8; 986,5618;1012,1250;1; 24,0; 24,0; 0,0; 0,0;247,5; 44,4
2020-02-09 03:21:59; 1,3; 86; -0,8; 986,4368;1012,0000;1; 24,0; 24,0; 0,0; 0,0;247,5; 44,4
2020-02-09 03:32:00; 1,4; 86; -0,7; 986,4368;1012,0000;1; 24,0; 24,0; 0,0; 0,0;247,5; 44,4
2020-02-09 03:41:59; 1,4; 86; -0,7; 986,6868;1012,2500;1; 24,0; 24,0; 0,0; 0,0;247,5; 44,4
2020-02-09 03:52:00; 1,4; 86; -0,7; 986,6868;1012,2500;1; 24,0; 24,0; 0,0; 0,0;247,5; 44,4
2020-02-09 04:01:59; 1,5; 86; -0,6; 986,4993;1012,0625;1; 24,0; 24,0; 0,0; 0,0;247,5; 44,4
2020-02-09 04:12:00; 1,4; 86; -0,7; 986,4993;1012,0625;1; 23,9; 23,9; 0,0; 0,0;247,5; 44,4
2020-02-09 04:21:59; 1,4; 86; -0,7; 986,4368;1012,0000;1; 23,9; 23,9; 0,0; 0,0;247,5; 44,4
2020-02-09 04:32:00; 1,4; 86; -0,7; 986,4368;1012,0000;1; 23,9; 23,9; 0,0; 0,0;247,5; 44,4
2020-02-09 04:42:00; 1,4; 86; -0,7; 986,2493;1011,8125;1; 23,9; 23,9; 0,0; 0,0;247,5; 44,4
2020-02-09 04:51:59; 1,3; 86; -0,8; 986,2493;1011,8125;1; 23,9; 23,9; 0,0; 0,0;247,5; 44,4
2020-02-09 05:02:00; 1,2; 86; -0,9; 986,1243;1011,6875;1; 23,9; 23,9; 0,0; 0,0;247,5; 44,4
2020-02-09 05:11:59; 1,1; 86; -1,0; 986,1243;1011,6875;1; 23,9; 23,9; 0,0; 0,0;247,5; 44,4
2020-02-09 05:22:00; 1,1; 86; -1,0; 985,8743;1011,4375;1; 23,9; 23,9; 0,0; 0,0;247,5; 44,4
2020-02-09 05:31:59; 1,1; 86; -1,0; 985,8743;1011,4375;1; 23,9; 23,9; 0,0; 0,0;247,5; 44,4
2020-02-09 05:42:00; 1,1; 86; -1,0; 985,8118;1011,3750;1; 23,9; 23,9; 0,0; 0,0;247,5; 44,4
2020-02-09 05:51:59; 1,1; 86; -1,0; 985,8118;1011,3750;1; 23,9; 23,9; 0,0; 0,0;247,5; 44,4
2020-02-09 06:02:00; 1,0; 86; -1,1; 985,7493;1011,3125;1; 23,9; 23,9; 0,0; 0,0;247,5; 44,4
2020-02-09 06:12:00; 0,8; 86; -1,3; 985,7493;1011,3125;1; 23,9; 23,9; 0,0; 0,0;247,5; 44,4
2020-02-09 06:21:59; 0,7; 87; -1,2; 985,6243;1011,1875;1; 23,9; 23,9; 0,0; 0,0;247,5; 44,4
2020-02-09 06:32:00; 0,8; 87; -1,1; 985,6243;1011,1875;1; 23,9; 23,9; 0,0; 0,0;247,5; 44,4
2020-02-09 06:41:59; 0,9; 87; -1,0; 985,7493;1011,3125;1; 23,9; 23,9; 0,0; 0,0;247,5; 44,4
2020-02-09 06:52:00; 0,9; 87; -1,0; 985,7493;1011,3125;1; 23,9; 23,9; 0,0; 0,0;247,5; 44,4
2020-02-09 07:01:59; 0,9; 86; -1,2; 985,3743;1010,9375;1; 23,9; 23,9; 0,0; 0,0;247,5; 44,4
2020-02-09 07:12:00; 0,9; 87; -1,0; 985,3743;1010,9375;1; 23,9; 23,9; 0,0; 0,0;247,5; 44,4
2020-02-09 07:21:59; 1,1; 86; -1,0; 985,4993;1011,0625;1; 23,9; 23,9; 0,0; 0,0;247,5; 44,4
2020-02-09 07:32:00; 1,2; 86; -0,9; 985,4993;1011,0625;1; 23,9; 23,9; 0,0; 0,0;247,5; 44,4
2020-02-09 07:42:00; 1,3; 86; -0,8; 985,4368;1011,0000;1; 24,0; 24,0; 0,0; 0,0;247,5; 44,4
2020-02-09 07:51:59; 1,5; 86; -0,6; 985,4368;1011,0000;1; 24,0; 24,0; 0,0; 0,0;247,5; 44,4
2020-02-09 08:02:00; 1,8; 85; -0,5; 985,2493;1010,8125;1; 24,2; 24,2; 0,0; 0,0;247,5; 44,4
2020-02-09 08:11:59; 2,2; 85; -0,1; 985,2493;1010,8125;1; 24,8; 24,8; 0,0; 0,0;247,5; 44,4
2020-02-09 08:22:00; 2,5; 84; 0,1; 984,7493;1010,3125;1; 25,4; 25,4; 0,0; 0,0;247,5; 44,4
2020-02-09 08:31:59; 3,1; 83; 0,5; 984,7493;1010,3125;1; 25,9; 25,9; 0,0; 0,0;247,5; 44,4
2020-02-09 08:42:00; 3,5; 82; 0,7; 985,3118;1010,8750;3; 26,4; 26,4; 0,0; 0,0;247,5; 44,4
2020-02-09 08:51:59; 3,9; 80; 0,8; 985,3118;1010,8750;3; 26,6; 26,6; 0,0; 0,0;247,5; 44,4
2020-02-09 09:02:00; 4,2; 80; 1,1; 985,0618;1010,6250;3; 26,6; 26,6; 0,0; 0,0;247,5; 44,4
2020-02-09 09:12:00; 4,7; 79; 1,4; 985,0618;1010,6250;3; 26,7; 26,7; 0,0; 0,0;247,5; 44,4
2020-02-09 09:21:59; 5,1; 77; 1,4; 984,6243;1010,1875;3; 26,8; 26,8; 0,0; 0,0;247,5; 44,4
2020-02-09 09:32:00; 5,5; 76; 1,6; 984,6243;1010,1875;3; 26,8; 26,8; 0,0; 0,0;247,5; 44,4
2020-02-09 09:41:59; 6,0; 76; 2,1; 983,9993;1009,5625;3; 26,7; 26,7; 0,0; 0,0;247,5; 44,4
2020-02-09 09:52:00; 6,7; 75; 2,6; 983,9993;1009,5625;3; 26,7; 26,7; 0,0; 0,0;247,5; 44,4
2020-02-09 10:01:59; 7,1; 73; 2,6; 983,7493;1009,3125;3; 26,7; 26,7; 0,0; 0,0;247,5; 44,4
2020-02-09 10:12:00; 7,7; 72; 3,0; 983,7493;1009,3125;3; 26,7; 26,7; 0,0; 0,0;247,5; 44,4
2020-02-09 10:21:59; 8,3; 70; 3,1; 983,7493;1009,3125;3; 26,6; 26,6; 0,0; 0,0;247,5; 44,4
2020-02-09 10:32:00; 8,5; 67; 2,7; 983,7493;1009,3125;3; 26,4; 26,4; 0,0; 0,0;247,5; 44,4
2020-02-09 10:42:00; 9,3; 67; 3,5; 983,6243;1009,1875;3; 26,4; 26,4; 0,0; 0,0;247,5; 44,4
2020-02-09 10:51:59; 10,5; 64; 4,0; 983,6243;1009,1875;3; 26,5; 26,5; 0,0; 0,0;247,5; 44,4
2020-02-09 11:02:00; 11,1; 62; 4,1; 983,3743;1008,9375;3; 26,6; 26,6; 0,0; 0,0;247,5; 44,4
2020-02-09 11:11:59; 11,5; 60; 4,0; 983,3743;1008,9375;3; 26,8; 26,8; 0,0; 0,0;247,5; 44,4
2020-02-09 11:22:00; 11,8; 59; 4,0; 983,1868;1008,7500;3; 27,2; 27,2; 0,0; 0,0;247,5; 44,4
2020-02-09 11:31:59; 11,7; 58; 3,7; 983,1868;1008,7500;3; 27,2; 27,2; 0,0; 0,0;247,5; 44,4
2020-02-09 11:42:00; 11,7; 57; 3,5; 982,6868;1008,2500;3; 27,2; 27,2; 0,0; 0,0;247,5; 44,4
2020-02-09 11:51:59; 11,5; 58; 3,5; 982,6868;1008,2500;3; 27,2; 27,2; 0,0; 0,0;247,5; 44,4
2020-02-09 12:02:00; 11,1; 58; 3,1; 982,1868;1007,7500;3; 26,8; 26,8; 0,0; 0,0;247,5; 44,4
2020-02-09 12:12:00; 11,0; 59; 3,3; 982,1868;1007,7500;3; 26,6; 26,6; 0,0; 0,0;247,5; 44,4
2020-02-09 12:21:59; 11,1; 60; 3,6; 981,8743;1007,4375;3; 26,6; 26,6; 0,0; 0,0;247,5; 44,4
2020-02-09 12:32:00; 11,4; 60; 3,9; 981,8743;1007,4375;3; 26,5; 26,5; 0,0; 0,0;247,5; 44,4
2020-02-09 12:41:59; 11,5; 59; 3,8; 981,2493;1006,8125;3; 26,5; 26,5; 0,0; 0,0;247,5; 44,4
2020-02-09 12:52:00; 11,4; 60; 3,9; 981,2493;1006,8125;3; 26,4; 26,4; 0,0; 0,0;247,5; 44,4
2020-02-09 13:01:59; 11,1; 59; 3,4; 980,8743;1006,4375;3; 26,2; 26,2; 0,0; 0,0;247,5; 44,4
2020-02-09 13:12:00; 11,4; 60; 3,9; 980,8743;1006,4375;3; 26,0; 26,0; 0,0; 0,0;247,5; 44,4
2020-02-09 13:21:59; 11,1; 59; 3,4; 980,4993;1006,0625;3; 25,9; 25,9; 0,0; 0,0;247,5; 44,4
2020-02-09 13:32:00; 11,2; 60; 3,7; 980,4993;1006,0625;3; 25,8; 25,8; 0,0; 0,0;247,5; 44,4
2020-02-09 13:42:00; 11,1; 60; 3,6; 979,4368;1005,0000;3; 25,7; 25,7; 0,0; 0,0;247,5; 44,4
2020-02-09 13:51:59; 10,8; 60; 3,3; 979,4368;1005,0000;3; 25,6; 25,6; 0,0; 0,0;247,5; 44,4
2020-02-09 14:02:00; 10,7; 60; 3,2; 979,0618;1004,6250;3; 25,5; 25,5; 0,0; 0,0;247,5; 44,4
2020-02-09 14:11:59; 10,6; 61; 3,4; 979,0618;1004,6250;3; 25,4; 25,4; 0,0; 0,0;247,5; 44,4
2020-02-09 14:22:00; 10,5; 61; 3,3; 978,4368;1004,0000;3; 25,3; 25,3; 0,0; 0,0;247,5; 44,4
2020-02-09 14:31:59; 10,4; 62; 3,4; 978,4368;1004,0000;3; 25,2; 25,2; 0,0; 0,0;247,5; 44,4
2020-02-09 14:42:00; 10,2; 62; 3,2; 977,5618;1003,1250;3; 25,1; 25,1; 0,0; 0,0;247,5; 44,4
2020-02-09 14:51:59; 10,1; 61; 2,9; 977,5618;1003,1250;3; 25,0; 25,0; 0,0; 0,0;247,5; 44,4
2020-02-09 15:02:00; 10,0; 62; 3,1; 977,0618;1002,6250;3; 24,9; 24,9; 0,0; 0,0;247,5; 44,4
2020-02-09 15:12:00; 9,7; 62; 2,8; 977,0618;1002,6250;3; 24,9; 24,9; 0,0; 0,0;247,5; 44,4
2020-02-09 15:21:59; 9,5; 63; 2,8; 976,5618;1002,1250;3; 24,8; 24,8; 0,0; 0,0;247,5; 44,4
2020-02-09 15:32:00; 9,4; 63; 2,7; 976,5618;1002,1250;3; 24,7; 24,7; 0,0; 0,0;247,5; 44,4
2020-02-09 15:41:59; 9,3; 63; 2,6; 976,1868;1001,7500;3; 24,6; 24,6; 0,0; 0,0;247,5; 44,4
2020-02-09 15:52:00; 9,3; 63; 2,6; 976,1868;1001,7500;3; 24,6; 24,6; 0,0; 0,0;247,5; 44,4
2020-02-09 16:01:59; 9,2; 63; 2,5; 975,4993;1001,0625;3; 24,6; 24,6; 0,0; 0,0;247,5; 44,4
2020-02-09 16:12:00; 9,2; 63; 2,5; 975,4993;1001,0625;3; 24,5; 24,5; 0,0; 0,0;247,5; 44,4
2020-02-09 16:21:59; 9,2; 63; 2,5; 974,9368;1000,5000;3; 24,4; 24,4; 0,0; 0,0;247,5; 44,4
2020-02-09 16:32:00; 9,3; 62; 2,4; 974,9368;1000,5000;3; 24,4; 24,4; 0,0; 0,0;247,5; 44,4
2020-02-09 16:42:00; 9,5; 62; 2,6; 974,1868; 999,7500;3; 24,4; 24,4; 0,0; 0,0;247,5; 44,4
2020-02-09 16:51:59; 9,5; 61; 2,4; 974,1868; 999,7500;3; 24,4; 24,4; 0,0; 0,0;247,5; 44,4
2020-02-09 17:02:00; 9,6; 60; 2,2; 974,0618; 999,6250;3; 24,4; 24,4; 0,0; 0,0;247,5; 44,4
2020-02-09 17:11:59; 9,6; 60; 2,2; 974,0618; 999,6250;3; 24,3; 24,3; 0,0; 0,0;247,5; 44,4
2020-02-09 17:22:00; 9,5; 61; 2,4; 973,6243; 999,1875;3; 24,3; 24,3; 0,0; 0,0;247,5; 44,4
2020-02-09 17:31:59; 9,5; 61; 2,4; 973,6243; 999,1875;3; 24,3; 24,3; 0,0; 0,0;247,5; 44,4
2020-02-09 17:42:00; 9,5; 60; 2,1; 972,9368; 998,5000;3; 24,3; 24,3; 0,0; 0,0;247,5; 44,4
2020-02-09 17:51:59; 9,6; 60; 2,2; 972,9368; 998,5000;3; 24,2; 24,2; 0,0; 0,0;247,5; 44,4
2020-02-09 18:02:00; 9,7; 59; 2,1; 972,3118; 997,8750;3; 24,2; 24,2; 0,0; 0,0;247,5; 44,4
2020-02-09 18:12:00; 9,8; 59; 2,2; 972,3118; 997,8750;3; 24,2; 24,2; 0,0; 0,0;247,5; 44,4
2020-02-09 18:21:59; 9,8; 59; 2,2; 971,4368; 997,0000;3; 24,2; 24,2; 0,0; 0,0;247,5; 44,4
2020-02-09 18:32:00; 9,8; 58; 1,9; 971,4368; 997,0000;3; 24,2; 24,2; 0,0; 0,0;247,5; 44,4
2020-02-09 18:41:59; 9,8; 58; 1,9; 970,9993; 996,5625;3; 24,2; 24,2; 0,0; 0,0;247,5; 44,4
2020-02-09 18:52:00; 9,9; 57; 1,8; 970,9993; 996,5625;3; 24,2; 24,2; 0,0; 0,0;247,5; 44,4
2020-02-09 19:01:59; 9,9; 57; 1,8; 969,8743; 995,4375;2; 24,2; 24,2; 0,0; 0,0;247,5; 44,4
2020-02-09 19:12:00; 10,0; 56; 1,6; 969,8743; 995,4375;2; 24,2; 24,2; 0,0; 0,0;247,5; 44,4
2020-02-09 19:21:59; 10,1; 55; 1,5; 969,7493; 995,3125;2; 24,2; 24,2; 0,0; 0,0;247,5; 44,4
2020-02-09 19:32:00; 10,1; 55; 1,5; 969,7493; 995,3125;2; 24,1; 24,1; 0,0; 0,0;247,5; 44,4
2020-02-09 19:42:00; 10,2; 54; 1,3; 969,0618; 994,6250;2; 24,1; 24,1; 0,0; 0,0;247,5; 44,4
2020-02-09 19:51:59; 10,3; 54; 1,4; 969,0618; 994,6250;2; 24,1; 24,1; 0,0; 0,0;247,5; 44,4
2020-02-09 20:02:00; 10,3; 54; 1,4; 968,8743; 994,4375;2; 24,1; 24,1; 0,0; 0,0;247,5; 44,4
2020-02-09 20:11:59; 10,2; 55; 1,6; 968,8743; 994,4375;2; 24,1; 24,1; 0,0; 0,0;247,5; 44,4
2020-02-09 20:22:00; 10,1; 56; 1,7; 967,9368; 993,5000;2; 24,1; 24,1; 0,0; 0,0;247,5; 44,4
2020-02-09 20:31:59; 10,0; 55; 1,4; 967,9368; 993,5000;2; 24,0; 24,0; 0,0; 0,0;247,5; 44,4
2020-02-09 20:42:00; 10,0; 55; 1,4; 967,1243; 992,6875;2; 24,1; 24,1; 0,0; 0,0;247,5; 44,4
2020-02-09 20:51:59; 10,1; 54; 1,2; 967,1243; 992,6875;2; 24,0; 24,0; 0,0; 0,0;247,5; 44,4
2020-02-09 21:02:00; 10,4; 54; 1,5; 965,8118; 991,3750;2; 24,1; 24,1; 0,0; 0,0;247,5; 44,4
2020-02-09 21:12:00; 10,5; 54; 1,6; 965,8118; 991,3750;2; 24,1; 24,1; 0,0; 0,0;247,5; 44,4
2020-02-09 21:21:59; 10,7; 53; 1,5; 964,8118; 990,3750;2; 24,1; 24,1; 0,0; 0,0;247,5; 44,4
2020-02-09 21:32:00; 10,7; 55; 2,0; 964,8118; 990,3750;2; 24,0; 24,0; 0,0; 0,0;247,5; 44,4
2020-02-09 21:41:59; 10,3; 58; 2,4; 964,8118; 990,3750;2; 24,0; 24,0; 0,0; 0,0;247,5; 44,4
2020-02-09 21:52:00; 10,1; 60; 2,7; 964,8118; 990,3750;2; 24,0; 24,0; 0,0; 0,0;247,5; 44,4
2020-02-09 22:01:59; 9,9; 60; 2,5; 964,8118; 990,3750;2; 24,0; 24,0; 0,0; 0,0;247,5; 44,4
2020-02-09 22:12:00; 9,9; 60; 2,5; 964,8118; 990,3750;2; 24,0; 24,0; 0,0; 0,0;247,5; 44,4
2020-02-09 22:21:59; 10,0; 61; 2,8; 964,4993; 990,0625;2; 24,0; 24,0; 0,0; 0,0;247,5; 44,4
2020-02-09 22:32:00; 10,4; 60; 3,0; 964,4993; 990,0625;2; 24,0; 24,0; 0,0; 0,0;247,5; 44,4
2020-02-09 22:42:00; 10,8; 60; 3,3; 964,5618; 990,1250;2; 24,0; 24,0; 0,0; 0,0;247,5; 44,4
2020-02-09 22:51:59; 11,1; 60; 3,6; 964,5618; 990,1250;2; 24,0; 24,0; 0,0; 0,0;247,5; 44,4
2020-02-09 23:02:00; 11,5; 59; 3,8; 964,0618; 989,6250;2; 24,0; 24,0; 0,0; 0,0;247,5; 44,4
2020-02-09 23:11:59; 12,0; 58; 4,0; 964,0618; 989,6250;2; 24,0; 24,0; 0,0; 0,0;247,5; 44,4
2020-02-09 23:22:00; 12,1; 57; 3,8; 963,4368; 989,0000;2; 24,0; 24,0; 0,0; 0,0;247,5; 44,4
2020-02-09 23:31:59; 12,3; 56; 3,8; 963,4368; 989,0000;2; 24,0; 24,0; 0,0; 0,0;247,5; 44,4
2020-02-09 23:42:00; 12,4; 56; 3,9; 962,8118; 988,3750;2; 24,0; 24,0; 0,0; 0,0;247,5; 44,4
2020-02-09 23:51:59; 12,5; 56; 4,0; 962,8118; 988,3750;2; 24,0; 24,0; 0,0; 0,0;247,5; 44,4
2020-02-10 00:02:00; 12,6; 55; 3,8; 961,9368; 987,5000;2; 23,9; 23,9; 0,0; 0,0;247,5; 44,4
2020-02-10 00:12:00; 12,7; 55; 3,9; 961,9368; 987,5000;2; 23,9; 23,9; 0,0; 0,0;247,5; 44,4
2020-02-10 00:21:59; 12,6; 55; 3,8; 961,1243; 986,6875;2; 23,9; 23,9; 0,0; 0,0;247,5; 44,4
2020-02-10 00:32:00; 12,7; 54; 3,6; 961,1243; 986,6875;2; 23,9; 23,9; 0,0; 0,0;247,5; 44,4
2020-02-10 00:41:59; 12,8; 54; 3,7; 960,8118; 986,3750;2; 23,9; 23,9; 0,0; 0,0;247,5; 44,4
2020-02-10 00:52:00; 12,7; 54; 3,6; 960,8118; 986,3750;2; 23,9; 23,9; 0,0; 0,0;247,5; 44,4
2020-02-10 01:01:59; 12,8; 54; 3,7; 960,1243; 985,6875;2; 23,9; 23,9; 0,0; 0,0;247,5; 44,4
2020-02-10 01:12:00; 12,7; 55; 3,9; 960,1243; 985,6875;2; 23,9; 23,9; 0,0; 0,0;247,5; 44,4
2020-02-10 01:21:59; 12,7; 56; 4,1; 959,7493; 985,3125;2; 23,9; 23,9; 0,0; 0,0;247,5; 44,4
2020-02-10 01:32:00; 12,7; 56; 4,1; 959,7493; 985,3125;2; 23,9; 23,9; 0,0; 0,0;247,5; 44,4
2020-02-10 01:42:00; 12,6; 56; 4,1; 958,9368; 984,5000;2; 23,9; 23,9; 0,0; 0,0;247,5; 44,4
2020-02-10 01:51:59; 12,7; 55; 3,9; 958,9368; 984,5000;2; 23,9; 23,9; 0,0; 0,0;247,5; 44,4
2020-02-10 02:02:00; 12,8; 55; 4,0; 958,4993; 984,0625;2; 23,9; 23,9; 0,0; 0,0;247,5; 44,4
2020-02-10 02:11:59; 12,7; 55; 3,9; 958,4993; 984,0625;2; 23,9; 23,9; 0,0; 0,0;247,5; 44,4
2020-02-10 02:22:00; 12,7; 55; 3,9; 957,6868; 983,2500;2; 23,9; 23,9; 0,0; 0,0;247,5; 44,4
2020-02-10 02:31:59; 12,7; 55; 3,9; 957,6868; 983,2500;2; 23,9; 23,9; 0,0; 0,0;247,5; 44,4
2020-02-10 02:42:00; 12,7; 55; 3,9; 957,3118; 982,8750;2; 23,9; 23,9; 0,0; 0,0;247,5; 44,4
2020-02-10 02:51:59; 12,8; 55; 4,0; 957,3118; 982,8750;2; 23,9; 23,9; 0,0; 0,0;247,5; 44,4
2020-02-10 03:02:00; 12,9; 56; 4,3; 956,2493; 981,8125;3; 23,9; 23,9; 0,0; 0,0;247,5; 44,4
2020-02-10 03:12:00; 12,9; 56; 4,3; 956,2493; 981,8125;3; 23,9; 23,9; 0,0; 0,0;247,5; 44,4
2020-02-10 03:21:59; 12,8; 57; 4,5; 956,6243; 982,1875;3; 23,9; 23,9; 0,0; 0,0;247,5; 44,4
2020-02-10 03:32:00; 12,8; 58; 4,7; 956,6243; 982,1875;3; 23,9; 23,9; 0,0; 0,0;247,5; 44,4
2020-02-10 03:41:59; 12,7; 59; 4,9; 956,2493; 981,8125;3; 23,9; 23,9; 0,0; 0,0;247,5; 44,4
2020-02-10 03:52:00; 12,7; 60; 5,1; 956,2493; 981,8125;3; 23,8; 23,8; 0,0; 0,0;247,5; 44,4
2020-02-10 04:01:59; 12,4; 64; 5,8; 956,4368; 982,0000;3; 23,9; 23,9; 0,0; 0,0;247,5; 44,4
2020-02-10 04:12:00; 9,5; 70; 4,3; 956,4368; 982,0000;3; 23,9; 23,9; 0,0; 0,0;247,5; 48,0
2020-02-10 04:21:59; 6,9; 80; 3,7; 960,0618; 985,6250;4; 23,9; 23,9; 0,0; 0,0;247,5; 50,8
2020-02-10 04:32:00; 7,2; 81; 4,2; 960,0618; 985,6250;4; 23,8; 23,8; 0,0; 0,0;247,5; 52,2
2020-02-10 04:42:00; 7,3; 80; 4,1; 959,0618; 984,6250;4; 23,8; 23,8; 0,0; 0,0;247,5; 52,2
2020-02-10 04:51:59; 7,5; 79; 4,1; 959,0618; 984,6250;4; 23,8; 23,8; 0,0; 0,0;247,5; 52,2
2020-02-10 05:02:00; 7,5; 79; 4,1; 959,1868; 984,7500;4; 23,8; 23,8; 0,0; 0,0;247,5; 52,2
2020-02-10 05:11:59; 7,6; 79; 4,2; 959,1868; 984,7500;4; 23,8; 23,8; 0,0; 0,0;247,5; 52,2
2020-02-10 05:22:00; 7,5; 79; 4,1; 958,5618; 984,1250;4; 23,8; 23,8; 0,0; 0,0;247,5; 52,9
2020-02-10 05:31:59; 7,6; 79; 4,2; 958,5618; 984,1250;4; 23,8; 23,8; 0,0; 0,0;247,5; 52,9
2020-02-10 05:42:00; 7,7; 79; 4,3; 957,8118; 983,3750;4; 23,8; 23,8; 0,0; 0,0;247,5; 52,9
2020-02-10 05:51:59; 7,7; 79; 4,3; 957,8118; 983,3750;4; 23,8; 23,8; 0,0; 0,0;247,5; 52,9
2020-02-10 06:02:00; 7,8; 78; 4,2; 958,4368; 984,0000;4; 23,7; 23,7; 0,0; 0,0;247,5; 52,9
2020-02-10 06:12:00; 7,9; 78; 4,3; 958,4368; 984,0000;4; 23,7; 23,7; 0,0; 0,0;247,5; 52,9
2020-02-10 06:21:59; 7,9; 77; 4,1; 957,9993; 983,5625;4; 23,7; 23,7; 0,0; 0,0;247,5; 52,9
2020-02-10 06:32:00; 8,0; 76; 4,0; 957,9993; 983,5625;4; 23,7; 23,7; 0,0; 0,0;247,5; 52,9
2020-02-10 06:41:59; 8,1; 76; 4,1; 957,8118; 983,3750;4; 23,7; 23,7; 0,0; 0,0;247,5; 52,9
2020-02-10 06:52:00; 8,1; 75; 3,9; 957,8118; 983,3750;4; 23,7; 23,7; 0,0; 0,0;247,5; 52,9
2020-02-10 07:01:59; 8,2; 75; 4,0; 957,9993; 983,5625;4; 23,7; 23,7; 0,0; 0,0;247,5; 52,9
2020-02-10 07:12:00; 8,2; 74; 3,8; 957,9993; 983,5625;4; 23,7; 23,7; 0,0; 0,0;247,5; 52,9
2020-02-10 07:21:59; 8,3; 73; 3,7; 958,8118; 984,3750;4; 23,7; 23,7; 0,0; 0,0;247,5; 52,9
2020-02-10 07:32:00; 8,4; 73; 3,8; 958,8118; 984,3750;4; 23,7; 23,7; 0,0; 0,0;247,5; 52,9
2020-02-10 07:42:00; 8,5; 73; 3,9; 958,9368; 984,5000;4; 23,7; 23,7; 0,0; 0,0;247,5; 52,9
2020-02-10 07:51:59; 8,7; 73; 4,1; 958,9368; 984,5000;4; 23,7; 23,7; 0,0; 0,0;247,5; 52,9
2020-02-10 08:02:00; 8,7; 72; 3,9; 959,3743; 984,9375;4; 23,8; 23,8; 0,0; 0,0;247,5; 52,9
2020-02-10 08:11:59; 9,0; 71; 4,0; 959,3743; 984,9375;4; 23,8; 23,8; 0,0; 0,0;247,5; 52,9
2020-02-10 08:22:00; 9,1; 70; 3,9; 959,3743; 984,9375;4; 23,8; 23,8; 0,0; 0,0;247,5; 52,9
2020-02-10 08:31:59; 9,1; 70; 3,9; 959,3743; 984,9375;4; 23,8; 23,8; 0,0; 0,0;247,5; 52,9
2020-02-10 08:42:00; 9,3; 70; 4,1; 959,1243; 984,6875;4; 23,8; 23,8; 0,0; 0,0;247,5; 52,9
2020-02-10 08:51:59; 9,5; 69; 4,1; 959,1243; 984,6875;4; 23,9; 23,9; 0,0; 0,0;247,5; 52,9
2020-02-10 09:02:00; 9,8; 69; 4,4; 959,3743; 984,9375;4; 24,1; 24,1; 0,0; 0,0;247,5; 52,9
2020-02-10 09:12:00; 9,7; 68; 4,1; 959,3743; 984,9375;4; 24,1; 24,1; 0,0; 0,0;247,5; 52,9
2020-02-10 09:21:59; 9,9; 69; 4,5; 959,4368; 985,0000;4; 24,1; 24,1; 0,0; 0,0;247,5; 52,9
2020-02-10 09:32:00; 10,5; 67; 4,6; 959,4368; 985,0000;4; 24,7; 24,7; 0,0; 0,0;247,5; 52,9
2020-02-10 09:41:59; 10,6; 65; 4,3; 959,6868; 985,2500;4; 25,1; 25,1; 0,0; 0,0;247,5; 52,9
2020-02-10 09:52:00; 10,1; 66; 4,0; 959,6868; 985,2500;4; 24,8; 24,8; 0,0; 0,0;247,5; 52,9
2020-02-10 10:01:59; 10,0; 67; 4,2; 960,0618; 985,6250;4; 24,5; 24,5; 0,0; 0,0;247,5; 52,9
2020-02-10 10:12:00; 9,6; 70; 4,4; 960,0618; 985,6250;4; 24,3; 24,3; 0,0; 0,0;247,5; 52,9
2020-02-10 10:21:59; 9,0; 73; 4,4; 960,3743; 985,9375;4; 24,1; 24,1; 0,0; 0,0;247,5; 53,6
2020-02-10 10:32:00; 8,6; 77; 4,8; 960,3743; 985,9375;4; 24,1; 24,1; 0,0; 0,0;247,5; 53,6
2020-02-10 10:42:00; 8,5; 76; 4,5; 960,4993; 986,0625;4; 24,1; 24,1; 0,0; 0,0;247,5; 53,6
2020-02-10 10:51:59; 8,5; 71; 3,5; 960,4993; 986,0625;4; 24,2; 24,2; 0,0; 0,0;247,5; 53,6
2020-02-10 11:02:00; 8,1; 69; 2,8; 960,9368; 986,5000;4; 24,1; 24,1; 0,0; 0,0;247,5; 54,3
2020-02-10 11:11:59; 8,4; 68; 2,8; 960,9368; 986,5000;4; 24,1; 24,1; 0,0; 0,0;247,5; 54,3
2020-02-10 11:22:00; 8,3; 70; 3,1; 961,3743; 986,9375;4; 24,2; 24,2; 0,0; 0,0;247,5; 54,3
2020-02-10 11:31:59; 8,7; 67; 2,9; 961,3743; 986,9375;4; 24,5; 24,5; 0,0; 0,0;247,5; 54,3
2020-02-10 11:42:00; 8,2; 68; 2,6; 962,0618; 987,6250;4; 24,4; 24,4; 0,0; 0,0;247,5; 54,3
2020-02-10 11:51:59; 7,6; 67; 1,9; 962,0618; 987,6250;4; 24,2; 24,2; 0,0; 0,0;247,5; 54,3
2020-02-10 12:02:00; 7,2; 68; 1,7; 962,5618; 988,1250;4; 24,1; 24,1; 0,0; 0,0;247,5; 54,3
2020-02-10 12:12:00; 7,3; 68; 1,8; 962,5618; 988,1250;4; 24,1; 24,1; 0,0; 0,0;247,5; 54,3
2020-02-10 12:21:59; 7,5; 68; 2,0; 963,3118; 988,8750;4; 24,0; 24,0; 0,0; 0,0;247,5; 54,3
2020-02-10 12:32:00; 7,3; 69; 2,0; 963,3118; 988,8750;4; 24,0; 24,0; 0,0; 0,0;247,5; 54,3
2020-02-10 12:41:59; 7,7; 70; 2,6; 963,4368; 989,0000;4; 24,1; 24,1; 0,0; 0,0;247,5; 54,3
2020-02-10 12:52:00; 7,8; 68; 2,3; 963,4368; 989,0000;4; 24,2; 24,2; 0,0; 0,0;247,5; 54,3
2020-02-10 13:01:59; 8,2; 67; 2,4; 963,4993; 989,0625;4; 24,3; 24,3; 0,0; 0,0;247,5; 54,3
2020-02-10 13:12:00; 7,9; 65; 1,7; 963,4993; 989,0625;4; 24,3; 24,3; 0,0; 0,0;247,5; 54,3
2020-02-10 13:21:59; 7,5; 65; 1,3; 963,8118; 989,3750;4; 24,2; 24,2; 0,0; 0,0;247,5; 54,3
2020-02-10 13:32:00; 7,1; 65; 1,0; 963,8118; 989,3750;4; 24,1; 24,1; 0,0; 0,0;247,5; 54,3
2020-02-10 13:42:00; 6,9; 64; 0,6; 964,2493; 989,8125;4; 24,1; 24,1; 0,0; 0,0;247,5; 54,3
2020-02-10 13:51:59; 6,9; 66; 1,0; 964,2493; 989,8125;4; 24,1; 24,1; 0,0; 0,0;247,5; 54,3
2020-02-10 14:02:00; 6,9; 63; 0,3; 964,4368; 990,0000;4; 24,1; 24,1; 0,0; 0,0;247,5; 54,3
2020-02-10 14:11:59; 6,7; 64; 0,4; 964,4368; 990,0000;4; 24,1; 24,1; 0,0; 0,0;247,5; 54,3
2020-02-10 14:22:00; 6,4; 65; 0,3; 964,8743; 990,4375;4; 24,0; 24,0; 0,0; 0,0;247,5; 54,3
2020-02-10 14:31:59; 6,3; 65; 0,2; 964,8743; 990,4375;4; 24,0; 24,0; 0,0; 0,0;247,5; 54,3
2020-02-10 14:42:00; 6,3; 67; 0,6; 965,1868; 990,7500;4; 24,0; 24,0; 0,0; 0,0;247,5; 54,3
2020-02-10 14:51:59; 6,3; 67; 0,6; 965,1868; 990,7500;4; 24,1; 24,1; 0,0; 0,0;247,5; 54,3
2020-02-10 15:02:00; 6,4; 66; 0,5; 965,4993; 991,0625;4; 24,1; 24,1; 0,0; 0,0;247,5; 54,3
2020-02-10 15:12:00; 6,3; 66; 0,4; 965,4993; 991,0625;4; 24,0; 24,0; 0,0; 0,0;247,5; 54,3
2020-02-10 15:21:59; 6,4; 65; 0,3; 965,6243; 991,1875;4; 24,0; 24,0; 0,0; 0,0;247,5; 54,3
2020-02-10 15:32:00; 6,6; 63; 0,1; 965,6243; 991,1875;4; 23,9; 23,9; 0,0; 0,0;247,5; 54,3
2020-02-10 15:41:59; 6,7; 64; 0,4; 966,1243; 991,6875;5; 23,9; 23,9; 0,0; 0,0;247,5; 54,3
2020-02-10 15:52:00; 6,6; 65; 0,5; 966,1243; 991,6875;5; 23,9; 23,9; 0,0; 0,0;247,5; 54,3
2020-02-10 16:01:59; 6,7; 65; 0,6; 966,4993; 992,0625;5; 23,8; 23,8; 0,0; 0,0;247,5; 54,3
2020-02-10 16:12:00; 4,9; 74; 0,7; 966,4993; 992,0625;5; 23,8; 23,8; 0,0; 0,0;247,5; 54,3
2020-02-10 16:21:59; 4,1; 77; 0,4; 967,5618; 993,1250;5; 23,8; 23,8; 0,0; 0,0;247,5; 54,3
2020-02-10 16:32:00; 4,3; 77; 0,6; 967,5618; 993,1250;5; 23,8; 23,8; 0,0; 0,0;247,5; 54,3
2020-02-10 16:42:00; 3,9; 80; 0,8; 966,9368; 992,5000;5; 23,8; 23,8; 0,0; 0,0;247,5; 55,0
2020-02-10 16:51:59; 3,5; 81; 0,5; 966,9368; 992,5000;5; 23,8; 23,8; 0,0; 0,0;247,5; 55,7
2020-02-10 17:02:00; 3,6; 80; 0,5; 966,5618; 992,1250;5; 23,7; 23,7; 0,0; 0,0;247,5; 55,7
2020-02-10 17:11:59; 3,6; 79; 0,3; 966,5618; 992,1250;5; 23,7; 23,7; 0,0; 0,0;247,5; 55,7
2020-02-10 17:22:00; 3,6; 79; 0,3; ; ;5; 23,7; 23,7; 0,0; 0,0;247,5; 55,7
2020-02-10 17:31:59; 3,7; 79; 0,4; ; ;5; 23,7; 23,7; 0,0; 0,0;247,5; 55,7
2020-02-10 17:42:00; 3,3; 81; 0,4; 967,3743; 992,9375;5; 23,7; 23,7; 0,0; 0,0;247,5; 55,7
2020-02-10 17:51:59; 3,0; 82; 0,2; 967,3743; 992,9375;5; 23,7; 23,7; 0,0; 0,0;247,5; 55,7
2020-02-10 18:02:00; 3,2; 82; 0,4; 967,2493; 992,8125;5; 23,7; 23,7; 0,0; 0,0;247,5; 55,7
2020-02-10 18:12:00; 3,3; 82; 0,5; 967,2493; 992,8125;5; 23,7; 23,7; 0,0; 0,0;247,5; 56,4
2020-02-10 18:21:59; 3,2; 82; 0,4; 967,1243; 992,6875;5; 23,7; 23,7; 0,0; 0,0;247,5; 56,4
2020-02-10 18:32:00; 3,2; 82; 0,4; 967,1243; 992,6875;5; 23,7; 23,7; 0,0; 0,0;247,5; 56,4
2020-02-10 18:41:59; 3,3; 82; 0,5; 966,8743; 992,4375;5; 23,7; 23,7; 0,0; 0,0;247,5; 56,4
2020-02-10 18:52:00; 3,4; 82; 0,6; 966,8743; 992,4375;5; 23,6; 23,6; 0,0; 0,0;247,5; 56,4
2020-02-10 19:01:59; 3,5; 82; 0,7; ; ;5; 23,6; 23,6; 0,0; 0,0;247,5; 56,4
2020-02-10 19:12:00; 3,5; 82; 0,7; ; ;5; 23,6; 23,6; 0,0; 0,0;247,5; 56,4
2020-02-10 19:21:59; 3,7; 82; 0,9; 965,8743; 991,4375;5; 23,6; 23,6; 0,0; 0,0;247,5; 56,4
2020-02-10 19:32:00; 3,8; 81; 0,8; 965,8743; 991,4375;5; 23,6; 23,6; 0,0; 0,0;247,5; 56,4
2020-02-10 19:42:00; 3,8; 80; 0,7; 965,4993; 991,0625;4; 23,6; 23,6; 0,0; 0,0;247,5; 56,4
2020-02-10 19:51:59; 4,0; 80; 0,9; 965,4993; 991,0625;4; 23,6; 23,6; 0,0; 0,0;247,5; 56,4
2020-02-10 20:02:00; 4,1; 79; 0,8; 964,9368; 990,5000;4; 23,6; 23,6; 0,0; 0,0;247,5; 56,4
2020-02-10 20:11:59; 4,2; 78; 0,7; 964,9368; 990,5000;4; 23,6; 23,6; 0,0; 0,0;247,5; 56,4
2020-02-10 20:22:00; 4,4; 78; 0,9; 964,3743; 989,9375;4; 23,6; 23,6; 0,0; 0,0;247,5; 56,4
2020-02-10 20:31:59; 4,6; 77; 0,9; 964,3743; 989,9375;4; 23,6; 23,6; 0,0; 0,0;247,5; 56,4
2020-02-10 20:42:00; 4,9; 75; 0,8; 963,8118; 989,3750;4; 23,6; 23,6; 0,0; 0,0;247,5; 56,4
2020-02-10 20:51:59; 5,0; 75; 0,9; 963,8118; 989,3750;4; 23,6; 23,6; 0,0; 0,0;247,5; 56,4
2020-02-10 21:02:00; 5,2; 74; 0,9; 963,3743; 988,9375;4; 23,6; 23,6; 0,0; 0,0;247,5; 56,4
2020-02-10 21:12:00; 5,4; 74; 1,1; 963,3743; 988,9375;4; 23,6; 23,6; 0,0; 0,0;247,5; 56,4
2020-02-10 21:21:59; 5,5; 74; 1,2; 963,1868; 988,7500;4; 23,6; 23,6; 0,0; 0,0;247,5; 56,4
2020-02-10 21:32:00; 5,5; 74; 1,2; 963,1868; 988,7500;4; 23,6; 23,6; 0,0; 0,0;247,5; 56,4
2020-02-10 21:41:59; 5,5; 74; 1,2; 962,3743; 987,9375;4; 23,6; 23,6; 0,0; 0,0;247,5; 56,4
2020-02-10 21:52:00; 5,5; 74; 1,2; 962,3743; 987,9375;4; 23,6; 23,6; 0,0; 0,0;247,5; 56,4
2020-02-10 22:01:59; 5,7; 74; 1,4; 961,4368; 987,0000;4; 23,6; 23,6; 0,0; 0,0;247,5; 56,4
2020-02-10 22:12:00; 5,8; 74; 1,5; 961,4368; 987,0000;4; 23,6; 23,6; 0,0; 0,0;247,5; 56,4
2020-02-10 22:21:59; 5,8; 74; 1,5; 961,1243; 986,6875;4; 23,6; 23,6; 0,0; 0,0;247,5; 56,4
2020-02-10 22:32:00; 5,9; 74; 1,6; 961,1243; 986,6875;4; 23,6; 23,6; 0,0; 0,0;247,5; 56,4
2020-02-10 22:42:00; 6,0; 74; 1,7; 960,7493; 986,3125;4; 23,6; 23,6; 0,0; 0,0;247,5; 56,4
2020-02-10 22:51:59; 5,9; 74; 1,6; 960,7493; 986,3125;4; 23,6; 23,6; 0,0; 0,0;247,5; 56,4
2020-02-10 23:02:00; 5,9; 76; 2,0; 961,1243; 986,6875;4; 23,6; 23,6; 0,0; 0,0;247,5; 56,4
2020-02-10 23:11:59; 5,8; 77; 2,1; 961,1243; 986,6875;4; 23,6; 23,6; 0,0; 0,0;247,5; 56,4
2020-02-10 23:22:00; 5,6; 78; 2,1; 960,6868; 986,2500;4; 23,6; 23,6; 0,0; 0,0;247,5; 56,4
2020-02-10 23:31:59; 5,5; 78; 2,0; 960,6868; 986,2500;4; 23,6; 23,6; 0,0; 0,0;247,5; 56,4
2020-02-10 23:42:00; 5,5; 78; 2,0; 959,8118; 985,3750;4; 23,6; 23,6; 0,0; 0,0;247,5; 56,4
2020-02-10 23:51:59; 5,5; 78; 2,0; 959,8118; 985,3750;4; 23,6; 23,6; 0,0; 0,0;247,5; 56,4
2020-02-11 00:02:00; 5,6; 77; 1,9; 959,9368; 985,5000;4; 23,6; 23,6; 0,0; 0,0;247,5; 56,4
2020-02-11 00:12:00; 6,0; 74; 1,7; 959,9368; 985,5000;4; 23,6; 23,6; 0,0; 0,0;247,5; 56,4
2020-02-11 00:21:59; 6,2; 72; 1,5; 959,6243; 985,1875;4; 23,6; 23,6; 0,0; 0,0;247,5; 56,4
2020-02-11 00:32:00; 6,1; 73; 1,6; 959,6243; 985,1875;4; 23,6; 23,6; 0,0; 0,0;247,5; 56,4
2020-02-11 00:41:59; 6,0; 73; 1,5; 959,3118; 984,8750;4; 23,6; 23,6; 0,0; 0,0;247,5; 56,4
2020-02-11 00:52:00; 6,0; 73; 1,5; 959,3118; 984,8750;4; 23,6; 23,6; 0,0; 0,0;247,5; 56,4
2020-02-11 01:01:59; 6,2; 73; 1,7; 959,2493; 984,8125;4; 23,6; 23,6; 0,0; 0,0;247,5; 56,4
2020-02-11 01:12:00; 6,3; 73; 1,8; 959,2493; 984,8125;4; 23,5; 23,5; 0,0; 0,0;247,5; 56,4
2020-02-11 01:21:59; 6,3; 72; 1,6; 958,9993; 984,5625;4; 23,5; 23,5; 0,0; 0,0;247,5; 56,4
2020-02-11 01:32:00; 6,3; 75; 2,2; 958,9993; 984,5625;4; 23,6; 23,6; 0,0; 0,0;247,5; 56,4
2020-02-11 01:42:00; 5,9; 77; 2,2; 959,4368; 985,0000;4; 23,5; 23,5; 0,0; 0,0;247,5; 56,4
2020-02-11 01:51:59; 5,8; 78; 2,3; 959,4368; 985,0000;4; 23,5; 23,5; 0,0; 0,0;247,5; 56,4
2020-02-11 02:02:00; 5,8; 77; 2,1; 959,5618; 985,1250;4; 23,5; 23,5; 0,0; 0,0;247,5; 56,4
2020-02-11 02:11:59; 5,7; 77; 2,0; 959,5618; 985,1250;4; 23,5; 23,5; 0,0; 0,0;247,5; 56,4
2020-02-11 02:22:00; 5,6; 76; 1,7; 959,4993; 985,0625;4; 23,6; 23,6; 0,0; 0,0;247,5; 56,4
2020-02-11 02:31:59; 5,7; 74; 1,4; 959,4993; 985,0625;4; 23,6; 23,6; 0,0; 0,0;247,5; 56,4
2020-02-11 02:42:00; 5,6; 72; 1,0; 959,9993; 985,5625;4; 23,5; 23,5; 0,0; 0,0;247,5; 56,4
2020-02-11 02:51:59; 5,5; 72; 0,9; 959,9993; 985,5625;4; 23,6; 23,6; 0,0; 0,0;247,5; 56,4
2020-02-11 03:02:00; 5,4; 74; 1,1; 960,4993; 986,0625;4; 23,5; 23,5; 0,0; 0,0;247,5; 56,4
2020-02-11 03:12:00; 5,0; 77; 1,3; 960,4993; 986,0625;4; 23,5; 23,5; 0,0; 0,0;247,5; 57,1
2020-02-11 03:21:59; 4,1; 79; 0,8; 961,2493; 986,8125;4; 23,5; 23,5; 0,0; 0,0;247,5; 57,1
2020-02-11 03:32:00; 4,0; 81; 1,0; 961,2493; 986,8125;4; 23,5; 23,5; 0,0; 0,0;247,5; 57,8
2020-02-11 03:41:59; 4,1; 81; 1,1; 961,8118; 987,3750;4; 23,5; 23,5; 0,0; 0,0;247,5; 57,8
2020-02-11 03:52:00; 4,3; 79; 1,0; 961,8118; 987,3750;4; 23,6; 23,6; 0,0; 0,0;247,5; 57,8
2020-02-11 04:01:59; 4,4; 79; 1,1; 962,3118; 987,8750;4; 23,5; 23,5; 0,0; 0,0;247,5; 57,8
2020-02-11 04:12:00; 4,4; 78; 0,9; 962,3118; 987,8750;4; 23,5; 23,5; 0,0; 0,0;247,5; 57,8
2020-02-11 04:21:59; 4,4; 77; 0,7; 962,7493; 988,3125;4; 23,5; 23,5; 0,0; 0,0;247,5; 57,8
2020-02-11 04:32:00; 4,3; 76; 0,4; 962,7493; 988,3125;4; 23,5; 23,5; 0,0; 0,0;247,5; 57,8
2020-02-11 04:42:00; 4,2; 73; -0,2; 962,8118; 988,3750;4; 23,4; 23,4; 0,0; 0,0;247,5; 57,8
2020-02-11 04:51:59; 4,2; 70; -0,8; 962,8118; 988,3750;4; 23,4; 23,4; 0,0; 0,0;247,5; 57,8
2020-02-11 05:02:00; 2,9; 78; -0,6; 963,9993; 989,5625;4; 23,4; 23,4; 0,0; 0,0;247,5; 57,8
2020-02-11 05:11:59; 2,7; 79; -0,6; 963,9993; 989,5625;4; 23,4; 23,4; 0,0; 0,0;247,5; 57,8
2020-02-11 05:22:00; 2,6; 80; -0,5; 963,8118; 989,3750;4; 23,4; 23,4; 0,0; 0,0;247,5; 57,8
2020-02-11 05:31:59; 2,7; 80; -0,4; 963,8118; 989,3750;4; 23,4; 23,4; 0,0; 0,0;247,5; 57,8
2020-02-11 05:42:00; 2,7; 79; -0,6; 964,1868; 989,7500;4; 23,4; 23,4; 0,0; 0,0;247,5; 57,8
2020-02-11 05:51:59; 2,7; 78; -0,8; 964,1868; 989,7500;4; 23,4; 23,4; 0,0; 0,0;247,5; 57,8
2020-02-11 06:02:00; 2,7; 76; -1,1; 964,4993; 990,0625;4; 23,4; 23,4; 0,0; 0,0;247,5; 57,8
2020-02-11 06:12:00; 2,9; 75; -1,1; 964,4993; 990,0625;4; 23,4; 23,4; 0,0; 0,0;247,5; 57,8
2020-02-11 06:21:59; 3,1; 73; -1,3; 964,8118; 990,3750;4; 23,4; 23,4; 0,0; 0,0;247,5; 57,8
2020-02-11 06:32:00; 3,3; 72; -1,3; 964,8118; 990,3750;4; 23,4; 23,4; 0,0; 0,0;247,5; 57,8
2020-02-11 06:41:59; 3,4; 71; -1,4; 965,2493; 990,8125;4; 23,4; 23,4; 0,0; 0,0;247,5; 57,8
2020-02-11 06:52:00; 3,6; 70; -1,4; 965,2493; 990,8125;4; 23,4; 23,4; 0,0; 0,0;247,5; 57,8
2020-02-11 07:01:59; 3,5; 71; -1,3; 965,5618; 991,1250;4; 23,4; 23,4; 0,0; 0,0;247,5; 57,8
2020-02-11 07:12:00; 3,6; 71; -1,2; 965,5618; 991,1250;4; 23,4; 23,4; 0,0; 0,0;247,5; 57,8
2020-02-11 07:21:59; 3,7; 71; -1,1; 965,9368; 991,5000;4; 23,4; 23,4; 0,0; 0,0;247,5; 57,8
2020-02-11 07:32:00; 3,8; 70; -1,2; 965,9368; 991,5000;4; 23,6; 23,6; 0,0; 0,0;247,5; 57,8
2020-02-11 07:42:00; 3,7; 69; -1,5; 965,6868; 991,2500;4; 23,5; 23,5; 0,0; 0,0;247,5; 57,8
2020-02-11 07:51:59; 4,2; 67; -1,4; 965,6868; 991,2500;4; 23,5; 23,5; 0,0; 0,0;247,5; 57,8
2020-02-11 08:02:00; 4,7; 63; -1,7; 965,4993; 991,0625;4; 23,9; 23,9; 0,0; 0,0;247,5; 57,8
2020-02-11 08:11:59; 4,9; 61; -2,0; 965,4993; 991,0625;4; 24,6; 24,6; 0,0; 0,0;247,5; 57,8
2020-02-11 08:22:00; 5,2; 58; -2,4; 965,9993; 991,5625;4; 25,3; 25,3; 0,0; 0,0;247,5; 57,8
2020-02-11 08:31:59; 5,3; 58; -2,3; 965,9993; 991,5625;4; 25,9; 25,9; 0,0; 0,0;247,5; 57,8
2020-02-11 08:42:00; 5,4; 58; -2,2; 966,7493; 992,3125;5; 25,9; 25,9; 0,0; 0,0;247,5; 57,8
2020-02-11 08:51:59; 5,5; 55; -2,8; 966,7493; 992,3125;5; 25,6; 25,6; 0,0; 0,0;247,5; 57,8
2020-02-11 09:02:00; 5,5; 56; -2,6; 967,2493; 992,8125;5; 25,2; 25,2; 0,0; 0,0;247,5; 57,8
2020-02-11 09:12:00; 5,4; 57; -2,4; 967,2493; 992,8125;5; 24,8; 24,8; 0,0; 0,0;247,5; 57,8
2020-02-11 09:21:59; 5,4; 58; -2,2; 967,3118; 992,8750;5; 24,5; 24,5; 0,0; 0,0;247,5; 57,8
2020-02-11 09:32:00; 5,4; 58; -2,2; 967,3118; 992,8750;5; 24,3; 24,3; 0,0; 0,0;247,5; 57,8
2020-02-11 09:41:59; 5,4; 57; -2,4; 967,3743; 992,9375;5; 24,1; 24,1; 0,0; 0,0;247,5; 57,8
2020-02-11 09:52:00; 5,3; 56; -2,8; 967,3743; 992,9375;5; 24,1; 24,1; 0,0; 0,0;247,5; 57,8
2020-02-11 10:01:59; 5,6; 57; -2,3; 967,1243; 992,6875;5; 24,2; 24,2; 0,0; 0,0;247,5; 57,8
2020-02-11 10:12:00; 5,9; 56; -2,2; 967,1243; 992,6875;5; 24,2; 24,2; 0,0; 0,0;247,5; 57,8
2020-02-11 10:21:59; 6,3; 56; -1,8; 967,3118; 992,8750;5; 24,4; 24,4; 0,0; 0,0;247,5; 57,8
2020-02-11 10:32:00; 6,2; 55; -2,2; 967,3118; 992,8750;5; 24,7; 24,7; 0,0; 0,0;247,5; 57,8
2020-02-11 10:42:00; 6,4; 52; -2,7; 967,2493; 992,8125;5; 25,0; 25,0; 0,0; 0,0;247,5; 57,8
2020-02-11 10:51:59; 6,5; 52; -2,7; 967,2493; 992,8125;5; 25,1; 25,1; 0,0; 0,0;247,5; 57,8
2020-02-11 11:02:00; 6,5; 52; -2,7; 967,3743; 992,9375;5; 25,2; 25,2; 0,0; 0,0;247,5; 57,8
2020-02-11 11:11:59; 6,6; 53; -2,3; 967,3743; 992,9375;5; 25,3; 25,3; 0,0; 0,0;247,5; 57,8
2020-02-11 11:22:00; 6,7; 51; -2,7; 967,4368; 993,0000;5; 25,5; 25,5; 0,0; 0,0;247,5; 57,8
2020-02-11 11:31:59; 6,7; 51; -2,7; 967,4368; 993,0000;5; 25,8; 25,8; 0,0; 0,0;247,5; 57,8
2020-02-11 11:42:00; 6,7; 53; -2,2; 967,4993; 993,0625;5; 25,9; 25,9; 0,0; 0,0;247,5; 57,8
2020-02-11 11:51:59; 6,8; 53; -2,1; 967,4993; 993,0625;5; 26,1; 26,1; 0,0; 0,0;247,5; 57,8
2020-02-11 12:02:00; 6,9; 50; -2,8; 967,4993; 993,0625;5; 26,2; 26,2; 0,0; 0,0;247,5; 57,8
2020-02-11 12:12:00; 7,1; 51; -2,4; 967,4993; 993,0625;5; 26,2; 26,2; 0,0; 0,0;247,5; 57,8
2020-02-11 12:21:59; 7,3; 49; -2,7; 967,6243; 993,1875;5; 26,2; 26,2; 0,0; 0,0;247,5; 57,8
2020-02-11 12:32:00; 7,2; 47; -3,4; 967,6243; 993,1875;5; 26,2; 26,2; 0,0; 0,0;247,5; 57,8
2020-02-11 12:41:59; 7,3; 47; -3,3; 967,6868; 993,2500;5; 26,2; 26,2; 0,0; 0,0;247,5; 57,8
2020-02-11 12:52:00; 7,1; 46; -3,7; 967,6868; 993,2500;5; 26,1; 26,1; 0,0; 0,0;247,5; 57,8
2020-02-11 13:01:59; 7,3; 49; -2,7; 967,6868; 993,2500;5; 26,0; 26,0; 0,0; 0,0;247,5; 57,8
2020-02-11 13:12:00; 7,2; 50; -2,5; 967,6868; 993,2500;5; 26,0; 26,0; 0,0; 0,0;247,5; 57,8
2020-02-11 13:21:59; 7,3; 51; -2,2; 967,6868; 993,2500;5; 25,9; 25,9; 0,0; 0,0;247,5; 57,8
2020-02-11 13:32:00; 7,1; 52; -2,1; 967,6868; 993,2500;5; 25,8; 25,8; 0,0; 0,0;247,5; 57,8
2020-02-11 13:42:00; 6,9; 51; -2,5; 967,8743; 993,4375;5; 25,7; 25,7; 0,0; 0,0;247,5; 57,8
2020-02-11 13:51:59; 6,7; 51; -2,7; 967,8743; 993,4375;5; 25,5; 25,5; 0,0; 0,0;247,5; 57,8
2020-02-11 14:02:00; 6,7; 52; -2,5; 967,7493; 993,3125;5; 25,4; 25,4; 0,0; 0,0;247,5; 57,8
2020-02-11 14:11:59; 6,6; 53; -2,3; 967,7493; 993,3125;5; 25,3; 25,3; 0,0; 0,0;247,5; 57,8
2020-02-11 14:22:00; 6,2; 53; -2,7; 967,6868; 993,2500;5; 25,1; 25,1; 0,0; 0,0;247,5; 57,8
2020-02-11 14:31:59; 6,1; 54; -2,5; 967,6868; 993,2500;5; 24,9; 24,9; 0,0; 0,0;247,5; 57,8
2020-02-11 14:42:00; 6,3; 53; -2,6; 967,7493; 993,3125;5; 24,8; 24,8; 0,0; 0,0;247,5; 57,8
2020-02-11 14:51:59; 6,3; 52; -2,8; 967,7493; 993,3125;5; 24,7; 24,7; 0,0; 0,0;247,5; 57,8
2020-02-11 15:02:00; 5,8; 56; -2,3; 968,0618; 993,6250;5; 24,6; 24,6; 0,0; 0,0;247,5; 57,8
2020-02-11 15:12:00; 5,3; 58; -2,3; 968,0618; 993,6250;5; 24,4; 24,4; 0,0; 0,0;247,5; 57,8
2020-02-11 15:21:59; 4,3; 69; -0,9; 968,2493; 993,8125;5; 24,3; 24,3; 0,0; 0,0;247,5; 57,8
2020-02-11 15:32:00; 2,9; 75; -1,1; 968,2493; 993,8125;5; 24,2; 24,2; 0,0; 0,0;247,5; 57,8
2020-02-11 15:41:59; 2,7; 77; -0,9; 968,6243; 994,1875;5; 24,2; 24,2; 0,0; 0,0;247,5; 57,8
2020-02-11 15:52:00; 2,7; 77; -0,9; 968,6243; 994,1875;5; 24,1; 24,1; 0,0; 0,0;247,5; 57,8
2020-02-11 16:01:59; 2,7; 77; -0,9; 968,4993; 994,0625;5; 24,0; 24,0; 0,0; 0,0;247,5; 57,8
2020-02-11 16:12:00; 2,9; 74; -1,3; 968,4993; 994,0625;5; 24,0; 24,0; 0,0; 0,0;247,5; 57,8
2020-02-11 16:21:59; 3,3; 71; -1,5; 968,3118; 993,8750;5; 24,0; 24,0; 0,0; 0,0;247,5; 57,8
2020-02-11 16:32:00; 3,7; 68; -1,7; 968,3118; 993,8750;5; 24,0; 24,0; 0,0; 0,0;247,5; 57,8
2020-02-11 16:42:00; 2,9; 79; -0,4; 969,5618; 995,1250;5; 23,9; 23,9; 0,0; 0,0;247,5; 57,8
2020-02-11 16:51:59; 2,8; 78; -0,7; 969,5618; 995,1250;5; 23,9; 23,9; 0,0; 0,0;247,5; 57,8
2020-02-11 17:02:00; 2,8; 78; -0,7; 969,4993; 995,0625;5; 23,9; 23,9; 0,0; 0,0;247,5; 57,8
2020-02-11 17:11:59; 2,8; 78; -0,7; 969,4993; 995,0625;5; 23,9; 23,9; 0,0; 0,0;247,5; 57,8
2020-02-11 17:22:00; 2,8; 77; -0,8; 969,6868; 995,2500;5; 23,9; 23,9; 0,0; 0,0;247,5; 57,8
2020-02-11 17:31:59; 2,9; 77; -0,7; 969,6868; 995,2500;5; 23,9; 23,9; 0,0; 0,0;247,5; 57,8
2020-02-11 17:42:00; 2,9; 75; -1,1; 969,4993; 995,0625;5; 23,8; 23,8; 0,0; 0,0;247,5; 57,8
2020-02-11 17:51:59; 3,0; 73; -1,4; 969,4993; 995,0625;5; 23,8; 23,8; 0,0; 0,0;247,5; 57,8
2020-02-11 18:02:00; 3,1; 72; -1,5; 969,6868; 995,2500;5; 23,8; 23,8; 0,0; 0,0;247,5; 57,8
2020-02-11 18:12:00; 3,2; 69; -1,9; 969,6868; 995,2500;5; 23,8; 23,8; 0,0; 0,0;247,5; 57,8
2020-02-11 18:21:59; 3,4; 68; -1,9; 969,8118; 995,3750;5; 23,8; 23,8; 0,0; 0,0;247,5; 57,8
2020-02-11 18:32:00; 3,8; 68; -1,6; 969,8118; 995,3750;5; 23,8; 23,8; 0,0; 0,0;247,5; 57,8
2020-02-11 18:41:59; 2,8; 77; -0,8; 970,9368; 996,5000;5; 23,8; 23,8; 0,0; 0,0;247,5; 57,8
2020-02-11 18:52:00; 2,6; 78; -0,8; 970,9368; 996,5000;5; 23,8; 23,8; 0,0; 0,0;247,5; 57,8
2020-02-11 19:01:59; 2,6; 78; -0,8; 970,4368; 996,0000;5; 23,8; 23,8; 0,0; 0,0;247,5; 57,8
2020-02-11 19:12:00; 2,6; 77; -1,0; 970,4368; 996,0000;5; 23,8; 23,8; 0,0; 0,0;247,5; 57,8
2020-02-11 19:21:59; 2,7; 74; -1,5; 970,4368; 996,0000;5; 23,7; 23,7; 0,0; 0,0;247,5; 57,8
2020-02-11 19:32:00; 2,9; 71; -1,8; 970,4368; 996,0000;5; 23,7; 23,7; 0,0; 0,0;247,5; 57,8
2020-02-11 19:42:00; 3,0; 70; -1,9; 970,6868; 996,2500;5; 23,7; 23,7; 0,0; 0,0;247,5; 57,8
2020-02-11 19:51:59; 3,1; 68; -2,2; 970,6868; 996,2500;5; 23,7; 23,7; 0,0; 0,0;247,5; 57,8
2020-02-11 20:02:00; 3,2; 68; -2,1; 970,8743; 996,4375;5; 23,7; 23,7; 0,0; 0,0;247,5; 57,8
2020-02-11 20:11:59; 3,2; 67; -2,3; 970,8743; 996,4375;5; 23,7; 23,7; 0,0; 0,0;247,5; 57,8
2020-02-11 20:22:00; 3,2; 67; -2,3; 971,0618; 996,6250;5; 23,7; 23,7; 0,0; 0,0;247,5; 57,8
2020-02-11 20:31:59; 3,2; 67; -2,3; 971,0618; 996,6250;5; 23,7; 23,7; 0,0; 0,0;247,5; 57,8
2020-02-11 20:42:00; 3,1; 68; -2,2; 971,3118; 996,8750;5; 23,7; 23,7; 0,0; 0,0;247,5; 57,8
2020-02-11 20:51:59; 3,1; 68; -2,2; 971,3118; 996,8750;5; 23,6; 23,6; 0,0; 0,0;247,5; 57,8
2020-02-11 21:02:00; 3,0; 68; -2,3; 971,0618; 996,6250;5; 23,6; 23,6; 0,0; 0,0;247,5; 57,8
2020-02-11 21:12:00; 3,0; 68; -2,3; 971,0618; 996,6250;5; 23,6; 23,6; 0,0; 0,0;247,5; 57,8
2020-02-11 21:21:59; 2,9; 68; -2,4; 971,2493; 996,8125;5; 23,6; 23,6; 0,0; 0,0;247,5; 57,8
2020-02-11 21:32:00; 2,9; 68; -2,4; 971,2493; 996,8125;5; 23,6; 23,6; 0,0; 0,0;247,5; 57,8
2020-02-11 21:41:59; 2,8; 68; -2,5; 971,1868; 996,7500;5; 23,6; 23,6; 0,0; 0,0;247,5; 57,8
2020-02-11 21:52:00; 2,8; 68; -2,5; 971,1868; 996,7500;5; 23,6; 23,6; 0,0; 0,0;247,5; 57,8
2020-02-11 22:01:59; 2,9; 67; -2,6; 971,3743; 996,9375;5; 23,6; 23,6; 0,0; 0,0;247,5; 57,8
2020-02-11 22:12:00; 2,9; 67; -2,6; 971,3743; 996,9375;5; 23,6; 23,6; 0,0; 0,0;247,5; 57,8
2020-02-11 22:21:59; 2,9; 67; -2,6; 971,6868; 997,2500;5; 23,6; 23,6; 0,0; 0,0;247,5; 57,8
2020-02-11 22:32:00; 3,0; 68; -2,3; 971,6868; 997,2500;5; 23,6; 23,6; 0,0; 0,0;247,5; 57,8
2020-02-11 22:42:00; 3,0; 68; -2,3; 971,6868; 997,2500;5; 23,6; 23,6; 0,0; 0,0;247,5; 57,8
2020-02-11 22:51:59; 2,9; 68; -2,4; 971,6868; 997,2500;5; 23,6; 23,6; 0,0; 0,0;247,5; 57,8
2020-02-11 23:02:00; 2,8; 68; -2,5; 971,8118; 997,3750;5; 23,6; 23,6; 0,0; 0,0;247,5; 57,8
2020-02-11 23:11:59; 2,8; 68; -2,5; 971,8118; 997,3750;5; 23,6; 23,6; 0,0; 0,0;247,5; 57,8
2020-02-11 23:22:00; 2,9; 68; -2,4; 972,1243; 997,6875;5; 23,6; 23,6; 0,0; 0,0;247,5; 57,8
2020-02-11 23:31:59; 2,9; 68; -2,4; 972,1243; 997,6875;5; 23,6; 23,6; 0,0; 0,0;247,5; 57,8
2020-02-11 23:42:00; 2,8; 69; -2,3; 972,4993; 998,0625;5; 23,6; 23,6; 0,0; 0,0;247,5; 57,8
2020-02-11 23:51:59; 2,8; 68; -2,5; 972,4993; 998,0625;5; 23,6; 23,6; 0,0; 0,0;247,5; 57,8
2020-02-12 00:02:00; 2,8; 68; -2,5; 972,5618; 998,1250;5; 23,6; 23,6; 0,0; 0,0;247,5; 57,8
2020-02-12 00:12:00; 2,7; 68; -2,6; 972,5618; 998,1250;5; 23,6; 23,6; 0,0; 0,0;247,5; 57,8
2020-02-12 00:21:59; 2,7; 68; -2,6; 972,4993; 998,0625;5; 23,6; 23,6; 0,0; 0,0;247,5; 57,8
2020-02-12 00:32:00; 2,6; 68; -2,7; 972,4993; 998,0625;5; 23,6; 23,6; 0,0; 0,0;247,5; 57,8
2020-02-12 00:41:59; 2,6; 69; -2,5; 972,5618; 998,1250;5; 23,6; 23,6; 0,0; 0,0;247,5; 57,8
2020-02-12 00:52:00; 2,6; 69; -2,5; 972,5618; 998,1250;5; 23,6; 23,6; 0,0; 0,0;247,5; 57,8
2020-02-12 01:01:59; 2,6; 68; -2,7; 972,6243; 998,1875;5; 23,5; 23,5; 0,0; 0,0;247,5; 57,8
2020-02-12 01:12:00; 2,7; 68; -2,6; 972,6243; 998,1875;5; 23,5; 23,5; 0,0; 0,0;247,5; 57,8
2020-02-12 01:21:59; 2,7; 68; -2,6; 972,8118; 998,3750;5; 23,6; 23,6; 0,0; 0,0;247,5; 57,8
2020-02-12 01:32:00; 2,8; 67; -2,7; 972,8118; 998,3750;5; 23,5; 23,5; 0,0; 0,0;247,5; 57,8
2020-02-12 01:42:00; 2,8; 67; -2,7; 972,8118; 998,3750;5; 23,5; 23,5; 0,0; 0,0;247,5; 57,8
2020-02-12 01:51:59; 2,9; 67; -2,6; 972,8118; 998,3750;5; 23,6; 23,6; 0,0; 0,0;247,5; 57,8
2020-02-12 02:02:00; 3,0; 67; -2,5; 972,9993; 998,5625;5; 23,6; 23,6; 0,0; 0,0;247,5; 57,8
2020-02-12 02:11:59; 3,0; 68; -2,3; 972,9993; 998,5625;5; 23,5; 23,5; 0,0; 0,0;247,5; 57,8
2020-02-12 02:22:00; 3,0; 67; -2,5; 972,9993; 998,5625;5; 23,6; 23,6; 0,0; 0,0;247,5; 57,8
2020-02-12 02:31:59; 3,0; 67; -2,5; 972,9993; 998,5625;5; 23,5; 23,5; 0,0; 0,0;247,5; 57,8
2020-02-12 02:42:00; 3,1; 66; -2,6; 973,1868; 998,7500;6; 23,6; 23,6; 0,0; 0,0;247,5; 57,8
2020-02-12 02:51:59; 3,1; 67; -2,4; 973,1868; 998,7500;6; 23,5; 23,5; 0,0; 0,0;247,5; 57,8
2020-02-12 03:02:00; 3,1; 66; -2,6; 973,1243; 998,6875;6; 23,5; 23,5; 0,0; 0,0;247,5; 57,8
2020-02-12 03:12:00; 3,1; 67; -2,4; 973,1243; 998,6875;6; 23,6; 23,6; 0,0; 0,0;247,5; 57,8
2020-02-12 03:21:59; 3,0; 67; -2,5; 973,2493; 998,8125;6; 23,5; 23,5; 0,0; 0,0;247,5; 57,8
2020-02-12 03:32:00; 2,9; 68; -2,4; 973,2493; 998,8125;6; 23,5; 23,5; 0,0; 0,0;247,5; 57,8
2020-02-12 03:41:59; 2,7; 68; -2,6; 973,1243; 998,6875;6; 23,5; 23,5; 0,0; 0,0;247,5; 57,8
2020-02-12 03:52:00; 2,7; 68; -2,6; 973,1243; 998,6875;6; 23,5; 23,5; 0,0; 0,0;247,5; 57,8
2020-02-12 04:01:59; 2,7; 68; -2,6; 973,1243; 998,6875;6; 23,5; 23,5; 0,0; 0,0;247,5; 57,8
2020-02-12 04:12:00; 2,7; 68; -2,6; 973,1243; 998,6875;6; 23,5; 23,5; 0,0; 0,0;247,5; 57,8
2020-02-12 04:21:59; 2,7; 68; -2,6; 973,4368; 999,0000;6; 23,4; 23,4; 0,0; 0,0;247,5; 57,8
2020-02-12 04:32:00; 2,9; 68; -2,4; 973,4368; 999,0000;6; 23,4; 23,4; 0,0; 0,0;247,5; 57,8
2020-02-12 04:42:00; 2,9; 68; -2,4; 973,4993; 999,0625;6; 23,4; 23,4; 0,0; 0,0;247,5; 57,8
2020-02-12 04:51:59; 2,8; 69; -2,3; 973,4993; 999,0625;6; 23,4; 23,4; 0,0; 0,0;247,5; 57,8
2020-02-12 05:02:00; 2,7; 71; -2,0; 973,7493; 999,3125;6; 23,4; 23,4; 0,0; 0,0;247,5; 57,8
2020-02-12 05:11:59; 2,7; 69; -2,4; 973,7493; 999,3125;6; 23,4; 23,4; 0,0; 0,0;247,5; 57,8
2020-02-12 05:22:00; 2,8; 68; -2,5; 973,6868; 999,2500;6; 23,4; 23,4; 0,0; 0,0;247,5; 57,8
2020-02-12 05:31:59; 2,8; 67; -2,7; 973,6868; 999,2500;6; 23,4; 23,4; 0,0; 0,0;247,5; 57,8
2020-02-12 05:42:00; 2,8; 67; -2,7; 973,7493; 999,3125;6; 23,4; 23,4; 0,0; 0,0;247,5; 57,8
2020-02-12 05:51:59; 2,7; 66; -3,0; 973,7493; 999,3125;6; 23,4; 23,4; 0,0; 0,0;247,5; 57,8
2020-02-12 06:02:00; 2,7; 66; -3,0; 973,8743; 999,4375;6; 23,4; 23,4; 0,0; 0,0;247,5; 57,8
2020-02-12 06:12:00; 2,7; 66; -3,0; 973,8743; 999,4375;6; 23,4; 23,4; 0,0; 0,0;247,5; 57,8
2020-02-12 06:21:59; 2,6; 66; -3,1; 974,1243; 999,6875;6; 23,4; 23,4; 0,0; 0,0;247,5; 57,8
2020-02-12 06:32:00; 2,6; 67; -2,9; 974,1243; 999,6875;6; 23,4; 23,4; 0,0; 0,0;247,5; 57,8
2020-02-12 06:41:59; 2,6; 67; -2,9; 974,3118; 999,8750;6; 23,4; 23,4; 0,0; 0,0;247,5; 57,8
2020-02-12 06:52:00; 2,7; 67; -2,8; 974,3118; 999,8750;6; 23,4; 23,4; 0,0; 0,0;247,5; 57,8
2020-02-12 07:01:59; 2,8; 67; -2,7; 974,4993;1000,0625;6; 23,4; 23,4; 0,0; 0,0;247,5; 57,8
2020-02-12 07:12:00; 3,0; 67; -2,5; 974,4993;1000,0625;6; 23,4; 23,4; 0,0; 0,0;247,5; 57,8
2020-02-12 07:21:59; 3,1; 67; -2,4; 974,4368;1000,0000;6; 23,4; 23,4; 0,0; 0,0;247,5; 57,8
2020-02-12 07:32:00; 3,2; 67; -2,3; 974,4368;1000,0000;6; 23,4; 23,4; 0,0; 0,0;247,5; 57,8
2020-02-12 07:42:00; 3,5; 66; -2,3; 974,5618;1000,1250;6; 23,5; 23,5; 0,0; 0,0;247,5; 57,8
2020-02-12 07:51:59; 3,5; 66; -2,3; 974,5618;1000,1250;6; 23,6; 23,6; 0,0; 0,0;247,5; 57,8
2020-02-12 08:02:00; 3,7; 66; -2,1; 974,7493;1000,3125;6; 23,7; 23,7; 0,0; 0,0;247,5; 57,8
2020-02-12 08:11:59; 3,8; 65; -2,2; 974,7493;1000,3125;6; 23,9; 23,9; 0,0; 0,0;247,5; 57,8
2020-02-12 08:22:00; 3,7; 65; -2,3; 975,1243;1000,6875;6; 23,8; 23,8; 0,0; 0,0;247,5; 57,8
2020-02-12 08:31:59; 3,9; 64; -2,3; 975,1243;1000,6875;6; 24,0; 24,0; 0,0; 0,0;247,5; 57,8
2020-02-12 08:42:00; 3,8; 65; -2,2; 975,1868;1000,7500;6; 23,9; 23,9; 0,0; 0,0;247,5; 57,8
2020-02-12 08:51:59; 3,8; 65; -2,2; 975,1868;1000,7500;6; 23,8; 23,8; 0,0; 0,0;247,5; 57,8
2020-02-12 09:02:00; 3,8; 66; -2,0; 975,4368;1001,0000;6; 23,7; 23,7; 0,0; 0,0;247,5; 57,8
2020-02-12 09:12:00; 4,0; 65; -2,0; 975,4368;1001,0000;6; 23,7; 23,7; 0,0; 0,0;247,5; 57,8
2020-02-12 09:21:59; 4,1; 64; -2,1; 975,1868;1000,7500;6; 23,8; 23,8; 0,0; 0,0;247,5; 57,8
2020-02-12 09:32:00; 4,1; 64; -2,1; 975,1868;1000,7500;6; 23,7; 23,7; 0,0; 0,0;247,5; 57,8
2020-02-12 09:41:59; 4,3; 64; -1,9; 975,3743;1000,9375;6; 23,7; 23,7; 0,0; 0,0;247,5; 57,8
2020-02-12 09:52:00; 4,9; 63; -1,6; 975,3743;1000,9375;6; 24,1; 24,1; 0,0; 0,0;247,5; 57,8
2020-02-12 10:01:59; 5,0; 62; -1,7; 975,6868;1001,2500;6; 24,5; 24,5; 0,0; 0,0;247,5; 57,8
2020-02-12 10:12:00; 5,2; 62; -1,5; 975,6868;1001,2500;6; 24,6; 24,6; 0,0; 0,0;247,5; 57,8
2020-02-12 10:21:59; 5,2; 60; -1,9; 975,9993;1001,5625;6; 24,6; 24,6; 0,0; 0,0;247,5; 57,8
2020-02-12 10:32:00; 5,3; 60; -1,8; 975,9993;1001,5625;6; 24,5; 24,5; 0,0; 0,0;247,5; 57,8
2020-02-12 10:42:00; 5,5; 59; -1,9; 975,8743;1001,4375;6; 24,4; 24,4; 0,0; 0,0;247,5; 57,8
2020-02-12 10:51:59; 5,5; 60; -1,7; 975,8743;1001,4375;6; 24,2; 24,2; 0,0; 0,0;247,5; 57,8
2020-02-12 11:02:00; 5,5; 60; -1,7; 976,0618;1001,6250;6; 24,2; 24,2; 0,0; 0,0;247,5; 57,8
2020-02-12 11:11:59; 6,3; 58; -1,4; 976,0618;1001,6250;6; 24,9; 24,9; 0,0; 0,0;247,5; 57,8
2020-02-12 11:22:00; 6,5; 57; -1,4; 975,8118;1001,3750;6; 25,3; 25,3; 0,0; 0,0;247,5; 57,8
2020-02-12 11:31:59; 6,4; 56; -1,7; 975,8118;1001,3750;6; 25,3; 25,3; 0,0; 0,0;247,5; 57,8
2020-02-12 11:42:00; 6,1; 57; -1,8; 976,0618;1001,6250;6; 25,1; 25,1; 0,0; 0,0;247,5; 57,8
2020-02-12 11:51:59; 5,7; 57; -2,2; 976,0618;1001,6250;6; 24,8; 24,8; 0,0; 0,0;247,5; 57,8
2020-02-12 12:02:00; 5,6; 58; -2,0; 975,9993;1001,5625;6; 24,4; 24,4; 0,0; 0,0;247,5; 57,8
2020-02-12 12:12:00; 5,2; 59; -2,2; 975,9993;1001,5625;6; 24,2; 24,2; 0,0; 0,0;247,5; 57,8
2020-02-12 12:21:59; 5,1; 62; -1,6; 975,9368;1001,5000;6; 24,0; 24,0; 0,0; 0,0;247,5; 57,8
2020-02-12 12:32:00; 4,7; 63; -1,7; 975,9368;1001,5000;6; 23,9; 23,9; 0,0; 0,0;247,5; 57,8
2020-02-12 12:41:59; 4,2; 66; -1,6; 975,9993;1001,5625;6; 23,9; 23,9; 0,0; 0,0;247,5; 57,8
2020-02-12 12:52:00; 4,1; 67; -1,5; 975,9993;1001,5625;6; 23,9; 23,9; 0,0; 0,0;247,5; 57,8
2020-02-12 13:01:59; 3,9; 70; -1,1; 976,1243;1001,6875;6; 23,9; 23,9; 0,0; 0,0;247,5; 57,8
2020-02-12 13:12:00; 3,9; 68; -1,5; 976,1243;1001,6875;6; 23,8; 23,8; 0,0; 0,0;247,5; 57,8
2020-02-12 13:21:59; 4,3; 64; -1,9; 975,9368;1001,5000;6; 23,9; 23,9; 0,0; 0,0;247,5; 58,5
2020-02-12 13:32:00; 4,9; 58; -2,7; 975,9368;1001,5000;6; 23,9; 23,9; 0,0; 0,0;247,5; 58,5
2020-02-12 13:42:00; 5,3; 57; -2,5; 976,1868;1001,7500;6; 23,9; 23,9; 0,0; 0,0;247,5; 58,5
2020-02-12 13:51:59; 5,5; 55; -2,8; 976,1868;1001,7500;6; 24,0; 24,0; 0,0; 0,0;247,5; 58,5
2020-02-12 14:02:00; 5,7; 55; -2,6; 976,3118;1001,8750;6; 24,0; 24,0; 0,0; 0,0;247,5; 58,5
2020-02-12 14:11:59; 5,6; 52; -3,5; 976,3118;1001,8750;6; 24,0; 24,0; 0,0; 0,0;247,5; 58,5
2020-02-12 14:22:00; 5,5; 54; -3,1; 976,4368;1002,0000;6; 23,9; 23,9; 0,0; 0,0;247,5; 58,5
2020-02-12 14:31:59; 5,4; 54; -3,2; 976,4368;1002,0000;6; 23,9; 23,9; 0,0; 0,0;247,5; 58,5
2020-02-12 14:42:00; 5,5; 54; -3,1; 976,3743;1001,9375;6; 23,9; 23,9; 0,0; 0,0;247,5; 58,5
2020-02-12 14:51:59; 5,3; 54; -3,3; 976,3743;1001,9375;6; 23,8; 23,8; 0,0; 0,0;247,5; 58,5
2020-02-12 15:02:00; 5,3; 55; -3,0; 976,5618;1002,1250;6; 23,8; 23,8; 0,0; 0,0;247,5; 58,5
2020-02-12 15:12:00; 5,1; 56; -3,0; 976,5618;1002,1250;6; 23,8; 23,8; 0,0; 0,0;247,5; 58,5
2020-02-12 15:21:59; 5,1; 55; -3,2; 976,6243;1002,1875;6; 23,7; 23,7; 0,0; 0,0;247,5; 58,5
2020-02-12 15:32:00; 5,1; 55; -3,2; 976,6243;1002,1875;6; 23,7; 23,7; 0,0; 0,0;247,5; 58,5
2020-02-12 15:41:59; 5,1; 56; -3,0; 976,9368;1002,5000;6; 23,6; 23,6; 0,0; 0,0;247,5; 58,5
2020-02-12 15:52:00; 4,9; 57; -2,9; 976,9368;1002,5000;6; 23,6; 23,6; 0,0; 0,0;247,5; 58,5
2020-02-12 16:01:59; 4,4; 63; -2,0; 977,0618;1002,6250;6; 23,6; 23,6; 0,0; 0,0;247,5; 58,5
2020-02-12 16:12:00; 4,1; 67; -1,5; 977,0618;1002,6250;6; 23,6; 23,6; 0,0; 0,0;247,5; 58,5
2020-02-12 16:21:59; 3,7; 68; -1,7; 977,4368;1003,0000;6; 23,6; 23,6; 0,0; 0,0;247,5; 58,5
2020-02-12 16:32:00; 3,7; 67; -1,9; 977,4368;1003,0000;6; 23,6; 23,6; 0,0; 0,0;247,5; 58,5
2020-02-12 16:42:00; 3,6; 66; -2,2; 977,3743;1002,9375;6; 23,5; 23,5; 0,0; 0,0;247,5; 58,5
2020-02-12 16:51:59; 3,6; 64; -2,6; 977,3743;1002,9375;6; 23,5; 23,5; 0,0; 0,0;247,5; 58,5
2020-02-12 17:02:00; 3,7; 63; -2,7; 977,3118;1002,8750;6; 23,6; 23,6; 0,0; 0,0;247,5; 58,5
2020-02-12 17:11:59; 3,7; 63; -2,7; 977,3118;1002,8750;6; 23,5; 23,5; 0,0; 0,0;247,5; 58,5
2020-02-12 17:22:00; 3,8; 62; -2,8; 977,4993;1003,0625;6; 23,5; 23,5; 0,0; 0,0;247,5; 58,5
2020-02-12 17:31:59; 3,9; 62; -2,7; 977,4993;1003,0625;6; 23,5; 23,5; 0,0; 0,0;247,5; 58,5
2020-02-12 17:42:00; 3,8; 61; -3,0; 978,0618;1003,6250;6; 23,5; 23,5; 0,0; 0,0;247,5; 58,5
2020-02-12 17:51:59; 3,7; 61; -3,1; 978,0618;1003,6250;6; 23,4; 23,4; 0,0; 0,0;247,5; 58,5
2020-02-12 18:02:00; 3,7; 61; -3,1; 978,3118;1003,8750;6; 23,4; 23,4; 0,0; 0,0;247,5; 58,5
2020-02-12 18:12:00; 3,7; 61; -3,1; 978,3118;1003,8750;6; 23,4; 23,4; 0,0; 0,0;247,5; 58,5
2020-02-12 18:21:59; 3,7; 61; -3,1; 978,2493;1003,8125;6; 23,4; 23,4; 0,0; 0,0;247,5; 58,5
2020-02-12 18:32:00; 3,7; 61; -3,1; 978,2493;1003,8125;6; 23,4; 23,4; 0,0; 0,0;247,5; 58,5
2020-02-12 18:41:59; 3,7; 61; -3,1; 978,4368;1004,0000;6; 23,4; 23,4; 0,0; 0,0;247,5; 58,5
2020-02-12 18:52:00; 3,7; 62; -2,9; 978,4368;1004,0000;6; 23,4; 23,4; 0,0; 0,0;247,5; 58,5
2020-02-12 19:01:59; 3,8; 61; -3,0; 978,6243;1004,1875;6; 23,4; 23,4; 0,0; 0,0;247,5; 58,5
2020-02-12 19:12:00; 3,8; 61; -3,0; 978,6243;1004,1875;6; 23,4; 23,4; 0,0; 0,0;247,5; 58,5
2020-02-12 19:21:59; 3,8; 61; -3,0; 978,7493;1004,3125;6; 23,4; 23,4; 0,0; 0,0;247,5; 58,5
2020-02-12 19:32:00; 3,6; 61; -3,2; 978,7493;1004,3125;6; 23,4; 23,4; 0,0; 0,0;247,5; 58,5
2020-02-12 19:42:00; 3,6; 62; -3,0; 978,6868;1004,2500;6; 23,4; 23,4; 0,0; 0,0;247,5; 58,5
2020-02-12 19:51:59; 3,4; 63; -3,0; 978,6868;1004,2500;6; 23,4; 23,4; 0,0; 0,0;247,5; 58,5
2020-02-12 20:02:00; 3,3; 64; -2,9; 978,9993;1004,5625;6; 23,4; 23,4; 0,0; 0,0;247,5; 58,5
2020-02-12 20:11:59; 3,3; 65; -2,7; 978,9993;1004,5625;6; 23,4; 23,4; 0,0; 0,0;247,5; 58,5
2020-02-12 20:22:00; 3,3; 66; -2,4; 979,1243;1004,6875;6; 23,4; 23,4; 0,0; 0,0;247,5; 58,5
2020-02-12 20:31:59; 3,3; 66; -2,4; 979,1243;1004,6875;6; 23,4; 23,4; 0,0; 0,0;247,5; 58,5
2020-02-12 20:42:00; 3,2; 66; -2,5; 979,0618;1004,6250;6; 23,4; 23,4; 0,0; 0,0;247,5; 58,5
2020-02-12 20:51:59; 3,2; 66; -2,5; 979,0618;1004,6250;6; 23,4; 23,4; 0,0; 0,0;247,5; 58,5
2020-02-12 21:02:00; 3,2; 66; -2,5; 979,3118;1004,8750;6; 23,4; 23,4; 0,0; 0,0;247,5; 58,5
2020-02-12 21:12:00; 3,3; 66; -2,4; 979,3118;1004,8750;6; 23,4; 23,4; 0,0; 0,0;247,5; 58,5
2020-02-12 21:21:59; 3,2; 66; -2,5; 979,2493;1004,8125;6; 23,4; 23,4; 0,0; 0,0;247,5; 58,5
2020-02-12 21:32:00; 3,1; 67; -2,4; 979,2493;1004,8125;6; 23,4; 23,4; 0,0; 0,0;247,5; 58,5
2020-02-12 21:41:59; 3,1; 67; -2,4; 979,6243;1005,1875;6; 23,4; 23,4; 0,0; 0,0;247,5; 58,5
2020-02-12 21:52:00; 3,1; 68; -2,2; 979,6243;1005,1875;6; 23,4; 23,4; 0,0; 0,0;247,5; 58,5
2020-02-12 22:01:59; 3,0; 68; -2,3; 979,6868;1005,2500;6; 23,4; 23,4; 0,0; 0,0;247,5; 58,5
2020-02-12 22:12:00; 2,9; 68; -2,4; 979,6868;1005,2500;6; 23,3; 23,3; 0,0; 0,0;247,5; 58,5
2020-02-12 22:21:59; 2,9; 68; -2,4; 979,6243;1005,1875;6; 23,3; 23,3; 0,0; 0,0;247,5; 58,5
2020-02-12 22:32:00; 2,9; 68; -2,4; 979,6243;1005,1875;6; 23,3; 23,3; 0,0; 0,0;247,5; 58,5
2020-02-12 22:42:00; 2,9; 69; -2,2; 979,7493;1005,3125;6; 23,3; 23,3; 0,0; 0,0;247,5; 58,5
2020-02-12 22:51:59; 2,9; 69; -2,2; 979,7493;1005,3125;6; 23,3; 23,3; 0,0; 0,0;247,5; 58,5
2020-02-12 23:02:00; 2,9; 68; -2,4; 979,8743;1005,4375;6; 23,3; 23,3; 0,0; 0,0;247,5; 58,5
2020-02-12 23:11:59; 3,0; 69; -2,1; 979,8743;1005,4375;6; 23,3; 23,3; 0,0; 0,0;247,5; 58,5
2020-02-12 23:22:00; 2,9; 69; -2,2; 980,1243;1005,6875;6; 23,3; 23,3; 0,0; 0,0;247,5; 58,5
2020-02-12 23:31:59; 2,9; 69; -2,2; 980,1243;1005,6875;6; 23,3; 23,3; 0,0; 0,0;247,5; 58,5
2020-02-12 23:42:00; 2,9; 69; -2,2; 980,1868;1005,7500;6; 23,3; 23,3; 0,0; 0,0;247,5; 58,5
2020-02-12 23:51:59; 3,0; 69; -2,1; 980,1868;1005,7500;6; 23,3; 23,3; 0,0; 0,0;247,5; 58,5
2020-02-13 00:02:00; 3,0; 70; -1,9; 980,3118;1005,8750;6; 23,3; 23,3; 0,0; 0,0;247,5; 58,5
2020-02-13 00:12:00; 3,0; 70; -1,9; 980,3118;1005,8750;6; 23,3; 23,3; 0,0; 0,0;247,5; 58,5
2020-02-13 00:21:59; 2,9; 70; -2,0; 980,3118;1005,8750;6; 23,3; 23,3; 0,0; 0,0;247,5; 58,5
2020-02-13 00:32:00; 2,8; 71; -1,9; 980,3118;1005,8750;6; 23,3; 23,3; 0,0; 0,0;247,5; 58,5
2020-02-13 00:41:59; 2,7; 71; -2,0; 980,4368;1006,0000;6; 23,3; 23,3; 0,0; 0,0;247,5; 58,5
2020-02-13 00:52:00; 2,7; 71; -2,0; 980,4368;1006,0000;6; 23,2; 23,2; 0,0; 0,0;247,5; 58,5
2020-02-13 01:01:59; 2,7; 71; -2,0; 980,3118;1005,8750;6; 23,3; 23,3; 0,0; 0,0;247,5; 58,5
2020-02-13 01:12:00; 2,5; 71; -2,2; 980,3118;1005,8750;6; 23,2; 23,2; 0,0; 0,0;247,5; 58,5
2020-02-13 01:21:59; 2,6; 71; -2,1; 980,4368;1006,0000;6; 23,2; 23,2; 0,0; 0,0;247,5; 58,5
2020-02-13 01:32:00; 2,5; 71; -2,2; 980,4368;1006,0000;6; 23,2; 23,2; 0,0; 0,0;247,5; 58,5
2020-02-13 01:42:00; 2,5; 71; -2,2; 980,4993;1006,0625;6; 23,3; 23,3; 0,0; 0,0;247,5; 58,5
2020-02-13 01:51:59; 2,4; 72; -2,1; 980,4993;1006,0625;6; 23,2; 23,2; 0,0; 0,0;247,5; 58,5
2020-02-13 02:02:00; 2,3; 72; -2,2; 980,4368;1006,0000;6; 23,2; 23,2; 0,0; 0,0;247,5; 58,5
2020-02-13 02:11:59; 2,3; 72; -2,2; 980,4368;1006,0000;6; 23,3; 23,3; 0,0; 0,0;247,5; 58,5
2020-02-13 02:22:00; 2,3; 72; -2,2; 980,5618;1006,1250;6; 23,3; 23,3; 0,0; 0,0;247,5; 58,5
2020-02-13 02:31:59; 2,3; 72; -2,2; 980,5618;1006,1250;6; 23,3; 23,3; 0,0; 0,0;247,5; 58,5
2020-02-13 02:42:00; 2,3; 72; -2,2; 980,6243;1006,1875;6; 23,3; 23,3; 0,0; 0,0;247,5; 58,5
2020-02-13 02:51:59; 2,3; 72; -2,2; 980,6243;1006,1875;6; 23,3; 23,3; 0,0; 0,0;247,5; 58,5
2020-02-13 03:02:00; 2,3; 71; -2,4; 980,6243;1006,1875;6; 23,3; 23,3; 0,0; 0,0;247,5; 58,5
2020-02-13 03:12:00; 2,3; 71; -2,4; 980,6243;1006,1875;6; 23,3; 23,3; 0,0; 0,0;247,5; 58,5
2020-02-13 03:21:59; 2,1; 71; -2,6; 980,6243;1006,1875;6; 23,3; 23,3; 0,0; 0,0;247,5; 58,5
2020-02-13 03:32:00; 2,1; 71; -2,6; 980,6243;1006,1875;6; 23,3; 23,3; 0,0; 0,0;247,5; 58,5
2020-02-13 03:41:59; 2,1; 71; -2,6; 980,3743;1005,9375;6; 23,2; 23,2; 0,0; 0,0;247,5; 58,5
2020-02-13 03:52:00; 2,1; 71; -2,6; 980,3743;1005,9375;6; 23,3; 23,3; 0,0; 0,0;247,5; 58,5
2020-02-13 04:01:59; 2,0; 71; -2,7; 980,3118;1005,8750;6; 23,3; 23,3; 0,0; 0,0;247,5; 58,5
2020-02-13 04:12:00; 1,9; 71; -2,8; 980,3118;1005,8750;6; 23,3; 23,3; 0,0; 0,0;247,5; 58,5
2020-02-13 04:21:59; 1,9; 71; -2,8; 980,4993;1006,0625;6; 23,3; 23,3; 0,0; 0,0;247,5; 58,5
2020-02-13 04:32:00; 1,9; 71; -2,8; 980,4993;1006,0625;6; 23,2; 23,2; 0,0; 0,0;247,5; 58,5
2020-02-13 04:42:00; 1,8; 71; -2,9; 980,4368;1006,0000;6; 23,2; 23,2; 0,0; 0,0;247,5; 58,5
2020-02-13 04:51:59; 1,6; 71; -3,1; 980,4368;1006,0000;6; 23,2; 23,2; 0,0; 0,0;247,5; 58,5
2020-02-13 05:02:00; 1,5; 71; -3,2; 980,3743;1005,9375;6; 23,2; 23,2; 0,0; 0,0;247,5; 58,5
2020-02-13 05:11:59; 1,5; 72; -3,0; 980,3743;1005,9375;6; 23,2; 23,2; 0,0; 0,0;247,5; 58,5
2020-02-13 05:22:00; 1,3; 72; -3,2; 980,3118;1005,8750;6; 23,2; 23,2; 0,0; 0,0;247,5; 58,5
2020-02-13 05:31:59; 1,3; 73; -3,0; 980,3118;1005,8750;6; 23,2; 23,2; 0,0; 0,0;247,5; 58,5
2020-02-13 05:42:00; 1,2; 73; -3,1; 980,3743;1005,9375;6; 23,2; 23,2; 0,0; 0,0;247,5; 58,5
2020-02-13 05:51:59; 1,1; 73; -3,2; 980,3743;1005,9375;6; 23,2; 23,2; 0,0; 0,0;247,5; 58,5
2020-02-13 06:02:00; 1,1; 73; -3,2; 980,6243;1006,1875;6; 23,2; 23,2; 0,0; 0,0;247,5; 58,5
2020-02-13 06:12:00; 0,9; 73; -3,4; 980,6243;1006,1875;6; 23,2; 23,2; 0,0; 0,0;247,5; 58,5
2020-02-13 06:21:59; 0,9; 73; -3,4; 980,6868;1006,2500;6; 23,2; 23,2; 0,0; 0,0;247,5; 58,5
2020-02-13 06:32:00; 0,8; 73; -3,5; 980,6868;1006,2500;6; 23,2; 23,2; 0,0; 0,0;247,5; 58,5
2020-02-13 06:41:59; 0,8; 73; -3,5; 980,6243;1006,1875;6; 23,2; 23,2; 0,0; 0,0;247,5; 58,5
2020-02-13 06:52:00; 0,8; 73; -3,5; 980,6243;1006,1875;6; 23,2; 23,2; 0,0; 0,0;247,5; 58,5
2020-02-13 07:01:59; 0,9; 73; -3,4; 980,8118;1006,3750;6; 23,3; 23,3; 0,0; 0,0;247,5; 58,5
2020-02-13 07:12:00; 0,9; 73; -3,4; 980,8118;1006,3750;6; 23,3; 23,3; 0,0; 0,0;247,5; 58,5
2020-02-13 07:21:59; 1,1; 73; -3,2; 980,7493;1006,3125;6; 23,2; 23,2; 0,0; 0,0;247,5; 58,5
2020-02-13 07:32:00; 1,3; 73; -3,0; 980,7493;1006,3125;6; 23,3; 23,3; 0,0; 0,0;247,5; 58,5
2020-02-13 07:42:00; 1,7; 72; -2,8; 980,6243;1006,1875;6; 23,3; 23,3; 0,0; 0,0;247,5; 58,5
2020-02-13 07:51:59; 2,3; 71; -2,4; 980,6243;1006,1875;6; 23,3; 23,3; 0,0; 0,0;247,5; 58,5
2020-02-13 08:02:00; 2,8; 70; -2,1; 980,4993;1006,0625;6; 24,0; 24,0; 0,0; 0,0;247,5; 58,5
2020-02-13 08:11:59; 3,4; 68; -1,9; 980,4993;1006,0625;6; 25,0; 25,0; 0,0; 0,0;247,5; 58,5
2020-02-13 08:22:00; 4,1; 67; -1,5; 980,3743;1005,9375;6; 25,7; 25,7; 0,0; 0,0;247,5; 58,5
2020-02-13 08:31:59; 4,5; 65; -1,5; 980,3743;1005,9375;6; 26,2; 26,2; 0,0; 0,0;247,5; 58,5
2020-02-13 08:42:00; 4,9; 64; -1,3; 980,3743;1005,9375;6; 26,2; 26,2; 0,0; 0,0;247,5; 58,5
2020-02-13 08:51:59; 5,1; 62; -1,6; 980,3743;1005,9375;6; 26,0; 26,0; 0,0; 0,0;247,5; 58,5
2020-02-13 09:02:00; 5,3; 62; -1,4; 980,1868;1005,7500;6; 25,8; 25,8; 0,0; 0,0;247,5; 58,5
2020-02-13 09:12:00; 5,5; 61; -1,4; 980,1868;1005,7500;6; 25,6; 25,6; 0,0; 0,0;247,5; 58,5
2020-02-13 09:21:59; 5,8; 60; -1,4; 980,0618;1005,6250;6; 25,5; 25,5; 0,0; 0,0;247,5; 58,5
2020-02-13 09:32:00; 6,1; 59; -1,3; 980,0618;1005,6250;6; 25,5; 25,5; 0,0; 0,0;247,5; 58,5
2020-02-13 09:41:59; 6,3; 58; -1,4; 980,1243;1005,6875;6; 25,3; 25,3; 0,0; 0,0;247,5; 58,5
2020-02-13 09:52:00; 6,5; 58; -1,2; 980,1243;1005,6875;6; 25,2; 25,2; 0,0; 0,0;247,5; 58,5
2020-02-13 10:01:59; 6,6; 57; -1,3; 979,6243;1005,1875;6; 25,1; 25,1; 0,0; 0,0;247,5; 58,5
2020-02-13 10:12:00; 6,7; 55; -1,7; 979,6243;1005,1875;6; 24,9; 24,9; 0,0; 0,0;247,5; 58,5
2020-02-13 10:21:59; 6,9; 55; -1,5; 979,4368;1005,0000;6; 24,9; 24,9; 0,0; 0,0;247,5; 58,5
2020-02-13 10:32:00; 6,9; 54; -1,8; 979,4368;1005,0000;6; 24,8; 24,8; 0,0; 0,0;247,5; 58,5
2020-02-13 10:42:00; 7,3; 54; -1,4; 978,7493;1004,3125;5; 24,8; 24,8; 0,0; 0,0;247,5; 58,5
2020-02-13 10:51:59; 7,4; 53; -1,6; 978,7493;1004,3125;5; 24,6; 24,6; 0,0; 0,0;247,5; 58,5
2020-02-13 11:02:00; 7,2; 55; -1,2; 978,4993;1004,0625;5; 24,5; 24,5; 0,0; 0,0;247,5; 58,5
2020-02-13 11:11:59; 7,0; 57; -0,9; 978,4993;1004,0625;5; 24,3; 24,3; 0,0; 0,0;247,5; 58,5
2020-02-13 11:22:00; 6,9; 57; -1,0; 978,1243;1003,6875;5; 24,2; 24,2; 0,0; 0,0;247,5; 58,5
2020-02-13 11:31:59; 6,7; 57; -1,2; 978,1243;1003,6875;5; 24,1; 24,1; 0,0; 0,0;247,5; 58,5
2020-02-13 11:42:00; 6,7; 58; -1,0; 978,1868;1003,7500;5; 24,0; 24,0; 0,0; 0,0;247,5; 58,5
2020-02-13 11:51:59; 6,8; 58; -0,9; 978,1868;1003,7500;5; 24,0; 24,0; 0,0; 0,0;247,5; 58,5
2020-02-13 12:02:00; 6,7; 57; -1,2; 976,9993;1002,5625;5; 23,9; 23,9; 0,0; 0,0;247,5; 58,5
2020-02-13 12:12:00; 6,7; 59; -0,7; 976,9993;1002,5625;5; 23,9; 23,9; 0,0; 0,0;247,5; 58,5
2020-02-13 12:21:59; 6,6; 59; -0,8; 976,7493;1002,3125;5; 23,9; 23,9; 0,0; 0,0;247,5; 58,5
2020-02-13 12:32:00; 6,7; 60; -0,5; 976,7493;1002,3125;5; 23,9; 23,9; 0,0; 0,0;247,5; 58,5
2020-02-13 12:41:59; 6,8; 60; -0,4; 975,9993;1001,5625;5; 23,9; 23,9; 0,0; 0,0;247,5; 58,5
2020-02-13 12:52:00; 6,7; 59; -0,7; 975,9993;1001,5625;5; 23,9; 23,9; 0,0; 0,0;247,5; 58,5
2020-02-13 13:01:59; 6,7; 59; -0,7; 975,4368;1001,0000;5; 23,9; 23,9; 0,0; 0,0;247,5; 58,5
2020-02-13 13:12:00; 6,6; 60; -0,6; 975,4368;1001,0000;5; 23,9; 23,9; 0,0; 0,0;247,5; 58,5
2020-02-13 13:21:59; 6,5; 60; -0,7; 975,2493;1000,8125;5; 23,8; 23,8; 0,0; 0,0;247,5; 58,5
2020-02-13 13:32:00; 6,4; 59; -1,0; 975,2493;1000,8125;5; 23,8; 23,8; 0,0; 0,0;247,5; 58,5
2020-02-13 13:42:00; 6,5; 59; -0,9; 974,5618;1000,1250;5; 23,8; 23,8; 0,0; 0,0;247,5; 58,5
2020-02-13 13:51:59; 6,3; 59; -1,1; 974,5618;1000,1250;5; 23,7; 23,7; 0,0; 0,0;247,5; 58,5
2020-02-13 14:02:00; 6,3; 60; -0,9; 974,0618; 999,6250;5; 23,7; 23,7; 0,0; 0,0;247,5; 58,5
2020-02-13 14:11:59; 6,2; 60; -1,0; 974,0618; 999,6250;5; 23,7; 23,7; 0,0; 0,0;247,5; 58,5
2020-02-13 14:22:00; 6,0; 61; -1,0; 973,4993; 999,0625;5; 23,6; 23,6; 0,0; 0,0;247,5; 58,5
2020-02-13 14:31:59; 5,9; 62; -0,8; 973,4993; 999,0625;5; 23,6; 23,6; 0,0; 0,0;247,5; 58,5
2020-02-13 14:42:00; 5,9; 62; -0,8; 972,9993; 998,5625;5; 23,6; 23,6; 0,0; 0,0;247,5; 58,5
2020-02-13 14:51:59; 5,9; 62; -0,8; 972,9993; 998,5625;5; 23,6; 23,6; 0,0; 0,0;247,5; 58,5
2020-02-13 15:02:00; 5,9; 63; -0,6; 972,8743; 998,4375;5; 23,6; 23,6; 0,0; 0,0;247,5; 58,5
2020-02-13 15:12:00; 5,8; 64; -0,5; 972,8743; 998,4375;5; 23,5; 23,5; 0,0; 0,0;247,5; 58,5
2020-02-13 15:21:59; 5,6; 64; -0,7; 972,4368; 998,0000;5; 23,6; 23,6; 0,0; 0,0;247,5; 58,5
2020-02-13 15:32:00; 5,6; 64; -0,7; 972,4368; 998,0000;5; 23,5; 23,5; 0,0; 0,0;247,5; 58,5
2020-02-13 15:41:59; 5,6; 64; -0,7; 971,8118; 997,3750;5; 23,5; 23,5; 0,0; 0,0;247,5; 58,5
2020-02-13 15:52:00; 5,5; 64; -0,8; 971,8118; 997,3750;5; 23,4; 23,4; 0,0; 0,0;247,5; 58,5
2020-02-13 16:01:59; 5,5; 63; -1,0; 972,4368; 998,0000;5; 23,4; 23,4; 0,0; 0,0;247,5; 58,5
2020-02-13 16:12:00; 5,5; 64; -0,8; 972,4368; 998,0000;5; 23,4; 23,4; 0,0; 0,0;247,5; 58,5
2020-02-13 16:21:59; 5,3; 69; 0,1; 972,6243; 998,1875;5; 23,4; 23,4; 0,0; 0,0;247,5; 58,5
2020-02-13 16:32:00; 5,1; 70; 0,1; 972,6243; 998,1875;5; 23,4; 23,4; 0,0; 0,0;247,5; 58,5
2020-02-13 16:42:00; 4,8; 73; 0,4; 971,9368; 997,5000;5; 23,4; 23,4; 0,0; 0,0;247,5; 58,5
2020-02-13 16:51:59; 4,4; 75; 0,4; 971,9368; 997,5000;5; 23,4; 23,4; 0,0; 0,0;247,5; 58,5
2020-02-13 17:02:00; 4,2; 76; 0,3; 971,3743; 996,9375;4; 23,4; 23,4; 0,0; 0,0;247,5; 58,5
2020-02-13 17:11:59; 4,0; 76; 0,2; 971,3743; 996,9375;4; 23,4; 23,4; 0,0; 0,0;247,5; 59,3
2020-02-13 17:22:00; 4,0; 77; 0,3; 970,9368; 996,5000;4; 23,4; 23,4; 0,0; 0,0;247,5; 59,3
2020-02-13 17:31:59; 4,0; 77; 0,3; 970,9368; 996,5000;4; 23,3; 23,3; 0,0; 0,0;247,5; 59,3
2020-02-13 17:42:00; 3,9; 78; 0,4; 970,3743; 995,9375;4; 23,3; 23,3; 0,0; 0,0;247,5; 59,3
2020-02-13 17:51:59; 3,8; 78; 0,3; 970,3743; 995,9375;4; 23,3; 23,3; 0,0; 0,0;247,5; 59,3
2020-02-13 18:02:00; 3,8; 79; 0,5; 969,9993; 995,5625;4; 23,3; 23,3; 0,0; 0,0;247,5; 59,3
2020-02-13 18:12:00; 3,8; 79; 0,5; 969,9993; 995,5625;4; 23,3; 23,3; 0,0; 0,0;247,5; 59,3
2020-02-13 18:21:59; 3,8; 79; 0,5; 969,3118; 994,8750;4; 23,3; 23,3; 0,0; 0,0;247,5; 59,3
2020-02-13 18:32:00; 3,8; 78; 0,3; 969,3118; 994,8750;4; 23,3; 23,3; 0,0; 0,0;247,5; 59,3
2020-02-13 18:41:59; 3,9; 78; 0,4; 969,3118; 994,8750;4; 23,3; 23,3; 0,0; 0,0;247,5; 59,3
2020-02-13 18:52:00; 3,9; 78; 0,4; 969,3118; 994,8750;4; 23,3; 23,3; 0,0; 0,0;247,5; 59,3
2020-02-13 19:01:59; 3,9; 78; 0,4; 969,0618; 994,6250;4; 23,3; 23,3; 0,0; 0,0;247,5; 59,3
2020-02-13 19:12:00; 3,9; 78; 0,4; 969,0618; 994,6250;4; 23,3; 23,3; 0,0; 0,0;247,5; 59,3
2020-02-13 19:21:59; 3,9; 78; 0,4; 968,7493; 994,3125;4; 23,3; 23,3; 0,0; 0,0;247,5; 59,3
2020-02-13 19:32:00; 3,9; 78; 0,4; 968,7493; 994,3125;4; 23,3; 23,3; 0,0; 0,0;247,5; 59,3
2020-02-13 19:42:00; 3,9; 79; 0,6; 968,3743; 993,9375;4; 23,3; 23,3; 0,0; 0,0;247,5; 59,3
2020-02-13 19:51:59; 3,8; 79; 0,5; 968,3743; 993,9375;4; 23,3; 23,3; 0,0; 0,0;247,5; 59,3
2020-02-13 20:02:00; 3,9; 79; 0,6; 968,6243; 994,1875;4; 23,3; 23,3; 0,0; 0,0;247,5; 59,3
2020-02-13 20:11:59; 3,8; 79; 0,5; 968,6243; 994,1875;4; 23,3; 23,3; 0,0; 0,0;247,5; 59,3
2020-02-13 20:22:00; 3,8; 79; 0,5; 968,4993; 994,0625;4; 23,3; 23,3; 0,0; 0,0;247,5; 59,3
2020-02-13 20:31:59; 3,7; 79; 0,4; 968,4993; 994,0625;4; 23,3; 23,3; 0,0; 0,0;247,5; 59,3
2020-02-13 20:42:00; 3,9; 80; 0,8; 968,4993; 994,0625;4; 23,3; 23,3; 0,0; 0,0;247,5; 59,3
2020-02-13 20:51:59; 4,0; 80; 0,9; 968,4993; 994,0625;4; 23,3; 23,3; 0,0; 0,0;247,5; 59,3
2020-02-13 21:02:00; 4,4; 79; 1,1; 968,9368; 994,5000;4; 23,3; 23,3; 0,0; 0,0;247,5; 59,3
2020-02-13 21:12:00; 4,7; 80; 1,5; 968,9368; 994,5000;4; 23,3; 23,3; 0,0; 0,0;247,5; 59,3
2020-02-13 21:21:59; 4,5; 81; 1,5; 969,2493; 994,8125;4; 23,3; 23,3; 0,0; 0,0;247,5; 59,3
2020-02-13 21:32:00; 4,4; 82; 1,6; 969,2493; 994,8125;4; 23,3; 23,3; 0,0; 0,0;247,5; 59,3
2020-02-13 21:41:59; 4,3; 83; 1,7; 969,3743; 994,9375;4; 23,3; 23,3; 0,0; 0,0;247,5; 60,0
2020-02-13 21:52:00; 4,3; 83; 1,7; 969,3743; 994,9375;4; 23,3; 23,3; 0,0; 0,0;247,5; 60,0
2020-02-13 22:01:59; 4,1; 84; 1,6; 969,4368; 995,0000;4; 23,3; 23,3; 0,0; 0,0;247,5; 60,0
2020-02-13 22:12:00; 4,1; 84; 1,6; 969,4368; 995,0000;4; 23,3; 23,3; 0,0; 0,0;247,5; 60,0
2020-02-13 22:21:59; 4,0; 84; 1,5; 969,5618; 995,1250;4; 23,3; 23,3; 0,0; 0,0;247,5; 60,0
2020-02-13 22:32:00; 4,0; 84; 1,5; 969,5618; 995,1250;4; 23,3; 23,3; 0,0; 0,0;247,5; 60,0
2020-02-13 22:42:00; 3,9; 84; 1,4; 969,5618; 995,1250;4; 23,3; 23,3; 0,0; 0,0;247,5; 60,0
2020-02-13 22:51:59; 3,9; 84; 1,4; 969,5618; 995,1250;4; 23,3; 23,3; 0,0; 0,0;247,5; 60,0
2020-02-13 23:02:00; 3,9; 84; 1,4; 969,9993; 995,5625;4; 23,3; 23,3; 0,0; 0,0;247,5; 60,0
2020-02-13 23:11:59; 3,9; 84; 1,4; 969,9993; 995,5625;4; 23,3; 23,3; 0,0; 0,0;247,5; 60,0
2020-02-13 23:22:00; 3,9; 84; 1,4; 969,7493; 995,3125;4; 23,3; 23,3; 0,0; 0,0;247,5; 60,0
2020-02-13 23:31:59; 3,9; 83; 1,3; 969,7493; 995,3125;4; 23,3; 23,3; 0,0; 0,0;247,5; 60,0
2020-02-13 23:42:00; 3,8; 83; 1,2; 970,0618; 995,6250;4; 23,3; 23,3; 0,0; 0,0;247,5; 60,0
2020-02-13 23:51:59; 3,7; 83; 1,1; 970,0618; 995,6250;4; 23,3; 23,3; 0,0; 0,0;247,5; 60,0
2020-02-14 00:02:00; 3,7; 83; 1,1; 970,4993; 996,0625;4; 23,3; 23,3; 0,0; 0,0;247,5; 60,0
2020-02-14 00:12:00; 3,6; 83; 1,0; 970,4993; 996,0625;4; 23,3; 23,3; 0,0; 0,0;247,5; 60,0
2020-02-14 00:21:59; 3,7; 83; 1,1; 970,6243; 996,1875;4; 23,3; 23,3; 0,0; 0,0;247,5; 60,0
2020-02-14 00:32:00; 3,7; 84; 1,2; 970,6243; 996,1875;4; 23,3; 23,3; 0,0; 0,0;247,5; 60,0
2020-02-14 00:41:59; 3,8; 84; 1,3; 970,9368; 996,5000;4; 23,3; 23,3; 0,0; 0,0;247,5; 60,0
2020-02-14 00:52:00; 3,9; 83; 1,3; 970,9368; 996,5000;4; 23,3; 23,3; 0,0; 0,0;247,5; 60,0
2020-02-14 01:01:59; 4,0; 84; 1,5; 971,1868; 996,7500;4; 23,3; 23,3; 0,0; 0,0;247,5; 60,0
2020-02-14 01:12:00; 4,1; 83; 1,5; 971,1868; 996,7500;4; 23,3; 23,3; 0,0; 0,0;247,5; 60,0
2020-02-14 01:21:59; 4,1; 83; 1,5; 971,0618; 996,6250;4; 23,3; 23,3; 0,0; 0,0;247,5; 60,0
2020-02-14 01:32:00; 4,2; 83; 1,6; 971,0618; 996,6250;4; 23,3; 23,3; 0,0; 0,0;247,5; 60,0
2020-02-14 01:42:00; 4,3; 82; 1,5; 971,3118; 996,8750;4; 23,3; 23,3; 0,0; 0,0;247,5; 60,0
2020-02-14 01:51:59; 4,3; 82; 1,5; 971,3118; 996,8750;4; 23,3; 23,3; 0,0; 0,0;247,5; 60,0
2020-02-14 02:02:00; 4,2; 82; 1,4; 971,3743; 996,9375;4; 23,3; 23,3; 0,0; 0,0;247,5; 60,0
2020-02-14 02:11:59; 4,1; 82; 1,3; 971,3743; 996,9375;4; 23,2; 23,2; 0,0; 0,0;247,5; 60,0
2020-02-14 02:22:00; 4,0; 82; 1,2; 971,4993; 997,0625;4; 23,2; 23,2; 0,0; 0,0;247,5; 60,0
2020-02-14 02:31:59; 3,9; 82; 1,1; 971,4993; 997,0625;4; 23,2; 23,2; 0,0; 0,0;247,5; 60,0
2020-02-14 02:42:00; 3,9; 82; 1,1; 971,8743; 997,4375;4; 23,3; 23,3; 0,0; 0,0;247,5; 60,0
2020-02-14 02:51:59; 3,8; 82; 1,0; 971,8743; 997,4375;4; 23,3; 23,3; 0,0; 0,0;247,5; 60,0
2020-02-14 03:02:00; 3,8; 82; 1,0; 972,1243; 997,6875;4; 23,2; 23,2; 0,0; 0,0;247,5; 60,0
2020-02-14 03:12:00; 3,8; 82; 1,0; 972,1243; 997,6875;4; 23,3; 23,3; 0,0; 0,0;247,5; 60,0
2020-02-14 03:21:59; 3,8; 82; 1,0; 972,3743; 997,9375;4; 23,3; 23,3; 0,0; 0,0;247,5; 60,0
2020-02-14 03:32:00; 3,9; 83; 1,3; 972,3743; 997,9375;4; 23,3; 23,3; 0,0; 0,0;247,5; 60,0
2020-02-14 03:41:59; 3,9; 82; 1,1; 972,8118; 998,3750;4; 23,3; 23,3; 0,0; 0,0;247,5; 60,0
2020-02-14 03:52:00; 3,9; 82; 1,1; 972,8118; 998,3750;4; 23,3; 23,3; 0,0; 0,0;247,5; 60,0
2020-02-14 04:01:59; 4,0; 82; 1,2; 973,0618; 998,6250;4; 23,3; 23,3; 0,0; 0,0;247,5; 60,0
2020-02-14 04:12:00; 4,1; 83; 1,5; 973,0618; 998,6250;4; 23,3; 23,3; 0,0; 0,0;247,5; 60,0
2020-02-14 04:21:59; 4,3; 82; 1,5; 973,7493; 999,3125;4; 23,3; 23,3; 0,0; 0,0;247,5; 60,0
2020-02-14 04:32:00; 4,3; 82; 1,5; 973,7493; 999,3125;4; 23,3; 23,3; 0,0; 0,0;247,5; 60,0
2020-02-14 04:42:00; 4,4; 82; 1,6; 974,1868; 999,7500;4; 23,3; 23,3; 0,0; 0,0;247,5; 60,0
2020-02-14 04:51:59; 4,5; 82; 1,7; 974,1868; 999,7500;4; 23,2; 23,2; 0,0; 0,0;247,5; 60,0
2020-02-14 05:02:00; 4,5; 82; 1,7; 975,1243;1000,6875;5; 23,3; 23,3; 0,0; 0,0;247,5; 60,0
2020-02-14 05:11:59; 4,5; 83; 1,9; 975,1243;1000,6875;5; 23,3; 23,3; 0,0; 0,0;247,5; 60,0
2020-02-14 05:22:00; 4,3; 83; 1,7; 974,8118;1000,3750;5; 23,3; 23,3; 0,0; 0,0;247,5; 60,0
2020-02-14 05:31:59; 4,3; 84; 1,8; 974,8118;1000,3750;5; 23,3; 23,3; 0,0; 0,0;247,5; 60,0
2020-02-14 05:42:00; 4,2; 84; 1,7; 974,9993;1000,5625;5; 23,3; 23,3; 0,0; 0,0;247,5; 60,0
2020-02-14 05:51:59; 4,2; 85; 1,9; 974,9993;1000,5625;5; 23,3; 23,3; 0,0; 0,0;247,5; 60,0
2020-02-14 06:02:00; 4,1; 85; 1,8; 975,1243;1000,6875;5; 23,3; 23,3; 0,0; 0,0;247,5; 60,0
2020-02-14 06:12:00; 4,1; 85; 1,8; 975,1243;1000,6875;5; 23,3; 23,3; 0,0; 0,0;247,5; 60,0
2020-02-14 06:21:59; 4,2; 85; 1,9; 975,6243;1001,1875;5; 23,3; 23,3; 0,0; 0,0;247,5; 60,0
2020-02-14 06:32:00; 4,2; 85; 1,9; 975,6243;1001,1875;5; 23,3; 23,3; 0,0; 0,0;247,5; 60,0
2020-02-14 06:41:59; 4,2; 84; 1,7; 976,1868;1001,7500;5; 23,3; 23,3; 0,0; 0,0;247,5; 60,0
2020-02-14 06:52:00; 4,2; 84; 1,7; 976,1868;1001,7500;5; 23,3; 23,3; 0,0; 0,0;247,5; 60,0
2020-02-14 07:01:59; 4,3; 84; 1,8; 976,4993;1002,0625;5; 23,3; 23,3; 0,0; 0,0;247,5; 60,0
2020-02-14 07:12:00; 4,4; 84; 1,9; 976,4993;1002,0625;5; 23,2; 23,2; 0,0; 0,0;247,5; 60,0
2020-02-14 07:21:59; 4,7; 84; 2,2; 976,9993;1002,5625;5; 23,3; 23,3; 0,0; 0,0;247,5; 60,0
2020-02-14 07:32:00; 4,8; 83; 2,2; 976,9993;1002,5625;5; 23,3; 23,3; 0,0; 0,0;247,5; 60,0
2020-02-14 07:42:00; 4,9; 83; 2,3; 977,5618;1003,1250;5; 23,2; 23,2; 0,0; 0,0;247,5; 60,0
2020-02-14 07:51:59; 4,9; 83; 2,3; 977,5618;1003,1250;5; 23,3; 23,3; 0,0; 0,0;247,5; 60,0
2020-02-14 08:02:00; 5,0; 83; 2,4; 977,9368;1003,5000;5; 23,3; 23,3; 0,0; 0,0;247,5; 60,0
2020-02-14 08:11:59; 4,9; 83; 2,3; 977,9368;1003,5000;5; 23,3; 23,3; 0,0; 0,0;247,5; 60,0
2020-02-14 08:22:00; 5,0; 84; 2,5; 978,4993;1004,0625;5; 23,3; 23,3; 0,0; 0,0;247,5; 60,0
2020-02-14 08:31:59; 5,1; 84; 2,6; 978,4993;1004,0625;5; 23,2; 23,2; 0,0; 0,0;247,5; 60,0
2020-02-14 08:42:00; 5,1; 84; 2,6; 978,6868;1004,2500;5; 23,2; 23,2; 0,0; 0,0;247,5; 60,0
2020-02-14 08:51:59; 5,2; 84; 2,7; 978,6868;1004,2500;5; 23,2; 23,2; 0,0; 0,0;247,5; 60,0
2020-02-14 09:02:00; 5,1; 85; 2,8; 978,8743;1004,4375;5; 23,3; 23,3; 0,0; 0,0;247,5; 60,7
2020-02-14 09:12:00; 5,2; 86; 3,1; 978,8743;1004,4375;5; 23,2; 23,2; 0,0; 0,0;247,5; 60,7
2020-02-14 09:21:59; 5,2; 86; 3,1; 979,1868;1004,7500;5; 23,3; 23,3; 0,0; 0,0;247,5; 60,7
2020-02-14 09:32:00; 5,1; 86; 3,0; 979,1868;1004,7500;5; 23,3; 23,3; 0,0; 0,0;247,5; 60,7
2020-02-14 09:41:59; 5,2; 86; 3,1; 979,5618;1005,1250;5; 23,2; 23,2; 0,0; 0,0;247,5; 60,7
2020-02-14 09:52:00; 5,3; 86; 3,1; 979,5618;1005,1250;5; 23,3; 23,3; 0,0; 0,0;247,5; 60,7
2020-02-14 10:01:59; 5,4; 86; 3,2; 979,8743;1005,4375;5; 23,3; 23,3; 0,0; 0,0;247,5; 61,4
2020-02-14 10:12:00; 5,7; 87; 3,7; 979,8743;1005,4375;5; 23,3; 23,3; 0,0; 0,0;247,5; 61,4
2020-02-14 10:21:59; 5,9; 86; 3,7; 980,2493;1005,8125;6; 23,4; 23,4; 0,0; 0,0;247,5; 61,4
2020-02-14 10:32:00; 6,2; 85; 3,9; 980,2493;1005,8125;6; 23,4; 23,4; 0,0; 0,0;247,5; 61,4
2020-02-14 10:42:00; 6,3; 84; 3,8; 980,4993;1006,0625;6; 23,4; 23,4; 0,0; 0,0;247,5; 61,4
2020-02-14 10:51:59; 6,5; 83; 3,8; 980,4993;1006,0625;6; 23,4; 23,4; 0,0; 0,0;247,5; 61,4
2020-02-14 11:02:00; 6,5; 82; 3,6; 980,6868;1006,2500;6; 23,4; 23,4; 0,0; 0,0;247,5; 61,4
2020-02-14 11:11:59; 6,7; 82; 3,8; 980,6868;1006,2500;6; 23,4; 23,4; 0,0; 0,0;247,5; 61,4
2020-02-14 11:22:00; 6,7; 81; 3,7; 981,1243;1006,6875;6; 23,4; 23,4; 0,0; 0,0;247,5; 61,4
2020-02-14 11:31:59; 6,7; 82; 3,8; 981,1243;1006,6875;6; 23,4; 23,4; 0,0; 0,0;247,5; 61,4
2020-02-14 11:42:00; 6,9; 81; 3,9; 981,2493;1006,8125;6; 23,4; 23,4; 0,0; 0,0;247,5; 61,4
2020-02-14 11:51:59; 6,9; 81; 3,9; 981,2493;1006,8125;6; 23,4; 23,4; 0,0; 0,0;247,5; 61,4
2020-02-14 12:02:00; 7,0; 81; 4,0; 981,6868;1007,2500;6; 23,4; 23,4; 0,0; 0,0;247,5; 61,4
2020-02-14 12:12:00; 6,9; 80; 3,7; 981,6868;1007,2500;6; 23,4; 23,4; 0,0; 0,0;247,5; 61,4
2020-02-14 12:21:59; 6,9; 80; 3,7; 981,9993;1007,5625;6; 23,4; 23,4; 0,0; 0,0;247,5; 61,4
2020-02-14 12:32:00; 7,0; 79; 3,6; 981,9993;1007,5625;6; 23,4; 23,4; 0,0; 0,0;247,5; 61,4
2020-02-14 12:41:59; 7,1; 79; 3,7; 982,1243;1007,6875;6; 23,4; 23,4; 0,0; 0,0;247,5; 61,4
2020-02-14 12:52:00; 7,2; 78; 3,6; 982,1243;1007,6875;6; 23,4; 23,4; 0,0; 0,0;247,5; 61,4
2020-02-14 13:01:59; 7,2; 78; 3,6; ; ;6; 23,4; 23,4; 0,0; 0,0;247,5; 61,4
2020-02-14 13:12:00; 7,3; 77; 3,5; ; ;6; 23,4; 23,4; 0,0; 0,0;247,5; 61,4
2020-02-14 13:21:59; 7,3; 76; 3,3; 982,6868;1008,2500;6; 23,4; 23,4; 0,0; 0,0;247,5; 61,4
2020-02-14 13:32:00; 7,2; 76; 3,3; 982,6868;1008,2500;6; 23,4; 23,4; 0,0; 0,0;247,5; 61,4
2020-02-14 13:42:00; 7,3; 75; 3,2; 983,0618;1008,6250;6; 23,4; 23,4; 0,0; 0,0;247,5; 61,4
2020-02-14 13:51:59; 7,2; 74; 2,9; 983,0618;1008,6250;6; 23,4; 23,4; 0,0; 0,0;247,5; 61,4
2020-02-14 14:02:00; 7,2; 75; 3,1; 983,1868;1008,7500;6; 23,4; 23,4; 0,0; 0,0;247,5; 61,4
2020-02-14 14:11:59; 7,2; 76; 3,3; 983,1868;1008,7500;6; 23,4; 23,4; 0,0; 0,0;247,5; 61,4
2020-02-14 14:22:00; 7,2; 76; 3,3; 983,3743;1008,9375;6; 23,3; 23,3; 0,0; 0,0;247,5; 61,4
2020-02-14 14:31:59; 7,1; 76; 3,2; 983,3743;1008,9375;6; 23,3; 23,3; 0,0; 0,0;247,5; 61,4
2020-02-14 14:42:00; 7,0; 76; 3,1; 983,4993;1009,0625;6; 23,3; 23,3; 0,0; 0,0;247,5; 61,4
2020-02-14 14:51:59; 6,8; 78; 3,2; 983,4993;1009,0625;6; 23,3; 23,3; 0,0; 0,0;247,5; 61,4
2020-02-14 15:02:00; 6,6; 80; 3,4; 983,9368;1009,5000;6; 23,3; 23,3; 0,0; 0,0;247,5; 61,4
2020-02-14 15:12:00; 6,6; 81; 3,6; 983,9368;1009,5000;6; 23,3; 23,3; 0,0; 0,0;247,5; 61,4
2020-02-14 15:21:59; 6,6; 81; 3,6; 984,1868;1009,7500;6; 23,3; 23,3; 0,0; 0,0;247,5; 61,4
2020-02-14 15:32:00; 6,5; 80; 3,3; 984,1868;1009,7500;6; 23,3; 23,3; 0,0; 0,0;247,5; 61,4
2020-02-14 15:41:59; 6,3; 80; 3,1; 984,4368;1010,0000;6; 23,3; 23,3; 0,0; 0,0;247,5; 61,4
2020-02-14 15:52:00; 6,3; 80; 3,1; 984,4368;1010,0000;6; 23,3; 23,3; 0,0; 0,0;247,5; 61,4
2020-02-14 16:01:59; 6,2; 81; 3,2; 984,7493;1010,3125;6; 23,3; 23,3; 0,0; 0,0;247,5; 61,4
2020-02-14 16:12:00; 6,1; 82; 3,3; 984,7493;1010,3125;6; 23,3; 23,3; 0,0; 0,0;247,5; 61,4
2020-02-14 16:21:59; 5,9; 82; 3,1; 985,0618;1010,6250;6; 23,3; 23,3; 0,0; 0,0;247,5; 61,4
2020-02-14 16:32:00; 5,7; 81; 2,7; 985,0618;1010,6250;6; 23,3; 23,3; 0,0; 0,0;247,5; 61,4
2020-02-14 16:42:00; 5,6; 82; 2,8; 985,3118;1010,8750;6; 23,3; 23,3; 0,0; 0,0;247,5; 61,4
2020-02-14 16:51:59; 5,5; 82; 2,7; 985,3118;1010,8750;6; 23,2; 23,2; 0,0; 0,0;247,5; 61,4
2020-02-14 17:02:00; 5,4; 82; 2,6; 985,3743;1010,9375;6; 23,3; 23,3; 0,0; 0,0;247,5; 61,4
2020-02-14 17:11:59; 5,4; 82; 2,6; 985,3743;1010,9375;6; 23,3; 23,3; 0,0; 0,0;247,5; 61,4
2020-02-14 17:22:00; 5,4; 82; 2,6; 985,5618;1011,1250;6; 23,3; 23,3; 0,0; 0,0;247,5; 61,4
2020-02-14 17:31:59; 5,4; 82; 2,6; 985,5618;1011,1250;6; 23,2; 23,2; 0,0; 0,0;247,5; 61,4
2020-02-14 17:42:00; 5,3; 84; 2,8; 985,9368;1011,5000;6; 23,2; 23,2; 0,0; 0,0;247,5; 61,4
2020-02-14 17:51:59; 5,3; 83; 2,6; 985,9368;1011,5000;6; 23,2; 23,2; 0,0; 0,0;247,5; 61,4
2020-02-14 18:02:00; 5,3; 83; 2,6; 986,4993;1012,0625;6; 23,2; 23,2; 0,0; 0,0;247,5; 61,4
2020-02-14 18:12:00; 5,2; 83; 2,5; 986,4993;1012,0625;6; 23,2; 23,2; 0,0; 0,0;247,5; 61,4
2020-02-14 18:21:59; 5,2; 83; 2,5; 986,7493;1012,3125;6; 23,2; 23,2; 0,0; 0,0;247,5; 61,4
2020-02-14 18:32:00; 5,2; 83; 2,5; 986,7493;1012,3125;6; 23,2; 23,2; 0,0; 0,0;247,5; 61,4
2020-02-14 18:41:59; 5,1; 84; 2,6; 986,9368;1012,5000;6; 23,2; 23,2; 0,0; 0,0;247,5; 61,4
2020-02-14 18:52:00; 5,2; 84; 2,7; 986,9368;1012,5000;6; 23,2; 23,2; 0,0; 0,0;247,5; 61,4
2020-02-14 19:01:59; 5,2; 84; 2,7; 987,1868;1012,7500;6; 23,2; 23,2; 0,0; 0,0;247,5; 61,4
2020-02-14 19:12:00; 5,2; 84; 2,7; 987,1868;1012,7500;6; 23,2; 23,2; 0,0; 0,0;247,5; 61,4
2020-02-14 19:21:59; 5,2; 84; 2,7; 987,4368;1013,0000;6; 23,2; 23,2; 0,0; 0,0;247,5; 61,4
2020-02-14 19:32:00; 5,3; 84; 2,8; 987,4368;1013,0000;6; 23,2; 23,2; 0,0; 0,0;247,5; 61,4
2020-02-14 19:42:00; 5,3; 84; 2,8; 987,6868;1013,2500;6; 23,2; 23,2; 0,0; 0,0;247,5; 61,4
2020-02-14 19:51:59; 5,3; 84; 2,8; 987,6868;1013,2500;6; 23,2; 23,2; 0,0; 0,0;247,5; 61,4
2020-02-14 20:02:00; 5,3; 84; 2,8; 987,8743;1013,4375;6; 23,2; 23,2; 0,0; 0,0;247,5; 61,4
2020-02-14 20:11:59; 5,3; 84; 2,8; 987,8743;1013,4375;6; 23,2; 23,2; 0,0; 0,0;247,5; 61,4
2020-02-14 20:22:00; 5,3; 84; 2,8; 988,1243;1013,6875;6; 23,2; 23,2; 0,0; 0,0;247,5; 61,4
2020-02-14 20:31:59; 5,3; 85; 3,0; 988,1243;1013,6875;6; 23,2; 23,2; 0,0; 0,0;247,5; 61,4
2020-02-14 20:42:00; 5,1; 85; 2,8; 988,3118;1013,8750;6; 23,2; 23,2; 0,0; 0,0;247,5; 61,4
2020-02-14 20:51:59; 5,1; 86; 3,0; 988,3118;1013,8750;6; 23,2; 23,2; 0,0; 0,0;247,5; 62,1
2020-02-14 21:02:00; 5,1; 86; 3,0; 988,3118;1013,8750;6; 23,2; 23,2; 0,0; 0,0;247,5; 62,1
2020-02-14 21:12:00; 5,1; 86; 3,0; 988,3118;1013,8750;6; 23,2; 23,2; 0,0; 0,0;247,5; 62,1
2020-02-14 21:21:59; 5,0; 86; 2,9; 988,3743;1013,9375;6; 23,2; 23,2; 0,0; 0,0;247,5; 62,1
2020-02-14 21:32:00; 4,9; 86; 2,8; 988,3743;1013,9375;6; 23,2; 23,2; 0,0; 0,0;247,5; 62,1
2020-02-14 21:41:59; 4,9; 86; 2,8; 988,4368;1014,0000;6; 23,2; 23,2; 0,0; 0,0;247,5; 62,1
2020-02-14 21:52:00; 4,9; 86; 2,8; 988,4368;1014,0000;6; 23,2; 23,2; 0,0; 0,0;247,5; 62,1
2020-02-14 22:01:59; 4,9; 86; 2,8; 988,5618;1014,1250;6; 23,2; 23,2; 0,0; 0,0;247,5; 62,1
2020-02-14 22:12:00; 4,9; 86; 2,8; 988,5618;1014,1250;6; 23,2; 23,2; 0,0; 0,0;247,5; 62,1
2020-02-14 22:21:59; 4,9; 86; 2,8; 988,7493;1014,3125;6; 23,2; 23,2; 0,0; 0,0;247,5; 62,1
2020-02-14 22:32:00; 4,9; 86; 2,8; 988,7493;1014,3125;6; 23,2; 23,2; 0,0; 0,0;247,5; 62,1
2020-02-14 22:42:00; 4,8; 86; 2,7; 988,8743;1014,4375;6; 23,2; 23,2; 0,0; 0,0;247,5; 62,1
2020-02-14 22:51:59; 4,7; 86; 2,6; 988,8743;1014,4375;6; 23,2; 23,2; 0,0; 0,0;247,5; 62,1
2020-02-14 23:02:00; 4,7; 85; 2,4; 988,8118;1014,3750;6; 23,2; 23,2; 0,0; 0,0;247,5; 62,1
2020-02-14 23:11:59; 4,5; 85; 2,2; 988,8118;1014,3750;6; 23,2; 23,2; 0,0; 0,0;247,5; 62,1
2020-02-14 23:22:00; 4,5; 85; 2,2; 989,0618;1014,6250;6; 23,2; 23,2; 0,0; 0,0;247,5; 62,1
2020-02-14 23:31:59; 4,4; 85; 2,1; 989,0618;1014,6250;6; 23,2; 23,2; 0,0; 0,0;247,5; 62,1
2020-02-14 23:42:00; 4,4; 85; 2,1; 989,3118;1014,8750;6; 23,2; 23,2; 0,0; 0,0;247,5; 62,1
2020-02-14 23:51:59; 4,3; 85; 2,0; 989,3118;1014,8750;6; 23,2; 23,2; 0,0; 0,0;247,5; 62,1
2020-02-15 00:02:00; 4,3; 85; 2,0; 989,1868;1014,7500;6; 23,2; 23,2; 0,0; 0,0;247,5; 62,1
2020-02-15 00:12:00; 4,3; 85; 2,0; 989,1868;1014,7500;6; 23,2; 23,2; 0,0; 0,0;247,5; 62,1
2020-02-15 00:21:59; 4,2; 85; 1,9; 989,1243;1014,6875;6; 23,2; 23,2; 0,0; 0,0;247,5; 62,1
2020-02-15 00:32:00; 4,2; 85; 1,9; 989,1243;1014,6875;6; 23,2; 23,2; 0,0; 0,0;247,5; 62,1
2020-02-15 00:41:59; 4,1; 85; 1,8; 989,4368;1015,0000;6; 23,2; 23,2; 0,0; 0,0;247,5; 62,1
2020-02-15 00:52:00; 4,1; 85; 1,8; 989,4368;1015,0000;6; 23,2; 23,2; 0,0; 0,0;247,5; 62,1
2020-02-15 01:01:59; 4,1; 85; 1,8; 989,4993;1015,0625;6; 23,2; 23,2; 0,0; 0,0;247,5; 62,1
2020-02-15 01:12:00; 4,1; 85; 1,8; 989,4993;1015,0625;6; 23,2; 23,2; 0,0; 0,0;247,5; 62,1
2020-02-15 01:21:59; 3,9; 85; 1,6; 989,3118;1014,8750;6; 23,2; 23,2; 0,0; 0,0;247,5; 62,1
2020-02-15 01:32:00; 3,8; 85; 1,5; 989,3118;1014,8750;6; 23,2; 23,2; 0,0; 0,0;247,5; 62,1
2020-02-15 01:42:00; 3,7; 85; 1,4; 989,3118;1014,8750;6; 23,2; 23,2; 0,0; 0,0;247,5; 62,1
2020-02-15 01:51:59; 3,7; 85; 1,4; 989,3118;1014,8750;6; 23,2; 23,2; 0,0; 0,0;247,5; 62,1
2020-02-15 02:02:00; 3,7; 85; 1,4; 989,3118;1014,8750;6; 23,2; 23,2; 0,0; 0,0;247,5; 62,1
2020-02-15 02:11:59; 3,5; 85; 1,2; 989,3118;1014,8750;6; 23,2; 23,2; 0,0; 0,0;247,5; 62,1
2020-02-15 02:22:00; 3,5; 85; 1,2; 989,3118;1014,8750;6; 23,2; 23,2; 0,0; 0,0;247,5; 62,1
2020-02-15 02:31:59; 3,4; 85; 1,1; 989,3118;1014,8750;6; 23,2; 23,2; 0,0; 0,0;247,5; 62,1
2020-02-15 02:42:00; 3,3; 85; 1,0; 989,1868;1014,7500;6; 23,2; 23,2; 0,0; 0,0;247,5; 62,1
2020-02-15 02:51:59; 3,3; 85; 1,0; 989,1868;1014,7500;6; 23,2; 23,2; 0,0; 0,0;247,5; 62,1
2020-02-15 03:02:00; 3,2; 85; 0,9; 989,0618;1014,6250;6; 23,2; 23,2; 0,0; 0,0;247,5; 62,1
2020-02-15 03:12:00; 3,1; 85; 0,8; 989,0618;1014,6250;6; 23,2; 23,2; 0,0; 0,0;247,5; 62,1
2020-02-15 03:21:59; 3,1; 86; 1,0; 988,9993;1014,5625;6; 23,2; 23,2; 0,0; 0,0;247,5; 62,1
2020-02-15 03:32:00; 3,0; 85; 0,7; 988,9993;1014,5625;6; 23,2; 23,2; 0,0; 0,0;247,5; 62,1
2020-02-15 03:41:59; 2,9; 85; 0,6; 988,8118;1014,3750;6; 23,2; 23,2; 0,0; 0,0;247,5; 62,1
2020-02-15 03:52:00; 2,8; 85; 0,5; 988,8118;1014,3750;6; 23,2; 23,2; 0,0; 0,0;247,5; 62,1
2020-02-15 04:01:59; 2,8; 85; 0,5; 988,8118;1014,3750;6; 23,2; 23,2; 0,0; 0,0;247,5; 62,1
2020-02-15 04:12:00; 2,8; 85; 0,5; 988,8118;1014,3750;6; 23,2; 23,2; 0,0; 0,0;247,5; 62,1
2020-02-15 04:21:59; 2,7; 85; 0,4; 988,6868;1014,2500;6; 23,2; 23,2; 0,0; 0,0;247,5; 62,1
2020-02-15 04:32:00; 2,7; 85; 0,4; 988,6868;1014,2500;6; 23,2; 23,2; 0,0; 0,0;247,5; 62,1
2020-02-15 04:42:00; 2,7; 84; 0,3; 988,5618;1014,1250;6; 23,2; 23,2; 0,0; 0,0;247,5; 62,1
2020-02-15 04:51:59; 2,7; 84; 0,3; 988,5618;1014,1250;6; 23,2; 23,2; 0,0; 0,0;247,5; 62,1
2020-02-15 05:02:00; 2,7; 84; 0,3; 988,3743;1013,9375;6; 23,2; 23,2; 0,0; 0,0;247,5; 62,1
2020-02-15 05:11:59; 2,6; 84; 0,2; 988,3743;1013,9375;6; 23,2; 23,2; 0,0; 0,0;247,5; 62,1
2020-02-15 05:22:00; 2,5; 84; 0,1; 988,3118;1013,8750;6; 23,2; 23,2; 0,0; 0,0;247,5; 62,1
2020-02-15 05:31:59; 2,5; 84; 0,1; 988,3118;1013,8750;6; 23,2; 23,2; 0,0; 0,0;247,5; 62,1
2020-02-15 05:42:00; 2,5; 84; 0,1; 988,1243;1013,6875;6; 23,2; 23,2; 0,0; 0,0;247,5; 62,1
2020-02-15 05:51:59; 2,4; 83; -0,2; 988,1243;1013,6875;6; 23,2; 23,2; 0,0; 0,0;247,5; 62,1
2020-02-15 06:02:00; 2,3; 83; -0,3; 988,0618;1013,6250;6; 23,2; 23,2; 0,0; 0,0;247,5; 62,1
2020-02-15 06:12:00; 2,3; 83; -0,3; 988,0618;1013,6250;6; 23,2; 23,2; 0,0; 0,0;247,5; 62,1
2020-02-15 06:21:59; 2,3; 83; -0,3; 988,1868;1013,7500;6; 23,2; 23,2; 0,0; 0,0;247,5; 62,1
2020-02-15 06:32:00; 2,4; 83; -0,2; 988,1868;1013,7500;6; 23,2; 23,2; 0,0; 0,0;247,5; 62,1
2020-02-15 06:41:59; 2,3; 83; -0,3; 987,9368;1013,5000;6; 23,2; 23,2; 0,0; 0,0;247,5; 62,1
2020-02-15 06:52:00; 2,4; 83; -0,2; 987,9368;1013,5000;6; 23,2; 23,2; 0,0; 0,0;247,5; 62,1
2020-02-15 07:01:59; 2,5; 83; -0,1; 987,9993;1013,5625;6; 23,2; 23,2; 0,0; 0,0;247,5; 62,1
2020-02-15 07:12:00; 2,7; 82; -0,1; 987,9993;1013,5625;6; 23,2; 23,2; 0,0; 0,0;247,5; 62,1
2020-02-15 07:21:59; 2,8; 82; 0,0; 987,8743;1013,4375;6; 23,3; 23,3; 0,0; 0,0;247,5; 62,1
2020-02-15 07:32:00; 3,0; 82; 0,2; 987,8743;1013,4375;6; 23,3; 23,3; 0,0; 0,0;247,5; 62,1
2020-02-15 07:42:00; 3,1; 82; 0,3; 988,1243;1013,6875;6; 23,3; 23,3; 0,0; 0,0;247,5; 62,1
2020-02-15 07:51:59; 3,2; 82; 0,4; 988,1243;1013,6875;6; 23,4; 23,4; 0,0; 0,0;247,5; 62,1
2020-02-15 08:02:00; 3,5; 82; 0,7; 988,1868;1013,7500;6; 23,4; 23,4; 0,0; 0,0;247,5; 62,1
2020-02-15 08:11:59; 3,7; 82; 0,9; 988,1868;1013,7500;6; 23,4; 23,4; 0,0; 0,0;247,5; 62,1
2020-02-15 08:22:00; 4,0; 82; 1,2; 988,2493;1013,8125;6; 23,6; 23,6; 0,0; 0,0;247,5; 62,1
2020-02-15 08:31:59; 4,7; 80; 1,5; 988,2493;1013,8125;6; 24,1; 24,1; 0,0; 0,0;247,5; 62,1
2020-02-15 08:42:00; 5,3; 79; 2,0; 988,1868;1013,7500;6; 24,6; 24,6; 0,0; 0,0;247,5; 62,1
2020-02-15 08:51:59; 5,7; 78; 2,2; 988,1868;1013,7500;6; 25,0; 25,0; 0,0; 0,0;247,5; 62,1
2020-02-15 09:02:00; 6,3; 77; 2,6; 988,5618;1014,1250;6; 25,0; 25,0; 0,0; 0,0;247,5; 62,1
2020-02-15 09:12:00; 6,4; 76; 2,5; 988,5618;1014,1250;6; 25,0; 25,0; 0,0; 0,0;247,5; 62,1
2020-02-15 09:21:59; 6,7; 76; 2,8; 988,6868;1014,2500;6; 24,9; 24,9; 0,0; 0,0;247,5; 62,1
2020-02-15 09:32:00; 6,8; 76; 2,9; 988,6868;1014,2500;6; 24,9; 24,9; 0,0; 0,0;247,5; 62,1
2020-02-15 09:41:59; 7,1; 76; 3,2; 988,4368;1014,0000;6; 24,8; 24,8; 0,0; 0,0;247,5; 62,1
2020-02-15 09:52:00; 7,3; 76; 3,3; 988,4368;1014,0000;6; 24,8; 24,8; 0,0; 0,0;247,5; 62,1
2020-02-15 10:01:59; 7,6; 76; 3,6; 988,4368;1014,0000;6; 24,6; 24,6; 0,0; 0,0;247,5; 62,1
2020-02-15 10:12:00; 7,8; 74; 3,5; 988,4368;1014,0000;6; 24,5; 24,5; 0,0; 0,0;247,5; 62,1
2020-02-15 10:21:59; 8,1; 74; 3,7; 988,1868;1013,7500;6; 24,4; 24,4; 0,0; 0,0;247,5; 62,1
2020-02-15 10:32:00; 8,4; 73; 3,8; 988,1868;1013,7500;6; 24,4; 24,4; 0,0; 0,0;247,5; 62,1
2020-02-15 10:42:00; 8,7; 72; 3,9; 987,8743;1013,4375;6; 24,5; 24,5; 0,0; 0,0;247,5; 62,1
2020-02-15 10:51:59; 9,1; 72; 4,3; 987,8743;1013,4375;6; 24,6; 24,6; 0,0; 0,0;247,5; 62,1
2020-02-15 11:02:00; 9,3; 71; 4,3; 987,9368;1013,5000;6; 24,8; 24,8; 0,0; 0,0;247,5; 62,1
2020-02-15 11:11:59; 9,7; 69; 4,3; 987,9368;1013,5000;6; 25,0; 25,0; 0,0; 0,0;247,5; 62,1
2020-02-15 11:22:00; 9,9; 68; 4,3; 987,7493;1013,3125;6; 25,2; 25,2; 0,0; 0,0;247,5; 62,1
2020-02-15 11:31:59; 10,4; 66; 4,3; 987,7493;1013,3125;6; 25,5; 25,5; 0,0; 0,0;247,5; 62,1
2020-02-15 11:42:00; 11,0; 65; 4,7; 987,4993;1013,0625;5; 25,6; 25,6; 0,0; 0,0;247,5; 62,1
2020-02-15 11:51:59; 11,1; 64; 4,5; 987,4993;1013,0625;5; 25,7; 25,7; 0,0; 0,0;247,5; 62,1
2020-02-15 12:02:00; 11,2; 64; 4,6; 987,4993;1013,0625;5; 25,6; 25,6; 0,0; 0,0;247,5; 62,1
2020-02-15 12:12:00; 11,4; 61; 4,1; 987,4993;1013,0625;5; 25,6; 25,6; 0,0; 0,0;247,5; 62,1
2020-02-15 12:21:59; 11,7; 62; 4,7; 987,4993;1013,0625;5; 25,6; 25,6; 0,0; 0,0;247,5; 62,1
2020-02-15 12:32:00; 11,7; 62; 4,7; 987,4993;1013,0625;5; 25,6; 25,6; 0,0; 0,0;247,5; 62,1
2020-02-15 12:41:59; 11,8; 61; 4,5; 987,2493;1012,8125;5; 25,5; 25,5; 0,0; 0,0;247,5; 62,1
2020-02-15 12:52:00; 11,9; 62; 4,8; 987,2493;1012,8125;5; 25,5; 25,5; 0,0; 0,0;247,5; 62,1
2020-02-15 13:01:59; 11,9; 60; 4,4; 986,8743;1012,4375;5; 25,5; 25,5; 0,0; 0,0;247,5; 62,1
2020-02-15 13:12:00; 11,9; 58; 3,9; 986,8743;1012,4375;5; 25,4; 25,4; 0,0; 0,0;247,5; 62,1
2020-02-15 13:21:59; 11,7; 59; 4,0; 986,7493;1012,3125;5; 25,3; 25,3; 0,0; 0,0;247,5; 62,1
2020-02-15 13:32:00; 11,4; 61; 4,1; 986,7493;1012,3125;5; 25,2; 25,2; 0,0; 0,0;247,5; 62,1
2020-02-15 13:42:00; 11,2; 60; 3,7; 986,5618;1012,1250;5; 25,0; 25,0; 0,0; 0,0;247,5; 62,1
2020-02-15 13:51:59; 10,9; 60; 3,4; 986,5618;1012,1250;5; 24,9; 24,9; 0,0; 0,0;247,5; 62,1
2020-02-15 14:02:00; 10,5; 58; 2,6; 986,1868;1011,7500;5; 24,8; 24,8; 0,0; 0,0;247,5; 62,1
2020-02-15 14:11:59; 10,2; 60; 2,8; 986,1868;1011,7500;5; 24,8; 24,8; 0,0; 0,0;247,5; 62,1
2020-02-15 14:22:00; 9,9; 61; 2,7; 986,0618;1011,6250;5; 24,6; 24,6; 0,0; 0,0;247,5; 62,1
2020-02-15 14:31:59; 9,7; 62; 2,8; 986,0618;1011,6250;5; 24,6; 24,6; 0,0; 0,0;247,5; 62,1
2020-02-15 14:42:00; 9,4; 63; 2,7; 985,9368;1011,5000;5; 24,4; 24,4; 0,0; 0,0;247,5; 62,1
2020-02-15 14:51:59; 9,2; 64; 2,7; 985,9368;1011,5000;5; 24,3; 24,3; 0,0; 0,0;247,5; 62,1
2020-02-15 15:02:00; 9,0; 65; 2,8; 985,8118;1011,3750;5; 24,2; 24,2; 0,0; 0,0;247,5; 62,1
2020-02-15 15:12:00; 8,8; 66; 2,8; 985,8118;1011,3750;5; 24,1; 24,1; 0,0; 0,0;247,5; 62,1
2020-02-15 15:21:59; 8,7; 67; 2,9; 985,4368;1011,0000;5; 24,0; 24,0; 0,0; 0,0;247,5; 62,1
2020-02-15 15:32:00; 8,6; 68; 3,0; 985,4368;1011,0000;5; 24,0; 24,0; 0,0; 0,0;247,5; 62,1
2020-02-15 15:41:59; 8,4; 68; 2,8; 985,6243;1011,1875;5; 24,0; 24,0; 0,0; 0,0;247,5; 62,1
2020-02-15 15:52:00; 8,3; 69; 2,9; 985,6243;1011,1875;5; 23,9; 23,9; 0,0; 0,0;247,5; 62,1
2020-02-15 16:01:59; 8,1; 69; 2,8; 985,0618;1010,6250;5; 23,9; 23,9; 0,0; 0,0;247,5; 62,1
2020-02-15 16:12:00; 7,9; 70; 2,8; 985,0618;1010,6250;5; 23,9; 23,9; 0,0; 0,0;247,5; 62,1
2020-02-15 16:21:59; 7,6; 71; 2,7; 985,1868;1010,7500;5; 23,8; 23,8; 0,0; 0,0;247,5; 62,1
2020-02-15 16:32:00; 7,3; 71; 2,4; 985,1868;1010,7500;5; 23,8; 23,8; 0,0; 0,0;247,5; 62,1
2020-02-15 16:42:00; 7,0; 71; 2,1; 985,3118;1010,8750;5; 23,8; 23,8; 0,0; 0,0;247,5; 62,1
2020-02-15 16:51:59; 6,7; 72; 2,0; 985,3118;1010,8750;5; 23,8; 23,8; 0,0; 0,0;247,5; 62,1
2020-02-15 17:02:00; 6,3; 72; 1,6; 985,2493;1010,8125;5; 23,8; 23,8; 0,0; 0,0;247,5; 62,1
2020-02-15 17:11:59; 6,3; 73; 1,8; 985,2493;1010,8125;5; 23,7; 23,7; 0,0; 0,0;247,5; 62,1
2020-02-15 17:22:00; 6,3; 74; 2,0; 985,3743;1010,9375;5; 23,7; 23,7; 0,0; 0,0;247,5; 62,1
2020-02-15 17:31:59; 6,0; 74; 1,7; 985,3743;1010,9375;5; 23,7; 23,7; 0,0; 0,0;247,5; 62,1
2020-02-15 17:42:00; 6,0; 74; 1,7; 985,5618;1011,1250;5; 23,7; 23,7; 0,0; 0,0;247,5; 62,1
2020-02-15 17:51:59; 5,7; 75; 1,6; 985,5618;1011,1250;5; 23,7; 23,7; 0,0; 0,0;247,5; 62,1
2020-02-15 18:02:00; 5,6; 76; 1,7; 985,3743;1010,9375;5; 23,6; 23,6; 0,0; 0,0;247,5; 62,1
2020-02-15 18:12:00; 5,5; 76; 1,6; 985,3743;1010,9375;5; 23,6; 23,6; 0,0; 0,0;247,5; 62,1
2020-02-15 18:21:59; 5,3; 77; 1,6; 984,9993;1010,5625;5; 23,6; 23,6; 0,0; 0,0;247,5; 62,1
2020-02-15 18:32:00; 5,1; 77; 1,4; 984,9993;1010,5625;5; 23,6; 23,6; 0,0; 0,0;247,5; 62,1
2020-02-15 18:41:59; 5,1; 78; 1,6; 984,7493;1010,3125;5; 23,6; 23,6; 0,0; 0,0;247,5; 62,1
2020-02-15 18:52:00; 5,1; 78; 1,6; 984,7493;1010,3125;5; 23,6; 23,6; 0,0; 0,0;247,5; 62,1
2020-02-15 19:01:59; 5,0; 78; 1,5; 984,4368;1010,0000;5; 23,6; 23,6; 0,0; 0,0;247,5; 62,1
2020-02-15 19:12:00; 4,9; 79; 1,6; 984,4368;1010,0000;5; 23,6; 23,6; 0,0; 0,0;247,5; 62,1
2020-02-15 19:21:59; 4,9; 79; 1,6; 984,0618;1009,6250;5; 23,6; 23,6; 0,0; 0,0;247,5; 62,1
2020-02-15 19:32:00; 5,1; 79; 1,8; 984,0618;1009,6250;5; 23,6; 23,6; 0,0; 0,0;247,5; 62,1
2020-02-15 19:42:00; 5,1; 78; 1,6; 983,8118;1009,3750;5; 23,6; 23,6; 0,0; 0,0;247,5; 62,1
2020-02-15 19:51:59; 5,3; 78; 1,8; 983,8118;1009,3750;5; 23,6; 23,6; 0,0; 0,0;247,5; 62,1
2020-02-15 20:02:00; 5,2; 78; 1,7; 983,5618;1009,1250;5; 23,6; 23,6; 0,0; 0,0;247,5; 62,1
2020-02-15 20:11:59; 5,1; 77; 1,4; 983,5618;1009,1250;5; 23,6; 23,6; 0,0; 0,0;247,5; 62,1
2020-02-15 20:22:00; 5,1; 77; 1,4; 983,2493;1008,8125;5; 23,5; 23,5; 0,0; 0,0;247,5; 62,1
2020-02-15 20:31:59; 5,0; 77; 1,3; 983,2493;1008,8125;5; 23,6; 23,6; 0,0; 0,0;247,5; 62,1
2020-02-15 20:42:00; 4,8; 77; 1,1; 983,4993;1009,0625;5; 23,6; 23,6; 0,0; 0,0;247,5; 62,1
2020-02-15 20:51:59; 4,8; 77; 1,1; 983,4993;1009,0625;5; 23,5; 23,5; 0,0; 0,0;247,5; 62,1
2020-02-15 21:02:00; 5,1; 77; 1,4; 983,2493;1008,8125;5; 23,6; 23,6; 0,0; 0,0;247,5; 62,1
2020-02-15 21:12:00; 5,2; 75; 1,1; 983,2493;1008,8125;5; 23,5; 23,5; 0,0; 0,0;247,5; 62,1
2020-02-15 21:21:59; 5,3; 75; 1,2; 983,1868;1008,7500;5; 23,5; 23,5; 0,0; 0,0;247,5; 62,1
2020-02-15 21:32:00; 5,5; 74; 1,2; 983,1868;1008,7500;5; 23,6; 23,6; 0,0; 0,0;247,5; 62,1
2020-02-15 21:41:59; 5,7; 74; 1,4; 982,8743;1008,4375;5; 23,5; 23,5; 0,0; 0,0;247,5; 62,1
2020-02-15 21:52:00; 5,8; 73; 1,3; 982,8743;1008,4375;5; 23,5; 23,5; 0,0; 0,0;247,5; 62,1
2020-02-15 22:01:59; 5,8; 72; 1,1; 982,7493;1008,3125;5; 23,5; 23,5; 0,0; 0,0;247,5; 62,1
2020-02-15 22:12:00; 5,6; 73; 1,1; 982,7493;1008,3125;5; 23,5; 23,5; 0,0; 0,0;247,5; 62,1
2020-02-15 22:21:59; 5,5; 73; 1,0; ; ;5; 23,6; 23,6; 0,0; 0,0;247,5; 62,1
2020-02-15 22:32:00; 5,5; 72; 0,9; ; ;5; 23,6; 23,6; 0,0; 0,0;247,5; 62,1
2020-02-15 22:42:00; 5,5; 72; 0,9; ; ;5; 23,5; 23,5; 0,0; 0,0;247,5; 62,1
2020-02-15 22:51:59; 5,5; 72; 0,9; ; ;5; 23,5; 23,5; 0,0; 0,0;247,5; 62,1
2020-02-15 23:02:00; 5,5; 72; 0,9; 982,0618;1007,6250;5; 23,5; 23,5; 0,0; 0,0;247,5; 62,1
2020-02-15 23:11:59; 5,6; 72; 1,0; 982,0618;1007,6250;5; 23,5; 23,5; 0,0; 0,0;247,5; 62,1
2020-02-15 23:22:00; 5,5; 72; 0,9; 982,2493;1007,8125;5; 23,5; 23,5; 0,0; 0,0;247,5; 62,1
2020-02-15 23:31:59; 5,5; 72; 0,9; 982,2493;1007,8125;5; 23,5; 23,5; 0,0; 0,0;247,5; 62,1
2020-02-15 23:42:00; 5,4; 73; 0,9; 982,2493;1007,8125;5; 23,5; 23,5; 0,0; 0,0;247,5; 62,1
2020-02-15 23:51:59; 5,6; 72; 1,0; 982,2493;1007,8125;5; 23,6; 23,6; 0,0; 0,0;247,5; 62,1
2020-02-16 00:02:00; 5,9; 70; 0,8; 982,3118;1007,8750;5; 23,5; 23,5; 0,0; 0,0;247,5; 62,1
2020-02-16 00:12:00; 6,1; 70; 1,0; 982,3118;1007,8750;5; 23,5; 23,5; 0,0; 0,0;247,5; 62,1
2020-02-16 00:21:59; 5,7; 72; 1,0; 982,4993;1008,0625;5; 23,5; 23,5; 0,0; 0,0;247,5; 62,1
2020-02-16 00:32:00; 5,6; 73; 1,1; 982,4993;1008,0625;5; 23,5; 23,5; 0,0; 0,0;247,5; 62,1
2020-02-16 00:41:59; 5,6; 72; 1,0; 982,0618;1007,6250;5; 23,5; 23,5; 0,0; 0,0;247,5; 62,1
2020-02-16 00:52:00; 5,8; 72; 1,1; 982,0618;1007,6250;5; 23,5; 23,5; 0,0; 0,0;247,5; 62,1
2020-02-16 01:01:59; 5,8; 72; 1,1; 981,9993;1007,5625;5; 23,5; 23,5; 0,0; 0,0;247,5; 62,1
2020-02-16 01:12:00; 5,9; 72; 1,2; 981,9993;1007,5625;5; 23,5; 23,5; 0,0; 0,0;247,5; 62,1
2020-02-16 01:21:59; 6,0; 72; 1,3; 981,6243;1007,1875;5; 23,5; 23,5; 0,0; 0,0;247,5; 62,1
2020-02-16 01:32:00; 6,1; 71; 1,2; 981,6243;1007,1875;5; 23,5; 23,5; 0,0; 0,0;247,5; 62,1
2020-02-16 01:42:00; 6,3; 70; 1,2; 981,5618;1007,1250;5; 23,6; 23,6; 0,0; 0,0;247,5; 62,1
2020-02-16 01:51:59; 6,7; 68; 1,2; 981,5618;1007,1250;5; 23,5; 23,5; 0,0; 0,0;247,5; 62,1
2020-02-16 02:02:00; 6,9; 66; 1,0; 981,3118;1006,8750;5; 23,5; 23,5; 0,0; 0,0;247,5; 62,1
2020-02-16 02:11:59; 7,1; 67; 1,4; 981,3118;1006,8750;5; 23,6; 23,6; 0,0; 0,0;247,5; 62,1
2020-02-16 02:22:00; 6,7; 69; 1,4; 981,3118;1006,8750;5; 23,5; 23,5; 0,0; 0,0;247,5; 62,1
2020-02-16 02:31:59; 6,7; 69; 1,4; 981,3118;1006,8750;5; 23,6; 23,6; 0,0; 0,0;247,5; 62,1
2020-02-16 02:42:00; 6,7; 70; 1,6; 980,6243;1006,1875;5; 23,5; 23,5; 0,0; 0,0;247,5; 62,1
2020-02-16 02:51:59; 6,8; 69; 1,5; 980,6243;1006,1875;5; 23,5; 23,5; 0,0; 0,0;247,5; 62,1
2020-02-16 03:02:00; 7,3; 65; 1,2; 980,4368;1006,0000;5; 23,5; 23,5; 0,0; 0,0;247,5; 62,1
2020-02-16 03:12:00; 7,5; 67; 1,8; 980,4368;1006,0000;5; 23,5; 23,5; 0,0; 0,0;247,5; 62,1
2020-02-16 03:21:59; 7,1; 68; 1,6; 980,2493;1005,8125;5; 23,5; 23,5; 0,0; 0,0;247,5; 62,1
2020-02-16 03:32:00; 6,9; 68; 1,4; 980,2493;1005,8125;5; 23,5; 23,5; 0,0; 0,0;247,5; 62,1
2020-02-16 03:41:59; 7,0; 67; 1,3; 980,2493;1005,8125;5; 23,5; 23,5; 0,0; 0,0;247,5; 62,1
2020-02-16 03:52:00; 6,9; 68; 1,4; 980,2493;1005,8125;5; 23,5; 23,5; 0,0; 0,0;247,5; 62,1
2020-02-16 04:01:59; 6,9; 67; 1,2; 980,1243;1005,6875;5; 23,6; 23,6; 0,0; 0,0;247,5; 62,1
2020-02-16 04:12:00; 7,1; 66; 1,2; 980,1243;1005,6875;5; 23,5; 23,5; 0,0; 0,0;247,5; 62,1
2020-02-16 04:21:59; 7,1; 66; 1,2; 980,0618;1005,6250;4; 23,5; 23,5; 0,0; 0,0;247,5; 62,1
2020-02-16 04:32:00; 6,7; 68; 1,2; 980,0618;1005,6250;4; 23,5; 23,5; 0,0; 0,0;247,5; 62,1
2020-02-16 04:42:00; 6,7; 69; 1,4; 980,1243;1005,6875;4; 23,5; 23,5; 0,0; 0,0;247,5; 62,1
2020-02-16 04:51:59; 6,4; 70; 1,3; 980,1243;1005,6875;4; 23,4; 23,4; 0,0; 0,0;247,5; 62,1
2020-02-16 05:02:00; 6,3; 70; 1,2; 980,4368;1006,0000;4; 23,4; 23,4; 0,0; 0,0;247,5; 62,1
2020-02-16 05:11:59; 6,3; 70; 1,2; 980,4368;1006,0000;4; 23,4; 23,4; 0,0; 0,0;247,5; 62,1
2020-02-16 05:22:00; 6,2; 71; 1,3; 980,3743;1005,9375;4; 23,4; 23,4; 0,0; 0,0;247,5; 62,1
2020-02-16 05:31:59; 6,2; 71; 1,3; 980,3743;1005,9375;4; 23,4; 23,4; 0,0; 0,0;247,5; 62,1
2020-02-16 05:42:00; 6,0; 71; 1,1; 980,3743;1005,9375;4; 23,4; 23,4; 0,0; 0,0;247,5; 62,1
2020-02-16 05:51:59; 6,0; 72; 1,3; 980,3743;1005,9375;4; 23,4; 23,4; 0,0; 0,0;247,5; 62,1
2020-02-16 06:02:00; 5,9; 72; 1,2; 980,4368;1006,0000;4; 23,4; 23,4; 0,0; 0,0;247,5; 62,1
2020-02-16 06:12:00; 5,8; 72; 1,1; 980,4368;1006,0000;4; 23,4; 23,4; 0,0; 0,0;247,5; 62,1
2020-02-16 06:21:59; 5,8; 72; 1,1; 980,5618;1006,1250;4; 23,4; 23,4; 0,0; 0,0;247,5; 62,1
2020-02-16 06:32:00; 5,9; 72; 1,2; 980,5618;1006,1250;4; 23,4; 23,4; 0,0; 0,0;247,5; 62,1
2020-02-16 06:41:59; 5,8; 72; 1,1; 980,2493;1005,8125;4; 23,4; 23,4; 0,0; 0,0;247,5; 62,1
2020-02-16 06:52:00; 5,8; 73; 1,3; 980,2493;1005,8125;4; 23,4; 23,4; 0,0; 0,0;247,5; 62,1
2020-02-16 07:01:59; 5,9; 72; 1,2; 979,9368;1005,5000;4; 23,4; 23,4; 0,0; 0,0;247,5; 62,1
2020-02-16 07:12:00; 6,1; 72; 1,4; 979,9368;1005,5000;4; 23,4; 23,4; 0,0; 0,0;247,5; 62,1
2020-02-16 07:21:59; 7,4; 68; 1,9; 979,7493;1005,3125;4; 23,5; 23,5; 0,0; 0,0;247,5; 62,1
2020-02-16 07:32:00; 8,6; 63; 2,0; 979,7493;1005,3125;4; 23,5; 23,5; 0,0; 0,0;247,5; 62,1
2020-02-16 07:42:00; 9,2; 60; 1,8; 979,6243;1005,1875;4; 23,6; 23,6; 0,0; 0,0;247,5; 62,1
2020-02-16 07:51:59; 9,5; 60; 2,1; 979,6243;1005,1875;4; 23,5; 23,5; 0,0; 0,0;247,5; 62,1
2020-02-16 08:02:00; 9,6; 59; 2,0; 979,7493;1005,3125;4; 23,6; 23,6; 0,0; 0,0;247,5; 62,1
2020-02-16 08:11:59; 10,2; 57; 2,1; 979,7493;1005,3125;4; 23,5; 23,5; 0,0; 0,0;247,5; 62,1
2020-02-16 08:22:00; 10,4; 56; 2,0; 979,6243;1005,1875;4; 23,5; 23,5; 0,0; 0,0;247,5; 62,1
2020-02-16 08:31:59; 10,7; 56; 2,3; 979,6243;1005,1875;4; 23,6; 23,6; 0,0; 0,0;247,5; 62,1
2020-02-16 08:42:00; 10,8; 55; 2,1; 979,6868;1005,2500;4; 23,5; 23,5; 0,0; 0,0;247,5; 62,1
2020-02-16 08:51:59; 10,9; 55; 2,2; 979,6868;1005,2500;4; 23,5; 23,5; 0,0; 0,0;247,5; 62,1
2020-02-16 09:02:00; 11,1; 54; 2,1; 978,6243;1004,1875;4; 23,6; 23,6; 0,0; 0,0;247,5; 62,1
2020-02-16 09:12:00; 11,4; 53; 2,2; 978,6243;1004,1875;4; 23,6; 23,6; 0,0; 0,0;247,5; 62,1
2020-02-16 09:21:59; 11,7; 53; 2,4; 979,2493;1004,8125;4; 23,6; 23,6; 0,0; 0,0;247,5; 62,1
2020-02-16 09:32:00; 11,9; 53; 2,6; 979,2493;1004,8125;4; 23,6; 23,6; 0,0; 0,0;247,5; 62,1
2020-02-16 09:41:59; 12,3; 52; 2,7; 978,8743;1004,4375;4; 23,6; 23,6; 0,0; 0,0;247,5; 62,1
2020-02-16 09:52:00; 12,5; 50; 2,4; 978,8743;1004,4375;4; 23,7; 23,7; 0,0; 0,0;247,5; 62,1
2020-02-16 10:01:59; 12,6; 50; 2,4; 978,9368;1004,5000;4; 23,7; 23,7; 0,0; 0,0;247,5; 62,1
2020-02-16 10:12:00; 12,5; 50; 2,4; 978,9368;1004,5000;4; 23,6; 23,6; 0,0; 0,0;247,5; 62,1
2020-02-16 10:21:59; 12,5; 51; 2,6; 978,9993;1004,5625;4; 23,6; 23,6; 0,0; 0,0;247,5; 62,1
2020-02-16 10:32:00; 12,5; 51; 2,6; 978,9993;1004,5625;4; 23,6; 23,6; 0,0; 0,0;247,5; 62,1
2020-02-16 10:42:00; 12,5; 51; 2,6; 978,8743;1004,4375;4; 23,6; 23,6; 0,0; 0,0;247,5; 62,1
2020-02-16 10:51:59; 12,5; 51; 2,6; 978,8743;1004,4375;4; 23,6; 23,6; 0,0; 0,0;247,5; 62,1
2020-02-16 11:02:00; 12,4; 52; 2,8; 978,6868;1004,2500;4; 23,6; 23,6; 0,0; 0,0;247,5; 62,1
2020-02-16 11:11:59; 12,5; 51; 2,6; 978,6868;1004,2500;4; 23,6; 23,6; 0,0; 0,0;247,5; 62,1
2020-02-16 11:22:00; 12,5; 52; 2,9; 978,6868;1004,2500;4; 23,6; 23,6; 0,0; 0,0;247,5; 62,1
2020-02-16 11:31:59; 12,5; 53; 3,2; 978,6868;1004,2500;4; 23,6; 23,6; 0,0; 0,0;247,5; 62,1
2020-02-16 11:42:00; 12,5; 53; 3,2; 978,5618;1004,1250;4; 23,6; 23,6; 0,0; 0,0;247,5; 62,1
2020-02-16 11:51:59; 12,7; 52; 3,1; 978,5618;1004,1250;4; 23,6; 23,6; 0,0; 0,0;247,5; 62,1
2020-02-16 12:02:00; 12,5; 55; 3,7; 978,2493;1003,8125;4; 23,6; 23,6; 0,0; 0,0;247,5; 62,1
2020-02-16 12:12:00; 12,5; 56; 4,0; 978,2493;1003,8125;4; 23,6; 23,6; 0,0; 0,0;247,5; 62,1
2020-02-16 12:21:59; 12,8; 55; 4,0; 977,8743;1003,4375;4; 23,7; 23,7; 0,0; 0,0;247,5; 62,1
2020-02-16 12:32:00; 13,0; 56; 4,4; 977,8743;1003,4375;4; 23,8; 23,8; 0,0; 0,0;247,5; 62,1
2020-02-16 12:41:59; 13,4; 56; 4,8; 977,6868;1003,2500;4; 23,9; 23,9; 0,0; 0,0;247,5; 62,1
2020-02-16 12:52:00; 13,9; 54; 4,7; 977,6868;1003,2500;4; 24,1; 24,1; 0,0; 0,0;247,5; 62,1
2020-02-16 13:01:59; 13,8; 55; 4,9; 977,6243;1003,1875;4; 24,0; 24,0; 0,0; 0,0;247,5; 62,1
2020-02-16 13:12:00; 13,6; 55; 4,7; 977,6243;1003,1875;4; 23,9; 23,9; 0,0; 0,0;247,5; 62,1
2020-02-16 13:21:59; 13,5; 55; 4,6; 977,1868;1002,7500;4; 23,9; 23,9; 0,0; 0,0;247,5; 62,1
2020-02-16 13:32:00; 13,5; 56; 4,9; 977,1868;1002,7500;4; 23,9; 23,9; 0,0; 0,0;247,5; 62,1
2020-02-16 13:42:00; 13,4; 58; 5,3; 976,6243;1002,1875;4; 23,8; 23,8; 0,0; 0,0;247,5; 62,1
2020-02-16 13:51:59; 13,6; 55; 4,7; 976,6243;1002,1875;4; 23,8; 23,8; 0,0; 0,0;247,5; 62,1
2020-02-16 14:02:00; 13,7; 56; 5,1; 976,4993;1002,0625;4; 23,8; 23,8; 0,0; 0,0;247,5; 62,1
2020-02-16 14:11:59; 13,7; 56; 5,1; 976,4993;1002,0625;4; 23,8; 23,8; 0,0; 0,0;247,5; 62,1
2020-02-16 14:22:00; 13,8; 55; 4,9; 976,3743;1001,9375;4; 23,8; 23,8; 0,0; 0,0;247,5; 62,1
2020-02-16 14:31:59; 13,9; 55; 5,0; 976,3743;1001,9375;4; 23,8; 23,8; 0,0; 0,0;247,5; 62,1
2020-02-16 14:42:00; 14,1; 53; 4,7; 976,1243;1001,6875;3; 23,8; 23,8; 0,0; 0,0;247,5; 62,1
2020-02-16 14:51:59; 14,1; 52; 4,4; 976,1243;1001,6875;3; 23,8; 23,8; 0,0; 0,0;247,5; 62,1
2020-02-16 15:02:00; 14,3; 50; 4,0; 975,6868;1001,2500;3; 23,8; 23,8; 0,0; 0,0;247,5; 62,1
2020-02-16 15:12:00; 14,2; 50; 3,9; 975,6868;1001,2500;3; 23,7; 23,7; 0,0; 0,0;247,5; 62,1
2020-02-16 15:21:59; 14,3; 48; 3,4; 975,0618;1000,6250;3; 23,7; 23,7; 0,0; 0,0;247,5; 62,1
2020-02-16 15:32:00; 14,1; 49; 3,5; 975,0618;1000,6250;3; 23,7; 23,7; 0,0; 0,0;247,5; 62,1
2020-02-16 15:41:59; 13,9; 49; 3,4; 975,1243;1000,6875;3; 23,7; 23,7; 0,0; 0,0;247,5; 62,1
2020-02-16 15:52:00; 13,8; 48; 3,0; 975,1243;1000,6875;3; 23,7; 23,7; 0,0; 0,0;247,5; 62,1
2020-02-16 16:01:59; 13,9; 48; 3,1; 974,8743;1000,4375;3; 23,6; 23,6; 0,0; 0,0;247,5; 62,1
2020-02-16 16:12:00; 13,7; 47; 2,6; 974,8743;1000,4375;3; 23,6; 23,6; 0,0; 0,0;247,5; 62,1
2020-02-16 16:21:59; 13,7; 47; 2,6; 974,4368;1000,0000;3; 23,6; 23,6; 0,0; 0,0;247,5; 62,1
2020-02-16 16:32:00; 13,9; 45; 2,2; 974,4368;1000,0000;3; 23,6; 23,6; 0,0; 0,0;247,5; 62,1
2020-02-16 16:42:00; 14,1; 44; 2,0; 974,3743; 999,9375;3; 23,6; 23,6; 0,0; 0,0;247,5; 62,1
2020-02-16 16:51:59; 14,3; 44; 2,2; 974,3743; 999,9375;3; 23,6; 23,6; 0,0; 0,0;247,5; 62,1
2020-02-16 17:02:00; 14,3; 44; 2,2; 974,3118; 999,8750;3; 23,6; 23,6; 0,0; 0,0;247,5; 62,1
2020-02-16 17:11:59; 14,3; 43; 1,9; 974,3118; 999,8750;3; 23,6; 23,6; 0,0; 0,0;247,5; 62,1
2020-02-16 17:22:00; 14,3; 43; 1,9; 974,3743; 999,9375;3; 23,6; 23,6; 0,0; 0,0;247,5; 62,1
2020-02-16 17:31:59; 14,4; 43; 2,0; 974,3743; 999,9375;3; 23,6; 23,6; 0,0; 0,0;247,5; 62,1
2020-02-16 17:42:00; 14,6; 41; 1,5; 974,3743; 999,9375;3; 23,6; 23,6; 0,0; 0,0;247,5; 62,1
2020-02-16 17:51:59; 14,7; 41; 1,6; 974,3743; 999,9375;3; 23,6; 23,6; 0,0; 0,0;247,5; 62,1
2020-02-16 18:02:00; 14,7; 41; 1,6; 974,4993;1000,0625;3; 23,6; 23,6; 0,0; 0,0;247,5; 62,1
2020-02-16 18:12:00; 14,7; 40; 1,2; 974,4993;1000,0625;3; 23,6; 23,6; 0,0; 0,0;247,5; 62,1
2020-02-16 18:21:59; 14,8; 40; 1,3; 974,5618;1000,1250;3; 23,6; 23,6; 0,0; 0,0;247,5; 62,1
2020-02-16 18:32:00; 14,7; 39; 0,9; 974,5618;1000,1250;3; 23,6; 23,6; 0,0; 0,0;247,5; 62,1
2020-02-16 18:41:59; 14,8; 39; 1,0; 974,2493; 999,8125;3; 23,6; 23,6; 0,0; 0,0;247,5; 62,1
2020-02-16 18:52:00; 14,8; 39; 1,0; 974,2493; 999,8125;3; 23,6; 23,6; 0,0; 0,0;247,5; 62,1
2020-02-16 19:01:59; 14,8; 39; 1,0; 974,1243; 999,6875;3; 23,6; 23,6; 0,0; 0,0;247,5; 62,1
2020-02-16 19:12:00; 14,9; 38; 0,7; 974,1243; 999,6875;3; 23,6; 23,6; 0,0; 0,0;247,5; 62,1
2020-02-16 19:21:59; 15,0; 37; 0,4; 973,8118; 999,3750;3; 23,6; 23,6; 0,0; 0,0;247,5; 62,1
2020-02-16 19:32:00; 14,9; 38; 0,7; 973,8118; 999,3750;3; 23,6; 23,6; 0,0; 0,0;247,5; 62,1
2020-02-16 19:42:00; 14,9; 38; 0,7; 973,5618; 999,1250;3; 23,6; 23,6; 0,0; 0,0;247,5; 62,1
2020-02-16 19:51:59; 14,8; 38; 0,6; 973,5618; 999,1250;3; 23,6; 23,6; 0,0; 0,0;247,5; 62,1
2020-02-16 20:02:00; 14,9; 38; 0,7; 973,3743; 998,9375;3; 23,6; 23,6; 0,0; 0,0;247,5; 62,1
2020-02-16 20:11:59; 14,9; 38; 0,7; 973,3743; 998,9375;3; 23,6; 23,6; 0,0; 0,0;247,5; 62,1
2020-02-16 20:22:00; 15,0; 38; 0,8; 972,9368; 998,5000;3; 23,6; 23,6; 0,0; 0,0;247,5; 62,1
2020-02-16 20:31:59; 15,0; 38; 0,8; 972,9368; 998,5000;3; 23,6; 23,6; 0,0; 0,0;247,5; 62,1
2020-02-16 20:42:00; 15,1; 37; 0,5; 972,4368; 998,0000;3; 23,6; 23,6; 0,0; 0,0;247,5; 62,1
2020-02-16 20:51:59; 15,1; 37; 0,5; 972,4368; 998,0000;3; 23,6; 23,6; 0,0; 0,0;247,5; 62,1
2020-02-16 21:02:00; 15,1; 37; 0,5; 972,5618; 998,1250;3; 23,6; 23,6; 0,0; 0,0;247,5; 62,1
2020-02-16 21:12:00; 15,3; 36; 0,3; 972,5618; 998,1250;3; 23,6; 23,6; 0,0; 0,0;247,5; 62,1
2020-02-16 21:21:59; 15,4; 36; 0,4; 972,5618; 998,1250;3; 23,6; 23,6; 0,0; 0,0;247,5; 62,1
2020-02-16 21:32:00; 15,4; 35; 0,0; 972,5618; 998,1250;3; 23,6; 23,6; 0,0; 0,0;247,5; 62,1
2020-02-16 21:41:59; 15,5; 36; 0,5; 972,3743; 997,9375;3; 23,6; 23,6; 0,0; 0,0;247,5; 62,1
2020-02-16 21:52:00; 15,4; 36; 0,4; 972,3743; 997,9375;3; 23,6; 23,6; 0,0; 0,0;247,5; 62,1
2020-02-16 22:01:59; 15,5; 36; 0,5; 972,4993; 998,0625;3; 23,6; 23,6; 0,0; 0,0;247,5; 62,1
2020-02-16 22:12:00; 15,6; 36; 0,6; 972,4993; 998,0625;3; 23,6; 23,6; 0,0; 0,0;247,5; 62,1
2020-02-16 22:21:59; 15,5; 37; 0,9; 972,4368; 998,0000;3; 23,6; 23,6; 0,0; 0,0;247,5; 62,1
2020-02-16 22:32:00; 15,5; 37; 0,9; 972,4368; 998,0000;3; 23,6; 23,6; 0,0; 0,0;247,5; 62,1
2020-02-16 22:42:00; 15,3; 37; 0,7; 972,6868; 998,2500;3; 23,6; 23,6; 0,0; 0,0;247,5; 62,1
2020-02-16 22:51:59; 15,2; 37; 0,6; 972,6868; 998,2500;3; 23,6; 23,6; 0,0; 0,0;247,5; 62,1
2020-02-16 23:02:00; 15,2; 38; 1,0; 972,8743; 998,4375;3; 23,6; 23,6; 0,0; 0,0;247,5; 62,1
2020-02-16 23:11:59; 14,9; 38; 0,7; 972,8743; 998,4375;3; 23,6; 23,6; 0,0; 0,0;247,5; 62,1
2020-02-16 23:22:00; 14,7; 40; 1,2; 973,3118; 998,8750;3; 23,6; 23,6; 0,0; 0,0;247,5; 62,1
2020-02-16 23:31:59; 14,5; 41; 1,4; 973,3118; 998,8750;3; 23,6; 23,6; 0,0; 0,0;247,5; 62,1
2020-02-16 23:42:00; 14,3; 42; 1,6; 973,1868; 998,7500;3; 23,6; 23,6; 0,0; 0,0;247,5; 62,1
2020-02-16 23:51:59; 14,3; 42; 1,6; 973,1868; 998,7500;3; 23,6; 23,6; 0,0; 0,0;247,5; 62,1
2020-02-17 00:02:00; 14,3; 43; 1,9; 973,3118; 998,8750;3; 23,6; 23,6; 0,0; 0,0;247,5; 62,1
2020-02-17 00:12:00; 14,5; 44; 2,4; 973,3118; 998,8750;3; 23,6; 23,6; 0,0; 0,0;247,5; 62,1
2020-02-17 00:21:59; 14,6; 44; 2,5; 973,8118; 999,3750;3; 23,6; 23,6; 0,0; 0,0;247,5; 62,1
2020-02-17 00:32:00; 14,9; 44; 2,8; 973,8118; 999,3750;3; 23,6; 23,6; 0,0; 0,0;247,5; 62,1
2020-02-17 00:41:59; 15,0; 45; 3,2; 974,1868; 999,7500;3; 23,6; 23,6; 0,0; 0,0;247,5; 62,1
2020-02-17 00:52:00; 15,4; 45; 3,5; 974,1868; 999,7500;3; 23,6; 23,6; 0,0; 0,0;247,5; 62,1
2020-02-17 01:01:59; 15,6; 45; 3,7; 974,1243; 999,6875;3; 23,6; 23,6; 0,0; 0,0;247,5; 62,1
2020-02-17 01:12:00; 15,8; 45; 3,9; 974,1243; 999,6875;3; 23,6; 23,6; 0,0; 0,0;247,5; 62,1
2020-02-17 01:21:59; 15,8; 45; 3,9; 974,1868; 999,7500;3; 23,6; 23,6; 0,0; 0,0;247,5; 62,1
2020-02-17 01:32:00; 15,8; 45; 3,9; 974,1868; 999,7500;3; 23,6; 23,6; 0,0; 0,0;247,5; 62,1
2020-02-17 01:42:00; 15,8; 46; 4,2; 974,1868; 999,7500;3; 23,6; 23,6; 0,0; 0,0;247,5; 62,1
2020-02-17 01:51:59; 15,7; 46; 4,1; 974,1868; 999,7500;3; 23,6; 23,6; 0,0; 0,0;247,5; 62,1
2020-02-17 02:02:00; 15,7; 46; 4,1; 974,4993;1000,0625;3; 23,6; 23,6; 0,0; 0,0;247,5; 62,1
2020-02-17 02:11:59; 14,7; 53; 5,2; 974,4993;1000,0625;3; 23,6; 23,6; 0,0; 0,0;247,5; 62,1
2020-02-17 02:22:00; 13,5; 58; 5,4; 975,9368;1001,5000;4; 23,6; 23,6; 0,0; 0,0;247,5; 62,1
2020-02-17 02:31:59; 12,7; 61; 5,4; 975,9368;1001,5000;4; 23,6; 23,6; 0,0; 0,0;247,5; 62,1
2020-02-17 02:42:00; 12,3; 63; 5,5; 976,5618;1002,1250;4; 23,6; 23,6; 0,0; 0,0;247,5; 62,1
2020-02-17 02:51:59; 11,9; 65; 5,5; 976,5618;1002,1250;4; 23,6; 23,6; 0,0; 0,0;247,5; 62,1
2020-02-17 03:02:00; 11,5; 67; 5,6; 977,4368;1003,0000;4; 23,6; 23,6; 0,0; 0,0;247,5; 62,1
2020-02-17 03:12:00; 11,1; 69; 5,6; 977,4368;1003,0000;4; 23,6; 23,6; 0,0; 0,0;247,5; 62,1
2020-02-17 03:21:59; 10,6; 75; 6,4; 978,1868;1003,7500;4; 23,6; 23,6; 0,0; 0,0;247,5; 62,1
2020-02-17 03:32:00; 10,2; 76; 6,2; 978,1868;1003,7500;4; 23,6; 23,6; 0,0; 0,0;247,5; 62,1
2020-02-17 03:41:59; 10,1; 77; 6,3; 978,1868;1003,7500;4; 23,6; 23,6; 0,0; 0,0;247,5; 62,1
2020-02-17 03:52:00; 10,0; 77; 6,2; 978,1868;1003,7500;4; 23,6; 23,6; 0,0; 0,0;247,5; 62,1
2020-02-17 04:01:59; 9,9; 78; 6,2; 977,8743;1003,4375;4; 23,5; 23,5; 0,0; 0,0;247,5; 62,1
2020-02-17 04:12:00; 9,9; 78; 6,2; 977,8743;1003,4375;4; 23,6; 23,6; 0,0; 0,0;247,5; 62,1
2020-02-17 04:21:59; 9,9; 78; 6,2; 977,9368;1003,5000;4; 23,5; 23,5; 0,0; 0,0;247,5; 62,1
2020-02-17 04:32:00; 9,9; 78; 6,2; 977,9368;1003,5000;4; 23,4; 23,4; 0,0; 0,0;247,5; 62,1
2020-02-17 04:42:00; 9,9; 78; 6,2; 977,7493;1003,3125;4; 23,4; 23,4; 0,0; 0,0;247,5; 62,1
2020-02-17 04:51:59; 10,0; 77; 6,2; 977,7493;1003,3125;4; 23,4; 23,4; 0,0; 0,0;247,5; 62,1
2020-02-17 05:02:00; 10,0; 76; 6,0; 977,4993;1003,0625;4; 23,4; 23,4; 0,0; 0,0;247,5; 62,1
2020-02-17 05:11:59; 10,1; 77; 6,3; 977,4993;1003,0625;4; 23,4; 23,4; 0,0; 0,0;247,5; 62,1
2020-02-17 05:22:00; 10,1; 76; 6,1; 977,8118;1003,3750;4; 23,4; 23,4; 0,0; 0,0;247,5; 62,1
2020-02-17 05:31:59; 10,1; 76; 6,1; 977,8118;1003,3750;4; 23,4; 23,4; 0,0; 0,0;247,5; 62,1
2020-02-17 05:42:00; 10,1; 76; 6,1; 978,8118;1004,3750;4; 23,4; 23,4; 0,0; 0,0;247,5; 62,1
2020-02-17 05:51:59; 10,1; 74; 5,7; 978,8118;1004,3750;4; 23,4; 23,4; 0,0; 0,0;247,5; 62,1
2020-02-17 06:02:00; 10,1; 73; 5,5; 978,7493;1004,3125;4; 23,4; 23,4; 0,0; 0,0;247,5; 62,1
2020-02-17 06:12:00; 10,1; 72; 5,3; 978,7493;1004,3125;4; 23,4; 23,4; 0,0; 0,0;247,5; 62,1
2020-02-17 06:21:59; 10,1; 71; 5,1; 978,8118;1004,3750;4; 23,4; 23,4; 0,0; 0,0;247,5; 62,1
2020-02-17 06:32:00; 10,0; 70; 4,8; 978,8118;1004,3750;4; 23,4; 23,4; 0,0; 0,0;247,5; 62,1
2020-02-17 06:41:59; 10,0; 70; 4,8; 979,1243;1004,6875;4; 23,4; 23,4; 0,0; 0,0;247,5; 62,1
2020-02-17 06:52:00; 9,9; 71; 4,9; 979,1243;1004,6875;4; 23,4; 23,4; 0,0; 0,0;247,5; 62,1
2020-02-17 07:01:59; 9,8; 72; 5,0; 979,3743;1004,9375;4; 23,4; 23,4; 0,0; 0,0;247,5; 62,1
2020-02-17 07:12:00; 9,9; 73; 5,3; 979,3743;1004,9375;4; 23,4; 23,4; 0,0; 0,0;247,5; 62,1
2020-02-17 07:21:59; 10,0; 71; 5,0; 979,4368;1005,0000;4; 23,4; 23,4; 0,0; 0,0;247,5; 62,1
2020-02-17 07:32:00; 10,1; 67; 4,2; 979,4368;1005,0000;4; 23,4; 23,4; 0,0; 0,0;247,5; 62,1
2020-02-17 07:42:00; 10,3; 66; 4,2; 979,8118;1005,3750;4; 23,5; 23,5; 0,0; 0,0;247,5; 62,1
2020-02-17 07:51:59; 10,4; 66; 4,3; 979,8118;1005,3750;4; 23,6; 23,6; 0,0; 0,0;247,5; 62,1
2020-02-17 08:02:00; 10,3; 67; 4,4; 979,4993;1005,0625;4; 23,5; 23,5; 0,0; 0,0;247,5; 62,1
2020-02-17 08:11:59; 10,3; 68; 4,7; 979,4993;1005,0625;4; 23,5; 23,5; 0,0; 0,0;247,5; 62,1
2020-02-17 08:22:00; 10,4; 67; 4,5; 980,1243;1005,6875;4; 23,6; 23,6; 0,0; 0,0;247,5; 62,1
2020-02-17 08:31:59; 10,4; 65; 4,1; 980,1243;1005,6875;4; 23,5; 23,5; 0,0; 0,0;247,5; 62,1
2020-02-17 08:42:00; 10,5; 64; 4,0; 979,8743;1005,4375;4; 23,5; 23,5; 0,0; 0,0;247,5; 62,1
2020-02-17 08:51:59; 10,7; 62; 3,7; 979,8743;1005,4375;4; 23,6; 23,6; 0,0; 0,0;247,5; 62,1
2020-02-17 09:02:00; 11,0; 63; 4,2; 980,3743;1005,9375;4; 23,7; 23,7; 0,0; 0,0;247,5; 62,1
2020-02-17 09:12:00; 11,3; 62; 4,3; 980,3743;1005,9375;4; 23,8; 23,8; 0,0; 0,0;247,5; 62,1
2020-02-17 09:21:59; 11,4; 62; 4,4; 980,5618;1006,1250;4; 23,8; 23,8; 0,0; 0,0;247,5; 62,1
2020-02-17 09:32:00; 11,3; 59; 3,6; 980,5618;1006,1250;4; 23,8; 23,8; 0,0; 0,0;247,5; 62,1
2020-02-17 09:41:59; 11,3; 56; 2,8; 980,5618;1006,1250;4; 23,8; 23,8; 0,0; 0,0;247,5; 62,1
2020-02-17 09:52:00; 11,3; 51; 1,5; 980,5618;1006,1250;4; 23,8; 23,8; 0,0; 0,0;247,5; 62,1
2020-02-17 10:01:59; 11,3; 53; 2,1; 980,5618;1006,1250;4; 23,8; 23,8; 0,0; 0,0;247,5; 62,1
2020-02-17 10:12:00; 11,3; 51; 1,5; 980,5618;1006,1250;4; 23,7; 23,7; 0,0; 0,0;247,5; 62,1
2020-02-17 10:21:59; 11,3; 55; 2,6; 980,6868;1006,2500;4; 23,7; 23,7; 0,0; 0,0;247,5; 62,1
2020-02-17 10:32:00; 11,5; 55; 2,8; 980,6868;1006,2500;4; 23,7; 23,7; 0,0; 0,0;247,5; 62,1
2020-02-17 10:42:00; 11,4; 53; 2,2; 980,5618;1006,1250;4; 23,7; 23,7; 0,0; 0,0;247,5; 62,1
2020-02-17 10:51:59; 11,2; 55; 2,5; 980,5618;1006,1250;4; 23,6; 23,6; 0,0; 0,0;247,5; 62,1
2020-02-17 11:02:00; 11,1; 56; 2,7; 980,3743;1005,9375;4; 23,6; 23,6; 0,0; 0,0;247,5; 62,1
2020-02-17 11:11:59; 11,1; 55; 2,4; 980,3743;1005,9375;4; 23,6; 23,6; 0,0; 0,0;247,5; 62,1
2020-02-17 11:22:00; 11,1; 54; 2,1; 980,3118;1005,8750;4; 23,6; 23,6; 0,0; 0,0;247,5; 62,1
2020-02-17 11:31:59; 11,0; 55; 2,3; 980,3118;1005,8750;4; 23,6; 23,6; 0,0; 0,0;247,5; 62,1
2020-02-17 11:42:00; 10,9; 54; 2,0; 980,2493;1005,8125;4; 23,6; 23,6; 0,0; 0,0;247,5; 62,1
2020-02-17 11:51:59; 10,8; 54; 1,9; 980,2493;1005,8125;4; 23,6; 23,6; 0,0; 0,0;247,5; 62,1
2020-02-17 12:02:00; 10,8; 55; 2,1; 980,1243;1005,6875;4; 23,6; 23,6; 0,0; 0,0;247,5; 62,1
2020-02-17 12:12:00; 10,7; 54; 1,8; 980,1243;1005,6875;4; 23,6; 23,6; 0,0; 0,0;247,5; 62,1
2020-02-17 12:21:59; 10,8; 53; 1,6; 980,3118;1005,8750;4; 23,6; 23,6; 0,0; 0,0;247,5; 62,1
2020-02-17 12:32:00; 10,9; 54; 2,0; 980,3118;1005,8750;4; 23,6; 23,6; 0,0; 0,0;247,5; 62,1
2020-02-17 12:41:59; 10,8; 52; 1,3; 980,1868;1005,7500;4; 23,6; 23,6; 0,0; 0,0;247,5; 62,1
2020-02-17 12:52:00; 11,0; 51; 1,2; 980,1868;1005,7500;4; 23,6; 23,6; 0,0; 0,0;247,5; 62,1
2020-02-17 13:01:59; 11,1; 51; 1,3; 979,8743;1005,4375;4; 23,6; 23,6; 0,0; 0,0;247,5; 62,1
2020-02-17 13:12:00; 11,3; 51; 1,5; 979,8743;1005,4375;4; 23,6; 23,6; 0,0; 0,0;247,5; 62,1
2020-02-17 13:21:59; 11,3; 50; 1,2; 979,7493;1005,3125;4; 23,7; 23,7; 0,0; 0,0;247,5; 62,1
2020-02-17 13:32:00; 11,5; 49; 1,2; 979,7493;1005,3125;4; 23,7; 23,7; 0,0; 0,0;247,5; 62,1
2020-02-17 13:42:00; 11,5; 49; 1,2; 979,6243;1005,1875;4; 23,7; 23,7; 0,0; 0,0;247,5; 62,1
2020-02-17 13:51:59; 11,5; 49; 1,2; 979,6243;1005,1875;4; 23,7; 23,7; 0,0; 0,0;247,5; 62,1
2020-02-17 14:02:00; 11,5; 50; 1,4; 979,6868;1005,2500;4; 23,7; 23,7; 0,0; 0,0;247,5; 62,1
2020-02-17 14:11:59; 11,6; 50; 1,5; 979,6868;1005,2500;4; 23,7; 23,7; 0,0; 0,0;247,5; 62,1
2020-02-17 14:22:00; 11,6; 51; 1,8; 979,6868;1005,2500;4; 23,7; 23,7; 0,0; 0,0;247,5; 62,1
2020-02-17 14:31:59; 11,5; 51; 1,7; 979,6868;1005,2500;4; 23,6; 23,6; 0,0; 0,0;247,5; 62,1
2020-02-17 14:42:00; 11,4; 52; 1,9; 979,4368;1005,0000;4; 23,6; 23,6; 0,0; 0,0;247,5; 62,1
2020-02-17 14:51:59; 11,5; 52; 2,0; 979,4368;1005,0000;4; 23,6; 23,6; 0,0; 0,0;247,5; 62,1
2020-02-17 15:02:00; 11,3; 53; 2,1; 979,3743;1004,9375;4; 23,6; 23,6; 0,0; 0,0;247,5; 62,1
2020-02-17 15:12:00; 11,2; 54; 2,2; 979,3743;1004,9375;4; 23,6; 23,6; 0,0; 0,0;247,5; 62,1
2020-02-17 15:21:59; 11,1; 55; 2,4; 979,3118;1004,8750;4; 23,6; 23,6; 0,0; 0,0;247,5; 62,1
2020-02-17 15:32:00; 11,0; 56; 2,6; 979,3118;1004,8750;4; 23,6; 23,6; 0,0; 0,0;247,5; 62,1
2020-02-17 15:41:59; 10,8; 57; 2,6; 979,6243;1005,1875;4; 23,6; 23,6; 0,0; 0,0;247,5; 62,1
2020-02-17 15:52:00; 10,7; 58; 2,8; 979,6243;1005,1875;4; 23,5; 23,5; 0,0; 0,0;247,5; 62,1
2020-02-17 16:01:59; 10,5; 58; 2,6; 979,4368;1005,0000;4; 23,5; 23,5; 0,0; 0,0;247,5; 62,1
2020-02-17 16:12:00; 10,4; 58; 2,5; 979,4368;1005,0000;4; 23,6; 23,6; 0,0; 0,0;247,5; 62,1
2020-02-17 16:21:59; 10,2; 58; 2,3; 979,7493;1005,3125;4; 23,5; 23,5; 0,0; 0,0;247,5; 62,1
2020-02-17 16:32:00; 10,1; 58; 2,2; 979,7493;1005,3125;4; 23,5; 23,5; 0,0; 0,0;247,5; 62,1
2020-02-17 16:42:00; 9,9; 60; 2,5; 979,6243;1005,1875;4; 23,4; 23,4; 0,0; 0,0;247,5; 62,1
2020-02-17 16:51:59; 9,8; 60; 2,4; 979,6243;1005,1875;4; 23,4; 23,4; 0,0; 0,0;247,5; 62,1
2020-02-17 17:02:00; 9,6; 61; 2,4; 979,9368;1005,5000;4; 23,4; 23,4; 0,0; 0,0;247,5; 62,1
2020-02-17 17:11:59; 9,4; 62; 2,5; 979,9368;1005,5000;4; 23,4; 23,4; 0,0; 0,0;247,5; 62,1
2020-02-17 17:22:00; 9,3; 63; 2,6; 979,9993;1005,5625;4; 23,4; 23,4; 0,0; 0,0;247,5; 62,1
2020-02-17 17:31:59; 9,2; 64; 2,7; 979,9993;1005,5625;4; 23,4; 23,4; 0,0; 0,0;247,5; 62,1
2020-02-17 17:42:00; 9,1; 64; 2,6; 980,4993;1006,0625;4; 23,4; 23,4; 0,0; 0,0;247,5; 62,1
2020-02-17 17:51:59; 9,0; 65; 2,8; 980,4993;1006,0625;4; 23,4; 23,4; 0,0; 0,0;247,5; 62,1
2020-02-17 18:02:00; 8,9; 65; 2,7; 980,3743;1005,9375;4; 23,4; 23,4; 0,0; 0,0;247,5; 62,1
2020-02-17 18:12:00; 8,8; 66; 2,8; 980,3743;1005,9375;4; 23,4; 23,4; 0,0; 0,0;247,5; 62,1
2020-02-17 18:21:59; 8,7; 66; 2,7; 980,4993;1006,0625;4; 23,4; 23,4; 0,0; 0,0;247,5; 62,1
2020-02-17 18:32:00; 8,6; 67; 2,8; 980,4993;1006,0625;4; 23,4; 23,4; 0,0; 0,0;247,5; 62,1
2020-02-17 18:41:59; 8,5; 67; 2,7; 980,4993;1006,0625;4; 23,4; 23,4; 0,0; 0,0;247,5; 62,1
2020-02-17 18:52:00; 8,4; 67; 2,6; 980,4993;1006,0625;4; 23,4; 23,4; 0,0; 0,0;247,5; 62,1
2020-02-17 19:01:59; 8,3; 67; 2,5; 980,4993;1006,0625;4; 23,4; 23,4; 0,0; 0,0;247,5; 62,1
2020-02-17 19:12:00; 8,3; 68; 2,7; 980,4993;1006,0625;4; 23,4; 23,4; 0,0; 0,0;247,5; 62,1
2020-02-17 19:21:59; 8,2; 68; 2,6; 980,5618;1006,1250;4; 23,4; 23,4; 0,0; 0,0;247,5; 62,1
2020-02-17 19:32:00; 8,1; 69; 2,8; 980,5618;1006,1250;4; 23,4; 23,4; 0,0; 0,0;247,5; 62,1
2020-02-17 19:42:00; 8,1; 69; 2,8; 980,2493;1005,8125;4; 23,4; 23,4; 0,0; 0,0;247,5; 62,1
2020-02-17 19:51:59; 8,1; 69; 2,8; 980,2493;1005,8125;4; 23,4; 23,4; 0,0; 0,0;247,5; 62,1
2020-02-17 20:02:00; 8,1; 69; 2,8; 980,3118;1005,8750;4; 23,4; 23,4; 0,0; 0,0;247,5; 62,1
2020-02-17 20:11:59; 8,1; 69; 2,8; 980,3118;1005,8750;4; 23,4; 23,4; 0,0; 0,0;247,5; 62,1
2020-02-17 20:22:00; 8,2; 70; 3,1; 980,0618;1005,6250;4; 23,3; 23,3; 0,0; 0,0;247,5; 62,1
2020-02-17 20:31:59; 8,2; 69; 2,9; 980,0618;1005,6250;4; 23,3; 23,3; 0,0; 0,0;247,5; 62,1
2020-02-17 20:42:00; 8,2; 69; 2,9; 980,3743;1005,9375;4; 23,3; 23,3; 0,0; 0,0;247,5; 62,1
2020-02-17 20:51:59; 8,2; 69; 2,9; 980,3743;1005,9375;4; 23,3; 23,3; 0,0; 0,0;247,5; 62,1
2020-02-17 21:02:00; 8,1; 68; 2,5; 980,4368;1006,0000;4; 23,3; 23,3; 0,0; 0,0;247,5; 62,1
2020-02-17 21:12:00; 8,2; 67; 2,4; 980,4368;1006,0000;4; 23,3; 23,3; 0,0; 0,0;247,5; 62,1
2020-02-17 21:21:59; 8,2; 67; 2,4; 980,4368;1006,0000;4; 23,3; 23,3; 0,0; 0,0;247,5; 62,1
2020-02-17 21:32:00; 8,1; 67; 2,3; 980,4368;1006,0000;4; 23,3; 23,3; 0,0; 0,0;247,5; 62,1
2020-02-17 21:41:59; 8,1; 67; 2,3; 980,5618;1006,1250;4; 23,3; 23,3; 0,0; 0,0;247,5; 62,1
2020-02-17 21:52:00; 8,1; 67; 2,3; 980,5618;1006,1250;4; 23,3; 23,3; 0,0; 0,0;247,5; 62,1
2020-02-17 22:01:59; 8,1; 67; 2,3; 980,6243;1006,1875;4; 23,3; 23,3; 0,0; 0,0;247,5; 62,1
2020-02-17 22:12:00; 8,2; 67; 2,4; 980,6243;1006,1875;4; 23,3; 23,3; 0,0; 0,0;247,5; 62,1
2020-02-17 22:21:59; 8,3; 67; 2,5; 980,7493;1006,3125;4; 23,3; 23,3; 0,0; 0,0;247,5; 62,1
2020-02-17 22:32:00; 8,2; 67; 2,4; 980,7493;1006,3125;4; 23,3; 23,3; 0,0; 0,0;247,5; 62,1
2020-02-17 22:42:00; 8,2; 68; 2,6; 980,9368;1006,5000;5; 23,3; 23,3; 0,0; 0,0;247,5; 62,1
2020-02-17 22:51:59; 8,1; 68; 2,5; 980,9368;1006,5000;5; 23,3; 23,3; 0,0; 0,0;247,5; 62,1
2020-02-17 23:02:00; 8,0; 68; 2,5; 981,2493;1006,8125;5; 23,3; 23,3; 0,0; 0,0; 0,0; 62,1
2020-02-17 23:11:59; 7,9; 68; 2,4; 981,2493;1006,8125;5; 23,3; 23,3; 0,0; 0,0;247,5; 62,1
2020-02-17 23:22:00; 7,9; 68; 2,4; 981,4368;1007,0000;5; 23,3; 23,3; 0,0; 0,0;247,5; 62,1
2020-02-17 23:31:59; 7,7; 69; 2,4; 981,4368;1007,0000;5; 23,3; 23,3; 0,0; 0,0;247,5; 62,1
2020-02-17 23:42:00; 7,6; 68; 2,1; 981,4993;1007,0625;5; 23,3; 23,3; 0,0; 0,0;247,5; 62,1
2020-02-17 23:51:59; 7,5; 68; 2,0; 981,4993;1007,0625;5; 23,3; 23,3; 0,0; 0,0;247,5; 62,1
2020-02-18 00:02:00; 7,3; 68; 1,8; 981,4993;1007,0625;5; 23,3; 23,3; 0,0; 0,0;247,5; 62,1
2020-02-18 00:12:00; 7,2; 68; 1,7; 981,4993;1007,0625;5; 23,3; 23,3; 0,0; 0,0;247,5; 62,1
2020-02-18 00:21:59; 7,1; 67; 1,4; 981,7493;1007,3125;5; 23,3; 23,3; 0,0; 0,0;247,5; 62,1
2020-02-18 00:32:00; 7,0; 67; 1,3; 981,7493;1007,3125;5; 23,3; 23,3; 0,0; 0,0;247,5; 62,1
2020-02-18 00:41:59; 6,9; 67; 1,2; 981,7493;1007,3125;5; 23,3; 23,3; 0,0; 0,0;247,5; 62,1
2020-02-18 00:52:00; 6,9; 68; 1,4; 981,7493;1007,3125;5; 23,3; 23,3; 0,0; 0,0;247,5; 62,1
2020-02-18 01:01:59; 6,9; 68; 1,4; 981,7493;1007,3125;5; 23,3; 23,3; 0,0; 0,0;247,5; 62,1
2020-02-18 01:12:00; 6,9; 68; 1,4; 981,7493;1007,3125;5; 23,3; 23,3; 0,0; 0,0;247,5; 62,1
2020-02-18 01:21:59; 7,1; 67; 1,4; 981,7493;1007,3125;5; 23,2; 23,2; 0,0; 0,0;247,5; 62,1
2020-02-18 01:32:00; 7,3; 67; 1,6; 981,7493;1007,3125;5; 23,3; 23,3; 0,0; 0,0;247,5; 62,1
2020-02-18 01:42:00; 7,4; 68; 1,9; 981,8118;1007,3750;5; 23,3; 23,3; 0,0; 0,0;247,5; 62,1
2020-02-18 01:51:59; 7,1; 69; 1,8; 981,8118;1007,3750;5; 23,2; 23,2; 0,0; 0,0;247,5; 62,1
2020-02-18 02:02:00; 7,1; 70; 2,0; 981,7493;1007,3125;5; 23,2; 23,2; 0,0; 0,0;247,5; 62,1
2020-02-18 02:11:59; 7,1; 71; 2,2; 981,7493;1007,3125;5; 23,2; 23,2; 0,0; 0,0;247,5; 62,1
2020-02-18 02:22:00; 7,1; 71; 2,2; 981,7493;1007,3125;5; 23,3; 23,3; 0,0; 0,0;247,5; 62,1
2020-02-18 02:31:59; 7,2; 70; 2,1; 981,7493;1007,3125;5; 23,2; 23,2; 0,0; 0,0;247,5; 62,1
2020-02-18 02:42:00; 7,3; 71; 2,4; 981,6868;1007,2500;5; 23,2; 23,2; 0,0; 0,0;247,5; 62,1
2020-02-18 02:51:59; 7,2; 72; 2,5; 981,6868;1007,2500;5; 23,2; 23,2; 0,0; 0,0;247,5; 62,1
2020-02-18 03:02:00; 6,9; 75; 2,8; 982,0618;1007,6250;5; 23,2; 23,2; 0,0; 0,0;247,5; 62,1
2020-02-18 03:12:00; 6,6; 76; 2,7; 982,0618;1007,6250;5; 23,3; 23,3; 0,0; 0,0;247,5; 62,1
2020-02-18 03:21:59; 6,4; 77; 2,7; 981,8743;1007,4375;5; 23,2; 23,2; 0,0; 0,0;247,5; 62,1
2020-02-18 03:32:00; 6,3; 77; 2,6; 981,8743;1007,4375;5; 23,2; 23,2; 0,0; 0,0;247,5; 62,1
2020-02-18 03:41:59; 6,3; 77; 2,6; 981,8118;1007,3750;5; 23,2; 23,2; 0,0; 0,0;247,5; 62,1
2020-02-18 03:52:00; 6,3; 77; 2,6; 981,8118;1007,3750;5; 23,2; 23,2; 0,0; 0,0;247,5; 62,1
2020-02-18 04:01:59; 6,4; 77; 2,7; 982,0618;1007,6250;5; 23,2; 23,2; 0,0; 0,0;247,5; 62,1
2020-02-18 04:12:00; 6,5; 75; 2,4; 982,0618;1007,6250;5; 23,2; 23,2; 0,0; 0,0;247,5; 62,1
2020-02-18 04:21:59; 6,5; 75; 2,4; 982,1243;1007,6875;5; 23,2; 23,2; 0,0; 0,0;247,5; 62,1
2020-02-18 04:32:00; 6,5; 75; 2,4; 982,1243;1007,6875;5; 23,2; 23,2; 0,0; 0,0;247,5; 62,1
2020-02-18 04:42:00; 6,3; 75; 2,2; 982,1868;1007,7500;5; 23,2; 23,2; 0,0; 0,0;247,5; 62,1
2020-02-18 04:51:59; 6,3; 75; 2,2; 982,1868;1007,7500;5; 23,2; 23,2; 0,0; 0,0;247,5; 62,1
2020-02-18 05:02:00; 6,2; 75; 2,1; 982,4368;1008,0000;5; 23,2; 23,2; 0,0; 0,0;247,5; 62,1
2020-02-18 05:11:59; 6,3; 75; 2,2; 982,4368;1008,0000;5; 23,2; 23,2; 0,0; 0,0;247,5; 62,1
2020-02-18 05:22:00; 6,3; 75; 2,2; 982,4993;1008,0625;5; 23,2; 23,2; 0,0; 0,0;247,5; 62,1
2020-02-18 05:31:59; 6,3; 75; 2,2; 982,4993;1008,0625;5; 23,2; 23,2; 0,0; 0,0;247,5; 62,1
2020-02-18 05:42:00; 6,3; 74; 2,0; 982,4993;1008,0625;5; 23,2; 23,2; 0,0; 0,0;247,5; 62,1
2020-02-18 05:51:59; 6,3; 74; 2,0; 982,4993;1008,0625;5; 23,2; 23,2; 0,0; 0,0;247,5; 62,1
2020-02-18 06:02:00; 6,3; 73; 1,8; 982,6868;1008,2500;5; 23,2; 23,2; 0,0; 0,0;247,5; 62,1
2020-02-18 06:12:00; 6,3; 73; 1,8; 982,6868;1008,2500;5; 23,2; 23,2; 0,0; 0,0;247,5; 62,1
2020-02-18 06:21:59; 6,3; 73; 1,8; 982,9993;1008,5625;5; 23,2; 23,2; 0,0; 0,0;247,5; 62,1
2020-02-18 06:32:00; 6,5; 73; 2,0; 982,9993;1008,5625;5; 23,2; 23,2; 0,0; 0,0;247,5; 62,1
2020-02-18 06:41:59; 6,5; 72; 1,8; 983,3118;1008,8750;5; 23,2; 23,2; 0,0; 0,0;247,5; 62,1
2020-02-18 06:52:00; 6,5; 71; 1,6; 983,3118;1008,8750;5; 23,2; 23,2; 0,0; 0,0;247,5; 62,1
2020-02-18 07:01:59; 6,5; 71; 1,6; 983,6243;1009,1875;5; 23,3; 23,3; 0,0; 0,0;247,5; 62,1
2020-02-18 07:12:00; 6,5; 71; 1,6; 983,6243;1009,1875;5; 23,3; 23,3; 0,0; 0,0;247,5; 62,1
2020-02-18 07:21:59; 6,6; 71; 1,7; 983,7493;1009,3125;5; 23,3; 23,3; 0,0; 0,0;247,5; 62,1
2020-02-18 07:32:00; 6,9; 71; 2,0; 983,7493;1009,3125;5; 23,3; 23,3; 0,0; 0,0;247,5; 62,1
2020-02-18 07:42:00; 7,3; 69; 2,0; 983,8118;1009,3750;5; 23,4; 23,4; 0,0; 0,0;247,5; 62,1
2020-02-18 07:51:59; 7,5; 68; 2,0; 983,8118;1009,3750;5; 23,8; 23,8; 0,0; 0,0;247,5; 62,1
2020-02-18 08:02:00; 7,9; 67; 2,2; 983,8743;1009,4375;5; 24,7; 24,7; 0,0; 0,0;247,5; 62,1
2020-02-18 08:11:59; 8,3; 66; 2,3; 983,8743;1009,4375;5; 25,5; 25,5; 0,0; 0,0;247,5; 62,1
2020-02-18 08:22:00; 8,7; 64; 2,3; 984,2493;1009,8125;5; 26,3; 26,3; 0,0; 0,0;247,5; 62,1
2020-02-18 08:31:59; 9,0; 63; 2,3; 984,2493;1009,8125;5; 26,7; 26,7; 0,0; 0,0;247,5; 62,1
2020-02-18 08:42:00; 9,0; 62; 2,1; 984,9993;1010,5625;5; 26,7; 26,7; 0,0; 0,0;247,5; 62,1
2020-02-18 08:51:59; 9,3; 60; 1,9; 984,9993;1010,5625;5; 26,7; 26,7; 0,0; 0,0;247,5; 62,1
2020-02-18 09:02:00; 9,0; 60; 1,6; 985,2493;1010,8125;5; 26,0; 26,0; 0,0; 0,0;247,5; 62,1
2020-02-18 09:12:00; 8,6; 60; 1,3; 985,2493;1010,8125;5; 25,4; 25,4; 0,0; 0,0;247,5; 62,1
2020-02-18 09:21:59; 8,5; 60; 1,2; 985,1868;1010,7500;5; 25,0; 25,0; 0,0; 0,0;247,5; 62,1
2020-02-18 09:32:00; 8,3; 61; 1,2; 985,1868;1010,7500;5; 24,7; 24,7; 0,0; 0,0;247,5; 62,1
2020-02-18 09:41:59; 8,3; 61; 1,2; 985,3118;1010,8750;5; 24,5; 24,5; 0,0; 0,0;247,5; 62,1
2020-02-18 09:52:00; 8,7; 61; 1,6; 985,3118;1010,8750;5; 24,8; 24,8; 0,0; 0,0;247,5; 62,1
2020-02-18 10:01:59; 9,1; 59; 1,5; 985,3743;1010,9375;5; 25,0; 25,0; 0,0; 0,0;247,5; 62,1
2020-02-18 10:12:00; 8,9; 61; 1,8; 985,3743;1010,9375;5; 25,0; 25,0; 0,0; 0,0;247,5; 62,1
2020-02-18 10:21:59; 9,7; 61; 2,5; 985,7493;1011,3125;5; 25,3; 25,3; 0,0; 0,0;247,5; 62,1
2020-02-18 10:32:00; 8,3; 67; 2,5; 985,7493;1011,3125;5; 25,3; 25,3; 0,0; 0,0;247,5; 62,1
2020-02-18 10:42:00; 7,5; 69; 2,2; 985,9993;1011,5625;5; 24,9; 24,9; 0,0; 0,0;247,5; 62,1
2020-02-18 10:51:59; 8,0; 68; 2,5; 985,9993;1011,5625;5; 25,1; 25,1; 0,0; 0,0;247,5; 62,1
2020-02-18 11:02:00; 8,7; 64; 2,3; 985,8743;1011,4375;5; 25,6; 25,6; 0,0; 0,0;247,5; 62,1
2020-02-18 11:11:59; 7,1; 71; 2,2; 985,8743;1011,4375;5; 25,3; 25,3; 0,0; 0,0;247,5; 62,1
2020-02-18 11:22:00; 8,1; 66; 2,1; 985,9993;1011,5625;5; 25,7; 25,7; 0,0; 0,0;247,5; 62,1
2020-02-18 11:31:59; 8,8; 64; 2,4; 985,9993;1011,5625;5; 26,2; 26,2; 0,0; 0,0;247,5; 62,1
2020-02-18 11:42:00; 8,6; 61; 1,5; 986,2493;1011,8125;5; 26,2; 26,2; 0,0; 0,0;247,5; 62,1
2020-02-18 11:51:59; 8,3; 60; 1,0; 986,2493;1011,8125;5; 25,9; 25,9; 0,0; 0,0;247,5; 62,1
2020-02-18 12:02:00; 9,1; 55; 0,5; 986,1868;1011,7500;5; 25,9; 25,9; 0,0; 0,0;247,5; 62,1
2020-02-18 12:12:00; 9,2; 55; 0,6; 986,1868;1011,7500;5; 25,8; 25,8; 0,0; 0,0;247,5; 62,1
2020-02-18 12:21:59; 9,3; 54; 0,5; 986,1868;1011,7500;5; 25,8; 25,8; 0,0; 0,0;247,5; 62,1
2020-02-18 12:32:00; 8,6; 52; -0,7; 986,1868;1011,7500;5; 25,6; 25,6; 0,0; 0,0;247,5; 62,1
2020-02-18 12:41:59; 8,4; 53; -0,6; 986,1243;1011,6875;5; 25,3; 25,3; 0,0; 0,0;247,5; 62,1
2020-02-18 12:52:00; 8,3; 54; -0,5; 986,1243;1011,6875;5; 25,1; 25,1; 0,0; 0,0;247,5; 62,1
2020-02-18 13:01:59; 8,3; 53; -0,7; 986,2493;1011,8125;5; 24,9; 24,9; 0,0; 0,0;247,5; 62,1
2020-02-18 13:12:00; 8,8; 54; 0,0; 986,2493;1011,8125;5; 24,9; 24,9; 0,0; 0,0;247,5; 62,1
2020-02-18 13:21:59; 9,1; 53; 0,0; 986,1243;1011,6875;5; 24,9; 24,9; 0,0; 0,0;247,5; 62,1
2020-02-18 13:32:00; 9,4; 53; 0,3; 986,1243;1011,6875;5; 24,9; 24,9; 0,0; 0,0;247,5; 62,1
2020-02-18 13:42:00; 9,2; 51; -0,4; 985,9368;1011,5000;5; 24,9; 24,9; 0,0; 0,0;247,5; 62,1
2020-02-18 13:51:59; 9,5; 51; -0,1; 985,9368;1011,5000;5; 24,9; 24,9; 0,0; 0,0;247,5; 62,1
2020-02-18 14:02:00; 9,3; 51; -0,3; 985,8743;1011,4375;5; 24,9; 24,9; 0,0; 0,0;247,5; 62,1
2020-02-18 14:11:59; 9,1; 50; -0,8; 985,8743;1011,4375;5; 24,8; 24,8; 0,0; 0,0;247,5; 62,1
2020-02-18 14:22:00; 8,7; 50; -1,1; 985,8743;1011,4375;5; 24,7; 24,7; 0,0; 0,0;247,5; 62,1
2020-02-18 14:31:59; 9,0; 50; -0,9; 985,8743;1011,4375;5; 24,7; 24,7; 0,0; 0,0;247,5; 62,1
2020-02-18 14:42:00; 8,9; 50; -1,0; 985,7493;1011,3125;5; 24,6; 24,6; 0,0; 0,0;247,5; 62,1
2020-02-18 14:51:59; 8,6; 52; -0,7; 985,7493;1011,3125;5; 24,4; 24,4; 0,0; 0,0;247,5; 62,1
2020-02-18 15:02:00; 8,5; 53; -0,5; 985,9993;1011,5625;5; 24,3; 24,3; 0,0; 0,0;247,5; 62,1
2020-02-18 15:12:00; 8,3; 54; -0,5; 985,9993;1011,5625;5; 24,2; 24,2; 0,0; 0,0;247,5; 62,1
2020-02-18 15:21:59; 8,2; 56; -0,1; 985,9993;1011,5625;5; 24,2; 24,2; 0,0; 0,0;247,5; 62,1
2020-02-18 15:32:00; 7,9; 59; 0,4; 985,9993;1011,5625;5; 24,1; 24,1; 0,0; 0,0;247,5; 62,1
2020-02-18 15:41:59; 7,6; 60; 0,3; 985,9993;1011,5625;5; 24,1; 24,1; 0,0; 0,0;247,5; 62,1
2020-02-18 15:52:00; 7,3; 60; 0,0; 985,9993;1011,5625;5; 24,0; 24,0; 0,0; 0,0;247,5; 62,1
2020-02-18 16:01:59; 7,1; 61; 0,1; 985,7493;1011,3125;5; 24,0; 24,0; 0,0; 0,0;247,5; 62,1
2020-02-18 16:12:00; 6,9; 63; 0,3; 985,7493;1011,3125;5; 24,0; 24,0; 0,0; 0,0;247,5; 62,1
2020-02-18 16:21:59; 6,7; 64; 0,4; 985,6868;1011,2500;5; 23,9; 23,9; 0,0; 0,0;247,5; 62,1
2020-02-18 16:32:00; 6,7; 65; 0,6; 985,6868;1011,2500;5; 23,9; 23,9; 0,0; 0,0;247,5; 62,1
2020-02-18 16:42:00; 6,4; 65; 0,3; 985,5618;1011,1250;5; 23,9; 23,9; 0,0; 0,0;247,5; 62,1
2020-02-18 16:51:59; 6,4; 64; 0,1; 985,5618;1011,1250;5; 23,9; 23,9; 0,0; 0,0;247,5; 62,1
2020-02-18 17:02:00; 6,4; 63; -0,1; 985,4993;1011,0625;5; 23,8; 23,8; 0,0; 0,0;247,5; 62,1
2020-02-18 17:11:59; 6,4; 62; -0,4; 985,4993;1011,0625;5; 23,8; 23,8; 0,0; 0,0;247,5; 62,1
2020-02-18 17:22:00; 6,3; 62; -0,4; 985,6868;1011,2500;5; 23,8; 23,8; 0,0; 0,0;247,5; 62,1
2020-02-18 17:31:59; 6,3; 61; -0,7; 985,6868;1011,2500;5; 23,8; 23,8; 0,0; 0,0;247,5; 62,1
2020-02-18 17:42:00; 6,1; 61; -0,9; 985,8118;1011,3750;5; 23,8; 23,8; 0,0; 0,0;247,5; 62,1
2020-02-18 17:51:59; 6,0; 62; -0,7; 985,8118;1011,3750;5; 23,8; 23,8; 0,0; 0,0;247,5; 62,1
2020-02-18 18:02:00; 5,9; 62; -0,8; 985,7493;1011,3125;5; 23,8; 23,8; 0,0; 0,0;247,5; 62,1
2020-02-18 18:12:00; 5,9; 61; -1,0; 985,7493;1011,3125;5; 23,8; 23,8; 0,0; 0,0;247,5; 62,1
2020-02-18 18:21:59; 5,8; 61; -1,1; 985,6868;1011,2500;5; 23,7; 23,7; 0,0; 0,0;247,5; 62,1
2020-02-18 18:32:00; 5,7; 62; -1,0; 985,6868;1011,2500;5; 23,7; 23,7; 0,0; 0,0;247,5; 62,1
2020-02-18 18:41:59; 5,7; 61; -1,2; 985,8118;1011,3750;5; 23,7; 23,7; 0,0; 0,0;247,5; 62,1
2020-02-18 18:52:00; 5,7; 61; -1,2; 985,8118;1011,3750;5; 23,7; 23,7; 0,0; 0,0;247,5; 62,1
2020-02-18 19:01:59; 5,7; 61; -1,2; 985,6243;1011,1875;5; 23,7; 23,7; 0,0; 0,0;247,5; 62,1
2020-02-18 19:12:00; 5,6; 62; -1,1; 985,6243;1011,1875;5; 23,7; 23,7; 0,0; 0,0;247,5; 62,1
2020-02-18 19:21:59; 5,6; 62; -1,1; 985,3118;1010,8750;5; 23,7; 23,7; 0,0; 0,0;247,5; 62,1
2020-02-18 19:32:00; 5,7; 62; -1,0; 985,3118;1010,8750;5; 23,7; 23,7; 0,0; 0,0;247,5; 62,1
2020-02-18 19:42:00; 5,8; 62; -0,9; 985,3118;1010,8750;5; 23,6; 23,6; 0,0; 0,0;247,5; 62,1
2020-02-18 19:51:59; 5,8; 62; -0,9; 985,3118;1010,8750;5; 23,6; 23,6; 0,0; 0,0;247,5; 62,1
2020-02-18 20:02:00; 5,8; 62; -0,9; 985,3118;1010,8750;5; 23,6; 23,6; 0,0; 0,0;247,5; 62,1
2020-02-18 20:11:59; 5,7; 62; -1,0; 985,3118;1010,8750;5; 23,6; 23,6; 0,0; 0,0;247,5; 62,1
2020-02-18 20:22:00; 5,7; 63; -0,8; 985,1868;1010,7500;5; 23,6; 23,6; 0,0; 0,0;247,5; 62,1
2020-02-18 20:31:59; 5,5; 63; -1,0; 985,1868;1010,7500;5; 23,6; 23,6; 0,0; 0,0;247,5; 62,1
2020-02-18 20:42:00; 5,5; 63; -1,0; 985,1243;1010,6875;5; 23,6; 23,6; 0,0; 0,0;247,5; 62,1
2020-02-18 20:51:59; 5,4; 63; -1,1; 985,1243;1010,6875;5; 23,6; 23,6; 0,0; 0,0;247,5; 62,1
2020-02-18 21:02:00; 5,4; 63; -1,1; 985,1243;1010,6875;5; 23,6; 23,6; 0,0; 0,0;247,5; 62,1
2020-02-18 21:12:00; 5,3; 64; -1,0; 985,1243;1010,6875;5; 23,6; 23,6; 0,0; 0,0;247,5; 62,1
2020-02-18 21:21:59; 5,4; 64; -0,9; 984,8743;1010,4375;5; 23,6; 23,6; 0,0; 0,0;247,5; 62,1
2020-02-18 21:32:00; 5,3; 64; -1,0; 984,8743;1010,4375;5; 23,6; 23,6; 0,0; 0,0;247,5; 62,1
2020-02-18 21:41:59; 5,3; 65; -0,7; 984,7493;1010,3125;5; 23,6; 23,6; 0,0; 0,0;247,5; 62,1
2020-02-18 21:52:00; 5,3; 66; -0,5; 984,7493;1010,3125;5; 23,6; 23,6; 0,0; 0,0;247,5; 62,1
2020-02-18 22:01:59; 5,3; 66; -0,5; 984,4993;1010,0625;5; 23,6; 23,6; 0,0; 0,0;247,5; 62,1
2020-02-18 22:12:00; 5,3; 66; -0,5; 984,4993;1010,0625;5; 23,6; 23,6; 0,0; 0,0;247,5; 62,1
2020-02-18 22:21:59; 5,3; 66; -0,5; 984,2493;1009,8125;5; 23,6; 23,6; 0,0; 0,0;247,5; 62,1
2020-02-18 22:32:00; 5,3; 66; -0,5; 984,2493;1009,8125;5; 23,6; 23,6; 0,0; 0,0;247,5; 62,1
2020-02-18 22:42:00; 5,3; 66; -0,5; 983,9993;1009,5625;5; 23,6; 23,6; 0,0; 0,0;247,5; 62,1
2020-02-18 22:51:59; 5,3; 66; -0,5; 983,9993;1009,5625;5; 23,6; 23,6; 0,0; 0,0;247,5; 62,1
2020-02-18 23:02:00; 5,3; 67; -0,3; 983,9993;1009,5625;5; 23,6; 23,6; 0,0; 0,0;247,5; 62,1
2020-02-18 23:11:59; 5,3; 67; -0,3; 983,9993;1009,5625;5; 23,6; 23,6; 0,0; 0,0;247,5; 62,1
2020-02-18 23:22:00; 5,3; 67; -0,3; 983,8118;1009,3750;5; 23,6; 23,6; 0,0; 0,0;247,5; 62,1
2020-02-18 23:31:59; 5,3; 67; -0,3; 983,8118;1009,3750;5; 23,6; 23,6; 0,0; 0,0;247,5; 62,1
2020-02-18 23:42:00; 5,2; 67; -0,4; 983,5618;1009,1250;5; 23,6; 23,6; 0,0; 0,0;247,5; 62,1
2020-02-18 23:51:59; 5,3; 67; -0,3; 983,5618;1009,1250;5; 23,6; 23,6; 0,0; 0,0;247,5; 62,1
2020-02-19 00:02:00; 5,3; 67; -0,3; 983,3118;1008,8750;5; 23,6; 23,6; 0,0; 0,0;247,5; 62,1
2020-02-19 00:12:00; 5,3; 67; -0,3; 983,3118;1008,8750;5; 23,6; 23,6; 0,0; 0,0;247,5; 62,1
2020-02-19 00:21:59; 5,3; 67; -0,3; 982,9368;1008,5000;5; 23,6; 23,6; 0,0; 0,0;247,5; 62,1
2020-02-19 00:32:00; 5,3; 67; -0,3; 982,9368;1008,5000;5; 23,6; 23,6; 0,0; 0,0;247,5; 62,1
2020-02-19 00:41:59; 5,3; 67; -0,3; 982,6868;1008,2500;5; 23,6; 23,6; 0,0; 0,0;247,5; 62,1
2020-02-19 00:52:00; 5,3; 67; -0,3; 982,6868;1008,2500;5; 23,6; 23,6; 0,0; 0,0;247,5; 62,1
2020-02-19 01:01:59; 5,3; 67; -0,3; ; ;5; 23,6; 23,6; 0,0; 0,0;247,5; 62,1
2020-02-19 01:12:00; 5,4; 67; -0,2; ; ;5; 23,6; 23,6; 0,0; 0,0;247,5; 62,1
2020-02-19 01:21:59; 5,4; 67; -0,2; 982,3118;1007,8750;5; 23,6; 23,6; 0,0; 0,0;247,5; 62,1
2020-02-19 01:32:00; 5,4; 67; -0,2; 982,3118;1007,8750;5; 23,6; 23,6; 0,0; 0,0;247,5; 62,1
2020-02-19 01:42:00; 5,4; 67; -0,2; 981,8743;1007,4375;5; 23,6; 23,6; 0,0; 0,0;247,5; 62,1
2020-02-19 01:51:59; 5,4; 67; -0,2; 981,8743;1007,4375;5; 23,6; 23,6; 0,0; 0,0;247,5; 62,1
2020-02-19 02:02:00; 5,5; 67; -0,1; 981,6868;1007,2500;5; 23,6; 23,6; 0,0; 0,0;247,5; 62,1
2020-02-19 02:11:59; 5,5; 67; -0,1; 981,6868;1007,2500;5; 23,6; 23,6; 0,0; 0,0;247,5; 62,1
2020-02-19 02:22:00; 5,5; 67; -0,1; 981,4993;1007,0625;5; 23,6; 23,6; 0,0; 0,0;247,5; 62,1
2020-02-19 02:31:59; 5,5; 67; -0,1; 981,4993;1007,0625;5; 23,6; 23,6; 0,0; 0,0;247,5; 62,1
2020-02-19 02:42:00; 5,5; 67; -0,1; 981,0618;1006,6250;5; 23,6; 23,6; 0,0; 0,0;247,5; 62,1
2020-02-19 02:51:59; 5,5; 67; -0,1; 981,0618;1006,6250;5; 23,6; 23,6; 0,0; 0,0;247,5; 62,1
2020-02-19 03:02:00; 5,5; 67; -0,1; 980,9368;1006,5000;5; 23,6; 23,6; 0,0; 0,0;247,5; 62,1
2020-02-19 03:12:00; 5,6; 67; 0,0; 980,9368;1006,5000;5; 23,6; 23,6; 0,0; 0,0;247,5; 62,1
2020-02-19 03:21:59; 5,5; 67; -0,1; 980,8743;1006,4375;5; 23,6; 23,6; 0,0; 0,0;247,5; 62,1
2020-02-19 03:32:00; 5,5; 67; -0,1; 980,8743;1006,4375;5; 23,6; 23,6; 0,0; 0,0;247,5; 62,1
2020-02-19 03:41:59; 5,5; 67; -0,1; 980,5618;1006,1250;5; 23,6; 23,6; 0,0; 0,0;247,5; 62,1
2020-02-19 03:52:00; 5,4; 67; -0,2; 980,5618;1006,1250;5; 23,6; 23,6; 0,0; 0,0;247,5; 62,1
2020-02-19 04:01:59; 5,5; 66; -0,3; 980,1868;1005,7500;5; 23,6; 23,6; 0,0; 0,0;247,5; 62,1
2020-02-19 04:12:00; 5,5; 66; -0,3; 980,1868;1005,7500;5; 23,6; 23,6; 0,0; 0,0;247,5; 62,1
2020-02-19 04:21:59; 5,5; 66; -0,3; 979,8743;1005,4375;5; 23,6; 23,6; 0,0; 0,0;247,5; 62,1
2020-02-19 04:32:00; 5,5; 66; -0,3; 979,8743;1005,4375;5; 23,6; 23,6; 0,0; 0,0;247,5; 62,1
2020-02-19 04:42:00; 5,7; 65; -0,4; 979,6243;1005,1875;5; 23,6; 23,6; 0,0; 0,0;247,5; 62,1
2020-02-19 04:51:59; 5,6; 65; -0,5; 979,6243;1005,1875;5; 23,6; 23,6; 0,0; 0,0;247,5; 62,1
2020-02-19 05:02:00; 5,6; 65; -0,5; 979,4368;1005,0000;5; 23,6; 23,6; 0,0; 0,0;247,5; 62,1
2020-02-19 05:11:59; 5,6; 65; -0,5; 979,4368;1005,0000;5; 23,5; 23,5; 0,0; 0,0;247,5; 62,1
2020-02-19 05:22:00; 5,5; 66; -0,3; 979,2493;1004,8125;5; 23,6; 23,6; 0,0; 0,0;247,5; 62,1
2020-02-19 05:31:59; 5,5; 66; -0,3; 979,2493;1004,8125;5; 23,5; 23,5; 0,0; 0,0;247,5; 62,1
2020-02-19 05:42:00; 5,5; 66; -0,3; 979,0618;1004,6250;5; 23,6; 23,6; 0,0; 0,0;247,5; 62,1
2020-02-19 05:51:59; 5,5; 66; -0,3; 979,0618;1004,6250;5; 23,5; 23,5; 0,0; 0,0;247,5; 62,1
2020-02-19 06:02:00; 5,3; 66; -0,5; 978,7493;1004,3125;5; 23,5; 23,5; 0,0; 0,0;247,5; 62,1
2020-02-19 06:12:00; 5,3; 66; -0,5; 978,7493;1004,3125;5; 23,6; 23,6; 0,0; 0,0;247,5; 62,1
2020-02-19 06:21:59; 5,3; 67; -0,3; 978,3743;1003,9375;5; 23,5; 23,5; 0,0; 0,0;247,5; 62,1
2020-02-19 06:32:00; 5,2; 67; -0,4; 978,3743;1003,9375;5; 23,5; 23,5; 0,0; 0,0;247,5; 62,1
2020-02-19 06:41:59; 5,2; 67; -0,4; 978,2493;1003,8125;5; 23,6; 23,6; 0,0; 0,0;247,5; 62,1
2020-02-19 06:52:00; 5,5; 66; -0,3; 978,2493;1003,8125;5; 23,6; 23,6; 0,0; 0,0;247,5; 62,1
2020-02-19 07:01:59; 5,5; 66; -0,3; 977,9368;1003,5000;4; 23,6; 23,6; 0,0; 0,0;247,5; 62,1
2020-02-19 07:12:00; 5,7; 66; -0,2; 977,9368;1003,5000;4; 23,6; 23,6; 0,0; 0,0;247,5; 62,1
2020-02-19 07:21:59; 5,9; 65; -0,2; 977,6868;1003,2500;4; 23,6; 23,6; 0,0; 0,0;247,5; 62,1
2020-02-19 07:32:00; 6,0; 65; -0,1; 977,6868;1003,2500;4; 23,6; 23,6; 0,0; 0,0;247,5; 62,1
2020-02-19 07:42:00; 6,2; 64; -0,1; 977,8118;1003,3750;4; 23,6; 23,6; 0,0; 0,0;247,5; 62,1
2020-02-19 07:51:59; 6,3; 65; 0,2; 977,8118;1003,3750;4; 23,6; 23,6; 0,0; 0,0;247,5; 62,1
2020-02-19 08:02:00; 6,3; 65; 0,2; 977,6243;1003,1875;4; 23,6; 23,6; 0,0; 0,0;247,5; 62,1
2020-02-19 08:11:59; 6,5; 65; 0,4; 977,6243;1003,1875;4; 23,6; 23,6; 0,0; 0,0;247,5; 62,1
2020-02-19 08:22:00; 6,6; 65; 0,5; 977,4368;1003,0000;4; 23,6; 23,6; 0,0; 0,0;247,5; 62,1
2020-02-19 08:31:59; 6,7; 66; 0,8; 977,4368;1003,0000;4; 23,6; 23,6; 0,0; 0,0;247,5; 62,1
2020-02-19 08:42:00; 6,7; 67; 1,0; 977,1243;1002,6875;4; 23,6; 23,6; 0,0; 0,0;247,5; 62,1
2020-02-19 08:51:59; 6,8; 66; 0,9; 977,1243;1002,6875;4; 23,6; 23,6; 0,0; 0,0;247,5; 62,1
2020-02-19 09:02:00; 6,9; 66; 1,0; 977,1243;1002,6875;4; 23,6; 23,6; 0,0; 0,0;247,5; 62,1
2020-02-19 09:12:00; 6,9; 67; 1,2; 977,1243;1002,6875;4; 23,6; 23,6; 0,0; 0,0;247,5; 62,1
2020-02-19 09:21:59; 6,9; 70; 1,8; 977,3118;1002,8750;4; 23,6; 23,6; 0,0; 0,0;247,5; 62,1
2020-02-19 09:32:00; 6,8; 71; 1,9; 977,3118;1002,8750;4; 23,6; 23,6; 0,0; 0,0;247,5; 62,1
2020-02-19 09:41:59; 7,0; 71; 2,1; 976,8743;1002,4375;4; 23,7; 23,7; 0,0; 0,0;247,5; 62,1
2020-02-19 09:52:00; 7,0; 71; 2,1; 976,8743;1002,4375;4; 23,8; 23,8; 0,0; 0,0;247,5; 62,1
2020-02-19 10:01:59; 7,1; 71; 2,2; 977,2493;1002,8125;4; 23,8; 23,8; 0,0; 0,0;247,5; 62,1
2020-02-19 10:12:00; 7,2; 70; 2,1; 977,2493;1002,8125;4; 23,9; 23,9; 0,0; 0,0;247,5; 62,1
2020-02-19 10:21:59; 7,1; 70; 2,0; 977,4368;1003,0000;4; 23,9; 23,9; 0,0; 0,0;247,5; 62,1
2020-02-19 10:32:00; 7,1; 71; 2,2; 977,4368;1003,0000;4; 23,8; 23,8; 0,0; 0,0;247,5; 62,1
2020-02-19 10:42:00; 6,8; 72; 2,1; 977,5618;1003,1250;4; 23,8; 23,8; 0,0; 0,0;247,5; 62,1
2020-02-19 10:51:59; 6,5; 76; 2,6; 977,5618;1003,1250;4; 23,8; 23,8; 0,0; 0,0;247,5; 62,1
2020-02-19 11:02:00; 6,4; 76; 2,5; 977,7493;1003,3125;4; 23,8; 23,8; 0,0; 0,0;247,5; 62,1
2020-02-19 11:11:59; 5,0; 76; 1,1; 977,7493;1003,3125;4; 23,8; 23,8; 0,0; 0,0;247,5; 62,8
2020-02-19 11:22:00; 4,1; 80; 1,0; 978,5618;1004,1250;4; 23,7; 23,7; 0,0; 0,0;247,5; 62,8
2020-02-19 11:31:59; 3,9; 81; 0,9; 978,5618;1004,1250;4; 23,7; 23,7; 0,0; 0,0;247,5; 63,5
2020-02-19 11:42:00; 3,9; 82; 1,1; 978,6868;1004,2500;4; 23,7; 23,7; 0,0; 0,0;247,5; 63,5
2020-02-19 11:51:59; 4,0; 83; 1,4; 978,6868;1004,2500;4; 23,7; 23,7; 0,0; 0,0;247,5; 63,5
2020-02-19 12:02:00; 4,4; 82; 1,6; 978,8118;1004,3750;4; 23,8; 23,8; 0,0; 0,0;247,5; 63,5
2020-02-19 12:12:00; 4,7; 81; 1,7; 978,8118;1004,3750;4; 23,9; 23,9; 0,0; 0,0;247,5; 63,5
2020-02-19 12:21:59; 5,0; 79; 1,7; 979,4993;1005,0625;4; 23,9; 23,9; 0,0; 0,0;247,5; 63,5
2020-02-19 12:32:00; 5,2; 79; 1,9; 979,4993;1005,0625;4; 24,0; 24,0; 0,0; 0,0;247,5; 63,5
2020-02-19 12:41:59; 5,5; 77; 1,8; 979,1868;1004,7500;4; 24,1; 24,1; 0,0; 0,0;247,5; 63,5
2020-02-19 12:52:00; 5,5; 75; 1,4; 979,1868;1004,7500;4; 24,2; 24,2; 0,0; 0,0;247,5; 63,5
2020-02-19 13:01:59; 5,4; 75; 1,3; 979,6243;1005,1875;4; 24,2; 24,2; 0,0; 0,0;247,5; 63,5
2020-02-19 13:12:00; 5,8; 75; 1,7; 979,6243;1005,1875;4; 24,4; 24,4; 0,0; 0,0;247,5; 63,5
2020-02-19 13:21:59; 5,8; 74; 1,5; 979,6243;1005,1875;4; 24,4; 24,4; 0,0; 0,0;247,5; 63,5
2020-02-19 13:32:00; 5,5; 76; 1,6; 979,6243;1005,1875;4; 24,4; 24,4; 0,0; 0,0;247,5; 63,5
2020-02-19 13:42:00; 5,8; 75; 1,7; 980,0618;1005,6250;4; 24,3; 24,3; 0,0; 0,0;247,5; 63,5
2020-02-19 13:51:59; 6,0; 74; 1,7; 980,0618;1005,6250;4; 24,3; 24,3; 0,0; 0,0;247,5; 63,5
2020-02-19 14:02:00; 5,9; 74; 1,6; 980,0618;1005,6250;4; 24,4; 24,4; 0,0; 0,0;247,5; 63,5
2020-02-19 14:11:59; 6,1; 74; 1,8; 980,0618;1005,6250;4; 24,4; 24,4; 0,0; 0,0;247,5; 63,5
2020-02-19 14:22:00; 6,2; 73; 1,7; 979,9993;1005,5625;4; 24,4; 24,4; 0,0; 0,0;247,5; 63,5
2020-02-19 14:31:59; 6,3; 71; 1,4; 979,9993;1005,5625;4; 24,4; 24,4; 0,0; 0,0;247,5; 63,5
2020-02-19 14:42:00; 6,0; 70; 0,9; 980,3743;1005,9375;4; 24,3; 24,3; 0,0; 0,0;247,5; 63,5
2020-02-19 14:51:59; 6,0; 70; 0,9; 980,3743;1005,9375;4; 24,3; 24,3; 0,0; 0,0;247,5; 63,5
2020-02-19 15:02:00; 5,9; 70; 0,8; 980,4993;1006,0625;4; 24,3; 24,3; 0,0; 0,0;247,5; 63,5
2020-02-19 15:12:00; 5,7; 72; 1,0; 980,4993;1006,0625;4; 24,3; 24,3; 0,0; 0,0;247,5; 63,5
2020-02-19 15:21:59; 5,4; 72; 0,8; 981,2493;1006,8125;5; 24,2; 24,2; 0,0; 0,0;247,5; 63,5
2020-02-19 15:32:00; 5,3; 71; 0,5; 981,2493;1006,8125;5; 24,1; 24,1; 0,0; 0,0;247,5; 63,5
2020-02-19 15:41:59; 4,6; 73; 0,2; 981,6868;1007,2500;5; 24,0; 24,0; 0,0; 0,0;247,5; 63,5
2020-02-19 15:52:00; 4,5; 75; 0,5; 981,6868;1007,2500;5; 23,9; 23,9; 0,0; 0,0;247,5; 63,5
2020-02-19 16:01:59; 4,7; 74; 0,5; 981,1868;1006,7500;5; 23,9; 23,9; 0,0; 0,0;247,5; 63,5
2020-02-19 16:12:00; 4,7; 73; 0,3; 981,1868;1006,7500;5; 23,9; 23,9; 0,0; 0,0;247,5; 63,5
2020-02-19 16:21:59; 4,7; 73; 0,3; 981,6243;1007,1875;5; 23,9; 23,9; 0,0; 0,0;247,5; 63,5
2020-02-19 16:32:00; 4,7; 72; 0,1; 981,6243;1007,1875;5; 23,8; 23,8; 0,0; 0,0;247,5; 63,5
2020-02-19 16:42:00; 4,7; 73; 0,3; 981,8118;1007,3750;5; 23,8; 23,8; 0,0; 0,0;247,5; 63,5
2020-02-19 16:51:59; 4,9; 71; 0,1; 981,8118;1007,3750;5; 23,8; 23,8; 0,0; 0,0;247,5; 63,5
2020-02-19 17:02:00; 4,9; 70; -0,1; 982,1868;1007,7500;5; 23,8; 23,8; 0,0; 0,0;247,5; 63,5
2020-02-19 17:11:59; 4,8; 71; 0,0; 982,1868;1007,7500;5; 23,8; 23,8; 0,0; 0,0;247,5; 63,5
2020-02-19 17:22:00; 4,8; 71; 0,0; 982,2493;1007,8125;5; 23,8; 23,8; 0,0; 0,0;247,5; 63,5
2020-02-19 17:31:59; 4,9; 70; -0,1; 982,2493;1007,8125;5; 23,7; 23,7; 0,0; 0,0;247,5; 63,5
2020-02-19 17:42:00; 4,9; 70; -0,1; 982,5618;1008,1250;5; 23,7; 23,7; 0,0; 0,0;247,5; 63,5
2020-02-19 17:51:59; 4,9; 69; -0,3; 982,5618;1008,1250;5; 23,7; 23,7; 0,0; 0,0;247,5; 63,5
2020-02-19 18:02:00; 4,9; 69; -0,3; 982,7493;1008,3125;5; 23,7; 23,7; 0,0; 0,0;247,5; 63,5
2020-02-19 18:12:00; 4,6; 73; 0,2; 982,7493;1008,3125;5; 23,7; 23,7; 0,0; 0,0;247,5; 63,5
2020-02-19 18:21:59; 4,5; 73; 0,1; 983,1243;1008,6875;5; 23,7; 23,7; 0,0; 0,0;247,5; 63,5
2020-02-19 18:32:00; 4,6; 73; 0,2; 983,1243;1008,6875;5; 23,7; 23,7; 0,0; 0,0;247,5; 63,5
2020-02-19 18:41:59; 4,7; 71; -0,1; 983,2493;1008,8125;5; 23,7; 23,7; 0,0; 0,0;247,5; 63,5
2020-02-19 18:52:00; 4,8; 70; -0,2; 983,2493;1008,8125;5; 23,7; 23,7; 0,0; 0,0;247,5; 63,5
2020-02-19 19:01:59; 4,9; 69; -0,3; 983,4368;1009,0000;5; 23,6; 23,6; 0,0; 0,0;247,5; 63,5
2020-02-19 19:12:00; 4,9; 69; -0,3; 983,4368;1009,0000;5; 23,6; 23,6; 0,0; 0,0;247,5; 63,5
2020-02-19 19:21:59; 5,0; 68; -0,4; 983,7493;1009,3125;5; 23,6; 23,6; 0,0; 0,0;247,5; 63,5
2020-02-19 19:32:00; 5,0; 69; -0,2; 983,7493;1009,3125;5; 23,6; 23,6; 0,0; 0,0;247,5; 63,5
2020-02-19 19:42:00; 5,0; 69; -0,2; 983,7493;1009,3125;5; 23,6; 23,6; 0,0; 0,0;247,5; 63,5
2020-02-19 19:51:59; 5,0; 68; -0,4; 983,7493;1009,3125;5; 23,6; 23,6; 0,0; 0,0;247,5; 63,5
2020-02-19 20:02:00; 5,0; 68; -0,4; 983,9368;1009,5000;5; 23,6; 23,6; 0,0; 0,0;247,5; 63,5
2020-02-19 20:11:59; 5,0; 68; -0,4; 983,9368;1009,5000;5; 23,6; 23,6; 0,0; 0,0;247,5; 63,5
2020-02-19 20:22:00; 5,0; 67; -0,6; 984,1243;1009,6875;5; 23,6; 23,6; 0,0; 0,0;247,5; 63,5
2020-02-19 20:31:59; 4,9; 68; -0,5; 984,1243;1009,6875;5; 23,6; 23,6; 0,0; 0,0;247,5; 63,5
2020-02-19 20:42:00; 5,0; 68; -0,4; 984,3118;1009,8750;5; 23,6; 23,6; 0,0; 0,0;247,5; 63,5
2020-02-19 20:51:59; 4,9; 68; -0,5; 984,3118;1009,8750;5; 23,6; 23,6; 0,0; 0,0;247,5; 63,5
2020-02-19 21:02:00; 4,9; 68; -0,5; 984,2493;1009,8125;5; 23,6; 23,6; 0,0; 0,0;247,5; 63,5
2020-02-19 21:12:00; 4,9; 68; -0,5; 984,2493;1009,8125;5; 23,6; 23,6; 0,0; 0,0;247,5; 63,5
2020-02-19 21:21:59; 4,8; 68; -0,6; 984,1868;1009,7500;5; 23,6; 23,6; 0,0; 0,0;247,5; 63,5
2020-02-19 21:32:00; 4,8; 68; -0,6; 984,1868;1009,7500;5; 23,6; 23,6; 0,0; 0,0;247,5; 63,5
2020-02-19 21:41:59; 4,8; 67; -0,8; 984,1243;1009,6875;5; 23,6; 23,6; 0,0; 0,0;247,5; 63,5
2020-02-19 21:52:00; 4,7; 66; -1,1; 984,1243;1009,6875;5; 23,6; 23,6; 0,0; 0,0;247,5; 63,5
2020-02-19 22:01:59; 4,7; 65; -1,3; 984,3743;1009,9375;5; 23,6; 23,6; 0,0; 0,0;247,5; 63,5
2020-02-19 22:12:00; 4,7; 65; -1,3; 984,3743;1009,9375;5; 23,6; 23,6; 0,0; 0,0;247,5; 63,5
2020-02-19 22:21:59; 4,6; 66; -1,2; 984,4993;1010,0625;5; 23,6; 23,6; 0,0; 0,0;247,5; 63,5
2020-02-19 22:32:00; 4,5; 66; -1,3; 984,4993;1010,0625;5; 23,6; 23,6; 0,0; 0,0;247,5; 63,5
2020-02-19 22:42:00; 4,5; 66; -1,3; 984,6243;1010,1875;5; 23,6; 23,6; 0,0; 0,0;247,5; 63,5
2020-02-19 22:51:59; 4,6; 65; -1,4; 984,6243;1010,1875;5; 23,6; 23,6; 0,0; 0,0;247,5; 63,5
2020-02-19 23:02:00; 4,5; 66; -1,3; 984,6868;1010,2500;5; 23,6; 23,6; 0,0; 0,0;247,5; 63,5
2020-02-19 23:11:59; 4,5; 66; -1,3; 984,6868;1010,2500;5; 23,6; 23,6; 0,0; 0,0;247,5; 63,5
2020-02-19 23:22:00; 4,5; 66; -1,3; 984,8743;1010,4375;5; 23,6; 23,6; 0,0; 0,0;247,5; 63,5
2020-02-19 23:31:59; 4,5; 65; -1,5; 984,8743;1010,4375;5; 23,6; 23,6; 0,0; 0,0;247,5; 63,5
2020-02-19 23:42:00; 4,6; 65; -1,4; 984,8118;1010,3750;5; 23,6; 23,6; 0,0; 0,0;247,5; 63,5
2020-02-19 23:51:59; 4,6; 65; -1,4; 984,8118;1010,3750;5; 23,6; 23,6; 0,0; 0,0;247,5; 63,5
2020-02-20 00:02:00; 4,6; 64; -1,6; 984,8118;1010,3750;5; 23,6; 23,6; 0,0; 0,0;247,5; 63,5
2020-02-20 00:12:00; 4,5; 65; -1,5; 984,8118;1010,3750;5; 23,6; 23,6; 0,0; 0,0;247,5; 63,5
2020-02-20 00:21:59; 4,5; 65; -1,5; 984,9368;1010,5000;5; 23,6; 23,6; 0,0; 0,0;247,5; 63,5
2020-02-20 00:32:00; 4,5; 65; -1,5; 984,9368;1010,5000;5; 23,6; 23,6; 0,0; 0,0;247,5; 63,5
2020-02-20 00:41:59; 4,4; 65; -1,6; 985,2493;1010,8125;5; 23,6; 23,6; 0,0; 0,0;247,5; 63,5
2020-02-20 00:52:00; 4,4; 65; -1,6; 985,2493;1010,8125;5; 23,6; 23,6; 0,0; 0,0;247,5; 63,5
2020-02-20 01:01:59; 4,3; 66; -1,5; 985,3743;1010,9375;5; 23,6; 23,6; 0,0; 0,0;247,5; 63,5
2020-02-20 01:12:00; 4,3; 66; -1,5; 985,3743;1010,9375;5; 23,6; 23,6; 0,0; 0,0;247,5; 63,5
2020-02-20 01:21:59; 4,3; 66; -1,5; 985,4368;1011,0000;5; 23,6; 23,6; 0,0; 0,0;247,5; 63,5
2020-02-20 01:32:00; 4,2; 66; -1,6; 985,4368;1011,0000;5; 23,6; 23,6; 0,0; 0,0;247,5; 63,5
2020-02-20 01:42:00; 4,1; 66; -1,7; 985,6243;1011,1875;5; 23,6; 23,6; 0,0; 0,0;247,5; 63,5
2020-02-20 01:51:59; 4,1; 66; -1,7; 985,6243;1011,1875;5; 23,6; 23,6; 0,0; 0,0;247,5; 63,5
2020-02-20 02:02:00; 4,0; 66; -1,8; 985,3118;1010,8750;5; 23,6; 23,6; 0,0; 0,0;247,5; 63,5
2020-02-20 02:11:59; 3,8; 66; -2,0; 985,3118;1010,8750;5; 23,6; 23,6; 0,0; 0,0;247,5; 63,5
2020-02-20 02:22:00; 3,5; 66; -2,3; 985,3743;1010,9375;5; 23,6; 23,6; 0,0; 0,0;247,5; 63,5
2020-02-20 02:31:59; 3,4; 66; -2,3; 985,3743;1010,9375;5; 23,6; 23,6; 0,0; 0,0;247,5; 63,5
2020-02-20 02:42:00; 3,2; 66; -2,5; 985,2493;1010,8125;5; 23,6; 23,6; 0,0; 0,0;247,5; 63,5
2020-02-20 02:51:59; 2,9; 67; -2,6; 985,2493;1010,8125;5; 23,6; 23,6; 0,0; 0,0;247,5; 63,5
2020-02-20 03:02:00; 2,8; 67; -2,7; 985,3118;1010,8750;5; 23,5; 23,5; 0,0; 0,0;247,5; 63,5
2020-02-20 03:12:00; 2,6; 68; -2,7; 985,3118;1010,8750;5; 23,5; 23,5; 0,0; 0,0;247,5; 63,5
2020-02-20 03:21:59; 2,5; 68; -2,8; 985,1868;1010,7500;5; 23,6; 23,6; 0,0; 0,0;247,5; 63,5
2020-02-20 03:32:00; 2,4; 68; -2,9; 985,1868;1010,7500;5; 23,5; 23,5; 0,0; 0,0;247,5; 63,5
2020-02-20 03:41:59; 2,3; 68; -3,0; 985,2493;1010,8125;5; 23,6; 23,6; 0,0; 0,0;247,5; 63,5
2020-02-20 03:52:00; 2,3; 69; -2,8; 985,2493;1010,8125;5; 23,5; 23,5; 0,0; 0,0;247,5; 63,5
2020-02-20 04:01:59; 2,3; 69; -2,8; 985,3743;1010,9375;5; 23,5; 23,5; 0,0; 0,0;247,5; 63,5
2020-02-20 04:12:00; 2,4; 69; -2,7; 985,3743;1010,9375;5; 23,6; 23,6; 0,0; 0,0;247,5; 63,5
2020-02-20 04:21:59; 2,3; 70; -2,6; 985,3118;1010,8750;5; 23,5; 23,5; 0,0; 0,0;247,5; 63,5
2020-02-20 04:32:00; 2,3; 70; -2,6; 985,3118;1010,8750;5; 23,5; 23,5; 0,0; 0,0;247,5; 63,5
2020-02-20 04:42:00; 2,2; 70; -2,7; 985,2493;1010,8125;5; 23,6; 23,6; 0,0; 0,0;247,5; 63,5
2020-02-20 04:51:59; 2,1; 70; -2,8; 985,2493;1010,8125;5; 23,5; 23,5; 0,0; 0,0;247,5; 63,5
2020-02-20 05:02:00; 2,1; 70; -2,8; 985,1243;1010,6875;5; 23,5; 23,5; 0,0; 0,0;247,5; 63,5
2020-02-20 05:11:59; 2,0; 71; -2,7; 985,1243;1010,6875;5; 23,6; 23,6; 0,0; 0,0;247,5; 63,5
2020-02-20 05:22:00; 1,9; 71; -2,8; 984,9993;1010,5625;5; 23,5; 23,5; 0,0; 0,0;247,5; 63,5
2020-02-20 05:31:59; 1,9; 72; -2,6; 984,9993;1010,5625;5; 23,6; 23,6; 0,0; 0,0;247,5; 63,5
2020-02-20 05:42:00; 1,8; 72; -2,7; 984,8743;1010,4375;5; 23,5; 23,5; 0,0; 0,0;247,5; 63,5
2020-02-20 05:51:59; 1,7; 72; -2,8; 984,8743;1010,4375;5; 23,5; 23,5; 0,0; 0,0;247,5; 63,5
2020-02-20 06:02:00; 1,7; 72; -2,8; 984,6868;1010,2500;5; 23,6; 23,6; 0,0; 0,0;247,5; 63,5
2020-02-20 06:12:00; 1,7; 72; -2,8; 984,6868;1010,2500;5; 23,5; 23,5; 0,0; 0,0;247,5; 63,5
2020-02-20 06:21:59; 1,7; 73; -2,6; 984,7493;1010,3125;5; 23,5; 23,5; 0,0; 0,0;247,5; 63,5
2020-02-20 06:32:00; 1,8; 73; -2,5; 984,7493;1010,3125;5; 23,6; 23,6; 0,0; 0,0;247,5; 63,5
2020-02-20 06:41:59; 2,0; 72; -2,5; 984,6243;1010,1875;5; 23,5; 23,5; 0,0; 0,0;247,5; 63,5
2020-02-20 06:52:00; 2,3; 72; -2,2; 984,6243;1010,1875;5; 23,6; 23,6; 0,0; 0,0;247,5; 63,5
2020-02-20 07:01:59; 2,6; 72; -1,9; 984,6243;1010,1875;5; 23,6; 23,6; 0,0; 0,0;247,5; 63,5
2020-02-20 07:12:00; 2,9; 71; -1,8; 984,6243;1010,1875;5; 23,6; 23,6; 0,0; 0,0;247,5; 63,5
2020-02-20 07:21:59; 3,0; 71; -1,7; 984,8743;1010,4375;5; 23,6; 23,6; 0,0; 0,0;247,5; 63,5
2020-02-20 07:32:00; 3,2; 72; -1,4; 984,8743;1010,4375;5; 23,6; 23,6; 0,0; 0,0;247,5; 63,5
2020-02-20 07:42:00; 3,6; 72; -1,0; 984,9368;1010,5000;5; 23,6; 23,6; 0,0; 0,0;247,5; 63,5
2020-02-20 07:51:59; 3,9; 72; -0,7; 984,9368;1010,5000;5; 23,7; 23,7; 0,0; 0,0;247,5; 63,5
2020-02-20 08:02:00; 4,2; 71; -0,6; 984,9993;1010,5625;5; 23,7; 23,7; 0,0; 0,0;247,5; 63,5
2020-02-20 08:11:59; 4,4; 71; -0,4; 984,9993;1010,5625;5; 23,7; 23,7; 0,0; 0,0;247,5; 63,5
2020-02-20 08:22:00; 4,6; 71; -0,2; 985,1868;1010,7500;5; 23,7; 23,7; 0,0; 0,0;247,5; 63,5
2020-02-20 08:31:59; 4,9; 71; 0,1; 985,1868;1010,7500;5; 23,7; 23,7; 0,0; 0,0;247,5; 63,5
2020-02-20 08:42:00; 5,1; 71; 0,3; 985,1243;1010,6875;5; 23,7; 23,7; 0,0; 0,0;247,5; 63,5
2020-02-20 08:51:59; 5,4; 70; 0,4; 985,1243;1010,6875;5; 23,8; 23,8; 0,0; 0,0;247,5; 63,5
2020-02-20 09:02:00; 5,5; 69; 0,3; 984,9993;1010,5625;5; 23,8; 23,8; 0,0; 0,0;247,5; 63,5
2020-02-20 09:12:00; 5,7; 69; 0,5; 984,9993;1010,5625;5; 23,8; 23,8; 0,0; 0,0;247,5; 63,5
2020-02-20 09:21:59; 5,9; 70; 0,8; 984,8743;1010,4375;5; 23,8; 23,8; 0,0; 0,0;247,5; 63,5
2020-02-20 09:32:00; 6,1; 69; 0,8; 984,8743;1010,4375;5; 23,8; 23,8; 0,0; 0,0;247,5; 63,5
2020-02-20 09:41:59; 6,4; 69; 1,1; 984,8743;1010,4375;5; 23,8; 23,8; 0,0; 0,0;247,5; 63,5
2020-02-20 09:52:00; 6,8; 68; 1,3; 984,8743;1010,4375;5; 24,0; 24,0; 0,0; 0,0;247,5; 63,5
2020-02-20 10:01:59; 7,2; 68; 1,7; 984,8118;1010,3750;5; 24,2; 24,2; 0,0; 0,0;247,5; 63,5
2020-02-20 10:12:00; 8,2; 66; 2,2; 984,8118;1010,3750;5; 24,6; 24,6; 0,0; 0,0;247,5; 63,5
2020-02-20 10:21:59; 9,1; 65; 2,9; 984,9368;1010,5000;5; 25,1; 25,1; 0,0; 0,0;247,5; 63,5
2020-02-20 10:32:00; 8,9; 63; 2,2; 984,9368;1010,5000;5; 25,2; 25,2; 0,0; 0,0;247,5; 63,5
2020-02-20 10:42:00; 8,6; 64; 2,2; 984,9368;1010,5000;5; 24,9; 24,9; 0,0; 0,0;247,5; 63,5
2020-02-20 10:51:59; 8,5; 64; 2,1; 984,9368;1010,5000;5; 24,7; 24,7; 0,0; 0,0;247,5; 63,5
2020-02-20 11:02:00; 8,3; 65; 2,1; 984,8743;1010,4375;5; 24,5; 24,5; 0,0; 0,0;247,5; 63,5
2020-02-20 11:11:59; 8,3; 65; 2,1; 984,8743;1010,4375;5; 24,4; 24,4; 0,0; 0,0;247,5; 63,5
2020-02-20 11:22:00; 8,3; 65; 2,1; 984,7493;1010,3125;5; 24,3; 24,3; 0,0; 0,0;247,5; 63,5
2020-02-20 11:31:59; 8,3; 66; 2,3; 984,7493;1010,3125;5; 24,2; 24,2; 0,0; 0,0;247,5; 63,5
2020-02-20 11:42:00; 8,3; 66; 2,3; 984,2493;1009,8125;5; 24,1; 24,1; 0,0; 0,0;247,5; 63,5
2020-02-20 11:51:59; 8,4; 66; 2,4; 984,2493;1009,8125;5; 24,0; 24,0; 0,0; 0,0;247,5; 63,5
2020-02-20 12:02:00; 8,6; 66; 2,6; 984,0618;1009,6250;5; 24,0; 24,0; 0,0; 0,0;247,5; 63,5
2020-02-20 12:12:00; 8,6; 66; 2,6; 984,0618;1009,6250;5; 24,0; 24,0; 0,0; 0,0;247,5; 63,5
2020-02-20 12:21:59; 8,1; 69; 2,8; 984,7493;1010,3125;5; 24,0; 24,0; 0,0; 0,0;247,5; 63,5
2020-02-20 12:32:00; 7,9; 71; 3,0; 984,7493;1010,3125;5; 24,0; 24,0; 0,0; 0,0;247,5; 63,5
2020-02-20 12:41:59; 7,9; 72; 3,2; 983,9993;1009,5625;5; 23,9; 23,9; 0,0; 0,0;247,5; 63,5
2020-02-20 12:52:00; 8,0; 72; 3,3; 983,9993;1009,5625;5; 23,9; 23,9; 0,0; 0,0;247,5; 63,5
2020-02-20 13:01:59; 8,2; 72; 3,5; 983,6243;1009,1875;5; 23,9; 23,9; 0,0; 0,0;247,5; 63,5
2020-02-20 13:12:00; 8,3; 71; 3,4; 983,6243;1009,1875;5; 23,9; 23,9; 0,0; 0,0;247,5; 63,5
2020-02-20 13:21:59; 8,3; 72; 3,5; 983,3118;1008,8750;5; 23,9; 23,9; 0,0; 0,0;247,5; 63,5
2020-02-20 13:32:00; 8,4; 72; 3,6; 983,3118;1008,8750;5; 23,9; 23,9; 0,0; 0,0;247,5; 63,5
2020-02-20 13:42:00; 8,6; 73; 4,0; 983,1868;1008,7500;5; 23,9; 23,9; 0,0; 0,0;247,5; 63,5
2020-02-20 13:51:59; 8,6; 73; 4,0; 983,1868;1008,7500;5; 23,9; 23,9; 0,0; 0,0;247,5; 63,5
2020-02-20 14:02:00; 8,6; 73; 4,0; 982,7493;1008,3125;5; 23,9; 23,9; 0,0; 0,0;247,5; 63,5
2020-02-20 14:11:59; 8,4; 73; 3,8; 982,7493;1008,3125;5; 23,9; 23,9; 0,0; 0,0;247,5; 63,5
2020-02-20 14:22:00; 8,4; 74; 4,0; 982,5618;1008,1250;5; 23,9; 23,9; 0,0; 0,0;247,5; 63,5
2020-02-20 14:31:59; 8,3; 74; 3,9; 982,5618;1008,1250;5; 23,8; 23,8; 0,0; 0,0;247,5; 63,5
2020-02-20 14:42:00; 8,3; 74; 3,9; 982,4368;1008,0000;5; 23,8; 23,8; 0,0; 0,0;247,5; 63,5
2020-02-20 14:51:59; 8,3; 74; 3,9; 982,4368;1008,0000;5; 23,8; 23,8; 0,0; 0,0;247,5; 63,5
2020-02-20 15:02:00; 8,4; 75; 4,2; 982,1868;1007,7500;5; 23,8; 23,8; 0,0; 0,0;247,5; 63,5
2020-02-20 15:12:00; 8,3; 74; 3,9; 982,1868;1007,7500;5; 23,8; 23,8; 0,0; 0,0;247,5; 63,5
2020-02-20 15:21:59; 8,3; 72; 3,5; 982,1243;1007,6875;5; 23,8; 23,8; 0,0; 0,0;247,5; 63,5
2020-02-20 15:32:00; 8,3; 72; 3,5; 982,1243;1007,6875;5; 23,8; 23,8; 0,0; 0,0;247,5; 63,5
2020-02-20 15:41:59; 8,3; 71; 3,4; 981,9368;1007,5000;5; 23,8; 23,8; 0,0; 0,0;247,5; 63,5
2020-02-20 15:52:00; 8,1; 71; 3,2; 981,9368;1007,5000;5; 23,8; 23,8; 0,0; 0,0;247,5; 63,5
2020-02-20 16:01:59; 8,1; 71; 3,2; 981,6243;1007,1875;5; 23,7; 23,7; 0,0; 0,0;247,5; 63,5
2020-02-20 16:12:00; 8,0; 70; 2,9; 981,6243;1007,1875;5; 23,7; 23,7; 0,0; 0,0;247,5; 63,5
2020-02-20 16:21:59; 7,9; 69; 2,6; 981,5618;1007,1250;5; 23,7; 23,7; 0,0; 0,0;247,5; 63,5
2020-02-20 16:32:00; 7,7; 69; 2,4; 981,5618;1007,1250;5; 23,7; 23,7; 0,0; 0,0;247,5; 63,5
2020-02-20 16:42:00; 7,6; 69; 2,3; 981,2493;1006,8125;5; 23,6; 23,6; 0,0; 0,0;247,5; 63,5
2020-02-20 16:51:59; 7,4; 69; 2,1; 981,2493;1006,8125;5; 23,6; 23,6; 0,0; 0,0;247,5; 63,5
2020-02-20 17:02:00; 7,3; 69; 2,0; 980,9368;1006,5000;5; 23,6; 23,6; 0,0; 0,0;247,5; 63,5
2020-02-20 17:11:59; 7,2; 69; 1,9; 980,9368;1006,5000;5; 23,6; 23,6; 0,0; 0,0;247,5; 63,5
2020-02-20 17:22:00; 7,1; 69; 1,8; 980,9368;1006,5000;5; 23,6; 23,6; 0,0; 0,0;247,5; 63,5
2020-02-20 17:31:59; 7,0; 69; 1,7; 980,9368;1006,5000;5; 23,6; 23,6; 0,0; 0,0;247,5; 63,5
2020-02-20 17:42:00; 6,9; 69; 1,6; 980,7493;1006,3125;5; 23,6; 23,6; 0,0; 0,0;247,5; 63,5
2020-02-20 17:51:59; 6,9; 69; 1,6; 980,7493;1006,3125;5; 23,6; 23,6; 0,0; 0,0;247,5; 63,5
2020-02-20 18:02:00; 6,7; 70; 1,6; 980,6243;1006,1875;5; 23,6; 23,6; 0,0; 0,0;247,5; 63,5
2020-02-20 18:12:00; 6,5; 70; 1,4; 980,6243;1006,1875;5; 23,6; 23,6; 0,0; 0,0;247,5; 63,5
2020-02-20 18:21:59; 6,3; 71; 1,4; 980,4993;1006,0625;5; 23,6; 23,6; 0,0; 0,0;247,5; 63,5
2020-02-20 18:32:00; 6,3; 71; 1,4; 980,4993;1006,0625;5; 23,6; 23,6; 0,0; 0,0;247,5; 63,5
2020-02-20 18:41:59; 6,2; 72; 1,5; 980,4993;1006,0625;5; 23,6; 23,6; 0,0; 0,0;247,5; 63,5
2020-02-20 18:52:00; 6,2; 71; 1,3; 980,4993;1006,0625;5; 23,6; 23,6; 0,0; 0,0;247,5; 63,5
2020-02-20 19:01:59; 6,3; 71; 1,4; 980,2493;1005,8125;5; 23,6; 23,6; 0,0; 0,0;247,5; 63,5
2020-02-20 19:12:00; 6,3; 71; 1,4; 980,2493;1005,8125;5; 23,5; 23,5; 0,0; 0,0;247,5; 63,5
2020-02-20 19:21:59; 6,3; 70; 1,2; 980,0618;1005,6250;5; 23,5; 23,5; 0,0; 0,0;247,5; 63,5
2020-02-20 19:32:00; 6,4; 70; 1,3; 980,0618;1005,6250;5; 23,5; 23,5; 0,0; 0,0;247,5; 63,5
2020-02-20 19:42:00; 6,5; 70; 1,4; 979,8743;1005,4375;5; 23,5; 23,5; 0,0; 0,0;247,5; 63,5
2020-02-20 19:51:59; 6,5; 70; 1,4; 979,8743;1005,4375;5; 23,6; 23,6; 0,0; 0,0;247,5; 63,5
2020-02-20 20:02:00; 6,6; 70; 1,5; 979,7493;1005,3125;5; 23,5; 23,5; 0,0; 0,0;247,5; 63,5
2020-02-20 20:11:59; 6,7; 70; 1,6; 979,7493;1005,3125;5; 23,6; 23,6; 0,0; 0,0;247,5; 63,5
2020-02-20 20:22:00; 6,6; 70; 1,5; 979,3118;1004,8750;5; 23,5; 23,5; 0,0; 0,0;247,5; 63,5
2020-02-20 20:31:59; 6,6; 70; 1,5; 979,3118;1004,8750;5; 23,5; 23,5; 0,0; 0,0;247,5; 63,5
2020-02-20 20:42:00; 6,6; 70; 1,5; 979,0618;1004,6250;5; 23,6; 23,6; 0,0; 0,0;247,5; 63,5
2020-02-20 20:51:59; 6,6; 70; 1,5; 979,0618;1004,6250;5; 23,5; 23,5; 0,0; 0,0;247,5; 63,5
2020-02-20 21:02:00; 6,6; 70; 1,5; 978,8118;1004,3750;5; 23,5; 23,5; 0,0; 0,0;247,5; 63,5
2020-02-20 21:12:00; 6,5; 70; 1,4; 978,8118;1004,3750;5; 23,6; 23,6; 0,0; 0,0;247,5; 63,5
2020-02-20 21:21:59; 6,5; 70; 1,4; 978,5618;1004,1250;5; 23,5; 23,5; 0,0; 0,0;247,5; 63,5
2020-02-20 21:32:00; 6,5; 70; 1,4; 978,5618;1004,1250;5; 23,6; 23,6; 0,0; 0,0;247,5; 63,5
2020-02-20 21:41:59; 6,5; 70; 1,4; 977,8118;1003,3750;4; 23,6; 23,6; 0,0; 0,0;247,5; 63,5
2020-02-20 21:52:00; 6,6; 69; 1,3; 977,8118;1003,3750;4; 23,5; 23,5; 0,0; 0,0;247,5; 63,5
2020-02-20 22:01:59; 6,6; 69; 1,3; 977,5618;1003,1250;4; 23,6; 23,6; 0,0; 0,0;247,5; 63,5
2020-02-20 22:12:00; 6,7; 69; 1,4; 977,5618;1003,1250;4; 23,5; 23,5; 0,0; 0,0;247,5; 63,5
2020-02-20 22:21:59; 7,0; 67; 1,3; 977,4993;1003,0625;4; 23,5; 23,5; 0,0; 0,0;247,5; 63,5
2020-02-20 22:32:00; 7,1; 66; 1,2; 977,4993;1003,0625;4; 23,6; 23,6; 0,0; 0,0;247,5; 63,5
2020-02-20 22:42:00; 7,2; 67; 1,5; 977,3743;1002,9375;4; 23,5; 23,5; 0,0; 0,0;247,5; 63,5
2020-02-20 22:51:59; 7,2; 67; 1,5; 977,3743;1002,9375;4; 23,5; 23,5; 0,0; 0,0;247,5; 63,5
2020-02-20 23:02:00; 7,3; 66; 1,4; 976,4993;1002,0625;4; 23,5; 23,5; 0,0; 0,0;247,5; 63,5
2020-02-20 23:11:59; 7,4; 66; 1,5; 976,4993;1002,0625;4; 23,5; 23,5; 0,0; 0,0;247,5; 63,5
2020-02-20 23:22:00; 7,5; 65; 1,3; 976,3743;1001,9375;4; 23,5; 23,5; 0,0; 0,0;247,5; 63,5
2020-02-20 23:31:59; 7,5; 66; 1,6; 976,3743;1001,9375;4; 23,6; 23,6; 0,0; 0,0;247,5; 63,5
2020-02-20 23:42:00; 7,6; 65; 1,4; 976,1243;1001,6875;4; 23,5; 23,5; 0,0; 0,0;247,5; 63,5
2020-02-20 23:51:59; 7,6; 65; 1,4; 976,1243;1001,6875;4; 23,5; 23,5; 0,0; 0,0;247,5; 63,5
2020-02-21 00:02:00; 7,7; 64; 1,3; 975,5618;1001,1250;4; 23,5; 23,5; 0,0; 0,0;247,5; 63,5
2020-02-21 00:12:00; 7,9; 63; 1,3; 975,5618;1001,1250;4; 23,5; 23,5; 0,0; 0,0;247,5; 63,5
2020-02-21 00:21:59; 7,9; 66; 1,9; 975,4368;1001,0000;4; 23,5; 23,5; 0,0; 0,0;247,5; 63,5
2020-02-21 00:32:00; 7,6; 69; 2,3; 975,4368;1001,0000;4; 23,5; 23,5; 0,0; 0,0;247,5; 63,5
2020-02-21 00:41:59; 7,3; 73; 2,8; 975,5618;1001,1250;4; 23,4; 23,4; 0,0; 0,0;247,5; 63,5
2020-02-21 00:52:00; 7,1; 76; 3,2; 975,5618;1001,1250;4; 23,4; 23,4; 0,0; 0,0;247,5; 63,5
2020-02-21 01:01:59; 6,8; 78; 3,2; 975,6243;1001,1875;4; 23,4; 23,4; 0,0; 0,0;247,5; 63,5
2020-02-21 01:12:00; 6,7; 79; 3,3; 975,6243;1001,1875;4; 23,4; 23,4; 0,0; 0,0;247,5; 64,2
2020-02-21 01:21:59; 6,7; 78; 3,1; 975,3743;1000,9375;4; 23,4; 23,4; 0,0; 0,0;247,5; 64,2
2020-02-21 01:32:00; 6,7; 79; 3,3; 975,3743;1000,9375;4; 23,4; 23,4; 0,0; 0,0;247,5; 64,2
2020-02-21 01:42:00; 6,7; 79; 3,3; 975,6868;1001,2500;4; 23,4; 23,4; 0,0; 0,0;247,5; 64,2
2020-02-21 01:51:59; 6,5; 79; 3,1; 975,6868;1001,2500;4; 23,4; 23,4; 0,0; 0,0;247,5; 64,9
2020-02-21 02:02:00; 6,4; 80; 3,2; 975,9368;1001,5000;4; 23,4; 23,4; 0,0; 0,0;247,5; 64,9
2020-02-21 02:11:59; 6,2; 80; 3,0; 975,9368;1001,5000;4; 23,4; 23,4; 0,0; 0,0;247,5; 64,9
2020-02-21 02:22:00; 6,0; 79; 2,6; 976,3118;1001,8750;4; 23,4; 23,4; 0,0; 0,0;247,5; 65,6
2020-02-21 02:31:59; 5,8; 80; 2,6; 976,3118;1001,8750;4; 23,4; 23,4; 0,0; 0,0;247,5; 65,6
2020-02-21 02:42:00; 5,6; 81; 2,6; 976,6243;1002,1875;4; 23,4; 23,4; 0,0; 0,0;247,5; 65,6
2020-02-21 02:51:59; 5,5; 81; 2,5; 976,6243;1002,1875;4; 23,4; 23,4; 0,0; 0,0;247,5; 65,6
2020-02-21 03:02:00; 5,5; 81; 2,5; 976,9993;1002,5625;4; 23,4; 23,4; 0,0; 0,0;247,5; 65,6
2020-02-21 03:12:00; 5,5; 82; 2,7; 976,9993;1002,5625;4; 23,4; 23,4; 0,0; 0,0;247,5; 65,6
2020-02-21 03:21:59; 5,0; 81; 2,0; 977,9368;1003,5000;4; 23,4; 23,4; 0,0; 0,0;247,5; 66,3
2020-02-21 03:32:00; 4,8; 81; 1,8; 977,9368;1003,5000;4; 23,4; 23,4; 0,0; 0,0;247,5; 66,3
2020-02-21 03:41:59; 4,8; 81; 1,8; 978,4993;1004,0625;4; 23,4; 23,4; 0,0; 0,0;247,5; 66,3
2020-02-21 03:52:00; 4,7; 82; 1,9; 978,4993;1004,0625;4; 23,4; 23,4; 0,0; 0,0;247,5; 66,3
2020-02-21 04:01:59; 4,7; 83; 2,1; 979,2493;1004,8125;4; 23,4; 23,4; 0,0; 0,0;247,5; 66,3
2020-02-21 04:12:00; 4,5; 82; 1,7; 979,2493;1004,8125;4; 23,4; 23,4; 0,0; 0,0;247,5; 66,3
2020-02-21 04:21:59; 4,2; 81; 1,2; 979,7493;1005,3125;4; 23,4; 23,4; 0,0; 0,0;247,5; 66,3
2020-02-21 04:32:00; 4,2; 79; 0,9; 979,7493;1005,3125;4; 23,4; 23,4; 0,0; 0,0;247,5; 66,3
2020-02-21 04:42:00; 4,1; 80; 1,0; 980,6243;1006,1875;4; 23,4; 23,4; 0,0; 0,0;247,5; 66,3
2020-02-21 04:51:59; 4,1; 79; 0,8; 980,6243;1006,1875;4; 23,4; 23,4; 0,0; 0,0;247,5; 66,3
2020-02-21 05:02:00; 4,1; 79; 0,8; 981,4993;1007,0625;5; 23,4; 23,4; 0,0; 0,0;247,5; 66,3
2020-02-21 05:11:59; 4,1; 78; 0,6; 981,4993;1007,0625;5; 23,4; 23,4; 0,0; 0,0;247,5; 66,3
2020-02-21 05:22:00; 4,2; 77; 0,5; 982,1243;1007,6875;6; 23,4; 23,4; 0,0; 0,0;247,5; 66,3
2020-02-21 05:31:59; 4,1; 78; 0,6; 982,1243;1007,6875;6; 23,4; 23,4; 0,0; 0,0;247,5; 66,3
2020-02-21 05:42:00; 4,0; 78; 0,5; 982,4993;1008,0625;6; 23,4; 23,4; 0,0; 0,0;247,5; 66,3
2020-02-21 05:51:59; 3,9; 80; 0,8; 982,4993;1008,0625;6; 23,4; 23,4; 0,0; 0,0;247,5; 66,3
2020-02-21 06:02:00; 3,9; 80; 0,8; 982,9368;1008,5000;6; 23,4; 23,4; 0,0; 0,0;247,5; 66,3
2020-02-21 06:12:00; 3,9; 78; 0,4; 982,9368;1008,5000;6; 23,4; 23,4; 0,0; 0,0;247,5; 66,3
2020-02-21 06:21:59; 3,9; 76; 0,1; 983,3118;1008,8750;6; 23,4; 23,4; 0,0; 0,0;247,5; 66,3
2020-02-21 06:32:00; 3,8; 76; 0,0; 983,3118;1008,8750;6; 23,4; 23,4; 0,0; 0,0;247,5; 66,3
2020-02-21 06:41:59; 3,6; 76; -0,2; 983,7493;1009,3125;6; 23,4; 23,4; 0,0; 0,0;247,5; 66,3
2020-02-21 06:52:00; 3,5; 76; -0,3; 983,7493;1009,3125;6; 23,4; 23,4; 0,0; 0,0;247,5; 66,3
2020-02-21 07:01:59; 3,4; 76; -0,4; 983,9368;1009,5000;6; 23,4; 23,4; 0,0; 0,0;247,5; 66,3
2020-02-21 07:12:00; 3,5; 76; -0,3; 983,9368;1009,5000;6; 23,4; 23,4; 0,0; 0,0;247,5; 66,3
2020-02-21 07:21:59; 3,5; 76; -0,3; 984,4993;1010,0625;6; 23,4; 23,4; 0,0; 0,0;247,5; 66,3
2020-02-21 07:32:00; 3,6; 75; -0,4; 984,4993;1010,0625;6; 23,4; 23,4; 0,0; 0,0;247,5; 66,3
2020-02-21 07:42:00; 3,7; 75; -0,3; 985,0618;1010,6250;6; 23,4; 23,4; 0,0; 0,0;247,5; 66,3
2020-02-21 07:51:59; 3,8; 74; -0,4; 985,0618;1010,6250;6; 23,4; 23,4; 0,0; 0,0;247,5; 66,3
2020-02-21 08:02:00; 4,0; 73; -0,4; 985,2493;1010,8125;6; 23,4; 23,4; 0,0; 0,0;247,5; 66,3
2020-02-21 08:11:59; 4,1; 73; -0,3; 985,2493;1010,8125;6; 23,4; 23,4; 0,0; 0,0;247,5; 66,3
2020-02-21 08:22:00; 4,2; 72; -0,4; 985,6243;1011,1875;6; 23,4; 23,4; 0,0; 0,0;247,5; 66,3
2020-02-21 08:31:59; 4,4; 72; -0,2; 985,6243;1011,1875;6; 23,4; 23,4; 0,0; 0,0;247,5; 66,3
2020-02-21 08:42:00; 4,4; 70; -0,6; 985,7493;1011,3125;6; 23,4; 23,4; 0,0; 0,0;247,5; 66,3
2020-02-21 08:51:59; 4,6; 70; -0,4; 985,7493;1011,3125;6; 23,4; 23,4; 0,0; 0,0;247,5; 66,3
2020-02-21 09:02:00; 4,7; 68; -0,7; 986,0618;1011,6250;6; 23,4; 23,4; 0,0; 0,0;247,5; 66,3
2020-02-21 09:12:00; 4,6; 69; -0,6; 986,0618;1011,6250;6; 23,4; 23,4; 0,0; 0,0;247,5; 66,3
2020-02-21 09:21:59; 4,7; 68; -0,7; 986,3743;1011,9375;6; 23,4; 23,4; 0,0; 0,0;247,5; 66,3
2020-02-21 09:32:00; 4,8; 68; -0,6; 986,3743;1011,9375;6; 23,5; 23,5; 0,0; 0,0;247,5; 66,3
2020-02-21 09:41:59; 5,0; 67; -0,6; 986,6868;1012,2500;6; 23,5; 23,5; 0,0; 0,0;247,5; 66,3
2020-02-21 09:52:00; 5,2; 66; -0,6; 986,6868;1012,2500;6; 23,5; 23,5; 0,0; 0,0;247,5; 66,3
2020-02-21 10:01:59; 5,5; 66; -0,3; 986,8118;1012,3750;6; 23,6; 23,6; 0,0; 0,0;247,5; 66,3
2020-02-21 10:12:00; 5,8; 65; -0,3; 986,8118;1012,3750;6; 23,7; 23,7; 0,0; 0,0;247,5; 66,3
2020-02-21 10:21:59; 6,0; 64; -0,3; 987,1243;1012,6875;5; 23,8; 23,8; 0,0; 0,0;247,5; 66,3
2020-02-21 10:32:00; 6,1; 64; -0,2; 987,1243;1012,6875;5; 23,8; 23,8; 0,0; 0,0;247,5; 66,3
2020-02-21 10:42:00; 6,3; 63; -0,2; 987,4993;1013,0625;5; 23,8; 23,8; 0,0; 0,0;247,5; 66,3
2020-02-21 10:51:59; 6,4; 63; -0,1; 987,4993;1013,0625;5; 23,9; 23,9; 0,0; 0,0;247,5; 66,3
2020-02-21 11:02:00; 6,5; 61; -0,5; 987,8118;1013,3750;5; 23,9; 23,9; 0,0; 0,0;247,5; 66,3
2020-02-21 11:11:59; 6,3; 62; -0,4; 987,8118;1013,3750;5; 23,9; 23,9; 0,0; 0,0;247,5; 66,3
2020-02-21 11:22:00; 6,3; 61; -0,7; 987,9993;1013,5625;5; 23,8; 23,8; 0,0; 0,0;247,5; 66,3
2020-02-21 11:31:59; 6,2; 61; -0,8; 987,9993;1013,5625;5; 23,8; 23,8; 0,0; 0,0;247,5; 66,3
2020-02-21 11:42:00; 6,2; 61; -0,8; 988,0618;1013,6250;5; 23,7; 23,7; 0,0; 0,0;247,5; 66,3
2020-02-21 11:51:59; 6,3; 59; -1,1; 988,0618;1013,6250;5; 23,7; 23,7; 0,0; 0,0;247,5; 66,3
2020-02-21 12:02:00; 6,3; 59; -1,1; 988,1868;1013,7500;5; 23,6; 23,6; 0,0; 0,0;247,5; 66,3
2020-02-21 12:12:00; 6,2; 59; -1,2; 988,1868;1013,7500;5; 23,6; 23,6; 0,0; 0,0;247,5; 66,3
2020-02-21 12:21:59; 6,3; 59; -1,1; 987,6868;1013,2500;5; 23,6; 23,6; 0,0; 0,0;247,5; 66,3
2020-02-21 12:32:00; 6,3; 59; -1,1; 987,6868;1013,2500;5; 23,6; 23,6; 0,0; 0,0;247,5; 66,3
2020-02-21 12:41:59; 6,4; 60; -0,8; 988,1868;1013,7500;5; 23,6; 23,6; 0,0; 0,0;247,5; 66,3
2020-02-21 12:52:00; 6,6; 60; -0,6; 988,1868;1013,7500;5; 23,6; 23,6; 0,0; 0,0;247,5; 66,3
2020-02-21 13:01:59; 6,7; 59; -0,7; 988,1243;1013,6875;5; 23,7; 23,7; 0,0; 0,0;247,5; 66,3
2020-02-21 13:12:00; 6,9; 59; -0,6; 988,1243;1013,6875;5; 23,8; 23,8; 0,0; 0,0;247,5; 66,3
2020-02-21 13:21:59; 6,8; 61; -0,2; 988,3743;1013,9375;5; 23,8; 23,8; 0,0; 0,0;247,5; 66,3
2020-02-21 13:32:00; 7,0; 60; -0,2; 988,3743;1013,9375;5; 23,8; 23,8; 0,0; 0,0;247,5; 66,3
2020-02-21 13:42:00; 7,1; 60; -0,1; 988,3743;1013,9375;5; 23,9; 23,9; 0,0; 0,0;247,5; 66,3
2020-02-21 13:51:59; 7,3; 57; -0,7; 988,3743;1013,9375;5; 23,9; 23,9; 0,0; 0,0;247,5; 66,3
2020-02-21 14:02:00; 7,3; 57; -0,7; 988,5618;1014,1250;5; 24,0; 24,0; 0,0; 0,0;247,5; 66,3
2020-02-21 14:11:59; 7,1; 58; -0,6; 988,5618;1014,1250;5; 23,9; 23,9; 0,0; 0,0;247,5; 66,3
2020-02-21 14:22:00; 6,9; 58; -0,8; 988,6868;1014,2500;5; 23,9; 23,9; 0,0; 0,0;247,5; 66,3
2020-02-21 14:31:59; 7,0; 58; -0,7; 988,6868;1014,2500;5; 23,8; 23,8; 0,0; 0,0;247,5; 66,3
2020-02-21 14:42:00; 7,0; 59; -0,5; 988,8118;1014,3750;5; 23,8; 23,8; 0,0; 0,0;247,5; 66,3
2020-02-21 14:51:59; 7,0; 58; -0,7; 988,8118;1014,3750;5; 23,8; 23,8; 0,0; 0,0;247,5; 66,3
2020-02-21 15:02:00; 6,8; 56; -1,4; 988,9368;1014,5000;5; 23,7; 23,7; 0,0; 0,0;247,5; 66,3
2020-02-21 15:12:00; 6,7; 56; -1,5; 988,9368;1014,5000;5; 23,7; 23,7; 0,0; 0,0;247,5; 66,3
2020-02-21 15:21:59; 6,7; 57; -1,2; 989,0618;1014,6250;5; 23,7; 23,7; 0,0; 0,0;247,5; 66,3
2020-02-21 15:32:00; 6,7; 57; -1,2; 989,0618;1014,6250;5; 23,6; 23,6; 0,0; 0,0;247,5; 66,3
2020-02-21 15:41:59; 6,7; 56; -1,5; 989,2493;1014,8125;5; 23,6; 23,6; 0,0; 0,0;247,5; 66,3
2020-02-21 15:52:00; 6,6; 57; -1,3; 989,2493;1014,8125;5; 23,6; 23,6; 0,0; 0,0;247,5; 66,3
2020-02-21 16:01:59; 6,5; 57; -1,4; 989,3743;1014,9375;5; 23,6; 23,6; 0,0; 0,0;247,5; 66,3
2020-02-21 16:12:00; 6,3; 58; -1,4; 989,3743;1014,9375;5; 23,6; 23,6; 0,0; 0,0;247,5; 66,3
2020-02-21 16:21:59; 6,1; 58; -1,5; 989,6243;1015,1875;5; 23,6; 23,6; 0,0; 0,0;247,5; 66,3
2020-02-21 16:32:00; 5,9; 58; -1,7; 989,6243;1015,1875;5; 23,5; 23,5; 0,0; 0,0;247,5; 66,3
2020-02-21 16:42:00; 5,7; 59; -1,7; 989,2493;1014,8125;5; 23,5; 23,5; 0,0; 0,0;247,5; 66,3
2020-02-21 16:51:59; 5,5; 60; -1,7; 989,2493;1014,8125;5; 23,5; 23,5; 0,0; 0,0;247,5; 66,3
2020-02-21 17:02:00; 5,3; 61; -1,6; 989,5618;1015,1250;5; 23,4; 23,4; 0,0; 0,0;247,5; 66,3
2020-02-21 17:11:59; 5,1; 62; -1,6; 989,5618;1015,1250;5; 23,4; 23,4; 0,0; 0,0;247,5; 66,3
2020-02-21 17:22:00; 4,9; 62; -1,8; 989,6243;1015,1875;5; 23,4; 23,4; 0,0; 0,0;247,5; 66,3
2020-02-21 17:31:59; 4,7; 63; -1,7; 989,6243;1015,1875;5; 23,4; 23,4; 0,0; 0,0;247,5; 66,3
2020-02-21 17:42:00; 4,5; 64; -1,7; 989,5618;1015,1250;5; 23,4; 23,4; 0,0; 0,0;247,5; 66,3
2020-02-21 17:51:59; 4,4; 64; -1,8; 989,5618;1015,1250;5; 23,4; 23,4; 0,0; 0,0;247,5; 66,3
2020-02-21 18:02:00; 4,3; 64; -1,9; 989,7493;1015,3125;5; 23,4; 23,4; 0,0; 0,0;247,5; 66,3
2020-02-21 18:12:00; 4,2; 65; -1,8; 989,7493;1015,3125;5; 23,4; 23,4; 0,0; 0,0;247,5; 66,3
2020-02-21 18:21:59; 4,1; 66; -1,7; 989,6868;1015,2500;5; 23,4; 23,4; 0,0; 0,0;247,5; 66,3
2020-02-21 18:32:00; 3,9; 66; -1,9; 989,6868;1015,2500;5; 23,4; 23,4; 0,0; 0,0;247,5; 66,3
2020-02-21 18:41:59; 3,9; 66; -1,9; 989,6243;1015,1875;5; 23,4; 23,4; 0,0; 0,0;247,5; 66,3
2020-02-21 18:52:00; 3,8; 66; -2,0; 989,6243;1015,1875;5; 23,4; 23,4; 0,0; 0,0;247,5; 66,3
2020-02-21 19:01:59; 3,8; 66; -2,0; 989,5618;1015,1250;5; 23,4; 23,4; 0,0; 0,0;247,5; 66,3
2020-02-21 19:12:00; 3,9; 67; -1,7; 989,5618;1015,1250;5; 23,4; 23,4; 0,0; 0,0;247,5; 66,3
2020-02-21 19:21:59; 4,0; 67; -1,6; 989,3743;1014,9375;5; 23,4; 23,4; 0,0; 0,0;247,5; 66,3
2020-02-21 19:32:00; 4,1; 66; -1,7; 989,3743;1014,9375;5; 23,4; 23,4; 0,0; 0,0;247,5; 66,3
2020-02-21 19:42:00; 4,3; 66; -1,5; 989,3118;1014,8750;5; 23,4; 23,4; 0,0; 0,0;247,5; 66,3
2020-02-21 19:51:59; 4,3; 66; -1,5; 989,3118;1014,8750;5; 23,4; 23,4; 0,0; 0,0;247,5; 66,3
2020-02-21 20:02:00; 4,5; 65; -1,5; 989,6243;1015,1875;5; 23,4; 23,4; 0,0; 0,0;247,5; 66,3
2020-02-21 20:11:59; 4,7; 65; -1,3; 989,6243;1015,1875;5; 23,3; 23,3; 0,0; 0,0;247,5; 66,3
2020-02-21 20:22:00; 4,8; 65; -1,2; 989,4993;1015,0625;5; 23,3; 23,3; 0,0; 0,0;247,5; 66,3
2020-02-21 20:31:59; 5,0; 65; -1,0; 989,4993;1015,0625;5; 23,3; 23,3; 0,0; 0,0;247,5; 66,3
2020-02-21 20:42:00; 5,1; 65; -0,9; 989,3743;1014,9375;5; 23,3; 23,3; 0,0; 0,0;247,5; 66,3
2020-02-21 20:51:59; 5,2; 64; -1,1; 989,3743;1014,9375;5; 23,3; 23,3; 0,0; 0,0;247,5; 66,3
2020-02-21 21:02:00; 5,3; 64; -1,0; 989,3743;1014,9375;5; 23,3; 23,3; 0,0; 0,0;247,5; 66,3
2020-02-21 21:12:00; 5,4; 64; -0,9; 989,3743;1014,9375;5; 23,3; 23,3; 0,0; 0,0;247,5; 66,3
2020-02-21 21:21:59; 5,5; 63; -1,0; 989,3118;1014,8750;5; 23,3; 23,3; 0,0; 0,0;247,5; 66,3
2020-02-21 21:32:00; 5,4; 64; -0,9; 989,3118;1014,8750;5; 23,3; 23,3; 0,0; 0,0;247,5; 66,3
2020-02-21 21:41:59; 5,5; 63; -1,0; 989,3743;1014,9375;5; 23,3; 23,3; 0,0; 0,0;247,5; 66,3
2020-02-21 21:52:00; 5,5; 63; -1,0; 989,3743;1014,9375;5; 23,3; 23,3; 0,0; 0,0;247,5; 66,3
2020-02-21 22:01:59; 5,5; 63; -1,0; 989,1868;1014,7500;5; 23,3; 23,3; 0,0; 0,0;247,5; 66,3
2020-02-21 22:12:00; 5,5; 63; -1,0; 989,1868;1014,7500;5; 23,3; 23,3; 0,0; 0,0;247,5; 66,3
2020-02-21 22:21:59; 5,5; 63; -1,0; 989,1868;1014,7500;5; 23,3; 23,3; 0,0; 0,0;247,5; 66,3
2020-02-21 22:32:00; 5,5; 63; -1,0; 989,1868;1014,7500;5; 23,3; 23,3; 0,0; 0,0;247,5; 66,3
2020-02-21 22:42:00; 5,6; 64; -0,7; 989,2493;1014,8125;5; 23,3; 23,3; 0,0; 0,0;247,5; 66,3
2020-02-21 22:51:59; 5,6; 64; -0,7; 989,2493;1014,8125;5; 23,3; 23,3; 0,0; 0,0;247,5; 66,3
2020-02-21 23:02:00; 5,6; 64; -0,7; 989,3118;1014,8750;5; 23,3; 23,3; 0,0; 0,0;247,5; 66,3
2020-02-21 23:11:59; 5,6; 64; -0,7; 989,3118;1014,8750;5; 23,3; 23,3; 0,0; 0,0;247,5; 66,3
2020-02-21 23:22:00; 5,7; 64; -0,6; 989,5618;1015,1250;5; 23,3; 23,3; 0,0; 0,0;247,5; 66,3
2020-02-21 23:31:59; 5,6; 64; -0,7; 989,5618;1015,1250;5; 23,3; 23,3; 0,0; 0,0;247,5; 66,3
2020-02-21 23:42:00; 5,7; 64; -0,6; 989,3743;1014,9375;5; 23,3; 23,3; 0,0; 0,0;247,5; 66,3
2020-02-21 23:51:59; 5,6; 64; -0,7; 989,3743;1014,9375;5; 23,3; 23,3; 0,0; 0,0;247,5; 66,3
2020-02-22 00:02:00; 5,7; 64; -0,6; 988,9368;1014,5000;5; 23,3; 23,3; 0,0; 0,0;247,5; 66,3
2020-02-22 00:12:00; 5,7; 64; -0,6; 988,9368;1014,5000;5; 23,3; 23,3; 0,0; 0,0;247,5; 66,3
2020-02-22 00:21:59; 5,7; 64; -0,6; 988,6868;1014,2500;5; 23,3; 23,3; 0,0; 0,0;247,5; 66,3
2020-02-22 00:32:00; 5,7; 64; -0,6; 988,6868;1014,2500;5; 23,3; 23,3; 0,0; 0,0;247,5; 66,3
2020-02-22 00:41:59; 5,6; 65; -0,5; 988,4368;1014,0000;5; 23,3; 23,3; 0,0; 0,0;247,5; 66,3
2020-02-22 00:52:00; 5,6; 65; -0,5; 988,4368;1014,0000;5; 23,3; 23,3; 0,0; 0,0;247,5; 66,3
2020-02-22 01:01:59; 5,6; 65; -0,5; 988,3118;1013,8750;5; 23,3; 23,3; 0,0; 0,0;247,5; 66,3
2020-02-22 01:12:00; 5,6; 65; -0,5; 988,3118;1013,8750;5; 23,2; 23,2; 0,0; 0,0;247,5; 66,3
2020-02-22 01:21:59; 5,7; 64; -0,6; 988,1868;1013,7500;5; 23,3; 23,3; 0,0; 0,0;247,5; 66,3
2020-02-22 01:32:00; 5,6; 65; -0,5; 988,1868;1013,7500;5; 23,3; 23,3; 0,0; 0,0;247,5; 66,3
2020-02-22 01:42:00; 5,6; 65; -0,5; 987,7493;1013,3125;5; 23,2; 23,2; 0,0; 0,0;247,5; 66,3
2020-02-22 01:51:59; 5,6; 65; -0,5; 987,7493;1013,3125;5; 23,2; 23,2; 0,0; 0,0;247,5; 66,3
2020-02-22 02:02:00; 5,6; 65; -0,5; 987,4993;1013,0625;5; 23,2; 23,2; 0,0; 0,0;247,5; 66,3
2020-02-22 02:11:59; 5,5; 65; -0,6; 987,4993;1013,0625;5; 23,2; 23,2; 0,0; 0,0;247,5; 66,3
2020-02-22 02:22:00; 5,5; 65; -0,6; 987,3118;1012,8750;5; 23,2; 23,2; 0,0; 0,0;247,5; 66,3
2020-02-22 02:31:59; 5,5; 65; -0,6; 987,3118;1012,8750;5; 23,2; 23,2; 0,0; 0,0;247,5; 66,3
2020-02-22 02:42:00; 5,5; 65; -0,6; 987,3743;1012,9375;5; 23,2; 23,2; 0,0; 0,0;247,5; 66,3
2020-02-22 02:51:59; 5,5; 65; -0,6; 987,3743;1012,9375;5; 23,2; 23,2; 0,0; 0,0;247,5; 66,3
2020-02-22 03:02:00; 5,5; 65; -0,6; 986,9993;1012,5625;5; 23,2; 23,2; 0,0; 0,0;247,5; 66,3
2020-02-22 03:12:00; 5,5; 65; -0,6; 986,9993;1012,5625;5; 23,2; 23,2; 0,0; 0,0;247,5; 66,3
2020-02-22 03:21:59; 5,4; 65; -0,7; 987,3743;1012,9375;5; 23,2; 23,2; 0,0; 0,0;247,5; 66,3
2020-02-22 03:32:00; 5,2; 66; -0,6; 987,3743;1012,9375;5; 23,2; 23,2; 0,0; 0,0;247,5; 66,3
2020-02-22 03:41:59; 5,1; 66; -0,7; 987,3743;1012,9375;5; 23,2; 23,2; 0,0; 0,0;247,5; 66,3
2020-02-22 03:52:00; 5,1; 66; -0,7; 987,3743;1012,9375;5; 23,2; 23,2; 0,0; 0,0;247,5; 66,3
2020-02-22 04:01:59; 5,0; 66; -0,8; 987,0618;1012,6250;5; 23,2; 23,2; 0,0; 0,0;247,5; 66,3
2020-02-22 04:12:00; 4,8; 67; -0,8; 987,0618;1012,6250;5; 23,2; 23,2; 0,0; 0,0;247,5; 66,3
2020-02-22 04:21:59; 4,6; 68; -0,8; 986,1868;1011,7500;5; 23,2; 23,2; 0,0; 0,0;247,5; 66,3
2020-02-22 04:32:00; 4,5; 68; -0,9; 986,1868;1011,7500;5; 23,2; 23,2; 0,0; 0,0;247,5; 66,3
2020-02-22 04:42:00; 4,4; 68; -1,0; 985,9993;1011,5625;5; 23,2; 23,2; 0,0; 0,0;247,5; 66,3
2020-02-22 04:51:59; 4,2; 69; -1,0; 985,9993;1011,5625;5; 23,2; 23,2; 0,0; 0,0;247,5; 66,3
2020-02-22 05:02:00; 4,1; 69; -1,1; 985,7493;1011,3125;5; 23,2; 23,2; 0,0; 0,0;247,5; 66,3
2020-02-22 05:11:59; 3,9; 70; -1,1; 985,7493;1011,3125;5; 23,2; 23,2; 0,0; 0,0;247,5; 66,3
2020-02-22 05:22:00; 3,9; 70; -1,1; 985,8118;1011,3750;5; 23,2; 23,2; 0,0; 0,0;247,5; 66,3
2020-02-22 05:31:59; 3,8; 70; -1,2; 985,8118;1011,3750;5; 23,2; 23,2; 0,0; 0,0;247,5; 66,3
2020-02-22 05:42:00; 3,7; 71; -1,1; 985,6868;1011,2500;5; 23,2; 23,2; 0,0; 0,0;247,5; 66,3
2020-02-22 05:51:59; 3,5; 71; -1,3; 985,6868;1011,2500;5; 23,2; 23,2; 0,0; 0,0;247,5; 66,3
2020-02-22 06:02:00; 3,5; 71; -1,3; 984,9993;1010,5625;5; 23,2; 23,2; 0,0; 0,0;247,5; 66,3
2020-02-22 06:12:00; 3,5; 71; -1,3; 984,9993;1010,5625;5; 23,2; 23,2; 0,0; 0,0;247,5; 66,3
2020-02-22 06:21:59; 3,5; 71; -1,3; 984,8743;1010,4375;5; 23,2; 23,2; 0,0; 0,0;247,5; 66,3
2020-02-22 06:32:00; 3,4; 71; -1,4; 984,8743;1010,4375;5; 23,2; 23,2; 0,0; 0,0;247,5; 66,3
2020-02-22 06:41:59; 3,3; 71; -1,5; 984,6243;1010,1875;5; 23,2; 23,2; 0,0; 0,0;247,5; 66,3
2020-02-22 06:52:00; 3,2; 71; -1,6; 984,6243;1010,1875;5; 23,2; 23,2; 0,0; 0,0;247,5; 66,3
2020-02-22 07:01:59; 3,5; 70; -1,5; 984,1868;1009,7500;5; 23,3; 23,3; 0,0; 0,0;247,5; 66,3
2020-02-22 07:12:00; 4,1; 67; -1,5; 984,1868;1009,7500;5; 23,3; 23,3; 0,0; 0,0;247,5; 66,3
2020-02-22 07:21:59; 4,8; 64; -1,4; 984,2493;1009,8125;5; 23,4; 23,4; 0,0; 0,0;247,5; 66,3
2020-02-22 07:32:00; 5,2; 64; -1,1; 984,2493;1009,8125;5; 23,4; 23,4; 0,0; 0,0;247,5; 66,3
2020-02-22 07:42:00; 5,3; 63; -1,2; 984,3118;1009,8750;5; 23,5; 23,5; 0,0; 0,0;247,5; 66,3
2020-02-22 07:51:59; 6,3; 54; -2,3; 984,3118;1009,8750;5; 23,6; 23,6; 0,0; 0,0;247,5; 66,3
2020-02-22 08:02:00; 7,0; 51; -2,5; 984,2493;1009,8125;5; 23,6; 23,6; 0,0; 0,0;247,5; 66,3
2020-02-22 08:11:59; 7,9; 48; -2,4; 984,2493;1009,8125;5; 24,3; 24,3; 0,0; 0,0;247,5; 66,3
2020-02-22 08:22:00; 8,9; 45; -2,4; 984,1868;1009,7500;5; 25,2; 25,2; 0,0; 0,0;247,5; 66,3
2020-02-22 08:31:59; 9,7; 42; -2,6; 984,1868;1009,7500;5; 25,9; 25,9; 0,0; 0,0;247,5; 66,3
2020-02-22 08:42:00; 10,5; 41; -2,2; 984,4368;1010,0000;5; 26,2; 26,2; 0,0; 0,0;247,5; 66,3
2020-02-22 08:51:59; 10,9; 39; -2,5; 984,4368;1010,0000;5; 26,2; 26,2; 0,0; 0,0;247,5; 66,3
2020-02-22 09:02:00; 11,2; 39; -2,3; 984,7493;1010,3125;5; 25,8; 25,8; 0,0; 0,0;247,5; 66,3
2020-02-22 09:12:00; 11,1; 38; -2,7; 984,7493;1010,3125;5; 25,5; 25,5; 0,0; 0,0;247,5; 66,3
2020-02-22 09:21:59; 11,1; 38; -2,7; 984,7493;1010,3125;5; 25,1; 25,1; 0,0; 0,0;247,5; 66,3
2020-02-22 09:32:00; 11,1; 38; -2,7; 984,7493;1010,3125;5; 24,8; 24,8; 0,0; 0,0;247,5; 66,3
2020-02-22 09:41:59; 11,3; 38; -2,5; 984,2493;1009,8125;5; 24,6; 24,6; 0,0; 0,0;247,5; 66,3
2020-02-22 09:52:00; 11,9; 37; -2,3; 984,2493;1009,8125;5; 24,8; 24,8; 0,0; 0,0;247,5; 66,3
2020-02-22 10:01:59; 12,4; 36; -2,3; 983,7493;1009,3125;5; 24,9; 24,9; 0,0; 0,0;247,5; 66,3
2020-02-22 10:12:00; 13,1; 35; -2,0; 983,7493;1009,3125;5; 25,1; 25,1; 0,0; 0,0;247,5; 66,3
2020-02-22 10:21:59; 12,7; 33; -3,2; 983,7493;1009,3125;5; 25,0; 25,0; 0,0; 0,0;247,5; 66,3
2020-02-22 10:32:00; 12,5; 34; -2,9; 983,7493;1009,3125;5; 24,8; 24,8; 0,0; 0,0;247,5; 66,3
2020-02-22 10:42:00; 12,6; 32; -3,7; 983,8118;1009,3750;5; 24,6; 24,6; 0,0; 0,0;247,5; 66,3
2020-02-22 10:51:59; 12,7; 32; -3,6; 983,8118;1009,3750;5; 24,4; 24,4; 0,0; 0,0;247,5; 66,3
2020-02-22 11:02:00; 12,8; 33; -3,1; 983,8743;1009,4375;5; 24,4; 24,4; 0,0; 0,0;247,5; 66,3
2020-02-22 11:11:59; 12,6; 32; -3,7; 983,8743;1009,4375;5; 24,2; 24,2; 0,0; 0,0;247,5; 66,3
2020-02-22 11:22:00; 12,5; 32; -3,8; 983,1243;1008,6875;4; 24,0; 24,0; 0,0; 0,0;247,5; 66,3
2020-02-22 11:31:59; 12,5; 32; -3,8; 983,1243;1008,6875;4; 24,0; 24,0; 0,0; 0,0;247,5; 66,3
2020-02-22 11:42:00; 12,6; 34; -2,9; ; ;4; 23,9; 23,9; 0,0; 0,0;247,5; 66,3
2020-02-22 11:51:59; 12,4; 36; -2,3; ; ;4; 23,9; 23,9; 0,0; 0,0;247,5; 66,3
2020-02-22 12:02:00; 12,3; 38; -1,6; 981,9368;1007,5000;4; 23,8; 23,8; 0,0; 0,0;247,5; 66,3
2020-02-22 12:12:00; 12,3; 38; -1,6; 981,9368;1007,5000;4; 23,8; 23,8; 0,0; 0,0;247,5; 66,3
2020-02-22 12:21:59; 12,1; 39; -1,4; 981,3743;1006,9375;4; 23,8; 23,8; 0,0; 0,0;247,5; 66,3
2020-02-22 12:32:00; 12,1; 39; -1,4; 981,3743;1006,9375;4; 23,7; 23,7; 0,0; 0,0;247,5; 66,3
2020-02-22 12:41:59; 12,3; 38; -1,6; 981,3743;1006,9375;4; 23,7; 23,7; 0,0; 0,0;247,5; 66,3
2020-02-22 12:52:00; 12,4; 38; -1,5; 981,3743;1006,9375;4; 23,7; 23,7; 0,0; 0,0;247,5; 66,3
2020-02-22 13:01:59; 12,3; 38; -1,6; 981,2493;1006,8125;4; 23,6; 23,6; 0,0; 0,0;247,5; 66,3
2020-02-22 13:12:00; 12,3; 39; -1,3; 981,2493;1006,8125;4; 23,6; 23,6; 0,0; 0,0;247,5; 66,3
2020-02-22 13:21:59; 12,2; 39; -1,4; 980,9368;1006,5000;4; 23,6; 23,6; 0,0; 0,0;247,5; 66,3
2020-02-22 13:32:00; 12,3; 39; -1,3; 980,9368;1006,5000;4; 23,6; 23,6; 0,0; 0,0;247,5; 66,3
2020-02-22 13:42:00; 12,5; 38; -1,4; 980,8118;1006,3750;4; 23,6; 23,6; 0,0; 0,0;247,5; 66,3
2020-02-22 13:51:59; 12,7; 38; -1,3; 980,8118;1006,3750;4; 23,6; 23,6; 0,0; 0,0;247,5; 66,3
2020-02-22 14:02:00; 12,9; 37; -1,4; 980,3118;1005,8750;4; 23,6; 23,6; 0,0; 0,0;247,5; 66,3
2020-02-22 14:11:59; 13,1; 36; -1,6; 980,3118;1005,8750;4; 23,6; 23,6; 0,0; 0,0;247,5; 66,3
2020-02-22 14:22:00; 13,4; 36; -1,4; 980,3118;1005,8750;4; 23,6; 23,6; 0,0; 0,0;247,5; 66,3
2020-02-22 14:31:59; 13,4; 36; -1,4; 980,3118;1005,8750;4; 23,6; 23,6; 0,0; 0,0;247,5; 66,3
2020-02-22 14:42:00; 13,3; 37; -1,1; 980,5618;1006,1250;4; 23,5; 23,5; 0,0; 0,0;247,5; 66,3
2020-02-22 14:51:59; 13,4; 37; -1,0; 980,5618;1006,1250;4; 23,6; 23,6; 0,0; 0,0;247,5; 66,3
2020-02-22 15:02:00; 13,3; 37; -1,1; 980,1868;1005,7500;4; 23,5; 23,5; 0,0; 0,0;247,5; 66,3
2020-02-22 15:12:00; 13,2; 37; -1,2; 980,1868;1005,7500;4; 23,5; 23,5; 0,0; 0,0;247,5; 66,3
2020-02-22 15:21:59; 13,1; 38; -0,9; 980,5618;1006,1250;4; 23,5; 23,5; 0,0; 0,0;247,5; 66,3
2020-02-22 15:32:00; 13,0; 38; -1,0; 980,5618;1006,1250;4; 23,5; 23,5; 0,0; 0,0;247,5; 66,3
2020-02-22 15:41:59; 13,0; 38; -1,0; 980,4368;1006,0000;4; 23,4; 23,4; 0,0; 0,0;247,5; 66,3
2020-02-22 15:52:00; 12,8; 39; -0,8; 980,4368;1006,0000;4; 23,4; 23,4; 0,0; 0,0;247,5; 66,3
2020-02-22 16:01:59; 12,7; 39; -0,9; 980,0618;1005,6250;4; 23,4; 23,4; 0,0; 0,0;247,5; 66,3
2020-02-22 16:12:00; 12,6; 39; -1,0; 980,0618;1005,6250;4; 23,4; 23,4; 0,0; 0,0;247,5; 66,3
2020-02-22 16:21:59; 12,5; 40; -0,7; 980,6868;1006,2500;4; 23,4; 23,4; 0,0; 0,0;247,5; 66,3
2020-02-22 16:32:00; 12,3; 41; -0,6; 980,6868;1006,2500;4; 23,4; 23,4; 0,0; 0,0;247,5; 66,3
2020-02-22 16:42:00; 12,1; 42; -0,4; 980,5618;1006,1250;4; 23,4; 23,4; 0,0; 0,0;247,5; 66,3
2020-02-22 16:51:59; 12,0; 44; 0,1; 980,5618;1006,1250;4; 23,4; 23,4; 0,0; 0,0;247,5; 66,3
2020-02-22 17:02:00; 11,9; 45; 0,3; 980,8118;1006,3750;4; 23,4; 23,4; 0,0; 0,0;247,5; 66,3
2020-02-22 17:11:59; 11,9; 45; 0,3; 980,8118;1006,3750;4; 23,4; 23,4; 0,0; 0,0;247,5; 66,3
2020-02-22 17:22:00; 11,7; 45; 0,2; 980,6243;1006,1875;4; 23,4; 23,4; 0,0; 0,0;247,5; 66,3
2020-02-22 17:31:59; 11,6; 46; 0,4; 980,6243;1006,1875;4; 23,4; 23,4; 0,0; 0,0;247,5; 66,3
2020-02-22 17:42:00; 11,5; 46; 0,3; 980,9993;1006,5625;4; 23,4; 23,4; 0,0; 0,0;247,5; 66,3
2020-02-22 17:51:59; 11,5; 46; 0,3; 980,9993;1006,5625;4; 23,4; 23,4; 0,0; 0,0;247,5; 66,3
2020-02-22 18:02:00; 11,4; 47; 0,5; 981,4993;1007,0625;4; 23,4; 23,4; 0,0; 0,0;247,5; 66,3
2020-02-22 18:12:00; 11,3; 48; 0,7; 981,4993;1007,0625;4; 23,4; 23,4; 0,0; 0,0;247,5; 66,3
2020-02-22 18:21:59; 11,3; 49; 1,0; 981,6868;1007,2500;4; 23,4; 23,4; 0,0; 0,0;247,5; 66,3
2020-02-22 18:32:00; 11,1; 49; 0,8; 981,6868;1007,2500;4; 23,3; 23,3; 0,0; 0,0;247,5; 66,3
2020-02-22 18:41:59; 11,0; 50; 1,0; 981,8118;1007,3750;4; 23,3; 23,3; 0,0; 0,0;247,5; 66,3
2020-02-22 18:52:00; 11,0; 50; 1,0; 981,8118;1007,3750;4; 23,3; 23,3; 0,0; 0,0;247,5; 66,3
2020-02-22 19:01:59; 10,9; 51; 1,2; 981,5618;1007,1250;4; 23,3; 23,3; 0,0; 0,0;247,5; 66,3
2020-02-22 19:12:00; 10,7; 52; 1,2; 981,5618;1007,1250;4; 23,3; 23,3; 0,0; 0,0;247,5; 66,3
2020-02-22 19:21:59; 10,6; 52; 1,1; 981,3743;1006,9375;4; 23,3; 23,3; 0,0; 0,0;247,5; 66,3
2020-02-22 19:32:00; 10,6; 53; 1,4; 981,3743;1006,9375;4; 23,3; 23,3; 0,0; 0,0;247,5; 66,3
2020-02-22 19:42:00; 10,4; 53; 1,2; 981,4368;1007,0000;4; 23,3; 23,3; 0,0; 0,0;247,5; 66,3
2020-02-22 19:51:59; 10,5; 54; 1,6; 981,4368;1007,0000;4; 23,3; 23,3; 0,0; 0,0;247,5; 66,3
2020-02-22 20:02:00; 10,6; 54; 1,7; 981,5618;1007,1250;4; 23,2; 23,2; 0,0; 0,0;247,5; 66,3
2020-02-22 20:11:59; 10,6; 55; 1,9; 981,5618;1007,1250;4; 23,2; 23,2; 0,0; 0,0;247,5; 66,3
2020-02-22 20:22:00; 10,5; 55; 1,8; 981,9993;1007,5625;4; 23,2; 23,2; 0,0; 0,0;247,5; 66,3
2020-02-22 20:31:59; 10,5; 55; 1,8; 981,9993;1007,5625;4; 23,2; 23,2; 0,0; 0,0;247,5; 66,3
2020-02-22 20:42:00; 10,5; 55; 1,8; 981,6243;1007,1875;4; 23,2; 23,2; 0,0; 0,0;247,5; 66,3
2020-02-22 20:51:59; 10,4; 56; 2,0; 981,6243;1007,1875;4; 23,2; 23,2; 0,0; 0,0;247,5; 66,3
2020-02-22 21:02:00; 10,3; 57; 2,2; 981,7493;1007,3125;4; 23,2; 23,2; 0,0; 0,0;247,5; 66,3
2020-02-22 21:12:00; 10,1; 59; 2,4; 981,7493;1007,3125;4; 23,2; 23,2; 0,0; 0,0;247,5; 66,3
2020-02-22 21:21:59; 10,0; 60; 2,6; 981,8118;1007,3750;4; 23,2; 23,2; 0,0; 0,0;247,5; 66,3
2020-02-22 21:32:00; 9,9; 63; 3,2; 981,8118;1007,3750;4; 23,2; 23,2; 0,0; 0,0;247,5; 66,3
2020-02-22 21:41:59; 9,6; 64; 3,1; 981,8118;1007,3750;4; 23,2; 23,2; 0,0; 0,0;247,5; 66,3
2020-02-22 21:52:00; 9,5; 64; 3,0; 981,8118;1007,3750;4; 23,2; 23,2; 0,0; 0,0;247,5; 66,3
2020-02-22 22:01:59; 9,4; 65; 3,2; 981,4368;1007,0000;4; 23,2; 23,2; 0,0; 0,0;247,5; 66,3
2020-02-22 22:12:00; 9,3; 65; 3,1; 981,4368;1007,0000;4; 23,2; 23,2; 0,0; 0,0;247,5; 66,3
2020-02-22 22:21:59; 9,2; 66; 3,2; 981,3743;1006,9375;4; 23,2; 23,2; 0,0; 0,0;247,5; 66,3
2020-02-22 22:32:00; 9,2; 67; 3,4; 981,3743;1006,9375;4; 23,2; 23,2; 0,0; 0,0;247,5; 66,3
2020-02-22 22:42:00; 9,2; 67; 3,4; 981,3118;1006,8750;4; 23,2; 23,2; 0,0; 0,0;247,5; 66,3
2020-02-22 22:51:59; 9,3; 66; 3,3; 981,3118;1006,8750;4; 23,2; 23,2; 0,0; 0,0;247,5; 66,3
2020-02-22 23:02:00; 9,3; 66; 3,3; 981,1868;1006,7500;4; 23,2; 23,2; 0,0; 0,0;247,5; 66,3
2020-02-22 23:11:59; 9,4; 66; 3,4; 981,1868;1006,7500;4; 23,2; 23,2; 0,0; 0,0;247,5; 66,3
2020-02-22 23:22:00; 9,5; 66; 3,5; 981,1868;1006,7500;4; 23,2; 23,2; 0,0; 0,0;247,5; 66,3
2020-02-22 23:31:59; 9,6; 66; 3,6; 981,1868;1006,7500;4; 23,2; 23,2; 0,0; 0,0;247,5; 66,3
2020-02-22 23:42:00; 9,6; 66; 3,6; 981,1868;1006,7500;4; 23,2; 23,2; 0,0; 0,0;247,5; 66,3
2020-02-22 23:51:59; 9,5; 68; 3,9; 981,1868;1006,7500;4; 23,2; 23,2; 0,0; 0,0;247,5; 66,3
2020-02-23 00:02:00; 9,5; 68; 3,9; 981,1243;1006,6875;4; 23,2; 23,2; 0,0; 0,0;247,5; 66,3
2020-02-23 00:12:00; 9,6; 68; 4,0; 981,1243;1006,6875;4; 23,2; 23,2; 0,0; 0,0;247,5; 66,3
2020-02-23 00:21:59; 9,7; 68; 4,1; 980,9368;1006,5000;4; 23,2; 23,2; 0,0; 0,0;247,5; 66,3
2020-02-23 00:32:00; 9,7; 69; 4,3; 980,9368;1006,5000;4; 23,2; 23,2; 0,0; 0,0;247,5; 66,3
2020-02-23 00:41:59; 9,5; 71; 4,5; 980,9368;1006,5000;4; 23,2; 23,2; 0,0; 0,0;247,5; 66,3
2020-02-23 00:52:00; 9,3; 73; 4,7; 980,9368;1006,5000;4; 23,2; 23,2; 0,0; 0,0;247,5; 66,3
2020-02-23 01:01:59; 9,2; 74; 4,8; 981,2493;1006,8125;4; 23,2; 23,2; 0,0; 0,0;247,5; 66,3
2020-02-23 01:12:00; 9,0; 77; 5,2; 981,2493;1006,8125;4; 23,2; 23,2; 0,0; 0,0;247,5; 66,3
2020-02-23 01:21:59; 8,9; 77; 5,1; 981,4368;1007,0000;4; 23,2; 23,2; 0,0; 0,0;247,5; 66,3
2020-02-23 01:32:00; 9,0; 77; 5,2; 981,4368;1007,0000;4; 23,2; 23,2; 0,0; 0,0;247,5; 66,3
2020-02-23 01:42:00; 8,8; 79; 5,4; 981,6868;1007,2500;4; 23,2; 23,2; 0,0; 0,0;247,5; 66,3
2020-02-23 01:51:59; 8,6; 81; 5,5; 981,6868;1007,2500;4; 23,2; 23,2; 0,0; 0,0;247,5; 66,3
2020-02-23 02:02:00; 8,4; 82; 5,5; 981,8743;1007,4375;4; 23,2; 23,2; 0,0; 0,0;247,5; 66,3
2020-02-23 02:11:59; 8,2; 84; 5,7; 981,8743;1007,4375;4; 23,1; 23,1; 0,0; 0,0;247,5; 67,0
2020-02-23 02:22:00; 8,0; 85; 5,6; 982,1243;1007,6875;4; 23,2; 23,2; 0,0; 0,0;247,5; 67,0
2020-02-23 02:31:59; 7,9; 84; 5,4; 982,1243;1007,6875;4; 23,1; 23,1; 0,0; 0,0;247,5; 67,0
2020-02-23 02:42:00; 7,9; 83; 5,2; 981,7493;1007,3125;4; 23,1; 23,1; 0,0; 0,0;247,5; 67,7
2020-02-23 02:51:59; 7,9; 83; 5,2; 981,7493;1007,3125;4; 23,1; 23,1; 0,0; 0,0;247,5; 67,7
2020-02-23 03:02:00; 7,8; 83; 5,1; 981,6868;1007,2500;4; 23,1; 23,1; 0,0; 0,0;247,5; 67,7
2020-02-23 03:12:00; 7,7; 82; 4,8; 981,6868;1007,2500;4; 23,1; 23,1; 0,0; 0,0;247,5; 67,7
2020-02-23 03:21:59; 7,7; 82; 4,8; 981,8743;1007,4375;4; 23,1; 23,1; 0,0; 0,0;247,5; 67,7
2020-02-23 03:32:00; 7,7; 82; 4,8; 981,8743;1007,4375;4; 23,1; 23,1; 0,0; 0,0;247,5; 67,7
2020-02-23 03:41:59; 7,5; 82; 4,6; 981,4368;1007,0000;4; 23,1; 23,1; 0,0; 0,0;247,5; 67,7
2020-02-23 03:52:00; 7,5; 83; 4,8; 981,4368;1007,0000;4; 23,1; 23,1; 0,0; 0,0;247,5; 67,7
2020-02-23 04:01:59; 7,5; 83; 4,8; 981,6243;1007,1875;4; 23,1; 23,1; 0,0; 0,0;247,5; 67,7
2020-02-23 04:12:00; 7,5; 83; 4,8; 981,6243;1007,1875;4; 23,1; 23,1; 0,0; 0,0;247,5; 67,7
2020-02-23 04:21:59; 7,5; 83; 4,8; 981,6243;1007,1875;4; 23,1; 23,1; 0,0; 0,0;247,5; 67,7
2020-02-23 04:32:00; 7,5; 84; 5,0; 981,6243;1007,1875;4; 23,1; 23,1; 0,0; 0,0;247,5; 67,7
2020-02-23 04:42:00; 7,5; 85; 5,1; 981,0618;1006,6250;4; 23,1; 23,1; 0,0; 0,0;247,5; 68,4
2020-02-23 04:51:59; 7,5; 86; 5,3; 981,0618;1006,6250;4; 23,1; 23,1; 0,0; 0,0;247,5; 68,4
2020-02-23 05:02:00; 7,5; 86; 5,3; 980,8743;1006,4375;4; 23,1; 23,1; 0,0; 0,0;247,5; 68,4
2020-02-23 05:11:59; 7,4; 87; 5,4; 980,8743;1006,4375;4; 23,1; 23,1; 0,0; 0,0;247,5; 69,1
2020-02-23 05:22:00; 7,4; 88; 5,5; 981,1243;1006,6875;4; 23,1; 23,1; 0,0; 0,0;247,5; 69,1
2020-02-23 05:31:59; 7,4; 88; 5,5; 981,1243;1006,6875;4; 23,1; 23,1; 0,0; 0,0;247,5; 69,8
2020-02-23 05:42:00; 7,5; 87; 5,5; 980,8118;1006,3750;4; 23,1; 23,1; 0,0; 0,0;247,5; 69,8
2020-02-23 05:51:59; 7,5; 87; 5,5; 980,8118;1006,3750;4; 23,1; 23,1; 0,0; 0,0;247,5; 69,8
2020-02-23 06:02:00; 7,8; 86; 5,6; 980,2493;1005,8125;4; 23,1; 23,1; 0,0; 0,0;247,5; 69,8
2020-02-23 06:12:00; 7,9; 85; 5,5; 980,2493;1005,8125;4; 23,1; 23,1; 0,0; 0,0;247,5; 69,8
2020-02-23 06:21:59; 8,1; 85; 5,7; 980,1868;1005,7500;4; 23,1; 23,1; 0,0; 0,0;247,5; 69,8
2020-02-23 06:32:00; 8,1; 83; 5,4; 980,1868;1005,7500;4; 23,1; 23,1; 0,0; 0,0;247,5; 69,8
2020-02-23 06:41:59; 8,3; 82; 5,4; 980,3743;1005,9375;4; 23,1; 23,1; 0,0; 0,0;247,5; 69,8
2020-02-23 06:52:00; 8,3; 82; 5,4; 980,3743;1005,9375;4; 23,1; 23,1; 0,0; 0,0;247,5; 69,8
2020-02-23 07:01:59; 8,4; 82; 5,5; 980,3743;1005,9375;4; 23,1; 23,1; 0,0; 0,0;247,5; 69,8
2020-02-23 07:12:00; 8,3; 83; 5,6; 980,3743;1005,9375;4; 23,2; 23,2; 0,0; 0,0;247,5; 69,8
2020-02-23 07:21:59; 8,3; 84; 5,8; 980,3743;1005,9375;4; 23,2; 23,2; 0,0; 0,0;247,5; 70,5
2020-02-23 07:32:00; 8,3; 84; 5,8; 980,3743;1005,9375;4; 23,2; 23,2; 0,0; 0,0;247,5; 70,5
2020-02-23 07:42:00; 8,3; 84; 5,8; 979,9368;1005,5000;4; 23,2; 23,2; 0,0; 0,0;247,5; 70,5
2020-02-23 07:51:59; 8,3; 84; 5,8; 979,9368;1005,5000;4; 23,2; 23,2; 0,0; 0,0;247,5; 70,5
2020-02-23 08:02:00; 8,6; 84; 6,0; 979,3743;1004,9375;3; 23,2; 23,2; 0,0; 0,0;247,5; 70,5
2020-02-23 08:11:59; 8,7; 84; 6,1; 979,3743;1004,9375;3; 23,2; 23,2; 0,0; 0,0;247,5; 71,2
2020-02-23 08:22:00; 8,8; 83; 6,1; 979,1243;1004,6875;3; 23,2; 23,2; 0,0; 0,0;247,5; 71,2
2020-02-23 08:31:59; 8,8; 83; 6,1; 979,1243;1004,6875;3; 23,2; 23,2; 0,0; 0,0;247,5; 71,2
2020-02-23 08:42:00; 8,9; 83; 6,2; 978,6868;1004,2500;3; 23,2; 23,2; 0,0; 0,0;247,5; 71,2
2020-02-23 08:51:59; 9,1; 81; 6,0; 978,6868;1004,2500;3; 23,2; 23,2; 0,0; 0,0;247,5; 71,2
2020-02-23 09:02:00; 9,2; 81; 6,1; 978,2493;1003,8125;3; 23,2; 23,2; 0,0; 0,0;247,5; 71,2
2020-02-23 09:12:00; 9,3; 80; 6,0; 978,2493;1003,8125;3; 23,2; 23,2; 0,0; 0,0;247,5; 71,2
2020-02-23 09:21:59; 9,5; 79; 6,0; 977,8118;1003,3750;3; 23,2; 23,2; 0,0; 0,0;247,5; 71,2
2020-02-23 09:32:00; 9,6; 79; 6,1; 977,8118;1003,3750;3; 23,2; 23,2; 0,0; 0,0;247,5; 71,2
2020-02-23 09:41:59; 9,6; 78; 6,0; 977,4368;1003,0000;3; 23,2; 23,2; 0,0; 0,0;247,5; 71,2
2020-02-23 09:52:00; 9,5; 79; 6,0; 977,4368;1003,0000;3; 23,2; 23,2; 0,0; 0,0;247,5; 71,9
2020-02-23 10:01:59; 9,4; 80; 6,1; 977,0618;1002,6250;3; 23,2; 23,2; 0,0; 0,0;247,5; 71,9
2020-02-23 10:12:00; 9,4; 80; 6,1; 977,0618;1002,6250;3; 23,2; 23,2; 0,0; 0,0;247,5; 71,9
2020-02-23 10:21:59; 9,3; 80; 6,0; 976,5618;1002,1250;3; 23,2; 23,2; 0,0; 0,0;247,5; 71,9
2020-02-23 10:32:00; 9,4; 80; 6,1; 976,5618;1002,1250;3; 23,2; 23,2; 0,0; 0,0;247,5; 72,7
2020-02-23 10:42:00; 9,5; 80; 6,2; 975,9368;1001,5000;3; 23,2; 23,2; 0,0; 0,0;247,5; 72,7
2020-02-23 10:51:59; 9,5; 79; 6,0; 975,9368;1001,5000;3; 23,2; 23,2; 0,0; 0,0;247,5; 72,7
2020-02-23 11:02:00; 9,5; 80; 6,2; 975,4368;1001,0000;3; 23,2; 23,2; 0,0; 0,0;247,5; 72,7
2020-02-23 11:11:59; 9,5; 80; 6,2; 975,4368;1001,0000;3; 23,2; 23,2; 0,0; 0,0;247,5; 72,7
2020-02-23 11:22:00; 9,4; 80; 6,1; 974,6868;1000,2500;3; 23,2; 23,2; 0,0; 0,0;247,5; 72,7
2020-02-23 11:31:59; 9,4; 81; 6,3; 974,6868;1000,2500;3; 23,2; 23,2; 0,0; 0,0;247,5; 72,7
2020-02-23 11:42:00; 9,4; 82; 6,5; 973,9993; 999,5625;3; 23,2; 23,2; 0,0; 0,0;247,5; 73,4
2020-02-23 11:51:59; 9,3; 83; 6,6; 973,9993; 999,5625;3; 23,2; 23,2; 0,0; 0,0;247,5; 73,4
2020-02-23 12:02:00; 9,1; 83; 6,4; 973,1868; 998,7500;3; 23,2; 23,2; 0,0; 0,0;247,5; 73,4
2020-02-23 12:12:00; 9,1; 84; 6,5; 973,1868; 998,7500;3; 23,2; 23,2; 0,0; 0,0;247,5; 73,4
2020-02-23 12:21:59; 9,2; 84; 6,6; 972,3743; 997,9375;3; 23,2; 23,2; 0,0; 0,0;247,5; 73,4
2020-02-23 12:32:00; 9,5; 84; 6,9; 972,3743; 997,9375;3; 23,2; 23,2; 0,0; 0,0;247,5; 73,4
2020-02-23 12:41:59; 9,8; 84; 7,2; 971,3118; 996,8750;3; 23,2; 23,2; 0,0; 0,0;247,5; 73,4
2020-02-23 12:52:00; 10,1; 83; 7,3; 971,3118; 996,8750;3; 23,2; 23,2; 0,0; 0,0;247,5; 73,4
2020-02-23 13:01:59; 10,3; 83; 7,5; 970,6243; 996,1875;3; 23,2; 23,2; 0,0; 0,0;247,5; 74,1
2020-02-23 13:12:00; 10,5; 83; 7,7; 970,6243; 996,1875;3; 23,2; 23,2; 0,0; 0,0;247,5; 74,1
2020-02-23 13:21:59; 10,5; 83; 7,7; 970,1868; 995,7500;3; 23,2; 23,2; 0,0; 0,0;247,5; 74,1
2020-02-23 13:32:00; 10,7; 83; 7,9; 970,1868; 995,7500;3; 23,2; 23,2; 0,0; 0,0;247,5; 74,1
2020-02-23 13:42:00; 10,8; 82; 7,9; 969,8743; 995,4375;3; 23,2; 23,2; 0,0; 0,0;247,5; 74,1
2020-02-23 13:51:59; 10,8; 83; 8,0; 969,8743; 995,4375;3; 23,2; 23,2; 0,0; 0,0;247,5; 74,8
2020-02-23 14:02:00; 10,9; 82; 7,9; 969,6868; 995,2500;3; 23,2; 23,2; 0,0; 0,0;247,5; 74,8
2020-02-23 14:11:59; 10,9; 83; 8,1; 969,6868; 995,2500;3; 23,2; 23,2; 0,0; 0,0;247,5; 74,8
2020-02-23 14:22:00; 11,0; 83; 8,2; 969,6868; 995,2500;3; 23,2; 23,2; 0,0; 0,0;247,5; 74,8
2020-02-23 14:31:59; 11,1; 82; 8,1; 969,6868; 995,2500;3; 23,2; 23,2; 0,0; 0,0;247,5; 74,8
2020-02-23 14:42:00; 11,4; 81; 8,3; 969,3118; 994,8750;3; 23,2; 23,2; 0,0; 0,0;247,5; 74,8
2020-02-23 14:51:59; 11,6; 80; 8,3; 969,3118; 994,8750;3; 23,2; 23,2; 0,0; 0,0;247,5; 74,8
2020-02-23 15:02:00; 11,8; 79; 8,3; 968,9368; 994,5000;3; 23,2; 23,2; 0,0; 0,0;247,5; 74,8
2020-02-23 15:12:00; 11,9; 78; 8,2; 968,9368; 994,5000;3; 23,2; 23,2; 0,0; 0,0;247,5; 74,8
2020-02-23 15:21:59; 11,9; 78; 8,2; 969,0618; 994,6250;3; 23,2; 23,2; 0,0; 0,0;247,5; 74,8
2020-02-23 15:32:00; 11,9; 79; 8,4; 969,0618; 994,6250;3; 23,2; 23,2; 0,0; 0,0;247,5; 74,8
2020-02-23 15:41:59; 12,1; 77; 8,2; 968,9368; 994,5000;3; 23,2; 23,2; 0,0; 0,0;247,5; 74,8
2020-02-23 15:52:00; 12,2; 76; 8,1; 968,9368; 994,5000;3; 23,2; 23,2; 0,0; 0,0;247,5; 74,8
2020-02-23 16:01:59; 12,3; 75; 8,0; 968,6868; 994,2500;3; 23,2; 23,2; 0,0; 0,0;247,5; 74,8
2020-02-23 16:12:00; 12,4; 75; 8,1; 968,6868; 994,2500;3; 23,1; 23,1; 0,0; 0,0;247,5; 74,8
2020-02-23 16:21:59; 12,4; 75; 8,1; 968,8118; 994,3750;3; 23,1; 23,1; 0,0; 0,0;247,5; 74,8
2020-02-23 16:32:00; 12,3; 77; 8,4; 968,8118; 994,3750;3; 23,1; 23,1; 0,0; 0,0;247,5; 74,8
2020-02-23 16:42:00; 12,3; 75; 8,0; 968,7493; 994,3125;3; 23,1; 23,1; 0,0; 0,0;247,5; 75,5
2020-02-23 16:51:59; 12,4; 75; 8,1; 968,7493; 994,3125;3; 23,1; 23,1; 0,0; 0,0;247,5; 75,5
2020-02-23 17:02:00; 12,4; 74; 7,9; 968,6243; 994,1875;3; 23,1; 23,1; 0,0; 0,0;247,5; 75,5
2020-02-23 17:11:59; 12,3; 75; 8,0; 968,6243; 994,1875;3; 23,1; 23,1; 0,0; 0,0;247,5; 75,5
2020-02-23 17:22:00; 12,3; 75; 8,0; 968,6868; 994,2500;3; 23,1; 23,1; 0,0; 0,0;247,5; 75,5
2020-02-23 17:31:59; 12,2; 76; 8,1; 968,6868; 994,2500;3; 23,1; 23,1; 0,0; 0,0;247,5; 75,5
2020-02-23 17:42:00; 12,3; 75; 8,0; 968,8118; 994,3750;3; 23,1; 23,1; 0,0; 0,0;247,5; 75,5
2020-02-23 17:51:59; 12,4; 74; 7,9; 968,8118; 994,3750;3; 23,1; 23,1; 0,0; 0,0;247,5; 75,5
2020-02-23 18:02:00; 12,5; 73; 7,8; 968,8118; 994,3750;3; 23,1; 23,1; 0,0; 0,0;247,5; 75,5
2020-02-23 18:12:00; 12,4; 74; 7,9; 968,8118; 994,3750;3; 23,1; 23,1; 0,0; 0,0;247,5; 75,5
2020-02-23 18:21:59; 12,3; 75; 8,0; 968,6243; 994,1875;3; 23,1; 23,1; 0,0; 0,0;247,5; 75,5
2020-02-23 18:32:00; 12,1; 76; 8,0; 968,6243; 994,1875;3; 23,1; 23,1; 0,0; 0,0;247,5; 75,5
2020-02-23 18:41:59; 9,9; 78; 6,2; 969,7493; 995,3125;4; 23,1; 23,1; 0,0; 0,0;247,5; 75,5
2020-02-23 18:52:00; 9,3; 83; 6,6; 969,7493; 995,3125;4; 23,1; 23,1; 0,0; 0,0;247,5; 79,0
2020-02-23 19:01:59; 9,3; 85; 6,9; 970,6243; 996,1875;4; 23,1; 23,1; 0,0; 0,0;247,5; 79,7
2020-02-23 19:12:00; 9,4; 84; 6,8; 970,6243; 996,1875;4; 23,1; 23,1; 0,0; 0,0;247,5; 79,7
2020-02-23 19:21:59; 9,5; 83; 6,8; 971,0618; 996,6250;4; 23,1; 23,1; 0,0; 0,0;247,5; 79,7
2020-02-23 19:32:00; 9,5; 82; 6,6; 971,0618; 996,6250;4; 23,1; 23,1; 0,0; 0,0;247,5; 79,7
2020-02-23 19:42:00; 9,5; 82; 6,6; 971,4368; 997,0000;5; 23,1; 23,1; 0,0; 0,0;247,5; 79,7
2020-02-23 19:51:59; 9,5; 79; 6,0; 971,4368; 997,0000;5; 23,1; 23,1; 0,0; 0,0;247,5; 79,7
2020-02-23 20:02:00; 9,3; 79; 5,8; 972,1243; 997,6875;5; 23,1; 23,1; 0,0; 0,0;247,5; 79,7
2020-02-23 20:11:59; 9,0; 79; 5,6; 972,1243; 997,6875;5; 23,1; 23,1; 0,0; 0,0;247,5; 80,4
2020-02-23 20:22:00; 8,8; 80; 5,5; 972,9368; 998,5000;6; 23,1; 23,1; 0,0; 0,0;247,5; 80,4
2020-02-23 20:31:59; 8,7; 78; 5,1; 972,9368; 998,5000;6; 23,1; 23,1; 0,0; 0,0;247,5; 80,4
2020-02-23 20:42:00; 8,6; 74; 4,2; 973,7493; 999,3125;6; 23,1; 23,1; 0,0; 0,0;247,5; 80,4
2020-02-23 20:51:59; 7,9; 72; 3,2; 973,7493; 999,3125;6; 23,1; 23,1; 0,0; 0,0;247,5; 80,4
2020-02-23 21:02:00; 7,6; 72; 2,9; 974,6868;1000,2500;6; 23,1; 23,1; 0,0; 0,0;247,5; 80,4
2020-02-23 21:12:00; 7,4; 74; 3,1; 974,6868;1000,2500;6; 23,1; 23,1; 0,0; 0,0;247,5; 80,4
2020-02-23 21:21:59; 7,1; 75; 3,0; 975,9993;1001,5625;6; 23,1; 23,1; 0,0; 0,0;247,5; 80,4
2020-02-23 21:32:00; 6,8; 76; 2,9; 975,9993;1001,5625;6; 23,0; 23,0; 0,0; 0,0;247,5; 80,4
2020-02-23 21:41:59; 6,7; 75; 2,6; 976,8743;1002,4375;6; 23,0; 23,0; 0,0; 0,0;247,5; 80,4
2020-02-23 21:52:00; 6,6; 74; 2,3; 976,8743;1002,4375;6; 23,0; 23,0; 0,0; 0,0;247,5; 80,4
2020-02-23 22:01:59; 6,4; 73; 1,9; 977,6868;1003,2500;6; 23,0; 23,0; 0,0; 0,0;247,5; 80,4
2020-02-23 22:12:00; 6,1; 72; 1,4; 977,6868;1003,2500;6; 23,0; 23,0; 0,0; 0,0;247,5; 80,4
2020-02-23 22:21:59; 5,9; 73; 1,4; 978,2493;1003,8125;6; 23,0; 23,0; 0,0; 0,0;247,5; 80,4
2020-02-23 22:32:00; 5,8; 75; 1,7; 978,2493;1003,8125;6; 23,0; 23,0; 0,0; 0,0;247,5; 80,4
2020-02-23 22:42:00; 5,7; 75; 1,6; 978,8743;1004,4375;6; 23,0; 23,0; 0,0; 0,0;247,5; 80,4
2020-02-23 22:51:59; 5,4; 75; 1,3; 978,8743;1004,4375;6; 23,0; 23,0; 0,0; 0,0;247,5; 80,4
2020-02-23 23:02:00; 5,2; 73; 0,8; 979,3118;1004,8750;6; 23,0; 23,0; 0,0; 0,0;247,5; 80,4
2020-02-23 23:11:59; 5,0; 74; 0,8; 979,3118;1004,8750;6; 23,0; 23,0; 0,0; 0,0;247,5; 80,4
2020-02-23 23:22:00; 4,8; 75; 0,7; 979,5618;1005,1250;6; 23,0; 23,0; 0,0; 0,0;247,5; 80,4
2020-02-23 23:31:59; 4,7; 75; 0,6; 979,5618;1005,1250;6; 23,0; 23,0; 0,0; 0,0;247,5; 80,4
2020-02-23 23:42:00; 4,7; 75; 0,6; 979,8118;1005,3750;6; 23,0; 23,0; 0,0; 0,0;247,5; 80,4
2020-02-23 23:51:59; 4,7; 74; 0,5; 979,8118;1005,3750;6; 23,0; 23,0; 0,0; 0,0;247,5; 80,4
2020-02-24 00:02:00; 4,8; 71; 0,0; 980,3118;1005,8750;6; 22,9; 22,9; 0,0; 0,0;247,5; 80,4
2020-02-24 00:12:00; 4,8; 70; -0,2; 980,3118;1005,8750;6; 23,0; 23,0; 0,0; 0,0;247,5; 80,4
2020-02-24 00:21:59; 4,9; 68; -0,5; 980,6868;1006,2500;6; 22,9; 22,9; 0,0; 0,0;247,5; 80,4
2020-02-24 00:32:00; 5,0; 67; -0,6; 980,6868;1006,2500;6; 22,9; 22,9; 0,0; 0,0;247,5; 80,4
2020-02-24 00:41:59; 4,9; 68; -0,5; 981,1243;1006,6875;6; 23,0; 23,0; 0,0; 0,0;247,5; 80,4
2020-02-24 00:52:00; 4,6; 70; -0,4; 981,1243;1006,6875;6; 22,9; 22,9; 0,0; 0,0;247,5; 80,4
2020-02-24 01:01:59; 4,1; 73; -0,3; 981,9368;1007,5000;6; 22,9; 22,9; 0,0; 0,0;247,5; 80,4
2020-02-24 01:12:00; 4,2; 74; 0,0; 981,9368;1007,5000;6; 22,9; 22,9; 0,0; 0,0;247,5; 80,4
2020-02-24 01:21:59; 4,2; 73; -0,2; 982,1243;1007,6875;6; 22,9; 22,9; 0,0; 0,0;247,5; 80,4
2020-02-24 01:32:00; 4,2; 72; -0,4; 982,1243;1007,6875;6; 22,9; 22,9; 0,0; 0,0;247,5; 80,4
2020-02-24 01:42:00; 4,2; 72; -0,4; 982,4368;1008,0000;6; 22,9; 22,9; 0,0; 0,0;247,5; 80,4
2020-02-24 01:51:59; 4,3; 72; -0,3; 982,4368;1008,0000;6; 22,9; 22,9; 0,0; 0,0;247,5; 80,4
2020-02-24 02:02:00; 4,2; 72; -0,4; 982,8118;1008,3750;6; 22,9; 22,9; 0,0; 0,0;247,5; 80,4
2020-02-24 02:11:59; 4,3; 72; -0,3; 982,8118;1008,3750;6; 22,9; 22,9; 0,0; 0,0;247,5; 80,4
2020-02-24 02:22:00; 4,3; 71; -0,5; 983,1243;1008,6875;6; 22,9; 22,9; 0,0; 0,0;247,5; 80,4
2020-02-24 02:31:59; 4,3; 71; -0,5; 983,1243;1008,6875;6; 23,0; 23,0; 0,0; 0,0;247,5; 80,4
2020-02-24 02:42:00; 4,2; 72; -0,4; 983,2493;1008,8125;6; 23,0; 23,0; 0,0; 0,0;247,5; 80,4
2020-02-24 02:51:59; 4,1; 73; -0,3; 983,2493;1008,8125;6; 23,0; 23,0; 0,0; 0,0;247,5; 80,4
2020-02-24 03:02:00; 3,9; 73; -0,5; 983,3743;1008,9375;6; 23,0; 23,0; 0,0; 0,0;247,5; 80,4
2020-02-24 03:12:00; 3,9; 74; -0,3; 983,3743;1008,9375;6; 23,0; 23,0; 0,0; 0,0;247,5; 80,4
2020-02-24 03:21:59; 3,9; 73; -0,5; 983,6243;1009,1875;6; 23,0; 23,0; 0,0; 0,0;247,5; 80,4
2020-02-24 03:32:00; 4,0; 73; -0,4; 983,6243;1009,1875;6; 22,9; 22,9; 0,0; 0,0;247,5; 80,4
2020-02-24 03:41:59; 3,9; 72; -0,7; 983,7493;1009,3125;6; 22,9; 22,9; 0,0; 0,0;247,5; 80,4
2020-02-24 03:52:00; 3,9; 73; -0,5; 983,7493;1009,3125;6; 23,0; 23,0; 0,0; 0,0;247,5; 80,4
2020-02-24 04:01:59; 3,9; 73; -0,5; 983,9993;1009,5625;6; 23,0; 23,0; 0,0; 0,0;247,5; 80,4
2020-02-24 04:12:00; 4,0; 72; -0,6; 983,9993;1009,5625;6; 22,9; 22,9; 0,0; 0,0;247,5; 80,4
2020-02-24 04:21:59; 4,1; 72; -0,5; 984,1243;1009,6875;5; 23,0; 23,0; 0,0; 0,0;247,5; 80,4
2020-02-24 04:32:00; 4,1; 72; -0,5; 984,1243;1009,6875;5; 22,9; 22,9; 0,0; 0,0;247,5; 80,4
2020-02-24 04:42:00; 4,2; 71; -0,6; 984,4368;1010,0000;5; 22,9; 22,9; 0,0; 0,0;247,5; 80,4
2020-02-24 04:51:59; 4,2; 71; -0,6; 984,4368;1010,0000;5; 22,9; 22,9; 0,0; 0,0;247,5; 80,4
2020-02-24 05:02:00; 4,2; 71; -0,6; 984,4993;1010,0625;5; 23,0; 23,0; 0,0; 0,0;247,5; 80,4
2020-02-24 05:11:59; 4,2; 71; -0,6; 984,4993;1010,0625;5; 22,9; 22,9; 0,0; 0,0;247,5; 80,4
2020-02-24 05:22:00; 4,2; 71; -0,6; 984,6243;1010,1875;5; 22,9; 22,9; 0,0; 0,0;247,5; 80,4
2020-02-24 05:31:59; 4,2; 70; -0,8; 984,6243;1010,1875;5; 22,9; 22,9; 0,0; 0,0;247,5; 80,4
2020-02-24 05:42:00; 4,1; 70; -0,9; 984,6868;1010,2500;5; 22,9; 22,9; 0,0; 0,0;247,5; 80,4
2020-02-24 05:51:59; 4,0; 70; -1,0; 984,6868;1010,2500;5; 22,9; 22,9; 0,0; 0,0;247,5; 80,4
2020-02-24 06:02:00; 4,1; 70; -0,9; 984,6868;1010,2500;5; 22,9; 22,9; 0,0; 0,0;247,5; 80,4
2020-02-24 06:12:00; 4,0; 71; -0,8; 984,6868;1010,2500;5; 23,0; 23,0; 0,0; 0,0;247,5; 80,4
2020-02-24 06:21:59; 4,1; 70; -0,9; 985,1243;1010,6875;5; 22,9; 22,9; 0,0; 0,0;247,5; 80,4
2020-02-24 06:32:00; 4,1; 70; -0,9; 985,1243;1010,6875;5; 23,0; 23,0; 0,0; 0,0;247,5; 80,4
2020-02-24 06:41:59; 4,1; 70; -0,9; 984,8743;1010,4375;5; 23,0; 23,0; 0,0; 0,0;247,5; 80,4
2020-02-24 06:52:00; 4,3; 70; -0,7; 984,8743;1010,4375;5; 23,0; 23,0; 0,0; 0,0;247,5; 80,4
2020-02-24 07:01:59; 4,3; 70; -0,7; 984,9993;1010,5625;5; 23,0; 23,0; 0,0; 0,0;247,5; 80,4
2020-02-24 07:12:00; 4,3; 69; -0,9; 984,9993;1010,5625;5; 23,1; 23,1; 0,0; 0,0;247,5; 80,4
2020-02-24 07:21:59; 4,5; 70; -0,5; 985,3118;1010,8750;5; 23,1; 23,1; 0,0; 0,0;247,5; 80,4
2020-02-24 07:32:00; 4,6; 69; -0,6; 985,3118;1010,8750;5; 23,1; 23,1; 0,0; 0,0;247,5; 80,4
2020-02-24 07:42:00; 4,7; 69; -0,5; 985,2493;1010,8125;5; 23,1; 23,1; 0,0; 0,0;247,5; 80,4
2020-02-24 07:51:59; 4,8; 68; -0,6; 985,2493;1010,8125;5; 23,1; 23,1; 0,0; 0,0;247,5; 80,4
2020-02-24 08:02:00; 5,0; 68; -0,4; 985,5618;1011,1250;5; 23,1; 23,1; 0,0; 0,0;247,5; 80,4
2020-02-24 08:11:59; 5,1; 68; -0,3; 985,5618;1011,1250;5; 23,2; 23,2; 0,0; 0,0;247,5; 80,4
2020-02-24 08:22:00; 5,2; 68; -0,2; 985,6868;1011,2500;5; 23,2; 23,2; 0,0; 0,0;247,5; 80,4
2020-02-24 08:31:59; 5,3; 67; -0,3; 985,6868;1011,2500;5; 23,2; 23,2; 0,0; 0,0;247,5; 80,4
2020-02-24 08:42:00; 5,4; 67; -0,2; 985,4368;1011,0000;5; 23,2; 23,2; 0,0; 0,0;247,5; 80,4
2020-02-24 08:51:59; 5,4; 66; -0,4; 985,4368;1011,0000;5; 23,3; 23,3; 0,0; 0,0;247,5; 80,4
2020-02-24 09:02:00; 5,7; 66; -0,2; 985,5618;1011,1250;5; 23,4; 23,4; 0,0; 0,0;247,5; 80,4
2020-02-24 09:12:00; 5,6; 65; -0,5; 985,5618;1011,1250;5; 23,4; 23,4; 0,0; 0,0;247,5; 80,4
2020-02-24 09:21:59; 6,0; 65; -0,1; 985,4368;1011,0000;5; 23,4; 23,4; 0,0; 0,0;247,5; 80,4
2020-02-24 09:32:00; 6,3; 64; 0,0; 985,4368;1011,0000;5; 23,6; 23,6; 0,0; 0,0;247,5; 80,4
2020-02-24 09:41:59; 6,4; 64; 0,1; 985,2493;1010,8125;5; 23,7; 23,7; 0,0; 0,0;247,5; 80,4
2020-02-24 09:52:00; 6,7; 63; 0,2; 985,2493;1010,8125;5; 23,9; 23,9; 0,0; 0,0;247,5; 80,4
2020-02-24 10:01:59; 7,0; 64; 0,7; 985,1243;1010,6875;5; 24,1; 24,1; 0,0; 0,0;247,5; 80,4
2020-02-24 10:12:00; 7,0; 64; 0,7; 985,1243;1010,6875;5; 24,2; 24,2; 0,0; 0,0;247,5; 80,4
2020-02-24 10:21:59; ; ; ; 985,1868;1010,7500;5; 24,5; 24,5; 0,0; 0,0;247,5; 80,4
2020-02-24 10:32:00; ; ; ; 985,1868;1010,7500;5; 24,7; 24,7; 0,0; 0,0;247,5; 80,4
2020-02-24 10:42:00; ; ; ; 984,8743;1010,4375;5; 25,0; 25,0; 0,0; 0,0;247,5; 80,4
2020-02-24 10:51:59; ; ; ; 984,8743;1010,4375;5; 24,9; 24,9; 0,0; 0,0;247,5; 80,4
2020-02-24 11:02:00; ; ; ; 984,6868;1010,2500;5; 24,8; 24,8; 0,0; 0,0;247,5; 80,4
2020-02-24 11:11:59; ; ; ; 984,6868;1010,2500;5; 24,7; 24,7; 0,0; 0,0;247,5; 80,4
2020-02-24 11:22:00; ; ; ; 984,2493;1009,8125;5; 24,6; 24,6; 0,0; 0,0;247,5; 80,4
2020-02-24 11:31:59; ; ; ; 984,2493;1009,8125;5; 24,7; 24,7; 0,0; 0,0;247,5; 80,4
2020-02-24 11:42:00; ; ; ; 984,1243;1009,6875;5; 24,8; 24,8; 0,0; 0,0;247,5; 80,4
2020-02-24 11:51:59; ; ; ; 984,1243;1009,6875;5; 24,8; 24,8; 0,0; 0,0;247,5; 80,4
2020-02-24 12:02:00; ; ; ; 983,4368;1009,0000;5; 25,0; 25,0; 0,0; 0,0;247,5; 80,4
2020-02-24 12:12:00; ; ; ; 983,4368;1009,0000;5; 25,2; 25,2; 0,0; 0,0;247,5; 80,4
2020-02-24 12:21:59; ; ; ; 983,5618;1009,1250;5; 25,3; 25,3; 0,0; 0,0;247,5; 80,4
2020-02-24 12:32:00; ; ; ; 983,5618;1009,1250;5; 25,5; 25,5; 0,0; 0,0;247,5; 80,4
2020-02-24 12:32:59; ; ; ; 983,5618;1009,1250;5; 25,5; 25,5; 0,0; 0,0;247,5; 80,4
2020-02-24 12:41:59; ; ; ; 983,4993;1009,0625;5; 25,5; 25,5; 0,0; 0,0;247,5; 80,4
2020-02-24 12:45:00; ; ; ; 983,4993;1009,0625;5; 25,5; 25,5; 0,0; 0,0;247,5; 80,4
2020-02-24 12:50:00; 9,5; 52; 0,1; 983,4993;1009,0625;5; 25,3; 25,3; 0,0; 0,0;247,5; 80,4
2020-02-24 12:59:59; 9,0; 52; -0,3; 983,3743;1008,9375;5; 25,0; 25,0; 0,0; 0,0;247,5; 80,4
2020-02-24 13:10:00; 9,1; 53; 0,0; 983,3743;1008,9375;5; 24,8; 24,8; 0,0; 0,0;247,5; 80,4
2020-02-24 13:19:59; 9,0; 52; -0,3; 982,6243;1008,1875;5; 24,6; 24,6; 0,0; 0,0;247,5; 80,4
2020-02-24 13:30:00; 8,9; 51; -0,7; 982,6243;1008,1875;5; 24,3; 24,3; 0,0; 0,0;247,5; 80,4
2020-02-24 13:39:59; 9,0; 52; -0,3; 981,3118;1006,8750;5; 24,2; 24,2; 0,0; 0,0;247,5; 80,4
2020-02-24 13:50:00; 8,9; 54; 0,1; 981,3118;1006,8750;5; 24,0; 24,0; 0,0; 0,0;247,5; 80,4
2020-02-24 14:00:00; 9,0; 54; 0,2; 980,4993;1006,0625;4; 23,9; 23,9; 0,0; 0,0;247,5; 80,4
2020-02-24 14:09:59; 9,1; 54; 0,3; 980,4993;1006,0625;4; 23,9; 23,9; 0,0; 0,0;247,5; 80,4
2020-02-24 14:20:00; 8,9; 54; 0,1; 980,1868;1005,7500;4; 23,9; 23,9; 0,0; 0,0;247,5; 80,4
2020-02-24 14:29:59; 8,8; 53; -0,3; 980,1868;1005,7500;4; 23,8; 23,8; 0,0; 0,0;247,5; 80,4
2020-02-24 14:40:00; 8,7; 51; -0,9; 979,8743;1005,4375;4; 23,8; 23,8; 0,0; 0,0;247,5; 80,4
2020-02-24 14:49:59; 8,7; 50; -1,1; 979,8743;1005,4375;4; 23,8; 23,8; 0,0; 0,0;247,5; 80,4
2020-02-24 15:00:00; 8,6; 52; -0,7; 979,6243;1005,1875;4; 23,7; 23,7; 0,0; 0,0;247,5; 80,4
2020-02-24 15:09:59; 8,7; 53; -0,4; 979,6243;1005,1875;4; 23,7; 23,7; 0,0; 0,0;247,5; 80,4
2020-02-24 15:20:00; 8,3; 55; -0,2; 978,9993;1004,5625;4; 23,6; 23,6; 0,0; 0,0;247,5; 80,4
2020-02-24 15:30:00; 7,9; 57; -0,1; 978,9993;1004,5625;4; 23,6; 23,6; 0,0; 0,0;247,5; 80,4
2020-02-24 15:39:59; 7,8; 58; 0,0; 978,5618;1004,1250;4; 23,6; 23,6; 0,0; 0,0;247,5; 80,4
2020-02-24 15:50:00; 7,5; 60; 0,2; 978,5618;1004,1250;4; 23,6; 23,6; 0,0; 0,0;247,5; 80,4
2020-02-24 15:59:59; 7,3; 63; 0,7; 978,3743;1003,9375;4; 23,6; 23,6; 0,0; 0,0;247,5; 80,4
2020-02-24 16:10:00; 7,0; 65; 0,9; 978,3743;1003,9375;4; 23,6; 23,6; 0,0; 0,0;247,5; 80,4
2020-02-24 16:19:59; 6,9; 65; 0,8; 977,4368;1003,0000;4; 23,5; 23,5; 0,0; 0,0;247,5; 80,4
2020-02-24 16:30:00; 6,6; 67; 0,9; 977,4368;1003,0000;4; 23,6; 23,6; 0,0; 0,0;247,5; 80,4
2020-02-24 16:39:59; 6,3; 70; 1,2; 976,9368;1002,5000;3; 23,5; 23,5; 0,0; 0,0;247,5; 80,4
2020-02-24 16:50:00; 6,2; 71; 1,3; 976,9368;1002,5000;3; 23,5; 23,5; 0,0; 0,0;247,5; 80,4
2020-02-24 17:00:00; 6,0; 72; 1,3; 976,4368;1002,0000;3; 23,4; 23,4; 0,0; 0,0;247,5; 80,4
2020-02-24 17:09:59; 5,9; 73; 1,4; 976,4368;1002,0000;3; 23,4; 23,4; 0,0; 0,0;247,5; 80,4
2020-02-24 17:20:00; 5,8; 73; 1,3; 975,6868;1001,2500;3; 23,4; 23,4; 0,0; 0,0;247,5; 80,4
2020-02-24 17:29:59; 5,8; 74; 1,5; 975,6868;1001,2500;3; 23,3; 23,3; 0,0; 0,0;247,5; 80,4
2020-02-24 17:40:00; 5,7; 74; 1,4; 975,1868;1000,7500;3; 23,3; 23,3; 0,0; 0,0;247,5; 80,4
2020-02-24 17:49:59; 5,7; 75; 1,6; 975,1868;1000,7500;3; 23,2; 23,2; 0,0; 0,0;247,5; 80,4
2020-02-24 18:00:00; 5,7; 76; 1,8; 974,3743; 999,9375;3; 23,2; 23,2; 0,0; 0,0;247,5; 80,4
2020-02-24 18:09:59; 5,6; 76; 1,7; 974,3743; 999,9375;3; 23,2; 23,2; 0,0; 0,0;247,5; 80,4
2020-02-24 18:20:00; 5,5; 77; 1,8; 973,5618; 999,1250;3; 23,2; 23,2; 0,0; 0,0;247,5; 80,4
2020-02-24 18:30:00; 5,6; 78; 2,1; 973,5618; 999,1250;3; 23,2; 23,2; 0,0; 0,0;247,5; 80,4
2020-02-24 18:39:59; 6,1; 78; 2,6; 972,9993; 998,5625;3; 23,2; 23,2; 0,0; 0,0;247,5; 80,4
2020-02-24 18:50:00; 6,7; 77; 3,0; 972,9993; 998,5625;3; 23,2; 23,2; 0,0; 0,0;247,5; 80,4
2020-02-24 18:59:59; 7,1; 76; 3,2; 972,4993; 998,0625;3; 23,2; 23,2; 0,0; 0,0;247,5; 80,4
2020-02-24 19:10:00; 7,4; 76; 3,4; 972,4993; 998,0625;3; 23,2; 23,2; 0,0; 0,0;247,5; 80,4
2020-02-24 19:19:59; 7,5; 75; 3,4; 972,3118; 997,8750;3; 23,2; 23,2; 0,0; 0,0;247,5; 80,4
2020-02-24 19:30:00; 7,5; 75; 3,4; 972,3118; 997,8750;3; 23,2; 23,2; 0,0; 0,0;247,5; 80,4
2020-02-24 19:39:59; 7,5; 75; 3,4; 971,9368; 997,5000;3; 23,2; 23,2; 0,0; 0,0;247,5; 80,4
2020-02-24 19:50:00; 7,6; 75; 3,5; 971,9368; 997,5000;3; 23,2; 23,2; 0,0; 0,0;247,5; 80,4
2020-02-24 20:00:00; 7,7; 75; 3,5; 971,6243; 997,1875;3; 23,2; 23,2; 0,0; 0,0;247,5; 80,4
2020-02-24 20:09:59; 7,7; 75; 3,5; 971,6243; 997,1875;3; 23,2; 23,2; 0,0; 0,0;247,5; 80,4
2020-02-24 20:20:00; 7,7; 75; 3,5; 971,6868; 997,2500;3; 23,1; 23,1; 0,0; 0,0;247,5; 80,4
2020-02-24 20:29:59; 7,8; 76; 3,8; 971,6868; 997,2500;3; 23,1; 23,1; 0,0; 0,0;247,5; 80,4
2020-02-24 20:40:00; 7,9; 76; 3,9; 971,0618; 996,6250;3; 23,1; 23,1; 0,0; 0,0;247,5; 80,4
2020-02-24 20:49:59; 7,9; 76; 3,9; 971,0618; 996,6250;3; 23,1; 23,1; 0,0; 0,0;247,5; 80,4
2020-02-24 21:00:00; 8,0; 76; 4,0; 970,8118; 996,3750;3; 23,1; 23,1; 0,0; 0,0;247,5; 80,4
2020-02-24 21:09:59; 8,1; 77; 4,3; 970,8118; 996,3750;3; 23,1; 23,1; 0,0; 0,0;247,5; 80,4
2020-02-24 21:20:00; 8,6; 79; 5,2; 970,4993; 996,0625;3; 23,1; 23,1; 0,0; 0,0;247,5; 80,4
2020-02-24 21:30:00; 8,9; 79; 5,5; 970,4993; 996,0625;3; 23,1; 23,1; 0,0; 0,0;247,5; 80,4
2020-02-24 21:39:59; 9,3; 79; 5,8; 970,4993; 996,0625;3; 23,1; 23,1; 0,0; 0,0;247,5; 80,4
2020-02-24 21:50:00; 9,4; 80; 6,1; 970,4993; 996,0625;3; 23,1; 23,1; 0,0; 0,0;247,5; 80,4
2020-02-24 21:59:59; 9,4; 80; 6,1; 969,9368; 995,5000;3; 23,1; 23,1; 0,0; 0,0;247,5; 81,1
2020-02-24 22:10:00; 9,5; 79; 6,0; 969,9368; 995,5000;3; 23,1; 23,1; 0,0; 0,0;247,5; 81,1
2020-02-24 22:19:59; 9,5; 80; 6,2; 969,8743; 995,4375;3; 23,1; 23,1; 0,0; 0,0;247,5; 81,1
2020-02-24 22:30:00; 9,4; 80; 6,1; 969,8743; 995,4375;3; 23,1; 23,1; 0,0; 0,0;247,5; 81,1
2020-02-24 22:39:59; 9,4; 81; 6,3; 969,4368; 995,0000;3; 23,1; 23,1; 0,0; 0,0;247,5; 81,1
2020-02-24 22:50:00; 9,4; 81; 6,3; 969,4368; 995,0000;3; 23,1; 23,1; 0,0; 0,0;247,5; 81,1
2020-02-24 23:00:00; 9,4; 80; 6,1; 969,1868; 994,7500;3; 23,1; 23,1; 0,0; 0,0;247,5; 81,1
2020-02-24 23:09:59; 9,4; 80; 6,1; 969,1868; 994,7500;3; 23,1; 23,1; 0,0; 0,0;247,5; 81,1
2020-02-24 23:20:00; 9,3; 80; 6,0; 969,0618; 994,6250;3; 23,1; 23,1; 0,0; 0,0;247,5; 81,1
2020-02-24 23:29:59; 9,3; 80; 6,0; 969,0618; 994,6250;3; 23,1; 23,1; 0,0; 0,0;247,5; 81,1
2020-02-24 23:40:00; 9,2; 80; 5,9; 968,8743; 994,4375;3; 23,1; 23,1; 0,0; 0,0;247,5; 81,8
2020-02-24 23:49:59; 9,2; 80; 5,9; 968,8743; 994,4375;3; 23,1; 23,1; 0,0; 0,0;247,5; 81,8
2020-02-25 00:00:00; 9,2; 80; 5,9; 968,6868; 994,2500;3; 23,0; 23,0; 0,0; 0,0;247,5; 81,8
2020-02-25 00:09:59; 9,2; 80; 5,9; 968,6868; 994,2500;3; 23,0; 23,0; 0,0; 0,0;247,5; 81,8
2020-02-25 00:20:00; 9,2; 80; 5,9; 968,5618; 994,1250;3; 23,0; 23,0; 0,0; 0,0;247,5; 81,8
2020-02-25 00:30:00; 9,2; 80; 5,9; 968,5618; 994,1250;3; 23,0; 23,0; 0,0; 0,0;247,5; 81,8
2020-02-25 00:39:59; 9,1; 80; 5,8; 968,6868; 994,2500;3; 23,0; 23,0; 0,0; 0,0;247,5; 81,8
2020-02-25 00:50:00; 9,1; 80; 5,8; 968,6868; 994,2500;3; 23,0; 23,0; 0,0; 0,0;247,5; 81,8
2020-02-25 00:59:59; 9,1; 80; 5,8; 968,4368; 994,0000;3; 23,0; 23,0; 0,0; 0,0;247,5; 81,8
2020-02-25 01:10:00; 9,1; 80; 5,8; 968,4368; 994,0000;3; 23,0; 23,0; 0,0; 0,0;247,5; 81,8
2020-02-25 01:19:59; 9,1; 79; 5,7; 968,4368; 994,0000;3; 23,0; 23,0; 0,0; 0,0;247,5; 81,8
2020-02-25 01:30:00; 9,1; 79; 5,7; 968,4368; 994,0000;3; 23,0; 23,0; 0,0; 0,0;247,5; 81,8
2020-02-25 01:39:59; 9,2; 78; 5,6; 967,9993; 993,5625;3; 23,0; 23,0; 0,0; 0,0;247,5; 81,8
2020-02-25 01:50:00; 9,3; 78; 5,7; 967,9993; 993,5625;3; 23,0; 23,0; 0,0; 0,0;247,5; 81,8
2020-02-25 02:00:00; 9,3; 78; 5,7; 967,8118; 993,3750;3; 23,0; 23,0; 0,0; 0,0;247,5; 81,8
2020-02-25 02:09:59; 9,3; 77; 5,5; 967,8118; 993,3750;3; 22,9; 22,9; 0,0; 0,0;247,5; 81,8
2020-02-25 02:20:00; 9,3; 77; 5,5; 967,8743; 993,4375;3; 22,9; 22,9; 0,0; 0,0;247,5; 81,8
2020-02-25 02:29:59; 9,3; 77; 5,5; 967,8743; 993,4375;3; 22,9; 22,9; 0,0; 0,0;247,5; 81,8
2020-02-25 02:40:00; 9,4; 76; 5,4; 967,8118; 993,3750;3; 22,9; 22,9; 0,0; 0,0;247,5; 81,8
2020-02-25 02:49:59; 9,4; 76; 5,4; 967,8118; 993,3750;3; 22,9; 22,9; 0,0; 0,0;247,5; 81,8
2020-02-25 03:00:00; 9,4; 76; 5,4; 967,6868; 993,2500;3; 22,9; 22,9; 0,0; 0,0;247,5; 81,8
2020-02-25 03:09:59; 9,4; 76; 5,4; 967,6868; 993,2500;3; 22,9; 22,9; 0,0; 0,0;247,5; 81,8
2020-02-25 03:20:00; 9,4; 76; 5,4; 967,6243; 993,1875;3; 22,9; 22,9; 0,0; 0,0;247,5; 81,8
2020-02-25 03:30:00; 9,4; 76; 5,4; 967,6243; 993,1875;3; 22,9; 22,9; 0,0; 0,0;247,5; 81,8
2020-02-25 03:39:59; 9,5; 76; 5,5; 967,6243; 993,1875;3; 22,9; 22,9; 0,0; 0,0;247,5; 81,8
2020-02-25 03:50:00; 9,6; 75; 5,4; 967,6243; 993,1875;3; 22,9; 22,9; 0,0; 0,0;247,5; 81,8
2020-02-25 03:59:59; 9,7; 75; 5,5; 967,3118; 992,8750;3; 22,9; 22,9; 0,0; 0,0;247,5; 81,8
2020-02-25 04:10:00; 9,7; 74; 5,3; 967,3118; 992,8750;3; 22,9; 22,9; 0,0; 0,0;247,5; 81,8
2020-02-25 04:19:59; 9,8; 74; 5,4; 967,2493; 992,8125;3; 22,9; 22,9; 0,0; 0,0;247,5; 81,8
2020-02-25 04:30:00; 9,9; 74; 5,5; 967,2493; 992,8125;3; 22,9; 22,9; 0,0; 0,0;247,5; 81,8
2020-02-25 04:39:59; 9,8; 74; 5,4; 967,1868; 992,7500;3; 22,9; 22,9; 0,0; 0,0;247,5; 81,8
2020-02-25 04:50:00; 9,9; 74; 5,5; 967,1868; 992,7500;3; 22,9; 22,9; 0,0; 0,0;247,5; 81,8
2020-02-25 05:00:00; 9,9; 74; 5,5; 967,0618; 992,6250;3; 22,9; 22,9; 0,0; 0,0;247,5; 81,8
2020-02-25 05:09:59; 9,9; 74; 5,5; 967,0618; 992,6250;3; 22,9; 22,9; 0,0; 0,0;247,5; 81,8
2020-02-25 05:20:00; 10,0; 73; 5,4; 966,8743; 992,4375;3; 22,9; 22,9; 0,0; 0,0;247,5; 81,8
2020-02-25 05:29:59; 9,9; 73; 5,3; 966,8743; 992,4375;3; 22,9; 22,9; 0,0; 0,0;247,5; 81,8
2020-02-25 05:40:00; 9,8; 73; 5,2; 966,6868; 992,2500;3; 22,9; 22,9; 0,0; 0,0;247,5; 81,8
2020-02-25 05:49:59; 9,7; 74; 5,3; 966,6868; 992,2500;3; 22,9; 22,9; 0,0; 0,0;247,5; 81,8
2020-02-25 06:00:00; 9,7; 73; 5,1; 966,4993; 992,0625;3; 22,9; 22,9; 0,0; 0,0;247,5; 81,8
2020-02-25 06:09:59; 9,7; 73; 5,1; 966,4993; 992,0625;3; 22,9; 22,9; 0,0; 0,0;247,5; 81,8
2020-02-25 06:20:00; 9,8; 73; 5,2; 966,4368; 992,0000;3; 22,9; 22,9; 0,0; 0,0;247,5; 81,8
2020-02-25 06:30:00; 9,9; 73; 5,3; 966,4368; 992,0000;3; 22,9; 22,9; 0,0; 0,0;247,5; 81,8
2020-02-25 06:39:59; 9,8; 73; 5,2; 966,6243; 992,1875;3; 22,9; 22,9; 0,0; 0,0;247,5; 81,8
2020-02-25 06:50:00; 9,9; 73; 5,3; 966,6243; 992,1875;3; 22,9; 22,9; 0,0; 0,0;247,5; 81,8
2020-02-25 06:59:59; 9,9; 73; 5,3; 966,5618; 992,1250;3; 23,0; 23,0; 0,0; 0,0;247,5; 81,8
2020-02-25 07:10:00; 9,9; 73; 5,3; 966,5618; 992,1250;3; 23,0; 23,0; 0,0; 0,0;247,5; 81,8
2020-02-25 07:19:59; 10,0; 73; 5,4; 967,0618; 992,6250;3; 23,0; 23,0; 0,0; 0,0;247,5; 81,8
2020-02-25 07:30:00; 10,1; 73; 5,5; 967,0618; 992,6250;3; 23,0; 23,0; 0,0; 0,0;247,5; 81,8
2020-02-25 07:39:59; 10,1; 73; 5,5; 966,6868; 992,2500;3; 23,0; 23,0; 0,0; 0,0;247,5; 81,8
2020-02-25 07:50:00; 10,2; 73; 5,6; 966,6868; 992,2500;3; 23,1; 23,1; 0,0; 0,0;247,5; 81,8
2020-02-25 08:00:00; 10,5; 72; 5,7; 966,6243; 992,1875;3; 23,4; 23,4; 0,0; 0,0;247,5; 81,8
2020-02-25 08:09:59; 10,7; 72; 5,9; 966,6243; 992,1875;3; 23,8; 23,8; 0,0; 0,0;247,5; 81,8
2020-02-25 08:20:00; 11,2; 70; 5,9; 966,6868; 992,2500;3; 24,6; 24,6; 0,0; 0,0;247,5; 81,8
2020-02-25 08:29:59; 11,7; 69; 6,2; 966,6868; 992,2500;3; 25,4; 25,4; 0,0; 0,0;247,5; 81,8
2020-02-25 08:40:00; 12,1; 67; 6,2; 967,0618; 992,6250;3; 26,2; 26,2; 0,0; 0,0;247,5; 81,8
2020-02-25 08:49:59; 12,3; 66; 6,1; 967,0618; 992,6250;3; 26,4; 26,4; 0,0; 0,0;247,5; 81,8
2020-02-25 09:00:00; 12,4; 65; 6,0; 967,2493; 992,8125;3; 26,6; 26,6; 0,0; 0,0;247,5; 81,8
2020-02-25 09:09:59; 12,7; 65; 6,3; 967,2493; 992,8125;3; 26,7; 26,7; 0,0; 0,0;247,5; 81,8
2020-02-25 09:20:00; 12,5; 64; 5,9; 967,3118; 992,8750;3; 26,0; 26,0; 0,0; 0,0;247,5; 81,8
2020-02-25 09:30:00; 12,1; 65; 5,7; 967,3118; 992,8750;3; 25,3; 25,3; 0,0; 0,0;247,5; 81,8
2020-02-25 09:39:59; 12,1; 65; 5,7; 966,6868; 992,2500;3; 24,8; 24,8; 0,0; 0,0;247,5; 81,8
2020-02-25 09:50:00; 12,0; 65; 5,6; 966,6868; 992,2500;3; 24,5; 24,5; 0,0; 0,0;247,5; 81,8
2020-02-25 09:59:59; 11,9; 66; 5,7; 966,3118; 991,8750;3; 24,2; 24,2; 0,0; 0,0;247,5; 81,8
2020-02-25 10:10:00; 11,6; 66; 5,5; 966,3118; 991,8750;3; 24,0; 24,0; 0,0; 0,0;247,5; 81,8
2020-02-25 10:19:59; 11,5; 67; 5,6; 966,0618; 991,6250;3; 23,8; 23,8; 0,0; 0,0;247,5; 81,8
2020-02-25 10:30:00; 11,5; 67; 5,6; 966,0618; 991,6250;3; 23,8; 23,8; 0,0; 0,0;247,5; 81,8
2020-02-25 10:39:59; 11,6; 68; 5,9; 965,8118; 991,3750;3; 23,9; 23,9; 0,0; 0,0;247,5; 81,8
2020-02-25 10:50:00; 11,7; 67; 5,8; 965,8118; 991,3750;3; 24,0; 24,0; 0,0; 0,0;247,5; 81,8
2020-02-25 11:00:00; 11,7; 68; 6,0; 965,9993; 991,5625;3; 24,1; 24,1; 0,0; 0,0;247,5; 81,8
2020-02-25 11:09:59; 11,9; 67; 6,0; 965,9993; 991,5625;3; 24,2; 24,2; 0,0; 0,0;247,5; 81,8
2020-02-25 11:20:00; 11,8; 67; 5,9; 966,0618; 991,6250;3; 24,2; 24,2; 0,0; 0,0;247,5; 81,8
2020-02-25 11:29:59; 11,7; 66; 5,6; 966,0618; 991,6250;3; 24,2; 24,2; 0,0; 0,0;247,5; 81,8
2020-02-25 11:40:00; 12,0; 67; 6,1; 965,7493; 991,3125;3; 24,2; 24,2; 0,0; 0,0;247,5; 81,8
2020-02-25 11:49:59; 12,5; 65; 6,1; 965,7493; 991,3125;3; 24,6; 24,6; 0,0; 0,0;247,5; 81,8
2020-02-25 12:00:00; 12,7; 64; 6,1; 967,1243; 992,6875;3; 25,0; 25,0; 0,0; 0,0;247,5; 81,8
2020-02-25 12:09:59; 12,5; 65; 6,1; 967,1243; 992,6875;3; 25,1; 25,1; 0,0; 0,0;247,5; 81,8
2020-02-25 12:20:00; 12,8; 62; 5,7; 967,5618; 993,1250;3; 25,4; 25,4; 0,0; 0,0;247,5; 81,8
2020-02-25 12:30:00; 12,5; 63; 5,6; 967,5618; 993,1250;3; 25,4; 25,4; 0,0; 0,0;247,5; 81,8
2020-02-25 12:39:59; 12,3; 64; 5,7; 967,9368; 993,5000;3; 25,0; 25,0; 0,0; 0,0;247,5; 81,8
2020-02-25 12:50:00; 12,1; 64; 5,5; 967,9368; 993,5000;3; 24,8; 24,8; 0,0; 0,0;247,5; 81,8
2020-02-25 12:59:59; 12,2; 64; 5,6; 966,3118; 991,8750;3; 24,6; 24,6; 0,0; 0,0;247,5; 81,8
2020-02-25 13:10:00; 11,9; 64; 5,3; 966,3118; 991,8750;3; 24,5; 24,5; 0,0; 0,0;247,5; 81,8
2020-02-25 13:19:59; 11,9; 63; 5,1; 965,4993; 991,0625;3; 24,5; 24,5; 0,0; 0,0;247,5; 81,8
2020-02-25 13:30:00; 12,0; 64; 5,4; 965,4993; 991,0625;3; 24,4; 24,4; 0,0; 0,0;247,5; 81,8
2020-02-25 13:39:59; 11,9; 64; 5,3; 964,9993; 990,5625;3; 24,4; 24,4; 0,0; 0,0;247,5; 81,8
2020-02-25 13:50:00; 11,9; 64; 5,3; 964,9993; 990,5625;3; 24,4; 24,4; 0,0; 0,0;247,5; 81,8
2020-02-25 14:00:00; 12,1; 63; 5,3; 965,1243; 990,6875;3; 24,6; 24,6; 0,0; 0,0;247,5; 81,8
2020-02-25 14:09:59; 11,2; 70; 5,9; 965,1243; 990,6875;3; 24,5; 24,5; 0,0; 0,0;247,5; 81,8
2020-02-25 14:20:00; 10,2; 75; 6,0; 965,6243; 991,1875;3; 24,4; 24,4; 0,0; 0,0;247,5; 81,8
2020-02-25 14:29:59; 10,2; 77; 6,3; 965,6243; 991,1875;3; 24,5; 24,5; 0,0; 0,0;247,5; 81,8
2020-02-25 14:40:00; 9,8; 77; 6,0; 965,0618; 990,6250;3; 24,4; 24,4; 0,0; 0,0;247,5; 81,8
2020-02-25 14:49:59; 9,8; 78; 6,1; 965,0618; 990,6250;3; 24,4; 24,4; 0,0; 0,0;247,5; 81,8
2020-02-25 15:00:00; 9,8; 78; 6,1; 965,1243; 990,6875;3; 24,3; 24,3; 0,0; 0,0;247,5; 81,8
2020-02-25 15:09:59; 9,8; 78; 6,1; 965,1243; 990,6875;3; 24,2; 24,2; 0,0; 0,0;247,5; 81,8
2020-02-25 15:20:00; 9,7; 76; 5,7; 964,6868; 990,2500;3; 24,3; 24,3; 0,0; 0,0;247,5; 81,8
2020-02-25 15:30:00; 9,6; 76; 5,6; 964,6868; 990,2500;3; 24,2; 24,2; 0,0; 0,0;247,5; 81,8
2020-02-25 15:39:59; 9,5; 75; 5,3; 964,9368; 990,5000;3; 24,2; 24,2; 0,0; 0,0;247,5; 81,8
2020-02-25 15:50:00; 9,3; 76; 5,3; 964,9368; 990,5000;3; 24,2; 24,2; 0,0; 0,0;247,5; 81,8
2020-02-25 15:59:59; 9,2; 76; 5,2; 964,9368; 990,5000;3; 24,2; 24,2; 0,0; 0,0;247,5; 81,8
2020-02-25 16:10:00; 9,2; 76; 5,2; 964,9368; 990,5000;3; 24,2; 24,2; 0,0; 0,0;247,5; 81,8
2020-02-25 16:19:59; 9,1; 76; 5,1; 964,6868; 990,2500;3; 24,1; 24,1; 0,0; 0,0;247,5; 81,8
2020-02-25 16:30:00; 9,1; 75; 4,9; 964,6868; 990,2500;3; 24,1; 24,1; 0,0; 0,0;247,5; 81,8
2020-02-25 16:39:59; 8,9; 75; 4,7; 964,5618; 990,1250;3; 24,1; 24,1; 0,0; 0,0;247,5; 81,8
2020-02-25 16:50:00; 8,8; 74; 4,4; 964,5618; 990,1250;3; 24,1; 24,1; 0,0; 0,0;247,5; 81,8
2020-02-25 17:00:00; 8,8; 74; 4,4; 964,7493; 990,3125;3; 24,2; 24,2; 0,0; 0,0;247,5; 81,8
2020-02-25 17:09:59; 8,8; 75; 4,6; 964,7493; 990,3125;3; 24,2; 24,2; 0,0; 0,0;247,5; 81,8
2020-02-25 17:20:00; 8,7; 75; 4,5; 965,5618; 991,1250;3; 24,1; 24,1; 0,0; 0,0;247,5; 81,8
2020-02-25 17:29:59; 8,6; 75; 4,4; 965,5618; 991,1250;3; 24,0; 24,0; 0,0; 0,0;247,5; 81,8
2020-02-25 17:40:00; 8,5; 76; 4,5; 965,0618; 990,6250;3; 24,0; 24,0; 0,0; 0,0;247,5; 81,8
2020-02-25 17:49:59; 8,5; 76; 4,5; 965,0618; 990,6250;3; 23,9; 23,9; 0,0; 0,0;247,5; 81,8
2020-02-25 18:00:00; 8,4; 76; 4,4; 964,7493; 990,3125;3; 23,9; 23,9; 0,0; 0,0;247,5; 81,8
2020-02-25 18:09:59; 8,2; 77; 4,4; 964,7493; 990,3125;3; 23,8; 23,8; 0,0; 0,0;247,5; 81,8
2020-02-25 18:20:00; 7,9; 76; 3,9; 964,1868; 989,7500;3; 23,8; 23,8; 0,0; 0,0;247,5; 81,8
2020-02-25 18:30:00; 7,7; 77; 3,9; 964,1868; 989,7500;3; 23,8; 23,8; 0,0; 0,0;247,5; 81,8
2020-02-25 18:39:59; 7,6; 77; 3,8; 964,3743; 989,9375;3; 23,8; 23,8; 0,0; 0,0;247,5; 81,8
2020-02-25 18:50:00; 7,4; 77; 3,6; 964,3743; 989,9375;3; 23,7; 23,7; 0,0; 0,0;247,5; 81,8
2020-02-25 18:59:59; 7,2; 77; 3,4; 964,0618; 989,6250;3; 23,7; 23,7; 0,0; 0,0;247,5; 81,8
2020-02-25 19:10:00; 7,1; 77; 3,3; 964,0618; 989,6250;3; 23,6; 23,6; 0,0; 0,0;247,5; 81,8
2020-02-25 19:19:59; 6,9; 77; 3,1; 963,8743; 989,4375;3; 23,6; 23,6; 0,0; 0,0;247,5; 81,8
2020-02-25 19:30:00; 6,7; 77; 3,0; 963,8743; 989,4375;3; 23,6; 23,6; 0,0; 0,0;247,5; 81,8
2020-02-25 19:39:59; 6,5; 76; 2,6; 963,8743; 989,4375;3; 23,6; 23,6; 0,0; 0,0;247,5; 81,8
2020-02-25 19:50:00; 6,4; 76; 2,5; 963,8743; 989,4375;3; 23,6; 23,6; 0,0; 0,0;247,5; 81,8
2020-02-25 20:00:00; 6,3; 76; 2,4; 963,9993; 989,5625;3; 23,6; 23,6; 0,0; 0,0;247,5; 81,8
2020-02-25 20:09:59; 6,3; 77; 2,6; 963,9993; 989,5625;3; 23,5; 23,5; 0,0; 0,0;247,5; 81,8
2020-02-25 20:20:00; 6,3; 77; 2,6; 963,9368; 989,5000;3; 23,5; 23,5; 0,0; 0,0;247,5; 81,8
2020-02-25 20:29:59; 6,1; 77; 2,4; 963,9368; 989,5000;3; 23,5; 23,5; 0,0; 0,0;247,5; 81,8
2020-02-25 20:40:00; 6,0; 77; 2,3; 963,4993; 989,0625;3; 23,4; 23,4; 0,0; 0,0;247,5; 81,8
2020-02-25 20:49:59; 5,9; 77; 2,2; 963,4993; 989,0625;3; 23,4; 23,4; 0,0; 0,0;247,5; 81,8
2020-02-25 21:00:00; 5,8; 77; 2,1; 963,2493; 988,8125;3; 23,4; 23,4; 0,0; 0,0;247,5; 81,8
2020-02-25 21:09:59; 5,6; 76; 1,7; 963,2493; 988,8125;3; 23,4; 23,4; 0,0; 0,0;247,5; 81,8
2020-02-25 21:20:00; 5,5; 76; 1,6; 963,6868; 989,2500;3; 23,4; 23,4; 0,0; 0,0;247,5; 81,8
2020-02-25 21:30:00; 5,4; 76; 1,5; 963,6868; 989,2500;3; 23,4; 23,4; 0,0; 0,0;247,5; 81,8
2020-02-25 21:39:59; 5,3; 77; 1,6; 962,8743; 988,4375;3; 23,4; 23,4; 0,0; 0,0;247,5; 81,8
2020-02-25 21:50:00; 5,2; 77; 1,5; 962,8743; 988,4375;3; 23,4; 23,4; 0,0; 0,0;247,5; 81,8
2020-02-25 21:59:59; 5,1; 77; 1,4; 962,5618; 988,1250;3; 23,4; 23,4; 0,0; 0,0;247,5; 81,8
2020-02-25 22:10:00; 5,0; 77; 1,3; 962,5618; 988,1250;3; 23,4; 23,4; 0,0; 0,0;247,5; 81,8
2020-02-25 22:19:59; 4,9; 77; 1,2; 962,4368; 988,0000;3; 23,4; 23,4; 0,0; 0,0;247,5; 81,8
2020-02-25 22:30:00; 4,9; 77; 1,2; 962,4368; 988,0000;3; 23,4; 23,4; 0,0; 0,0;247,5; 81,8
2020-02-25 22:39:59; 4,7; 77; 1,0; 962,2493; 987,8125;3; 23,4; 23,4; 0,0; 0,0;247,5; 81,8
2020-02-25 22:50:00; 4,7; 77; 1,0; 962,2493; 987,8125;3; 23,4; 23,4; 0,0; 0,0;247,5; 81,8
2020-02-25 23:00:00; 4,7; 77; 1,0; 962,1868; 987,7500;3; 23,4; 23,4; 0,0; 0,0;247,5; 81,8
2020-02-25 23:09:59; 4,7; 77; 1,0; 962,1868; 987,7500;3; 23,4; 23,4; 0,0; 0,0;247,5; 81,8
2020-02-25 23:20:00; 4,5; 78; 1,0; 961,7493; 987,3125;3; 23,4; 23,4; 0,0; 0,0;247,5; 81,8
2020-02-25 23:29:59; 4,5; 78; 1,0; 961,7493; 987,3125;3; 23,4; 23,4; 0,0; 0,0;247,5; 81,8
2020-02-25 23:40:00; 4,5; 78; 1,0; 961,7493; 987,3125;3; 23,4; 23,4; 0,0; 0,0;247,5; 81,8
2020-02-25 23:49:59; 4,5; 78; 1,0; 961,7493; 987,3125;3; 23,4; 23,4; 0,0; 0,0;247,5; 81,8
2020-02-26 00:00:00; 4,3; 78; 0,8; 961,4993; 987,0625;3; 23,4; 23,4; 0,0; 0,0;247,5; 81,8
2020-02-26 00:09:59; 4,3; 79; 1,0; 961,4993; 987,0625;3; 23,4; 23,4; 0,0; 0,0;247,5; 81,8
2020-02-26 00:20:00; 4,6; 79; 1,3; 961,3743; 986,9375;3; 23,4; 23,4; 0,0; 0,0;247,5; 81,8
2020-02-26 00:30:00; 4,9; 78; 1,4; 961,3743; 986,9375;3; 23,4; 23,4; 0,0; 0,0;247,5; 81,8
2020-02-26 00:39:59; 5,2; 77; 1,5; 960,9993; 986,5625;3; 23,4; 23,4; 0,0; 0,0;247,5; 81,8
2020-02-26 00:50:00; 5,4; 76; 1,5; 960,9993; 986,5625;3; 23,4; 23,4; 0,0; 0,0;247,5; 81,8
2020-02-26 00:59:59; 5,5; 75; 1,4; 960,6868; 986,2500;3; 23,4; 23,4; 0,0; 0,0;247,5; 81,8
2020-02-26 01:10:00; 5,5; 74; 1,2; 960,6868; 986,2500;3; 23,4; 23,4; 0,0; 0,0;247,5; 81,8
2020-02-26 01:19:59; 5,7; 74; 1,4; 960,4993; 986,0625;3; 23,4; 23,4; 0,0; 0,0;247,5; 81,8
2020-02-26 01:30:00; 5,7; 74; 1,4; 960,4993; 986,0625;3; 23,3; 23,3; 0,0; 0,0;247,5; 81,8
2020-02-26 01:39:59; 5,8; 74; 1,5; 960,1868; 985,7500;3; 23,3; 23,3; 0,0; 0,0;247,5; 81,8
2020-02-26 01:50:00; 4,7; 79; 1,4; 960,1868; 985,7500;3; 23,3; 23,3; 0,0; 0,0;247,5; 81,8
2020-02-26 02:00:00; 4,4; 80; 1,3; 960,6868; 986,2500;3; 23,3; 23,3; 0,0; 0,0;247,5; 81,8
2020-02-26 02:09:59; 4,4; 80; 1,3; 960,6868; 986,2500;3; 23,3; 23,3; 0,0; 0,0;247,5; 81,8
2020-02-26 02:20:00; 4,2; 80; 1,1; 960,5618; 986,1250;3; 23,3; 23,3; 0,0; 0,0;247,5; 81,8
2020-02-26 02:29:59; 4,2; 80; 1,1; 960,5618; 986,1250;3; 23,2; 23,2; 0,0; 0,0;247,5; 81,8
2020-02-26 02:40:00; 4,0; 80; 0,9; 960,5618; 986,1250;3; 23,2; 23,2; 0,0; 0,0;247,5; 81,8
2020-02-26 02:49:59; 3,9; 80; 0,8; 960,5618; 986,1250;3; 23,2; 23,2; 0,0; 0,0;247,5; 81,8
2020-02-26 03:00:00; 3,9; 80; 0,8; 960,5618; 986,1250;3; 23,2; 23,2; 0,0; 0,0;247,5; 81,8
2020-02-26 03:09:59; 3,9; 79; 0,6; 960,5618; 986,1250;3; 23,2; 23,2; 0,0; 0,0;247,5; 81,8
2020-02-26 03:20:00; 3,8; 79; 0,5; 960,6243; 986,1875;3; 23,2; 23,2; 0,0; 0,0;247,5; 81,8
2020-02-26 03:30:00; 3,7; 79; 0,4; 960,6243; 986,1875;3; 23,2; 23,2; 0,0; 0,0;247,5; 81,8
2020-02-26 03:39:59; 3,6; 79; 0,3; 960,6868; 986,2500;3; 23,2; 23,2; 0,0; 0,0;247,5; 81,8
2020-02-26 03:50:00; 3,5; 79; 0,2; 960,6868; 986,2500;3; 23,2; 23,2; 0,0; 0,0;247,5; 81,8
2020-02-26 03:59:59; 3,4; 80; 0,3; 960,5618; 986,1250;3; 23,2; 23,2; 0,0; 0,0;247,5; 81,8
2020-02-26 04:10:00; 3,4; 79; 0,1; 960,5618; 986,1250;3; 23,2; 23,2; 0,0; 0,0;247,5; 81,8
2020-02-26 04:19:59; 3,3; 80; 0,2; 960,4993; 986,0625;3; 23,2; 23,2; 0,0; 0,0;247,5; 81,8
2020-02-26 04:30:00; 3,3; 80; 0,2; 960,4993; 986,0625;3; 23,2; 23,2; 0,0; 0,0;247,5; 81,8
2020-02-26 04:39:59; 3,3; 80; 0,2; 960,5618; 986,1250;3; 23,2; 23,2; 0,0; 0,0;247,5; 81,8
2020-02-26 04:50:00; 3,3; 80; 0,2; 960,5618; 986,1250;3; 23,2; 23,2; 0,0; 0,0;247,5; 81,8
2020-02-26 05:00:00; 3,4; 80; 0,3; 960,4368; 986,0000;3; 23,2; 23,2; 0,0; 0,0;247,5; 81,8
2020-02-26 05:09:59; 3,4; 80; 0,3; 960,4368; 986,0000;3; 23,2; 23,2; 0,0; 0,0;247,5; 81,8
2020-02-26 05:20:00; 3,3; 81; 0,4; 960,0618; 985,6250;3; 23,2; 23,2; 0,0; 0,0;247,5; 81,8
2020-02-26 05:29:59; 3,2; 81; 0,3; 960,0618; 985,6250;3; 23,3; 23,3; 0,0; 0,0;247,5; 81,8
2020-02-26 05:40:00; 3,1; 81; 0,2; 959,9368; 985,5000;3; 23,2; 23,2; 0,0; 0,0;247,5; 81,8
2020-02-26 05:49:59; 2,9; 81; 0,0; 959,9368; 985,5000;3; 23,2; 23,2; 0,0; 0,0;247,5; 81,8
2020-02-26 06:00:00; 2,8; 80; -0,3; 959,8743; 985,4375;1; 23,2; 23,2; 0,0; 0,0;247,5; 81,8
2020-02-26 06:09:59; 2,7; 81; -0,2; 959,8743; 985,4375;1; 23,2; 23,2; 0,0; 0,0;247,5; 81,8
2020-02-26 06:20:00; 2,7; 81; -0,2; 960,1243; 985,6875;1; 23,3; 23,3; 0,0; 0,0;247,5; 81,8
2020-02-26 06:30:00; 2,6; 81; -0,3; 960,1243; 985,6875;1; 23,3; 23,3; 0,0; 0,0;247,5; 81,8
2020-02-26 06:39:59; 2,6; 82; -0,2; 960,0618; 985,6250;1; 23,3; 23,3; 0,0; 0,0;247,5; 81,8
2020-02-26 06:50:00; 2,6; 82; -0,2; 960,0618; 985,6250;1; 23,4; 23,4; 0,0; 0,0;247,5; 81,8
2020-02-26 06:59:59; 2,8; 82; 0,0; 959,9993; 985,5625;1; 23,4; 23,4; 0,0; 0,0;247,5; 81,8
2020-02-26 07:10:00; 3,0; 82; 0,2; 959,9993; 985,5625;1; 23,4; 23,4; 0,0; 0,0;247,5; 81,8
2020-02-26 07:19:59; 3,0; 82; 0,2; 959,9993; 985,5625;3; 23,4; 23,4; 0,0; 0,0;247,5; 81,8
2020-02-26 07:30:00; 3,1; 82; 0,3; 959,9993; 985,5625;3; 23,4; 23,4; 0,0; 0,0;247,5; 81,8
2020-02-26 07:39:59; 3,5; 81; 0,5; 960,1243; 985,6875;3; 23,4; 23,4; 0,0; 0,0;247,5; 81,8
2020-02-26 07:50:00; 3,5; 82; 0,7; 960,1243; 985,6875;3; 23,4; 23,4; 0,0; 0,0;247,5; 81,8
2020-02-26 08:00:00; 3,2; 82; 0,4; 960,5618; 986,1250;3; 23,4; 23,4; 0,0; 0,0;247,5; 82,5
2020-02-26 08:09:59; 2,3; 83; -0,3; 960,5618; 986,1250;3; 23,4; 23,4; 0,0; 0,0;247,5; 82,5
2020-02-26 08:20:00; 2,2; 84; -0,2; 961,1243; 986,6875;1; 23,4; 23,4; 0,0; 0,0;247,5; 82,5
2020-02-26 08:29:59; 2,3; 84; -0,1; 961,1243; 986,6875;1; 23,5; 23,5; 0,0; 0,0;247,5; 82,5
2020-02-26 08:40:00; 2,3; 84; -0,1; 961,2493; 986,8125;1; 23,6; 23,6; 0,0; 0,0;247,5; 82,5
2020-02-26 08:49:59; 2,7; 84; 0,3; 961,2493; 986,8125;1; 23,7; 23,7; 0,0; 0,0;247,5; 82,5
2020-02-26 09:00:00; 3,2; 82; 0,4; 961,3743; 986,9375;1; 23,9; 23,9; 0,0; 0,0;247,5; 82,5
2020-02-26 09:09:59; 3,5; 81; 0,5; 961,3743; 986,9375;1; 24,0; 24,0; 0,0; 0,0;247,5; 82,5
2020-02-26 09:20:00; 3,4; 81; 0,4; 961,9993; 987,5625;3; 24,1; 24,1; 0,0; 0,0;247,5; 82,5
2020-02-26 09:30:00; 3,5; 79; 0,2; 961,9993; 987,5625;3; 24,2; 24,2; 0,0; 0,0;247,5; 82,5
2020-02-26 09:39:59; 4,1; 79; 0,8; 961,9368; 987,5000;3; 24,6; 24,6; 0,0; 0,0;247,5; 82,5
2020-02-26 09:50:00; 4,6; 77; 0,9; 961,9368; 987,5000;3; 25,2; 25,2; 0,0; 0,0;247,5; 82,5
2020-02-26 09:59:59; 5,5; 74; 1,2; 962,3118; 987,8750;3; 25,7; 25,7; 0,0; 0,0;247,5; 82,5
2020-02-26 10:10:00; 5,6; 69; 0,4; 962,3118; 987,8750;3; 26,0; 26,0; 0,0; 0,0;247,5; 82,5
2020-02-26 10:19:59; 5,8; 71; 0,9; 962,7493; 988,3125;4; 26,1; 26,1; 0,0; 0,0;247,5; 82,5
2020-02-26 10:30:00; 6,3; 69; 1,0; 962,7493; 988,3125;4; 26,2; 26,2; 0,0; 0,0;247,5; 82,5
2020-02-26 10:39:59; 6,8; 66; 0,9; 963,6243; 989,1875;4; 26,4; 26,4; 0,0; 0,0;247,5; 82,5
2020-02-26 10:50:00; 7,3; 65; 1,2; 963,6243; 989,1875;4; 26,6; 26,6; 0,0; 0,0;247,5; 82,5
2020-02-26 11:00:00; 7,1; 62; 0,3; 963,2493; 988,8125;4; 26,5; 26,5; 0,0; 0,0;247,5; 82,5
2020-02-26 11:09:59; 7,4; 63; 0,8; 963,2493; 988,8125;4; 26,5; 26,5; 0,0; 0,0;247,5; 82,5
2020-02-26 11:20:00; 7,1; 61; 0,1; 963,3743; 988,9375;4; 26,4; 26,4; 0,0; 0,0;247,5; 82,5
2020-02-26 11:29:59; 7,1; 61; 0,1; 963,3743; 988,9375;4; 26,3; 26,3; 0,0; 0,0;247,5; 82,5
2020-02-26 11:40:00; 6,7; 60; -0,5; 963,3118; 988,8750;4; 26,0; 26,0; 0,0; 0,0;247,5; 82,5
2020-02-26 11:49:59; 6,5; 59; -0,9; 963,3118; 988,8750;4; 25,8; 25,8; 0,0; 0,0;247,5; 82,5
2020-02-26 12:00:00; 6,2; 62; -0,5; 963,4993; 989,0625;4; 25,7; 25,7; 0,0; 0,0;247,5; 82,5
2020-02-26 12:09:59; 5,5; 66; -0,3; 963,4993; 989,0625;4; 25,5; 25,5; 0,0; 0,0;247,5; 82,5
2020-02-26 12:20:00; 5,4; 69; 0,2; 963,4368; 989,0000;4; 25,4; 25,4; 0,0; 0,0;247,5; 82,5
2020-02-26 12:30:00; 5,1; 73; 0,7; 963,4368; 989,0000;4; 25,3; 25,3; 0,0; 0,0;247,5; 82,5
2020-02-26 12:39:59; 5,2; 73; 0,8; 963,4368; 989,0000;4; 25,2; 25,2; 0,0; 0,0;247,5; 82,5
2020-02-26 12:50:00; 5,0; 73; 0,6; 963,4368; 989,0000;4; 25,2; 25,2; 0,0; 0,0;247,5; 82,5
2020-02-26 12:59:59; 4,8; 74; 0,6; 963,2493; 988,8125;4; 25,2; 25,2; 0,0; 0,0;247,5; 82,5
2020-02-26 13:10:00; 4,8; 75; 0,7; 963,2493; 988,8125;4; 25,1; 25,1; 0,0; 0,0;247,5; 82,5
2020-02-26 13:19:59; 4,6; 76; 0,7; 963,4368; 989,0000;4; 25,0; 25,0; 0,0; 0,0;247,5; 83,2
2020-02-26 13:30:00; 4,6; 77; 0,9; 963,4368; 989,0000;4; 24,9; 24,9; 0,0; 0,0;247,5; 83,2
2020-02-26 13:39:59; 4,7; 77; 1,0; 963,4993; 989,0625;4; 25,0; 25,0; 0,0; 0,0;247,5; 83,2
2020-02-26 13:50:00; 4,8; 77; 1,1; 963,4993; 989,0625;4; 25,0; 25,0; 0,0; 0,0;247,5; 83,2
2020-02-26 14:00:00; 5,3; 77; 1,6; 963,4368; 989,0000;4; 25,2; 25,2; 0,0; 0,0;247,5; 83,2
2020-02-26 14:09:59; 5,4; 76; 1,5; 963,4368; 989,0000;4; 25,2; 25,2; 0,0; 0,0;247,5; 83,2
2020-02-26 14:20:00; 5,5; 75; 1,4; 963,9993; 989,5625;4; 25,2; 25,2; 0,0; 0,0;247,5; 83,2
2020-02-26 14:29:59; 5,0; 74; 0,8; 963,9993; 989,5625;4; 25,2; 25,2; 0,0; 0,0;247,5; 83,2
2020-02-26 14:40:00; 4,6; 75; 0,6; 963,9368; 989,5000;4; 25,1; 25,1; 0,0; 0,0;247,5; 83,2
2020-02-26 14:49:59; 3,5; 79; 0,2; 963,9368; 989,5000;4; 25,1; 25,1; 0,0; 0,0;247,5; 83,2
2020-02-26 15:00:00; 3,8; 80; 0,7; 964,2493; 989,8125;4; 25,0; 25,0; 0,0; 0,0;247,5; 83,2
2020-02-26 15:09:59; 4,2; 80; 1,1; 964,2493; 989,8125;4; 24,9; 24,9; 0,0; 0,0;247,5; 83,2
2020-02-26 15:20:00; 4,2; 79; 0,9; 964,3743; 989,9375;4; 24,9; 24,9; 0,0; 0,0;247,5; 83,2
2020-02-26 15:30:00; 4,2; 78; 0,7; 964,3743; 989,9375;4; 24,9; 24,9; 0,0; 0,0;247,5; 83,2
2020-02-26 15:39:59; 4,2; 78; 0,7; 964,6868; 990,2500;4; 24,9; 24,9; 0,0; 0,0;247,5; 83,2
2020-02-26 15:50:00; 4,0; 77; 0,3; 964,6868; 990,2500;4; 24,9; 24,9; 0,0; 0,0;247,5; 83,2
2020-02-26 15:59:59; 4,0; 77; 0,3; 964,8743; 990,4375;4; 24,8; 24,8; 0,0; 0,0;247,5; 83,2
2020-02-26 16:10:00; 3,5; 79; 0,2; 964,8743; 990,4375;4; 24,7; 24,7; 0,0; 0,0;247,5; 83,9
2020-02-26 16:19:59; 2,3; 83; -0,3; 965,3118; 990,8750;4; 24,6; 24,6; 0,0; 0,0;247,5; 83,9
2020-02-26 16:30:00; 2,0; 84; -0,4; 965,3118; 990,8750;4; 24,5; 24,5; 0,0; 0,0;247,5; 83,9
2020-02-26 16:39:59; 1,9; 85; -0,4; 965,5618; 991,1250;4; 24,4; 24,4; 0,0; 0,0;247,5; 83,9
2020-02-26 16:50:00; 2,0; 86; -0,1; 965,5618; 991,1250;4; 24,3; 24,3; 0,0; 0,0;247,5; 83,9
2020-02-26 17:00:00; 2,0; 86; -0,1; 965,0618; 990,6250;4; 24,2; 24,2; 0,0; 0,0;247,5; 84,6
2020-02-26 17:09:59; 2,1; 86; 0,0; 965,0618; 990,6250;4; 24,2; 24,2; 0,0; 0,0;247,5; 84,6
2020-02-26 17:20:00; 2,1; 86; 0,0; 965,8118; 991,3750;4; 24,1; 24,1; 0,0; 0,0;247,5; 84,6
2020-02-26 17:29:59; 2,1; 86; 0,0; 965,8118; 991,3750;4; 24,1; 24,1; 0,0; 0,0;247,5; 84,6
2020-02-26 17:40:00; 2,2; 86; 0,1; 966,4993; 992,0625;4; 24,0; 24,0; 0,0; 0,0;247,5; 84,6
2020-02-26 17:49:59; 2,2; 86; 0,1; 966,4993; 992,0625;4; 24,0; 24,0; 0,0; 0,0;247,5; 84,6
2020-02-26 18:00:00; 2,3; 86; 0,2; 966,4368; 992,0000;4; 24,0; 24,0; 0,0; 0,0;247,5; 84,6
2020-02-26 18:09:59; 2,3; 86; 0,2; 966,4368; 992,0000;4; 24,0; 24,0; 0,0; 0,0;247,5; 84,6
2020-02-26 18:20:00; 2,3; 85; 0,0; 966,6868; 992,2500;4; 24,0; 24,0; 0,0; 0,0;247,5; 84,6
2020-02-26 18:30:00; 2,3; 85; 0,0; 966,6868; 992,2500;4; 23,9; 23,9; 0,0; 0,0;247,5; 84,6
2020-02-26 18:39:59; 2,3; 85; 0,0; 966,9993; 992,5625;4; 23,9; 23,9; 0,0; 0,0;247,5; 84,6
2020-02-26 18:50:00; 2,3; 85; 0,0; 966,9993; 992,5625;4; 23,9; 23,9; 0,0; 0,0;247,5; 84,6
2020-02-26 18:59:59; 2,3; 85; 0,0; 967,3118; 992,8750;4; 23,9; 23,9; 0,0; 0,0;247,5; 84,6
2020-02-26 19:10:00; 2,4; 85; 0,1; 967,3118; 992,8750;4; 23,9; 23,9; 0,0; 0,0;247,5; 84,6
2020-02-26 19:19:59; 2,6; 84; 0,2; 967,1868; 992,7500;4; 23,9; 23,9; 0,0; 0,0;247,5; 84,6
2020-02-26 19:30:00; 2,7; 84; 0,3; 967,1868; 992,7500;4; 23,8; 23,8; 0,0; 0,0;247,5; 84,6
2020-02-26 19:39:59; 2,7; 83; 0,1; 967,2493; 992,8125;4; 23,8; 23,8; 0,0; 0,0;247,5; 84,6
2020-02-26 19:50:00; 2,7; 82; -0,1; 967,2493; 992,8125;4; 23,8; 23,8; 0,0; 0,0;247,5; 84,6
2020-02-26 20:00:00; 2,7; 81; -0,2; 967,4368; 993,0000;4; 23,8; 23,8; 0,0; 0,0;247,5; 84,6
2020-02-26 20:09:59; 2,8; 80; -0,3; 967,4368; 993,0000;4; 23,8; 23,8; 0,0; 0,0;247,5; 84,6
2020-02-26 20:20:00; 2,7; 80; -0,4; 967,6243; 993,1875;4; 23,8; 23,8; 0,0; 0,0;247,5; 84,6
2020-02-26 20:29:59; 2,7; 79; -0,6; 967,6243; 993,1875;4; 23,8; 23,8; 0,0; 0,0;247,5; 84,6
2020-02-26 20:40:00; 2,7; 79; -0,6; 967,5618; 993,1250;4; 23,8; 23,8; 0,0; 0,0;247,5; 84,6
2020-02-26 20:49:59; 2,7; 80; -0,4; 967,5618; 993,1250;4; 23,8; 23,8; 0,0; 0,0;247,5; 84,6
2020-02-26 21:00:00; 2,6; 81; -0,3; 967,7493; 993,3125;4; 23,8; 23,8; 0,0; 0,0;247,5; 84,6
2020-02-26 21:09:59; 2,6; 80; -0,5; 967,7493; 993,3125;4; 23,8; 23,8; 0,0; 0,0;247,5; 84,6
2020-02-26 21:20:00; 2,5; 81; -0,4; 967,9368; 993,5000;4; 23,8; 23,8; 0,0; 0,0;247,5; 84,6
2020-02-26 21:30:00; 2,1; 84; -0,3; 967,9368; 993,5000;4; 23,7; 23,7; 0,0; 0,0;247,5; 84,6
2020-02-26 21:39:59; 2,0; 85; -0,3; 967,8743; 993,4375;4; 23,7; 23,7; 0,0; 0,0;247,5; 84,6
2020-02-26 21:50:00; 1,9; 86; -0,2; 967,8743; 993,4375;4; 23,7; 23,7; 0,0; 0,0;247,5; 84,6
2020-02-26 21:59:59; 1,9; 86; -0,2; 967,9993; 993,5625;4; 23,7; 23,7; 0,0; 0,0;247,5; 84,6
2020-02-26 22:10:00; 1,9; 86; -0,2; 967,9993; 993,5625;4; 23,7; 23,7; 0,0; 0,0;247,5; 84,6
2020-02-26 22:19:59; 1,9; 86; -0,2; 967,9993; 993,5625;4; 23,7; 23,7; 0,0; 0,0;247,5; 84,6
2020-02-26 22:30:00; 1,9; 86; -0,2; 967,9993; 993,5625;4; 23,7; 23,7; 0,0; 0,0;247,5; 84,6
2020-02-26 22:39:59; 1,9; 86; -0,2; 968,0618; 993,6250;4; 23,7; 23,7; 0,0; 0,0;247,5; 84,6
2020-02-26 22:50:00; 2,0; 86; -0,1; 968,0618; 993,6250;4; 23,7; 23,7; 0,0; 0,0;247,5; 84,6
2020-02-26 23:00:00; 2,1; 85; -0,2; 968,4368; 994,0000;5; 23,7; 23,7; 0,0; 0,0;247,5; 84,6
2020-02-26 23:09:59; 2,1; 85; -0,2; 968,4368; 994,0000;5; 23,7; 23,7; 0,0; 0,0;247,5; 84,6
2020-02-26 23:20:00; 2,2; 85; -0,1; 968,6243; 994,1875;5; 23,7; 23,7; 0,0; 0,0;247,5; 84,6
2020-02-26 23:29:59; 2,2; 85; -0,1; 968,6243; 994,1875;5; 23,7; 23,7; 0,0; 0,0;247,5; 84,6
2020-02-26 23:40:00; 2,2; 85; -0,1; 968,6868; 994,2500;5; 23,7; 23,7; 0,0; 0,0;247,5; 84,6
2020-02-26 23:49:59; 2,3; 85; 0,0; 968,6868; 994,2500;5; 23,7; 23,7; 0,0; 0,0;247,5; 84,6
2020-02-27 00:00:00; 2,3; 84; -0,1; 968,9368; 994,5000;5; 23,7; 23,7; 0,0; 0,0;247,5; 84,6
2020-02-27 00:09:59; 2,3; 84; -0,1; 968,9368; 994,5000;5; 23,7; 23,7; 0,0; 0,0;247,5; 84,6
2020-02-27 00:20:00; 2,3; 84; -0,1; 968,9368; 994,5000;5; 23,7; 23,7; 0,0; 0,0;247,5; 84,6
2020-02-27 00:30:00; 2,3; 84; -0,1; 968,9368; 994,5000;5; 23,6; 23,6; 0,0; 0,0;247,5; 84,6
2020-02-27 00:39:59; 2,4; 84; 0,0; 969,1243; 994,6875;5; 23,6; 23,6; 0,0; 0,0;247,5; 84,6
2020-02-27 00:50:00; 2,4; 84; 0,0; 969,1243; 994,6875;5; 23,6; 23,6; 0,0; 0,0;247,5; 84,6
2020-02-27 00:59:59; 2,4; 84; 0,0; 969,1868; 994,7500;5; 23,6; 23,6; 0,0; 0,0;247,5; 84,6
2020-02-27 01:10:00; 2,4; 84; 0,0; 969,1868; 994,7500;5; 23,6; 23,6; 0,0; 0,0;247,5; 84,6
2020-02-27 01:19:59; 2,5; 84; 0,1; 969,2493; 994,8125;5; 23,6; 23,6; 0,0; 0,0;247,5; 84,6
2020-02-27 01:30:00; 2,5; 83; -0,1; 969,2493; 994,8125;5; 23,6; 23,6; 0,0; 0,0;247,5; 84,6
2020-02-27 01:39:59; 2,5; 83; -0,1; 969,2493; 994,8125;5; 23,6; 23,6; 0,0; 0,0;247,5; 84,6
2020-02-27 01:50:00; 2,5; 83; -0,1; 969,2493; 994,8125;5; 23,6; 23,6; 0,0; 0,0;247,5; 84,6
2020-02-27 02:00:00; 2,5; 82; -0,3; 969,3743; 994,9375;5; 23,6; 23,6; 0,0; 0,0;247,5; 84,6
2020-02-27 02:09:59; 2,5; 82; -0,3; 969,3743; 994,9375;5; 23,6; 23,6; 0,0; 0,0;247,5; 84,6
2020-02-27 02:20:00; 2,4; 82; -0,4; 969,4368; 995,0000;5; 23,6; 23,6; 0,0; 0,0;247,5; 84,6
2020-02-27 02:29:59; 2,4; 83; -0,2; 969,4368; 995,0000;5; 23,6; 23,6; 0,0; 0,0;247,5; 84,6
2020-02-27 02:40:00; 2,3; 83; -0,3; 969,4993; 995,0625;5; 23,6; 23,6; 0,0; 0,0;247,5; 84,6
2020-02-27 02:49:59; 2,4; 83; -0,2; 969,4993; 995,0625;5; 23,6; 23,6; 0,0; 0,0;247,5; 84,6
2020-02-27 03:00:00; 2,3; 83; -0,3; 969,6868; 995,2500;5; 23,6; 23,6; 0,0; 0,0;247,5; 84,6
2020-02-27 03:09:59; 2,3; 83; -0,3; 969,6868; 995,2500;5; 23,6; 23,6; 0,0; 0,0;247,5; 84,6
2020-02-27 03:20:00; 2,2; 84; -0,2; 969,8743; 995,4375;5; 23,6; 23,6; 0,0; 0,0;247,5; 84,6
2020-02-27 03:30:00; 2,2; 84; -0,2; 969,8743; 995,4375;5; 23,6; 23,6; 0,0; 0,0;247,5; 84,6
2020-02-27 03:39:59; 2,1; 84; -0,3; 969,8743; 995,4375;5; 23,6; 23,6; 0,0; 0,0;247,5; 84,6
2020-02-27 03:50:00; 2,1; 84; -0,3; 969,8743; 995,4375;5; 23,6; 23,6; 0,0; 0,0;247,5; 84,6
2020-02-27 03:59:59; 2,2; 84; -0,2; 969,9993; 995,5625;5; 23,6; 23,6; 0,0; 0,0;247,5; 84,6
2020-02-27 04:10:00; 2,2; 83; -0,4; 969,9993; 995,5625;5; 23,6; 23,6; 0,0; 0,0;247,5; 84,6
2020-02-27 04:19:59; 2,1; 83; -0,5; 970,0618; 995,6250;5; 23,5; 23,5; 0,0; 0,0;247,5; 84,6
2020-02-27 04:30:00; 2,1; 82; -0,7; 970,0618; 995,6250;5; 23,6; 23,6; 0,0; 0,0;247,5; 84,6
2020-02-27 04:39:59; 2,1; 82; -0,7; 969,9368; 995,5000;5; 23,6; 23,6; 0,0; 0,0;247,5; 84,6
2020-02-27 04:50:00; 2,0; 82; -0,7; 969,9368; 995,5000;5; 23,5; 23,5; 0,0; 0,0;247,5; 84,6
2020-02-27 05:00:00; 2,0; 83; -0,6; 970,1243; 995,6875;5; 23,5; 23,5; 0,0; 0,0;247,5; 84,6
2020-02-27 05:09:59; 2,0; 83; -0,6; 970,1243; 995,6875;5; 23,5; 23,5; 0,0; 0,0;247,5; 84,6
2020-02-27 05:20:00; 2,0; 83; -0,6; 970,1243; 995,6875;5; 23,5; 23,5; 0,0; 0,0;247,5; 84,6
2020-02-27 05:29:59; 1,9; 84; -0,5; 970,1243; 995,6875;5; 23,5; 23,5; 0,0; 0,0;247,5; 84,6
2020-02-27 05:40:00; 1,7; 85; -0,6; 970,3743; 995,9375;5; 23,4; 23,4; 0,0; 0,0;247,5; 84,6
2020-02-27 05:49:59; 1,7; 85; -0,6; 970,3743; 995,9375;5; 23,4; 23,4; 0,0; 0,0;247,5; 85,4
2020-02-27 06:00:00; 1,7; 85; -0,6; 970,4993; 996,0625;5; 23,5; 23,5; 0,0; 0,0;247,5; 85,4
2020-02-27 06:09:59; 1,8; 85; -0,5; 970,4993; 996,0625;5; 23,5; 23,5; 0,0; 0,0;247,5; 85,4
2020-02-27 06:20:00; 1,9; 84; -0,5; 970,4993; 996,0625;5; 23,5; 23,5; 0,0; 0,0;247,5; 85,4
2020-02-27 06:30:00; 2,0; 83; -0,6; 970,4993; 996,0625;5; 23,6; 23,6; 0,0; 0,0;247,5; 85,4
2020-02-27 06:39:59; 2,1; 81; -0,8; 970,5618; 996,1250;5; 23,5; 23,5; 0,0; 0,0;247,5; 85,4
2020-02-27 06:50:00; 2,3; 81; -0,6; 970,5618; 996,1250;5; 23,6; 23,6; 0,0; 0,0;247,5; 85,4
2020-02-27 06:59:59; 2,4; 79; -0,9; 970,5618; 996,1250;5; 23,6; 23,6; 0,0; 0,0;247,5; 85,4
2020-02-27 07:10:00; 2,6; 78; -0,8; 970,5618; 996,1250;5; 23,6; 23,6; 0,0; 0,0;247,5; 85,4
2020-02-27 07:19:59; 2,8; 76; -1,0; 970,7493; 996,3125;5; 23,7; 23,7; 0,0; 0,0;247,5; 85,4
2020-02-27 07:30:00; 3,3; 73; -1,1; 970,7493; 996,3125;5; 23,8; 23,8; 0,0; 0,0;247,5; 85,4
2020-02-27 07:39:59; 3,3; 72; -1,3; 970,8118; 996,3750;5; 23,9; 23,9; 0,0; 0,0;247,5; 85,4
2020-02-27 07:50:00; 3,7; 72; -0,9; 970,8118; 996,3750;5; 24,8; 24,8; 0,0; 0,0;247,5; 85,4
2020-02-27 08:00:00; 4,3; 69; -0,9; 971,3743; 996,9375;5; 25,9; 25,9; 0,0; 0,0;247,5; 85,4
2020-02-27 08:09:59; 4,8; 70; -0,2; 971,3743; 996,9375;5; 26,9; 26,9; 0,0; 0,0;247,5; 85,4
2020-02-27 08:20:00; 5,1; 68; -0,3; 972,4368; 998,0000;5; 27,7; 27,7; 0,0; 0,0;247,5; 85,4
2020-02-27 08:29:59; 5,4; 67; -0,2; 972,4368; 998,0000;5; 28,2; 28,2; 0,0; 0,0;247,5; 85,4
2020-02-27 08:40:00; 5,6; 64; -0,7; 972,8118; 998,3750;5; 28,7; 28,7; 0,0; 0,0;247,5; 85,4
2020-02-27 08:49:59; 5,9; 65; -0,2; 972,8118; 998,3750;5; 29,0; 29,0; 0,0; 0,0;247,5; 85,4
2020-02-27 09:00:00; 6,4; 64; 0,1; 972,9368; 998,5000;5; 29,3; 29,3; 0,0; 0,0;247,5; 85,4
2020-02-27 09:09:59; 6,6; 63; 0,1; 972,9368; 998,5000;5; 29,5; 29,5; 0,0; 0,0;247,5; 85,4
2020-02-27 09:20:00; 6,6; 61; -0,4; 973,1243; 998,6875;5; 29,1; 29,1; 0,0; 0,0;247,5; 85,4
2020-02-27 09:30:00; 5,9; 63; -0,6; 973,1243; 998,6875;5; 28,2; 28,2; 0,0; 0,0;247,5; 85,4
2020-02-27 09:39:59; 5,7; 62; -1,0; 972,3743; 997,9375;5; 27,3; 27,3; 0,0; 0,0;247,5; 85,4
2020-02-27 09:50:00; 5,6; 63; -0,9; 972,3743; 997,9375;5; 26,7; 26,7; 0,0; 0,0;247,5; 85,4
2020-02-27 09:59:59; 5,8; 63; -0,7; 971,8743; 997,4375;5; 26,3; 26,3; 0,0; 0,0;247,5; 85,4
2020-02-27 10:10:00; 6,1; 63; -0,4; 971,8743; 997,4375;5; 26,2; 26,2; 0,0; 0,0;247,5; 85,4
2020-02-27 10:19:59; 6,3; 62; -0,4; 971,3118; 996,8750;5; 26,0; 26,0; 0,0; 0,0;247,5; 85,4
2020-02-27 10:30:00; 5,9; 63; -0,6; 971,3118; 996,8750;5; 25,8; 25,8; 0,0; 0,0;247,5; 85,4
2020-02-27 10:39:59; 6,1; 63; -0,4; 970,9993; 996,5625;5; 25,5; 25,5; 0,0; 0,0;247,5; 85,4
2020-02-27 10:50:00; 6,3; 62; -0,4; 970,9993; 996,5625;5; 25,4; 25,4; 0,0; 0,0;247,5; 85,4
2020-02-27 11:00:00; 6,3; 60; -0,9; 970,5618; 996,1250;5; 25,3; 25,3; 0,0; 0,0;247,5; 85,4
2020-02-27 11:09:59; 6,3; 60; -0,9; 970,5618; 996,1250;5; 25,1; 25,1; 0,0; 0,0;247,5; 85,4
2020-02-27 11:20:00; 6,3; 59; -1,1; 970,1868; 995,7500;5; 25,0; 25,0; 0,0; 0,0;247,5; 85,4
2020-02-27 11:29:59; 6,3; 59; -1,1; 970,1868; 995,7500;5; 25,0; 25,0; 0,0; 0,0;247,5; 85,4
2020-02-27 11:40:00; 6,8; 58; -0,9; 970,2493; 995,8125;5; 25,2; 25,2; 0,0; 0,0;247,5; 85,4
2020-02-27 11:49:59; 6,9; 58; -0,8; 970,2493; 995,8125;5; 25,3; 25,3; 0,0; 0,0;247,5; 85,4
2020-02-27 12:00:00; 6,7; 59; -0,7; 970,3743; 995,9375;5; 25,2; 25,2; 0,0; 0,0;247,5; 85,4
2020-02-27 12:09:59; 6,5; 61; -0,5; 970,3743; 995,9375;5; 25,0; 25,0; 0,0; 0,0;247,5; 85,4
2020-02-27 12:20:00; 6,9; 60; -0,3; 969,5618; 995,1250;5; 25,0; 25,0; 0,0; 0,0;247,5; 85,4
2020-02-27 12:30:00; 6,8; 60; -0,4; 969,5618; 995,1250;5; 25,0; 25,0; 0,0; 0,0;247,5; 85,4
2020-02-27 12:39:59; 6,7; 60; -0,5; 969,0618; 994,6250;5; 24,9; 24,9; 0,0; 0,0;247,5; 85,4
2020-02-27 12:50:00; 6,6; 61; -0,4; 969,0618; 994,6250;5; 24,7; 24,7; 0,0; 0,0;247,5; 85,4
2020-02-27 12:59:59; 6,4; 60; -0,8; 968,4993; 994,0625;5; 24,6; 24,6; 0,0; 0,0;247,5; 85,4
2020-02-27 13:10:00; 6,3; 61; -0,7; 968,4993; 994,0625;5; 24,4; 24,4; 0,0; 0,0;247,5; 85,4
2020-02-27 13:19:59; 6,3; 61; -0,7; 967,8118; 993,3750;5; 24,3; 24,3; 0,0; 0,0;247,5; 85,4
2020-02-27 13:30:00; 6,5; 61; -0,5; 967,8118; 993,3750;5; 24,3; 24,3; 0,0; 0,0;247,5; 85,4
2020-02-27 13:39:59; 6,7; 59; -0,7; 967,2493; 992,8125;5; 24,4; 24,4; 0,0; 0,0;247,5; 85,4
2020-02-27 13:50:00; 6,7; 57; -1,2; 967,2493; 992,8125;5; 24,4; 24,4; 0,0; 0,0;247,5; 85,4
2020-02-27 14:00:00; 6,7; 55; -1,7; 966,8743; 992,4375;5; 24,4; 24,4; 0,0; 0,0;247,5; 85,4
2020-02-27 14:09:59; 6,7; 55; -1,7; 966,8743; 992,4375;5; 24,4; 24,4; 0,0; 0,0;247,5; 85,4
2020-02-27 14:20:00; 6,7; 55; -1,7; 966,4993; 992,0625;5; 24,4; 24,4; 0,0; 0,0;247,5; 85,4
2020-02-27 14:29:59; 6,7; 54; -2,0; 966,4993; 992,0625;5; 24,4; 24,4; 0,0; 0,0;247,5; 85,4
2020-02-27 14:40:00; 6,7; 55; -1,7; 966,3118; 991,8750;5; 24,3; 24,3; 0,0; 0,0;247,5; 85,4
2020-02-27 14:49:59; 6,6; 56; -1,6; 966,3118; 991,8750;5; 24,2; 24,2; 0,0; 0,0;247,5; 85,4
2020-02-27 15:00:00; 6,4; 55; -2,0; 965,8743; 991,4375;5; 24,2; 24,2; 0,0; 0,0;247,5; 85,4
2020-02-27 15:09:59; 6,2; 56; -1,9; 965,8743; 991,4375;5; 24,1; 24,1; 0,0; 0,0;247,5; 85,4
2020-02-27 15:20:00; 6,1; 57; -1,8; 965,4368; 991,0000;4; 24,1; 24,1; 0,0; 0,0;247,5; 85,4
2020-02-27 15:30:00; 6,1; 58; -1,5; 965,4368; 991,0000;4; 24,0; 24,0; 0,0; 0,0;247,5; 85,4
2020-02-27 15:39:59; 6,0; 58; -1,6; 965,2493; 990,8125;4; 24,0; 24,0; 0,0; 0,0;247,5; 85,4
2020-02-27 15:50:00; 5,9; 58; -1,7; 965,2493; 990,8125;4; 24,0; 24,0; 0,0; 0,0;247,5; 85,4
2020-02-27 15:59:59; 5,8; 58; -1,8; 965,0618; 990,6250;4; 24,0; 24,0; 0,0; 0,0;247,5; 85,4
2020-02-27 16:10:00; 5,7; 58; -1,9; 965,0618; 990,6250;4; 24,1; 24,1; 0,0; 0,0;247,5; 85,4
2020-02-27 16:19:59; 5,5; 60; -1,7; 964,9368; 990,5000;4; 24,2; 24,2; 0,0; 0,0;247,5; 85,4
2020-02-27 16:30:00; 5,4; 61; -1,5; 964,9368; 990,5000;4; 24,2; 24,2; 0,0; 0,0;247,5; 85,4
2020-02-27 16:39:59; 5,2; 62; -1,5; 964,4993; 990,0625;4; 24,1; 24,1; 0,0; 0,0;247,5; 85,4
2020-02-27 16:50:00; 5,1; 62; -1,6; 964,4993; 990,0625;4; 24,0; 24,0; 0,0; 0,0;247,5; 85,4
2020-02-27 17:00:00; 4,9; 61; -2,0; 964,2493; 989,8125;4; 24,0; 24,0; 0,0; 0,0;247,5; 85,4
2020-02-27 17:09:59; 4,8; 62; -1,9; 964,2493; 989,8125;4; 23,9; 23,9; 0,0; 0,0;247,5; 85,4
2020-02-27 17:20:00; 4,7; 62; -2,0; 964,2493; 989,8125;4; 23,9; 23,9; 0,0; 0,0;247,5; 85,4
2020-02-27 17:29:59; 4,7; 62; -2,0; 964,2493; 989,8125;4; 23,9; 23,9; 0,0; 0,0;247,5; 85,4
2020-02-27 17:40:00; 4,6; 62; -2,1; 964,2493; 989,8125;4; 23,9; 23,9; 0,0; 0,0;247,5; 85,4
2020-02-27 17:49:59; 4,5; 63; -1,9; 964,2493; 989,8125;4; 23,9; 23,9; 0,0; 0,0;247,5; 85,4
2020-02-27 18:00:00; 4,5; 64; -1,7; 964,3118; 989,8750;4; 23,8; 23,8; 0,0; 0,0;247,5; 85,4
2020-02-27 18:09:59; 4,4; 65; -1,6; 964,3118; 989,8750;4; 23,8; 23,8; 0,0; 0,0;247,5; 85,4
2020-02-27 18:20:00; 4,3; 65; -1,7; 964,0618; 989,6250;4; 23,8; 23,8; 0,0; 0,0;247,5; 85,4
2020-02-27 18:30:00; 4,3; 65; -1,7; 964,0618; 989,6250;4; 23,8; 23,8; 0,0; 0,0;247,5; 85,4
2020-02-27 18:39:59; 4,2; 65; -1,8; 963,8743; 989,4375;4; 23,8; 23,8; 0,0; 0,0;247,5; 85,4
2020-02-27 18:50:00; 4,2; 65; -1,8; 963,8743; 989,4375;4; 23,8; 23,8; 0,0; 0,0;247,5; 85,4
2020-02-27 18:59:59; 4,1; 66; -1,7; 963,7493; 989,3125;4; 23,8; 23,8; 0,0; 0,0;247,5; 85,4
2020-02-27 19:10:00; 4,1; 67; -1,5; 963,7493; 989,3125;4; 23,8; 23,8; 0,0; 0,0;247,5; 85,4
2020-02-27 19:19:59; 4,1; 67; -1,5; 963,5618; 989,1250;4; 23,8; 23,8; 0,0; 0,0;247,5; 85,4
2020-02-27 19:30:00; 4,1; 68; -1,3; 963,5618; 989,1250;4; 23,8; 23,8; 0,0; 0,0;247,5; 85,4
2020-02-27 19:39:59; 4,0; 68; -1,4; 963,8743; 989,4375;4; 23,8; 23,8; 0,0; 0,0;247,5; 85,4
2020-02-27 19:50:00; 3,9; 67; -1,7; 963,8743; 989,4375;4; 23,8; 23,8; 0,0; 0,0;247,5; 85,4
2020-02-27 20:00:00; 3,9; 69; -1,3; 964,3118; 989,8750;4; 23,8; 23,8; 0,0; 0,0;247,5; 85,4
2020-02-27 20:09:59; 3,8; 70; -1,2; 964,3118; 989,8750;4; 23,7; 23,7; 0,0; 0,0;247,5; 85,4
2020-02-27 20:20:00; 3,6; 71; -1,2; 964,4993; 990,0625;4; 23,7; 23,7; 0,0; 0,0;247,5; 85,4
2020-02-27 20:29:59; 3,5; 72; -1,1; 964,4993; 990,0625;4; 23,7; 23,7; 0,0; 0,0;247,5; 85,4
2020-02-27 20:40:00; 3,3; 74; -0,9; 964,9368; 990,5000;4; 23,7; 23,7; 0,0; 0,0;247,5; 85,4
2020-02-27 20:49:59; 3,2; 75; -0,8; 964,9368; 990,5000;4; 23,7; 23,7; 0,0; 0,0;247,5; 85,4
2020-02-27 21:00:00; 3,1; 75; -0,9; 965,2493; 990,8125;4; 23,7; 23,7; 0,0; 0,0;247,5; 85,4
2020-02-27 21:09:59; 2,8; 77; -0,8; 965,2493; 990,8125;4; 23,7; 23,7; 0,0; 0,0;247,5; 85,4
2020-02-27 21:20:00; 2,6; 78; -0,8; 965,3743; 990,9375;4; 23,7; 23,7; 0,0; 0,0;247,5; 85,4
2020-02-27 21:30:00; 2,4; 79; -0,9; 965,3743; 990,9375;4; 23,6; 23,6; 0,0; 0,0;247,5; 85,4
2020-02-27 21:39:59; 2,3; 80; -0,8; 965,6243; 991,1875;4; 23,6; 23,6; 0,0; 0,0;247,5; 85,4
2020-02-27 21:50:00; 2,3; 80; -0,8; 965,6243; 991,1875;4; 23,6; 23,6; 0,0; 0,0;247,5; 85,4
2020-02-27 21:59:59; 2,3; 80; -0,8; 965,9368; 991,5000;4; 23,6; 23,6; 0,0; 0,0;247,5; 85,4
2020-02-27 22:10:00; 2,3; 81; -0,6; 965,9368; 991,5000;4; 23,6; 23,6; 0,0; 0,0;247,5; 85,4
2020-02-27 22:19:59; 2,2; 81; -0,7; 966,3118; 991,8750;4; 23,6; 23,6; 0,0; 0,0;247,5; 85,4
2020-02-27 22:30:00; 2,1; 82; -0,7; 966,3118; 991,8750;4; 23,6; 23,6; 0,0; 0,0;247,5; 86,1
2020-02-27 22:39:59; 1,9; 83; -0,7; 966,6243; 992,1875;4; 23,6; 23,6; 0,0; 0,0;247,5; 86,1
2020-02-27 22:50:00; 1,9; 83; -0,7; 966,6243; 992,1875;4; 23,6; 23,6; 0,0; 0,0;247,5; 86,1
2020-02-27 23:00:00; 1,9; 84; -0,5; 967,0618; 992,6250;4; 23,6; 23,6; 0,0; 0,0;247,5; 86,1
2020-02-27 23:09:59; 1,9; 84; -0,5; 967,0618; 992,6250;4; 23,6; 23,6; 0,0; 0,0;247,5; 86,1
2020-02-27 23:20:00; 2,1; 84; -0,3; 967,4993; 993,0625;4; 23,6; 23,6; 0,0; 0,0;247,5; 86,1
2020-02-27 23:29:59; 2,1; 84; -0,3; 967,4993; 993,0625;4; 23,6; 23,6; 0,0; 0,0;247,5; 86,1
2020-02-27 23:40:00; 2,1; 85; -0,2; 968,1868; 993,7500;4; 23,6; 23,6; 0,0; 0,0;247,5; 86,1
2020-02-27 23:49:59; 2,0; 85; -0,3; 968,1868; 993,7500;4; 23,6; 23,6; 0,0; 0,0;247,5; 86,1
2020-02-28 00:00:00; 1,9; 86; -0,2; 968,6868; 994,2500;5; 23,6; 23,6; 0,0; 0,0;247,5; 86,1
2020-02-28 00:09:59; 1,9; 86; -0,2; 968,6868; 994,2500;5; 23,6; 23,6; 0,0; 0,0;247,5; 86,1
2020-02-28 00:20:00; 1,9; 86; -0,2; 968,8743; 994,4375;5; 23,6; 23,6; 0,0; 0,0;247,5; 86,1
2020-02-28 00:30:00; 1,8; 86; -0,3; 968,8743; 994,4375;5; 23,6; 23,6; 0,0; 0,0;247,5; 86,1
2020-02-28 00:39:59; 1,8; 86; -0,3; 969,6243; 995,1875;5; 23,6; 23,6; 0,0; 0,0;247,5; 86,1
2020-02-28 00:50:00; 1,7; 87; -0,2; 969,6243; 995,1875;5; 23,6; 23,6; 0,0; 0,0;247,5; 86,1
2020-02-28 00:59:59; 1,6; 87; -0,3; 970,1243; 995,6875;5; 23,6; 23,6; 0,0; 0,0;247,5; 86,1
2020-02-28 01:10:00; 1,5; 88; -0,3; 970,1243; 995,6875;5; 23,6; 23,6; 0,0; 0,0;247,5; 86,1
2020-02-28 01:19:59; 1,5; 88; -0,3; 970,4368; 996,0000;5; 23,6; 23,6; 0,0; 0,0;247,5; 86,1
2020-02-28 01:30:00; 1,5; 88; -0,3; 970,4368; 996,0000;5; 23,6; 23,6; 0,0; 0,0;247,5; 86,1
2020-02-28 01:39:59; 1,4; 88; -0,4; 970,8743; 996,4375;5; 23,6; 23,6; 0,0; 0,0;247,5; 86,1
2020-02-28 01:50:00; 1,4; 88; -0,4; 970,8743; 996,4375;5; 23,6; 23,6; 0,0; 0,0;247,5; 86,1
2020-02-28 02:00:00; 1,2; 88; -0,6; 971,3118; 996,8750;5; 23,5; 23,5; 0,0; 0,0;247,5; 86,1
2020-02-28 02:09:59; 1,2; 88; -0,6; 971,3118; 996,8750;5; 23,5; 23,5; 0,0; 0,0;247,5; 86,1
2020-02-28 02:20:00; 1,0; 88; -0,8; 971,7493; 997,3125;5; 23,5; 23,5; 0,0; 0,0;247,5; 86,8
2020-02-28 02:29:59; 0,9; 88; -0,9; 971,7493; 997,3125;5; 23,6; 23,6; 0,0; 0,0;247,5; 86,8
2020-02-28 02:40:00; 0,9; 89; -0,7; 972,1243; 997,6875;5; 23,6; 23,6; 0,0; 0,0;247,5; 86,8
2020-02-28 02:49:59; 1,0; 89; -0,6; 972,1243; 997,6875;5; 23,5; 23,5; 0,0; 0,0;247,5; 86,8
2020-02-28 03:00:00; 1,1; 89; -0,5; 972,6243; 998,1875;5; 23,6; 23,6; 0,0; 0,0;247,5; 86,8
2020-02-28 03:09:59; 1,1; 88; -0,7; 972,6243; 998,1875;5; 23,5; 23,5; 0,0; 0,0;247,5; 86,8
2020-02-28 03:20:00; 1,3; 88; -0,5; 973,1243; 998,6875;5; 23,5; 23,5; 0,0; 0,0;247,5; 86,8
2020-02-28 03:30:00; 1,3; 88; -0,5; 973,1243; 998,6875;5; 23,4; 23,4; 0,0; 0,0;247,5; 86,8
2020-02-28 03:39:59; 1,4; 88; -0,4; 973,5618; 999,1250;5; 23,4; 23,4; 0,0; 0,0;247,5; 86,8
2020-02-28 03:50:00; 1,4; 87; -0,5; 973,5618; 999,1250;5; 23,4; 23,4; 0,0; 0,0;247,5; 86,8
2020-02-28 03:59:59; 1,4; 87; -0,5; 973,1243; 998,6875;5; 23,4; 23,4; 0,0; 0,0;247,5; 86,8
2020-02-28 04:10:00; 1,4; 87; -0,5; 973,1243; 998,6875;5; 23,4; 23,4; 0,0; 0,0;247,5; 86,8
2020-02-28 04:19:59; 1,3; 87; -0,6; 974,0618; 999,6250;6; 23,4; 23,4; 0,0; 0,0;247,5; 86,8
2020-02-28 04:30:00; 1,3; 87; -0,6; 974,0618; 999,6250;6; 23,4; 23,4; 0,0; 0,0;247,5; 86,8
2020-02-28 04:39:59; 1,3; 87; -0,6; 974,3743; 999,9375;6; 23,4; 23,4; 0,0; 0,0;247,5; 86,8
2020-02-28 04:50:00; 1,3; 87; -0,6; 974,3743; 999,9375;6; 23,4; 23,4; 0,0; 0,0;247,5; 86,8
2020-02-28 05:00:00; 1,4; 87; -0,5; 974,8743;1000,4375;6; 23,4; 23,4; 0,0; 0,0;247,5; 86,8
2020-02-28 05:09:59; 1,5; 87; -0,4; 974,8743;1000,4375;6; 23,4; 23,4; 0,0; 0,0;247,5; 86,8
2020-02-28 05:20:00; 1,5; 87; -0,4; 975,2493;1000,8125;6; 23,4; 23,4; 0,0; 0,0;247,5; 86,8
2020-02-28 05:29:59; 1,5; 87; -0,4; 975,2493;1000,8125;6; 23,4; 23,4; 0,0; 0,0;247,5; 86,8
2020-02-28 05:40:00; 1,5; 87; -0,4; 975,5618;1001,1250;6; 23,4; 23,4; 0,0; 0,0;247,5; 86,8
2020-02-28 05:49:59; 1,3; 88; -0,5; 975,5618;1001,1250;6; 23,4; 23,4; 0,0; 0,0;247,5; 86,8
2020-02-28 06:00:00; 1,2; 88; -0,6; 975,9993;1001,5625;6; 23,4; 23,4; 0,0; 0,0;247,5; 87,5
2020-02-28 06:09:59; 1,2; 88; -0,6; 975,9993;1001,5625;6; 23,4; 23,4; 0,0; 0,0;247,5; 87,5
2020-02-28 06:20:00; 1,3; 88; -0,5; 976,1868;1001,7500;6; 23,4; 23,4; 0,0; 0,0;247,5; 87,5
2020-02-28 06:30:00; 1,3; 88; -0,5; 976,1868;1001,7500;6; 23,4; 23,4; 0,0; 0,0;247,5; 87,5
2020-02-28 06:39:59; 1,4; 87; -0,5; 976,4993;1002,0625;6; 23,4; 23,4; 0,0; 0,0;247,5; 87,5
2020-02-28 06:50:00; 1,4; 87; -0,5; 976,4993;1002,0625;6; 23,4; 23,4; 0,0; 0,0;247,5; 87,5
2020-02-28 06:59:59; 1,2; 88; -0,6; 976,8743;1002,4375;6; 23,4; 23,4; 0,0; 0,0;247,5; 87,5
2020-02-28 07:10:00; 1,3; 88; -0,5; 976,8743;1002,4375;6; 23,4; 23,4; 0,0; 0,0;247,5; 87,5
2020-02-28 07:19:59; 1,4; 88; -0,4; 977,2493;1002,8125;6; 23,4; 23,4; 0,0; 0,0;247,5; 87,5
2020-02-28 07:30:00; 1,5; 88; -0,3; 977,2493;1002,8125;6; 23,4; 23,4; 0,0; 0,0;247,5; 88,2
2020-02-28 07:39:59; 1,6; 87; -0,3; 977,3743;1002,9375;6; 23,4; 23,4; 0,0; 0,0;247,5; 88,2
2020-02-28 07:50:00; 1,7; 86; -0,4; 977,3743;1002,9375;6; 23,4; 23,4; 0,0; 0,0;247,5; 88,2
2020-02-28 08:00:00; 1,9; 85; -0,4; 977,7493;1003,3125;6; 23,4; 23,4; 0,0; 0,0;247,5; 88,2
2020-02-28 08:09:59; 2,0; 84; -0,4; 977,7493;1003,3125;6; 23,4; 23,4; 0,0; 0,0;247,5; 88,2
2020-02-28 08:20:00; 2,2; 84; -0,2; 978,1868;1003,7500;6; 23,4; 23,4; 0,0; 0,0;247,5; 88,2
2020-02-28 08:29:59; 2,3; 84; -0,1; 978,1868;1003,7500;6; 23,6; 23,6; 0,0; 0,0;247,5; 88,2
2020-02-28 08:40:00; 2,6; 84; 0,2; 978,7493;1004,3125;6; 23,8; 23,8; 0,0; 0,0;247,5; 88,2
2020-02-28 08:49:59; 2,9; 82; 0,1; 978,7493;1004,3125;6; 24,0; 24,0; 0,0; 0,0;247,5; 88,2
2020-02-28 09:00:00; 3,0; 81; 0,1; 979,3743;1004,9375;6; 24,3; 24,3; 0,0; 0,0;247,5; 88,2
2020-02-28 09:09:59; 3,1; 80; 0,0; 979,3743;1004,9375;6; 24,4; 24,4; 0,0; 0,0;247,5; 88,2
2020-02-28 09:20:00; 3,3; 81; 0,4; 979,5618;1005,1250;6; 24,3; 24,3; 0,0; 0,0;247,5; 88,2
2020-02-28 09:30:00; 3,3; 81; 0,4; 979,5618;1005,1250;6; 24,1; 24,1; 0,0; 0,0;247,5; 88,2
2020-02-28 09:39:59; 3,2; 80; 0,1; 979,6868;1005,2500;6; 24,0; 24,0; 0,0; 0,0;247,5; 88,2
2020-02-28 09:50:00; 3,2; 80; 0,1; 979,6868;1005,2500;6; 23,9; 23,9; 0,0; 0,0;247,5; 88,2
2020-02-28 09:59:59; 3,3; 81; 0,4; 979,7493;1005,3125;6; 23,8; 23,8; 0,0; 0,0;247,5; 88,2
2020-02-28 10:10:00; 3,5; 81; 0,5; 979,7493;1005,3125;6; 23,8; 23,8; 0,0; 0,0;247,5; 88,2
2020-02-28 10:19:59; 3,9; 80; 0,8; 979,8743;1005,4375;6; 23,9; 23,9; 0,0; 0,0;247,5; 88,2
2020-02-28 10:30:00; 3,9; 79; 0,6; 979,8743;1005,4375;6; 24,2; 24,2; 0,0; 0,0;247,5; 88,2
2020-02-28 10:39:59; 4,0; 78; 0,5; 980,6243;1006,1875;6; 24,3; 24,3; 0,0; 0,0;247,5; 88,2
2020-02-28 10:50:00; 4,2; 78; 0,7; 980,6243;1006,1875;6; 24,3; 24,3; 0,0; 0,0;247,5; 88,2
2020-02-28 11:00:00; 4,3; 76; 0,4; 980,8743;1006,4375;6; 24,4; 24,4; 0,0; 0,0;247,5; 88,2
2020-02-28 11:09:59; 4,0; 78; 0,5; 980,8743;1006,4375;6; 24,2; 24,2; 0,0; 0,0;247,5; 88,2
2020-02-28 11:20:00; 4,2; 80; 1,1; 981,1243;1006,6875;6; 24,1; 24,1; 0,0; 0,0;247,5; 88,2
2020-02-28 11:29:59; 4,6; 78; 1,1; 981,1243;1006,6875;6; 24,2; 24,2; 0,0; 0,0;247,5; 88,2
2020-02-28 11:40:00; 4,6; 78; 1,1; 981,1243;1006,6875;6; 24,2; 24,2; 0,0; 0,0;247,5; 88,2
2020-02-28 11:49:59; 4,6; 78; 1,1; 981,1243;1006,6875;6; 24,0; 24,0; 0,0; 0,0;247,5; 88,2
2020-02-28 12:00:00; 4,6; 78; 1,1; 981,1243;1006,6875;6; 24,0; 24,0; 0,0; 0,0;247,5; 88,2
2020-02-28 12:09:59; 4,6; 78; 1,1; 981,1243;1006,6875;6; 24,0; 24,0; 0,0; 0,0;247,5; 88,2
2020-02-28 12:20:00; 4,7; 78; 1,2; 980,9368;1006,5000;6; 23,9; 23,9; 0,0; 0,0;247,5; 88,2
2020-02-28 12:30:00; 5,1; 76; 1,2; 980,9368;1006,5000;6; 24,0; 24,0; 0,0; 0,0;247,5; 88,2
2020-02-28 12:39:59; 5,9; 74; 1,6; 981,2493;1006,8125;6; 24,5; 24,5; 0,0; 0,0;247,5; 88,2
2020-02-28 12:50:00; 6,0; 69; 0,7; 981,2493;1006,8125;6; 24,8; 24,8; 0,0; 0,0;247,5; 88,2
2020-02-28 12:59:59; 6,0; 70; 0,9; 982,1868;1007,7500;6; 24,7; 24,7; 0,0; 0,0;247,5; 88,2
2020-02-28 13:10:00; 6,3; 70; 1,2; 982,1868;1007,7500;6; 24,8; 24,8; 0,0; 0,0;247,5; 88,2
2020-02-28 13:19:59; 5,9; 67; 0,2; 982,0618;1007,6250;6; 24,8; 24,8; 0,0; 0,0;247,5; 88,2
2020-02-28 13:30:00; 6,2; 66; 0,3; 982,0618;1007,6250;6; 24,9; 24,9; 0,0; 0,0;247,5; 88,2
2020-02-28 13:39:59; 6,6; 65; 0,5; 982,0618;1007,6250;6; 25,0; 25,0; 0,0; 0,0;247,5; 88,2
2020-02-28 13:50:00; 6,8; 63; 0,2; 982,0618;1007,6250;6; 25,1; 25,1; 0,0; 0,0;247,5; 88,2
2020-02-28 14:00:00; 6,9; 60; -0,3; 982,0618;1007,6250;6; 25,1; 25,1; 0,0; 0,0;247,5; 88,2
2020-02-28 14:09:59; 6,9; 60; -0,3; 982,0618;1007,6250;6; 25,0; 25,0; 0,0; 0,0;247,5; 88,2
2020-02-28 14:20:00; 6,6; 60; -0,6; 981,8118;1007,3750;6; 24,9; 24,9; 0,0; 0,0;247,5; 88,2
2020-02-28 14:29:59; 6,6; 59; -0,8; 981,8118;1007,3750;6; 24,9; 24,9; 0,0; 0,0;247,5; 88,2
2020-02-28 14:40:00; 6,7; 59; -0,7; 982,0618;1007,6250;6; 24,8; 24,8; 0,0; 0,0;247,5; 88,2
2020-02-28 14:49:59; 6,4; 57; -1,5; 982,0618;1007,6250;6; 24,7; 24,7; 0,0; 0,0;247,5; 88,2
2020-02-28 15:00:00; 6,3; 59; -1,1; 982,8743;1008,4375;6; 24,6; 24,6; 0,0; 0,0;247,5; 88,2
2020-02-28 15:09:59; 6,1; 61; -0,9; 982,8743;1008,4375;6; 24,6; 24,6; 0,0; 0,0;247,5; 88,2
2020-02-28 15:20:00; 5,9; 63; -0,6; 982,1243;1007,6875;6; 24,4; 24,4; 0,0; 0,0;247,5; 88,2
2020-02-28 15:30:00; 5,6; 63; -0,9; 982,1243;1007,6875;6; 24,3; 24,3; 0,0; 0,0;247,5; 88,2
2020-02-28 15:39:59; 5,5; 65; -0,6; 981,7493;1007,3125;6; 24,2; 24,2; 0,0; 0,0;247,5; 88,2
2020-02-28 15:50:00; 5,3; 64; -1,0; 981,7493;1007,3125;6; 24,1; 24,1; 0,0; 0,0;247,5; 88,2
2020-02-28 15:59:59; 5,2; 65; -0,8; 981,4993;1007,0625;6; 24,0; 24,0; 0,0; 0,0;247,5; 88,2
2020-02-28 16:10:00; 4,9; 65; -1,1; 981,4993;1007,0625;6; 24,0; 24,0; 0,0; 0,0;247,5; 88,2
2020-02-28 16:19:59; 4,7; 66; -1,1; 981,2493;1006,8125;6; 23,9; 23,9; 0,0; 0,0;247,5; 88,2
2020-02-28 16:30:00; 4,7; 66; -1,1; 981,2493;1006,8125;6; 23,9; 23,9; 0,0; 0,0;247,5; 88,2
2020-02-28 16:39:59; ; ; ; 981,3118;1006,8750;6; 23,8; 23,8; 0,0; 0,0;247,5; 88,2
2020-02-28 16:50:00; ; ; ; 981,3118;1006,8750;6; 23,8; 23,8; 0,0; 0,0;247,5; 88,2
2020-02-28 17:00:00; ; ; ; 981,3118;1006,8750;6; 23,7; 23,7; 0,0; 0,0;247,5; 88,2
2020-02-28 17:09:59; ; ; ; 981,3118;1006,8750;6; 23,7; 23,7; 0,0; 0,0;247,5; 88,2
2020-02-28 17:20:00; ; ; ; 981,4368;1007,0000;6; 23,6; 23,6; 0,0; 0,0;247,5; 88,2
2020-02-28 17:29:59; ; ; ; 981,4368;1007,0000;6; 23,6; 23,6; 0,0; 0,0;247,5; 88,2
2020-02-28 17:40:00; ; ; ; 981,2493;1006,8125;6; 23,6; 23,6; 0,0; 0,0;247,5; 88,2
2020-02-28 17:49:59; ; ; ; 981,2493;1006,8125;6; 23,6; 23,6; 0,0; 0,0;247,5; 88,2
2020-02-28 18:00:00; ; ; ; 981,0618;1006,6250;6; 23,6; 23,6; 0,0; 0,0;247,5; 88,2
2020-02-28 18:09:59; ; ; ; 981,0618;1006,6250;6; 23,6; 23,6; 0,0; 0,0;247,5; 88,2
2020-02-28 18:20:00; ; ; ; 981,0618;1006,6250;6; 23,5; 23,5; 0,0; 0,0;247,5; 88,2
2020-02-28 18:30:00; ; ; ; 981,0618;1006,6250;6; 23,5; 23,5; 0,0; 0,0;247,5; 88,2
2020-02-28 18:39:59; ; ; ; 981,0618;1006,6250;6; 23,6; 23,6; 0,0; 0,0;247,5; 88,2
2020-02-28 18:50:00; ; ; ; 981,0618;1006,6250;6; 23,5; 23,5; 0,0; 0,0;247,5; 88,2
2020-02-28 18:59:59; ; ; ; 980,9368;1006,5000;5; 23,6; 23,6; 0,0; 0,0;247,5; 88,2
2020-02-28 19:10:00; ; ; ; 980,9368;1006,5000;5; 23,5; 23,5; 0,0; 0,0;247,5; 88,2
2020-02-28 19:19:59; ; ; ; 980,6243;1006,1875;5; 23,5; 23,5; 0,0; 0,0;247,5; 88,2
2020-02-28 19:30:00; ; ; ; 980,6243;1006,1875;5; 23,4; 23,4; 0,0; 0,0;247,5; 88,2
2020-02-28 19:39:59; ; ; ; 980,3118;1005,8750;5; 23,4; 23,4; 0,0; 0,0;247,5; 88,2
2020-02-28 19:50:00; ; ; ; 980,3118;1005,8750;5; 23,4; 23,4; 0,0; 0,0;247,5; 88,2
2020-02-28 20:00:00; ; ; ; 980,0618;1005,6250;5; 23,4; 23,4; 0,0; 0,0;247,5; 88,2
2020-02-28 20:09:59; ; ; ; 980,0618;1005,6250;5; 23,4; 23,4; 0,0; 0,0;247,5; 88,2
2020-02-28 20:20:00; ; ; ; 979,9368;1005,5000;5; 23,4; 23,4; 0,0; 0,0;247,5; 88,2
2020-02-28 20:29:59; ; ; ; 979,9368;1005,5000;5; 23,4; 23,4; 0,0; 0,0;247,5; 88,2
2020-02-28 20:40:00; ; ; ; 979,8118;1005,3750;5; 23,4; 23,4; 0,0; 0,0;247,5; 88,2
2020-02-28 20:49:59; ; ; ; 979,8118;1005,3750;5; 23,4; 23,4; 0,0; 0,0;247,5; 88,2
2020-02-28 21:00:00; ; ; ; 979,3743;1004,9375;5; 23,4; 23,4; 0,0; 0,0;247,5; 88,2
2020-02-28 21:09:59; ; ; ; 979,3743;1004,9375;5; 23,4; 23,4; 0,0; 0,0;247,5; 88,2
2020-02-28 21:20:00; ; ; ; 978,9993;1004,5625;5; 23,4; 23,4; 0,0; 0,0;247,5; 88,2
2020-02-28 21:30:00; ; ; ; 978,9993;1004,5625;5; 23,4; 23,4; 0,0; 0,0;247,5; 88,2
2020-02-28 21:39:59; ; ; ; 978,6243;1004,1875;5; 23,4; 23,4; 0,0; 0,0;247,5; 88,2
2020-02-28 21:50:00; ; ; ; 978,6243;1004,1875;5; 23,4; 23,4; 0,0; 0,0;247,5; 88,2
2020-02-28 21:59:59; ; ; ; 978,3118;1003,8750;5; 23,4; 23,4; 0,0; 0,0;247,5; 88,2
2020-02-28 22:10:00; ; ; ; 978,3118;1003,8750;5; 23,4; 23,4; 0,0; 0,0;247,5; 88,2
2020-02-28 22:19:59; ; ; ; 977,9993;1003,5625;5; 23,4; 23,4; 0,0; 0,0;247,5; 88,2
2020-02-28 22:30:00; ; ; ; 977,9993;1003,5625;5; 23,4; 23,4; 0,0; 0,0;247,5; 88,2
2020-02-28 22:39:59; ; ; ; 977,6868;1003,2500;5; 23,4; 23,4; 0,0; 0,0;247,5; 88,2
2020-02-28 22:50:00; ; ; ; 977,6868;1003,2500;5; 23,4; 23,4; 0,0; 0,0;247,5; 88,2
2020-02-28 23:00:00; ; ; ; 977,1868;1002,7500;5; 23,4; 23,4; 0,0; 0,0;247,5; 88,2
2020-02-28 23:09:59; ; ; ; 977,1868;1002,7500;5; 23,4; 23,4; 0,0; 0,0;247,5; 88,2
2020-02-28 23:20:00; ; ; ; 976,9368;1002,5000;5; 23,4; 23,4; 0,0; 0,0;247,5; 88,2
2020-02-28 23:29:59; ; ; ; 976,9368;1002,5000;5; 23,4; 23,4; 0,0; 0,0;247,5; 88,2
2020-02-28 23:40:00; ; ; ; 976,5618;1002,1250;5; 23,4; 23,4; 0,0; 0,0;247,5; 88,2
2020-02-28 23:49:59; ; ; ; 976,5618;1002,1250;5; 23,4; 23,4; 0,0; 0,0;247,5; 88,2
2020-02-29 00:00:00; ; ; ; 976,3743;1001,9375;5; 23,4; 23,4; 0,0; 0,0;247,5; 88,2
2020-02-29 00:09:59; ; ; ; 976,3743;1001,9375;5; 23,4; 23,4; 0,0; 0,0;247,5; 88,2
2020-02-29 00:20:00; ; ; ; 976,1868;1001,7500;5; 23,4; 23,4; 0,0; 0,0;247,5; 88,2
2020-02-29 00:30:00; ; ; ; 976,1868;1001,7500;5; 23,4; 23,4; 0,0; 0,0;247,5; 88,2
2020-02-29 00:39:59; ; ; ; 975,7493;1001,3125;5; 23,4; 23,4; 0,0; 0,0;247,5; 88,2
2020-02-29 00:50:00; ; ; ; 975,7493;1001,3125;5; 23,4; 23,4; 0,0; 0,0;247,5; 88,2
2020-02-29 00:59:59; ; ; ; 975,1868;1000,7500;5; 23,4; 23,4; 0,0; 0,0;247,5; 88,2
2020-02-29 01:10:00; ; ; ; 975,1868;1000,7500;5; 23,4; 23,4; 0,0; 0,0;247,5; 88,2
2020-02-29 01:19:59; ; ; ; 974,6868;1000,2500;5; 23,4; 23,4; 0,0; 0,0;247,5; 88,2
2020-02-29 01:30:00; ; ; ; 974,6868;1000,2500;5; 23,4; 23,4; 0,0; 0,0;247,5; 88,2
2020-02-29 01:39:59; ; ; ; 974,3118; 999,8750;5; 23,4; 23,4; 0,0; 0,0;247,5; 88,2
2020-02-29 01:50:00; ; ; ; 974,3118; 999,8750;5; 23,4; 23,4; 0,0; 0,0;247,5; 88,2
2020-02-29 02:00:00; ; ; ; 974,4368;1000,0000;5; 23,3; 23,3; 0,0; 0,0;247,5; 88,2
2020-02-29 02:09:59; ; ; ; 974,4368;1000,0000;5; 23,3; 23,3; 0,0; 0,0;247,5; 88,2
2020-02-29 02:20:00; ; ; ; 973,9368; 999,5000;5; 23,3; 23,3; 0,0; 0,0;247,5; 88,2
2020-02-29 02:29:59; ; ; ; 973,9368; 999,5000;5; 23,3; 23,3; 0,0; 0,0;247,5; 88,2
2020-02-29 02:40:00; ; ; ; 973,3118; 998,8750;4; 23,3; 23,3; 0,0; 0,0;247,5; 88,2
2020-02-29 02:49:59; ; ; ; 973,3118; 998,8750;4; 23,2; 23,2; 0,0; 0,0;247,5; 88,2
2020-02-29 03:00:00; ; ; ; 972,8118; 998,3750;4; 23,2; 23,2; 0,0; 0,0;247,5; 88,2
2020-02-29 03:09:59; ; ; ; 972,8118; 998,3750;4; 23,2; 23,2; 0,0; 0,0;247,5; 88,2
2020-02-29 03:20:00; ; ; ; 972,2493; 997,8125;4; 23,2; 23,2; 0,0; 0,0;247,5; 88,2
2020-02-29 03:30:00; ; ; ; 972,2493; 997,8125;4; 23,2; 23,2; 0,0; 0,0;247,5; 88,2
2020-02-29 03:39:59; ; ; ; 971,8118; 997,3750;4; 23,2; 23,2; 0,0; 0,0;247,5; 88,9
2020-02-29 03:50:00; ; ; ; 971,8118; 997,3750;4; 23,2; 23,2; 0,0; 0,0;247,5; 88,9
2020-02-29 03:59:59; ; ; ; 971,4368; 997,0000;4; 23,2; 23,2; 0,0; 0,0;247,5; 88,9
2020-02-29 04:10:00; ; ; ; 971,4368; 997,0000;4; 23,2; 23,2; 0,0; 0,0;247,5; 88,9
2020-02-29 04:19:59; ; ; ; 971,3743; 996,9375;4; 23,2; 23,2; 0,0; 0,0;247,5; 88,9
2020-02-29 04:30:00; ; ; ; 971,3743; 996,9375;4; 23,2; 23,2; 0,0; 0,0;247,5; 89,6
2020-02-29 04:39:59; ; ; ; 971,0618; 996,6250;4; 23,2; 23,2; 0,0; 0,0;247,5; 89,6
2020-02-29 04:50:00; ; ; ; 971,0618; 996,6250;4; 23,2; 23,2; 0,0; 0,0;247,5; 89,6
2020-02-29 05:00:00; ; ; ; 970,4993; 996,0625;4; 23,2; 23,2; 0,0; 0,0;247,5; 89,6
2020-02-29 05:09:59; ; ; ; 970,4993; 996,0625;4; 23,2; 23,2; 0,0; 0,0;247,5; 89,6
2020-02-29 05:20:00; ; ; ; 970,3743; 995,9375;4; 23,2; 23,2; 0,0; 0,0;247,5; 89,6
2020-02-29 05:29:59; ; ; ; 970,3743; 995,9375;4; 23,2; 23,2; 0,0; 0,0;247,5; 89,6
2020-02-29 05:40:00; ; ; ; 969,9993; 995,5625;4; 23,2; 23,2; 0,0; 0,0;247,5; 90,3
2020-02-29 05:49:59; ; ; ; 969,9993; 995,5625;4; 23,2; 23,2; 0,0; 0,0;247,5; 90,3
2020-02-29 06:00:00; ; ; ; 969,9993; 995,5625;4; 23,2; 23,2; 0,0; 0,0;247,5; 91,0
2020-02-29 06:09:59; ; ; ; 969,9993; 995,5625;4; 23,2; 23,2; 0,0; 0,0;247,5; 91,0
2020-02-29 06:20:00; ; ; ; 969,8118; 995,3750;4; 23,2; 23,2; 0,0; 0,0;247,5; 91,0
2020-02-29 06:30:00; ; ; ; 969,8118; 995,3750;4; 23,2; 23,2; 0,0; 0,0;247,5; 91,0
2020-02-29 06:39:59; ; ; ; 969,6243; 995,1875;3; 23,2; 23,2; 0,0; 0,0;247,5; 91,0
2020-02-29 06:50:00; ; ; ; 969,6243; 995,1875;3; 23,2; 23,2; 0,0; 0,0;247,5; 91,0
2020-02-29 06:59:59; ; ; ; 969,6868; 995,2500;3; 23,2; 23,2; 0,0; 0,0;247,5; 91,7
2020-02-29 07:10:00; ; ; ; 969,6868; 995,2500;3; 23,2; 23,2; 0,0; 0,0;247,5; 91,7
2020-02-29 07:19:59; ; ; ; 969,5618; 995,1250;3; 23,2; 23,2; 0,0; 0,0;247,5; 91,7
2020-02-29 07:30:00; ; ; ; 969,5618; 995,1250;3; 23,2; 23,2; 0,0; 0,0;247,5; 91,7
2020-02-29 07:39:59; ; ; ; 969,3743; 994,9375;3; 23,2; 23,2; 0,0; 0,0;247,5; 91,7
2020-02-29 07:50:00; ; ; ; 969,3743; 994,9375;3; 23,2; 23,2; 0,0; 0,0;247,5; 91,7
2020-02-29 08:00:00; ; ; ; 969,2493; 994,8125;3; 23,2; 23,2; 0,0; 0,0;247,5; 92,4
2020-02-29 08:09:59; ; ; ; 969,2493; 994,8125;3; 23,2; 23,2; 0,0; 0,0;247,5; 92,4
2020-02-29 08:20:00; ; ; ; 968,9368; 994,5000;3; 23,3; 23,3; 0,0; 0,0;247,5; 92,4
2020-02-29 08:29:59; ; ; ; 968,9368; 994,5000;3; 23,3; 23,3; 0,0; 0,0;247,5; 92,4
2020-02-29 08:40:00; ; ; ; 968,8743; 994,4375;3; 23,4; 23,4; 0,0; 0,0;247,5; 92,4
2020-02-29 08:49:59; ; ; ; 968,8743; 994,4375;3; 23,4; 23,4; 0,0; 0,0;247,5; 92,4
2020-02-29 09:00:00; ; ; ; 968,5618; 994,1250;3; 23,4; 23,4; 0,0; 0,0;247,5; 92,4
2020-02-29 09:09:59; ; ; ; 968,5618; 994,1250;3; 23,4; 23,4; 0,0; 0,0;247,5; 92,4
2020-02-29 09:20:00; ; ; ; 968,3743; 993,9375;3; 23,6; 23,6; 0,0; 0,0;247,5; 92,4
2020-02-29 09:30:00; ; ; ; 968,3743; 993,9375;3; 23,9; 23,9; 0,0; 0,0;247,5; 92,4
2020-02-29 09:39:59; ; ; ; 968,4993; 994,0625;3; 24,2; 24,2; 0,0; 0,0;247,5; 92,4
2020-02-29 09:50:00; ; ; ; 968,4993; 994,0625;3; 24,4; 24,4; 0,0; 0,0;247,5; 92,4
2020-02-29 09:59:59; ; ; ; 968,3118; 993,8750;3; 24,7; 24,7; 0,0; 0,0;247,5; 92,4
2020-02-29 10:10:00; ; ; ; 968,3118; 993,8750;3; 24,8; 24,8; 0,0; 0,0;247,5; 92,4
2020-02-29 10:19:59; ; ; ; 968,1868; 993,7500;3; 24,7; 24,7; 0,0; 0,0;247,5; 92,4
2020-02-29 10:30:00; ; ; ; 968,1868; 993,7500;3; 24,6; 24,6; 0,0; 0,0;247,5; 92,4
2020-02-29 10:39:59; ; ; ; 967,9993; 993,5625;3; 24,7; 24,7; 0,0; 0,0;247,5; 92,4
2020-02-29 10:50:00; ; ; ; 967,9993; 993,5625;3; 24,8; 24,8; 0,0; 0,0;247,5; 92,4
2020-02-29 11:00:00; ; ; ; 967,5618; 993,1250;3; 24,7; 24,7; 0,0; 0,0;247,5; 92,4
2020-02-29 11:09:59; ; ; ; 967,5618; 993,1250;3; 24,8; 24,8; 0,0; 0,0;247,5; 92,4
2020-02-29 11:20:00; ; ; ; 967,4993; 993,0625;3; 25,1; 25,1; 0,0; 0,0;247,5; 92,4
2020-02-29 11:29:59; ; ; ; 967,4993; 993,0625;3; 25,2; 25,2; 0,0; 0,0;247,5; 92,4
2020-02-29 11:40:00; ; ; ; 967,1243; 992,6875;3; 25,1; 25,1; 0,0; 0,0;247,5; 92,4
2020-02-29 11:49:59; ; ; ; 967,1243; 992,6875;3; 24,9; 24,9; 0,0; 0,0;247,5; 92,4
2020-02-29 12:00:00; ; ; ; 966,8118; 992,3750;3; 24,9; 24,9; 0,0; 0,0;247,5; 92,4
2020-02-29 12:09:59; ; ; ; 966,8118; 992,3750;3; 25,0; 25,0; 0,0; 0,0;247,5; 92,4
2020-02-29 12:20:00; ; ; ; 967,3743; 992,9375;3; 25,1; 25,1; 0,0; 0,0;247,5; 92,4
2020-02-29 12:30:00; ; ; ; 967,3743; 992,9375;3; 25,2; 25,2; 0,0; 0,0;247,5; 92,4
2020-02-29 12:30:59; ; ; ; 967,3743; 992,9375;3; 25,2; 25,2; 0,0; 0,0;247,5; 92,4
2020-02-29 12:38:00; 10,0; 69; 4,6; 967,1868; 992,7500;3; 25,1; 25,1; 0,0; 0,0;247,5; 92,4
2020-02-29 12:47:59; 9,9; 69; 4,5; 967,1868; 992,7500;3; 25,0; 25,0; 0,0; 0,0;247,5; 92,4
2020-02-29 12:57:59; 10,0; 69; 4,6; ; ;3; 24,9; 24,9; 0,0; 0,0;247,5; 92,4
2020-02-29 13:08:00; 10,0; 69; 4,6; ; ;3; 25,0; 25,0; 0,0; 0,0;247,5; 92,4
2020-02-29 13:17:59; ; ; ; 966,0618; 991,6250;3; 25,0; 25,0; 0,0; 0,0;247,5; 92,4
2020-02-29 13:28:00; ; ; ; 966,0618; 991,6250;3; 24,9; 24,9; 0,0; 0,0;247,5; 92,4
2020-02-29 13:37:59; ; ; ; 965,6243; 991,1875;3; 24,9; 24,9; 0,0; 0,0;247,5; 92,4
2020-02-29 13:48:00; ; ; ; 965,6243; 991,1875;3; 24,9; 24,9; 0,0; 0,0;247,5; 92,4
2020-02-29 13:57:59; ; ; ; 965,9993; 991,5625;3; 24,9; 24,9; 0,0; 0,0;247,5; 92,4
2020-02-29 14:08:00; ; ; ; 965,9993; 991,5625;3; 24,9; 24,9; 0,0; 0,0;247,5; 92,4
2020-02-29 14:17:59; ; ; ; 965,0618; 990,6250;3; 24,9; 24,9; 0,0; 0,0;247,5; 92,4
2020-02-29 14:27:59; ; ; ; 965,0618; 990,6250;3; 24,8; 24,8; 0,0; 0,0;247,5; 92,4
2020-02-29 14:38:00; ; ; ; 965,1243; 990,6875;3; 24,7; 24,7; 0,0; 0,0;247,5; 92,4
2020-02-29 14:47:59; ; ; ; 965,1243; 990,6875;3; 24,5; 24,5; 0,0; 0,0;247,5; 92,4
2020-02-29 14:58:00; ; ; ; 964,4368; 990,0000;3; 24,4; 24,4; 0,0; 0,0;247,5; 92,4
2020-02-29 15:07:59; ; ; ; 964,4368; 990,0000;3; 24,2; 24,2; 0,0; 0,0;247,5; 92,4
2020-02-29 15:18:00; ; ; ; 964,1243; 989,6875;3; 24,2; 24,2; 0,0; 0,0;247,5; 92,4
2020-02-29 15:27:59; ; ; ; 964,1243; 989,6875;3; 24,0; 24,0; 0,0; 0,0;247,5; 92,4
2020-02-29 15:38:00; ; ; ; 963,8743; 989,4375;3; 24,0; 24,0; 0,0; 0,0;247,5; 92,4
2020-02-29 15:47:59; ; ; ; 963,8743; 989,4375;3; 23,9; 23,9; 0,0; 0,0;247,5; 92,4
2020-02-29 15:57:59; ; ; ; 963,7493; 989,3125;3; 23,8; 23,8; 0,0; 0,0;247,5; 92,4
2020-02-29 16:08:00; ; ; ; 963,7493; 989,3125;3; 23,8; 23,8; 0,0; 0,0;247,5; 92,4
2020-02-29 16:17:59; ; ; ; 963,4993; 989,0625;3; 23,7; 23,7; 0,0; 0,0;247,5; 92,4
2020-02-29 16:28:00; ; ; ; 963,4993; 989,0625;3; 23,7; 23,7; 0,0; 0,0;247,5; 92,4
2020-02-29 16:37:59; ; ; ; 963,4993; 989,0625;3; 23,6; 23,6; 0,0; 0,0;247,5; 92,4
2020-02-29 16:48:00; ; ; ; 963,4993; 989,0625;3; 23,6; 23,6; 0,0; 0,0;247,5; 92,4
2020-02-29 16:57:59; ; ; ; 963,3118; 988,8750;3; 23,6; 23,6; 0,0; 0,0;247,5; 92,4
2020-02-29 17:08:00; ; ; ; 963,3118; 988,8750;3; 23,6; 23,6; 0,0; 0,0;247,5; 92,4
2020-02-29 17:17:59; ; ; ; 963,1868; 988,7500;3; 23,5; 23,5; 0,0; 0,0;247,5; 92,4
2020-02-29 17:27:59; ; ; ; 963,1868; 988,7500;3; 23,5; 23,5; 0,0; 0,0;247,5; 92,4
2020-02-29 17:38:00; ; ; ; 962,4993; 988,0625;3; 23,6; 23,6; 0,0; 0,0;247,5; 92,4
2020-02-29 17:47:59; ; ; ; 962,4993; 988,0625;3; 23,5; 23,5; 0,0; 0,0;247,5; 92,4
2020-02-29 17:58:00; ; ; ; 962,6868; 988,2500;3; 23,6; 23,6; 0,0; 0,0;247,5; 92,4
2020-02-29 18:07:59; ; ; ; 962,6868; 988,2500;3; 23,5; 23,5; 0,0; 0,0;247,5; 92,4
2020-02-29 18:18:00; ; ; ; 962,3743; 987,9375;3; 23,5; 23,5; 0,0; 0,0;247,5; 92,4
2020-02-29 18:27:59; ; ; ; 962,3743; 987,9375;3; 23,4; 23,4; 0,0; 0,0;247,5; 92,4
2020-02-29 18:38:00; ; ; ; 962,7493; 988,3125;3; 23,4; 23,4; 0,0; 0,0;247,5; 92,4
2020-02-29 18:47:59; ; ; ; 962,7493; 988,3125;3; 23,4; 23,4; 0,0; 0,0;247,5; 92,4
2020-02-29 18:57:59; ; ; ; 962,3743; 987,9375;3; 23,4; 23,4; 0,0; 0,0;247,5; 92,4
2020-02-29 19:08:00; ; ; ; 962,3743; 987,9375;3; 23,4; 23,4; 0,0; 0,0;247,5; 92,4
2020-02-29 19:17:59; ; ; ; 962,3743; 987,9375;3; 23,4; 23,4; 0,0; 0,0;247,5; 92,4
2020-02-29 19:28:00; ; ; ; 962,3743; 987,9375;3; 23,4; 23,4; 0,0; 0,0;247,5; 92,4
2020-02-29 19:37:59; ; ; ; 962,2493; 987,8125;3; 23,4; 23,4; 0,0; 0,0;247,5; 92,4
2020-02-29 19:48:00; ; ; ; 962,2493; 987,8125;3; 23,4; 23,4; 0,0; 0,0;247,5; 92,4
2020-02-29 19:57:59; ; ; ; 962,6243; 988,1875;3; 23,4; 23,4; 0,0; 0,0;247,5; 92,4
2020-02-29 20:08:00; ; ; ; 962,6243; 988,1875;3; 23,4; 23,4; 0,0; 0,0;247,5; 92,4
2020-02-29 20:17:59; ; ; ; 963,0618; 988,6250;3; 23,4; 23,4; 0,0; 0,0;247,5; 92,4
2020-02-29 20:27:59; ; ; ; 963,0618; 988,6250;3; 23,4; 23,4; 0,0; 0,0;247,5; 92,4
2020-02-29 20:38:00; ; ; ; 963,4368; 989,0000;3; 23,4; 23,4; 0,0; 0,0;247,5; 92,4
2020-02-29 20:47:59; ; ; ; 963,4368; 989,0000;3; 23,4; 23,4; 0,0; 0,0;247,5; 92,4
2020-02-29 20:58:00; ; ; ; 963,6243; 989,1875;3; 23,4; 23,4; 0,0; 0,0;247,5; 92,4
2020-02-29 21:07:59; ; ; ; 963,6243; 989,1875;3; 23,4; 23,4; 0,0; 0,0;247,5; 92,4
2020-02-29 21:18:00; ; ; ; 963,9368; 989,5000;3; 23,4; 23,4; 0,0; 0,0;247,5; 92,4
2020-02-29 21:27:59; ; ; ; 963,9368; 989,5000;3; 23,4; 23,4; 0,0; 0,0;247,5; 92,4
2020-02-29 21:38:00; ; ; ; 964,1868; 989,7500;3; 23,4; 23,4; 0,0; 0,0;247,5; 92,4
2020-02-29 21:47:59; ; ; ; 964,1868; 989,7500;3; 23,3; 23,3; 0,0; 0,0;247,5; 92,4
2020-02-29 21:57:59; ; ; ; 964,1243; 989,6875;3; 23,3; 23,3; 0,0; 0,0;247,5; 92,4
2020-02-29 22:08:00; ; ; ; 964,1243; 989,6875;3; 23,3; 23,3; 0,0; 0,0;247,5; 92,4
2020-02-29 22:17:59; ; ; ; 964,4993; 990,0625;3; 23,3; 23,3; 0,0; 0,0;247,5; 92,4
2020-02-29 22:28:00; ; ; ; 964,4993; 990,0625;3; 23,3; 23,3; 0,0; 0,0;247,5; 92,4
2020-02-29 22:37:59; ; ; ; 964,7493; 990,3125;3; 23,3; 23,3; 0,0; 0,0;247,5; 92,4
2020-02-29 22:48:00; ; ; ; 964,7493; 990,3125;3; 23,3; 23,3; 0,0; 0,0;247,5; 92,4
2020-02-29 22:57:59; ; ; ; 964,6868; 990,2500;3; 23,3; 23,3; 0,0; 0,0;247,5; 92,4
2020-02-29 23:08:00; ; ; ; 964,6868; 990,2500;3; 23,3; 23,3; 0,0; 0,0;247,5; 92,4
2020-02-29 23:17:59; ; ; ; 964,8743; 990,4375;3; 23,3; 23,3; 0,0; 0,0;247,5; 92,4
2020-02-29 23:27:59; ; ; ; 964,8743; 990,4375;3; 23,2; 23,2; 0,0; 0,0;247,5; 92,4
2020-02-29 23:38:00; ; ; ; 964,9368; 990,5000;3; 23,2; 23,2; 0,0; 0,0;247,5; 92,4
2020-02-29 23:47:59; ; ; ; 964,9368; 990,5000;3; 23,2; 23,2; 0,0; 0,0;247,5; 92,4
2020-02-29 23:58:00; ; ; ; 965,2493; 990,8125;4; 23,2; 23,2; 0,0; 0,0;247,5; 92,4
2020-03-01 00:07:59; ; ; ; 965,2493; 990,8125;4; 23,2; 23,2; 0,0; 0,0;247,5; 92,4
2020-03-01 00:18:00; ; ; ; 965,4993; 991,0625;4; 23,2; 23,2; 0,0; 0,0;247,5; 92,4
2020-03-01 00:27:59; ; ; ; 965,4993; 991,0625;4; 23,2; 23,2; 0,0; 0,0;247,5; 92,4
2020-03-01 00:38:00; ; ; ; 965,9993; 991,5625;4; 23,2; 23,2; 0,0; 0,0;247,5; 92,4
2020-03-01 00:47:59; ; ; ; 965,9993; 991,5625;4; 23,2; 23,2; 0,0; 0,0;247,5; 92,4
2020-03-01 00:57:59; ; ; ; 965,9368; 991,5000;4; 23,2; 23,2; 0,0; 0,0;247,5; 92,4
2020-03-01 01:08:00; ; ; ; 965,9368; 991,5000;4; 23,2; 23,2; 0,0; 0,0;247,5; 92,4
2020-03-01 01:17:59; ; ; ; 965,9368; 991,5000;4; 23,2; 23,2; 0,0; 0,0;247,5; 92,4
2020-03-01 01:28:00; ; ; ; 965,9368; 991,5000;4; 23,2; 23,2; 0,0; 0,0;247,5; 92,4
2020-03-01 01:37:59; ; ; ; 965,7493; 991,3125;4; 23,2; 23,2; 0,0; 0,0;247,5; 92,4
2020-03-01 01:48:00; ; ; ; 965,7493; 991,3125;4; 23,2; 23,2; 0,0; 0,0;247,5; 92,4
2020-03-01 01:57:59; ; ; ; 965,9993; 991,5625;4; 23,2; 23,2; 0,0; 0,0;247,5; 92,4
2020-03-01 02:08:00; ; ; ; 965,9993; 991,5625;4; 23,1; 23,1; 0,0; 0,0;247,5; 92,4
2020-03-01 02:17:59; ; ; ; 966,0618; 991,6250;4; 23,1; 23,1; 0,0; 0,0;247,5; 92,4
2020-03-01 02:27:59; ; ; ; 966,0618; 991,6250;4; 23,1; 23,1; 0,0; 0,0;247,5; 92,4
2020-03-01 02:38:00; ; ; ; 965,7493; 991,3125;4; 23,1; 23,1; 0,0; 0,0;247,5; 92,4
2020-03-01 02:47:59; ; ; ; 965,7493; 991,3125;4; 23,1; 23,1; 0,0; 0,0;247,5; 92,4
2020-03-01 02:58:00; ; ; ; 965,6868; 991,2500;4; 23,1; 23,1; 0,0; 0,0;247,5; 92,4
2020-03-01 03:07:59; ; ; ; 965,6868; 991,2500;4; 23,1; 23,1; 0,0; 0,0;247,5; 92,4
2020-03-01 03:18:00; ; ; ; 965,8118; 991,3750;4; 23,1; 23,1; 0,0; 0,0;247,5; 92,4
2020-03-01 03:27:59; ; ; ; 965,8118; 991,3750;4; 23,1; 23,1; 0,0; 0,0;247,5; 92,4
2020-03-01 03:38:00; ; ; ; 965,8118; 991,3750;4; 23,1; 23,1; 0,0; 0,0;247,5; 92,4
2020-03-01 03:47:59; ; ; ; 965,8118; 991,3750;4; 23,1; 23,1; 0,0; 0,0;247,5; 92,4
2020-03-01 03:57:59; ; ; ; 965,9993; 991,5625;4; 23,2; 23,2; 0,0; 0,0;247,5; 92,4
2020-03-01 04:08:00; ; ; ; 965,9993; 991,5625;4; 23,2; 23,2; 0,0; 0,0;247,5; 92,4
2020-03-01 04:17:59; ; ; ; 965,9993; 991,5625;4; 23,2; 23,2; 0,0; 0,0;247,5; 92,4
2020-03-01 04:28:00; ; ; ; 965,9993; 991,5625;4; 23,2; 23,2; 0,0; 0,0;247,5; 92,4
2020-03-01 04:37:59; ; ; ; 965,9993; 991,5625;4; 23,2; 23,2; 0,0; 0,0;247,5; 92,4
2020-03-01 04:48:00; ; ; ; 965,9993; 991,5625;4; 23,2; 23,2; 0,0; 0,0;247,5; 92,4
2020-03-01 04:57:59; ; ; ; 966,0618; 991,6250;4; 23,2; 23,2; 0,0; 0,0;247,5; 92,4
2020-03-01 05:08:00; ; ; ; 966,0618; 991,6250;4; 23,1; 23,1; 0,0; 0,0;247,5; 92,4
2020-03-01 05:17:59; ; ; ; 966,2493; 991,8125;4; 23,2; 23,2; 0,0; 0,0;247,5; 92,4
2020-03-01 05:27:59; ; ; ; 966,2493; 991,8125;4; 23,1; 23,1; 0,0; 0,0;247,5; 92,4
2020-03-01 05:38:00; ; ; ; 966,3118; 991,8750;4; 23,1; 23,1; 0,0; 0,0;247,5; 92,4
2020-03-01 05:47:59; ; ; ; 966,3118; 991,8750;4; 23,1; 23,1; 0,0; 0,0;247,5; 92,4
2020-03-01 05:58:00; ; ; ; 966,2493; 991,8125;4; 23,1; 23,1; 0,0; 0,0;247,5; 92,4
2020-03-01 06:07:59; ; ; ; 966,2493; 991,8125;4; 23,1; 23,1; 0,0; 0,0;247,5; 92,4
2020-03-01 06:18:00; ; ; ; ; ;4; 23,1; 23,1; 0,0; 0,0;247,5; 92,4
2020-03-01 06:27:59; ; ; ; ; ;4; 23,2; 23,2; 0,0; 0,0;247,5; 92,4
2020-03-01 06:38:00; ; ; ; 966,3118; 991,8750;4; 23,2; 23,2; 0,0; 0,0;247,5; 92,4
2020-03-01 06:47:59; ; ; ; 966,3118; 991,8750;4; 23,2; 23,2; 0,0; 0,0;247,5; 92,4
2020-03-01 06:57:59; ; ; ; 966,5618; 992,1250;4; 23,2; 23,2; 0,0; 0,0;247,5; 92,4
2020-03-01 07:08:00; ; ; ; 966,5618; 992,1250;4; 23,2; 23,2; 0,0; 0,0;247,5; 92,4
2020-03-01 07:17:59; ; ; ; 966,6868; 992,2500;4; 23,3; 23,3; 0,0; 0,0;247,5; 92,4
2020-03-01 07:28:00; ; ; ; 966,6868; 992,2500;4; 23,3; 23,3; 0,0; 0,0;247,5; 92,4
2020-03-01 07:37:59; ; ; ; 966,4368; 992,0000;4; 23,4; 23,4; 0,0; 0,0;247,5; 92,4
2020-03-01 07:48:00; ; ; ; 966,4368; 992,0000;4; 23,7; 23,7; 0,0; 0,0;247,5; 92,4
2020-03-01 07:57:59; ; ; ; 966,6243; 992,1875;4; 23,8; 23,8; 0,0; 0,0;247,5; 92,4
2020-03-01 08:08:00; ; ; ; 966,6243; 992,1875;4; 23,8; 23,8; 0,0; 0,0;247,5; 92,4
2020-03-01 08:17:59; ; ; ; 966,7493; 992,3125;4; 23,7; 23,7; 0,0; 0,0;247,5; 92,4
2020-03-01 08:27:59; ; ; ; 966,7493; 992,3125;4; 23,6; 23,6; 0,0; 0,0;247,5; 92,4
2020-03-01 08:38:00; ; ; ; 966,8743; 992,4375;4; 24,5; 24,5; 0,0; 0,0;247,5; 92,4
2020-03-01 08:47:59; ; ; ; 966,8743; 992,4375;4; 24,7; 24,7; 0,0; 0,0;247,5; 92,4
2020-03-01 08:58:00; ; ; ; 966,9368; 992,5000;4; 24,4; 24,4; 0,0; 0,0;247,5; 92,4
2020-03-01 09:07:59; ; ; ; 966,9368; 992,5000;4; 24,2; 24,2; 0,0; 0,0;247,5; 92,4
2020-03-01 09:18:00; ; ; ; 966,6868; 992,2500;4; 24,3; 24,3; 0,0; 0,0;247,5; 92,4
2020-03-01 09:27:59; ; ; ; 966,6868; 992,2500;4; 24,5; 24,5; 0,0; 0,0;247,5; 92,4
2020-03-01 09:38:00; ; ; ; 966,7493; 992,3125;4; 25,1; 25,1; 0,0; 0,0;247,5; 92,4
2020-03-01 09:47:59; ; ; ; 966,7493; 992,3125;4; 25,8; 25,8; 0,0; 0,0;247,5; 92,4
2020-03-01 09:57:59; ; ; ; 966,9993; 992,5625;4; 26,3; 26,3; 0,0; 0,0;247,5; 92,4
2020-03-01 10:08:00; ; ; ; 966,9993; 992,5625;4; 26,2; 26,2; 0,0; 0,0;247,5; 92,4
2020-03-01 10:17:59; ; ; ; 967,0618; 992,6250;4; 26,0; 26,0; 0,0; 0,0;247,5; 92,4
2020-03-01 10:28:00; ; ; ; 967,0618; 992,6250;4; 25,7; 25,7; 0,0; 0,0;247,5; 92,4
2020-03-01 10:37:59; ; ; ; 966,8118; 992,3750;4; 25,5; 25,5; 0,0; 0,0;247,5; 92,4
2020-03-01 10:48:00; ; ; ; 966,8118; 992,3750;4; 25,4; 25,4; 0,0; 0,0;247,5; 92,4
2020-03-01 10:57:59; ; ; ; 966,4368; 992,0000;4; 25,3; 25,3; 0,0; 0,0;247,5; 92,4
2020-03-01 11:08:00; ; ; ; 966,4368; 992,0000;4; 25,2; 25,2; 0,0; 0,0;247,5; 92,4
2020-03-01 11:17:59; ; ; ; 966,4368; 992,0000;4; 24,8; 24,8; 0,0; 0,0;247,5; 92,4
2020-03-01 11:27:59; ; ; ; 966,4368; 992,0000;4; 24,6; 24,6; 0,0; 0,0;247,5; 92,4
2020-03-01 11:38:00; ; ; ; 966,0618; 991,6250;4; 24,7; 24,7; 0,0; 0,0;247,5; 92,4
2020-03-01 11:47:59; ; ; ; 966,0618; 991,6250;4; 24,7; 24,7; 0,0; 0,0;247,5; 92,4
2020-03-01 11:58:00; ; ; ; 966,1243; 991,6875;4; 25,0; 25,0; 0,0; 0,0;247,5; 92,4
2020-03-01 12:07:59; ; ; ; 966,1243; 991,6875;4; 25,1; 25,1; 0,0; 0,0;247,5; 92,4
2020-03-01 12:18:00; ; ; ; 966,4993; 992,0625;4; 25,0; 25,0; 0,0; 0,0;247,5; 92,4
2020-03-01 12:27:59; ; ; ; 966,4993; 992,0625;4; 25,2; 25,2; 0,0; 0,0;247,5; 92,4
2020-03-01 12:38:00; ; ; ; 966,9368; 992,5000;4; 25,5; 25,5; 0,0; 0,0;247,5; 92,4
2020-03-01 12:47:59; ; ; ; 966,9368; 992,5000;4; 25,5; 25,5; 0,0; 0,0;247,5; 92,4
2020-03-01 12:57:59; ; ; ; 966,5618; 992,1250;4; 25,3; 25,3; 0,0; 0,0;247,5; 92,4
2020-03-01 13:08:00; ; ; ; 966,5618; 992,1250;4; 25,1; 25,1; 0,0; 0,0;247,5; 92,4
2020-03-01 13:17:59; ; ; ; 965,8118; 991,3750;4; 25,1; 25,1; 0,0; 0,0;247,5; 92,4
2020-03-01 13:28:00; ; ; ; 965,8118; 991,3750;4; 25,2; 25,2; 0,0; 0,0;247,5; 92,4
2020-03-01 13:37:59; ; ; ; 965,6243; 991,1875;4; 25,1; 25,1; 0,0; 0,0;247,5; 92,4
2020-03-01 13:48:00; ; ; ; 965,6243; 991,1875;4; 25,0; 25,0; 0,0; 0,0;247,5; 92,4
2020-03-01 13:57:59; ; ; ; 965,4368; 991,0000;4; 24,9; 24,9; 0,0; 0,0;247,5; 92,4
2020-03-01 14:08:00; ; ; ; 965,4368; 991,0000;4; 24,9; 24,9; 0,0; 0,0;247,5; 92,4
2020-03-01 14:17:59; ; ; ; 965,9368; 991,5000;4; 24,8; 24,8; 0,0; 0,0;247,5; 92,4
2020-03-01 14:27:59; ; ; ; 965,9368; 991,5000;4; 24,8; 24,8; 0,0; 0,0;247,5; 92,4
2020-03-01 14:38:00; ; ; ; 966,0618; 991,6250;4; 24,8; 24,8; 0,0; 0,0;247,5; 92,4
2020-03-01 14:47:59; ; ; ; 966,0618; 991,6250;4; 24,8; 24,8; 0,0; 0,0;247,5; 92,4
2020-03-01 14:58:00; ; ; ; 966,7493; 992,3125;4; 24,6; 24,6; 0,0; 0,0;247,5; 92,4
2020-03-01 15:07:59; ; ; ; 966,7493; 992,3125;4; 24,6; 24,6; 0,0; 0,0;247,5; 92,4
2020-03-01 15:18:00; ; ; ; 965,4993; 991,0625;4; 24,4; 24,4; 0,0; 0,0;247,5; 92,4
2020-03-01 15:27:59; ; ; ; 965,4993; 991,0625;4; 24,4; 24,4; 0,0; 0,0;247,5; 92,4
2020-03-01 15:38:00; ; ; ; 965,3743; 990,9375;4; 24,2; 24,2; 0,0; 0,0;247,5; 92,4
2020-03-01 15:47:59; ; ; ; 965,3743; 990,9375;4; 24,2; 24,2; 0,0; 0,0;247,5; 92,4
2020-03-01 15:57:59; ; ; ; 965,1868; 990,7500;4; 24,1; 24,1; 0,0; 0,0;247,5; 92,4
2020-03-01 16:08:00; ; ; ; 965,1868; 990,7500;4; 24,0; 24,0; 0,0; 0,0;247,5; 92,4
2020-03-01 16:17:59; ; ; ; 964,9993; 990,5625;4; 23,9; 23,9; 0,0; 0,0;247,5; 92,4
2020-03-01 16:28:00; ; ; ; 964,9993; 990,5625;4; 23,9; 23,9; 0,0; 0,0;247,5; 92,4
2020-03-01 16:37:59; ; ; ; 964,8743; 990,4375;4; 23,8; 23,8; 0,0; 0,0;247,5; 92,4
2020-03-01 16:48:00; ; ; ; 964,8743; 990,4375;4; 23,8; 23,8; 0,0; 0,0;247,5; 92,4
2020-03-01 16:57:59; ; ; ; 964,9368; 990,5000;4; 23,7; 23,7; 0,0; 0,0;247,5; 92,4
2020-03-01 17:08:00; ; ; ; 964,9368; 990,5000;4; 23,6; 23,6; 0,0; 0,0;247,5; 92,4
2020-03-01 17:17:59; ; ; ; 964,8118; 990,3750;4; 23,6; 23,6; 0,0; 0,0;247,5; 92,4
2020-03-01 17:27:59; ; ; ; 964,8118; 990,3750;4; 23,6; 23,6; 0,0; 0,0;247,5; 92,4
2020-03-01 17:38:00; ; ; ; 964,7493; 990,3125;4; 23,6; 23,6; 0,0; 0,0;247,5; 92,4
2020-03-01 17:47:59; ; ; ; 964,7493; 990,3125;4; 23,6; 23,6; 0,0; 0,0;247,5; 92,4
2020-03-01 17:58:00; ; ; ; 964,7493; 990,3125;4; 23,5; 23,5; 0,0; 0,0;247,5; 92,4
2020-03-01 18:07:59; ; ; ; 964,7493; 990,3125;4; 23,5; 23,5; 0,0; 0,0;247,5; 92,4
2020-03-01 18:18:00; ; ; ; 964,7493; 990,3125;4; 23,4; 23,4; 0,0; 0,0;247,5; 92,4
2020-03-01 18:27:59; ; ; ; 964,7493; 990,3125;4; 23,4; 23,4; 0,0; 0,0;247,5; 92,4
2020-03-01 18:38:00; ; ; ; 964,6243; 990,1875;4; 23,4; 23,4; 0,0; 0,0;247,5; 92,4
2020-03-01 18:47:59; ; ; ; 964,6243; 990,1875;4; 23,4; 23,4; 0,0; 0,0;247,5; 92,4
2020-03-01 18:57:59; ; ; ; 964,4368; 990,0000;4; 23,4; 23,4; 0,0; 0,0;247,5; 92,4
2020-03-01 19:08:00; ; ; ; 964,4368; 990,0000;4; 23,4; 23,4; 0,0; 0,0;247,5; 92,4
2020-03-01 19:17:59; ; ; ; 964,1868; 989,7500;4; 23,4; 23,4; 0,0; 0,0;247,5; 92,4
2020-03-01 19:28:00; ; ; ; 964,1868; 989,7500;4; 23,4; 23,4; 0,0; 0,0;247,5; 92,4
2020-03-01 19:37:59; ; ; ; 964,2493; 989,8125;4; 23,3; 23,3; 0,0; 0,0;247,5; 92,4
2020-03-01 19:48:00; ; ; ; 964,2493; 989,8125;4; 23,3; 23,3; 0,0; 0,0;247,5; 92,4
2020-03-01 19:57:59; ; ; ; 964,0618; 989,6250;3; 23,3; 23,3; 0,0; 0,0;247,5; 92,4
2020-03-01 20:08:00; ; ; ; 964,0618; 989,6250;3; 23,3; 23,3; 0,0; 0,0;247,5; 92,4
2020-03-01 20:17:59; ; ; ; 963,9993; 989,5625;3; 23,3; 23,3; 0,0; 0,0;247,5; 92,4
2020-03-01 20:27:59; ; ; ; 963,9993; 989,5625;3; 23,3; 23,3; 0,0; 0,0;247,5; 92,4
2020-03-01 20:38:00; ; ; ; 962,9993; 988,5625;3; 23,3; 23,3; 0,0; 0,0;247,5; 92,4
2020-03-01 20:47:59; ; ; ; 962,9993; 988,5625;3; 23,2; 23,2; 0,0; 0,0;247,5; 92,4
2020-03-01 20:58:00; ; ; ; 963,3743; 988,9375;3; 23,2; 23,2; 0,0; 0,0;247,5; 92,4
2020-03-01 21:07:59; ; ; ; 963,3743; 988,9375;3; 23,2; 23,2; 0,0; 0,0;247,5; 92,4
2020-03-01 21:18:00; ; ; ; 963,3118; 988,8750;3; 23,2; 23,2; 0,0; 0,0;247,5; 92,4
2020-03-01 21:27:59; ; ; ; 963,3118; 988,8750;3; 23,2; 23,2; 0,0; 0,0;247,5; 92,4
2020-03-01 21:38:00; ; ; ; 963,2493; 988,8125;3; 23,2; 23,2; 0,0; 0,0;247,5; 92,4
2020-03-01 21:47:59; ; ; ; 963,2493; 988,8125;3; 23,2; 23,2; 0,0; 0,0;247,5; 92,4
2020-03-01 21:57:59; ; ; ; 962,9368; 988,5000;3; 23,2; 23,2; 0,0; 0,0;247,5; 92,4
2020-03-01 22:08:00; ; ; ; 962,9368; 988,5000;3; 23,2; 23,2; 0,0; 0,0;247,5; 92,4
2020-03-01 22:17:59; ; ; ; 962,7493; 988,3125;3; 23,2; 23,2; 0,0; 0,0;247,5; 92,4
2020-03-01 22:28:00; ; ; ; 962,7493; 988,3125;3; 23,2; 23,2; 0,0; 0,0;247,5; 92,4
2020-03-01 22:37:59; ; ; ; 962,3118; 987,8750;3; 23,2; 23,2; 0,0; 0,0;247,5; 92,4
2020-03-01 22:48:00; ; ; ; 962,3118; 987,8750;3; 23,2; 23,2; 0,0; 0,0;247,5; 92,4
2020-03-01 22:57:59; ; ; ; 962,0618; 987,6250;3; 23,2; 23,2; 0,0; 0,0;247,5; 92,4
2020-03-01 23:08:00; ; ; ; 962,0618; 987,6250;3; 23,2; 23,2; 0,0; 0,0;247,5; 92,4
2020-03-01 23:17:59; ; ; ; 960,8743; 986,4375;3; 23,2; 23,2; 0,0; 0,0;247,5; 92,4
2020-03-01 23:27:59; ; ; ; 960,8743; 986,4375;3; 23,2; 23,2; 0,0; 0,0;247,5; 92,4
2020-03-01 23:38:00; ; ; ; 961,3118; 986,8750;3; 23,2; 23,2; 0,0; 0,0;247,5; 92,4
2020-03-01 23:47:59; ; ; ; 961,3118; 986,8750;3; 23,2; 23,2; 0,0; 0,0;247,5; 92,4
2020-03-01 23:58:00; ; ; ; 961,0618; 986,6250;3; 23,2; 23,2; 0,0; 0,0;247,5; 92,4
2020-03-02 00:07:59; ; ; ; 961,0618; 986,6250;3; 23,2; 23,2; 0,0; 0,0;247,5; 92,4
2020-03-02 00:18:00; ; ; ; 960,5618; 986,1250;3; 23,2; 23,2; 0,0; 0,0;247,5; 92,4
2020-03-02 00:27:59; ; ; ; 960,5618; 986,1250;3; 23,2; 23,2; 0,0; 0,0;247,5; 92,4
2020-03-02 00:38:00; ; ; ; 960,8118; 986,3750;3; 23,2; 23,2; 0,0; 0,0;247,5; 92,4
2020-03-02 00:47:59; ; ; ; 960,8118; 986,3750;3; 23,2; 23,2; 0,0; 0,0;247,5; 92,4
2020-03-02 00:57:59; ; ; ; 960,6868; 986,2500;3; 23,2; 23,2; 0,0; 0,0;247,5; 92,4
2020-03-02 01:08:00; ; ; ; 960,6868; 986,2500;3; 23,2; 23,2; 0,0; 0,0;247,5; 92,4
2020-03-02 01:17:59; ; ; ; 960,8118; 986,3750;3; 23,2; 23,2; 0,0; 0,0;247,5; 92,4
2020-03-02 01:28:00; ; ; ; 960,8118; 986,3750;3; 23,2; 23,2; 0,0; 0,0;247,5; 92,4
2020-03-02 01:37:59; ; ; ; 960,8118; 986,3750;3; 23,2; 23,2; 0,0; 0,0;247,5; 92,4
2020-03-02 01:48:00; ; ; ; 960,8118; 986,3750;3; 23,2; 23,2; 0,0; 0,0;247,5; 92,4
2020-03-02 01:57:59; ; ; ; 960,6868; 986,2500;3; 23,2; 23,2; 0,0; 0,0;247,5; 92,4
2020-03-02 02:08:00; ; ; ; 960,6868; 986,2500;3; 23,2; 23,2; 0,0; 0,0;247,5; 92,4
2020-03-02 02:17:59; ; ; ; 960,3118; 985,8750;3; 23,2; 23,2; 0,0; 0,0;247,5; 92,4
2020-03-02 02:27:59; ; ; ; 960,3118; 985,8750;3; 23,2; 23,2; 0,0; 0,0;247,5; 92,4
2020-03-02 02:38:00; ; ; ; 960,3743; 985,9375;3; 23,2; 23,2; 0,0; 0,0;247,5; 92,4
2020-03-02 02:47:59; ; ; ; 960,3743; 985,9375;3; 23,2; 23,2; 0,0; 0,0;247,5; 92,4
2020-03-02 02:58:00; ; ; ; 960,6243; 986,1875;3; 23,2; 23,2; 0,0; 0,0;247,5; 92,4
2020-03-02 03:07:59; ; ; ; 960,6243; 986,1875;3; 23,2; 23,2; 0,0; 0,0;247,5; 92,4
2020-03-02 03:18:00; ; ; ; 960,6243; 986,1875;3; 23,2; 23,2; 0,0; 0,0;247,5; 92,4
2020-03-02 03:27:59; ; ; ; 960,6243; 986,1875;3; 23,2; 23,2; 0,0; 0,0;247,5; 92,4
2020-03-02 03:38:00; ; ; ; 960,3743; 985,9375;3; 23,2; 23,2; 0,0; 0,0;247,5; 92,4
2020-03-02 03:47:59; ; ; ; 960,3743; 985,9375;3; 23,2; 23,2; 0,0; 0,0;247,5; 92,4
2020-03-02 03:57:59; ; ; ; 960,4368; 986,0000;3; 23,2; 23,2; 0,0; 0,0;247,5; 92,4
2020-03-02 04:08:00; ; ; ; 960,4368; 986,0000;3; 23,2; 23,2; 0,0; 0,0;247,5; 92,4
2020-03-02 04:17:59; ; ; ; 960,3118; 985,8750;3; 23,2; 23,2; 0,0; 0,0;247,5; 92,4
2020-03-02 04:28:00; ; ; ; 960,3118; 985,8750;3; 23,2; 23,2; 0,0; 0,0;247,5; 92,4
2020-03-02 04:37:59; ; ; ; 960,1868; 985,7500;3; 23,2; 23,2; 0,0; 0,0;247,5; 92,4
2020-03-02 04:48:00; ; ; ; 960,1868; 985,7500;3; 23,2; 23,2; 0,0; 0,0;247,5; 92,4
2020-03-02 04:57:59; ; ; ; 960,3743; 985,9375;3; 23,2; 23,2; 0,0; 0,0;247,5; 92,4
2020-03-02 05:08:00; ; ; ; 960,3743; 985,9375;3; 23,2; 23,2; 0,0; 0,0;247,5; 92,4
2020-03-02 05:17:59; ; ; ; 959,8118; 985,3750;3; 23,1; 23,1; 0,0; 0,0;247,5; 92,4
2020-03-02 05:27:59; ; ; ; 959,8118; 985,3750;3; 23,1; 23,1; 0,0; 0,0;247,5; 92,4
2020-03-02 05:38:00; ; ; ; 960,5618; 986,1250;3; 23,1; 23,1; 0,0; 0,0;247,5; 92,4
2020-03-02 05:47:59; ; ; ; 960,5618; 986,1250;3; 23,1; 23,1; 0,0; 0,0;247,5; 92,4
2020-03-02 05:58:00; ; ; ; 960,8118; 986,3750;3; 23,1; 23,1; 0,0; 0,0;247,5; 92,4
2020-03-02 06:07:59; ; ; ; 960,8118; 986,3750;3; 23,1; 23,1; 0,0; 0,0;247,5; 92,4
2020-03-02 06:18:00; ; ; ; 960,4993; 986,0625;3; 23,1; 23,1; 0,0; 0,0;247,5; 92,4
2020-03-02 06:27:59; ; ; ; 960,4993; 986,0625;3; 23,1; 23,1; 0,0; 0,0;247,5; 92,4
2020-03-02 06:38:00; ; ; ; 961,1868; 986,7500;3; 23,1; 23,1; 0,0; 0,0;247,5; 92,4
2020-03-02 06:47:59; ; ; ; 961,1868; 986,7500;3; 23,1; 23,1; 0,0; 0,0;247,5; 92,4
2020-03-02 06:57:59; ; ; ; 961,3743; 986,9375;3; 23,1; 23,1; 0,0; 0,0;247,5; 92,4
2020-03-02 07:08:00; ; ; ; 961,3743; 986,9375;3; 23,2; 23,2; 0,0; 0,0;247,5; 92,4
2020-03-02 07:17:59; ; ; ; 961,6243; 987,1875;3; 23,2; 23,2; 0,0; 0,0;247,5; 92,4
2020-03-02 07:28:00; ; ; ; 961,6243; 987,1875;3; 23,3; 23,3; 0,0; 0,0;247,5; 92,4
2020-03-02 07:37:59; ; ; ; 961,7493; 987,3125;3; 23,6; 23,6; 0,0; 0,0;247,5; 92,4
2020-03-02 07:48:00; ; ; ; 961,7493; 987,3125;3; 24,6; 24,6; 0,0; 0,0;247,5; 92,4
2020-03-02 07:57:59; ; ; ; 962,4368; 988,0000;3; 24,8; 24,8; 0,0; 0,0;247,5; 92,4
2020-03-02 08:08:00; ; ; ; 962,4368; 988,0000;3; 24,5; 24,5; 0,0; 0,0;247,5; 92,4
2020-03-02 08:17:59; ; ; ; 962,4368; 988,0000;3; 24,3; 24,3; 0,0; 0,0;247,5; 92,4
2020-03-02 08:27:59; ; ; ; 962,4368; 988,0000;3; 24,2; 24,2; 0,0; 0,0;247,5; 92,4
2020-03-02 08:38:00; ; ; ; 962,4368; 988,0000;3; 24,1; 24,1; 0,0; 0,0;247,5; 92,4
2020-03-02 08:47:59; ; ; ; 962,4368; 988,0000;3; 24,0; 24,0; 0,0; 0,0;247,5; 92,4
2020-03-02 08:58:00; ; ; ; 962,7493; 988,3125;4; 24,1; 24,1; 0,0; 0,0;247,5; 92,4
2020-03-02 09:07:59; ; ; ; 962,7493; 988,3125;4; 24,2; 24,2; 0,0; 0,0;247,5; 92,4
2020-03-02 09:18:00; ; ; ; 962,8118; 988,3750;4; 24,4; 24,4; 0,0; 0,0;247,5; 92,4
2020-03-02 09:27:59; ; ; ; 962,8118; 988,3750;4; 24,4; 24,4; 0,0; 0,0;247,5; 92,4
2020-03-02 09:38:00; ; ; ; 963,0618; 988,6250;4; 24,6; 24,6; 0,0; 0,0;247,5; 92,4
2020-03-02 09:47:59; ; ; ; 963,0618; 988,6250;4; 24,5; 24,5; 0,0; 0,0;247,5; 92,4
2020-03-02 09:57:59; ; ; ; 962,6868; 988,2500;4; 24,4; 24,4; 0,0; 0,0;247,5; 92,4
2020-03-02 10:08:00; ; ; ; 962,6868; 988,2500;4; 24,6; 24,6; 0,0; 0,0;247,5; 92,4
2020-03-02 10:17:59; ; ; ; 963,3118; 988,8750;4; 24,8; 24,8; 0,0; 0,0;247,5; 92,4
2020-03-02 10:28:00; ; ; ; 963,3118; 988,8750;4; 24,9; 24,9; 0,0; 0,0;247,5; 92,4
2020-03-02 10:37:59; ; ; ; 963,7493; 989,3125;4; 24,9; 24,9; 0,0; 0,0;247,5; 92,4
2020-03-02 10:48:00; ; ; ; 963,7493; 989,3125;4; 25,0; 25,0; 0,0; 0,0;247,5; 92,4
2020-03-02 10:57:59; ; ; ; 963,6868; 989,2500;4; 25,3; 25,3; 0,0; 0,0;247,5; 92,4
2020-03-02 11:08:00; ; ; ; 963,6868; 989,2500;4; 25,8; 25,8; 0,0; 0,0;247,5; 92,4
2020-03-02 11:17:59; ; ; ; 964,0618; 989,6250;4; 25,8; 25,8; 0,0; 0,0;247,5; 92,4
2020-03-02 11:27:59; ; ; ; 964,0618; 989,6250;4; 25,6; 25,6; 0,0; 0,0;247,5; 92,4
2020-03-02 11:38:00; ; ; ; 963,7493; 989,3125;4; 25,3; 25,3; 0,0; 0,0;247,5; 92,4
2020-03-02 11:47:59; ; ; ; 963,7493; 989,3125;4; 25,1; 25,1; 0,0; 0,0;247,5; 92,4
2020-03-02 11:58:00; ; ; ; 963,7493; 989,3125;4; 24,9; 24,9; 0,0; 0,0;247,5; 92,4
2020-03-02 11:58:59; ; ; ; 963,7493; 989,3125;4; 24,9; 24,9; 0,0; 0,0;247,5; 92,4
2020-03-02 12:05:00; 9,6; 56; 1,2; 963,7493; 989,3125;4; 24,7; 24,7; 0,0; 0,0;247,5; 92,4
2020-03-02 12:14:59; 9,7; 57; 1,6; 963,3743; 988,9375;4; 24,7; 24,7; 0,0; 0,0;247,5; 92,4
2020-03-02 12:25:00; 10,2; 55; 1,6; 963,3743; 988,9375;4; 25,0; 25,0; 0,0; 0,0;247,5; 92,4
2020-03-02 12:34:59; 9,9; 53; 0,8; 963,8743; 989,4375;4; 25,3; 25,3; 0,0; 0,0;247,5; 92,4
2020-03-02 12:45:00; 10,1; 55; 1,5; 963,8743; 989,4375;4; 25,3; 25,3; 0,0; 0,0;247,5; 92,4
2020-03-02 12:54:59; 11,0; 52; 1,5; 964,0618; 989,6250;4; 25,6; 25,6; 0,0; 0,0;247,5; 92,4
2020-03-02 13:05:00; 10,9; 53; 1,7; 964,0618; 989,6250;4; 25,8; 25,8; 0,0; 0,0;247,5; 92,4
2020-03-02 13:15:00; 10,8; 51; 1,1; 963,8118; 989,3750;4; 25,8; 25,8; 0,0; 0,0;247,5; 92,4
2020-03-02 13:24:59; 11,0; 51; 1,2; 963,8118; 989,3750;4; 25,8; 25,8; 0,0; 0,0;247,5; 92,4
2020-03-02 13:35:00; 11,1; 51; 1,3; 963,0618; 988,6250;4; 25,8; 25,8; 0,0; 0,0;247,5; 92,4
2020-03-02 13:44:59; 11,6; 51; 1,8; 963,0618; 988,6250;4; 25,8; 25,8; 0,0; 0,0;247,5; 92,4
2020-03-02 13:55:00; 11,9; 50; 1,8; 962,8118; 988,3750;4; 25,7; 25,7; 0,0; 0,0;247,5; 92,4
2020-03-02 14:04:59; 11,9; 49; 1,5; 962,8118; 988,3750;4; 25,6; 25,6; 0,0; 0,0;247,5; 92,4
2020-03-02 14:15:00; 11,8; 50; 1,7; 962,4993; 988,0625;4; 25,5; 25,5; 0,0; 0,0;247,5; 92,4
2020-03-02 14:24:59; 11,9; 50; 1,8; 962,4993; 988,0625;4; 25,5; 25,5; 0,0; 0,0;247,5; 92,4
2020-03-02 14:35:00; 11,6; 50; 1,5; 962,9368; 988,5000;4; 25,3; 25,3; 0,0; 0,0;247,5; 92,4
2020-03-02 14:45:00; 11,4; 50; 1,3; 962,9368; 988,5000;4; 25,2; 25,2; 0,0; 0,0;247,5; 92,4
2020-03-02 14:54:59; 11,0; 51; 1,2; 963,4368; 989,0000;4; 25,1; 25,1; 0,0; 0,0;247,5; 92,4
2020-03-02 15:05:00; 10,7; 52; 1,2; 963,4368; 989,0000;4; 25,0; 25,0; 0,0; 0,0;247,5; 92,4
2020-03-02 15:14:59; 10,5; 53; 1,3; 962,6868; 988,2500;4; 24,9; 24,9; 0,0; 0,0;247,5; 92,4
2020-03-02 15:25:00; 10,4; 53; 1,2; 962,6868; 988,2500;4; 24,8; 24,8; 0,0; 0,0;247,5; 92,4
2020-03-02 15:34:59; 10,2; 54; 1,3; 961,4993; 987,0625;3; 24,7; 24,7; 0,0; 0,0;247,5; 92,4
2020-03-02 15:45:00; 9,9; 53; 0,8; 961,4993; 987,0625;3; 24,6; 24,6; 0,0; 0,0;247,5; 92,4
2020-03-02 15:54:59; 9,7; 54; 0,8; 961,0618; 986,6250;3; 24,4; 24,4; 0,0; 0,0;247,5; 92,4
2020-03-02 16:05:00; 9,5; 55; 0,9; 961,0618; 986,6250;3; 24,3; 24,3; 0,0; 0,0;247,5; 92,4
2020-03-02 16:15:00; 9,3; 56; 1,0; 960,9368; 986,5000;3; 24,2; 24,2; 0,0; 0,0;247,5; 92,4
2020-03-02 16:24:59; 9,0; 57; 0,9; 960,9368; 986,5000;3; 24,2; 24,2; 0,0; 0,0;247,5; 92,4
2020-03-02 16:35:00; 8,8; 57; 0,7; 961,2493; 986,8125;3; 24,1; 24,1; 0,0; 0,0;247,5; 92,4
2020-03-02 16:44:59; 8,5; 57; 0,5; 961,2493; 986,8125;3; 24,0; 24,0; 0,0; 0,0;247,5; 92,4
2020-03-02 16:55:00; 8,3; 58; 0,5; 961,2493; 986,8125;3; 24,0; 24,0; 0,0; 0,0;247,5; 92,4
2020-03-02 17:04:59; 8,2; 59; 0,7; 961,2493; 986,8125;3; 23,9; 23,9; 0,0; 0,0;247,5; 92,4
2020-03-02 17:15:00; 7,9; 59; 0,4; 961,1243; 986,6875;3; 23,9; 23,9; 0,0; 0,0;247,5; 92,4
2020-03-02 17:24:59; 7,7; 60; 0,4; 961,1243; 986,6875;3; 23,8; 23,8; 0,0; 0,0;247,5; 92,4
2020-03-02 17:35:00; 7,5; 61; 0,5; 961,0618; 986,6250;3; 23,8; 23,8; 0,0; 0,0;247,5; 92,4
2020-03-02 17:45:00; 7,2; 62; 0,4; 961,0618; 986,6250;3; 23,8; 23,8; 0,0; 0,0;247,5; 92,4
2020-03-02 17:54:59; 7,0; 63; 0,4; 960,8118; 986,3750;3; 23,8; 23,8; 0,0; 0,0;247,5; 92,4
2020-03-02 18:05:00; 6,7; 64; 0,4; 960,8118; 986,3750;3; 23,7; 23,7; 0,0; 0,0;247,5; 92,4
2020-03-02 18:14:59; 6,6; 64; 0,3; 960,8118; 986,3750;3; 23,7; 23,7; 0,0; 0,0;247,5; 92,4
2020-03-02 18:25:00; 6,6; 64; 0,3; 960,8118; 986,3750;3; 23,6; 23,6; 0,0; 0,0;247,5; 92,4
2020-03-02 18:34:59; 6,4; 65; 0,3; 960,4368; 986,0000;3; 23,6; 23,6; 0,0; 0,0;247,5; 92,4
2020-03-02 18:45:00; 6,3; 65; 0,2; 960,4368; 986,0000;3; 23,6; 23,6; 0,0; 0,0;247,5; 92,4
2020-03-02 18:54:59; 6,2; 66; 0,3; 960,3743; 985,9375;3; 23,6; 23,6; 0,0; 0,0;247,5; 92,4
2020-03-02 19:05:00; 6,0; 67; 0,3; 960,3743; 985,9375;3; 23,6; 23,6; 0,0; 0,0;247,5; 92,4
2020-03-02 19:15:00; 5,9; 67; 0,2; 960,1868; 985,7500;3; 23,6; 23,6; 0,0; 0,0;247,5; 92,4
2020-03-02 19:24:59; 5,7; 68; 0,3; 960,1868; 985,7500;3; 23,6; 23,6; 0,0; 0,0;247,5; 92,4
2020-03-02 19:35:00; 5,5; 68; 0,1; 960,0618; 985,6250;3; 23,6; 23,6; 0,0; 0,0;247,5; 92,4
2020-03-02 19:44:59; 5,5; 69; 0,3; 960,0618; 985,6250;3; 23,6; 23,6; 0,0; 0,0;247,5; 92,4
2020-03-02 19:55:00; 5,5; 69; 0,3; 959,8118; 985,3750;3; 23,5; 23,5; 0,0; 0,0;247,5; 92,4
2020-03-02 20:04:59; 5,6; 69; 0,4; 959,8118; 985,3750;3; 23,6; 23,6; 0,0; 0,0;247,5; 92,4
2020-03-02 20:15:00; 5,7; 68; 0,3; 959,8743; 985,4375;3; 23,5; 23,5; 0,0; 0,0;247,5; 92,4
2020-03-02 20:24:59; 5,7; 68; 0,3; 959,8743; 985,4375;3; 23,6; 23,6; 0,0; 0,0;247,5; 92,4
2020-03-02 20:35:00; 5,8; 68; 0,4; 959,9368; 985,5000;3; 23,5; 23,5; 0,0; 0,0;247,5; 92,4
2020-03-02 20:45:00; 5,9; 68; 0,4; 959,9368; 985,5000;3; 23,5; 23,5; 0,0; 0,0;247,5; 92,4
2020-03-02 20:54:59; 6,0; 67; 0,3; 959,7493; 985,3125;3; 23,6; 23,6; 0,0; 0,0;247,5; 92,4
2020-03-02 21:05:00; 6,1; 67; 0,4; 959,7493; 985,3125;3; 23,5; 23,5; 0,0; 0,0;247,5; 92,4
2020-03-02 21:14:59; 6,1; 67; 0,4; 959,6243; 985,1875;3; 23,5; 23,5; 0,0; 0,0;247,5; 92,4
2020-03-02 21:25:00; 6,1; 67; 0,4; 959,6243; 985,1875;3; 23,6; 23,6; 0,0; 0,0;247,5; 92,4
2020-03-02 21:34:59; 6,1; 67; 0,4; 959,6868; 985,2500;3; 23,5; 23,5; 0,0; 0,0;247,5; 92,4
2020-03-02 21:45:00; 6,1; 67; 0,4; 959,6868; 985,2500;3; 23,5; 23,5; 0,0; 0,0;247,5; 92,4
2020-03-02 21:54:59; 6,1; 67; 0,4; 959,3118; 984,8750;3; 23,6; 23,6; 0,0; 0,0;247,5; 92,4
2020-03-02 22:05:00; 6,1; 67; 0,4; 959,3118; 984,8750;3; 23,5; 23,5; 0,0; 0,0;247,5; 92,4
2020-03-02 22:15:00; 6,0; 67; 0,3; 959,3118; 984,8750;3; 23,6; 23,6; 0,0; 0,0;247,5; 92,4
2020-03-02 22:24:59; 5,9; 68; 0,4; 959,3118; 984,8750;3; 23,5; 23,5; 0,0; 0,0;247,5; 92,4
2020-03-02 22:35:00; 5,9; 68; 0,4; 959,3118; 984,8750;3; 23,5; 23,5; 0,0; 0,0;247,5; 92,4
2020-03-02 22:44:59; 5,9; 67; 0,2; 959,3118; 984,8750;3; 23,5; 23,5; 0,0; 0,0;247,5; 92,4
2020-03-02 22:55:00; 5,9; 67; 0,2; 959,2493; 984,8125;3; 23,5; 23,5; 0,0; 0,0;247,5; 92,4
2020-03-02 23:04:59; 5,9; 67; 0,2; 959,2493; 984,8125;3; 23,5; 23,5; 0,0; 0,0;247,5; 92,4
2020-03-02 23:15:00; 5,8; 67; 0,1; 959,1868; 984,7500;3; 23,6; 23,6; 0,0; 0,0;247,5; 92,4
2020-03-02 23:24:59; 5,8; 68; 0,4; 959,1868; 984,7500;3; 23,5; 23,5; 0,0; 0,0;247,5; 92,4
2020-03-02 23:35:00; 5,8; 68; 0,4; 959,1868; 984,7500;3; 23,4; 23,4; 0,0; 0,0;247,5; 92,4
2020-03-02 23:45:00; 5,7; 69; 0,5; 959,1868; 984,7500;3; 23,4; 23,4; 0,0; 0,0;247,5; 92,4
2020-03-02 23:54:59; 5,6; 69; 0,4; 959,2493; 984,8125;3; 23,4; 23,4; 0,0; 0,0;247,5; 92,4
2020-03-03 00:05:00; 5,6; 69; 0,4; 959,2493; 984,8125;3; 23,4; 23,4; 0,0; 0,0;247,5; 92,4
2020-03-03 00:14:59; 5,5; 69; 0,3; 959,3743; 984,9375;3; 23,4; 23,4; 0,0; 0,0;247,5; 92,4
2020-03-03 00:25:00; 5,5; 70; 0,5; 959,3743; 984,9375;3; 23,4; 23,4; 0,0; 0,0;247,5; 92,4
2020-03-03 00:34:59; 5,4; 70; 0,4; 959,4993; 985,0625;3; 23,4; 23,4; 0,0; 0,0;247,5; 92,4
2020-03-03 00:45:00; 5,2; 71; 0,4; 959,4993; 985,0625;3; 23,4; 23,4; 0,0; 0,0;247,5; 92,4
2020-03-03 00:54:59; 5,1; 71; 0,3; 959,1868; 984,7500;3; 23,4; 23,4; 0,0; 0,0;247,5; 92,4
2020-03-03 01:05:00; 5,1; 72; 0,5; 959,1868; 984,7500;3; 23,4; 23,4; 0,0; 0,0;247,5; 92,4
2020-03-03 01:15:00; 5,0; 72; 0,4; 959,4993; 985,0625;3; 23,4; 23,4; 0,0; 0,0;247,5; 92,4
2020-03-03 01:24:59; 4,9; 72; 0,3; 959,4993; 985,0625;3; 23,4; 23,4; 0,0; 0,0;247,5; 92,4
2020-03-03 01:35:00; 4,9; 72; 0,3; 959,3118; 984,8750;3; 23,4; 23,4; 0,0; 0,0;247,5; 92,4
2020-03-03 01:44:59; 4,9; 73; 0,5; 959,3118; 984,8750;3; 23,4; 23,4; 0,0; 0,0;247,5; 92,4
2020-03-03 01:55:00; 4,9; 73; 0,5; 959,4368; 985,0000;3; 23,4; 23,4; 0,0; 0,0;247,5; 92,4
2020-03-03 02:04:59; 4,9; 73; 0,5; 959,4368; 985,0000;3; 23,4; 23,4; 0,0; 0,0;247,5; 92,4
2020-03-03 02:15:00; 4,8; 73; 0,4; 959,4368; 985,0000;3; 23,4; 23,4; 0,0; 0,0;247,5; 92,4
2020-03-03 02:24:59; 4,9; 73; 0,5; 959,4368; 985,0000;3; 23,4; 23,4; 0,0; 0,0;247,5; 92,4
2020-03-03 02:35:00; 4,9; 73; 0,5; 959,4993; 985,0625;3; 23,4; 23,4; 0,0; 0,0;247,5; 92,4
2020-03-03 02:45:00; 4,8; 73; 0,4; 959,4993; 985,0625;3; 23,4; 23,4; 0,0; 0,0;247,5; 92,4
2020-03-03 02:54:59; 4,8; 73; 0,4; 959,3743; 984,9375;3; 23,4; 23,4; 0,0; 0,0;247,5; 92,4
2020-03-03 03:05:00; 4,7; 73; 0,3; 959,3743; 984,9375;3; 23,4; 23,4; 0,0; 0,0;247,5; 92,4
2020-03-03 03:14:59; 4,7; 74; 0,5; 959,7493; 985,3125;3; 23,4; 23,4; 0,0; 0,0;247,5; 92,4
2020-03-03 03:25:00; 4,7; 75; 0,6; 959,7493; 985,3125;3; 23,4; 23,4; 0,0; 0,0;247,5; 92,4
2020-03-03 03:34:59; 4,6; 75; 0,6; 959,9993; 985,5625;3; 23,4; 23,4; 0,0; 0,0;247,5; 92,4
2020-03-03 03:45:00; 4,6; 75; 0,6; 959,9993; 985,5625;3; 23,4; 23,4; 0,0; 0,0;247,5; 92,4
2020-03-03 03:54:59; 4,6; 75; 0,6; 960,3118; 985,8750;3; 23,4; 23,4; 0,0; 0,0;247,5; 92,4
2020-03-03 04:05:00; 4,6; 75; 0,6; 960,3118; 985,8750;3; 23,4; 23,4; 0,0; 0,0;247,5; 92,4
2020-03-03 04:15:00; 4,7; 75; 0,6; 960,4368; 986,0000;3; 23,4; 23,4; 0,0; 0,0;247,5; 92,4
2020-03-03 04:24:59; 4,7; 75; 0,6; 960,4368; 986,0000;3; 23,4; 23,4; 0,0; 0,0;247,5; 92,4
2020-03-03 04:35:00; 4,7; 75; 0,6; 960,6243; 986,1875;3; 23,4; 23,4; 0,0; 0,0;247,5; 92,4
2020-03-03 04:44:59; 5,0; 75; 0,9; 960,6243; 986,1875;3; 23,4; 23,4; 0,0; 0,0;247,5; 92,4
2020-03-03 04:55:00; 5,1; 74; 0,8; 960,7493; 986,3125;3; 23,4; 23,4; 0,0; 0,0;247,5; 92,4
2020-03-03 05:04:59; 5,1; 74; 0,8; 960,7493; 986,3125;3; 23,4; 23,4; 0,0; 0,0;247,5; 92,4
2020-03-03 05:15:00; 5,3; 74; 1,0; 960,8743; 986,4375;3; 23,4; 23,4; 0,0; 0,0;247,5; 92,4
2020-03-03 05:24:59; 5,4; 73; 0,9; 960,8743; 986,4375;3; 23,3; 23,3; 0,0; 0,0;247,5; 92,4
2020-03-03 05:35:00; 5,3; 73; 0,9; 961,0618; 986,6250;3; 23,3; 23,3; 0,0; 0,0;247,5; 92,4
2020-03-03 05:45:00; 5,3; 74; 1,0; 961,0618; 986,6250;3; 23,3; 23,3; 0,0; 0,0;247,5; 92,4
2020-03-03 05:54:59; 5,4; 73; 0,9; 961,6243; 987,1875;3; 23,3; 23,3; 0,0; 0,0;247,5; 92,4
2020-03-03 06:05:00; 5,4; 74; 1,1; 961,6243; 987,1875;3; 23,3; 23,3; 0,0; 0,0;247,5; 92,4
2020-03-03 06:14:59; 5,4; 74; 1,1; 961,8118; 987,3750;3; 23,3; 23,3; 0,0; 0,0;247,5; 92,4
2020-03-03 06:25:00; 5,4; 75; 1,3; 961,8118; 987,3750;3; 23,3; 23,3; 0,0; 0,0;247,5; 92,4
2020-03-03 06:34:59; 5,3; 76; 1,4; 962,1243; 987,6875;4; 23,3; 23,3; 0,0; 0,0;247,5; 92,4
2020-03-03 06:45:00; 5,2; 77; 1,5; 962,1243; 987,6875;4; 23,3; 23,3; 0,0; 0,0;247,5; 92,4
2020-03-03 06:54:59; 5,1; 77; 1,4; 962,5618; 988,1250;4; 23,3; 23,3; 0,0; 0,0;247,5; 92,4
2020-03-03 07:05:00; 5,1; 78; 1,6; 962,5618; 988,1250;4; 23,4; 23,4; 0,0; 0,0;247,5; 92,4
2020-03-03 07:15:00; 5,0; 79; 1,7; 962,8118; 988,3750;4; 23,4; 23,4; 0,0; 0,0;247,5; 92,4
2020-03-03 07:24:59; 5,0; 79; 1,7; 962,8118; 988,3750;4; 23,4; 23,4; 0,0; 0,0;247,5; 92,4
2020-03-03 07:35:00; 5,0; 79; 1,7; 962,8743; 988,4375;4; 23,4; 23,4; 0,0; 0,0;247,5; 92,4
2020-03-03 07:44:59; 5,1; 79; 1,8; 962,8743; 988,4375;4; 23,4; 23,4; 0,0; 0,0;247,5; 92,4
2020-03-03 07:55:00; 5,2; 79; 1,9; 962,8743; 988,4375;4; 23,4; 23,4; 0,0; 0,0;247,5; 92,4
2020-03-03 08:04:59; 5,3; 79; 2,0; 962,8743; 988,4375;4; 23,4; 23,4; 0,0; 0,0;247,5; 92,4
2020-03-03 08:15:00; 5,3; 79; 2,0; 963,3743; 988,9375;4; 23,4; 23,4; 0,0; 0,0;247,5; 92,4
2020-03-03 08:24:59; 5,3; 79; 2,0; 963,3743; 988,9375;4; 23,4; 23,4; 0,0; 0,0;247,5; 92,4
2020-03-03 08:35:00; 5,3; 79; 2,0; 963,4368; 989,0000;4; 23,4; 23,4; 0,0; 0,0;247,5; 92,4
2020-03-03 08:45:00; 5,2; 80; 2,0; 963,4368; 989,0000;4; 23,4; 23,4; 0,0; 0,0;247,5; 92,4
2020-03-03 08:54:59; 5,4; 81; 2,4; 963,5618; 989,1250;4; 23,4; 23,4; 0,0; 0,0;247,5; 92,4
2020-03-03 09:05:00; 5,4; 81; 2,4; 963,5618; 989,1250;4; 23,4; 23,4; 0,0; 0,0;247,5; 92,4
2020-03-03 09:14:59; 5,5; 81; 2,5; 963,6243; 989,1875;4; 23,4; 23,4; 0,0; 0,0;247,5; 92,4
2020-03-03 09:25:00; 5,9; 81; 2,9; 963,6243; 989,1875;4; 23,6; 23,6; 0,0; 0,0;247,5; 92,4
2020-03-03 09:34:59; 5,8; 81; 2,8; 963,9368; 989,5000;4; 23,5; 23,5; 0,0; 0,0;247,5; 92,4
2020-03-03 09:45:00; 5,8; 81; 2,8; 963,9368; 989,5000;4; 23,6; 23,6; 0,0; 0,0;247,5; 92,4
2020-03-03 09:54:59; 5,6; 81; 2,6; 964,2493; 989,8125;4; 23,5; 23,5; 0,0; 0,0;247,5; 92,4
2020-03-03 10:05:00; 5,6; 81; 2,6; 964,2493; 989,8125;4; 23,4; 23,4; 0,0; 0,0;247,5; 92,4
2020-03-03 10:15:00; ; ; ; 964,5618; 990,1250;4; 23,4; 23,4; 0,0; 0,0;247,5; 92,4
2020-03-03 10:24:59; ; ; ; 964,5618; 990,1250;4; 23,4; 23,4; 0,0; 0,0;247,5; 92,4
2020-03-03 10:35:00; ; ; ; 964,8118; 990,3750;4; 23,5; 23,5; 0,0; 0,0;247,5; 92,4
2020-03-03 10:44:59; ; ; ; 964,8118; 990,3750;4; 23,6; 23,6; 0,0; 0,0;247,5; 92,4
2020-03-03 10:55:00; ; ; ; 965,0618; 990,6250;4; 23,5; 23,5; 0,0; 0,0;247,5; 92,4
2020-03-03 11:04:59; ; ; ; 965,0618; 990,6250;4; 23,5; 23,5; 0,0; 0,0;247,5; 92,4
2020-03-03 11:15:00; ; ; ; 965,0618; 990,6250;4; 23,6; 23,6; 0,0; 0,0;247,5; 92,4
2020-03-03 11:24:59; ; ; ; 965,0618; 990,6250;4; 23,6; 23,6; 0,0; 0,0;247,5; 92,4
2020-03-03 11:35:00; ; ; ; 965,3118; 990,8750;4; 23,6; 23,6; 0,0; 0,0;247,5; 92,4
2020-03-03 11:44:00; ; ; ; 965,3118; 990,8750;4; 23,6; 23,6; 0,0; 0,0;247,5; 92,4
2020-03-03 11:49:00; 5,7; 82; 2,9; 965,3118; 990,8750;4; 23,6; 23,6; 0,0; 0,0;247,5; 92,4
2020-03-03 11:58:59; 5,7; 83; 3,0; 965,6243; 991,1875;4; 23,6; 23,6; 0,0; 0,0;247,5; 92,4
2020-03-03 12:09:00; 5,7; 83; 3,0; 965,6243; 991,1875;4; 23,6; 23,6; 0,0; 0,0;247,5; 92,4
2020-03-03 12:18:59; 5,6; 83; 2,9; 965,7493; 991,3125;4; 23,6; 23,6; 0,0; 0,0;247,5; 92,4
2020-03-03 12:29:00; 5,6; 82; 2,8; 965,7493; 991,3125;4; 23,6; 23,6; 0,0; 0,0;247,5; 92,4
2020-03-03 12:38:59; 5,5; 82; 2,7; 965,9993; 991,5625;4; 23,5; 23,5; 0,0; 0,0;247,5; 92,4
2020-03-03 12:48:59; 5,5; 83; 2,8; 965,9993; 991,5625;4; 23,6; 23,6; 0,0; 0,0;247,5; 92,4
2020-03-03 12:59:00; 5,4; 83; 2,7; 966,0618; 991,6250;4; 23,5; 23,5; 0,0; 0,0;247,5; 92,4
2020-03-03 13:08:59; 5,4; 84; 2,9; 966,0618; 991,6250;4; 23,5; 23,5; 0,0; 0,0;247,5; 92,4
2020-03-03 13:19:00; 5,4; 84; 2,9; 966,3118; 991,8750;4; 23,5; 23,5; 0,0; 0,0;247,5; 92,4
2020-03-03 13:28:59; 5,3; 84; 2,8; 966,3118; 991,8750;4; 23,4; 23,4; 0,0; 0,0;247,5; 92,4
2020-03-03 13:39:00; 5,1; 85; 2,8; 966,7493; 992,3125;4; 23,4; 23,4; 0,0; 0,0;247,5; 92,4
2020-03-03 13:48:59; 5,1; 84; 2,6; 966,7493; 992,3125;4; 23,4; 23,4; 0,0; 0,0;247,5; 92,4
2020-03-03 13:59:00; 4,9; 83; 2,3; 967,0618; 992,6250;4; 23,4; 23,4; 0,0; 0,0;247,5; 92,4
2020-03-03 14:08:59; 4,9; 83; 2,3; 967,0618; 992,6250;4; 23,4; 23,4; 0,0; 0,0;247,5; 92,4
2020-03-03 14:18:59; 4,7; 81; 1,7; 967,3118; 992,8750;4; 23,4; 23,4; 0,0; 0,0;247,5; 92,4
2020-03-03 14:29:00; 4,7; 81; 1,7; 967,3118; 992,8750;4; 23,4; 23,4; 0,0; 0,0;247,5; 92,4
2020-03-03 14:38:59; 4,7; 80; 1,5; 967,4368; 993,0000;4; 23,4; 23,4; 0,0; 0,0;247,5; 92,4
2020-03-03 14:49:00; 4,7; 80; 1,5; 967,4368; 993,0000;4; 23,4; 23,4; 0,0; 0,0;247,5; 92,4
2020-03-03 14:58:59; 4,7; 80; 1,5; 967,6243; 993,1875;4; 23,4; 23,4; 0,0; 0,0;247,5; 92,4
2020-03-03 15:09:00; 4,8; 80; 1,6; 967,6243; 993,1875;4; 23,4; 23,4; 0,0; 0,0;247,5; 92,4
2020-03-03 15:18:59; 4,9; 80; 1,7; 967,6868; 993,2500;5; 23,4; 23,4; 0,0; 0,0;247,5; 92,4
2020-03-03 15:29:00; 4,8; 80; 1,6; 967,6868; 993,2500;5; 23,4; 23,4; 0,0; 0,0;247,5; 92,4
2020-03-03 15:38:59; 4,9; 80; 1,7; 968,1243; 993,6875;5; 23,4; 23,4; 0,0; 0,0;247,5; 92,4
2020-03-03 15:48:59; 5,0; 80; 1,8; 968,1243; 993,6875;5; 23,4; 23,4; 0,0; 0,0;247,5; 92,4
2020-03-03 15:59:00; 5,1; 79; 1,8; 968,2493; 993,8125;5; 23,4; 23,4; 0,0; 0,0;247,5; 92,4
2020-03-03 16:08:59; 5,1; 79; 1,8; 968,2493; 993,8125;5; 23,4; 23,4; 0,0; 0,0;247,5; 92,4
2020-03-03 16:19:00; 5,1; 78; 1,6; 968,4993; 994,0625;5; 23,4; 23,4; 0,0; 0,0;247,5; 92,4
2020-03-03 16:28:59; 5,1; 77; 1,4; 968,4993; 994,0625;5; 23,4; 23,4; 0,0; 0,0;247,5; 92,4
2020-03-03 16:39:00; 5,1; 77; 1,4; 968,8118; 994,3750;5; 23,4; 23,4; 0,0; 0,0;247,5; 92,4
2020-03-03 16:48:59; 5,1; 77; 1,4; 968,8118; 994,3750;5; 23,4; 23,4; 0,0; 0,0;247,5; 92,4
2020-03-03 16:59:00; 5,1; 77; 1,4; 969,1868; 994,7500;5; 23,4; 23,4; 0,0; 0,0;247,5; 92,4
2020-03-03 17:08:59; 5,1; 77; 1,4; 969,1868; 994,7500;5; 23,3; 23,3; 0,0; 0,0;247,5; 92,4
2020-03-03 17:18:59; 5,1; 77; 1,4; 969,5618; 995,1250;5; 23,3; 23,3; 0,0; 0,0;247,5; 92,4
2020-03-03 17:29:00; 5,1; 77; 1,4; 969,5618; 995,1250;5; 23,3; 23,3; 0,0; 0,0;247,5; 92,4
2020-03-03 17:38:59; 5,1; 77; 1,4; 969,9368; 995,5000;5; 23,3; 23,3; 0,0; 0,0;247,5; 92,4
2020-03-03 17:49:00; 5,0; 77; 1,3; 969,9368; 995,5000;5; 23,3; 23,3; 0,0; 0,0;247,5; 92,4
2020-03-03 17:58:59; 4,9; 77; 1,2; 970,1243; 995,6875;5; 23,3; 23,3; 0,0; 0,0;247,5; 92,4
2020-03-03 18:09:00; 4,7; 77; 1,0; 970,1243; 995,6875;5; 23,3; 23,3; 0,0; 0,0;247,5; 92,4
2020-03-03 18:18:59; 4,6; 77; 0,9; 970,7493; 996,3125;5; 23,3; 23,3; 0,0; 0,0;247,5; 92,4
2020-03-03 18:29:00; 4,6; 77; 0,9; 970,7493; 996,3125;5; 23,3; 23,3; 0,0; 0,0;247,5; 92,4
2020-03-03 18:38:59; 4,6; 77; 0,9; 970,5618; 996,1250;5; 23,2; 23,2; 0,0; 0,0;247,5; 92,4
2020-03-03 18:48:59; 4,5; 77; 0,8; 970,5618; 996,1250;5; 23,2; 23,2; 0,0; 0,0;247,5; 92,4
2020-03-03 18:59:00; 4,4; 77; 0,7; 970,7493; 996,3125;5; 23,2; 23,2; 0,0; 0,0;247,5; 92,4
2020-03-03 19:08:59; 4,3; 76; 0,4; 970,7493; 996,3125;5; 23,2; 23,2; 0,0; 0,0;247,5; 92,4
2020-03-03 19:19:00; 4,3; 76; 0,4; 970,8743; 996,4375;5; 23,2; 23,2; 0,0; 0,0;247,5; 92,4
2020-03-03 19:28:59; 4,3; 76; 0,4; 970,8743; 996,4375;5; 23,2; 23,2; 0,0; 0,0;247,5; 92,4
2020-03-03 19:39:00; 4,2; 76; 0,3; 971,2493; 996,8125;5; 23,2; 23,2; 0,0; 0,0;247,5; 92,4
2020-03-03 19:48:59; 4,2; 76; 0,3; 971,2493; 996,8125;5; 23,2; 23,2; 0,0; 0,0;247,5; 92,4
2020-03-03 19:59:00; 4,1; 76; 0,3; 971,5618; 997,1250;5; 23,2; 23,2; 0,0; 0,0;247,5; 92,4
2020-03-03 20:08:59; 4,1; 76; 0,3; 971,5618; 997,1250;5; 23,2; 23,2; 0,0; 0,0;247,5; 92,4
2020-03-03 20:18:59; 4,0; 76; 0,2; 971,8118; 997,3750;5; 23,2; 23,2; 0,0; 0,0;247,5; 92,4
2020-03-03 20:29:00; 3,9; 76; 0,1; 971,8118; 997,3750;5; 23,2; 23,2; 0,0; 0,0;247,5; 92,4
2020-03-03 20:38:59; 3,9; 76; 0,1; 972,0618; 997,6250;5; 23,2; 23,2; 0,0; 0,0;247,5; 92,4
2020-03-03 20:49:00; 3,8; 76; 0,0; 972,0618; 997,6250;5; 23,2; 23,2; 0,0; 0,0;247,5; 92,4
2020-03-03 20:58:59; 3,7; 76; -0,1; 972,1868; 997,7500;5; 23,2; 23,2; 0,0; 0,0;247,5; 92,4
2020-03-03 21:09:00; 3,6; 76; -0,2; 972,1868; 997,7500;5; 23,2; 23,2; 0,0; 0,0;247,5; 92,4
2020-03-03 21:18:59; 3,5; 76; -0,3; 972,3118; 997,8750;5; 23,2; 23,2; 0,0; 0,0;247,5; 92,4
2020-03-03 21:29:00; 3,5; 76; -0,3; 972,3118; 997,8750;5; 23,2; 23,2; 0,0; 0,0;247,5; 92,4
2020-03-03 21:38:59; 3,4; 76; -0,4; 972,3743; 997,9375;5; 23,2; 23,2; 0,0; 0,0;247,5; 92,4
2020-03-03 21:48:59; 3,4; 76; -0,4; 972,3743; 997,9375;5; 23,2; 23,2; 0,0; 0,0;247,5; 92,4
2020-03-03 21:59:00; 3,3; 76; -0,5; 972,6243; 998,1875;5; 23,2; 23,2; 0,0; 0,0;247,5; 92,4
2020-03-03 22:08:59; 3,3; 76; -0,5; 972,6243; 998,1875;5; 23,2; 23,2; 0,0; 0,0;247,5; 92,4
2020-03-03 22:19:00; 3,3; 76; -0,5; 972,6243; 998,1875;5; 23,2; 23,2; 0,0; 0,0;247,5; 92,4
2020-03-03 22:28:59; 3,3; 76; -0,5; 972,6243; 998,1875;5; 23,2; 23,2; 0,0; 0,0;247,5; 92,4
2020-03-03 22:39:00; 3,3; 76; -0,5; 972,8118; 998,3750;5; 23,2; 23,2; 0,0; 0,0;247,5; 92,4
2020-03-03 22:48:59; 3,2; 75; -0,8; 972,8118; 998,3750;5; 23,2; 23,2; 0,0; 0,0;247,5; 92,4
2020-03-03 22:59:00; 3,1; 75; -0,9; 972,8743; 998,4375;5; 23,1; 23,1; 0,0; 0,0;247,5; 92,4
2020-03-03 23:08:59; 3,1; 75; -0,9; 972,8743; 998,4375;5; 23,2; 23,2; 0,0; 0,0;247,5; 92,4
2020-03-03 23:18:59; 3,0; 75; -1,0; 973,1868; 998,7500;5; 23,1; 23,1; 0,0; 0,0;247,5; 92,4
2020-03-03 23:29:00; 2,9; 76; -0,9; 973,1868; 998,7500;5; 23,1; 23,1; 0,0; 0,0;247,5; 92,4
2020-03-03 23:38:59; 2,8; 76; -1,0; 973,7493; 999,3125;6; 23,1; 23,1; 0,0; 0,0;247,5; 92,4
2020-03-03 23:49:00; 2,7; 76; -1,1; 973,7493; 999,3125;6; 23,1; 23,1; 0,0; 0,0;247,5; 92,4
2020-03-03 23:58:59; 2,7; 76; -1,1; 973,5618; 999,1250;6; 23,1; 23,1; 0,0; 0,0;247,5; 92,4
2020-03-04 00:09:00; 2,6; 76; -1,2; 973,5618; 999,1250;6; 23,1; 23,1; 0,0; 0,0;247,5; 92,4
2020-03-04 00:18:59; 2,6; 76; -1,2; 973,7493; 999,3125;6; 23,1; 23,1; 0,0; 0,0;247,5; 92,4
2020-03-04 00:29:00; 2,5; 76; -1,3; 973,7493; 999,3125;6; 23,1; 23,1; 0,0; 0,0;247,5; 92,4
2020-03-04 00:38:59; 2,4; 76; -1,4; 973,9993; 999,5625;6; 23,1; 23,1; 0,0; 0,0;247,5; 92,4
2020-03-04 00:48:59; 2,3; 76; -1,5; 973,9993; 999,5625;6; 23,1; 23,1; 0,0; 0,0;247,5; 92,4
2020-03-04 00:59:00; 2,1; 77; -1,5; 974,1243; 999,6875;6; 23,1; 23,1; 0,0; 0,0;247,5; 92,4
2020-03-04 01:08:59; 2,1; 77; -1,5; 974,1243; 999,6875;6; 23,1; 23,1; 0,0; 0,0;247,5; 92,4
2020-03-04 01:19:00; 2,0; 77; -1,6; 974,1243; 999,6875;6; 23,1; 23,1; 0,0; 0,0;247,5; 92,4
2020-03-04 01:28:59; 2,0; 77; -1,6; 974,1243; 999,6875;6; 23,1; 23,1; 0,0; 0,0;247,5; 92,4
2020-03-04 01:39:00; 1,9; 78; -1,5; 974,1868; 999,7500;6; 23,1; 23,1; 0,0; 0,0;247,5; 92,4
2020-03-04 01:48:59; 1,9; 78; -1,5; 974,1868; 999,7500;6; 23,0; 23,0; 0,0; 0,0;247,5; 92,4
2020-03-04 01:59:00; 1,7; 77; -1,9; 974,3118; 999,8750;6; 23,0; 23,0; 0,0; 0,0;247,5; 92,4
2020-03-04 02:08:59; 1,7; 78; -1,7; 974,3118; 999,8750;6; 23,1; 23,1; 0,0; 0,0;247,5; 92,4
2020-03-04 02:18:59; 1,7; 78; -1,7; 974,2493; 999,8125;6; 23,1; 23,1; 0,0; 0,0;247,5; 92,4
2020-03-04 02:29:00; 1,5; 79; -1,7; 974,2493; 999,8125;6; 23,1; 23,1; 0,0; 0,0;247,5; 92,4
2020-03-04 02:38:59; 1,5; 79; -1,7; 974,4993;1000,0625;6; 23,1; 23,1; 0,0; 0,0;247,5; 92,4
2020-03-04 02:49:00; 1,5; 79; -1,7; 974,4993;1000,0625;6; 23,1; 23,1; 0,0; 0,0;247,5; 92,4
2020-03-04 02:58:59; 1,4; 79; -1,8; 974,6243;1000,1875;6; 23,1; 23,1; 0,0; 0,0;247,5; 92,4
2020-03-04 03:09:00; 1,5; 79; -1,7; 974,6243;1000,1875;6; 23,1; 23,1; 0,0; 0,0;247,5; 92,4
2020-03-04 03:18:59; 1,6; 79; -1,6; 974,8118;1000,3750;6; 23,1; 23,1; 0,0; 0,0;247,5; 92,4
2020-03-04 03:29:00; 1,8; 79; -1,5; 974,8118;1000,3750;6; 23,1; 23,1; 0,0; 0,0;247,5; 92,4
2020-03-04 03:38:59; 1,9; 78; -1,5; 974,9368;1000,5000;6; 23,1; 23,1; 0,0; 0,0;247,5; 92,4
2020-03-04 03:48:59; 1,9; 78; -1,5; 974,9368;1000,5000;6; 23,1; 23,1; 0,0; 0,0;247,5; 92,4
2020-03-04 03:59:00; 1,9; 78; -1,5; 975,1868;1000,7500;6; 23,1; 23,1; 0,0; 0,0;247,5; 92,4
2020-03-04 04:08:59; 1,9; 78; -1,5; 975,1868;1000,7500;6; 23,1; 23,1; 0,0; 0,0;247,5; 92,4
2020-03-04 04:19:00; 2,0; 78; -1,4; 975,3118;1000,8750;6; 23,1; 23,1; 0,0; 0,0;247,5; 92,4
2020-03-04 04:28:59; 2,0; 78; -1,4; 975,3118;1000,8750;6; 23,1; 23,1; 0,0; 0,0;247,5; 92,4
2020-03-04 04:39:00; 1,9; 78; -1,5; 975,3118;1000,8750;6; 23,1; 23,1; 0,0; 0,0;247,5; 92,4
2020-03-04 04:48:59; 1,9; 78; -1,5; 975,3118;1000,8750;6; 23,1; 23,1; 0,0; 0,0;247,5; 92,4
2020-03-04 04:59:00; 1,9; 78; -1,5; 975,3743;1000,9375;6; 23,1; 23,1; 0,0; 0,0;247,5; 92,4
2020-03-04 05:08:59; 1,8; 78; -1,6; 975,3743;1000,9375;6; 23,1; 23,1; 0,0; 0,0;247,5; 92,4
2020-03-04 05:18:59; 1,8; 78; -1,6; 975,5618;1001,1250;6; 23,1; 23,1; 0,0; 0,0;247,5; 92,4
2020-03-04 05:29:00; 1,7; 79; -1,6; 975,5618;1001,1250;6; 23,1; 23,1; 0,0; 0,0;247,5; 92,4
2020-03-04 05:38:59; 1,7; 79; -1,6; 975,8118;1001,3750;6; 23,1; 23,1; 0,0; 0,0;247,5; 92,4
2020-03-04 05:49:00; 1,7; 78; -1,7; 975,8118;1001,3750;6; 23,1; 23,1; 0,0; 0,0;247,5; 92,4
2020-03-04 05:58:59; 1,9; 78; -1,5; 975,9368;1001,5000;6; 23,1; 23,1; 0,0; 0,0;247,5; 92,4
2020-03-04 06:09:00; 2,1; 78; -1,3; 975,9368;1001,5000;6; 23,0; 23,0; 0,0; 0,0;247,5; 92,4
2020-03-04 06:18:59; 2,2; 77; -1,4; 976,1868;1001,7500;6; 23,1; 23,1; 0,0; 0,0;247,5; 92,4
2020-03-04 06:29:00; 2,3; 77; -1,3; 976,1868;1001,7500;6; 23,1; 23,1; 0,0; 0,0;247,5; 92,4
2020-03-04 06:38:59; 2,4; 76; -1,4; 976,3743;1001,9375;6; 23,1; 23,1; 0,0; 0,0;247,5; 92,4
2020-03-04 06:48:59; 2,5; 76; -1,3; 976,3743;1001,9375;6; 23,1; 23,1; 0,0; 0,0;247,5; 92,4
2020-03-04 06:59:00; 2,7; 76; -1,1; 976,3743;1001,9375;6; 23,2; 23,2; 0,0; 0,0;247,5; 92,4
2020-03-04 07:08:59; 2,7; 75; -1,3; 976,3743;1001,9375;6; 23,2; 23,2; 0,0; 0,0;247,5; 92,4
2020-03-04 07:19:00; 2,7; 75; -1,3; 976,4993;1002,0625;6; 23,2; 23,2; 0,0; 0,0;247,5; 92,4
2020-03-04 07:28:59; 3,2; 75; -0,8; 976,4993;1002,0625;6; 23,6; 23,6; 0,0; 0,0;247,5; 92,4
2020-03-04 07:39:00; 3,8; 74; -0,4; 976,5618;1002,1250;6; 24,2; 24,2; 0,0; 0,0;247,5; 92,4
2020-03-04 07:48:59; 4,6; 73; 0,2; 976,5618;1002,1250;6; 25,0; 25,0; 0,0; 0,0;247,5; 92,4
2020-03-04 07:59:00; 5,7; 72; 1,0; 977,1243;1002,6875;6; 25,7; 25,7; 0,0; 0,0;247,5; 92,4
2020-03-04 08:08:59; 6,7; 68; 1,2; 977,1243;1002,6875;6; 26,3; 26,3; 0,0; 0,0;247,5; 92,4
2020-03-04 08:18:59; 7,4; 66; 1,5; 977,8118;1003,3750;6; 26,7; 26,7; 0,0; 0,0;247,5; 92,4
2020-03-04 08:29:00; 7,6; 65; 1,4; 977,8118;1003,3750;6; 27,2; 27,2; 0,0; 0,0;247,5; 92,4
2020-03-04 08:38:59; 8,2; 63; 1,6; 977,9368;1003,5000;6; 27,5; 27,5; 0,0; 0,0;247,5; 92,4
2020-03-04 08:49:00; 8,3; 61; 1,2; 977,9368;1003,5000;6; 27,9; 27,9; 0,0; 0,0;247,5; 92,4
2020-03-04 08:58:59; 8,7; 60; 1,4; 978,3118;1003,8750;6; 28,0; 28,0; 0,0; 0,0;247,5; 92,4
2020-03-04 09:09:00; 8,7; 60; 1,4; 978,3118;1003,8750;6; 28,0; 28,0; 0,0; 0,0;247,5; 92,4
2020-03-04 09:18:59; 8,7; 58; 0,9; 977,9368;1003,5000;6; 28,2; 28,2; 0,0; 0,0;247,5; 92,4
2020-03-04 09:29:00; 8,9; 58; 1,1; 977,9368;1003,5000;6; 28,1; 28,1; 0,0; 0,0;247,5; 92,4
2020-03-04 09:38:59; 8,8; 57; 0,7; 978,1868;1003,7500;6; 27,9; 27,9; 0,0; 0,0;247,5; 92,4
2020-03-04 09:48:59; 8,6; 58; 0,8; 978,1868;1003,7500;6; 27,2; 27,2; 0,0; 0,0;247,5; 92,4
2020-03-04 09:59:00; 9,2; 57; 1,1; 977,7493;1003,3125;6; 26,8; 26,8; 0,0; 0,0;247,5; 92,4
2020-03-04 10:08:59; 9,5; 54; 0,7; 977,7493;1003,3125;6; 26,7; 26,7; 0,0; 0,0;247,5; 92,4
2020-03-04 10:19:00; 9,7; 52; 0,3; 977,3743;1002,9375;6; 26,6; 26,6; 0,0; 0,0;247,5; 92,4
2020-03-04 10:28:59; 8,9; 50; -1,0; 977,3743;1002,9375;6; 26,3; 26,3; 0,0; 0,0;247,5; 92,4
2020-03-04 10:39:00; 9,1; 50; -0,8; 977,5618;1003,1250;6; 26,1; 26,1; 0,0; 0,0;247,5; 92,4
2020-03-04 10:48:59; 8,1; 51; -1,4; 977,5618;1003,1250;6; 25,8; 25,8; 0,0; 0,0;247,5; 92,4
2020-03-04 10:59:00; 8,3; 52; -1,0; 977,4368;1003,0000;6; 25,5; 25,5; 0,0; 0,0;247,5; 92,4
2020-03-04 11:08:59; 8,3; 51; -1,2; 977,4368;1003,0000;6; 25,5; 25,5; 0,0; 0,0;247,5; 92,4
2020-03-04 11:18:59; 8,3; 49; -1,8; 977,1868;1002,7500;6; 25,5; 25,5; 0,0; 0,0;247,5; 92,4
2020-03-04 11:29:00; 9,0; 51; -0,6; 977,1868;1002,7500;6; 25,5; 25,5; 0,0; 0,0;247,5; 92,4
2020-03-04 11:38:59; 9,6; 46; -1,5; 977,2493;1002,8125;6; 25,9; 25,9; 0,0; 0,0;247,5; 92,4
2020-03-04 11:49:00; 8,8; 47; -1,9; 977,2493;1002,8125;6; 26,2; 26,2; 0,0; 0,0;247,5; 92,4
2020-03-04 11:58:59; 9,2; 50; -0,7; 977,4993;1003,0625;6; 26,2; 26,2; 0,0; 0,0;247,5; 92,4
2020-03-04 12:09:00; 8,5; 49; -1,6; 977,4993;1003,0625;6; 25,9; 25,9; 0,0; 0,0;247,5; 92,4
2020-03-04 12:18:59; 9,2; 50; -0,7; 977,5618;1003,1250;6; 25,8; 25,8; 0,0; 0,0;247,5; 92,4
2020-03-04 12:29:00; 8,5; 50; -1,3; 977,5618;1003,1250;6; 25,6; 25,6; 0,0; 0,0;247,5; 92,4
2020-03-04 12:38:59; 8,6; 51; -1,0; 976,9993;1002,5625;6; 25,3; 25,3; 0,0; 0,0;247,5; 92,4
2020-03-04 12:48:59; 8,6; 50; -1,2; 976,9993;1002,5625;6; 25,2; 25,2; 0,0; 0,0;247,5; 92,4
2020-03-04 12:59:00; 8,3; 54; -0,5; 976,9993;1002,5625;6; 25,1; 25,1; 0,0; 0,0;247,5; 92,4
2020-03-04 13:08:59; 7,9; 57; -0,1; 976,9993;1002,5625;6; 24,9; 24,9; 0,0; 0,0;247,5; 92,4
2020-03-04 13:19:00; 8,1; 59; 0,6; 976,8743;1002,4375;6; 24,9; 24,9; 0,0; 0,0;247,5; 92,4
2020-03-04 13:28:59; 9,1; 56; 0,8; 976,8743;1002,4375;6; 25,0; 25,0; 0,0; 0,0;247,5; 92,4
2020-03-04 13:39:00; 9,7; 53; 0,6; 976,9368;1002,5000;6; 25,2; 25,2; 0,0; 0,0;247,5; 92,4
2020-03-04 13:48:59; 9,8; 53; 0,7; 976,9368;1002,5000;6; 25,3; 25,3; 0,0; 0,0;247,5; 92,4
2020-03-04 13:59:00; 9,9; 53; 0,8; 977,0618;1002,6250;6; 25,3; 25,3; 0,0; 0,0;247,5; 92,4
2020-03-04 14:08:59; 9,4; 53; 0,3; 977,0618;1002,6250;6; 25,2; 25,2; 0,0; 0,0;247,5; 92,4
2020-03-04 14:18:59; 9,0; 53; -0,1; 976,9368;1002,5000;6; 25,1; 25,1; 0,0; 0,0;247,5; 92,4
2020-03-04 14:29:00; 8,5; 56; 0,2; 976,9368;1002,5000;6; 25,0; 25,0; 0,0; 0,0;247,5; 92,4
2020-03-04 14:38:59; 8,9; 55; 0,3; 978,3743;1003,9375;6; 24,9; 24,9; 0,0; 0,0;247,5; 92,4
2020-03-04 14:49:00; 8,3; 56; 0,0; 978,3743;1003,9375;6; 24,8; 24,8; 0,0; 0,0;247,5; 92,4
2020-03-04 14:58:59; 8,4; 56; 0,1; 977,4368;1003,0000;6; 24,8; 24,8; 0,0; 0,0;247,5; 92,4
2020-03-04 15:09:00; 8,9; 54; 0,1; 977,4368;1003,0000;6; 24,7; 24,7; 0,0; 0,0;247,5; 92,4
2020-03-04 15:18:59; 8,2; 54; -0,6; 976,8743;1002,4375;6; 24,6; 24,6; 0,0; 0,0;247,5; 92,4
2020-03-04 15:29:00; 8,2; 55; -0,3; 976,8743;1002,4375;6; 24,6; 24,6; 0,0; 0,0;247,5; 92,4
2020-03-04 15:38:59; 7,9; 56; -0,3; 976,6243;1002,1875;6; 24,4; 24,4; 0,0; 0,0;247,5; 92,4
2020-03-04 15:48:59; 7,8; 57; -0,2; 976,6243;1002,1875;6; 24,3; 24,3; 0,0; 0,0;247,5; 92,4
2020-03-04 15:59:00; 7,5; 59; 0,0; 976,4368;1002,0000;5; 24,2; 24,2; 0,0; 0,0;247,5; 92,4
2020-03-04 16:08:59; 7,1; 60; -0,1; 976,4368;1002,0000;5; 24,1; 24,1; 0,0; 0,0;247,5; 92,4
2020-03-04 16:19:00; 7,1; 61; 0,1; 976,2493;1001,8125;5; 24,0; 24,0; 0,0; 0,0;247,5; 92,4
2020-03-04 16:28:59; 6,9; 62; 0,1; 976,2493;1001,8125;5; 24,0; 24,0; 0,0; 0,0;247,5; 92,4
2020-03-04 16:39:00; 6,8; 63; 0,2; 976,2493;1001,8125;5; 23,9; 23,9; 0,0; 0,0;247,5; 92,4
2020-03-04 16:48:59; 6,7; 63; 0,2; 976,2493;1001,8125;5; 23,9; 23,9; 0,0; 0,0;247,5; 92,4
2020-03-04 16:59:00; 6,5; 64; 0,2; 976,3118;1001,8750;5; 23,9; 23,9; 0,0; 0,0;247,5; 92,4
2020-03-04 17:08:59; 6,5; 64; 0,2; 976,3118;1001,8750;5; 23,8; 23,8; 0,0; 0,0;247,5; 92,4
2020-03-04 17:18:59; 6,4; 65; 0,3; 976,3743;1001,9375;5; 23,8; 23,8; 0,0; 0,0;247,5; 92,4
2020-03-04 17:29:00; 6,3; 65; 0,2; 976,3743;1001,9375;5; 23,8; 23,8; 0,0; 0,0;247,5; 92,4
2020-03-04 17:38:59; 6,3; 66; 0,4; 976,3743;1001,9375;5; 23,8; 23,8; 0,0; 0,0;247,5; 92,4
2020-03-04 17:49:00; 6,1; 67; 0,4; 976,3743;1001,9375;5; 23,8; 23,8; 0,0; 0,0;247,5; 92,4
2020-03-04 17:58:59; 6,0; 67; 0,3; 976,6243;1002,1875;5; 23,7; 23,7; 0,0; 0,0;247,5; 92,4
2020-03-04 18:09:00; 5,9; 68; 0,4; 976,6243;1002,1875;5; 23,7; 23,7; 0,0; 0,0;247,5; 92,4
2020-03-04 18:18:59; 5,9; 69; 0,6; 976,5618;1002,1250;5; 23,7; 23,7; 0,0; 0,0;247,5; 92,4
2020-03-04 18:29:00; 5,8; 69; 0,6; 976,5618;1002,1250;5; 23,7; 23,7; 0,0; 0,0;247,5; 92,4
2020-03-04 18:38:59; 5,7; 69; 0,5; 976,5618;1002,1250;5; 23,7; 23,7; 0,0; 0,0;247,5; 92,4
2020-03-04 18:48:59; 5,6; 69; 0,4; 976,5618;1002,1250;5; 23,7; 23,7; 0,0; 0,0;247,5; 92,4
2020-03-04 18:59:00; 5,5; 70; 0,5; 976,6243;1002,1875;5; 23,6; 23,6; 0,0; 0,0;247,5; 92,4
2020-03-04 19:08:59; 5,2; 71; 0,4; 976,6243;1002,1875;5; 23,6; 23,6; 0,0; 0,0;247,5; 92,4
2020-03-04 19:19:00; 5,1; 71; 0,3; 976,4368;1002,0000;5; 23,6; 23,6; 0,0; 0,0;247,5; 92,4
2020-03-04 19:28:59; 4,9; 71; 0,1; 976,4368;1002,0000;5; 23,6; 23,6; 0,0; 0,0;247,5; 92,4
2020-03-04 19:39:00; 4,7; 72; 0,1; 976,3743;1001,9375;5; 23,6; 23,6; 0,0; 0,0;247,5; 92,4
2020-03-04 19:48:59; 4,5; 73; 0,1; 976,3743;1001,9375;5; 23,6; 23,6; 0,0; 0,0;247,5; 92,4
2020-03-04 19:59:00; 4,4; 73; 0,0; 976,3743;1001,9375;5; 23,6; 23,6; 0,0; 0,0;247,5; 92,4
2020-03-04 20:08:59; 4,3; 74; 0,1; 976,3743;1001,9375;5; 23,6; 23,6; 0,0; 0,0;247,5; 92,4
2020-03-04 20:18:59; 4,3; 74; 0,1; 976,4368;1002,0000;5; 23,5; 23,5; 0,0; 0,0;247,5; 92,4
2020-03-04 20:29:00; 4,2; 74; 0,0; 976,4368;1002,0000;5; 23,6; 23,6; 0,0; 0,0;247,5; 92,4
2020-03-04 20:38:59; 4,0; 74; -0,2; 976,3743;1001,9375;5; 23,5; 23,5; 0,0; 0,0;247,5; 92,4
2020-03-04 20:49:00; 3,9; 74; -0,3; 976,3743;1001,9375;5; 23,6; 23,6; 0,0; 0,0;247,5; 92,4
2020-03-04 20:58:59; 3,8; 74; -0,4; 976,3118;1001,8750;5; 23,5; 23,5; 0,0; 0,0;247,5; 92,4
2020-03-04 21:09:00; 3,7; 75; -0,3; 976,3118;1001,8750;5; 23,5; 23,5; 0,0; 0,0;247,5; 92,4
2020-03-04 21:18:59; 3,6; 75; -0,4; 976,4993;1002,0625;5; 23,6; 23,6; 0,0; 0,0;247,5; 92,4
2020-03-04 21:29:00; 3,5; 76; -0,3; 976,4993;1002,0625;5; 23,5; 23,5; 0,0; 0,0;247,5; 92,4
2020-03-04 21:38:59; 3,3; 76; -0,5; 976,3743;1001,9375;5; 23,4; 23,4; 0,0; 0,0;247,5; 92,4
2020-03-04 21:48:59; 3,3; 76; -0,5; 976,3743;1001,9375;5; 23,4; 23,4; 0,0; 0,0;247,5; 92,4
2020-03-04 21:59:00; 3,2; 76; -0,6; 975,9368;1001,5000;5; 23,4; 23,4; 0,0; 0,0;247,5; 92,4
2020-03-04 22:08:59; 3,1; 76; -0,7; 975,9368;1001,5000;5; 23,4; 23,4; 0,0; 0,0;247,5; 92,4
2020-03-04 22:19:00; 3,1; 77; -0,5; 975,8743;1001,4375;5; 23,4; 23,4; 0,0; 0,0;247,5; 92,4
2020-03-04 22:28:59; 3,0; 77; -0,6; 975,8743;1001,4375;5; 23,4; 23,4; 0,0; 0,0;247,5; 92,4
2020-03-04 22:39:00; 3,0; 77; -0,6; 975,6868;1001,2500;5; 23,4; 23,4; 0,0; 0,0;247,5; 92,4
2020-03-04 22:48:59; 3,1; 77; -0,5; 975,6868;1001,2500;5; 23,4; 23,4; 0,0; 0,0;247,5; 92,4
2020-03-04 22:59:00; 3,1; 77; -0,5; 975,6868;1001,2500;5; 23,4; 23,4; 0,0; 0,0;247,5; 92,4
2020-03-04 23:08:59; 3,1; 77; -0,5; 975,6868;1001,2500;5; 23,4; 23,4; 0,0; 0,0;247,5; 92,4
2020-03-04 23:18:59; 3,0; 77; -0,6; 975,6868;1001,2500;5; 23,4; 23,4; 0,0; 0,0;247,5; 92,4
2020-03-04 23:29:00; 3,0; 77; -0,6; 975,6868;1001,2500;5; 23,4; 23,4; 0,0; 0,0;247,5; 92,4
2020-03-04 23:38:59; 2,9; 77; -0,7; 975,6243;1001,1875;5; 23,4; 23,4; 0,0; 0,0;247,5; 92,4
2020-03-04 23:49:00; 2,9; 78; -0,6; 975,6243;1001,1875;5; 23,4; 23,4; 0,0; 0,0;247,5; 92,4
2020-03-04 23:58:59; 2,8; 78; -0,7; 975,5618;1001,1250;5; 23,4; 23,4; 0,0; 0,0;247,5; 92,4
2020-03-05 00:09:00; 2,8; 78; -0,7; 975,5618;1001,1250;5; 23,4; 23,4; 0,0; 0,0;247,5; 92,4
2020-03-05 00:18:59; 2,8; 78; -0,7; 975,3743;1000,9375;5; 23,4; 23,4; 0,0; 0,0;247,5; 92,4
2020-03-05 00:29:00; 2,8; 78; -0,7; 975,3743;1000,9375;5; 23,4; 23,4; 0,0; 0,0;247,5; 92,4
2020-03-05 00:38:59; 2,7; 77; -0,9; 975,3743;1000,9375;5; 23,4; 23,4; 0,0; 0,0;247,5; 92,4
2020-03-05 00:48:59; 2,7; 77; -0,9; 975,3743;1000,9375;5; 23,4; 23,4; 0,0; 0,0;247,5; 92,4
2020-03-05 00:59:00; 2,7; 77; -0,9; 975,1868;1000,7500;5; 23,4; 23,4; 0,0; 0,0;247,5; 92,4
2020-03-05 01:08:59; 2,5; 78; -0,9; 975,1868;1000,7500;5; 23,4; 23,4; 0,0; 0,0;247,5; 92,4
2020-03-05 01:19:00; 2,5; 78; -0,9; 974,8118;1000,3750;5; 23,4; 23,4; 0,0; 0,0;247,5; 92,4
2020-03-05 01:28:59; 2,5; 77; -1,1; 974,8118;1000,3750;5; 23,4; 23,4; 0,0; 0,0;247,5; 92,4
2020-03-05 01:39:00; 2,5; 77; -1,1; 974,6243;1000,1875;5; 23,4; 23,4; 0,0; 0,0;247,5; 92,4
2020-03-05 01:48:59; 2,4; 77; -1,2; 974,6243;1000,1875;5; 23,4; 23,4; 0,0; 0,0;247,5; 92,4
2020-03-05 01:59:00; 2,4; 77; -1,2; 974,4993;1000,0625;5; 23,3; 23,3; 0,0; 0,0;247,5; 92,4
2020-03-05 02:08:59; 2,3; 77; -1,3; 974,4993;1000,0625;5; 23,3; 23,3; 0,0; 0,0;247,5; 92,4
2020-03-05 02:18:59; 2,3; 77; -1,3; 974,2493; 999,8125;5; 23,3; 23,3; 0,0; 0,0;247,5; 92,4
2020-03-05 02:29:00; 2,2; 77; -1,4; 974,2493; 999,8125;5; 23,3; 23,3; 0,0; 0,0;247,5; 92,4
2020-03-05 02:38:59; 2,2; 78; -1,2; 974,1243; 999,6875;5; 23,3; 23,3; 0,0; 0,0;247,5; 92,4
2020-03-05 02:49:00; 2,2; 78; -1,2; 974,1243; 999,6875;5; 23,3; 23,3; 0,0; 0,0;247,5; 92,4
2020-03-05 02:58:59; 2,2; 77; -1,4; 974,1243; 999,6875;5; 23,3; 23,3; 0,0; 0,0;247,5; 92,4
2020-03-05 03:09:00; 2,1; 77; -1,5; 974,1243; 999,6875;5; 23,3; 23,3; 0,0; 0,0;247,5; 92,4
2020-03-05 03:18:59; 2,1; 77; -1,5; 974,0618; 999,6250;5; 23,3; 23,3; 0,0; 0,0;247,5; 92,4
2020-03-05 03:29:00; 2,0; 77; -1,6; 974,0618; 999,6250;5; 23,3; 23,3; 0,0; 0,0;247,5; 92,4
2020-03-05 03:38:59; 1,9; 78; -1,5; 973,8743; 999,4375;5; 23,3; 23,3; 0,0; 0,0;247,5; 92,4
2020-03-05 03:48:59; 1,7; 77; -1,9; 973,8743; 999,4375;5; 23,3; 23,3; 0,0; 0,0;247,5; 92,4
2020-03-05 03:59:00; 1,7; 77; -1,9; 973,8118; 999,3750;5; 23,3; 23,3; 0,0; 0,0;247,5; 92,4
2020-03-05 04:08:59; 1,5; 78; -1,9; 973,8118; 999,3750;5; 23,3; 23,3; 0,0; 0,0;247,5; 92,4
2020-03-05 04:19:00; 1,2; 78; -2,2; 973,5618; 999,1250;5; 23,3; 23,3; 0,0; 0,0;247,5; 92,4
2020-03-05 04:28:59; 1,1; 79; -2,1; 973,5618; 999,1250;5; 23,3; 23,3; 0,0; 0,0;247,5; 92,4
2020-03-05 04:39:00; 1,0; 79; -2,2; 973,4368; 999,0000;5; 23,3; 23,3; 0,0; 0,0;247,5; 92,4
2020-03-05 04:48:59; 0,9; 79; -2,3; 973,4368; 999,0000;5; 23,3; 23,3; 0,0; 0,0;247,5; 92,4
2020-03-05 04:59:00; 0,7; 79; -2,5; 972,8743; 998,4375;5; 23,3; 23,3; 0,0; 0,0;247,5; 92,4
2020-03-05 05:08:59; 0,7; 79; -2,5; 972,8743; 998,4375;5; 23,3; 23,3; 0,0; 0,0;247,5; 92,4
2020-03-05 05:18:59; 0,5; 79; -2,7; 973,1243; 998,6875;5; 23,3; 23,3; 0,0; 0,0;247,5; 92,4
2020-03-05 05:29:00; 0,3; 79; -2,9; 973,1243; 998,6875;5; 23,3; 23,3; 0,0; 0,0;247,5; 92,4
2020-03-05 05:38:59; 0,2; 80; -2,8; 973,0618; 998,6250;5; 23,3; 23,3; 0,0; 0,0;247,5; 92,4
2020-03-05 05:49:00; 0,2; 80; -2,8; 973,0618; 998,6250;5; 23,3; 23,3; 0,0; 0,0;247,5; 92,4
2020-03-05 05:58:59; 0,2; 80; -2,8; 973,0618; 998,6250;5; 23,3; 23,3; 0,0; 0,0;247,5; 92,4
2020-03-05 06:09:00; 0,2; 81; -2,7; 973,0618; 998,6250;5; 23,3; 23,3; 0,0; 0,0;247,5; 92,4
2020-03-05 06:18:59; 0,1; 81; -2,8; 973,1868; 998,7500;5; 23,3; 23,3; 0,0; 0,0;247,5; 92,4
2020-03-05 06:29:00; 0,1; 81; -2,8; 973,1868; 998,7500;5; 23,4; 23,4; 0,0; 0,0;247,5; 92,4
2020-03-05 06:38:59; 0,3; 81; -2,6; 973,1868; 998,7500;5; 23,4; 23,4; 0,0; 0,0;247,5; 92,4
2020-03-05 06:48:59; 0,4; 82; -2,3; 973,1868; 998,7500;5; 23,4; 23,4; 0,0; 0,0;247,5; 92,4
2020-03-05 06:59:00; 0,6; 81; -2,3; 973,2493; 998,8125;5; 23,4; 23,4; 0,0; 0,0;247,5; 92,4
2020-03-05 07:08:59; 0,9; 82; -1,8; 973,2493; 998,8125;5; 23,4; 23,4; 0,0; 0,0;247,5; 92,4
2020-03-05 07:19:00; 1,4; 81; -1,5; 972,9993; 998,5625;5; 23,4; 23,4; 0,0; 0,0;247,5; 92,4
2020-03-05 07:28:59; 2,2; 80; -0,9; 972,9993; 998,5625;5; 23,9; 23,9; 0,0; 0,0;247,5; 92,4
2020-03-05 07:39:00; 2,8; 79; -0,5; 972,9993; 998,5625;5; 24,6; 24,6; 0,0; 0,0;247,5; 92,4
2020-03-05 07:48:59; 3,5; 77; -0,2; 972,9993; 998,5625;5; 25,3; 25,3; 0,0; 0,0;247,5; 92,4
2020-03-05 07:59:00; 4,2; 76; 0,3; 973,4368; 999,0000;5; 25,9; 25,9; 0,0; 0,0;247,5; 92,4
2020-03-05 08:08:59; 4,8; 74; 0,6; 973,4368; 999,0000;5; 26,4; 26,4; 0,0; 0,0;247,5; 92,4
2020-03-05 08:18:59; 5,3; 74; 1,0; 973,4993; 999,0625;5; 26,2; 26,2; 0,0; 0,0;247,5; 92,4
2020-03-05 08:29:00; 6,5; 71; 1,6; 973,4993; 999,0625;5; 26,6; 26,6; 0,0; 0,0;247,5; 92,4
2020-03-05 08:38:59; 6,8; 69; 1,5; 973,4993; 999,0625;5; 27,3; 27,3; 0,0; 0,0;247,5; 92,4
2020-03-05 08:49:00; 7,6; 68; 2,1; 973,4993; 999,0625;5; 27,7; 27,7; 0,0; 0,0;247,5; 92,4
2020-03-05 08:58:59; 7,9; 66; 1,9; 973,6243; 999,1875;5; 27,9; 27,9; 0,0; 0,0;247,5; 92,4
2020-03-05 09:09:00; 8,7; 65; 2,5; 973,6243; 999,1875;5; 28,1; 28,1; 0,0; 0,0;247,5; 92,4
2020-03-05 09:18:59; 9,1; 64; 2,6; 973,1868; 998,7500;5; 28,3; 28,3; 0,0; 0,0;247,5; 92,4
2020-03-05 09:29:00; 9,4; 61; 2,3; 973,1868; 998,7500;5; 28,3; 28,3; 0,0; 0,0;247,5; 92,4
2020-03-05 09:38:59; 9,8; 60; 2,4; 972,8743; 998,4375;5; 28,4; 28,4; 0,0; 0,0;247,5; 92,4
2020-03-05 09:48:59; 10,4; 55; 1,7; 972,8743; 998,4375;5; 28,2; 28,2; 0,0; 0,0;247,5; 92,4
2020-03-05 09:59:00; 11,1; 52; 1,6; 972,9368; 998,5000;5; 28,0; 28,0; 0,0; 0,0;247,5; 92,4
2020-03-05 10:08:59; 11,3; 51; 1,5; 972,9368; 998,5000;5; 27,7; 27,7; 0,0; 0,0;247,5; 92,4
2020-03-05 10:19:00; 11,2; 49; 0,9; 972,3118; 997,8750;5; 27,3; 27,3; 0,0; 0,0;247,5; 92,4
2020-03-05 10:28:59; 11,4; 48; 0,8; 972,3118; 997,8750;5; 27,0; 27,0; 0,0; 0,0;247,5; 92,4
2020-03-05 10:39:00; 11,5; 47; 0,6; 971,9368; 997,5000;5; 26,9; 26,9; 0,0; 0,0;247,5; 92,4
2020-03-05 10:48:59; 11,5; 48; 0,9; 971,9368; 997,5000;5; 26,8; 26,8; 0,0; 0,0;247,5; 92,4
2020-03-05 10:59:00; 11,4; 46; 0,2; 971,5618; 997,1250;5; 26,8; 26,8; 0,0; 0,0;247,5; 92,4
2020-03-05 11:08:59; 11,5; 46; 0,3; 971,5618; 997,1250;5; 26,8; 26,8; 0,0; 0,0;247,5; 92,4
2020-03-05 11:18:59; 11,5; 45; 0,0; 971,3743; 996,9375;5; 27,1; 27,1; 0,0; 0,0;247,5; 92,4
2020-03-05 11:29:00; 11,5; 45; 0,0; 971,3743; 996,9375;5; 27,2; 27,2; 0,0; 0,0;247,5; 92,4
2020-03-05 11:38:59; 11,6; 45; 0,1; 971,2493; 996,8125;5; 27,3; 27,3; 0,0; 0,0;247,5; 92,4
2020-03-05 11:49:00; 11,7; 43; -0,5; 971,2493; 996,8125;5; 27,3; 27,3; 0,0; 0,0;247,5; 92,4
2020-03-05 11:58:59; 11,8; 43; -0,4; 971,1243; 996,6875;5; 27,5; 27,5; 0,0; 0,0;247,5; 92,4
2020-03-05 12:09:00; 11,9; 43; -0,3; 971,1243; 996,6875;5; 27,5; 27,5; 0,0; 0,0;247,5; 92,4
2020-03-05 12:18:59; 11,8; 43; -0,4; 970,8743; 996,4375;5; 27,4; 27,4; 0,0; 0,0;247,5; 92,4
2020-03-05 12:29:00; 11,9; 43; -0,3; 970,8743; 996,4375;5; 27,3; 27,3; 0,0; 0,0;247,5; 92,4
2020-03-05 12:38:59; 12,0; 45; 0,4; 970,4368; 996,0000;5; 27,3; 27,3; 0,0; 0,0;247,5; 92,4
2020-03-05 12:48:59; 11,7; 45; 0,2; 970,4368; 996,0000;5; 27,1; 27,1; 0,0; 0,0;247,5; 92,4
2020-03-05 12:59:00; 12,2; 45; 0,6; 969,9368; 995,5000;5; 27,0; 27,0; 0,0; 0,0;247,5; 92,4
2020-03-05 13:08:59; 11,9; 44; 0,0; 969,9368; 995,5000;5; 26,8; 26,8; 0,0; 0,0;247,5; 92,4
2020-03-05 13:19:00; 11,9; 44; 0,0; 969,4368; 995,0000;5; 26,6; 26,6; 0,0; 0,0;247,5; 92,4
2020-03-05 13:28:59; 11,7; 45; 0,2; 969,4368; 995,0000;5; 26,5; 26,5; 0,0; 0,0;247,5; 92,4
2020-03-05 13:39:00; 12,0; 44; 0,1; 968,8743; 994,4375;4; 26,3; 26,3; 0,0; 0,0;247,5; 92,4
2020-03-05 13:48:59; 12,1; 44; 0,2; 968,8743; 994,4375;4; 26,2; 26,2; 0,0; 0,0;247,5; 92,4
2020-03-05 13:59:00; 11,7; 44; -0,2; 968,2493; 993,8125;4; 26,0; 26,0; 0,0; 0,0;247,5; 92,4
2020-03-05 14:08:59; 11,6; 45; 0,1; 968,2493; 993,8125;4; 25,9; 25,9; 0,0; 0,0;247,5; 92,4
2020-03-05 14:18:59; 11,1; 45; -0,4; 967,7493; 993,3125;4; 25,7; 25,7; 0,0; 0,0;247,5; 92,4
2020-03-05 14:29:00; 11,1; 46; -0,1; 967,7493; 993,3125;4; 25,6; 25,6; 0,0; 0,0;247,5; 92,4
2020-03-05 14:38:59; 11,2; 46; 0,0; 968,6868; 994,2500;4; 25,4; 25,4; 0,0; 0,0;247,5; 92,4
2020-03-05 14:49:00; 10,9; 46; -0,3; 968,6868; 994,2500;4; 25,3; 25,3; 0,0; 0,0;247,5; 92,4
2020-03-05 14:58:59; 10,3; 47; -0,5; 967,6243; 993,1875;4; 25,2; 25,2; 0,0; 0,0;247,5; 92,4
2020-03-05 15:09:00; 10,2; 48; -0,3; 967,6243; 993,1875;4; 25,0; 25,0; 0,0; 0,0;247,5; 92,4
2020-03-05 15:18:59; 10,1; 48; -0,4; 966,8118; 992,3750;4; 24,9; 24,9; 0,0; 0,0;247,5; 92,4
2020-03-05 15:29:00; 10,0; 49; -0,2; 966,8118; 992,3750;4; 24,9; 24,9; 0,0; 0,0;247,5; 92,4
2020-03-05 15:38:59; 9,7; 50; -0,2; 966,1243; 991,6875;4; 24,8; 24,8; 0,0; 0,0;247,5; 92,4
2020-03-05 15:48:59; 9,6; 50; -0,3; 966,1243; 991,6875;4; 24,7; 24,7; 0,0; 0,0;247,5; 92,4
2020-03-05 15:59:00; 9,4; 50; -0,5; 965,2493; 990,8125;4; 24,6; 24,6; 0,0; 0,0;247,5; 92,4
2020-03-05 16:08:59; 9,3; 51; -0,3; 965,2493; 990,8125;4; 24,6; 24,6; 0,0; 0,0;247,5; 92,4
2020-03-05 16:19:00; 9,1; 50; -0,8; 965,0618; 990,6250;3; 24,5; 24,5; 0,0; 0,0;247,5; 92,4
2020-03-05 16:28:59; 8,9; 50; -1,0; 965,0618; 990,6250;3; 24,4; 24,4; 0,0; 0,0;247,5; 92,4
2020-03-05 16:39:00; 8,7; 52; -0,6; 964,8743; 990,4375;3; 24,4; 24,4; 0,0; 0,0;247,5; 92,4
2020-03-05 16:48:59; 8,5; 53; -0,5; 964,8743; 990,4375;3; 24,3; 24,3; 0,0; 0,0;247,5; 92,4
2020-03-05 16:59:00; 8,3; 54; -0,5; 964,4368; 990,0000;3; 24,2; 24,2; 0,0; 0,0;247,5; 92,4
2020-03-05 17:08:59; 8,1; 54; -0,7; 964,4368; 990,0000;3; 24,2; 24,2; 0,0; 0,0;247,5; 92,4
2020-03-05 17:18:59; 8,0; 55; -0,5; 964,0618; 989,6250;3; 24,2; 24,2; 0,0; 0,0;247,5; 92,4
2020-03-05 17:29:00; 7,9; 55; -0,6; 964,0618; 989,6250;3; 24,2; 24,2; 0,0; 0,0;247,5; 92,4
2020-03-05 17:38:59; 7,8; 55; -0,7; 963,8118; 989,3750;3; 24,1; 24,1; 0,0; 0,0;247,5; 92,4
2020-03-05 17:49:00; 7,6; 56; -0,6; 963,8118; 989,3750;3; 24,1; 24,1; 0,0; 0,0;247,5; 92,4
2020-03-05 17:58:59; 7,5; 56; -0,7; 963,1868; 988,7500;3; 24,0; 24,0; 0,0; 0,0;247,5; 92,4
2020-03-05 18:09:00; 7,5; 56; -0,7; 963,1868; 988,7500;3; 24,0; 24,0; 0,0; 0,0;247,5; 92,4
2020-03-05 18:18:59; 7,4; 56; -0,8; 962,6868; 988,2500;3; 24,0; 24,0; 0,0; 0,0;247,5; 92,4
2020-03-05 18:29:00; 7,3; 57; -0,7; 962,6868; 988,2500;3; 24,0; 24,0; 0,0; 0,0;247,5; 92,4
2020-03-05 18:38:59; 7,2; 57; -0,8; 962,6243; 988,1875;3; 24,0; 24,0; 0,0; 0,0;247,5; 92,4
2020-03-05 18:48:59; 7,2; 57; -0,8; 962,6243; 988,1875;3; 24,0; 24,0; 0,0; 0,0;247,5; 92,4
2020-03-05 18:59:00; 7,1; 58; -0,6; 962,3743; 987,9375;3; 23,9; 23,9; 0,0; 0,0;247,5; 92,4
2020-03-05 19:08:59; 7,0; 58; -0,7; 962,3743; 987,9375;3; 23,9; 23,9; 0,0; 0,0;247,5; 92,4
2020-03-05 19:19:00; 6,9; 59; -0,6; 962,1868; 987,7500;3; 23,9; 23,9; 0,0; 0,0;247,5; 92,4
2020-03-05 19:28:59; 6,9; 59; -0,6; 962,1868; 987,7500;3; 23,9; 23,9; 0,0; 0,0;247,5; 92,4
2020-03-05 19:39:00; 6,9; 59; -0,6; 962,0618; 987,6250;3; 23,9; 23,9; 0,0; 0,0;247,5; 92,4
2020-03-05 19:48:59; 6,9; 59; -0,6; 962,0618; 987,6250;3; 23,9; 23,9; 0,0; 0,0;247,5; 92,4
2020-03-05 19:59:00; 6,9; 58; -0,8; 961,4993; 987,0625;3; 23,9; 23,9; 0,0; 0,0;247,5; 92,4
2020-03-05 20:08:59; 6,9; 58; -0,8; 961,4993; 987,0625;3; 23,9; 23,9; 0,0; 0,0;247,5; 92,4
2020-03-05 20:18:59; 7,0; 57; -0,9; 961,4368; 987,0000;3; 23,9; 23,9; 0,0; 0,0;247,5; 92,4
2020-03-05 20:29:00; 7,1; 56; -1,1; 961,4368; 987,0000;3; 23,9; 23,9; 0,0; 0,0;247,5; 92,4
2020-03-05 20:38:59; 7,2; 56; -1,0; 961,3743; 986,9375;3; 23,9; 23,9; 0,0; 0,0;247,5; 92,4
2020-03-05 20:49:00; 7,2; 56; -1,0; 961,3743; 986,9375;3; 23,9; 23,9; 0,0; 0,0;247,5; 92,4
2020-03-05 20:58:59; 7,2; 56; -1,0; 961,3743; 986,9375;3; 23,8; 23,8; 0,0; 0,0;247,5; 92,4
2020-03-05 21:09:00; 7,3; 56; -0,9; 961,3743; 986,9375;3; 23,8; 23,8; 0,0; 0,0;247,5; 92,4
2020-03-05 21:18:59; 7,3; 56; -0,9; 961,0618; 986,6250;3; 23,8; 23,8; 0,0; 0,0;247,5; 92,4
2020-03-05 21:29:00; 7,2; 59; -0,3; 961,0618; 986,6250;3; 23,8; 23,8; 0,0; 0,0;247,5; 92,4
2020-03-05 21:38:59; 7,2; 58; -0,5; 961,1243; 986,6875;3; 23,8; 23,8; 0,0; 0,0;247,5; 92,4
2020-03-05 21:48:59; 7,1; 59; -0,4; 961,1243; 986,6875;3; 23,8; 23,8; 0,0; 0,0;247,5; 92,4
2020-03-05 21:59:00; 7,2; 59; -0,3; 961,0618; 986,6250;3; 23,8; 23,8; 0,0; 0,0;247,5; 92,4
2020-03-05 22:08:59; 7,1; 61; 0,1; 961,0618; 986,6250;3; 23,8; 23,8; 0,0; 0,0;247,5; 92,4
2020-03-05 22:19:00; 6,8; 64; 0,5; 960,7493; 986,3125;3; 23,8; 23,8; 0,0; 0,0;247,5; 92,4
2020-03-05 22:28:59; 6,6; 66; 0,7; 960,7493; 986,3125;3; 23,8; 23,8; 0,0; 0,0;247,5; 92,4
2020-03-05 22:39:00; 6,5; 67; 0,8; 960,4993; 986,0625;3; 23,8; 23,8; 0,0; 0,0;247,5; 92,4
2020-03-05 22:48:59; 6,3; 69; 1,0; 960,4993; 986,0625;3; 23,8; 23,8; 0,0; 0,0;247,5; 92,4
2020-03-05 22:59:00; 6,3; 70; 1,2; 960,1243; 985,6875;3; 23,8; 23,8; 0,0; 0,0;247,5; 92,4
2020-03-05 23:08:59; 6,2; 69; 0,9; 960,1243; 985,6875;3; 23,8; 23,8; 0,0; 0,0;247,5; 92,4
2020-03-05 23:18:59; 6,1; 70; 1,0; 959,8743; 985,4375;3; 23,7; 23,7; 0,0; 0,0;247,5; 92,4
2020-03-05 23:29:00; 6,0; 71; 1,1; 959,8743; 985,4375;3; 23,7; 23,7; 0,0; 0,0;247,5; 92,4
2020-03-05 23:38:59; 5,9; 72; 1,2; 959,5618; 985,1250;3; 23,7; 23,7; 0,0; 0,0;247,5; 92,4
2020-03-05 23:49:00; 5,8; 73; 1,3; 959,5618; 985,1250;3; 23,7; 23,7; 0,0; 0,0;247,5; 92,4
2020-03-05 23:58:59; 5,7; 73; 1,2; 959,4993; 985,0625;3; 23,7; 23,7; 0,0; 0,0;247,5; 92,4
2020-03-06 00:09:00; 5,6; 74; 1,3; 959,4993; 985,0625;3; 23,7; 23,7; 0,0; 0,0;247,5; 92,4
2020-03-06 00:18:59; 5,5; 74; 1,2; 959,2493; 984,8125;3; 23,7; 23,7; 0,0; 0,0;247,5; 92,4
2020-03-06 00:29:00; 5,5; 75; 1,4; 959,2493; 984,8125;3; 23,7; 23,7; 0,0; 0,0;247,5; 92,4
2020-03-06 00:38:59; 5,5; 76; 1,6; 959,0618; 984,6250;3; 23,7; 23,7; 0,0; 0,0;247,5; 92,4
2020-03-06 00:48:59; 5,4; 77; 1,7; 959,0618; 984,6250;3; 23,7; 23,7; 0,0; 0,0;247,5; 92,4
2020-03-06 00:59:00; 5,3; 77; 1,6; 958,8743; 984,4375;3; 23,7; 23,7; 0,0; 0,0;247,5; 92,4
2020-03-06 01:08:59; 5,3; 78; 1,8; 958,8743; 984,4375;3; 23,7; 23,7; 0,0; 0,0;247,5; 92,4
2020-03-06 01:19:00; 5,2; 79; 1,9; 958,7493; 984,3125;3; 23,7; 23,7; 0,0; 0,0;247,5; 92,4
2020-03-06 01:28:59; 5,1; 80; 1,9; 958,7493; 984,3125;3; 23,7; 23,7; 0,0; 0,0;247,5; 92,4
2020-03-06 01:39:00; 5,1; 80; 1,9; 958,6243; 984,1875;3; 23,7; 23,7; 0,0; 0,0;247,5; 92,4
2020-03-06 01:48:59; 5,1; 81; 2,1; 958,6243; 984,1875;3; 23,7; 23,7; 0,0; 0,0;247,5; 93,1
2020-03-06 01:59:00; 5,0; 81; 2,0; 958,4993; 984,0625;3; 23,7; 23,7; 0,0; 0,0;247,5; 93,1
2020-03-06 02:08:59; 4,9; 82; 2,1; 958,4993; 984,0625;3; 23,7; 23,7; 0,0; 0,0;247,5; 93,1
2020-03-06 02:18:59; 4,9; 82; 2,1; 958,1868; 983,7500;3; 23,6; 23,6; 0,0; 0,0;247,5; 93,1
2020-03-06 02:29:00; 4,9; 82; 2,1; 958,1868; 983,7500;3; 23,6; 23,6; 0,0; 0,0;247,5; 93,1
2020-03-06 02:38:59; 4,9; 82; 2,1; 957,9368; 983,5000;3; 23,6; 23,6; 0,0; 0,0;247,5; 93,1
2020-03-06 02:49:00; 4,8; 82; 2,0; 957,9368; 983,5000;3; 23,6; 23,6; 0,0; 0,0;247,5; 93,1
2020-03-06 02:58:59; 4,8; 82; 2,0; 957,8743; 983,4375;3; 23,6; 23,6; 0,0; 0,0;247,5; 93,1
2020-03-06 03:09:00; 4,8; 82; 2,0; 957,8743; 983,4375;3; 23,6; 23,6; 0,0; 0,0;247,5; 93,1
2020-03-06 03:18:59; 4,7; 82; 1,9; 957,6868; 983,2500;3; 23,6; 23,6; 0,0; 0,0;247,5; 93,8
2020-03-06 03:29:00; 4,8; 82; 2,0; 957,6868; 983,2500;3; 23,6; 23,6; 0,0; 0,0;247,5; 93,8
2020-03-06 03:38:59; 4,7; 82; 1,9; 957,5618; 983,1250;3; 23,6; 23,6; 0,0; 0,0;247,5; 93,8
2020-03-06 03:48:59; 4,7; 83; 2,1; 957,5618; 983,1250;3; 23,6; 23,6; 0,0; 0,0;247,5; 93,8
2020-03-06 03:59:00; 4,7; 83; 2,1; 957,8743; 983,4375;3; 23,6; 23,6; 0,0; 0,0;247,5; 93,8
2020-03-06 04:08:59; 4,7; 83; 2,1; 957,8743; 983,4375;3; 23,6; 23,6; 0,0; 0,0;247,5; 93,8
2020-03-06 04:19:00; 4,7; 83; 2,1; 957,6868; 983,2500;3; 23,6; 23,6; 0,0; 0,0;247,5; 93,8
2020-03-06 04:28:59; 4,7; 83; 2,1; 957,6868; 983,2500;3; 23,6; 23,6; 0,0; 0,0;247,5; 93,8
2020-03-06 04:39:00; 4,7; 84; 2,2; 957,6868; 983,2500;3; 23,6; 23,6; 0,0; 0,0;247,5; 93,8
2020-03-06 04:48:59; 4,7; 84; 2,2; 957,6868; 983,2500;3; 23,6; 23,6; 0,0; 0,0;247,5; 93,8
2020-03-06 04:59:00; 4,7; 84; 2,2; 957,6868; 983,2500;3; 23,6; 23,6; 0,0; 0,0;247,5; 93,8
2020-03-06 05:08:59; 4,7; 84; 2,2; 957,6868; 983,2500;3; 23,6; 23,6; 0,0; 0,0;247,5; 93,8
2020-03-06 05:18:59; 4,7; 84; 2,2; 957,6243; 983,1875;3; 23,6; 23,6; 0,0; 0,0;247,5; 93,8
2020-03-06 05:29:00; 4,7; 85; 2,4; 957,6243; 983,1875;3; 23,6; 23,6; 0,0; 0,0;247,5; 93,8
2020-03-06 05:38:59; 4,6; 85; 2,3; 957,6243; 983,1875;3; 23,6; 23,6; 0,0; 0,0;247,5; 93,8
2020-03-06 05:49:00; 4,6; 85; 2,3; 957,6243; 983,1875;3; 23,6; 23,6; 0,0; 0,0;247,5; 93,8
2020-03-06 05:58:59; 4,6; 86; 2,5; 957,8118; 983,3750;3; 23,6; 23,6; 0,0; 0,0;247,5; 93,8
2020-03-06 06:09:00; 4,7; 86; 2,6; 957,8118; 983,3750;3; 23,6; 23,6; 0,0; 0,0;247,5; 93,8
2020-03-06 06:18:59; 4,7; 86; 2,6; 957,9993; 983,5625;3; 23,6; 23,6; 0,0; 0,0;247,5; 93,8
2020-03-06 06:29:00; 4,7; 86; 2,6; 957,9993; 983,5625;3; 23,6; 23,6; 0,0; 0,0;247,5; 93,8
2020-03-06 06:38:59; 4,7; 87; 2,7; 958,1243; 983,6875;3; 23,6; 23,6; 0,0; 0,0;247,5; 93,8
2020-03-06 06:48:59; 4,7; 87; 2,7; 958,1243; 983,6875;3; 23,6; 23,6; 0,0; 0,0;247,5; 94,5
2020-03-06 06:59:00; 4,8; 87; 2,8; 958,2493; 983,8125;3; 23,6; 23,6; 0,0; 0,0;247,5; 94,5
2020-03-06 07:08:59; 4,8; 87; 2,8; 958,2493; 983,8125;3; 23,6; 23,6; 0,0; 0,0;247,5; 94,5
2020-03-06 07:19:00; 4,8; 88; 3,0; 958,3118; 983,8750;3; 23,6; 23,6; 0,0; 0,0;247,5; 94,5
2020-03-06 07:28:59; 4,8; 88; 3,0; 958,3118; 983,8750;3; 23,6; 23,6; 0,0; 0,0;247,5; 94,5
2020-03-06 07:39:00; 4,9; 88; 3,1; 958,4368; 984,0000;3; 23,6; 23,6; 0,0; 0,0;247,5; 94,5
2020-03-06 07:48:59; 5,0; 88; 3,2; 958,4368; 984,0000;3; 23,6; 23,6; 0,0; 0,0;247,5; 94,5
2020-03-06 07:59:00; 5,1; 88; 3,3; 958,5618; 984,1250;3; 23,6; 23,6; 0,0; 0,0;247,5; 94,5
2020-03-06 08:08:59; 5,3; 88; 3,5; 958,5618; 984,1250;3; 23,6; 23,6; 0,0; 0,0;247,5; 94,5
2020-03-06 08:18:59; 5,5; 88; 3,7; 958,6243; 984,1875;3; 23,7; 23,7; 0,0; 0,0;247,5; 94,5
2020-03-06 08:29:00; 5,7; 87; 3,7; 958,6243; 984,1875;3; 23,7; 23,7; 0,0; 0,0;247,5; 94,5
2020-03-06 08:38:59; 5,9; 87; 3,9; 958,8743; 984,4375;3; 23,7; 23,7; 0,0; 0,0;247,5; 94,5
2020-03-06 08:49:00; 6,1; 87; 4,1; 958,8743; 984,4375;3; 23,8; 23,8; 0,0; 0,0;247,5; 94,5
2020-03-06 08:58:59; 6,4; 87; 4,4; 958,9993; 984,5625;3; 23,8; 23,8; 0,0; 0,0;247,5; 94,5
2020-03-06 09:09:00; 6,6; 87; 4,6; 958,9993; 984,5625;3; 23,8; 23,8; 0,0; 0,0;247,5; 94,5
2020-03-06 09:18:59; 6,7; 86; 4,5; 958,9368; 984,5000;3; 23,8; 23,8; 0,0; 0,0;247,5; 94,5
2020-03-06 09:29:00; 7,0; 85; 4,7; 958,9368; 984,5000;3; 23,8; 23,8; 0,0; 0,0;247,5; 94,5
2020-03-06 09:38:59; 7,4; 86; 5,2; 958,9993; 984,5625;3; 23,9; 23,9; 0,0; 0,0;247,5; 94,5
2020-03-06 09:48:59; 7,8; 85; 5,4; 958,9993; 984,5625;3; 23,9; 23,9; 0,0; 0,0;247,5; 94,5
2020-03-06 09:59:00; 8,1; 84; 5,6; 959,1868; 984,7500;3; 23,9; 23,9; 0,0; 0,0;247,5; 94,5
2020-03-06 10:08:59; 8,5; 83; 5,8; 959,1868; 984,7500;3; 23,9; 23,9; 0,0; 0,0;247,5; 94,5
2020-03-06 10:19:00; 8,9; 80; 5,6; 959,2493; 984,8125;3; 23,9; 23,9; 0,0; 0,0;247,5; 94,5
2020-03-06 10:28:59; 9,3; 75; 5,1; 959,2493; 984,8125;3; 23,9; 23,9; 0,0; 0,0;247,5; 94,5
2020-03-06 10:39:00; 9,5; 74; 5,1; 959,2493; 984,8125;3; 24,0; 24,0; 0,0; 0,0;247,5; 94,5
2020-03-06 10:48:59; 9,8; 73; 5,2; 959,2493; 984,8125;3; 24,0; 24,0; 0,0; 0,0;247,5; 94,5
2020-03-06 10:59:00; 10,2; 69; 4,8; 959,2493; 984,8125;3; 24,0; 24,0; 0,0; 0,0;247,5; 94,5
2020-03-06 11:08:59; 10,3; 69; 4,9; 959,2493; 984,8125;3; 24,0; 24,0; 0,0; 0,0;247,5; 94,5
2020-03-06 11:18:59; 10,8; 63; 4,0; 959,4993; 985,0625;3; 24,2; 24,2; 0,0; 0,0;247,5; 94,5
2020-03-06 11:29:00; 10,9; 62; 3,9; 959,4993; 985,0625;3; 24,2; 24,2; 0,0; 0,0;247,5; 94,5
2020-03-06 11:38:59; 11,1; 61; 3,9; 959,6243; 985,1875;3; 24,3; 24,3; 0,0; 0,0;247,5; 94,5
2020-03-06 11:49:00; 11,4; 60; 3,9; 959,6243; 985,1875;3; 24,3; 24,3; 0,0; 0,0;247,5; 94,5
2020-03-06 11:58:59; 11,4; 59; 3,7; 960,0618; 985,6250;3; 24,4; 24,4; 0,0; 0,0;247,5; 94,5
2020-03-06 12:09:00; 11,5; 59; 3,8; 960,0618; 985,6250;3; 24,3; 24,3; 0,0; 0,0;247,5; 94,5
2020-03-06 12:18:59; 11,5; 58; 3,5; 959,8118; 985,3750;3; 24,3; 24,3; 0,0; 0,0;247,5; 94,5
2020-03-06 12:29:00; 11,4; 59; 3,7; 959,8118; 985,3750;3; 24,2; 24,2; 0,0; 0,0;247,5; 94,5
2020-03-06 12:38:59; 11,3; 59; 3,6; 960,1243; 985,6875;3; 24,2; 24,2; 0,0; 0,0;247,5; 94,5
2020-03-06 12:48:59; 11,1; 59; 3,4; 960,1243; 985,6875;3; 24,2; 24,2; 0,0; 0,0;247,5; 94,5
2020-03-06 12:59:00; 10,9; 58; 3,0; 960,3118; 985,8750;3; 24,1; 24,1; 0,0; 0,0;247,5; 94,5
2020-03-06 13:08:59; 11,0; 58; 3,1; 960,3118; 985,8750;3; 24,1; 24,1; 0,0; 0,0;247,5; 94,5
2020-03-06 13:19:00; 10,9; 59; 3,2; 960,4993; 986,0625;4; 24,1; 24,1; 0,0; 0,0;247,5; 94,5
2020-03-06 13:28:59; 10,7; 60; 3,2; 960,4993; 986,0625;4; 24,1; 24,1; 0,0; 0,0;247,5; 94,5
2020-03-06 13:39:00; 10,7; 61; 3,5; 960,8118; 986,3750;4; 24,1; 24,1; 0,0; 0,0;247,5; 94,5
2020-03-06 13:48:59; 10,1; 64; 3,6; 960,8118; 986,3750;4; 24,1; 24,1; 0,0; 0,0;247,5; 94,5
2020-03-06 13:59:00; 9,9; 65; 3,6; 961,1868; 986,7500;4; 24,0; 24,0; 0,0; 0,0;247,5; 94,5
2020-03-06 14:08:59; 9,6; 65; 3,3; 961,1868; 986,7500;4; 24,0; 24,0; 0,0; 0,0;247,5; 94,5
2020-03-06 14:18:59; 9,6; 65; 3,3; 961,1243; 986,6875;4; 24,0; 24,0; 0,0; 0,0;247,5; 94,5
2020-03-06 14:29:00; 9,4; 66; 3,4; 961,1243; 986,6875;4; 23,9; 23,9; 0,0; 0,0;247,5; 94,5
2020-03-06 14:38:59; 9,3; 66; 3,3; 961,1243; 986,6875;4; 23,9; 23,9; 0,0; 0,0;247,5; 94,5
2020-03-06 14:49:00; 9,3; 66; 3,3; 961,1243; 986,6875;4; 23,9; 23,9; 0,0; 0,0;247,5; 94,5
2020-03-06 14:58:59; 9,3; 66; 3,3; 961,3118; 986,8750;4; 23,9; 23,9; 0,0; 0,0;247,5; 94,5
2020-03-06 15:09:00; 9,2; 66; 3,2; 961,3118; 986,8750;4; 23,8; 23,8; 0,0; 0,0;247,5; 94,5
2020-03-06 15:18:59; 9,1; 66; 3,1; 961,3118; 986,8750;4; 23,8; 23,8; 0,0; 0,0;247,5; 94,5
2020-03-06 15:29:00; 8,9; 66; 2,9; 961,3118; 986,8750;4; 23,8; 23,8; 0,0; 0,0;247,5; 94,5
2020-03-06 15:38:59; 8,9; 66; 2,9; 961,4993; 987,0625;4; 23,8; 23,8; 0,0; 0,0;247,5; 94,5
2020-03-06 15:48:59; 8,9; 66; 2,9; 961,4993; 987,0625;4; 23,7; 23,7; 0,0; 0,0;247,5; 94,5
2020-03-06 15:59:00; 8,7; 67; 2,9; 962,1243; 987,6875;4; 23,7; 23,7; 0,0; 0,0;247,5; 94,5
2020-03-06 16:08:59; 8,7; 67; 2,9; 962,1243; 987,6875;4; 23,7; 23,7; 0,0; 0,0;247,5; 94,5
2020-03-06 16:19:00; 8,7; 67; 2,9; 962,0618; 987,6250;4; 23,7; 23,7; 0,0; 0,0;247,5; 94,5
2020-03-06 16:28:59; 8,5; 67; 2,7; 962,0618; 987,6250;4; 23,6; 23,6; 0,0; 0,0;247,5; 94,5
2020-03-06 16:39:00; 8,5; 66; 2,5; 962,4993; 988,0625;4; 23,6; 23,6; 0,0; 0,0;247,5; 94,5
2020-03-06 16:48:59; 8,3; 66; 2,3; 962,4993; 988,0625;4; 23,6; 23,6; 0,0; 0,0;247,5; 94,5
2020-03-06 16:59:00; 8,3; 66; 2,3; 962,6243; 988,1875;4; 23,6; 23,6; 0,0; 0,0;247,5; 94,5
2020-03-06 17:08:59; 8,2; 66; 2,2; 962,6243; 988,1875;4; 23,6; 23,6; 0,0; 0,0;247,5; 94,5
2020-03-06 17:18:59; 8,1; 66; 2,1; 962,9993; 988,5625;4; 23,6; 23,6; 0,0; 0,0;247,5; 94,5
2020-03-06 17:29:00; 7,9; 66; 1,9; 962,9993; 988,5625;4; 23,6; 23,6; 0,0; 0,0;247,5; 94,5
2020-03-06 17:38:59; 7,8; 67; 2,1; 963,1868; 988,7500;4; 23,6; 23,6; 0,0; 0,0;247,5; 94,5
2020-03-06 17:49:00; 7,6; 67; 1,9; 963,1868; 988,7500;4; 23,6; 23,6; 0,0; 0,0;247,5; 94,5
2020-03-06 17:58:59; 7,5; 68; 2,0; 963,4993; 989,0625;4; 23,5; 23,5; 0,0; 0,0;247,5; 94,5
2020-03-06 18:09:00; 7,4; 68; 1,9; 963,4993; 989,0625;4; 23,5; 23,5; 0,0; 0,0;247,5; 94,5
2020-03-06 18:18:59; 7,3; 69; 2,0; 963,6243; 989,1875;4; 23,5; 23,5; 0,0; 0,0;247,5; 94,5
2020-03-06 18:29:00; 7,2; 70; 2,1; 963,6243; 989,1875;4; 23,5; 23,5; 0,0; 0,0;247,5; 94,5
2020-03-06 18:38:59; 7,1; 71; 2,2; 963,8743; 989,4375;4; 23,4; 23,4; 0,0; 0,0;247,5; 94,5
2020-03-06 18:48:59; 6,9; 72; 2,2; 963,8743; 989,4375;4; 23,4; 23,4; 0,0; 0,0;247,5; 94,5
2020-03-06 18:59:00; 6,8; 73; 2,3; 964,1868; 989,7500;4; 23,4; 23,4; 0,0; 0,0;247,5; 94,5
2020-03-06 19:08:59; 6,7; 73; 2,2; 964,1868; 989,7500;4; 23,4; 23,4; 0,0; 0,0;247,5; 94,5
2020-03-06 19:19:00; 6,5; 74; 2,2; 964,4993; 990,0625;4; 23,4; 23,4; 0,0; 0,0;247,5; 94,5
2020-03-06 19:28:59; 6,4; 75; 2,3; 964,4993; 990,0625;4; 23,4; 23,4; 0,0; 0,0;247,5; 94,5
2020-03-06 19:39:00; 6,2; 75; 2,1; 964,8743; 990,4375;4; 23,4; 23,4; 0,0; 0,0;247,5; 94,5
2020-03-06 19:48:59; 6,1; 74; 1,8; 964,8743; 990,4375;4; 23,4; 23,4; 0,0; 0,0;247,5; 94,5
2020-03-06 19:59:00; 5,9; 74; 1,6; 965,2493; 990,8125;4; 23,4; 23,4; 0,0; 0,0;247,5; 94,5
2020-03-06 20:08:59; 5,7; 74; 1,4; 965,2493; 990,8125;4; 23,4; 23,4; 0,0; 0,0;247,5; 94,5
2020-03-06 20:18:59; 5,6; 74; 1,3; 965,4993; 991,0625;4; 23,4; 23,4; 0,0; 0,0;247,5; 94,5
2020-03-06 20:29:00; 5,5; 74; 1,2; 965,4993; 991,0625;4; 23,4; 23,4; 0,0; 0,0;247,5; 94,5
2020-03-06 20:38:59; 5,5; 75; 1,4; 965,7493; 991,3125;4; 23,4; 23,4; 0,0; 0,0;247,5; 94,5
2020-03-06 20:49:00; 5,5; 75; 1,4; 965,7493; 991,3125;4; 23,4; 23,4; 0,0; 0,0;247,5; 94,5
2020-03-06 20:58:59; 5,4; 75; 1,3; 965,8743; 991,4375;4; 23,4; 23,4; 0,0; 0,0;247,5; 94,5
2020-03-06 21:09:00; 5,4; 74; 1,1; 965,8743; 991,4375;4; 23,4; 23,4; 0,0; 0,0;247,5; 94,5
2020-03-06 21:18:59; 5,3; 74; 1,0; 966,1243; 991,6875;5; 23,4; 23,4; 0,0; 0,0;247,5; 94,5
2020-03-06 21:29:00; 5,1; 74; 0,8; 966,1243; 991,6875;5; 23,4; 23,4; 0,0; 0,0;247,5; 94,5
2020-03-06 21:38:59; 5,0; 75; 0,9; 966,4368; 992,0000;5; 23,4; 23,4; 0,0; 0,0;247,5; 94,5
2020-03-06 21:48:59; 4,9; 76; 1,0; 966,4368; 992,0000;5; 23,3; 23,3; 0,0; 0,0;247,5; 94,5
2020-03-06 21:59:00; 4,7; 77; 1,0; 966,6868; 992,2500;5; 23,3; 23,3; 0,0; 0,0;247,5; 94,5
2020-03-06 22:08:59; 4,7; 78; 1,2; 966,6868; 992,2500;5; 23,3; 23,3; 0,0; 0,0;247,5; 94,5
2020-03-06 22:19:00; 4,5; 78; 1,0; 966,8743; 992,4375;5; 23,3; 23,3; 0,0; 0,0;247,5; 94,5
2020-03-06 22:28:59; 4,4; 79; 1,1; 966,8743; 992,4375;5; 23,3; 23,3; 0,0; 0,0;247,5; 94,5
2020-03-06 22:39:00; 4,3; 80; 1,2; 967,0618; 992,6250;5; 23,3; 23,3; 0,0; 0,0;247,5; 94,5
2020-03-06 22:48:59; 4,1; 80; 1,0; 967,0618; 992,6250;5; 23,3; 23,3; 0,0; 0,0;247,5; 95,2
2020-03-06 22:59:00; 4,0; 81; 1,0; 967,4368; 993,0000;5; 23,3; 23,3; 0,0; 0,0;247,5; 95,2
2020-03-06 23:08:59; 4,0; 81; 1,0; 967,4368; 993,0000;5; 23,3; 23,3; 0,0; 0,0;247,5; 95,2
2020-03-06 23:18:59; 4,0; 81; 1,0; 967,5618; 993,1250;5; 23,3; 23,3; 0,0; 0,0;247,5; 95,2
2020-03-06 23:29:00; 4,0; 81; 1,0; 967,5618; 993,1250;5; 23,3; 23,3; 0,0; 0,0;247,5; 95,2
2020-03-06 23:38:59; 4,0; 81; 1,0; 967,8743; 993,4375;5; 23,3; 23,3; 0,0; 0,0;247,5; 95,2
2020-03-06 23:49:00; 3,9; 81; 0,9; 967,8743; 993,4375;5; 23,3; 23,3; 0,0; 0,0;247,5; 95,2
2020-03-06 23:58:59; 3,9; 82; 1,1; 968,1868; 993,7500;5; 23,3; 23,3; 0,0; 0,0;247,5; 95,2
2020-03-07 00:09:00; 3,9; 82; 1,1; 968,1868; 993,7500;5; 23,3; 23,3; 0,0; 0,0;247,5; 95,2
2020-03-07 00:18:59; 3,9; 82; 1,1; 968,4368; 994,0000;5; 23,3; 23,3; 0,0; 0,0;247,5; 95,2
2020-03-07 00:29:00; 3,9; 82; 1,1; 968,4368; 994,0000;5; 23,3; 23,3; 0,0; 0,0;247,5; 95,2
2020-03-07 00:38:59; 3,9; 82; 1,1; 968,5618; 994,1250;5; 23,3; 23,3; 0,0; 0,0;247,5; 95,2
2020-03-07 00:48:59; 3,8; 82; 1,0; 968,5618; 994,1250;5; 23,3; 23,3; 0,0; 0,0;247,5; 95,2
2020-03-07 00:59:00; 3,8; 82; 1,0; 968,7493; 994,3125;5; 23,3; 23,3; 0,0; 0,0;247,5; 95,2
2020-03-07 01:08:59; 3,8; 82; 1,0; 968,7493; 994,3125;5; 23,3; 23,3; 0,0; 0,0;247,5; 95,2
2020-03-07 01:19:00; 3,7; 81; 0,7; 968,9993; 994,5625;5; 23,3; 23,3; 0,0; 0,0;247,5; 95,2
2020-03-07 01:28:59; 3,6; 82; 0,8; 968,9993; 994,5625;5; 23,2; 23,2; 0,0; 0,0;247,5; 95,2
2020-03-07 01:39:00; 3,5; 82; 0,7; 969,2493; 994,8125;5; 23,2; 23,2; 0,0; 0,0;247,5; 95,2
2020-03-07 01:48:59; 3,4; 82; 0,6; 969,2493; 994,8125;5; 23,2; 23,2; 0,0; 0,0;247,5; 95,2
2020-03-07 01:59:00; 3,2; 83; 0,6; 969,3118; 994,8750;5; 23,2; 23,2; 0,0; 0,0;247,5; 95,2
2020-03-07 02:08:59; 3,2; 83; 0,6; 969,3118; 994,8750;5; 23,2; 23,2; 0,0; 0,0;247,5; 95,2
2020-03-07 02:18:59; 3,0; 84; 0,6; 969,4993; 995,0625;5; 23,2; 23,2; 0,0; 0,0;247,5; 95,2
2020-03-07 02:29:00; 3,0; 84; 0,6; 969,4993; 995,0625;5; 23,2; 23,2; 0,0; 0,0;247,5; 95,2
2020-03-07 02:38:59; 2,9; 84; 0,5; 969,7493; 995,3125;5; 23,2; 23,2; 0,0; 0,0;247,5; 95,2
2020-03-07 02:49:00; 2,9; 84; 0,5; 969,7493; 995,3125;5; 23,2; 23,2; 0,0; 0,0;247,5; 95,2
2020-03-07 02:58:59; 2,7; 84; 0,3; 969,8743; 995,4375;5; 23,2; 23,2; 0,0; 0,0;247,5; 95,2
2020-03-07 03:09:00; 2,6; 85; 0,3; 969,8743; 995,4375;5; 23,2; 23,2; 0,0; 0,0;247,5; 95,2
2020-03-07 03:18:59; 2,6; 85; 0,3; 970,0618; 995,6250;5; 23,2; 23,2; 0,0; 0,0;247,5; 95,2
2020-03-07 03:29:00; 2,5; 85; 0,2; 970,0618; 995,6250;5; 23,2; 23,2; 0,0; 0,0;247,5; 95,2
2020-03-07 03:38:59; 2,5; 86; 0,4; 970,3743; 995,9375;5; 23,2; 23,2; 0,0; 0,0;247,5; 95,2
2020-03-07 03:48:59; 2,4; 86; 0,3; 970,3743; 995,9375;5; 23,2; 23,2; 0,0; 0,0;247,5; 95,9
2020-03-07 03:59:00; 2,3; 86; 0,2; 970,6868; 996,2500;5; 23,2; 23,2; 0,0; 0,0;247,5; 95,9
2020-03-07 04:08:59; 2,3; 86; 0,2; 970,6868; 996,2500;5; 23,2; 23,2; 0,0; 0,0;247,5; 95,9
2020-03-07 04:19:00; 2,3; 87; 0,4; 970,9368; 996,5000;5; 23,2; 23,2; 0,0; 0,0;247,5; 95,9
2020-03-07 04:28:59; 2,4; 87; 0,5; 970,9368; 996,5000;5; 23,2; 23,2; 0,0; 0,0;247,5; 95,9
2020-03-07 04:39:00; 2,6; 88; 0,8; 971,2493; 996,8125;5; 23,2; 23,2; 0,0; 0,0;247,5; 95,9
2020-03-07 04:48:59; 2,7; 88; 0,9; 971,2493; 996,8125;5; 23,2; 23,2; 0,0; 0,0;247,5; 95,9
2020-03-07 04:59:00; 2,8; 88; 1,0; 971,4368; 997,0000;5; 23,2; 23,2; 0,0; 0,0;247,5; 95,9
2020-03-07 05:08:59; 2,8; 88; 1,0; 971,4368; 997,0000;5; 23,2; 23,2; 0,0; 0,0;247,5; 95,9
2020-03-07 05:18:59; 2,8; 87; 0,9; 971,8118; 997,3750;6; 23,2; 23,2; 0,0; 0,0;247,5; 95,9
2020-03-07 05:29:00; 2,7; 87; 0,8; 971,8118; 997,3750;6; 23,2; 23,2; 0,0; 0,0;247,5; 95,9
2020-03-07 05:38:59; 2,8; 87; 0,9; 972,1868; 997,7500;6; 23,2; 23,2; 0,0; 0,0;247,5; 95,9
2020-03-07 05:49:00; 2,8; 87; 0,9; 972,1868; 997,7500;6; 23,2; 23,2; 0,0; 0,0;247,5; 96,6
2020-03-07 05:58:59; 2,9; 88; 1,1; 972,4993; 998,0625;6; 23,2; 23,2; 0,0; 0,0;247,5; 96,6
2020-03-07 06:09:00; 3,0; 88; 1,2; 972,4993; 998,0625;6; 23,2; 23,2; 0,0; 0,0;247,5; 96,6
2020-03-07 06:18:59; 3,0; 88; 1,2; 972,8118; 998,3750;6; 23,2; 23,2; 0,0; 0,0;247,5; 96,6
2020-03-07 06:29:00; 3,1; 87; 1,1; 972,8118; 998,3750;6; 23,2; 23,2; 0,0; 0,0;247,5; 96,6
2020-03-07 06:38:59; 3,3; 87; 1,3; 973,3743; 998,9375;6; 23,2; 23,2; 0,0; 0,0;247,5; 96,6
2020-03-07 06:48:59; 3,3; 87; 1,3; 973,3743; 998,9375;6; 23,2; 23,2; 0,0; 0,0;247,5; 96,6
2020-03-07 06:59:00; 3,4; 87; 1,4; 973,6243; 999,1875;6; 23,2; 23,2; 0,0; 0,0;247,5; 96,6
2020-03-07 07:08:59; 3,3; 87; 1,3; 973,6243; 999,1875;6; 23,2; 23,2; 0,0; 0,0;247,5; 96,6
2020-03-07 07:19:00; 3,3; 87; 1,3; 974,1868; 999,7500;6; 23,2; 23,2; 0,0; 0,0;247,5; 96,6
2020-03-07 07:28:59; 3,3; 87; 1,3; 974,1868; 999,7500;6; 23,2; 23,2; 0,0; 0,0;247,5; 96,6
2020-03-07 07:39:00; 3,3; 87; 1,3; 974,4993;1000,0625;6; 23,2; 23,2; 0,0; 0,0;247,5; 96,6
2020-03-07 07:48:59; 3,3; 87; 1,3; 974,4993;1000,0625;6; 23,2; 23,2; 0,0; 0,0;247,5; 96,6
2020-03-07 07:59:00; 3,3; 87; 1,3; 974,9993;1000,5625;6; 23,2; 23,2; 0,0; 0,0;247,5; 96,6
2020-03-07 08:08:59; 3,4; 87; 1,4; 974,9993;1000,5625;6; 23,2; 23,2; 0,0; 0,0;247,5; 96,6
2020-03-07 08:18:59; 3,4; 87; 1,4; 975,3743;1000,9375;6; 23,2; 23,2; 0,0; 0,0;247,5; 96,6
2020-03-07 08:29:00; 3,4; 87; 1,4; 975,3743;1000,9375;6; 23,2; 23,2; 0,0; 0,0;247,5; 97,3
2020-03-07 08:38:59; 3,4; 87; 1,4; 975,9368;1001,5000;6; 23,2; 23,2; 0,0; 0,0;247,5; 97,3
2020-03-07 08:49:00; 3,5; 87; 1,5; 975,9368;1001,5000;6; 23,2; 23,2; 0,0; 0,0;247,5; 97,3
2020-03-07 08:58:59; 3,5; 87; 1,5; 976,0618;1001,6250;6; 23,2; 23,2; 0,0; 0,0;247,5; 97,3
2020-03-07 09:09:00; 3,6; 87; 1,6; 976,0618;1001,6250;6; 23,2; 23,2; 0,0; 0,0;247,5; 97,3
2020-03-07 09:18:59; 3,7; 87; 1,7; 976,4368;1002,0000;6; 23,2; 23,2; 0,0; 0,0;247,5; 97,3
2020-03-07 09:29:00; 3,7; 86; 1,6; 976,4368;1002,0000;6; 23,2; 23,2; 0,0; 0,0;247,5; 97,3
2020-03-07 09:38:59; 3,8; 85; 1,5; 976,7493;1002,3125;6; 23,2; 23,2; 0,0; 0,0;247,5; 97,3
2020-03-07 09:48:59; 3,8; 85; 1,5; 976,7493;1002,3125;6; 23,2; 23,2; 0,0; 0,0;247,5; 97,3
2020-03-07 09:59:00; 4,0; 84; 1,5; 977,3743;1002,9375;6; 23,2; 23,2; 0,0; 0,0;247,5; 97,3
2020-03-07 10:08:59; 4,2; 84; 1,7; 977,3743;1002,9375;6; 23,3; 23,3; 0,0; 0,0;247,5; 97,3
2020-03-07 10:19:00; 4,3; 83; 1,7; 977,6243;1003,1875;6; 23,3; 23,3; 0,0; 0,0;247,5; 97,3
2020-03-07 10:28:59; 4,3; 83; 1,7; 977,6243;1003,1875;6; 23,3; 23,3; 0,0; 0,0;247,5; 97,3
2020-03-07 10:39:00; 4,3; 83; 1,7; 977,8743;1003,4375;6; 23,3; 23,3; 0,0; 0,0;247,5; 97,3
2020-03-07 10:48:59; 4,4; 82; 1,6; 977,8743;1003,4375;6; 23,3; 23,3; 0,0; 0,0;247,5; 97,3
2020-03-07 10:59:00; 4,6; 82; 1,8; 978,1243;1003,6875;6; 23,3; 23,3; 0,0; 0,0;247,5; 97,3
2020-03-07 11:08:59; 4,6; 81; 1,6; 978,1243;1003,6875;6; 23,3; 23,3; 0,0; 0,0;247,5; 97,3
2020-03-07 11:18:59; 4,9; 80; 1,7; 978,3118;1003,8750;6; 23,4; 23,4; 0,0; 0,0;247,5; 97,3
2020-03-07 11:29:00; 4,9; 80; 1,7; 978,3118;1003,8750;6; 23,4; 23,4; 0,0; 0,0;247,5; 97,3
2020-03-07 11:38:59; 5,0; 80; 1,8; 978,4368;1004,0000;6; 23,4; 23,4; 0,0; 0,0;247,5; 97,3
2020-03-07 11:49:00; 5,2; 75; 1,1; 978,4368;1004,0000;6; 23,4; 23,4; 0,0; 0,0;247,5; 97,3
2020-03-07 11:58:59; 5,4; 74; 1,1; 978,5618;1004,1250;6; 23,4; 23,4; 0,0; 0,0;247,5; 97,3
2020-03-07 12:09:00; 5,6; 72; 1,0; 978,5618;1004,1250;6; 23,4; 23,4; 0,0; 0,0;247,5; 97,3
2020-03-07 12:18:59; 5,8; 71; 0,9; 978,8743;1004,4375;6; 23,4; 23,4; 0,0; 0,0;247,5; 97,3
2020-03-07 12:29:00; 6,2; 70; 1,1; 978,8743;1004,4375;6; 23,5; 23,5; 0,0; 0,0;247,5; 97,3
2020-03-07 12:38:59; 6,2; 67; 0,5; 979,0618;1004,6250;6; 23,6; 23,6; 0,0; 0,0;247,5; 97,3
2020-03-07 12:48:59; 6,3; 65; 0,2; 979,0618;1004,6250;6; 23,7; 23,7; 0,0; 0,0;247,5; 97,3
2020-03-07 12:59:00; 6,3; 65; 0,2; 979,4368;1005,0000;6; 23,7; 23,7; 0,0; 0,0;247,5; 97,3
2020-03-07 13:08:59; 6,6; 65; 0,5; 979,4368;1005,0000;6; 23,8; 23,8; 0,0; 0,0;247,5; 97,3
2020-03-07 13:19:00; 6,5; 67; 0,8; 979,8118;1005,3750;6; 23,9; 23,9; 0,0; 0,0;247,5; 97,3
2020-03-07 13:28:59; 6,6; 66; 0,7; 979,8118;1005,3750;6; 23,8; 23,8; 0,0; 0,0;247,5; 97,3
2020-03-07 13:39:00; 6,5; 67; 0,8; 979,8743;1005,4375;6; 23,8; 23,8; 0,0; 0,0;247,5; 97,3
2020-03-07 13:48:59; 6,6; 65; 0,5; 979,8743;1005,4375;6; 23,8; 23,8; 0,0; 0,0;247,5; 97,3
2020-03-07 13:59:00; 6,6; 66; 0,7; 980,1243;1005,6875;6; 23,7; 23,7; 0,0; 0,0;247,5; 97,3
2020-03-07 14:08:59; 6,7; 65; 0,6; 980,1243;1005,6875;6; 23,8; 23,8; 0,0; 0,0;247,5; 97,3
2020-03-07 14:18:59; 6,3; 66; 0,4; 980,3118;1005,8750;6; 23,6; 23,6; 0,0; 0,0;247,5; 97,3
2020-03-07 14:29:00; 6,3; 65; 0,2; 980,3118;1005,8750;6; 23,6; 23,6; 0,0; 0,0;247,5; 97,3
2020-03-07 14:38:59; 6,3; 65; 0,2; 980,6868;1006,2500;6; 23,5; 23,5; 0,0; 0,0;247,5; 97,3
2020-03-07 14:49:00; 6,8; 64; 0,5; 980,6868;1006,2500;6; 23,6; 23,6; 0,0; 0,0;247,5; 97,3
2020-03-07 14:58:59; 7,2; 61; 0,2; 980,6868;1006,2500;6; 23,7; 23,7; 0,0; 0,0;247,5; 97,3
2020-03-07 15:09:00; 6,9; 63; 0,3; 980,6868;1006,2500;6; 23,8; 23,8; 0,0; 0,0;247,5; 97,3
2020-03-07 15:18:59; 6,7; 64; 0,4; 981,0618;1006,6250;6; 23,8; 23,8; 0,0; 0,0;247,5; 97,3
2020-03-07 15:29:00; 6,7; 65; 0,6; 981,0618;1006,6250;6; 23,7; 23,7; 0,0; 0,0;247,5; 97,3
2020-03-07 15:38:59; 6,6; 64; 0,3; 981,1243;1006,6875;6; 23,7; 23,7; 0,0; 0,0;247,5; 97,3
2020-03-07 15:48:59; 6,3; 65; 0,2; 981,1243;1006,6875;6; 23,6; 23,6; 0,0; 0,0;247,5; 97,3
2020-03-07 15:59:00; 6,0; 67; 0,3; 981,6243;1007,1875;6; 23,5; 23,5; 0,0; 0,0;247,5; 97,3
2020-03-07 16:08:59; 5,8; 68; 0,4; 981,6243;1007,1875;6; 23,4; 23,4; 0,0; 0,0;247,5; 97,3
2020-03-07 16:19:00; 5,5; 69; 0,3; 981,5618;1007,1250;6; 23,4; 23,4; 0,0; 0,0;247,5; 97,3
2020-03-07 16:28:59; 5,3; 71; 0,5; 981,5618;1007,1250;6; 23,4; 23,4; 0,0; 0,0;247,5; 97,3
2020-03-07 16:39:00; 5,2; 70; 0,2; 981,9993;1007,5625;6; 23,4; 23,4; 0,0; 0,0;247,5; 97,3
2020-03-07 16:48:59; 5,0; 71; 0,2; 981,9993;1007,5625;6; 23,3; 23,3; 0,0; 0,0;247,5; 97,3
2020-03-07 16:59:00; 4,9; 71; 0,1; 982,4368;1008,0000;6; 23,3; 23,3; 0,0; 0,0;247,5; 97,3
2020-03-07 17:08:59; 4,7; 72; 0,1; 982,4368;1008,0000;6; 23,2; 23,2; 0,0; 0,0;247,5; 97,3
2020-03-07 17:18:59; 4,6; 72; 0,0; 982,5618;1008,1250;6; 23,2; 23,2; 0,0; 0,0;247,5; 97,3
2020-03-07 17:29:00; 4,4; 73; 0,0; 982,5618;1008,1250;6; 23,2; 23,2; 0,0; 0,0;247,5; 97,3
2020-03-07 17:38:59; 4,3; 73; -0,1; 983,0618;1008,6250;6; 23,2; 23,2; 0,0; 0,0;247,5; 97,3
2020-03-07 17:49:00; 4,2; 73; -0,2; 983,0618;1008,6250;6; 23,2; 23,2; 0,0; 0,0;247,5; 97,3
2020-03-07 17:58:59; 4,1; 73; -0,3; 983,3743;1008,9375;6; 23,2; 23,2; 0,0; 0,0;247,5; 97,3
2020-03-07 18:09:00; 3,9; 74; -0,3; 983,3743;1008,9375;6; 23,2; 23,2; 0,0; 0,0;247,5; 97,3
2020-03-07 18:18:59; 3,8; 74; -0,4; 983,5618;1009,1250;6; 23,2; 23,2; 0,0; 0,0;247,5; 97,3
2020-03-07 18:29:00; 3,7; 74; -0,5; 983,5618;1009,1250;6; 23,2; 23,2; 0,0; 0,0;247,5; 97,3
2020-03-07 18:38:59; 3,5; 74; -0,7; 983,6868;1009,2500;6; 23,2; 23,2; 0,0; 0,0;247,5; 97,3
2020-03-07 18:48:59; 3,6; 74; -0,6; 983,6868;1009,2500;6; 23,2; 23,2; 0,0; 0,0;247,5; 97,3
2020-03-07 18:59:00; 3,5; 75; -0,5; 983,8743;1009,4375;6; 23,2; 23,2; 0,0; 0,0;247,5; 97,3
2020-03-07 19:08:59; 3,5; 75; -0,5; 983,8743;1009,4375;6; 23,1; 23,1; 0,0; 0,0;247,5; 97,3
2020-03-07 19:19:00; 3,3; 75; -0,7; 984,1243;1009,6875;6; 23,1; 23,1; 0,0; 0,0;247,5; 97,3
2020-03-07 19:28:59; 3,2; 75; -0,8; 984,1243;1009,6875;6; 23,1; 23,1; 0,0; 0,0;247,5; 97,3
2020-03-07 19:39:00; 3,2; 76; -0,6; 983,9368;1009,5000;6; 23,1; 23,1; 0,0; 0,0;247,5; 97,3
2020-03-07 19:48:59; 3,1; 76; -0,7; 983,9368;1009,5000;6; 23,1; 23,1; 0,0; 0,0;247,5; 97,3
2020-03-07 19:59:00; 3,1; 76; -0,7; 984,1868;1009,7500;6; 23,1; 23,1; 0,0; 0,0;247,5; 97,3
2020-03-07 20:08:59; 3,1; 76; -0,7; 984,1868;1009,7500;6; 23,1; 23,1; 0,0; 0,0;247,5; 97,3
2020-03-07 20:18:59; 3,0; 77; -0,6; 984,3743;1009,9375;6; 23,1; 23,1; 0,0; 0,0;247,5; 97,3
2020-03-07 20:29:00; 3,0; 77; -0,6; 984,3743;1009,9375;6; 23,1; 23,1; 0,0; 0,0;247,5; 97,3
2020-03-07 20:38:59; 3,0; 77; -0,6; 984,4368;1010,0000;6; 23,1; 23,1; 0,0; 0,0;247,5; 97,3
2020-03-07 20:49:00; 3,1; 78; -0,4; 984,4368;1010,0000;6; 23,1; 23,1; 0,0; 0,0;247,5; 97,3
2020-03-07 20:58:59; 3,1; 78; -0,4; 984,4993;1010,0625;6; 23,1; 23,1; 0,0; 0,0;247,5; 97,3
2020-03-07 21:09:00; 3,3; 78; -0,2; 984,4993;1010,0625;6; 23,1; 23,1; 0,0; 0,0;247,5; 97,3
2020-03-07 21:18:59; 3,3; 78; -0,2; 984,6868;1010,2500;6; 23,1; 23,1; 0,0; 0,0;247,5; 97,3
2020-03-07 21:29:00; 3,4; 78; -0,1; 984,6868;1010,2500;6; 23,1; 23,1; 0,0; 0,0;247,5; 97,3
2020-03-07 21:38:59; 3,5; 78; 0,0; 984,5618;1010,1250;6; 23,1; 23,1; 0,0; 0,0;247,5; 97,3
2020-03-07 21:48:59; 3,6; 78; 0,1; 984,5618;1010,1250;6; 23,1; 23,1; 0,0; 0,0;247,5; 97,3
2020-03-07 21:59:00; 3,6; 77; -0,1; 984,6243;1010,1875;6; 23,1; 23,1; 0,0; 0,0;247,5; 97,3
2020-03-07 22:08:59; 3,8; 76; 0,0; 984,6243;1010,1875;6; 23,1; 23,1; 0,0; 0,0;247,5; 97,3
2020-03-07 22:19:00; 3,8; 76; 0,0; 984,6868;1010,2500;6; 23,1; 23,1; 0,0; 0,0;247,5; 97,3
2020-03-07 22:28:59; 3,8; 76; 0,0; 984,6868;1010,2500;6; 23,1; 23,1; 0,0; 0,0;247,5; 97,3
2020-03-07 22:39:00; 3,8; 76; 0,0; 984,6868;1010,2500;6; 23,1; 23,1; 0,0; 0,0;247,5; 97,3
2020-03-07 22:48:59; 3,8; 75; -0,2; 984,6868;1010,2500;6; 23,1; 23,1; 0,0; 0,0;247,5; 97,3
2020-03-07 22:59:00; 3,8; 75; -0,2; 984,9368;1010,5000;6; 23,1; 23,1; 0,0; 0,0;247,5; 97,3
2020-03-07 23:08:59; 3,8; 75; -0,2; 984,9368;1010,5000;6; 23,1; 23,1; 0,0; 0,0;247,5; 97,3
2020-03-07 23:18:59; 3,8; 75; -0,2; 984,8118;1010,3750;6; 23,1; 23,1; 0,0; 0,0;247,5; 97,3
2020-03-07 23:29:00; 3,8; 75; -0,2; 984,8118;1010,3750;6; 23,1; 23,1; 0,0; 0,0;247,5; 97,3
2020-03-07 23:38:59; 3,7; 75; -0,3; 984,6868;1010,2500;6; 23,1; 23,1; 0,0; 0,0;247,5; 97,3
2020-03-07 23:49:00; 3,7; 75; -0,3; 984,6868;1010,2500;6; 23,1; 23,1; 0,0; 0,0;247,5; 97,3
2020-03-07 23:58:59; 3,7; 75; -0,3; 984,6868;1010,2500;6; 23,1; 23,1; 0,0; 0,0;247,5; 97,3
2020-03-08 00:09:00; 3,7; 75; -0,3; 984,6868;1010,2500;6; 23,1; 23,1; 0,0; 0,0;247,5; 97,3
2020-03-08 00:18:59; 3,7; 74; -0,5; 984,8743;1010,4375;6; 23,1; 23,1; 0,0; 0,0;247,5; 97,3
2020-03-08 00:29:00; 3,7; 74; -0,5; 984,8743;1010,4375;6; 23,1; 23,1; 0,0; 0,0;247,5; 97,3
2020-03-08 00:38:59; 3,7; 74; -0,5; 984,8118;1010,3750;6; 23,1; 23,1; 0,0; 0,0;247,5; 97,3
2020-03-08 00:48:59; 3,6; 74; -0,6; 984,8118;1010,3750;6; 23,1; 23,1; 0,0; 0,0;247,5; 97,3
2020-03-08 00:59:00; 3,6; 74; -0,6; 984,6868;1010,2500;6; 23,1; 23,1; 0,0; 0,0;247,5; 97,3
2020-03-08 01:08:59; 3,6; 74; -0,6; 984,6868;1010,2500;6; 23,1; 23,1; 0,0; 0,0;247,5; 97,3
2020-03-08 01:19:00; 3,6; 73; -0,8; 984,6868;1010,2500;6; 23,1; 23,1; 0,0; 0,0;247,5; 97,3
2020-03-08 01:28:59; 3,6; 73; -0,8; 984,6868;1010,2500;6; 23,1; 23,1; 0,0; 0,0;247,5; 97,3
2020-03-08 01:39:00; 3,6; 73; -0,8; 984,4993;1010,0625;6; 23,1; 23,1; 0,0; 0,0;247,5; 97,3
2020-03-08 01:48:59; 3,5; 73; -0,9; 984,4993;1010,0625;6; 23,1; 23,1; 0,0; 0,0;247,5; 97,3
2020-03-08 01:59:00; 3,4; 74; -0,8; 984,3743;1009,9375;6; 23,1; 23,1; 0,0; 0,0;247,5; 97,3
2020-03-08 02:08:59; 3,4; 74; -0,8; 984,3743;1009,9375;6; 23,1; 23,1; 0,0; 0,0;247,5; 97,3
2020-03-08 02:18:59; 3,4; 74; -0,8; 984,2493;1009,8125;6; 23,1; 23,1; 0,0; 0,0;247,5; 97,3
2020-03-08 02:29:00; 3,4; 74; -0,8; 984,2493;1009,8125;6; 23,0; 23,0; 0,0; 0,0;247,5; 97,3
2020-03-08 02:38:59; 3,3; 73; -1,1; 984,1868;1009,7500;6; 23,0; 23,0; 0,0; 0,0;247,5; 97,3
2020-03-08 02:49:00; 3,3; 73; -1,1; 984,1868;1009,7500;6; 23,0; 23,0; 0,0; 0,0;247,5; 97,3
2020-03-08 02:58:59; 3,1; 73; -1,3; 984,3118;1009,8750;6; 23,0; 23,0; 0,0; 0,0;247,5; 97,3
2020-03-08 03:09:00; 3,1; 73; -1,3; 984,3118;1009,8750;6; 23,0; 23,0; 0,0; 0,0;247,5; 97,3
2020-03-08 03:18:59; 3,0; 73; -1,4; 984,2493;1009,8125;6; 23,1; 23,1; 0,0; 0,0;247,5; 97,3
2020-03-08 03:29:00; 3,0; 73; -1,4; 984,2493;1009,8125;6; 23,0; 23,0; 0,0; 0,0;247,5; 97,3
2020-03-08 03:38:59; 2,8; 73; -1,6; 984,1868;1009,7500;6; 23,1; 23,1; 0,0; 0,0;247,5; 97,3
2020-03-08 03:48:59; 2,8; 73; -1,6; 984,1868;1009,7500;6; 23,0; 23,0; 0,0; 0,0;247,5; 97,3
2020-03-08 03:59:00; 2,7; 73; -1,7; 983,9368;1009,5000;6; 23,1; 23,1; 0,0; 0,0;247,5; 97,3
2020-03-08 04:08:59; 2,7; 73; -1,7; 983,9368;1009,5000;6; 23,1; 23,1; 0,0; 0,0;247,5; 97,3
2020-03-08 04:19:00; 2,5; 74; -1,7; 983,8743;1009,4375;6; 23,0; 23,0; 0,0; 0,0;247,5; 97,3
2020-03-08 04:28:59; 2,4; 74; -1,8; 983,8743;1009,4375;6; 23,1; 23,1; 0,0; 0,0;247,5; 97,3
2020-03-08 04:39:00; 2,3; 74; -1,9; 983,4368;1009,0000;6; 23,1; 23,1; 0,0; 0,0;247,5; 97,3
2020-03-08 04:48:59; 2,3; 74; -1,9; 983,4368;1009,0000;6; 23,1; 23,1; 0,0; 0,0;247,5; 97,3
2020-03-08 04:59:00; 2,2; 75; -1,8; 983,5618;1009,1250;6; 23,1; 23,1; 0,0; 0,0;247,5; 97,3
2020-03-08 05:08:59; 2,1; 75; -1,9; 983,5618;1009,1250;6; 23,0; 23,0; 0,0; 0,0;247,5; 97,3
2020-03-08 05:18:59; 2,0; 76; -1,8; 983,6868;1009,2500;6; 23,0; 23,0; 0,0; 0,0;247,5; 97,3
2020-03-08 05:29:00; 2,0; 76; -1,8; 983,6868;1009,2500;6; 23,0; 23,0; 0,0; 0,0;247,5; 97,3
2020-03-08 05:38:59; 2,0; 76; -1,8; 983,8118;1009,3750;6; 23,0; 23,0; 0,0; 0,0;247,5; 97,3
2020-03-08 05:49:00; 2,1; 76; -1,7; 983,8118;1009,3750;6; 23,0; 23,0; 0,0; 0,0;247,5; 97,3
2020-03-08 05:58:59; 2,1; 76; -1,7; 983,6868;1009,2500;6; 23,0; 23,0; 0,0; 0,0;247,5; 97,3
2020-03-08 06:09:00; 2,2; 77; -1,4; 983,6868;1009,2500;6; 23,0; 23,0; 0,0; 0,0;247,5; 97,3
2020-03-08 06:18:59; 2,3; 77; -1,3; 983,6243;1009,1875;6; 23,1; 23,1; 0,0; 0,0;247,5; 97,3
2020-03-08 06:29:00; 2,4; 77; -1,2; 983,6243;1009,1875;6; 23,0; 23,0; 0,0; 0,0;247,5; 97,3
2020-03-08 06:38:59; 2,5; 76; -1,3; 983,6868;1009,2500;6; 23,1; 23,1; 0,0; 0,0;247,5; 97,3
2020-03-08 06:48:59; 2,7; 77; -0,9; 983,6868;1009,2500;6; 23,0; 23,0; 0,0; 0,0;247,5; 97,3
2020-03-08 06:59:00; 3,0; 76; -0,8; 983,6868;1009,2500;6; 23,1; 23,1; 0,0; 0,0;247,5; 97,3
2020-03-08 07:08:59; 3,5; 76; -0,3; 983,6868;1009,2500;6; 23,1; 23,1; 0,0; 0,0;247,5; 97,3
2020-03-08 07:19:00; 4,3; 74; 0,1; 983,6868;1009,2500;6; 23,2; 23,2; 0,0; 0,0;247,5; 97,3
2020-03-08 07:28:59; 5,1; 72; 0,5; 983,6868;1009,2500;6; 23,5; 23,5; 0,0; 0,0;247,5; 97,3
2020-03-08 07:39:00; 5,7; 69; 0,5; 983,8118;1009,3750;6; 23,8; 23,8; 0,0; 0,0;247,5; 97,3
2020-03-08 07:48:59; 6,4; 67; 0,7; 983,8118;1009,3750;6; 24,3; 24,3; 0,0; 0,0;247,5; 97,3
2020-03-08 07:59:00; 7,1; 65; 1,0; 984,1868;1009,7500;6; 25,0; 25,0; 0,0; 0,0;247,5; 97,3
2020-03-08 08:08:59; 7,7; 62; 0,9; 984,1868;1009,7500;6; 25,7; 25,7; 0,0; 0,0;247,5; 97,3
2020-03-08 08:18:59; 8,4; 60; 1,1; 984,4993;1010,0625;6; 26,2; 26,2; 0,0; 0,0;247,5; 97,3
2020-03-08 08:29:00; 8,7; 58; 0,9; 984,4993;1010,0625;6; 26,7; 26,7; 0,0; 0,0;247,5; 97,3
2020-03-08 08:38:59; 9,1; 57; 1,0; 984,5618;1010,1250;6; 27,1; 27,1; 0,0; 0,0;247,5; 97,3
2020-03-08 08:49:00; 9,5; 55; 0,9; 984,5618;1010,1250;6; 27,5; 27,5; 0,0; 0,0;247,5; 97,3
2020-03-08 08:58:59; 10,0; 55; 1,4; 984,6243;1010,1875;6; 27,7; 27,7; 0,0; 0,0;247,5; 97,3
2020-03-08 09:09:00; 10,5; 55; 1,8; 984,6243;1010,1875;6; 27,8; 27,8; 0,0; 0,0;247,5; 97,3
2020-03-08 09:18:59; 11,0; 55; 2,3; 984,4993;1010,0625;6; 27,9; 27,9; 0,0; 0,0;247,5; 97,3
2020-03-08 09:29:00; 11,3; 53; 2,1; 984,4993;1010,0625;6; 27,7; 27,7; 0,0; 0,0;247,5; 97,3
2020-03-08 09:38:59; 11,4; 53; 2,2; 984,2493;1009,8125;6; 27,1; 27,1; 0,0; 0,0;247,5; 97,3
2020-03-08 09:48:59; 11,4; 53; 2,2; 984,2493;1009,8125;6; 26,6; 26,6; 0,0; 0,0;247,5; 97,3
2020-03-08 09:59:00; 11,1; 54; 2,1; 983,9993;1009,5625;6; 26,1; 26,1; 0,0; 0,0;247,5; 97,3
2020-03-08 10:08:59; 11,1; 55; 2,4; 983,9993;1009,5625;6; 25,6; 25,6; 0,0; 0,0;247,5; 97,3
2020-03-08 10:19:00; 10,7; 55; 2,0; 983,7493;1009,3125;6; 25,3; 25,3; 0,0; 0,0;247,5; 97,3
2020-03-08 10:28:59; 10,6; 56; 2,2; 983,7493;1009,3125;6; 25,0; 25,0; 0,0; 0,0;247,5; 97,3
2020-03-08 10:39:00; 10,7; 56; 2,3; 983,4368;1009,0000;6; 24,7; 24,7; 0,0; 0,0;247,5; 97,3
2020-03-08 10:48:59; 10,6; 56; 2,2; 983,4368;1009,0000;6; 24,6; 24,6; 0,0; 0,0;247,5; 97,3
2020-03-08 10:59:00; 10,5; 57; 2,3; 983,3118;1008,8750;6; 24,4; 24,4; 0,0; 0,0;247,5; 97,3
2020-03-08 11:08:59; 10,4; 57; 2,2; 983,3118;1008,8750;6; 24,4; 24,4; 0,0; 0,0;247,5; 97,3
2020-03-08 11:18:59; 10,3; 58; 2,4; 982,8743;1008,4375;5; 24,2; 24,2; 0,0; 0,0;247,5; 97,3
2020-03-08 11:29:00; 10,6; 58; 2,7; 982,8743;1008,4375;5; 24,2; 24,2; 0,0; 0,0;247,5; 97,3
2020-03-08 11:38:59; 10,5; 58; 2,6; 982,5618;1008,1250;5; 24,2; 24,2; 0,0; 0,0;247,5; 97,3
2020-03-08 11:49:00; 10,5; 58; 2,6; 982,5618;1008,1250;5; 24,1; 24,1; 0,0; 0,0;247,5; 97,3
2020-03-08 11:58:59; 10,3; 59; 2,6; 982,4993;1008,0625;5; 24,0; 24,0; 0,0; 0,0;247,5; 97,3
2020-03-08 12:09:00; 10,3; 60; 2,9; 982,4993;1008,0625;5; 24,0; 24,0; 0,0; 0,0;247,5; 97,3
2020-03-08 12:18:59; 10,3; 60; 2,9; 982,1243;1007,6875;5; 23,9; 23,9; 0,0; 0,0;247,5; 97,3
2020-03-08 12:29:00; 10,2; 61; 3,0; 982,1243;1007,6875;5; 23,9; 23,9; 0,0; 0,0;247,5; 97,3
2020-03-08 12:38:59; 10,1; 62; 3,1; 981,9993;1007,5625;5; 23,9; 23,9; 0,0; 0,0;247,5; 97,3
2020-03-08 12:48:59; 10,1; 62; 3,1; 981,9993;1007,5625;5; 23,8; 23,8; 0,0; 0,0;247,5; 97,3
2020-03-08 12:59:00; 10,2; 61; 3,0; 981,4993;1007,0625;5; 23,8; 23,8; 0,0; 0,0;247,5; 97,3
2020-03-08 13:08:59; 10,1; 62; 3,1; 981,4993;1007,0625;5; 23,8; 23,8; 0,0; 0,0;247,5; 97,3
2020-03-08 13:19:00; 10,2; 62; 3,2; 981,3743;1006,9375;5; 23,8; 23,8; 0,0; 0,0;247,5; 97,3
2020-03-08 13:28:59; 10,5; 62; 3,5; 981,3743;1006,9375;5; 23,8; 23,8; 0,0; 0,0;247,5; 97,3
2020-03-08 13:39:00; 10,7; 62; 3,7; 981,1243;1006,6875;5; 23,8; 23,8; 0,0; 0,0;247,5; 97,3
2020-03-08 13:48:59; 10,9; 61; 3,7; 981,1243;1006,6875;5; 23,9; 23,9; 0,0; 0,0;247,5; 97,3
2020-03-08 13:59:00; 10,9; 61; 3,7; 980,8118;1006,3750;5; 23,9; 23,9; 0,0; 0,0;247,5; 97,3
2020-03-08 14:08:59; 11,0; 60; 3,5; 980,8118;1006,3750;5; 23,9; 23,9; 0,0; 0,0;247,5; 97,3
2020-03-08 14:18:59; 11,0; 61; 3,8; 980,5618;1006,1250;5; 23,9; 23,9; 0,0; 0,0;247,5; 97,3
2020-03-08 14:29:00; 11,0; 61; 3,8; 980,5618;1006,1250;5; 23,9; 23,9; 0,0; 0,0;247,5; 97,3
2020-03-08 14:38:59; 11,1; 61; 3,9; 980,3118;1005,8750;5; 23,9; 23,9; 0,0; 0,0;247,5; 97,3
2020-03-08 14:49:00; 11,0; 61; 3,8; 980,3118;1005,8750;5; 23,8; 23,8; 0,0; 0,0;247,5; 97,3
2020-03-08 14:58:59; 10,9; 62; 3,9; 980,1243;1005,6875;5; 23,8; 23,8; 0,0; 0,0;247,5; 97,3
2020-03-08 15:09:00; 10,8; 62; 3,8; 980,1243;1005,6875;5; 23,7; 23,7; 0,0; 0,0;247,5; 97,3
2020-03-08 15:18:59; 10,9; 62; 3,9; 979,9993;1005,5625;5; 23,7; 23,7; 0,0; 0,0;247,5; 97,3
2020-03-08 15:29:00; 10,7; 62; 3,7; 979,9993;1005,5625;5; 23,7; 23,7; 0,0; 0,0;247,5; 97,3
2020-03-08 15:38:59; 10,6; 62; 3,6; 979,7493;1005,3125;5; 23,6; 23,6; 0,0; 0,0;247,5; 97,3
2020-03-08 15:48:59; 10,4; 62; 3,4; 979,7493;1005,3125;5; 23,6; 23,6; 0,0; 0,0;247,5; 97,3
2020-03-08 15:59:00; 10,3; 62; 3,3; 979,3743;1004,9375;5; 23,6; 23,6; 0,0; 0,0;247,5; 97,3
2020-03-08 16:08:59; 10,1; 62; 3,1; 979,3743;1004,9375;5; 23,6; 23,6; 0,0; 0,0;247,5; 97,3
2020-03-08 16:19:00; 9,9; 63; 3,2; 979,3118;1004,8750;5; 23,6; 23,6; 0,0; 0,0;247,5; 97,3
2020-03-08 16:28:59; 9,7; 64; 3,2; 979,3118;1004,8750;5; 23,6; 23,6; 0,0; 0,0;247,5; 97,3
2020-03-08 16:39:00; 9,3; 65; 3,1; 979,4368;1005,0000;5; 23,5; 23,5; 0,0; 0,0;247,5; 97,3
2020-03-08 16:48:59; 9,1; 65; 2,9; 979,4368;1005,0000;5; 23,4; 23,4; 0,0; 0,0;247,5; 97,3
2020-03-08 16:59:00; 8,7; 66; 2,7; 979,1868;1004,7500;5; 23,4; 23,4; 0,0; 0,0;247,5; 97,3
2020-03-08 17:08:59; 8,5; 67; 2,7; 979,1868;1004,7500;5; 23,4; 23,4; 0,0; 0,0;247,5; 97,3
2020-03-08 17:18:59; 8,3; 67; 2,5; 979,1868;1004,7500;5; 23,4; 23,4; 0,0; 0,0;247,5; 97,3
2020-03-08 17:29:00; 8,1; 66; 2,1; 979,1868;1004,7500;5; 23,3; 23,3; 0,0; 0,0;247,5; 97,3
2020-03-08 17:38:59; 8,0; 67; 2,2; 979,3118;1004,8750;5; 23,3; 23,3; 0,0; 0,0;247,5; 97,3
2020-03-08 17:49:00; 7,8; 67; 2,1; 979,3118;1004,8750;5; 23,3; 23,3; 0,0; 0,0;247,5; 97,3
2020-03-08 17:58:59; 7,6; 67; 1,9; 978,9368;1004,5000;5; 23,2; 23,2; 0,0; 0,0;247,5; 97,3
2020-03-08 18:09:00; 7,4; 67; 1,7; 978,9368;1004,5000;5; 23,2; 23,2; 0,0; 0,0;247,5; 97,3
2020-03-08 18:18:59; 7,3; 67; 1,6; 978,8118;1004,3750;5; 23,2; 23,2; 0,0; 0,0;247,5; 97,3
2020-03-08 18:29:00; 7,3; 67; 1,6; 978,8118;1004,3750;5; 23,2; 23,2; 0,0; 0,0;247,5; 97,3
2020-03-08 18:38:59; 7,3; 67; 1,6; 978,9368;1004,5000;5; 23,2; 23,2; 0,0; 0,0;247,5; 97,3
2020-03-08 18:48:59; 7,2; 68; 1,7; 978,9368;1004,5000;5; 23,2; 23,2; 0,0; 0,0;247,5; 97,3
2020-03-08 18:59:00; 7,2; 68; 1,7; 978,9368;1004,5000;5; 23,2; 23,2; 0,0; 0,0;247,5; 97,3
2020-03-08 19:08:59; 7,1; 68; 1,6; 978,9368;1004,5000;5; 23,2; 23,2; 0,0; 0,0;247,5; 97,3
2020-03-08 19:19:00; 7,1; 68; 1,6; 978,7493;1004,3125;5; 23,2; 23,2; 0,0; 0,0;247,5; 97,3
2020-03-08 19:28:59; 7,0; 68; 1,5; 978,7493;1004,3125;5; 23,2; 23,2; 0,0; 0,0;247,5; 97,3
2020-03-08 19:39:00; 7,0; 69; 1,7; 978,4993;1004,0625;5; 23,2; 23,2; 0,0; 0,0;247,5; 97,3
2020-03-08 19:48:59; 6,9; 69; 1,6; 978,4993;1004,0625;5; 23,2; 23,2; 0,0; 0,0;247,5; 97,3
2020-03-08 19:59:00; 6,8; 69; 1,5; 978,4368;1004,0000;5; 23,2; 23,2; 0,0; 0,0;247,5; 97,3
2020-03-08 20:08:59; 6,7; 70; 1,6; 978,4368;1004,0000;5; 23,2; 23,2; 0,0; 0,0;247,5; 97,3
2020-03-08 20:18:59; 6,5; 70; 1,4; 978,5618;1004,1250;5; 23,2; 23,2; 0,0; 0,0;247,5; 97,3
2020-03-08 20:29:00; 6,4; 70; 1,3; 978,5618;1004,1250;5; 23,2; 23,2; 0,0; 0,0;247,5; 97,3
2020-03-08 20:38:59; 6,3; 70; 1,2; 978,1868;1003,7500;5; 23,2; 23,2; 0,0; 0,0;247,5; 97,3
2020-03-08 20:49:00; 6,1; 71; 1,2; 978,1868;1003,7500;5; 23,2; 23,2; 0,0; 0,0;247,5; 97,3
2020-03-08 20:58:59; 6,0; 71; 1,1; 978,0618;1003,6250;5; 23,2; 23,2; 0,0; 0,0;247,5; 97,3
2020-03-08 21:09:00; 5,9; 71; 1,0; 978,0618;1003,6250;5; 23,2; 23,2; 0,0; 0,0;247,5; 97,3
2020-03-08 21:18:59; 5,8; 71; 0,9; 977,9993;1003,5625;5; 23,2; 23,2; 0,0; 0,0;247,5; 97,3
2020-03-08 21:29:00; 5,6; 72; 1,0; 977,9993;1003,5625;5; 23,2; 23,2; 0,0; 0,0;247,5; 97,3
2020-03-08 21:38:59; 5,5; 71; 0,7; 977,9368;1003,5000;5; 23,2; 23,2; 0,0; 0,0;247,5; 97,3
2020-03-08 21:48:59; 5,5; 71; 0,7; 977,9368;1003,5000;5; 23,2; 23,2; 0,0; 0,0;247,5; 97,3
2020-03-08 21:59:00; 5,4; 72; 0,8; 977,8743;1003,4375;5; 23,2; 23,2; 0,0; 0,0;247,5; 97,3
2020-03-08 22:08:59; 5,4; 71; 0,6; 977,8743;1003,4375;5; 23,2; 23,2; 0,0; 0,0;247,5; 97,3
2020-03-08 22:19:00; 5,3; 72; 0,7; 977,9368;1003,5000;5; 23,2; 23,2; 0,0; 0,0;247,5; 97,3
2020-03-08 22:28:59; 5,4; 72; 0,8; 977,9368;1003,5000;5; 23,2; 23,2; 0,0; 0,0;247,5; 97,3
2020-03-08 22:39:00; 5,3; 71; 0,5; 977,5618;1003,1250;5; 23,1; 23,1; 0,0; 0,0;247,5; 97,3
2020-03-08 22:48:59; 5,3; 71; 0,5; 977,5618;1003,1250;5; 23,1; 23,1; 0,0; 0,0;247,5; 97,3
2020-03-08 22:59:00; 5,2; 72; 0,6; 977,4993;1003,0625;5; 23,2; 23,2; 0,0; 0,0;247,5; 97,3
2020-03-08 23:08:59; 5,2; 72; 0,6; 977,4993;1003,0625;5; 23,1; 23,1; 0,0; 0,0;247,5; 97,3
2020-03-08 23:18:59; 5,1; 72; 0,5; 977,3743;1002,9375;5; 23,1; 23,1; 0,0; 0,0;247,5; 97,3
2020-03-08 23:29:00; 5,0; 73; 0,6; 977,3743;1002,9375;5; 23,2; 23,2; 0,0; 0,0;247,5; 97,3
2020-03-08 23:38:59; 5,0; 73; 0,6; 977,5618;1003,1250;5; 23,2; 23,2; 0,0; 0,0;247,5; 97,3
2020-03-08 23:49:00; 4,9; 73; 0,5; 977,5618;1003,1250;5; 23,2; 23,2; 0,0; 0,0;247,5; 97,3
2020-03-08 23:58:59; 4,9; 73; 0,5; 976,7493;1002,3125;5; 23,1; 23,1; 0,0; 0,0;247,5; 97,3
2020-03-09 00:09:00; 4,9; 74; 0,7; 976,7493;1002,3125;5; 23,2; 23,2; 0,0; 0,0;247,5; 97,3
2020-03-09 00:18:59; 4,8; 74; 0,6; 976,8118;1002,3750;5; 23,1; 23,1; 0,0; 0,0;247,5; 97,3
2020-03-09 00:29:00; 4,8; 74; 0,6; 976,8118;1002,3750;5; 23,1; 23,1; 0,0; 0,0;247,5; 97,3
2020-03-09 00:38:59; 4,7; 74; 0,5; 976,5618;1002,1250;5; 23,1; 23,1; 0,0; 0,0;247,5; 97,3
2020-03-09 00:48:59; 4,7; 74; 0,5; 976,5618;1002,1250;5; 23,2; 23,2; 0,0; 0,0;247,5; 97,3
2020-03-09 00:59:00; 4,7; 75; 0,6; 976,3743;1001,9375;5; 23,1; 23,1; 0,0; 0,0;247,5; 97,3
2020-03-09 01:08:59; 4,7; 75; 0,6; 976,3743;1001,9375;5; 23,1; 23,1; 0,0; 0,0;247,5; 97,3
2020-03-09 01:19:00; 4,7; 74; 0,5; 976,1243;1001,6875;5; 23,1; 23,1; 0,0; 0,0;247,5; 97,3
2020-03-09 01:28:59; 4,7; 75; 0,6; 976,1243;1001,6875;5; 23,1; 23,1; 0,0; 0,0;247,5; 97,3
2020-03-09 01:39:00; 4,7; 75; 0,6; 975,9368;1001,5000;5; 23,1; 23,1; 0,0; 0,0;247,5; 97,3
2020-03-09 01:48:59; 4,7; 75; 0,6; 975,9368;1001,5000;5; 23,1; 23,1; 0,0; 0,0;247,5; 97,3
2020-03-09 01:59:00; 4,8; 75; 0,7; 975,9993;1001,5625;5; 23,1; 23,1; 0,0; 0,0;247,5; 97,3
2020-03-09 02:08:59; 4,8; 75; 0,7; 975,9993;1001,5625;5; 23,1; 23,1; 0,0; 0,0;247,5; 97,3
2020-03-09 02:18:59; 4,7; 75; 0,6; 975,6868;1001,2500;5; 23,1; 23,1; 0,0; 0,0;247,5; 97,3
2020-03-09 02:29:00; 4,7; 75; 0,6; 975,6868;1001,2500;5; 23,1; 23,1; 0,0; 0,0;247,5; 97,3
2020-03-09 02:38:59; 4,7; 75; 0,6; 975,4993;1001,0625;4; 23,1; 23,1; 0,0; 0,0;247,5; 97,3
2020-03-09 02:49:00; 4,8; 75; 0,7; 975,4993;1001,0625;4; 23,1; 23,1; 0,0; 0,0;247,5; 97,3
2020-03-09 02:58:59; 4,8; 75; 0,7; 975,5618;1001,1250;4; 23,1; 23,1; 0,0; 0,0;247,5; 97,3
2020-03-09 03:09:00; 4,8; 75; 0,7; 975,5618;1001,1250;4; 23,2; 23,2; 0,0; 0,0;247,5; 97,3
2020-03-09 03:18:59; 4,8; 75; 0,7; 975,6243;1001,1875;4; 23,2; 23,2; 0,0; 0,0;247,5; 97,3
2020-03-09 03:29:00; 4,7; 75; 0,6; 975,6243;1001,1875;4; 23,2; 23,2; 0,0; 0,0;247,5; 97,3
2020-03-09 03:38:59; 4,7; 75; 0,6; 975,6243;1001,1875;4; 23,1; 23,1; 0,0; 0,0;247,5; 97,3
2020-03-09 03:48:59; 4,7; 75; 0,6; 975,6243;1001,1875;4; 23,2; 23,2; 0,0; 0,0;247,5; 97,3
2020-03-09 03:59:00; 4,7; 75; 0,6; 975,6243;1001,1875;4; 23,1; 23,1; 0,0; 0,0;247,5; 97,3
2020-03-09 04:08:59; 4,7; 76; 0,8; 975,6243;1001,1875;4; 23,1; 23,1; 0,0; 0,0;247,5; 97,3
2020-03-09 04:19:00; 4,7; 76; 0,8; 975,4993;1001,0625;4; 23,1; 23,1; 0,0; 0,0;247,5; 97,3
2020-03-09 04:28:59; 4,7; 76; 0,8; 975,4993;1001,0625;4; 23,1; 23,1; 0,0; 0,0;247,5; 97,3
2020-03-09 04:39:00; 4,7; 76; 0,8; 975,6243;1001,1875;4; 23,1; 23,1; 0,0; 0,0;247,5; 97,3
2020-03-09 04:48:59; 4,7; 76; 0,8; 975,6243;1001,1875;4; 23,1; 23,1; 0,0; 0,0;247,5; 97,3
2020-03-09 04:59:00; 4,7; 77; 1,0; 975,4993;1001,0625;4; 23,1; 23,1; 0,0; 0,0;247,5; 97,3
2020-03-09 05:08:59; 4,7; 77; 1,0; 975,4993;1001,0625;4; 23,1; 23,1; 0,0; 0,0;247,5; 97,3
2020-03-09 05:18:59; 4,6; 77; 0,9; 975,1868;1000,7500;4; 23,1; 23,1; 0,0; 0,0;247,5; 97,3
2020-03-09 05:29:00; 4,6; 77; 0,9; 975,1868;1000,7500;4; 23,1; 23,1; 0,0; 0,0;247,5; 97,3
2020-03-09 05:38:59; 4,7; 77; 1,0; 975,4368;1001,0000;4; 23,1; 23,1; 0,0; 0,0;247,5; 97,3
2020-03-09 05:49:00; 4,6; 76; 0,7; 975,4368;1001,0000;4; 23,1; 23,1; 0,0; 0,0;247,5; 97,3
2020-03-09 05:58:59; 4,7; 77; 1,0; 975,4993;1001,0625;4; 23,1; 23,1; 0,0; 0,0;247,5; 97,3
2020-03-09 06:09:00; 4,7; 77; 1,0; 975,4993;1001,0625;4; 23,1; 23,1; 0,0; 0,0;247,5; 97,3
2020-03-09 06:18:59; 4,7; 77; 1,0; 975,4368;1001,0000;4; 23,1; 23,1; 0,0; 0,0;247,5; 97,3
2020-03-09 06:29:00; 4,9; 76; 1,0; 975,4368;1001,0000;4; 23,1; 23,1; 0,0; 0,0;247,5; 97,3
2020-03-09 06:38:59; 5,1; 76; 1,2; 975,3118;1000,8750;4; 23,2; 23,2; 0,0; 0,0;247,5; 97,3
2020-03-09 06:48:59; 5,2; 75; 1,1; 975,3118;1000,8750;4; 23,2; 23,2; 0,0; 0,0;247,5; 97,3
2020-03-09 06:59:00; 5,3; 76; 1,4; 975,6243;1001,1875;4; 23,2; 23,2; 0,0; 0,0;247,5; 97,3
2020-03-09 07:08:59; 5,5; 75; 1,4; 975,6243;1001,1875;4; 23,2; 23,2; 0,0; 0,0;247,5; 97,3
2020-03-09 07:19:00; 5,6; 75; 1,5; 975,5618;1001,1250;4; 23,2; 23,2; 0,0; 0,0;247,5; 97,3
2020-03-09 07:28:59; 5,9; 75; 1,8; 975,5618;1001,1250;4; 23,2; 23,2; 0,0; 0,0;247,5; 97,3
2020-03-09 07:39:00; 6,2; 75; 2,1; 975,6243;1001,1875;4; 23,2; 23,2; 0,0; 0,0;247,5; 97,3
2020-03-09 07:48:59; 6,5; 74; 2,2; 975,6243;1001,1875;4; 23,3; 23,3; 0,0; 0,0;247,5; 97,3
2020-03-09 07:59:00; 6,8; 73; 2,3; 975,8118;1001,3750;4; 23,4; 23,4; 0,0; 0,0;247,5; 97,3
2020-03-09 08:08:59; 7,2; 72; 2,5; 975,8118;1001,3750;4; 23,4; 23,4; 0,0; 0,0;247,5; 97,3
2020-03-09 08:18:59; 7,6; 72; 2,9; 975,6868;1001,2500;4; 23,4; 23,4; 0,0; 0,0;247,5; 97,3
2020-03-09 08:29:00; 7,7; 73; 3,2; 975,6868;1001,2500;4; 23,4; 23,4; 0,0; 0,0;247,5; 97,3
2020-03-09 08:38:59; 7,7; 73; 3,2; 975,8743;1001,4375;4; 23,4; 23,4; 0,0; 0,0;247,5; 97,3
2020-03-09 08:49:00; 7,9; 74; 3,6; 975,8743;1001,4375;4; 23,3; 23,3; 0,0; 0,0;247,5; 97,3
2020-03-09 08:58:59; 7,8; 74; 3,5; 975,8743;1001,4375;4; 23,3; 23,3; 0,0; 0,0;247,5; 97,3
2020-03-09 09:09:00; 7,8; 74; 3,5; 975,8743;1001,4375;4; 23,3; 23,3; 0,0; 0,0;247,5; 97,3
2020-03-09 09:18:59; 7,9; 74; 3,6; 976,1243;1001,6875;4; 23,3; 23,3; 0,0; 0,0;247,5; 97,3
2020-03-09 09:29:00; 7,9; 76; 3,9; 976,1243;1001,6875;4; 23,3; 23,3; 0,0; 0,0;247,5; 97,3
2020-03-09 09:38:59; 8,0; 77; 4,2; 976,0618;1001,6250;4; 23,3; 23,3; 0,0; 0,0;247,5; 97,3
2020-03-09 09:48:59; 8,1; 78; 4,5; 976,0618;1001,6250;4; 23,3; 23,3; 0,0; 0,0;247,5; 97,3
2020-03-09 09:59:00; 8,3; 79; 4,9; 976,7493;1002,3125;4; 23,3; 23,3; 0,0; 0,0;247,5; 97,3
2020-03-09 10:08:59; 8,3; 79; 4,9; 976,7493;1002,3125;4; 23,3; 23,3; 0,0; 0,0;247,5; 97,3
2020-03-09 10:19:00; 8,3; 79; 4,9; 976,4368;1002,0000;4; 23,3; 23,3; 0,0; 0,0;247,5; 97,3
2020-03-09 10:28:59; 8,5; 79; 5,1; 976,4368;1002,0000;4; 23,3; 23,3; 0,0; 0,0;247,5; 97,3
2020-03-09 10:39:00; 8,6; 80; 5,3; 976,5618;1002,1250;4; 23,3; 23,3; 0,0; 0,0;247,5; 97,3
2020-03-09 10:48:59; 8,4; 81; 5,3; 976,5618;1002,1250;4; 23,3; 23,3; 0,0; 0,0;247,5; 97,3
2020-03-09 10:59:00; 8,3; 82; 5,4; 976,6868;1002,2500;4; 23,4; 23,4; 0,0; 0,0;247,5; 97,3
2020-03-09 11:08:59; 8,3; 81; 5,2; 976,6868;1002,2500;4; 23,4; 23,4; 0,0; 0,0;247,5; 97,3
2020-03-09 11:18:59; 8,1; 82; 5,2; 976,9993;1002,5625;4; 23,4; 23,4; 0,0; 0,0;247,5; 98,0
2020-03-09 11:29:00; 8,1; 81; 5,0; 976,9993;1002,5625;4; 23,5; 23,5; 0,0; 0,0;247,5; 98,0
2020-03-09 11:38:59; 7,9; 81; 4,8; 976,9993;1002,5625;4; 23,5; 23,5; 0,0; 0,0;247,5; 98,0
2020-03-09 11:49:00; 7,9; 80; 4,7; 976,9993;1002,5625;4; 23,6; 23,6; 0,0; 0,0;247,5; 98,0
2020-03-09 11:58:59; 8,0; 81; 4,9; 977,1243;1002,6875;4; 23,4; 23,4; 0,0; 0,0;247,5; 98,0
2020-03-09 12:09:00; 8,1; 80; 4,9; 977,1243;1002,6875;4; 23,4; 23,4; 0,0; 0,0;247,5; 98,0
2020-03-09 12:18:59; 8,5; 79; 5,1; 977,1243;1002,6875;4; 23,4; 23,4; 0,0; 0,0;247,5; 98,0
2020-03-09 12:29:00; 8,9; 77; 5,1; 977,1243;1002,6875;4; 23,5; 23,5; 0,0; 0,0;247,5; 98,0
2020-03-09 12:38:59; 9,1; 75; 4,9; 977,4368;1003,0000;4; 23,6; 23,6; 0,0; 0,0;247,5; 98,0
2020-03-09 12:48:59; 9,0; 74; 4,6; 977,4368;1003,0000;4; 23,6; 23,6; 0,0; 0,0;247,5; 98,0
2020-03-09 12:59:00; 9,1; 73; 4,5; 977,4993;1003,0625;4; 23,6; 23,6; 0,0; 0,0;247,5; 98,0
2020-03-09 13:08:59; 9,9; 72; 5,1; 977,4993;1003,0625;4; 23,8; 23,8; 0,0; 0,0;247,5; 98,0
2020-03-09 13:19:00; 10,2; 70; 5,0; 977,6868;1003,2500;4; 23,9; 23,9; 0,0; 0,0;247,5; 98,0
2020-03-09 13:28:59; 10,2; 69; 4,8; 977,6868;1003,2500;4; 23,9; 23,9; 0,0; 0,0;247,5; 98,0
2020-03-09 13:39:00; 10,2; 69; 4,8; 977,8743;1003,4375;4; 23,9; 23,9; 0,0; 0,0;247,5; 98,0
2020-03-09 13:48:59; 9,9; 70; 4,7; 977,8743;1003,4375;4; 23,8; 23,8; 0,0; 0,0;247,5; 98,0
2020-03-09 13:59:00; 9,7; 70; 4,5; 977,8743;1003,4375;4; 23,7; 23,7; 0,0; 0,0;247,5; 98,0
2020-03-09 14:08:59; 9,8; 70; 4,6; 977,8743;1003,4375;4; 23,6; 23,6; 0,0; 0,0;247,5; 98,0
2020-03-09 14:18:59; 10,5; 68; 4,8; 977,7493;1003,3125;4; 23,8; 23,8; 0,0; 0,0;247,5; 98,0
2020-03-09 14:29:00; 10,3; 67; 4,4; 977,7493;1003,3125;4; 23,8; 23,8; 0,0; 0,0;247,5; 98,0
2020-03-09 14:38:59; 10,1; 68; 4,5; 977,9368;1003,5000;4; 23,8; 23,8; 0,0; 0,0;247,5; 98,0
2020-03-09 14:49:00; 10,2; 67; 4,3; 977,9368;1003,5000;4; 23,8; 23,8; 0,0; 0,0;247,5; 98,0
2020-03-09 14:58:59; 9,9; 65; 3,6; 978,0618;1003,6250;4; 23,8; 23,8; 0,0; 0,0;247,5; 98,0
2020-03-09 15:09:00; 9,9; 65; 3,6; 978,0618;1003,6250;4; 23,8; 23,8; 0,0; 0,0;247,5; 98,0
2020-03-09 15:18:59; 9,8; 66; 3,7; 978,2493;1003,8125;4; 23,8; 23,8; 0,0; 0,0;247,5; 98,0
2020-03-09 15:29:00; 9,5; 68; 3,9; 978,2493;1003,8125;4; 23,7; 23,7; 0,0; 0,0;247,5; 98,0
2020-03-09 15:38:59; 9,4; 69; 4,0; 978,2493;1003,8125;4; 23,6; 23,6; 0,0; 0,0;247,5; 98,0
2020-03-09 15:48:59; 9,7; 68; 4,1; 978,2493;1003,8125;4; 23,6; 23,6; 0,0; 0,0;247,5; 98,0
2020-03-09 15:59:00; 9,8; 67; 4,0; 978,4993;1004,0625;5; 23,7; 23,7; 0,0; 0,0;247,5; 98,0
2020-03-09 16:08:59; 9,6; 67; 3,8; 978,4993;1004,0625;5; 23,6; 23,6; 0,0; 0,0;247,5; 98,0
2020-03-09 16:19:00; 9,3; 68; 3,7; 978,4993;1004,0625;5; 23,6; 23,6; 0,0; 0,0;247,5; 98,0
2020-03-09 16:28:59; 9,1; 69; 3,7; 978,4993;1004,0625;5; 23,6; 23,6; 0,0; 0,0;247,5; 98,0
2020-03-09 16:39:00; 8,9; 70; 3,7; 978,8118;1004,3750;5; 23,5; 23,5; 0,0; 0,0;247,5; 98,0
2020-03-09 16:48:59; 8,7; 71; 3,7; 978,8118;1004,3750;5; 23,4; 23,4; 0,0; 0,0;247,5; 98,0
2020-03-09 16:59:00; 8,5; 71; 3,5; 978,6243;1004,1875;5; 23,4; 23,4; 0,0; 0,0;247,5; 98,0
2020-03-09 17:08:59; 8,4; 72; 3,6; 978,6243;1004,1875;5; 23,4; 23,4; 0,0; 0,0;247,5; 98,0
2020-03-09 17:18:59; 8,1; 72; 3,4; 978,9993;1004,5625;5; 23,4; 23,4; 0,0; 0,0;247,5; 98,0
2020-03-09 17:29:00; 8,0; 73; 3,5; 978,9993;1004,5625;5; 23,3; 23,3; 0,0; 0,0;247,5; 98,0
2020-03-09 17:38:59; 7,8; 74; 3,5; 979,1243;1004,6875;5; 23,3; 23,3; 0,0; 0,0;247,5; 98,0
2020-03-09 17:49:00; 7,7; 74; 3,4; 979,1243;1004,6875;5; 23,3; 23,3; 0,0; 0,0;247,5; 98,0
2020-03-09 17:58:59; 7,5; 75; 3,4; 979,2493;1004,8125;5; 23,2; 23,2; 0,0; 0,0;247,5; 98,0
2020-03-09 18:09:00; 7,4; 76; 3,4; 979,2493;1004,8125;5; 23,2; 23,2; 0,0; 0,0;247,5; 98,0
2020-03-09 18:18:59; 7,2; 76; 3,3; 979,4368;1005,0000;5; 23,2; 23,2; 0,0; 0,0;247,5; 98,0
2020-03-09 18:29:00; 7,1; 76; 3,2; 979,4368;1005,0000;5; 23,2; 23,2; 0,0; 0,0;247,5; 98,0
2020-03-09 18:38:59; 6,9; 76; 3,0; 979,4993;1005,0625;5; 23,2; 23,2; 0,0; 0,0;247,5; 98,0
2020-03-09 18:48:59; 6,7; 76; 2,8; 979,4993;1005,0625;5; 23,2; 23,2; 0,0; 0,0;247,5; 98,0
2020-03-09 18:59:00; 6,7; 75; 2,6; 979,4993;1005,0625;5; 23,2; 23,2; 0,0; 0,0;247,5; 98,0
2020-03-09 19:08:59; 6,5; 75; 2,4; 979,4993;1005,0625;5; 23,2; 23,2; 0,0; 0,0;247,5; 98,0
2020-03-09 19:19:00; 6,3; 75; 2,2; 979,5618;1005,1250;5; 23,2; 23,2; 0,0; 0,0;247,5; 98,0
2020-03-09 19:28:59; 6,3; 75; 2,2; 979,5618;1005,1250;5; 23,2; 23,2; 0,0; 0,0;247,5; 98,0
2020-03-09 19:39:00; 6,1; 75; 2,0; 979,6868;1005,2500;5; 23,2; 23,2; 0,0; 0,0;247,5; 98,0
2020-03-09 19:48:59; 6,1; 75; 2,0; 979,6868;1005,2500;5; 23,1; 23,1; 0,0; 0,0;247,5; 98,0
2020-03-09 19:59:00; 6,0; 75; 1,9; 979,5618;1005,1250;5; 23,1; 23,1; 0,0; 0,0;247,5; 98,0
2020-03-09 20:08:59; 5,9; 76; 2,0; 979,5618;1005,1250;5; 23,1; 23,1; 0,0; 0,0;247,5; 98,0
2020-03-09 20:18:59; 6,0; 76; 2,1; 979,7493;1005,3125;5; 23,1; 23,1; 0,0; 0,0;247,5; 98,0
2020-03-09 20:29:00; 5,9; 76; 2,0; 979,7493;1005,3125;5; 23,1; 23,1; 0,0; 0,0;247,5; 98,0
2020-03-09 20:38:59; 5,9; 76; 2,0; 979,6868;1005,2500;5; 23,1; 23,1; 0,0; 0,0;247,5; 98,0
2020-03-09 20:49:00; 6,0; 77; 2,3; 979,6868;1005,2500;5; 23,1; 23,1; 0,0; 0,0;247,5; 98,0
2020-03-09 20:58:59; 6,1; 77; 2,4; 979,8118;1005,3750;5; 23,1; 23,1; 0,0; 0,0;247,5; 98,0
2020-03-09 21:09:00; 5,9; 77; 2,2; 979,8118;1005,3750;5; 23,1; 23,1; 0,0; 0,0;247,5; 98,0
2020-03-09 21:18:59; 5,8; 77; 2,1; 979,9368;1005,5000;5; 23,1; 23,1; 0,0; 0,0;247,5; 98,0
2020-03-09 21:29:00; 5,7; 77; 2,0; 979,9368;1005,5000;5; 23,1; 23,1; 0,0; 0,0;247,5; 98,0
2020-03-09 21:38:59; 5,5; 78; 2,0; 979,8743;1005,4375;5; 23,1; 23,1; 0,0; 0,0;247,5; 98,0
2020-03-09 21:48:59; 5,5; 78; 2,0; 979,8743;1005,4375;5; 23,1; 23,1; 0,0; 0,0;247,5; 98,0
2020-03-09 21:59:00; 5,5; 78; 2,0; 979,8743;1005,4375;5; 23,1; 23,1; 0,0; 0,0;247,5; 98,0
2020-03-09 22:08:59; 5,5; 78; 2,0; 979,8743;1005,4375;5; 23,0; 23,0; 0,0; 0,0;247,5; 98,0
2020-03-09 22:19:00; 5,7; 78; 2,2; 979,8743;1005,4375;5; 23,0; 23,0; 0,0; 0,0;247,5; 98,0
2020-03-09 22:28:59; 5,9; 78; 2,4; 979,8743;1005,4375;5; 23,0; 23,0; 0,0; 0,0;247,5; 98,0
2020-03-09 22:39:00; 5,9; 78; 2,4; 979,8743;1005,4375;5; 23,0; 23,0; 0,0; 0,0;247,5; 98,0
2020-03-09 22:48:59; 5,8; 78; 2,3; 979,8743;1005,4375;5; 23,1; 23,1; 0,0; 0,0;247,5; 98,0
2020-03-09 22:59:00; 5,7; 78; 2,2; 979,9368;1005,5000;5; 23,0; 23,0; 0,0; 0,0;247,5; 98,0
2020-03-09 23:08:59; 5,7; 78; 2,2; 979,9368;1005,5000;5; 23,0; 23,0; 0,0; 0,0;247,5; 98,0
2020-03-09 23:18:59; 5,7; 78; 2,2; 979,9993;1005,5625;5; 23,0; 23,0; 0,0; 0,0;247,5; 98,0
2020-03-09 23:29:00; 5,6; 78; 2,1; 979,9993;1005,5625;5; 23,0; 23,0; 0,0; 0,0;247,5; 98,0
2020-03-09 23:38:59; 5,5; 78; 2,0; 979,9993;1005,5625;5; 23,1; 23,1; 0,0; 0,0;247,5; 98,0
2020-03-09 23:49:00; 5,5; 78; 2,0; 979,9993;1005,5625;5; 23,0; 23,0; 0,0; 0,0;247,5; 98,0
2020-03-09 23:58:59; 5,3; 77; 1,6; 979,7493;1005,3125;5; 23,1; 23,1; 0,0; 0,0;247,5; 98,0
2020-03-10 00:09:00; 5,2; 77; 1,5; 979,7493;1005,3125;5; 23,1; 23,1; 0,0; 0,0;247,5; 98,0
2020-03-10 00:18:59; 5,1; 78; 1,6; 979,6243;1005,1875;5; 23,0; 23,0; 0,0; 0,0;247,5; 98,0
2020-03-10 00:29:00; 4,9; 78; 1,4; 979,6243;1005,1875;5; 23,0; 23,0; 0,0; 0,0;247,5; 98,0
2020-03-10 00:38:59; 4,8; 78; 1,3; 979,4993;1005,0625;5; 23,1; 23,1; 0,0; 0,0;247,5; 98,0
2020-03-10 00:48:59; 4,7; 78; 1,2; 979,4993;1005,0625;5; 23,0; 23,0; 0,0; 0,0;247,5; 98,0
2020-03-10 00:59:00; 4,7; 79; 1,4; 979,3118;1004,8750;5; 23,1; 23,1; 0,0; 0,0;247,5; 98,0
2020-03-10 01:08:59; 4,5; 78; 1,0; 979,3118;1004,8750;5; 23,1; 23,1; 0,0; 0,0;247,5; 98,0
2020-03-10 01:19:00; 4,3; 78; 0,8; 979,2493;1004,8125;5; 23,1; 23,1; 0,0; 0,0;247,5; 98,0
2020-03-10 01:28:59; 4,2; 78; 0,7; 979,2493;1004,8125;5; 23,1; 23,1; 0,0; 0,0;247,5; 98,0
2020-03-10 01:39:00; 4,2; 78; 0,7; 979,1243;1004,6875;5; 23,1; 23,1; 0,0; 0,0;247,5; 98,0
2020-03-10 01:48:59; 4,2; 78; 0,7; 979,1243;1004,6875;5; 23,1; 23,1; 0,0; 0,0;247,5; 98,0
2020-03-10 01:59:00; 4,1; 78; 0,6; 979,1243;1004,6875;5; 23,1; 23,1; 0,0; 0,0;247,5; 98,0
2020-03-10 02:08:59; 4,1; 78; 0,6; 979,1243;1004,6875;5; 23,0; 23,0; 0,0; 0,0;247,5; 98,0
2020-03-10 02:18:59; 4,0; 78; 0,5; 979,0618;1004,6250;5; 23,1; 23,1; 0,0; 0,0;247,5; 98,0
2020-03-10 02:29:00; 4,0; 78; 0,5; 979,0618;1004,6250;5; 23,1; 23,1; 0,0; 0,0;247,5; 98,0
2020-03-10 02:38:59; 3,9; 78; 0,4; 979,0618;1004,6250;5; 23,1; 23,1; 0,0; 0,0;247,5; 98,0
2020-03-10 02:49:00; 3,9; 78; 0,4; 979,0618;1004,6250;5; 23,1; 23,1; 0,0; 0,0;247,5; 98,0
2020-03-10 02:58:59; 3,8; 78; 0,3; 978,8118;1004,3750;5; 23,1; 23,1; 0,0; 0,0;247,5; 98,0
2020-03-10 03:09:00; 3,9; 78; 0,4; 978,8118;1004,3750;5; 23,1; 23,1; 0,0; 0,0;247,5; 98,0
2020-03-10 03:18:59; 3,8; 78; 0,3; 978,7493;1004,3125;5; 23,1; 23,1; 0,0; 0,0;247,5; 98,0
2020-03-10 03:29:00; 3,7; 78; 0,2; 978,7493;1004,3125;5; 23,0; 23,0; 0,0; 0,0;247,5; 98,0
2020-03-10 03:38:59; 3,7; 78; 0,2; 978,4993;1004,0625;5; 23,1; 23,1; 0,0; 0,0;247,5; 98,0
2020-03-10 03:48:59; 3,6; 78; 0,1; 978,4993;1004,0625;5; 23,0; 23,0; 0,0; 0,0;247,5; 98,0
2020-03-10 03:59:00; 3,6; 78; 0,1; 978,3118;1003,8750;5; 23,0; 23,0; 0,0; 0,0;247,5; 98,0
2020-03-10 04:08:59; 3,6; 78; 0,1; 978,3118;1003,8750;5; 23,1; 23,1; 0,0; 0,0;247,5; 98,0
2020-03-10 04:19:00; 3,6; 78; 0,1; 978,1243;1003,6875;5; 23,1; 23,1; 0,0; 0,0;247,5; 98,0
2020-03-10 04:28:59; 3,5; 79; 0,2; 978,1243;1003,6875;5; 23,1; 23,1; 0,0; 0,0;247,5; 98,0
2020-03-10 04:39:00; 3,5; 78; 0,0; 977,9368;1003,5000;5; 23,1; 23,1; 0,0; 0,0;247,5; 98,0
2020-03-10 04:48:59; 3,4; 79; 0,1; 977,9368;1003,5000;5; 23,1; 23,1; 0,0; 0,0;247,5; 98,0
2020-03-10 04:59:00; 3,5; 79; 0,2; 977,9368;1003,5000;5; 23,1; 23,1; 0,0; 0,0;247,5; 98,0
2020-03-10 05:08:59; 3,6; 78; 0,1; 977,9368;1003,5000;5; 23,1; 23,1; 0,0; 0,0;247,5; 98,0
2020-03-10 05:18:59; 3,8; 78; 0,3; 978,1243;1003,6875;5; 23,0; 23,0; 0,0; 0,0;247,5; 98,0
2020-03-10 05:29:00; 4,0; 78; 0,5; 978,1243;1003,6875;5; 23,1; 23,1; 0,0; 0,0;247,5; 98,0
2020-03-10 05:38:59; 4,1; 77; 0,4; 977,7493;1003,3125;5; 23,1; 23,1; 0,0; 0,0;247,5; 98,0
2020-03-10 05:49:00; 4,3; 76; 0,4; 977,7493;1003,3125;5; 23,1; 23,1; 0,0; 0,0;247,5; 98,0
2020-03-10 05:58:59; 4,3; 76; 0,4; 977,8743;1003,4375;5; 23,0; 23,0; 0,0; 0,0;247,5; 98,0
2020-03-10 06:09:00; 4,5; 76; 0,6; 977,8743;1003,4375;5; 23,1; 23,1; 0,0; 0,0;247,5; 98,0
2020-03-10 06:18:59; 4,7; 76; 0,8; 977,2493;1002,8125;5; 23,0; 23,0; 0,0; 0,0;247,5; 98,0
2020-03-10 06:29:00; 4,7; 75; 0,6; 977,2493;1002,8125;5; 23,1; 23,1; 0,0; 0,0;247,5; 98,0
2020-03-10 06:38:59; 4,9; 75; 0,8; 976,7493;1002,3125;5; 23,1; 23,1; 0,0; 0,0;247,5; 98,0
2020-03-10 06:48:59; 5,1; 74; 0,8; 976,7493;1002,3125;5; 23,1; 23,1; 0,0; 0,0;247,5; 98,0
2020-03-10 06:59:00; 5,3; 74; 1,0; 976,5618;1002,1250;5; 23,1; 23,1; 0,0; 0,0;247,5; 98,0
2020-03-10 07:08:59; 5,8; 72; 1,1; 976,5618;1002,1250;5; 23,2; 23,2; 0,0; 0,0;247,5; 98,0
2020-03-10 07:19:00; 5,9; 72; 1,2; 977,0618;1002,6250;5; 23,2; 23,2; 0,0; 0,0;247,5; 98,0
2020-03-10 07:28:59; 6,1; 72; 1,4; 977,0618;1002,6250;5; 23,2; 23,2; 0,0; 0,0;247,5; 98,0
2020-03-10 07:39:00; 6,2; 71; 1,3; 976,4368;1002,0000;5; 23,2; 23,2; 0,0; 0,0;247,5; 98,0
2020-03-10 07:48:59; 6,5; 70; 1,4; 976,4368;1002,0000;5; 23,2; 23,2; 0,0; 0,0;247,5; 98,0
2020-03-10 07:59:00; 6,5; 70; 1,4; 976,3118;1001,8750;5; 23,2; 23,2; 0,0; 0,0;247,5; 98,0
2020-03-10 08:08:59; ; ; ; 976,3118;1001,8750;5; 23,2; 23,2; 0,0; 0,0;247,5; 98,0
2020-03-10 08:18:59; ; ; ; 975,9368;1001,5000;5; 23,2; 23,2; 0,0; 0,0;247,5; 98,0
2020-03-10 08:29:00; ; ; ; 975,9368;1001,5000;5; 23,2; 23,2; 0,0; 0,0;247,5; 98,0
2020-03-10 08:38:59; ; ; ; 975,8743;1001,4375;5; 23,2; 23,2; 0,0; 0,0;247,5; 98,0
2020-03-10 08:49:00; ; ; ; 975,8743;1001,4375;5; 23,3; 23,3; 0,0; 0,0;247,5; 98,0
2020-03-10 08:58:59; ; ; ; 975,9368;1001,5000;5; 23,3; 23,3; 0,0; 0,0;247,5; 98,0
2020-03-10 09:09:00; ; ; ; 975,9368;1001,5000;5; 23,2; 23,2; 0,0; 0,0;247,5; 98,0
2020-03-10 09:18:59; ; ; ; 975,6868;1001,2500;5; 23,2; 23,2; 0,0; 0,0;247,5; 98,0
2020-03-10 09:29:00; ; ; ; 975,6868;1001,2500;5; 23,2; 23,2; 0,0; 0,0;247,5; 98,0
2020-03-10 09:38:59; ; ; ; 975,1868;1000,7500;4; 23,2; 23,2; 0,0; 0,0;247,5; 98,0
2020-03-10 09:48:59; ; ; ; 975,1868;1000,7500;4; 23,3; 23,3; 0,0; 0,0;247,5; 98,0
2020-03-10 09:59:00; ; ; ; 974,9993;1000,5625;4; 23,4; 23,4; 0,0; 0,0;247,5; 98,0
2020-03-10 10:08:59; ; ; ; 974,9993;1000,5625;4; 23,4; 23,4; 0,0; 0,0;247,5; 98,0
2020-03-10 10:19:00; ; ; ; 974,4993;1000,0625;4; 23,4; 23,4; 0,0; 0,0;247,5; 98,0
2020-03-10 10:23:00; 7,7; 70; 2,6; 974,4993;1000,0625;4; 23,3; 23,3; 0,0; 0,0;247,5; 98,0
2020-03-10 10:32:59; 7,7; 70; 2,6; 974,4993;1000,0625;4; 23,3; 23,3; 0,0; 0,0;247,5; 98,0
2020-03-10 10:42:59; 7,8; 70; 2,7; 974,4993;1000,0625;4; 23,3; 23,3; 0,0; 0,0;247,5; 98,0
2020-03-10 10:53:00; 8,0; 69; 2,7; 974,2493; 999,8125;4; 23,4; 23,4; 0,0; 0,0;247,5; 98,0
2020-03-10 11:02:59; 8,1; 69; 2,8; 974,2493; 999,8125;4; 23,4; 23,4; 0,0; 0,0;247,5; 98,0
2020-03-10 11:13:00; 8,2; 69; 2,9; 973,8118; 999,3750;4; 23,4; 23,4; 0,0; 0,0;247,5; 98,0
2020-03-10 11:22:59; 8,3; 67; 2,5; 973,8118; 999,3750;4; 23,4; 23,4; 0,0; 0,0;247,5; 98,0
2020-03-10 11:33:00; 8,4; 66; 2,4; 973,7493; 999,3125;4; 23,4; 23,4; 0,0; 0,0;247,5; 98,0
2020-03-10 11:42:59; 8,5; 66; 2,5; 973,7493; 999,3125;4; 23,4; 23,4; 0,0; 0,0;247,5; 98,0
2020-03-10 11:53:00; 8,4; 67; 2,6; 973,6243; 999,1875;4; 23,4; 23,4; 0,0; 0,0;247,5; 98,0
2020-03-10 12:02:59; 8,6; 69; 3,2; 973,6243; 999,1875;4; 23,5; 23,5; 0,0; 0,0;247,5; 98,0
2020-03-10 12:12:59; 8,7; 69; 3,3; 973,3118; 998,8750;4; 23,6; 23,6; 0,0; 0,0;247,5; 98,0
2020-03-10 12:23:00; 8,7; 68; 3,1; 973,3118; 998,8750;4; 23,6; 23,6; 0,0; 0,0;247,5; 98,0
2020-03-10 12:32:59; 8,7; 68; 3,1; 972,8743; 998,4375;4; 23,6; 23,6; 0,0; 0,0;247,5; 98,0
2020-03-10 12:43:00; 8,7; 68; 3,1; 972,8743; 998,4375;4; 23,5; 23,5; 0,0; 0,0;247,5; 98,0
2020-03-10 12:52:59; 8,7; 68; 3,1; 972,9368; 998,5000;4; 23,4; 23,4; 0,0; 0,0;247,5; 98,0
2020-03-10 13:03:00; 8,6; 69; 3,2; 972,9368; 998,5000;4; 23,4; 23,4; 0,0; 0,0;247,5; 98,0
2020-03-10 13:12:59; 8,2; 70; 3,1; 972,6868; 998,2500;4; 23,4; 23,4; 0,0; 0,0;247,5; 98,0
2020-03-10 13:23:00; 8,0; 72; 3,3; 972,6868; 998,2500;4; 23,3; 23,3; 0,0; 0,0;247,5; 98,0
2020-03-10 13:32:59; 8,1; 72; 3,4; 972,3118; 997,8750;4; 23,3; 23,3; 0,0; 0,0;247,5; 98,0
2020-03-10 13:42:59; 8,4; 71; 3,4; 972,3118; 997,8750;4; 23,3; 23,3; 0,0; 0,0;247,5; 98,0
2020-03-10 13:53:00; 8,5; 70; 3,3; 972,3118; 997,8750;4; 23,3; 23,3; 0,0; 0,0;247,5; 98,0
2020-03-10 14:02:59; 8,7; 70; 3,5; 972,3118; 997,8750;4; 23,3; 23,3; 0,0; 0,0;247,5; 98,0
2020-03-10 14:13:00; 8,7; 69; 3,3; 971,9368; 997,5000;4; 23,3; 23,3; 0,0; 0,0;247,5; 98,0
2020-03-10 14:22:59; 8,7; 69; 3,3; 971,9368; 997,5000;4; 23,3; 23,3; 0,0; 0,0;247,5; 98,0
2020-03-10 14:33:00; 8,8; 68; 3,2; 972,0618; 997,6250;4; 23,2; 23,2; 0,0; 0,0;247,5; 98,0
2020-03-10 14:42:59; 9,1; 68; 3,5; 972,0618; 997,6250;4; 23,2; 23,2; 0,0; 0,0;247,5; 98,0
2020-03-10 14:53:00; 9,1; 68; 3,5; 971,9993; 997,5625;4; 23,2; 23,2; 0,0; 0,0;247,5; 98,0
2020-03-10 15:02:59; 9,2; 68; 3,6; 971,9993; 997,5625;4; 23,2; 23,2; 0,0; 0,0;247,5; 98,0
2020-03-10 15:12:59; 9,2; 68; 3,6; 972,0618; 997,6250;4; 23,2; 23,2; 0,0; 0,0;247,5; 98,0
2020-03-10 15:23:00; 9,2; 68; 3,6; 972,0618; 997,6250;4; 23,2; 23,2; 0,0; 0,0;247,5; 98,0
2020-03-10 15:32:59; 9,1; 68; 3,5; 971,5618; 997,1250;3; 23,2; 23,2; 0,0; 0,0;247,5; 98,0
2020-03-10 15:43:00; 9,0; 69; 3,6; 971,5618; 997,1250;3; 23,2; 23,2; 0,0; 0,0;247,5; 98,0
2020-03-10 15:52:59; 8,9; 70; 3,7; 971,4993; 997,0625;3; 23,2; 23,2; 0,0; 0,0;247,5; 98,0
2020-03-10 16:03:00; 8,6; 73; 4,0; 971,4993; 997,0625;3; 23,2; 23,2; 0,0; 0,0;247,5; 98,0
2020-03-10 16:12:59; 8,4; 75; 4,2; 971,4368; 997,0000;3; 23,1; 23,1; 0,0; 0,0;247,5; 98,0
2020-03-10 16:23:00; 8,2; 77; 4,4; 971,4368; 997,0000;3; 23,1; 23,1; 0,0; 0,0;247,5; 98,0
2020-03-10 16:32:59; 8,0; 77; 4,2; 971,3118; 996,8750;3; 23,1; 23,1; 0,0; 0,0;247,5; 98,0
2020-03-10 16:42:59; 8,0; 79; 4,6; 971,3118; 996,8750;3; 23,1; 23,1; 0,0; 0,0;247,5; 98,0
2020-03-10 16:53:00; 7,9; 79; 4,5; 971,1868; 996,7500;3; 23,1; 23,1; 0,0; 0,0;247,5; 98,0
2020-03-10 17:02:59; 7,8; 80; 4,6; 971,1868; 996,7500;3; 23,2; 23,2; 0,0; 0,0;247,5; 98,0
2020-03-10 17:13:00; 7,7; 81; 4,6; 971,4368; 997,0000;3; 23,2; 23,2; 0,0; 0,0;247,5; 98,0
2020-03-10 17:22:59; 7,7; 81; 4,6; 971,4368; 997,0000;3; 23,2; 23,2; 0,0; 0,0;247,5; 98,0
2020-03-10 17:33:00; 7,6; 82; 4,7; 970,9993; 996,5625;3; 23,1; 23,1; 0,0; 0,0;247,5; 98,8
2020-03-10 17:42:59; 7,5; 82; 4,6; 970,9993; 996,5625;3; 23,1; 23,1; 0,0; 0,0;247,5; 98,8
2020-03-10 17:53:00; 7,5; 83; 4,8; 971,0618; 996,6250;3; 23,1; 23,1; 0,0; 0,0;247,5; 98,8
2020-03-10 18:02:59; 7,5; 83; 4,8; 971,0618; 996,6250;3; 23,0; 23,0; 0,0; 0,0;247,5; 98,8
2020-03-10 18:12:59; 7,5; 83; 4,8; 971,0618; 996,6250;3; 23,1; 23,1; 0,0; 0,0;247,5; 98,8
2020-03-10 18:23:00; 7,5; 83; 4,8; 971,0618; 996,6250;3; 23,0; 23,0; 0,0; 0,0;247,5; 99,5
2020-03-10 18:32:59; 7,5; 83; 4,8; 970,8743; 996,4375;3; 23,1; 23,1; 0,0; 0,0;247,5; 99,5
2020-03-10 18:43:00; 7,5; 83; 4,8; 970,8743; 996,4375;3; 23,1; 23,1; 0,0; 0,0;247,5; 99,5
2020-03-10 18:52:59; 7,5; 83; 4,8; 970,7493; 996,3125;3; 23,0; 23,0; 0,0; 0,0;247,5; 99,5
2020-03-10 19:03:00; 7,5; 83; 4,8; 970,7493; 996,3125;3; 23,0; 23,0; 0,0; 0,0;247,5; 99,5
2020-03-10 19:12:59; 7,6; 83; 4,9; 970,4368; 996,0000;3; 23,0; 23,0; 0,0; 0,0;247,5; 99,5
2020-03-10 19:23:00; 7,7; 83; 5,0; 970,4368; 996,0000;3; 23,0; 23,0; 0,0; 0,0;247,5; 99,5
2020-03-10 19:32:59; 7,8; 83; 5,1; 970,4368; 996,0000;3; 23,0; 23,0; 0,0; 0,0;247,5; 99,5
2020-03-10 19:42:59; 7,9; 83; 5,2; 970,4368; 996,0000;3; 23,0; 23,0; 0,0; 0,0;247,5; 99,5
2020-03-10 19:53:00; 7,9; 84; 5,4; 970,3743; 995,9375;3; 23,0; 23,0; 0,0; 0,0;247,5; 99,5
2020-03-10 20:02:59; 8,0; 84; 5,5; 970,3743; 995,9375;3; 23,0; 23,0; 0,0; 0,0;247,5; 99,5
2020-03-10 20:13:00; 8,1; 85; 5,7; 970,4368; 996,0000;3; 23,0; 23,0; 0,0; 0,0;247,5; 99,5
2020-03-10 20:22:59; 8,2; 85; 5,8; 970,4368; 996,0000;3; 23,0; 23,0; 0,0; 0,0;247,5; 99,5
2020-03-10 20:33:00; 8,4; 85; 6,0; 969,8118; 995,3750;3; 23,0; 23,0; 0,0; 0,0;247,5; 99,5
2020-03-10 20:42:59; 8,5; 85; 6,1; 969,8118; 995,3750;3; 23,0; 23,0; 0,0; 0,0;247,5; 99,5
2020-03-10 20:53:00; 8,7; 85; 6,3; 969,8743; 995,4375;3; 23,0; 23,0; 0,0; 0,0;247,5; 99,5
2020-03-10 21:02:59; 8,9; 84; 6,3; 969,8743; 995,4375;3; 23,0; 23,0; 0,0; 0,0;247,5; 99,5
2020-03-10 21:12:59; 9,2; 84; 6,6; 969,8743; 995,4375;3; 23,0; 23,0; 0,0; 0,0;247,5; 99,5
2020-03-10 21:23:00; 9,4; 83; 6,7; 969,8743; 995,4375;3; 23,0; 23,0; 0,0; 0,0;247,5; 99,5
2020-03-10 21:32:59; 9,7; 82; 6,8; 969,7493; 995,3125;3; 23,0; 23,0; 0,0; 0,0;247,5; 99,5
2020-03-10 21:43:00; 9,9; 82; 7,0; 969,7493; 995,3125;3; 23,0; 23,0; 0,0; 0,0;247,5; 99,5
2020-03-10 21:52:59; 10,1; 82; 7,2; 969,6868; 995,2500;3; 23,0; 23,0; 0,0; 0,0;247,5; 99,5
2020-03-10 22:03:00; 10,3; 81; 7,2; 969,6868; 995,2500;3; 23,0; 23,0; 0,0; 0,0;247,5; 99,5
2020-03-10 22:12:59; 10,5; 80; 7,2; 969,2493; 994,8125;3; 23,0; 23,0; 0,0; 0,0;247,5; 99,5
2020-03-10 22:23:00; 10,6; 80; 7,3; 969,2493; 994,8125;3; 23,0; 23,0; 0,0; 0,0;247,5; 99,5
2020-03-10 22:32:59; 10,7; 79; 7,2; 969,4368; 995,0000;3; 23,0; 23,0; 0,0; 0,0;247,5; 100,2
2020-03-10 22:42:59; 10,9; 79; 7,4; 969,4368; 995,0000;3; 23,0; 23,0; 0,0; 0,0;247,5; 100,2
2020-03-10 22:53:00; 11,0; 79; 7,5; 969,3118; 994,8750;3; 23,0; 23,0; 0,0; 0,0;247,5; 100,2
2020-03-10 23:02:59; 11,2; 78; 7,5; 969,3118; 994,8750;3; 23,0; 23,0; 0,0; 0,0;247,5; 100,2
2020-03-10 23:13:00; 11,2; 78; 7,5; 969,2493; 994,8125;3; 23,0; 23,0; 0,0; 0,0;247,5; 100,2
2020-03-10 23:22:59; 11,3; 78; 7,6; 969,2493; 994,8125;3; 23,0; 23,0; 0,0; 0,0;247,5; 100,2
2020-03-10 23:33:00; 11,4; 78; 7,7; 969,5618; 995,1250;3; 23,0; 23,0; 0,0; 0,0;247,5; 100,2
2020-03-10 23:42:59; 11,5; 78; 7,8; 969,5618; 995,1250;3; 23,1; 23,1; 0,0; 0,0;247,5; 100,2
2020-03-10 23:53:00; 11,4; 79; 7,9; 969,6243; 995,1875;3; 23,1; 23,1; 0,0; 0,0;247,5; 100,2
2020-03-11 00:02:59; 11,4; 79; 7,9; 969,6243; 995,1875;3; 23,1; 23,1; 0,0; 0,0;247,5; 100,2
2020-03-11 00:12:59; 11,6; 78; 7,9; 969,5618; 995,1250;3; 23,1; 23,1; 0,0; 0,0;247,5; 100,2
2020-03-11 00:23:00; 11,7; 78; 8,0; 969,5618; 995,1250;3; 23,1; 23,1; 0,0; 0,0;247,5; 100,2
2020-03-11 00:32:59; 11,9; 77; 8,0; 969,8743; 995,4375;3; 23,1; 23,1; 0,0; 0,0;247,5; 100,2
2020-03-11 00:43:00; 11,9; 78; 8,2; 969,8743; 995,4375;3; 23,1; 23,1; 0,0; 0,0;247,5; 100,2
2020-03-11 00:52:59; 11,5; 81; 8,4; 969,9368; 995,5000;3; 23,1; 23,1; 0,0; 0,0;247,5; 100,2
2020-03-11 01:03:00; 11,3; 82; 8,3; 969,9368; 995,5000;3; 23,1; 23,1; 0,0; 0,0;247,5; 100,2
2020-03-11 01:12:59; 11,2; 83; 8,4; 969,9993; 995,5625;3; 23,1; 23,1; 0,0; 0,0;247,5; 100,2
2020-03-11 01:23:00; 11,2; 84; 8,6; 969,9993; 995,5625;3; 23,1; 23,1; 0,0; 0,0;247,5; 100,2
2020-03-11 01:32:59; 11,2; 84; 8,6; 969,9368; 995,5000;3; 23,1; 23,1; 0,0; 0,0;247,5; 100,2
2020-03-11 01:42:59; 11,1; 84; 8,5; 969,9368; 995,5000;3; 23,1; 23,1; 0,0; 0,0;247,5; 100,2
2020-03-11 01:53:00; 11,1; 85; 8,7; 970,1243; 995,6875;3; 23,1; 23,1; 0,0; 0,0;247,5; 100,2
2020-03-11 02:02:59; 11,1; 85; 8,7; 970,1243; 995,6875;3; 23,0; 23,0; 0,0; 0,0;247,5; 100,2
2020-03-11 02:13:00; 11,3; 85; 8,9; 970,2493; 995,8125;3; 23,0; 23,0; 0,0; 0,0;247,5; 100,2
2020-03-11 02:22:59; 11,3; 84; 8,7; 970,2493; 995,8125;3; 23,0; 23,0; 0,0; 0,0;247,5; 100,2
2020-03-11 02:33:00; 11,2; 85; 8,8; 970,1243; 995,6875;3; 23,0; 23,0; 0,0; 0,0;247,5; 100,2
2020-03-11 02:42:59; 11,1; 85; 8,7; 970,1243; 995,6875;3; 23,0; 23,0; 0,0; 0,0;247,5; 100,2
2020-03-11 02:53:00; 11,2; 85; 8,8; 970,2493; 995,8125;3; 23,0; 23,0; 0,0; 0,0;247,5; 100,2
2020-03-11 03:02:59; 11,2; 85; 8,8; 970,2493; 995,8125;3; 23,0; 23,0; 0,0; 0,0;247,5; 100,2
2020-03-11 03:12:59; 11,2; 85; 8,8; 970,4993; 996,0625;3; 23,0; 23,0; 0,0; 0,0;247,5; 100,2
2020-03-11 03:23:00; 10,7; 81; 7,6; 970,4993; 996,0625;3; 23,0; 23,0; 0,0; 0,0;247,5; 100,9
2020-03-11 03:32:59; 9,5; 84; 6,9; 972,2493; 997,8125;4; 23,0; 23,0; 0,0; 0,0;247,5; 102,3
2020-03-11 03:43:00; 9,2; 85; 6,8; 972,2493; 997,8125;4; 23,0; 23,0; 0,0; 0,0;247,5; 102,3
2020-03-11 03:52:59; 8,9; 84; 6,3; 972,6243; 998,1875;4; 23,0; 23,0; 0,0; 0,0;247,5; 103,0
2020-03-11 04:03:00; 8,6; 84; 6,0; 972,6243; 998,1875;4; 23,0; 23,0; 0,0; 0,0;247,5; 103,0
2020-03-11 04:12:59; 8,5; 84; 6,0; 972,9368; 998,5000;4; 23,0; 23,0; 0,0; 0,0;247,5; 103,0
2020-03-11 04:23:00; 8,3; 84; 5,8; 972,9368; 998,5000;4; 23,0; 23,0; 0,0; 0,0;247,5; 103,0
2020-03-11 04:32:59; 8,1; 85; 5,7; 973,2493; 998,8125;4; 23,0; 23,0; 0,0; 0,0;247,5; 103,7
2020-03-11 04:42:59; 8,0; 85; 5,6; 973,2493; 998,8125;4; 23,0; 23,0; 0,0; 0,0;247,5; 103,7
2020-03-11 04:53:00; 7,8; 86; 5,6; 973,4993; 999,0625;4; 22,9; 22,9; 0,0; 0,0;247,5; 103,7
2020-03-11 05:02:59; 7,7; 86; 5,5; 973,4993; 999,0625;4; 22,9; 22,9; 0,0; 0,0;247,5; 103,7
2020-03-11 05:13:00; 7,7; 86; 5,5; 973,5618; 999,1250;4; 22,9; 22,9; 0,0; 0,0;247,5; 103,7
2020-03-11 05:22:59; 7,6; 86; 5,4; 973,5618; 999,1250;4; 22,9; 22,9; 0,0; 0,0;247,5; 104,4
2020-03-11 05:33:00; 7,6; 86; 5,4; 973,8118; 999,3750;4; 22,9; 22,9; 0,0; 0,0;247,5; 104,4
2020-03-11 05:42:59; 7,6; 85; 5,2; 973,8118; 999,3750;4; 22,9; 22,9; 0,0; 0,0;247,5; 104,4
2020-03-11 05:53:00; 7,6; 85; 5,2; 973,9368; 999,5000;4; 22,9; 22,9; 0,0; 0,0;247,5; 104,4
2020-03-11 06:02:59; 7,6; 85; 5,2; 973,9368; 999,5000;4; 22,9; 22,9; 0,0; 0,0;247,5; 105,1
2020-03-11 06:12:59; 7,7; 85; 5,3; 974,1868; 999,7500;4; 22,9; 22,9; 0,0; 0,0;247,5; 105,1
2020-03-11 06:23:00; 7,7; 84; 5,2; 974,1868; 999,7500;4; 22,9; 22,9; 0,0; 0,0;247,5; 105,1
2020-03-11 06:32:59; 7,7; 83; 5,0; 974,4993;1000,0625;4; 22,9; 22,9; 0,0; 0,0;247,5; 105,1
2020-03-11 06:43:00; 7,7; 83; 5,0; 974,4993;1000,0625;4; 22,9; 22,9; 0,0; 0,0;247,5; 105,1
2020-03-11 06:52:59; 7,7; 83; 5,0; 974,6868;1000,2500;4; 22,9; 22,9; 0,0; 0,0;247,5; 105,1
2020-03-11 07:03:00; 7,8; 83; 5,1; 974,6868;1000,2500;4; 23,0; 23,0; 0,0; 0,0;247,5; 105,1
2020-03-11 07:12:59; 8,0; 83; 5,3; 974,6868;1000,2500;4; 23,0; 23,0; 0,0; 0,0;247,5; 105,1
2020-03-11 07:23:00; 8,1; 83; 5,4; 974,6868;1000,2500;4; 23,0; 23,0; 0,0; 0,0;247,5; 105,1
2020-03-11 07:32:59; 8,3; 83; 5,6; 974,8118;1000,3750;4; 23,0; 23,0; 0,0; 0,0;247,5; 105,1
2020-03-11 07:42:59; 8,3; 82; 5,4; 974,8118;1000,3750;4; 23,0; 23,0; 0,0; 0,0;247,5; 105,1
2020-03-11 07:53:00; 8,5; 82; 5,6; 975,6868;1001,2500;4; 23,1; 23,1; 0,0; 0,0;247,5; 105,1
2020-03-11 08:02:59; 8,6; 82; 5,7; 975,6868;1001,2500;4; 23,1; 23,1; 0,0; 0,0;247,5; 105,1
2020-03-11 08:13:00; 8,7; 82; 5,8; 975,7493;1001,3125;4; 23,0; 23,0; 0,0; 0,0;247,5; 105,1
2020-03-11 08:22:59; 8,9; 82; 6,0; 975,7493;1001,3125;4; 23,1; 23,1; 0,0; 0,0;247,5; 105,1
2020-03-11 08:33:00; 9,1; 81; 6,0; 975,4993;1001,0625;4; 23,1; 23,1; 0,0; 0,0;247,5; 105,1
2020-03-11 08:42:59; 9,3; 81; 6,2; 975,4993;1001,0625;4; 23,1; 23,1; 0,0; 0,0;247,5; 105,1
2020-03-11 08:53:00; 9,7; 80; 6,4; 975,9993;1001,5625;4; 23,2; 23,2; 0,0; 0,0;247,5; 105,1
2020-03-11 09:02:59; 9,9; 78; 6,2; 975,9993;1001,5625;4; 23,2; 23,2; 0,0; 0,0;247,5; 105,1
2020-03-11 09:12:59; 9,7; 76; 5,7; 976,4993;1002,0625;4; 23,2; 23,2; 0,0; 0,0;247,5; 105,1
2020-03-11 09:23:00; 9,6; 76; 5,6; 976,4993;1002,0625;4; 23,2; 23,2; 0,0; 0,0;247,5; 105,1
2020-03-11 09:32:59; 9,5; 77; 5,7; 976,8118;1002,3750;4; 23,2; 23,2; 0,0; 0,0;247,5; 105,1
2020-03-11 09:43:00; 9,5; 78; 5,9; 976,8118;1002,3750;4; 23,2; 23,2; 0,0; 0,0;247,5; 105,1
2020-03-11 09:52:59; 9,5; 78; 5,9; 976,8118;1002,3750;4; 23,2; 23,2; 0,0; 0,0;247,5; 105,1
2020-03-11 10:03:00; 9,8; 78; 6,1; 976,8118;1002,3750;4; 23,2; 23,2; 0,0; 0,0;247,5; 105,1
2020-03-11 10:12:59; 9,9; 77; 6,1; 976,8118;1002,3750;4; 23,2; 23,2; 0,0; 0,0;247,5; 105,1
2020-03-11 10:23:00; 10,1; 76; 6,1; 976,8118;1002,3750;4; 23,2; 23,2; 0,0; 0,0;247,5; 105,1
2020-03-11 10:32:59; 10,2; 76; 6,2; 977,4993;1003,0625;4; 23,3; 23,3; 0,0; 0,0;247,5; 105,1
2020-03-11 10:42:59; 10,3; 74; 5,9; 977,4993;1003,0625;4; 23,4; 23,4; 0,0; 0,0;247,5; 105,1
2020-03-11 10:53:00; 10,5; 74; 6,1; 977,4368;1003,0000;4; 23,4; 23,4; 0,0; 0,0;247,5; 105,1
2020-03-11 11:02:59; 10,7; 73; 6,1; 977,4368;1003,0000;4; 23,5; 23,5; 0,0; 0,0;247,5; 105,1
2020-03-11 11:13:00; 10,7; 73; 6,1; 977,5618;1003,1250;4; 23,6; 23,6; 0,0; 0,0;247,5; 105,1
2020-03-11 11:22:59; 10,5; 72; 5,7; 977,5618;1003,1250;4; 23,6; 23,6; 0,0; 0,0;247,5; 105,1
2020-03-11 11:33:00; 10,7; 73; 6,1; 977,5618;1003,1250;4; 23,6; 23,6; 0,0; 0,0;247,5; 105,1
2020-03-11 11:42:59; 10,9; 73; 6,3; 977,5618;1003,1250;4; 23,6; 23,6; 0,0; 0,0;247,5; 105,1
2020-03-11 11:53:00; 11,1; 74; 6,6; 977,8118;1003,3750;5; 23,6; 23,6; 0,0; 0,0;247,5; 105,1
2020-03-11 12:02:59; 11,3; 73; 6,6; 977,8118;1003,3750;5; 23,7; 23,7; 0,0; 0,0;247,5; 105,1
2020-03-11 12:12:59; 11,2; 75; 6,9; 977,9993;1003,5625;5; 23,8; 23,8; 0,0; 0,0;247,5; 105,1
2020-03-11 12:23:00; 11,6; 74; 7,1; 977,9993;1003,5625;5; 23,8; 23,8; 0,0; 0,0;247,5; 105,1
2020-03-11 12:32:59; 11,8; 74; 7,3; 977,6243;1003,1875;5; 23,9; 23,9; 0,0; 0,0;247,5; 105,1
2020-03-11 12:43:00; 11,9; 74; 7,4; 977,6243;1003,1875;5; 23,9; 23,9; 0,0; 0,0;247,5; 105,1
2020-03-11 12:52:59; 11,6; 76; 7,5; 977,5618;1003,1250;5; 23,9; 23,9; 0,0; 0,0;247,5; 105,1
2020-03-11 13:03:00; 11,9; 77; 8,0; 977,5618;1003,1250;5; 23,8; 23,8; 0,0; 0,0;247,5; 105,1
2020-03-11 13:12:59; 12,0; 77; 8,1; 977,5618;1003,1250;5; 23,8; 23,8; 0,0; 0,0;247,5; 105,1
2020-03-11 13:23:00; 12,0; 76; 7,9; 977,5618;1003,1250;5; 23,8; 23,8; 0,0; 0,0;247,5; 105,1
2020-03-11 13:32:59; 11,9; 78; 8,2; 977,7493;1003,3125;5; 23,8; 23,8; 0,0; 0,0;247,5; 105,1
2020-03-11 13:42:59; 12,0; 79; 8,5; 977,7493;1003,3125;5; 23,8; 23,8; 0,0; 0,0;247,5; 105,1
2020-03-11 13:53:00; 12,1; 77; 8,2; 977,8743;1003,4375;5; 23,8; 23,8; 0,0; 0,0;247,5; 105,1
2020-03-11 14:02:59; 12,1; 77; 8,2; 977,8743;1003,4375;5; 23,8; 23,8; 0,0; 0,0;247,5; 105,1
2020-03-11 14:13:00; 12,1; 76; 8,0; 978,0618;1003,6250;5; 23,7; 23,7; 0,0; 0,0;247,5; 105,1
2020-03-11 14:22:59; 11,9; 77; 8,0; 978,0618;1003,6250;5; 23,6; 23,6; 0,0; 0,0;247,5; 105,1
2020-03-11 14:33:00; 11,9; 78; 8,2; 977,9368;1003,5000;5; 23,6; 23,6; 0,0; 0,0;247,5; 105,1
2020-03-11 14:42:59; 11,8; 78; 8,1; 977,9368;1003,5000;5; 23,6; 23,6; 0,0; 0,0;247,5; 105,1
2020-03-11 14:53:00; 11,7; 78; 8,0; 978,0618;1003,6250;5; 23,6; 23,6; 0,0; 0,0;247,5; 105,1
2020-03-11 15:02:59; 11,9; 78; 8,2; 978,0618;1003,6250;5; 23,6; 23,6; 0,0; 0,0;247,5; 105,1
2020-03-11 15:12:59; 11,8; 77; 7,9; 978,1868;1003,7500;5; 23,6; 23,6; 0,0; 0,0;247,5; 105,1
2020-03-11 15:23:00; 11,7; 77; 7,8; 978,1868;1003,7500;5; 23,6; 23,6; 0,0; 0,0;247,5; 105,1
2020-03-11 15:32:59; 11,9; 78; 8,2; 978,2493;1003,8125;5; 23,5; 23,5; 0,0; 0,0;247,5; 105,1
2020-03-11 15:43:00; 11,7; 77; 7,8; 978,2493;1003,8125;5; 23,5; 23,5; 0,0; 0,0;247,5; 105,1
2020-03-11 15:52:59; 11,7; 78; 8,0; 978,2493;1003,8125;5; 23,5; 23,5; 0,0; 0,0;247,5; 105,1
2020-03-11 16:03:00; 11,8; 78; 8,1; 978,2493;1003,8125;5; 23,4; 23,4; 0,0; 0,0;247,5; 105,1
2020-03-11 16:12:59; 11,7; 78; 8,0; 978,1868;1003,7500;5; 23,4; 23,4; 0,0; 0,0;247,5; 105,1
2020-03-11 16:23:00; 11,5; 79; 8,0; 978,1868;1003,7500;5; 23,4; 23,4; 0,0; 0,0;247,5; 105,1
2020-03-11 16:32:59; 11,5; 80; 8,2; 978,3118;1003,8750;5; 23,4; 23,4; 0,0; 0,0;247,5; 105,1
2020-03-11 16:42:59; 11,5; 80; 8,2; 978,3118;1003,8750;5; 23,4; 23,4; 0,0; 0,0;247,5; 105,1
2020-03-11 16:53:00; 11,3; 80; 8,0; 978,4993;1004,0625;5; 23,3; 23,3; 0,0; 0,0;247,5; 105,1
2020-03-11 17:02:59; 11,2; 80; 7,9; 978,4993;1004,0625;5; 23,3; 23,3; 0,0; 0,0;247,5; 105,1
2020-03-11 17:13:00; 11,1; 80; 7,8; 978,3118;1003,8750;5; 23,3; 23,3; 0,0; 0,0;247,5; 105,1
2020-03-11 17:22:59; 11,1; 80; 7,8; 978,3118;1003,8750;5; 23,2; 23,2; 0,0; 0,0;247,5; 105,1
2020-03-11 17:33:00; 11,0; 81; 7,9; 978,2493;1003,8125;5; 23,2; 23,2; 0,0; 0,0;247,5; 105,1
2020-03-11 17:42:59; 10,9; 81; 7,8; 978,2493;1003,8125;5; 23,2; 23,2; 0,0; 0,0;247,5; 105,1
2020-03-11 17:53:00; 10,8; 81; 7,7; 978,0618;1003,6250;5; 23,2; 23,2; 0,0; 0,0;247,5; 105,1
2020-03-11 18:02:59; 10,7; 82; 7,8; 978,0618;1003,6250;5; 23,2; 23,2; 0,0; 0,0;247,5; 105,1
2020-03-11 18:12:59; 10,6; 82; 7,7; 978,2493;1003,8125;5; 23,2; 23,2; 0,0; 0,0;247,5; 105,1
2020-03-11 18:23:00; 10,5; 83; 7,7; 978,2493;1003,8125;5; 23,2; 23,2; 0,0; 0,0;247,5; 105,1
2020-03-11 18:32:59; 10,4; 83; 7,6; 978,2493;1003,8125;5; 23,2; 23,2; 0,0; 0,0;247,5; 105,1
2020-03-11 18:43:00; 10,4; 83; 7,6; 978,2493;1003,8125;5; 23,2; 23,2; 0,0; 0,0;247,5; 105,1
2020-03-11 18:52:59; 10,4; 83; 7,6; 978,3118;1003,8750;5; 23,2; 23,2; 0,0; 0,0;247,5; 105,1
2020-03-11 19:03:00; 10,4; 83; 7,6; 978,3118;1003,8750;5; 23,2; 23,2; 0,0; 0,0;247,5; 105,1
2020-03-11 19:12:59; 10,4; 83; 7,6; 978,2493;1003,8125;5; 23,1; 23,1; 0,0; 0,0;247,5; 105,1
2020-03-11 19:23:00; 10,4; 83; 7,6; 978,2493;1003,8125;5; 23,1; 23,1; 0,0; 0,0;247,5; 105,1
2020-03-11 19:32:59; 10,4; 83; 7,6; 978,2493;1003,8125;5; 23,1; 23,1; 0,0; 0,0;247,5; 105,1
2020-03-11 19:42:59; 10,4; 84; 7,8; 978,2493;1003,8125;5; 23,1; 23,1; 0,0; 0,0;247,5; 105,1
2020-03-11 19:53:00; 10,3; 84; 7,7; 977,9993;1003,5625;5; 23,1; 23,1; 0,0; 0,0;247,5; 105,1
2020-03-11 20:02:59; 10,3; 84; 7,7; 977,9993;1003,5625;5; 23,1; 23,1; 0,0; 0,0;247,5; 105,1
2020-03-11 20:13:00; 10,3; 84; 7,7; 977,9993;1003,5625;5; 23,1; 23,1; 0,0; 0,0;247,5; 105,1
2020-03-11 20:22:59; 10,3; 85; 7,9; 977,9993;1003,5625;5; 23,1; 23,1; 0,0; 0,0;247,5; 105,1
2020-03-11 20:33:00; 10,3; 85; 7,9; 977,9993;1003,5625;5; 23,1; 23,1; 0,0; 0,0;247,5; 105,1
2020-03-11 20:42:59; 10,3; 86; 8,1; 977,9993;1003,5625;5; 23,1; 23,1; 0,0; 0,0;247,5; 105,1
2020-03-11 20:53:00; 10,3; 86; 8,1; 977,8118;1003,3750;5; 23,1; 23,1; 0,0; 0,0;247,5; 105,1
2020-03-11 21:02:59; 10,3; 86; 8,1; 977,8118;1003,3750;5; 23,1; 23,1; 0,0; 0,0;247,5; 105,1
2020-03-11 21:12:59; 10,2; 86; 8,0; 977,6243;1003,1875;5; 23,1; 23,1; 0,0; 0,0;247,5; 105,1
2020-03-11 21:23:00; 10,2; 87; 8,1; 977,6243;1003,1875;5; 23,1; 23,1; 0,0; 0,0;247,5; 105,1
2020-03-11 21:32:59; 10,2; 87; 8,1; 977,4993;1003,0625;5; 23,1; 23,1; 0,0; 0,0;247,5; 105,1
2020-03-11 21:43:00; 10,2; 87; 8,1; 977,4993;1003,0625;5; 23,1; 23,1; 0,0; 0,0;247,5; 105,1
2020-03-11 21:52:59; 10,3; 87; 8,2; 977,3743;1002,9375;5; 23,1; 23,1; 0,0; 0,0;247,5; 105,8
2020-03-11 22:03:00; 10,4; 87; 8,3; 977,3743;1002,9375;5; 23,1; 23,1; 0,0; 0,0;247,5; 105,8
2020-03-11 22:12:59; 10,6; 87; 8,5; 977,1243;1002,6875;5; 23,1; 23,1; 0,0; 0,0;247,5; 105,8
2020-03-11 22:23:00; 10,7; 86; 8,5; 977,1243;1002,6875;5; 23,1; 23,1; 0,0; 0,0;247,5; 105,8
2020-03-11 22:32:59; 10,7; 86; 8,5; 977,0618;1002,6250;5; 23,1; 23,1; 0,0; 0,0;247,5; 105,8
2020-03-11 22:42:59; 10,7; 86; 8,5; 977,0618;1002,6250;5; 23,1; 23,1; 0,0; 0,0;247,5; 105,8
2020-03-11 22:53:00; 10,8; 86; 8,6; 976,9993;1002,5625;5; 23,0; 23,0; 0,0; 0,0;247,5; 105,8
2020-03-11 23:02:59; 10,8; 86; 8,6; 976,9993;1002,5625;5; 23,1; 23,1; 0,0; 0,0;247,5; 105,8
2020-03-11 23:13:00; 10,8; 86; 8,6; 976,6868;1002,2500;5; 23,1; 23,1; 0,0; 0,0;247,5; 105,8
2020-03-11 23:22:59; 10,8; 86; 8,6; 976,6868;1002,2500;5; 23,0; 23,0; 0,0; 0,0;247,5; 105,8
2020-03-11 23:33:00; 10,8; 86; 8,6; 976,3743;1001,9375;5; 23,1; 23,1; 0,0; 0,0;247,5; 105,8
2020-03-11 23:42:59; 10,7; 86; 8,5; 976,3743;1001,9375;5; 23,0; 23,0; 0,0; 0,0;247,5; 105,8
2020-03-11 23:53:00; 10,7; 86; 8,5; 976,3118;1001,8750;5; 23,1; 23,1; 0,0; 0,0;247,5; 105,8
2020-03-12 00:02:59; 11,0; 85; 8,6; 976,3118;1001,8750;5; 23,1; 23,1; 0,0; 0,0;247,5; 105,8
2020-03-12 00:12:59; 11,0; 85; 8,6; 975,7493;1001,3125;5; 23,1; 23,1; 0,0; 0,0;247,5; 105,8
2020-03-12 00:23:00; 11,0; 84; 8,4; 975,7493;1001,3125;5; 23,1; 23,1; 0,0; 0,0;247,5; 105,8
2020-03-12 00:32:59; 11,1; 84; 8,5; 975,6868;1001,2500;5; 23,1; 23,1; 0,0; 0,0;247,5; 105,8
2020-03-12 00:43:00; 11,1; 83; 8,3; 975,6868;1001,2500;5; 23,0; 23,0; 0,0; 0,0;247,5; 105,8
2020-03-12 00:52:59; 11,1; 83; 8,3; 975,4993;1001,0625;5; 23,1; 23,1; 0,0; 0,0;247,5; 105,8
2020-03-12 01:03:00; 11,1; 83; 8,3; 975,4993;1001,0625;5; 23,1; 23,1; 0,0; 0,0;247,5; 105,8
2020-03-12 01:12:59; 11,3; 82; 8,3; 975,1868;1000,7500;5; 23,0; 23,0; 0,0; 0,0;247,5; 105,8
2020-03-12 01:23:00; 11,3; 82; 8,3; 975,1868;1000,7500;5; 23,1; 23,1; 0,0; 0,0;247,5; 105,8
2020-03-12 01:32:59; 11,5; 81; 8,4; 974,8743;1000,4375;5; 23,1; 23,1; 0,0; 0,0;247,5; 105,8
2020-03-12 01:42:59; 11,7; 80; 8,4; 974,8743;1000,4375;5; 23,1; 23,1; 0,0; 0,0;247,5; 105,8
2020-03-12 01:53:00; 11,7; 80; 8,4; 974,7493;1000,3125;4; 23,1; 23,1; 0,0; 0,0;247,5; 105,8
2020-03-12 02:02:59; 11,7; 80; 8,4; 974,7493;1000,3125;4; 23,1; 23,1; 0,0; 0,0;247,5; 105,8
2020-03-12 02:13:00; 11,8; 80; 8,5; 974,5618;1000,1250;4; 23,1; 23,1; 0,0; 0,0;247,5; 105,8
2020-03-12 02:22:59; 11,8; 79; 8,3; 974,5618;1000,1250;4; 23,1; 23,1; 0,0; 0,0;247,5; 105,8
2020-03-12 02:33:00; 11,8; 79; 8,3; 974,2493; 999,8125;4; 23,0; 23,0; 0,0; 0,0;247,5; 105,8
2020-03-12 02:42:59; 11,9; 78; 8,2; 974,2493; 999,8125;4; 23,1; 23,1; 0,0; 0,0;247,5; 105,8
2020-03-12 02:53:00; 11,9; 78; 8,2; 973,9368; 999,5000;4; 23,1; 23,1; 0,0; 0,0;247,5; 105,8
2020-03-12 03:02:59; 11,9; 77; 8,0; 973,9368; 999,5000;4; 23,1; 23,1; 0,0; 0,0;247,5; 105,8
2020-03-12 03:12:59; 11,9; 77; 8,0; 973,8743; 999,4375;4; 23,1; 23,1; 0,0; 0,0;247,5; 105,8
2020-03-12 03:23:00; 11,9; 77; 8,0; 973,8743; 999,4375;4; 23,1; 23,1; 0,0; 0,0;247,5; 105,8
2020-03-12 03:32:59; 11,8; 77; 7,9; 973,5618; 999,1250;4; 23,1; 23,1; 0,0; 0,0;247,5; 105,8
2020-03-12 03:43:00; 11,8; 77; 7,9; 973,5618; 999,1250;4; 23,1; 23,1; 0,0; 0,0;247,5; 105,8
2020-03-12 03:52:59; 11,9; 76; 7,8; 973,5618; 999,1250;4; 23,1; 23,1; 0,0; 0,0;247,5; 105,8
2020-03-12 04:03:00; 11,9; 76; 7,8; 973,5618; 999,1250;4; 23,1; 23,1; 0,0; 0,0;247,5; 105,8
2020-03-12 04:12:59; 11,9; 75; 7,6; 973,3743; 998,9375;4; 23,1; 23,1; 0,0; 0,0;247,5; 105,8
2020-03-12 04:23:00; 11,8; 75; 7,5; 973,3743; 998,9375;4; 23,1; 23,1; 0,0; 0,0;247,5; 105,8
2020-03-12 04:32:59; 11,7; 75; 7,4; 972,9993; 998,5625;4; 23,1; 23,1; 0,0; 0,0;247,5; 105,8
2020-03-12 04:42:59; 11,7; 74; 7,2; 972,9993; 998,5625;4; 23,1; 23,1; 0,0; 0,0;247,5; 105,8
2020-03-12 04:53:00; 11,7; 74; 7,2; 972,9993; 998,5625;4; 23,0; 23,0; 0,0; 0,0;247,5; 105,8
2020-03-12 05:02:59; 11,6; 73; 6,9; 972,9993; 998,5625;4; 23,0; 23,0; 0,0; 0,0;247,5; 105,8
2020-03-12 05:13:00; 11,5; 73; 6,8; 972,7493; 998,3125;4; 23,0; 23,0; 0,0; 0,0;247,5; 105,8
2020-03-12 05:22:59; 11,4; 73; 6,7; 972,7493; 998,3125;4; 23,0; 23,0; 0,0; 0,0;247,5; 105,8
2020-03-12 05:33:00; 11,5; 73; 6,8; 972,6868; 998,2500;4; 23,0; 23,0; 0,0; 0,0;247,5; 105,8
2020-03-12 05:42:59; 11,5; 72; 6,6; 972,6868; 998,2500;4; 23,0; 23,0; 0,0; 0,0;247,5; 105,8
2020-03-12 05:53:00; 11,4; 72; 6,5; 972,6243; 998,1875;4; 23,0; 23,0; 0,0; 0,0;247,5; 105,8
2020-03-12 06:02:59; 11,5; 71; 6,4; 972,6243; 998,1875;4; 23,1; 23,1; 0,0; 0,0;247,5; 105,8
2020-03-12 06:12:59; 11,5; 71; 6,4; 972,5618; 998,1250;4; 23,1; 23,1; 0,0; 0,0;247,5; 105,8
2020-03-12 06:23:00; 11,7; 71; 6,6; 972,5618; 998,1250;4; 23,1; 23,1; 0,0; 0,0;247,5; 105,8
2020-03-12 06:32:59; 11,6; 71; 6,5; 972,4368; 998,0000;4; 23,1; 23,1; 0,0; 0,0;247,5; 105,8
2020-03-12 06:43:00; 11,6; 71; 6,5; 972,4368; 998,0000;4; 23,1; 23,1; 0,0; 0,0;247,5; 105,8
2020-03-12 06:52:59; 11,9; 71; 6,8; 972,4993; 998,0625;4; 23,1; 23,1; 0,0; 0,0;247,5; 105,8
2020-03-12 07:03:00; 12,5; 70; 7,2; 972,4993; 998,0625;4; 23,1; 23,1; 0,0; 0,0;247,5; 105,8
2020-03-12 07:12:59; 13,1; 68; 7,3; 972,3118; 997,8750;4; 23,2; 23,2; 0,0; 0,0;247,5; 105,8
2020-03-12 07:23:00; 13,7; 66; 7,5; 972,3118; 997,8750;4; 23,8; 23,8; 0,0; 0,0;247,5; 105,8
2020-03-12 07:32:59; 14,2; 64; 7,5; 972,5618; 998,1250;4; 24,1; 24,1; 0,0; 0,0;247,5; 105,8
2020-03-12 07:42:59; 14,7; 62; 7,5; 972,5618; 998,1250;4; 24,3; 24,3; 0,0; 0,0;247,5; 105,8
2020-03-12 07:53:00; 15,1; 61; 7,6; 972,9993; 998,5625;4; 24,8; 24,8; 0,0; 0,0;247,5; 105,8
2020-03-12 08:02:59; 15,4; 61; 7,9; 972,9993; 998,5625;4; 25,3; 25,3; 0,0; 0,0;247,5; 105,8
2020-03-12 08:13:00; 15,8; 58; 7,6; 973,3118; 998,8750;4; 25,9; 25,9; 0,0; 0,0;247,5; 105,8
2020-03-12 08:22:59; 16,0; 58; 7,7; 973,3118; 998,8750;4; 26,4; 26,4; 0,0; 0,0;247,5; 105,8
2020-03-12 08:33:00; 15,6; 57; 7,1; 973,7493; 999,3125;4; 26,6; 26,6; 0,0; 0,0;247,5; 105,8
2020-03-12 08:42:59; 15,5; 58; 7,3; 973,7493; 999,3125;4; 26,4; 26,4; 0,0; 0,0;247,5; 105,8
2020-03-12 08:53:00; 15,6; 58; 7,4; 973,5618; 999,1250;4; 26,2; 26,2; 0,0; 0,0;247,5; 105,8
2020-03-12 09:02:59; 16,1; 56; 7,3; 973,5618; 999,1250;4; 26,3; 26,3; 0,0; 0,0;247,5; 105,8
2020-03-12 09:12:59; 16,2; 56; 7,4; 973,5618; 999,1250;4; 26,2; 26,2; 0,0; 0,0;247,5; 105,8
2020-03-12 09:23:00; 16,3; 55; 7,2; 973,5618; 999,1250;4; 26,1; 26,1; 0,0; 0,0;247,5; 105,8
2020-03-12 09:32:59; 15,8; 56; 7,0; 973,3118; 998,8750;4; 25,9; 25,9; 0,0; 0,0;247,5; 105,8
2020-03-12 09:43:00; 16,3; 56; 7,5; 973,3118; 998,8750;4; 26,0; 26,0; 0,0; 0,0;247,5; 105,8
2020-03-12 09:52:59; 16,6; 55; 7,5; 973,6868; 999,2500;4; 26,5; 26,5; 0,0; 0,0;247,5; 105,8
2020-03-12 10:03:00; 16,3; 52; 6,4; 973,6868; 999,2500;4; 26,6; 26,6; 0,0; 0,0;247,5; 105,8
2020-03-12 10:12:59; 16,4; 54; 7,1; 973,8118; 999,3750;4; 26,4; 26,4; 0,0; 0,0;247,5; 105,8
2020-03-12 10:23:00; 16,0; 52; 6,1; 973,8118; 999,3750;4; 26,1; 26,1; 0,0; 0,0;247,5; 105,8
2020-03-12 10:32:59; 16,5; 52; 6,6; 973,9368; 999,5000;4; 26,0; 26,0; 0,0; 0,0;247,5; 105,8
2020-03-12 10:42:59; 15,9; 54; 6,6; 973,9368; 999,5000;4; 25,8; 25,8; 0,0; 0,0;247,5; 105,8
2020-03-12 10:53:00; 15,8; 55; 6,8; 973,9368; 999,5000;4; 25,5; 25,5; 0,0; 0,0;247,5; 105,8
2020-03-12 11:02:59; 15,6; 56; 6,9; 973,9368; 999,5000;4; 25,3; 25,3; 0,0; 0,0;247,5; 105,8
2020-03-12 11:13:00; 16,0; 56; 7,2; 973,8743; 999,4375;4; 25,2; 25,2; 0,0; 0,0;247,5; 105,8
2020-03-12 11:22:59; 16,6; 55; 7,5; 973,8743; 999,4375;4; 25,5; 25,5; 0,0; 0,0;247,5; 105,8
2020-03-12 11:33:00; 16,5; 54; 7,2; 974,4368;1000,0000;4; 25,7; 25,7; 0,0; 0,0;247,5; 105,8
2020-03-12 11:42:59; 16,3; 54; 7,0; 974,4368;1000,0000;4; 25,8; 25,8; 0,0; 0,0;247,5; 105,8
2020-03-12 11:53:00; 15,4; 60; 7,7; 974,6868;1000,2500;4; 25,6; 25,6; 0,0; 0,0;247,5; 105,8
2020-03-12 12:02:59; 13,1; 72; 8,2; 974,6868;1000,2500;4; 25,4; 25,4; 0,0; 0,0;247,5; 105,8
2020-03-12 12:12:59; 12,1; 75; 7,8; 974,9993;1000,5625;4; 25,2; 25,2; 0,0; 0,0;247,5; 106,5
2020-03-12 12:23:00; 11,7; 76; 7,6; 974,9993;1000,5625;4; 25,0; 25,0; 0,0; 0,0;247,5; 106,5
2020-03-12 12:32:59; 11,6; 76; 7,5; 974,9368;1000,5000;4; 24,9; 24,9; 0,0; 0,0;247,5; 106,5
2020-03-12 12:43:00; 11,7; 76; 7,6; 974,9368;1000,5000;4; 24,8; 24,8; 0,0; 0,0;247,5; 106,5
2020-03-12 12:52:59; 12,4; 76; 8,3; 976,0618;1001,6250;4; 24,9; 24,9; 0,0; 0,0;247,5; 106,5
2020-03-12 13:03:00; 12,4; 74; 7,9; 976,0618;1001,6250;4; 25,0; 25,0; 0,0; 0,0;247,5; 106,5
2020-03-12 13:12:59; 11,7; 75; 7,4; 976,2493;1001,8125;4; 24,9; 24,9; 0,0; 0,0;247,5; 106,5
2020-03-12 13:23:00; 11,3; 73; 6,6; 976,2493;1001,8125;4; 24,8; 24,8; 0,0; 0,0;247,5; 107,2
2020-03-12 13:32:59; 11,0; 73; 6,3; 976,5618;1002,1250;4; 24,7; 24,7; 0,0; 0,0;247,5; 107,2
2020-03-12 13:42:59; 10,4; 71; 5,4; 976,5618;1002,1250;4; 24,7; 24,7; 0,0; 0,0;247,5; 107,2
2020-03-12 13:53:00; 9,9; 72; 5,1; 976,4993;1002,0625;4; 24,6; 24,6; 0,0; 0,0;247,5; 107,2
2020-03-12 14:02:59; 9,9; 73; 5,3; 976,4993;1002,0625;4; 24,6; 24,6; 0,0; 0,0;247,5; 107,2
2020-03-12 14:13:00; 9,7; 71; 4,7; 976,3743;1001,9375;4; 24,6; 24,6; 0,0; 0,0;247,5; 107,2
2020-03-12 14:22:59; 9,8; 70; 4,6; 976,3743;1001,9375;4; 24,5; 24,5; 0,0; 0,0;247,5; 107,2
2020-03-12 14:33:00; 10,1; 71; 5,1; 976,6868;1002,2500;4; 24,5; 24,5; 0,0; 0,0;247,5; 107,2
2020-03-12 14:42:59; 10,1; 70; 4,9; 976,6868;1002,2500;4; 24,5; 24,5; 0,0; 0,0;247,5; 107,2
2020-03-12 14:53:00; 10,2; 68; 4,6; 976,4993;1002,0625;4; 24,4; 24,4; 0,0; 0,0;247,5; 107,2
2020-03-12 15:02:59; 10,3; 66; 4,2; 976,4993;1002,0625;4; 24,4; 24,4; 0,0; 0,0;247,5; 107,2
2020-03-12 15:12:59; 10,3; 66; 4,2; 976,3743;1001,9375;4; 24,4; 24,4; 0,0; 0,0;247,5; 107,2
2020-03-12 15:23:00; 10,3; 63; 3,6; 976,3743;1001,9375;4; 24,4; 24,4; 0,0; 0,0;247,5; 107,2
2020-03-12 15:32:59; 10,3; 60; 2,9; 976,6243;1002,1875;4; 24,4; 24,4; 0,0; 0,0;247,5; 107,2
2020-03-12 15:43:00; 10,4; 58; 2,5; 976,6243;1002,1875;4; 24,4; 24,4; 0,0; 0,0;247,5; 107,2
2020-03-12 15:52:59; 10,3; 56; 1,9; 976,8118;1002,3750;4; 24,4; 24,4; 0,0; 0,0;247,5; 107,2
2020-03-12 16:03:00; 10,2; 51; 0,5; 976,8118;1002,3750;4; 24,4; 24,4; 0,0; 0,0;247,5; 107,2
2020-03-12 16:12:59; 10,1; 51; 0,4; 976,8118;1002,3750;4; 24,3; 24,3; 0,0; 0,0;247,5; 107,2
2020-03-12 16:23:00; 9,9; 50; 0,0; 976,8118;1002,3750;4; 24,3; 24,3; 0,0; 0,0;247,5; 107,2
2020-03-12 16:32:59; 9,7; 51; 0,0; 976,9368;1002,5000;4; 24,3; 24,3; 0,0; 0,0;247,5; 107,2
2020-03-12 16:42:59; 9,4; 51; -0,2; 976,9368;1002,5000;4; 24,4; 24,4; 0,0; 0,0;247,5; 107,2
2020-03-12 16:53:00; 9,3; 52; -0,1; 977,4368;1003,0000;4; 24,4; 24,4; 0,0; 0,0;247,5; 107,2
2020-03-12 17:02:59; 9,0; 53; -0,1; 977,4368;1003,0000;4; 24,4; 24,4; 0,0; 0,0;247,5; 107,2
2020-03-12 17:13:00; 8,8; 55; 0,3; 977,4993;1003,0625;4; 24,4; 24,4; 0,0; 0,0;247,5; 107,2
2020-03-12 17:22:59; 8,6; 53; -0,4; 977,4993;1003,0625;4; 24,3; 24,3; 0,0; 0,0;247,5; 107,2
2020-03-12 17:33:00; 8,4; 51; -1,2; 977,4368;1003,0000;4; 24,2; 24,2; 0,0; 0,0;247,5; 107,2
2020-03-12 17:42:59; 8,3; 54; -0,5; 977,4368;1003,0000;4; 24,1; 24,1; 0,0; 0,0;247,5; 107,2
2020-03-12 17:53:00; 8,1; 57; 0,1; 977,4368;1003,0000;4; 24,0; 24,0; 0,0; 0,0;247,5; 107,2
2020-03-12 18:02:59; 7,9; 58; 0,1; 977,4368;1003,0000;4; 24,0; 24,0; 0,0; 0,0;247,5; 107,2
2020-03-12 18:12:59; 7,7; 58; 0,0; 977,6243;1003,1875;4; 23,9; 23,9; 0,0; 0,0;247,5; 107,2
2020-03-12 18:23:00; 7,5; 58; -0,2; 977,6243;1003,1875;4; 23,9; 23,9; 0,0; 0,0;247,5; 107,2
2020-03-12 18:32:59; 7,3; 60; 0,0; 977,4368;1003,0000;4; 23,9; 23,9; 0,0; 0,0;247,5; 107,2
2020-03-12 18:43:00; 7,1; 61; 0,1; 977,4368;1003,0000;4; 23,8; 23,8; 0,0; 0,0;247,5; 107,2
2020-03-12 18:52:59; 7,0; 61; 0,0; 977,3118;1002,8750;4; 23,8; 23,8; 0,0; 0,0;247,5; 107,2
2020-03-12 19:03:00; 6,8; 61; -0,2; 977,3118;1002,8750;4; 23,8; 23,8; 0,0; 0,0;247,5; 107,2
2020-03-12 19:12:59; 6,7; 61; -0,3; 976,9993;1002,5625;4; 23,8; 23,8; 0,0; 0,0;247,5; 107,2
2020-03-12 19:23:00; 6,5; 61; -0,5; 976,9993;1002,5625;4; 23,8; 23,8; 0,0; 0,0;247,5; 107,2
2020-03-12 19:32:59; 6,4; 63; -0,1; 977,0618;1002,6250;4; 23,7; 23,7; 0,0; 0,0;247,5; 107,2
2020-03-12 19:42:59; 6,3; 64; 0,0; 977,0618;1002,6250;4; 23,7; 23,7; 0,0; 0,0;247,5; 107,2
2020-03-12 19:53:00; 6,3; 64; 0,0; 977,1868;1002,7500;4; 23,7; 23,7; 0,0; 0,0;247,5; 107,2
2020-03-12 20:02:59; 6,3; 65; 0,2; 977,1868;1002,7500;4; 23,6; 23,6; 0,0; 0,0;247,5; 107,2
2020-03-12 20:13:00; 6,2; 66; 0,3; 977,1868;1002,7500;4; 23,6; 23,6; 0,0; 0,0;247,5; 107,2
2020-03-12 20:22:59; 6,2; 67; 0,5; 977,1868;1002,7500;4; 23,6; 23,6; 0,0; 0,0;247,5; 107,2
2020-03-12 20:33:00; 6,2; 67; 0,5; 977,3118;1002,8750;4; 23,6; 23,6; 0,0; 0,0;247,5; 107,2
2020-03-12 20:42:59; 6,2; 67; 0,5; 977,3118;1002,8750;4; 23,6; 23,6; 0,0; 0,0;247,5; 107,2
2020-03-12 20:53:00; 6,3; 67; 0,6; 976,8118;1002,3750;4; 23,6; 23,6; 0,0; 0,0;247,5; 107,2
2020-03-12 21:02:59; 6,3; 67; 0,6; 976,8118;1002,3750;4; 23,6; 23,6; 0,0; 0,0;247,5; 107,2
2020-03-12 21:12:59; 6,4; 67; 0,7; 977,0618;1002,6250;4; 23,6; 23,6; 0,0; 0,0;247,5; 107,2
2020-03-12 21:23:00; 6,4; 66; 0,5; 977,0618;1002,6250;4; 23,6; 23,6; 0,0; 0,0;247,5; 107,2
2020-03-12 21:32:59; 6,5; 67; 0,8; 976,9993;1002,5625;4; 23,6; 23,6; 0,0; 0,0;247,5; 107,2
2020-03-12 21:43:00; 6,5; 68; 1,0; 976,9993;1002,5625;4; 23,6; 23,6; 0,0; 0,0;247,5; 107,2
2020-03-12 21:52:59; 6,6; 69; 1,3; 977,1243;1002,6875;4; 23,6; 23,6; 0,0; 0,0;247,5; 107,2
2020-03-12 22:03:00; 6,8; 70; 1,7; 977,1243;1002,6875;4; 23,6; 23,6; 0,0; 0,0;247,5; 107,2
2020-03-12 22:12:59; 7,1; 71; 2,2; 977,3743;1002,9375;4; 23,6; 23,6; 0,0; 0,0;247,5; 107,2
2020-03-12 22:23:00; 7,4; 71; 2,5; 977,3743;1002,9375;4; 23,6; 23,6; 0,0; 0,0;247,5; 107,2
2020-03-12 22:32:59; 7,5; 69; 2,2; 977,3118;1002,8750;4; 23,6; 23,6; 0,0; 0,0;247,5; 107,2
2020-03-12 22:42:59; 7,7; 68; 2,2; 977,3118;1002,8750;4; 23,5; 23,5; 0,0; 0,0;247,5; 107,2
2020-03-12 22:53:00; 7,7; 66; 1,7; 977,2493;1002,8125;4; 23,5; 23,5; 0,0; 0,0;247,5; 107,2
2020-03-12 23:02:59; 7,9; 64; 1,5; 977,2493;1002,8125;4; 23,6; 23,6; 0,0; 0,0;247,5; 107,2
2020-03-12 23:13:00; 8,1; 58; 0,3; 977,3118;1002,8750;4; 23,5; 23,5; 0,0; 0,0;247,5; 107,2
2020-03-12 23:22:59; 8,2; 57; 0,2; 977,3118;1002,8750;4; 23,5; 23,5; 0,0; 0,0;247,5; 107,2
2020-03-12 23:33:00; 8,1; 57; 0,1; 977,4993;1003,0625;4; 23,6; 23,6; 0,0; 0,0;247,5; 107,2
2020-03-12 23:42:59; 7,9; 58; 0,1; 977,4993;1003,0625;4; 23,5; 23,5; 0,0; 0,0;247,5; 107,2
2020-03-12 23:53:00; 7,5; 59; 0,0; 977,6868;1003,2500;4; 23,5; 23,5; 0,0; 0,0;247,5; 107,2
2020-03-13 00:02:59; 7,2; 60; 0,0; 977,6868;1003,2500;4; 23,6; 23,6; 0,0; 0,0;247,5; 107,2
2020-03-13 00:12:59; 6,9; 60; -0,3; 977,6243;1003,1875;4; 23,4; 23,4; 0,0; 0,0;247,5; 107,2
2020-03-13 00:23:00; 6,7; 60; -0,5; 977,6243;1003,1875;4; 23,4; 23,4; 0,0; 0,0;247,5; 107,2
2020-03-13 00:32:59; 6,5; 62; -0,3; 977,1868;1002,7500;4; 23,4; 23,4; 0,0; 0,0;247,5; 107,2
2020-03-13 00:43:00; 6,2; 63; -0,3; 977,1868;1002,7500;4; 23,4; 23,4; 0,0; 0,0;247,5; 107,2
2020-03-13 00:52:59; 6,0; 64; -0,3; 977,3118;1002,8750;4; 23,4; 23,4; 0,0; 0,0;247,5; 107,2
2020-03-13 01:03:00; 5,7; 64; -0,6; 977,3118;1002,8750;4; 23,4; 23,4; 0,0; 0,0;247,5; 107,2
2020-03-13 01:12:59; 5,5; 66; -0,3; 977,1868;1002,7500;4; 23,4; 23,4; 0,0; 0,0;247,5; 107,2
2020-03-13 01:23:00; 5,4; 66; -0,4; 977,1868;1002,7500;4; 23,4; 23,4; 0,0; 0,0;247,5; 107,2
2020-03-13 01:32:59; 5,4; 67; -0,2; 977,0618;1002,6250;4; 23,4; 23,4; 0,0; 0,0;247,5; 107,2
2020-03-13 01:42:59; 5,3; 66; -0,5; 977,0618;1002,6250;4; 23,4; 23,4; 0,0; 0,0;247,5; 107,2
2020-03-13 01:53:00; 5,3; 66; -0,5; 976,9368;1002,5000;4; 23,4; 23,4; 0,0; 0,0;247,5; 107,2
2020-03-13 02:02:59; 5,3; 66; -0,5; 976,9368;1002,5000;4; 23,4; 23,4; 0,0; 0,0;247,5; 107,2
2020-03-13 02:13:00; 5,4; 67; -0,2; 976,7493;1002,3125;4; 23,4; 23,4; 0,0; 0,0;247,5; 107,2
2020-03-13 02:22:59; 5,5; 68; 0,1; 976,7493;1002,3125;4; 23,4; 23,4; 0,0; 0,0;247,5; 107,2
2020-03-13 02:33:00; 5,6; 68; 0,2; 976,8118;1002,3750;4; 23,4; 23,4; 0,0; 0,0;247,5; 107,2
2020-03-13 02:42:59; 5,8; 68; 0,4; 976,8118;1002,3750;4; 23,4; 23,4; 0,0; 0,0;247,5; 107,2
2020-03-13 02:53:00; 6,0; 69; 0,7; 976,8743;1002,4375;4; 23,4; 23,4; 0,0; 0,0;247,5; 107,2
2020-03-13 03:02:59; 6,3; 69; 1,0; 976,8743;1002,4375;4; 23,4; 23,4; 0,0; 0,0;247,5; 107,2
2020-03-13 03:12:59; 6,3; 68; 0,8; 976,7493;1002,3125;4; 23,4; 23,4; 0,0; 0,0;247,5; 107,2
2020-03-13 03:23:00; 6,5; 68; 1,0; 976,7493;1002,3125;4; 23,4; 23,4; 0,0; 0,0;247,5; 107,2
2020-03-13 03:32:59; 6,6; 68; 1,1; 976,6868;1002,2500;4; 23,4; 23,4; 0,0; 0,0;247,5; 107,2
2020-03-13 03:43:00; 6,6; 67; 0,9; 976,6868;1002,2500;4; 23,4; 23,4; 0,0; 0,0;247,5; 107,2
2020-03-13 03:52:59; 6,4; 64; 0,1; 976,9993;1002,5625;4; 23,4; 23,4; 0,0; 0,0;247,5; 107,2
2020-03-13 04:03:00; 6,1; 63; -0,4; 976,9993;1002,5625;4; 23,3; 23,3; 0,0; 0,0;247,5; 107,2
2020-03-13 04:12:59; 5,9; 63; -0,6; 977,1868;1002,7500;4; 23,3; 23,3; 0,0; 0,0;247,5; 107,2
2020-03-13 04:23:00; 5,6; 65; -0,5; 977,1868;1002,7500;4; 23,3; 23,3; 0,0; 0,0;247,5; 107,2
2020-03-13 04:32:59; 5,4; 66; -0,4; 977,4368;1003,0000;4; 23,3; 23,3; 0,0; 0,0;247,5; 107,2
2020-03-13 04:42:59; 5,2; 67; -0,4; 977,4368;1003,0000;4; 23,2; 23,2; 0,0; 0,0;247,5; 107,2
2020-03-13 04:53:00; 5,1; 67; -0,5; 977,4993;1003,0625;4; 23,2; 23,2; 0,0; 0,0;247,5; 107,2
2020-03-13 05:02:59; 5,0; 68; -0,4; 977,4993;1003,0625;4; 23,2; 23,2; 0,0; 0,0;247,5; 107,2
2020-03-13 05:13:00; 5,0; 67; -0,6; 977,6243;1003,1875;4; 23,2; 23,2; 0,0; 0,0;247,5; 107,2
2020-03-13 05:22:59; 4,9; 67; -0,7; 977,6243;1003,1875;4; 23,2; 23,2; 0,0; 0,0;247,5; 107,2
2020-03-13 05:33:00; 4,8; 68; -0,6; 977,8118;1003,3750;5; 23,2; 23,2; 0,0; 0,0;247,5; 107,2
2020-03-13 05:42:59; 4,7; 68; -0,7; 977,8118;1003,3750;5; 23,2; 23,2; 0,0; 0,0;247,5; 107,2
2020-03-13 05:53:00; 4,7; 68; -0,7; 977,6868;1003,2500;5; 23,2; 23,2; 0,0; 0,0;247,5; 107,2
2020-03-13 06:02:59; 4,6; 68; -0,8; 977,6868;1003,2500;5; 23,2; 23,2; 0,0; 0,0;247,5; 107,2
2020-03-13 06:12:59; 4,6; 68; -0,8; 977,8743;1003,4375;5; 23,2; 23,2; 0,0; 0,0;247,5; 107,2
2020-03-13 06:23:00; 4,7; 68; -0,7; 977,8743;1003,4375;5; 23,2; 23,2; 0,0; 0,0;247,5; 107,2
2020-03-13 06:32:59; 4,8; 67; -0,8; 978,0618;1003,6250;5; 23,2; 23,2; 0,0; 0,0;247,5; 107,2
2020-03-13 06:43:00; 4,9; 66; -0,9; 978,0618;1003,6250;5; 23,2; 23,2; 0,0; 0,0;247,5; 107,2
2020-03-13 06:52:59; 5,2; 65; -0,8; 978,1868;1003,7500;5; 23,2; 23,2; 0,0; 0,0;247,5; 107,2
2020-03-13 07:03:00; 5,7; 63; -0,8; 978,1868;1003,7500;5; 23,3; 23,3; 0,0; 0,0;247,5; 107,2
2020-03-13 07:12:59; 6,3; 62; -0,4; 978,1243;1003,6875;5; 23,4; 23,4; 0,0; 0,0;247,5; 107,2
2020-03-13 07:23:00; 6,7; 60; -0,5; 978,1243;1003,6875;5; 23,9; 23,9; 0,0; 0,0;247,5; 107,2
2020-03-13 07:32:59; 7,2; 58; -0,5; 978,6243;1004,1875;5; 24,3; 24,3; 0,0; 0,0;247,5; 107,2
2020-03-13 07:42:59; 7,6; 56; -0,6; 978,6243;1004,1875;5; 24,4; 24,4; 0,0; 0,0;247,5; 107,2
2020-03-13 07:53:00; 7,9; 55; -0,6; 978,8743;1004,4375;5; 24,9; 24,9; 0,0; 0,0;247,5; 107,2
2020-03-13 08:02:59; 8,1; 55; -0,4; 978,8743;1004,4375;5; 25,5; 25,5; 0,0; 0,0;247,5; 107,2
2020-03-13 08:13:00; 8,4; 53; -0,6; 979,6243;1005,1875;5; 26,0; 26,0; 0,0; 0,0;247,5; 107,2
2020-03-13 08:22:59; 7,9; 53; -1,1; 979,6243;1005,1875;5; 26,2; 26,2; 0,0; 0,0;247,5; 107,2
2020-03-13 08:33:00; 8,5; 54; -0,3; 980,1243;1005,6875;5; 26,4; 26,4; 0,0; 0,0;247,5; 107,2
2020-03-13 08:42:59; 8,7; 53; -0,4; 980,1243;1005,6875;5; 26,7; 26,7; 0,0; 0,0;247,5; 107,2
2020-03-13 08:53:00; 8,8; 52; -0,5; 979,8743;1005,4375;5; 27,2; 27,2; 0,0; 0,0;247,5; 107,2
2020-03-13 09:02:59; 9,3; 51; -0,3; 979,8743;1005,4375;5; 27,4; 27,4; 0,0; 0,0;247,5; 107,2
2020-03-13 09:12:59; 9,4; 51; -0,2; 980,1243;1005,6875;5; 27,5; 27,5; 0,0; 0,0;247,5; 107,2
2020-03-13 09:23:00; 9,4; 51; -0,2; 980,1243;1005,6875;5; 27,6; 27,6; 0,0; 0,0;247,5; 107,2
2020-03-13 09:32:59; 9,7; 51; 0,0; 979,9993;1005,5625;5; 27,4; 27,4; 0,0; 0,0;247,5; 107,2
2020-03-13 09:43:00; 10,1; 50; 0,1; 979,9993;1005,5625;5; 27,4; 27,4; 0,0; 0,0;247,5; 107,2
2020-03-13 09:52:59; 10,3; 49; 0,0; 979,7493;1005,3125;5; 27,5; 27,5; 0,0; 0,0;247,5; 107,2
2020-03-13 10:03:00; 10,1; 48; -0,4; 979,7493;1005,3125;5; 27,6; 27,6; 0,0; 0,0;247,5; 107,2
2020-03-13 10:12:59; 10,4; 49; 0,1; 979,6243;1005,1875;5; 27,3; 27,3; 0,0; 0,0;247,5; 107,2
2020-03-13 10:23:00; 10,3; 48; -0,2; 979,6243;1005,1875;5; 27,0; 27,0; 0,0; 0,0;247,5; 107,2
2020-03-13 10:32:59; 10,6; 47; -0,2; 979,4993;1005,0625;5; 26,9; 26,9; 0,0; 0,0;247,5; 107,2
2020-03-13 10:42:59; 11,1; 47; 0,2; 979,4993;1005,0625;5; 26,8; 26,8; 0,0; 0,0;247,5; 107,2
2020-03-13 10:53:00; 10,9; 47; 0,0; 979,3118;1004,8750;5; 26,8; 26,8; 0,0; 0,0;247,5; 107,2
2020-03-13 11:02:59; 11,1; 47; 0,2; 979,3118;1004,8750;5; 26,8; 26,8; 0,0; 0,0;247,5; 107,2
2020-03-13 11:13:00; 10,5; 48; -0,1; 979,6868;1005,2500;5; 26,6; 26,6; 0,0; 0,0;247,5; 107,2
2020-03-13 11:22:59; 10,1; 49; -0,1; 979,6868;1005,2500;5; 26,4; 26,4; 0,0; 0,0;247,5; 107,2
2020-03-13 11:33:00; 10,1; 50; 0,1; 979,9368;1005,5000;5; 26,1; 26,1; 0,0; 0,0;247,5; 107,2
2020-03-13 11:42:59; 10,5; 48; -0,1; 979,9368;1005,5000;5; 26,0; 26,0; 0,0; 0,0;247,5; 107,2
2020-03-13 11:53:00; 10,0; 49; -0,2; 980,1243;1005,6875;5; 25,8; 25,8; 0,0; 0,0;247,5; 107,2
2020-03-13 12:02:59; 10,1; 50; 0,1; 980,1243;1005,6875;5; 25,6; 25,6; 0,0; 0,0;247,5; 107,2
2020-03-13 12:12:59; 9,9; 50; 0,0; 980,0618;1005,6250;5; 25,4; 25,4; 0,0; 0,0;247,5; 107,2
2020-03-13 12:23:00; 9,3; 51; -0,3; 980,0618;1005,6250;5; 25,2; 25,2; 0,0; 0,0;247,5; 107,2
2020-03-13 12:32:59; 10,2; 51; 0,5; 981,4993;1007,0625;5; 25,2; 25,2; 0,0; 0,0;247,5; 107,2
2020-03-13 12:43:00; 10,9; 48; 0,3; 981,4993;1007,0625;5; 25,3; 25,3; 0,0; 0,0;247,5; 107,2
2020-03-13 12:52:59; 10,3; 48; -0,2; 981,1243;1006,6875;5; 25,3; 25,3; 0,0; 0,0;247,5; 107,2
2020-03-13 13:03:00; 10,3; 47; -0,5; 981,1243;1006,6875;5; 25,2; 25,2; 0,0; 0,0;247,5; 107,2
2020-03-13 13:12:59; 10,1; 48; -0,4; 980,4368;1006,0000;5; 25,0; 25,0; 0,0; 0,0;247,5; 107,2
2020-03-13 13:23:00; 9,9; 52; 0,5; 980,4368;1006,0000;5; 24,9; 24,9; 0,0; 0,0;247,5; 107,2
2020-03-13 13:32:59; 9,5; 53; 0,4; 979,8743;1005,4375;5; 24,7; 24,7; 0,0; 0,0;247,5; 107,2
2020-03-13 13:42:59; 9,4; 54; 0,6; 979,8743;1005,4375;5; 24,5; 24,5; 0,0; 0,0;247,5; 107,2
2020-03-13 13:53:00; 10,3; 51; 0,6; 979,4993;1005,0625;5; 24,6; 24,6; 0,0; 0,0;247,5; 107,2
2020-03-13 14:02:59; 10,3; 50; 0,3; 979,4993;1005,0625;5; 24,7; 24,7; 0,0; 0,0;247,5; 107,2
2020-03-13 14:13:00; 10,3; 49; 0,0; 979,6868;1005,2500;5; 24,7; 24,7; 0,0; 0,0;247,5; 107,2
2020-03-13 14:22:59; 9,9; 51; 0,2; 979,6868;1005,2500;5; 24,6; 24,6; 0,0; 0,0;247,5; 107,2
2020-03-13 14:33:00; 9,5; 52; 0,1; 979,6243;1005,1875;5; 24,4; 24,4; 0,0; 0,0;247,5; 107,2
2020-03-13 14:42:59; 9,2; 52; -0,1; 979,6243;1005,1875;5; 24,3; 24,3; 0,0; 0,0;247,5; 107,2
2020-03-13 14:53:00; 9,3; 54; 0,5; 979,5618;1005,1250;5; 24,3; 24,3; 0,0; 0,0;247,5; 107,2
2020-03-13 15:02:59; 9,2; 53; 0,1; 979,5618;1005,1250;5; 24,2; 24,2; 0,0; 0,0;247,5; 107,2
2020-03-13 15:12:59; 9,3; 52; -0,1; 979,3743;1004,9375;5; 24,2; 24,2; 0,0; 0,0;247,5; 107,2
2020-03-13 15:23:00; 9,4; 52; 0,0; 979,3743;1004,9375;5; 24,2; 24,2; 0,0; 0,0;247,5; 107,2
2020-03-13 15:32:59; 9,2; 52; -0,1; 979,6868;1005,2500;5; 24,1; 24,1; 0,0; 0,0;247,5; 107,2
2020-03-13 15:43:00; 9,1; 53; 0,0; 979,6868;1005,2500;5; 24,0; 24,0; 0,0; 0,0;247,5; 107,2
2020-03-13 15:52:59; 9,0; 53; -0,1; 979,1868;1004,7500;5; 24,0; 24,0; 0,0; 0,0;247,5; 107,2
2020-03-13 16:03:00; 8,9; 53; -0,2; 979,1868;1004,7500;5; 23,9; 23,9; 0,0; 0,0;247,5; 107,2
2020-03-13 16:12:59; 9,0; 54; 0,2; 979,3118;1004,8750;5; 23,8; 23,8; 0,0; 0,0;247,5; 107,2
2020-03-13 16:23:00; 8,9; 53; -0,2; 979,3118;1004,8750;5; 23,8; 23,8; 0,0; 0,0;247,5; 107,2
2020-03-13 16:32:59; 8,8; 54; 0,0; 979,6243;1005,1875;5; 23,8; 23,8; 0,0; 0,0;247,5; 107,2
2020-03-13 16:42:59; 8,7; 53; -0,4; 979,6243;1005,1875;5; 23,7; 23,7; 0,0; 0,0;247,5; 107,2
2020-03-13 16:53:00; 8,6; 54; -0,2; 979,9993;1005,5625;5; 23,6; 23,6; 0,0; 0,0;247,5; 107,2
2020-03-13 17:02:59; 8,0; 62; 1,2; 979,9993;1005,5625;5; 23,6; 23,6; 0,0; 0,0;247,5; 107,2
2020-03-13 17:13:00; 7,5; 63; 0,9; 980,1243;1005,6875;5; 23,6; 23,6; 0,0; 0,0;247,5; 107,2
2020-03-13 17:22:59; 7,6; 62; 0,8; 980,1243;1005,6875;5; 23,6; 23,6; 0,0; 0,0;247,5; 107,2
2020-03-13 17:33:00; 6,3; 73; 1,8; 980,8743;1006,4375;5; 23,6; 23,6; 0,0; 0,0;247,5; 107,2
2020-03-13 17:42:59; 5,9; 75; 1,8; 980,8743;1006,4375;5; 23,5; 23,5; 0,0; 0,0;247,5; 107,2
2020-03-13 17:53:00; 5,9; 76; 2,0; 980,8118;1006,3750;5; 23,6; 23,6; 0,0; 0,0;247,5; 107,2
2020-03-13 18:02:59; 5,9; 76; 2,0; 980,8118;1006,3750;5; 23,5; 23,5; 0,0; 0,0;247,5; 107,2
2020-03-13 18:12:59; 6,1; 73; 1,6; 980,6243;1006,1875;5; 23,4; 23,4; 0,0; 0,0;247,5; 107,2
2020-03-13 18:23:00; 6,1; 71; 1,2; 980,6243;1006,1875;5; 23,4; 23,4; 0,0; 0,0;247,5; 107,2
2020-03-13 18:32:59; 6,1; 72; 1,4; 980,8118;1006,3750;5; 23,4; 23,4; 0,0; 0,0;247,5; 107,2
2020-03-13 18:43:00; 6,2; 73; 1,7; 980,8118;1006,3750;5; 23,4; 23,4; 0,0; 0,0;247,5; 107,2
2020-03-13 18:52:59; 6,2; 73; 1,7; 981,1868;1006,7500;5; 23,4; 23,4; 0,0; 0,0;247,5; 107,2
2020-03-13 19:03:00; 5,9; 74; 1,6; 981,1868;1006,7500;5; 23,4; 23,4; 0,0; 0,0;247,5; 107,2
2020-03-13 19:12:59; 5,5; 76; 1,6; 981,3118;1006,8750;5; 23,4; 23,4; 0,0; 0,0;247,5; 107,2
2020-03-13 19:23:00; 5,5; 76; 1,6; 981,3118;1006,8750;5; 23,3; 23,3; 0,0; 0,0;247,5; 107,2
2020-03-13 19:32:59; 5,5; 76; 1,6; 981,6868;1007,2500;5; 23,3; 23,3; 0,0; 0,0;247,5; 107,2
2020-03-13 19:42:59; 5,4; 76; 1,5; 981,6868;1007,2500;5; 23,3; 23,3; 0,0; 0,0;247,5; 107,2
2020-03-13 19:53:00; 5,5; 76; 1,6; 981,6868;1007,2500;5; 23,3; 23,3; 0,0; 0,0;247,5; 107,2
2020-03-13 20:02:59; 5,4; 76; 1,5; 981,6868;1007,2500;5; 23,3; 23,3; 0,0; 0,0;247,5; 107,2
2020-03-13 20:13:00; 5,5; 75; 1,4; 981,9993;1007,5625;5; 23,3; 23,3; 0,0; 0,0;247,5; 107,2
2020-03-13 20:22:59; 5,5; 76; 1,6; 981,9993;1007,5625;5; 23,2; 23,2; 0,0; 0,0;247,5; 107,2
2020-03-13 20:33:00; 5,3; 76; 1,4; 982,1868;1007,7500;5; 23,2; 23,2; 0,0; 0,0;247,5; 107,2
2020-03-13 20:42:59; 5,2; 77; 1,5; 982,1868;1007,7500;5; 23,2; 23,2; 0,0; 0,0;247,5; 107,2
2020-03-13 20:53:00; 5,1; 77; 1,4; 982,6868;1008,2500;5; 23,2; 23,2; 0,0; 0,0;247,5; 107,2
2020-03-13 21:02:59; 5,1; 77; 1,4; 982,6868;1008,2500;5; 23,2; 23,2; 0,0; 0,0;247,5; 107,2
2020-03-13 21:12:59; 5,1; 77; 1,4; 982,6243;1008,1875;5; 23,2; 23,2; 0,0; 0,0;247,5; 107,2
2020-03-13 21:23:00; 5,0; 78; 1,5; 982,6243;1008,1875;5; 23,2; 23,2; 0,0; 0,0;247,5; 107,2
2020-03-13 21:32:59; 4,9; 78; 1,4; 982,8118;1008,3750;5; 23,2; 23,2; 0,0; 0,0;247,5; 107,2
2020-03-13 21:43:00; 4,9; 78; 1,4; 982,8118;1008,3750;5; 23,2; 23,2; 0,0; 0,0;247,5; 107,2
2020-03-13 21:52:59; 4,9; 78; 1,4; 982,9993;1008,5625;5; 23,2; 23,2; 0,0; 0,0;247,5; 107,2
2020-03-13 22:03:00; 4,8; 77; 1,1; 982,9993;1008,5625;5; 23,2; 23,2; 0,0; 0,0;247,5; 107,2
2020-03-13 22:12:59; 4,8; 78; 1,3; 982,9993;1008,5625;5; 23,2; 23,2; 0,0; 0,0;247,5; 107,2
2020-03-13 22:23:00; 4,7; 78; 1,2; 982,9993;1008,5625;5; 23,2; 23,2; 0,0; 0,0;247,5; 107,2
2020-03-13 22:32:59; 4,8; 77; 1,1; 983,3118;1008,8750;5; 23,2; 23,2; 0,0; 0,0;247,5; 107,2
2020-03-13 22:42:59; 4,8; 77; 1,1; 983,3118;1008,8750;5; 23,2; 23,2; 0,0; 0,0;247,5; 107,2
2020-03-13 22:53:00; 4,7; 77; 1,0; 983,4368;1009,0000;6; 23,2; 23,2; 0,0; 0,0;247,5; 107,2
2020-03-13 23:02:59; 4,7; 78; 1,2; 983,4368;1009,0000;6; 23,2; 23,2; 0,0; 0,0;247,5; 107,2
2020-03-13 23:13:00; 4,7; 78; 1,2; 983,7493;1009,3125;6; 23,2; 23,2; 0,0; 0,0;247,5; 107,2
2020-03-13 23:22:59; 4,7; 78; 1,2; 983,7493;1009,3125;6; 23,2; 23,2; 0,0; 0,0;247,5; 107,2
2020-03-13 23:33:00; 4,7; 78; 1,2; 983,9368;1009,5000;6; 23,2; 23,2; 0,0; 0,0;247,5; 107,2
2020-03-13 23:42:59; 4,7; 78; 1,2; 983,9368;1009,5000;6; 23,2; 23,2; 0,0; 0,0;247,5; 107,2
2020-03-13 23:53:00; 4,7; 79; 1,4; 984,1868;1009,7500;6; 23,2; 23,2; 0,0; 0,0;247,5; 107,2
2020-03-14 00:02:59; 4,7; 78; 1,2; 984,1868;1009,7500;6; 23,2; 23,2; 0,0; 0,0;247,5; 107,2
2020-03-14 00:12:59; 4,7; 78; 1,2; 984,4368;1010,0000;6; 23,2; 23,2; 0,0; 0,0;247,5; 107,2
2020-03-14 00:23:00; 4,7; 78; 1,2; 984,4368;1010,0000;6; 23,1; 23,1; 0,0; 0,0;247,5; 107,2
2020-03-14 00:32:59; 4,6; 78; 1,1; 984,6868;1010,2500;6; 23,1; 23,1; 0,0; 0,0;247,5; 107,2
2020-03-14 00:43:00; 4,6; 79; 1,3; 984,6868;1010,2500;6; 23,2; 23,2; 0,0; 0,0;247,5; 107,2
2020-03-14 00:52:59; 4,5; 79; 1,2; 984,8118;1010,3750;6; 23,2; 23,2; 0,0; 0,0;247,5; 107,2
2020-03-14 01:03:00; 4,5; 79; 1,2; 984,8118;1010,3750;6; 23,1; 23,1; 0,0; 0,0;247,5; 107,2
2020-03-14 01:12:59; 4,5; 79; 1,2; 984,9993;1010,5625;6; 23,2; 23,2; 0,0; 0,0;247,5; 107,2
2020-03-14 01:23:00; 4,5; 79; 1,2; 984,9993;1010,5625;6; 23,2; 23,2; 0,0; 0,0;247,5; 107,2
2020-03-14 01:32:59; 4,5; 79; 1,2; 985,0618;1010,6250;6; 23,2; 23,2; 0,0; 0,0;247,5; 107,2
2020-03-14 01:42:59; 4,4; 77; 0,7; 985,0618;1010,6250;6; 23,2; 23,2; 0,0; 0,0;247,5; 107,2
2020-03-14 01:53:00; 4,3; 74; 0,1; 985,1243;1010,6875;6; 23,2; 23,2; 0,0; 0,0;247,5; 107,2
2020-03-14 02:02:59; 4,1; 74; -0,1; 985,1243;1010,6875;6; 23,2; 23,2; 0,0; 0,0;247,5; 107,2
2020-03-14 02:13:00; 4,0; 74; -0,2; 985,2493;1010,8125;6; 23,2; 23,2; 0,0; 0,0;247,5; 107,2
2020-03-14 02:22:59; 3,9; 75; -0,1; 985,2493;1010,8125;6; 23,2; 23,2; 0,0; 0,0;247,5; 107,2
2020-03-14 02:33:00; 3,7; 75; -0,3; 985,3743;1010,9375;6; 23,2; 23,2; 0,0; 0,0;247,5; 107,2
2020-03-14 02:42:59; 3,5; 76; -0,3; 985,3743;1010,9375;6; 23,2; 23,2; 0,0; 0,0;247,5; 107,2
2020-03-14 02:53:00; 3,3; 77; -0,3; 985,4368;1011,0000;6; 23,1; 23,1; 0,0; 0,0;247,5; 107,2
2020-03-14 03:02:59; 3,2; 77; -0,4; 985,4368;1011,0000;6; 23,2; 23,2; 0,0; 0,0;247,5; 107,2
2020-03-14 03:12:59; 3,1; 77; -0,5; 985,6243;1011,1875;6; 23,2; 23,2; 0,0; 0,0;247,5; 107,2
2020-03-14 03:23:00; 3,0; 77; -0,6; 985,6243;1011,1875;6; 23,1; 23,1; 0,0; 0,0;247,5; 107,2
2020-03-14 03:32:59; 2,7; 77; -0,9; 985,6243;1011,1875;6; 23,1; 23,1; 0,0; 0,0;247,5; 107,2
2020-03-14 03:43:00; 2,5; 76; -1,3; 985,6243;1011,1875;6; 23,1; 23,1; 0,0; 0,0;247,5; 107,2
2020-03-14 03:52:59; 2,3; 76; -1,5; 985,8743;1011,4375;6; 23,1; 23,1; 0,0; 0,0;247,5; 107,2
2020-03-14 04:03:00; 2,1; 77; -1,5; 985,8743;1011,4375;6; 23,1; 23,1; 0,0; 0,0;247,5; 107,2
2020-03-14 04:12:59; 2,0; 78; -1,4; 985,9368;1011,5000;6; 23,1; 23,1; 0,0; 0,0;247,5; 107,2
2020-03-14 04:23:00; 1,8; 78; -1,6; 985,9368;1011,5000;6; 23,1; 23,1; 0,0; 0,0;247,5; 107,2
2020-03-14 04:32:59; 1,8; 78; -1,6; 986,1243;1011,6875;6; 23,1; 23,1; 0,0; 0,0;247,5; 107,2
2020-03-14 04:42:59; 1,7; 77; -1,9; 986,1243;1011,6875;6; 23,1; 23,1; 0,0; 0,0;247,5; 107,2
2020-03-14 04:53:00; 1,5; 77; -2,1; 986,3118;1011,8750;6; 23,0; 23,0; 0,0; 0,0;247,5; 107,2
2020-03-14 05:02:59; 1,3; 77; -2,3; 986,3118;1011,8750;6; 23,0; 23,0; 0,0; 0,0;247,5; 107,2
2020-03-14 05:13:00; 1,4; 77; -2,2; 986,4368;1012,0000;6; 23,0; 23,0; 0,0; 0,0;247,5; 107,2
2020-03-14 05:22:59; 1,4; 77; -2,2; 986,4368;1012,0000;6; 23,0; 23,0; 0,0; 0,0;247,5; 107,2
2020-03-14 05:33:00; 1,2; 77; -2,4; 986,5618;1012,1250;6; 23,1; 23,1; 0,0; 0,0;247,5; 107,2
2020-03-14 05:42:59; 1,1; 77; -2,5; 986,5618;1012,1250;6; 23,0; 23,0; 0,0; 0,0;247,5; 107,2
2020-03-14 05:53:00; 1,1; 77; -2,5; 986,6868;1012,2500;6; 23,1; 23,1; 0,0; 0,0;247,5; 107,2
2020-03-14 06:02:59; 1,1; 77; -2,5; 986,6868;1012,2500;6; 23,1; 23,1; 0,0; 0,0;247,5; 107,2
2020-03-14 06:12:59; 1,2; 77; -2,4; 986,9368;1012,5000;6; 23,1; 23,1; 0,0; 0,0;247,5; 107,2
2020-03-14 06:23:00; 1,4; 78; -2,0; 986,9368;1012,5000;6; 23,2; 23,2; 0,0; 0,0;247,5; 107,2
2020-03-14 06:32:59; 1,4; 78; -2,0; 987,1868;1012,7500;6; 23,2; 23,2; 0,0; 0,0;247,5; 107,2
2020-03-14 06:43:00; 1,6; 77; -2,0; 987,1868;1012,7500;6; 23,2; 23,2; 0,0; 0,0;247,5; 107,2
2020-03-14 06:52:59; 1,8; 77; -1,8; 987,4993;1013,0625;6; 23,2; 23,2; 0,0; 0,0;247,5; 107,2
2020-03-14 07:03:00; 2,3; 77; -1,3; 987,4993;1013,0625;6; 23,2; 23,2; 0,0; 0,0;247,5; 107,2
2020-03-14 07:12:59; 3,1; 75; -0,9; 987,8743;1013,4375;6; 23,6; 23,6; 0,0; 0,0;247,5; 107,2
2020-03-14 07:23:00; 3,9; 73; -0,5; 987,8743;1013,4375;6; 24,0; 24,0; 0,0; 0,0;247,5; 107,2
2020-03-14 07:32:59; 4,5; 69; -0,7; 988,1868;1013,7500;6; 24,4; 24,4; 0,0; 0,0;247,5; 107,2
2020-03-14 07:42:59; 4,9; 66; -0,9; 988,1868;1013,7500;6; 24,5; 24,5; 0,0; 0,0;247,5; 107,2
2020-03-14 07:53:00; 5,3; 65; -0,7; 988,9993;1014,5625;6; 24,8; 24,8; 0,0; 0,0;247,5; 107,2
2020-03-14 08:02:59; 5,5; 63; -1,0; 988,9993;1014,5625;6; 25,4; 25,4; 0,0; 0,0;247,5; 107,2
2020-03-14 08:13:00; 5,9; 62; -0,8; 989,3743;1014,9375;6; 26,0; 26,0; 0,0; 0,0;247,5; 107,2
2020-03-14 08:22:59; 6,3; 61; -0,7; 989,3743;1014,9375;6; 26,5; 26,5; 0,0; 0,0;247,5; 107,2
2020-03-14 08:33:00; 6,3; 59; -1,1; 989,4993;1015,0625;6; 26,9; 26,9; 0,0; 0,0;247,5; 107,2
2020-03-14 08:42:59; 6,9; 59; -0,6; 989,4993;1015,0625;6; 27,3; 27,3; 0,0; 0,0;247,5; 107,2
2020-03-14 08:53:00; 7,2; 58; -0,5; 989,7493;1015,3125;6; 27,5; 27,5; 0,0; 0,0;247,5; 107,2
2020-03-14 09:02:59; 7,7; 55; -0,8; 989,7493;1015,3125;6; 27,7; 27,7; 0,0; 0,0;247,5; 107,2
2020-03-14 09:12:59; 8,0; 53; -1,0; 989,9368;1015,5000;6; 27,9; 27,9; 0,0; 0,0;247,5; 107,2
2020-03-14 09:23:00; 8,5; 50; -1,3; 989,9368;1015,5000;6; 28,0; 28,0; 0,0; 0,0;247,5; 107,2
2020-03-14 09:32:59; 8,2; 52; -1,1; 989,9993;1015,5625;6; 28,0; 28,0; 0,0; 0,0;247,5; 107,2
2020-03-14 09:43:00; 8,8; 49; -1,3; 989,9993;1015,5625;6; 28,1; 28,1; 0,0; 0,0;247,5; 107,2
2020-03-14 09:52:59; 9,2; 48; -1,2; 990,0618;1015,6250;6; 28,2; 28,2; 0,0; 0,0;247,5; 107,2
2020-03-14 10:03:00; 8,9; 47; -1,8; 990,0618;1015,6250;6; 28,1; 28,1; 0,0; 0,0;247,5; 107,2
2020-03-14 10:12:59; 8,8; 46; -2,2; 990,2493;1015,8125;6; 27,9; 27,9; 0,0; 0,0;247,5; 107,2
2020-03-14 10:23:00; 8,0; 47; -2,6; 990,2493;1015,8125;6; 27,2; 27,2; 0,0; 0,0;247,5; 107,2
2020-03-14 10:32:59; 8,8; 48; -1,6; 989,9368;1015,5000;6; 27,0; 27,0; 0,0; 0,0;247,5; 107,2
2020-03-14 10:42:59; 9,4; 47; -1,3; 989,9368;1015,5000;6; 27,0; 27,0; 0,0; 0,0;247,5; 107,2
2020-03-14 10:53:00; 10,2; 46; -0,9; 990,2493;1015,8125;6; 27,0; 27,0; 0,0; 0,0;247,5; 107,2
2020-03-14 11:02:59; 9,6; 43; -2,4; 990,2493;1015,8125;6; 27,0; 27,0; 0,0; 0,0;247,5; 107,2
2020-03-14 11:13:00; 10,4; 45; -1,0; 990,6243;1016,1875;6; 27,1; 27,1; 0,0; 0,0;247,5; 107,2
2020-03-14 11:22:59; 10,8; 42; -1,6; 990,6243;1016,1875;6; 27,2; 27,2; 0,0; 0,0;247,5; 107,2
2020-03-14 11:33:00; 10,7; 44; -1,1; 991,5618;1017,1250;6; 27,3; 27,3; 0,0; 0,0;247,5; 107,2
2020-03-14 11:42:59; 11,0; 41; -1,8; 991,5618;1017,1250;6; 27,3; 27,3; 0,0; 0,0;247,5; 107,2
2020-03-14 11:53:00; 10,7; 41; -2,0; 995,1243;1020,6875;6; 27,3; 27,3; 0,0; 0,0;247,5; 107,2
2020-03-14 12:02:59; 10,1; 43; -1,9; 995,1243;1020,6875;6; 27,3; 27,3; 0,0; 0,0;247,5; 107,2
2020-03-14 12:12:59; 10,5; 43; -1,6; 995,6868;1021,2500;6; 27,1; 27,1; 0,0; 0,0;247,5; 107,2
2020-03-14 12:23:00; 10,7; 43; -1,4; 995,6868;1021,2500;6; 27,0; 27,0; 0,0; 0,0;247,5; 107,2
2020-03-14 12:32:59; 10,5; 43; -1,6; 994,3743;1019,9375;6; 26,9; 26,9; 0,0; 0,0;247,5; 107,2
2020-03-14 12:43:00; 10,9; 41; -1,8; 994,3743;1019,9375;6; 26,8; 26,8; 0,0; 0,0;247,5; 107,2
2020-03-14 12:52:59; 10,6; 40; -2,4; 992,3743;1017,9375;6; 26,6; 26,6; 0,0; 0,0;247,5; 107,2
2020-03-14 13:03:00; 10,7; 42; -1,7; 992,3743;1017,9375;6; 26,5; 26,5; 0,0; 0,0;247,5; 107,2
2020-03-14 13:12:59; 11,0; 41; -1,8; 990,9368;1016,5000;5; 26,4; 26,4; 0,0; 0,0;247,5; 107,2
2020-03-14 13:23:00; 11,1; 40; -2,0; 990,9368;1016,5000;5; 26,2; 26,2; 0,0; 0,0;247,5; 107,2
2020-03-14 13:32:59; 11,0; 41; -1,8; 989,9368;1015,5000;5; 26,1; 26,1; 0,0; 0,0;247,5; 107,2
2020-03-14 13:42:59; 11,4; 40; -1,7; 989,9368;1015,5000;5; 26,0; 26,0; 0,0; 0,0;247,5; 107,2
2020-03-14 13:53:00; 11,4; 39; -2,1; 989,6868;1015,2500;4; 25,8; 25,8; 0,0; 0,0;247,5; 107,2
2020-03-14 14:02:59; 11,1; 39; -2,3; 989,6868;1015,2500;4; 25,7; 25,7; 0,0; 0,0;247,5; 107,2
2020-03-14 14:13:00; 11,3; 39; -2,2; 989,4368;1015,0000;3; 25,6; 25,6; 0,0; 0,0;247,5; 107,2
2020-03-14 14:22:59; 10,9; 38; -2,9; 989,4368;1015,0000;3; 25,5; 25,5; 0,0; 0,0;247,5; 107,2
2020-03-14 14:33:00; 10,3; 36; -4,1; 989,3118;1014,8750;3; 25,5; 25,5; 0,0; 0,0;247,5; 107,2
2020-03-14 14:42:59; 10,8; 37; -3,3; 989,3118;1014,8750;3; 25,3; 25,3; 0,0; 0,0;247,5; 107,2
2020-03-14 14:53:00; 10,9; 36; -3,6; 988,9993;1014,5625;3; 25,3; 25,3; 0,0; 0,0;247,5; 107,2
2020-03-14 15:02:59; 10,9; 37; -3,2; 988,9993;1014,5625;3; 25,2; 25,2; 0,0; 0,0;247,5; 107,2
2020-03-14 15:12:59; 10,7; 37; -3,4; 988,8743;1014,4375;3; 25,1; 25,1; 0,0; 0,0;247,5; 107,2
2020-03-14 15:23:00; 10,2; 37; -3,9; 988,8743;1014,4375;3; 25,0; 25,0; 0,0; 0,0;247,5; 107,2
2020-03-14 15:32:59; 9,7; 36; -4,7; 988,9368;1014,5000;3; 24,9; 24,9; 0,0; 0,0;247,5; 107,2
2020-03-14 15:43:00; 9,5; 39; -3,8; 988,9368;1014,5000;3; 24,7; 24,7; 0,0; 0,0;247,5; 107,2
2020-03-14 15:52:59; 9,2; 39; -4,0; 988,8118;1014,3750;3; 24,6; 24,6; 0,0; 0,0;247,5; 107,2
2020-03-14 16:03:00; 8,9; 38; -4,7; 988,8118;1014,3750;3; 24,5; 24,5; 0,0; 0,0;247,5; 107,2
2020-03-14 16:12:59; 8,6; 40; -4,2; 988,5618;1014,1250;3; 24,4; 24,4; 0,0; 0,0;247,5; 107,2
2020-03-14 16:23:00; 8,3; 40; -4,5; 988,5618;1014,1250;3; 24,3; 24,3; 0,0; 0,0;247,5; 107,2
2020-03-14 16:32:59; 8,0; 40; -4,8; 988,5618;1014,1250;3; 24,2; 24,2; 0,0; 0,0;247,5; 107,2
2020-03-14 16:42:59; 7,8; 41; -4,6; 988,5618;1014,1250;3; 24,2; 24,2; 0,0; 0,0;247,5; 107,2
2020-03-14 16:53:00; 7,5; 42; -4,6; 988,5618;1014,1250;3; 24,1; 24,1; 0,0; 0,0;247,5; 107,2
2020-03-14 17:02:59; 7,3; 43; -4,5; 988,5618;1014,1250;3; 24,0; 24,0; 0,0; 0,0;247,5; 107,2
2020-03-14 17:13:00; 7,0; 44; -4,4; 988,8743;1014,4375;3; 24,0; 24,0; 0,0; 0,0;247,5; 107,2
2020-03-14 17:22:59; 6,8; 45; -4,3; 988,8743;1014,4375;3; 23,9; 23,9; 0,0; 0,0;247,5; 107,2
2020-03-14 17:33:00; 6,5; 46; -4,3; 988,9368;1014,5000;3; 23,9; 23,9; 0,0; 0,0;247,5; 107,2
2020-03-14 17:42:59; 6,3; 47; -4,2; 988,9368;1014,5000;3; 23,9; 23,9; 0,0; 0,0;247,5; 107,2
2020-03-14 17:53:00; 6,0; 48; -4,2; 989,1868;1014,7500;3; 23,8; 23,8; 0,0; 0,0;247,5; 107,2
2020-03-14 18:02:59; 5,7; 49; -4,2; 989,1868;1014,7500;3; 23,8; 23,8; 0,0; 0,0;247,5; 107,2
2020-03-14 18:12:59; 5,4; 51; -3,9; 989,3743;1014,9375;3; 23,8; 23,8; 0,0; 0,0;247,5; 107,2
2020-03-14 18:23:00; 5,2; 51; -4,1; 989,3743;1014,9375;3; 23,8; 23,8; 0,0; 0,0;247,5; 107,2
2020-03-14 18:32:59; 4,9; 53; -3,9; 989,4993;1015,0625;3; 23,7; 23,7; 0,0; 0,0;247,5; 107,2
2020-03-14 18:43:00; 4,6; 54; -3,9; 989,4993;1015,0625;3; 23,7; 23,7; 0,0; 0,0;247,5; 107,2
2020-03-14 18:52:59; 4,3; 55; -3,9; 989,5618;1015,1250;3; 23,7; 23,7; 0,0; 0,0;247,5; 107,2
2020-03-14 19:03:00; 4,1; 55; -4,1; 989,5618;1015,1250;3; 23,6; 23,6; 0,0; 0,0;247,5; 107,2
2020-03-14 19:12:59; 3,9; 55; -4,3; 989,6868;1015,2500;3; 23,6; 23,6; 0,0; 0,0;247,5; 107,2
2020-03-14 19:23:00; 3,7; 55; -4,5; 989,6868;1015,2500;3; 23,6; 23,6; 0,0; 0,0;247,5; 107,2
2020-03-14 19:32:59; 3,5; 56; -4,5; 989,4993;1015,0625;3; 23,6; 23,6; 0,0; 0,0;247,5; 107,2
2020-03-14 19:42:59; 3,5; 56; -4,5; 989,4993;1015,0625;3; 23,6; 23,6; 0,0; 0,0;247,5; 107,2
2020-03-14 19:53:00; 3,3; 56; -4,6; 989,6243;1015,1875;5; 23,6; 23,6; 0,0; 0,0;247,5; 107,2
2020-03-14 20:02:59; 3,1; 56; -4,8; 989,6243;1015,1875;5; 23,6; 23,6; 0,0; 0,0;247,5; 107,2
2020-03-14 20:13:00; 3,1; 57; -4,6; 989,5618;1015,1250;5; 23,6; 23,6; 0,0; 0,0;247,5; 107,2
2020-03-14 20:22:59; 2,9; 57; -4,8; 989,5618;1015,1250;5; 23,6; 23,6; 0,0; 0,0;247,5; 107,2
2020-03-14 20:33:00; 2,7; 58; -4,7; 989,6243;1015,1875;5; 23,5; 23,5; 0,0; 0,0;247,5; 107,2
2020-03-14 20:42:59; 2,5; 59; -4,7; 989,6243;1015,1875;5; 23,5; 23,5; 0,0; 0,0;247,5; 107,2
2020-03-14 20:53:00; 2,3; 59; -4,9; 989,3743;1014,9375;5; 23,6; 23,6; 0,0; 0,0;247,5; 107,2
2020-03-14 21:02:59; 2,1; 59; -5,1; 989,3743;1014,9375;5; 23,5; 23,5; 0,0; 0,0;247,5; 107,2
2020-03-14 21:12:59; 1,9; 61; -4,8; 989,3743;1014,9375;5; 23,5; 23,5; 0,0; 0,0;247,5; 107,2
2020-03-14 21:23:00; 1,9; 62; -4,6; 989,3743;1014,9375;5; 23,4; 23,4; 0,0; 0,0;247,5; 107,2
2020-03-14 21:32:59; 1,7; 63; -4,6; 989,1868;1014,7500;5; 23,4; 23,4; 0,0; 0,0;247,5; 107,2
2020-03-14 21:43:00; 1,6; 64; -4,5; 989,1868;1014,7500;5; 23,4; 23,4; 0,0; 0,0;247,5; 107,2
2020-03-14 21:52:59; 1,5; 64; -4,6; 989,1868;1014,7500;5; 23,4; 23,4; 0,0; 0,0;247,5; 107,2
2020-03-14 22:03:00; 1,5; 64; -4,6; 989,1868;1014,7500;5; 23,4; 23,4; 0,0; 0,0;247,5; 107,2
2020-03-14 22:12:59; 1,2; 64; -4,9; 989,2493;1014,8125;5; 23,4; 23,4; 0,0; 0,0;247,5; 107,2
2020-03-14 22:23:00; 1,0; 65; -4,8; 989,2493;1014,8125;5; 23,4; 23,4; 0,0; 0,0;247,5; 107,2
2020-03-14 22:32:59; 0,8; 66; -4,8; 989,1868;1014,7500;5; 23,4; 23,4; 0,0; 0,0;247,5; 107,2
2020-03-14 22:42:59; 0,6; 66; -5,0; 989,1868;1014,7500;5; 23,4; 23,4; 0,0; 0,0;247,5; 107,2
2020-03-14 22:53:00; 0,4; 67; -5,0; 989,3118;1014,8750;5; 23,4; 23,4; 0,0; 0,0;247,5; 107,2
2020-03-14 23:02:59; 0,4; 67; -5,0; 989,3118;1014,8750;5; 23,4; 23,4; 0,0; 0,0;247,5; 107,2
2020-03-14 23:13:00; 0,2; 68; -5,0; 989,3118;1014,8750;5; 23,4; 23,4; 0,0; 0,0;247,5; 107,2
2020-03-14 23:22:59; 0,1; 68; -5,1; 989,3118;1014,8750;5; 23,4; 23,4; 0,0; 0,0;247,5; 107,2
2020-03-14 23:33:00; 0,0; 68; -5,2; 989,2493;1014,8125;5; 23,4; 23,4; 0,0; 0,0;247,5; 107,2
2020-03-14 23:42:59; -0,1; 68; -5,3; 989,2493;1014,8125;5; 23,4; 23,4; 0,0; 0,0;247,5; 107,2
2020-03-14 23:53:00; -0,3; 69; -5,3; 989,2493;1014,8125;5; 23,4; 23,4; 0,0; 0,0;247,5; 107,2
2020-03-15 00:02:59; -0,4; 69; -5,4; 989,2493;1014,8125;5; 23,3; 23,3; 0,0; 0,0;247,5; 107,2
2020-03-15 00:12:59; -0,4; 69; -5,4; 989,1868;1014,7500;5; 23,3; 23,3; 0,0; 0,0;247,5; 107,2
2020-03-15 00:23:00; -0,4; 69; -5,4; 989,1868;1014,7500;5; 23,3; 23,3; 0,0; 0,0;247,5; 107,2
2020-03-15 00:32:59; -0,5; 68; -5,7; 989,1868;1014,7500;5; 23,3; 23,3; 0,0; 0,0;247,5; 107,2
2020-03-15 00:43:00; -0,5; 68; -5,7; 989,1868;1014,7500;5; 23,3; 23,3; 0,0; 0,0;247,5; 107,2
2020-03-15 00:52:59; -0,5; 68; -5,7; 989,0618;1014,6250;5; 23,3; 23,3; 0,0; 0,0;247,5; 107,2
2020-03-15 01:03:00; -0,5; 67; -5,9; 989,0618;1014,6250;5; 23,3; 23,3; 0,0; 0,0;247,5; 107,2
2020-03-15 01:12:59; -0,5; 67; -5,9; 988,9993;1014,5625;5; 23,3; 23,3; 0,0; 0,0;247,5; 107,2
2020-03-15 01:23:00; -0,5; 66; -6,1; 988,9993;1014,5625;5; 23,3; 23,3; 0,0; 0,0;247,5; 107,2
2020-03-15 01:32:59; -0,5; 66; -6,1; 988,7493;1014,3125;5; 23,3; 23,3; 0,0; 0,0;247,5; 107,2
2020-03-15 01:42:59; -0,7; 67; -6,1; 988,7493;1014,3125;5; 23,3; 23,3; 0,0; 0,0;247,5; 107,2
2020-03-15 01:53:00; -0,8; 67; -6,2; 988,8743;1014,4375;5; 23,3; 23,3; 0,0; 0,0;247,5; 107,2
2020-03-15 02:02:59; -0,9; 67; -6,3; 988,8743;1014,4375;5; 23,3; 23,3; 0,0; 0,0;247,5; 107,2
2020-03-15 02:13:00; -0,9; 67; -6,3; 988,7493;1014,3125;5; 23,3; 23,3; 0,0; 0,0;247,5; 107,2
2020-03-15 02:22:59; -0,9; 67; -6,3; 988,7493;1014,3125;5; 23,3; 23,3; 0,0; 0,0;247,5; 107,2
2020-03-15 02:33:00; -0,9; 67; -6,3; 988,9368;1014,5000;5; 23,3; 23,3; 0,0; 0,0;247,5; 107,2
2020-03-15 02:42:59; -0,9; 68; -6,1; 988,9368;1014,5000;5; 23,3; 23,3; 0,0; 0,0;247,5; 107,2
2020-03-15 02:53:00; -0,7; 67; -6,1; 988,8118;1014,3750;5; 23,2; 23,2; 0,0; 0,0;247,5; 107,2
2020-03-15 03:02:59; -0,5; 66; -6,1; 988,8118;1014,3750;5; 23,2; 23,2; 0,0; 0,0;247,5; 107,2
2020-03-15 03:12:59; -0,7; 67; -6,1; 988,8743;1014,4375;5; 23,2; 23,2; 0,0; 0,0;247,5; 107,2
2020-03-15 03:23:00; -0,7; 67; -6,1; 988,8743;1014,4375;5; 23,2; 23,2; 0,0; 0,0;247,5; 107,2
2020-03-15 03:32:59; -0,7; 66; -6,3; 988,8118;1014,3750;5; 23,2; 23,2; 0,0; 0,0;247,5; 107,2
2020-03-15 03:43:00; -0,7; 66; -6,3; 988,8118;1014,3750;5; 23,2; 23,2; 0,0; 0,0;247,5; 107,2
2020-03-15 03:52:59; -0,8; 66; -6,4; 988,8118;1014,3750;5; 23,2; 23,2; 0,0; 0,0;247,5; 107,2
2020-03-15 04:03:00; -0,9; 67; -6,3; 988,8118;1014,3750;5; 23,2; 23,2; 0,0; 0,0;247,5; 107,2
2020-03-15 04:12:59; -0,9; 67; -6,3; 988,8743;1014,4375;5; 23,2; 23,2; 0,0; 0,0;247,5; 107,2
2020-03-15 04:23:00; -0,9; 66; -6,5; 988,8743;1014,4375;5; 23,2; 23,2; 0,0; 0,0;247,5; 107,2
2020-03-15 04:32:59; -1,0; 66; -6,5; 988,7493;1014,3125;5; 23,2; 23,2; 0,0; 0,0;247,5; 107,2
2020-03-15 04:42:59; -1,2; 67; -6,5; 988,7493;1014,3125;5; 23,2; 23,2; 0,0; 0,0;247,5; 107,2
2020-03-15 04:53:00; -1,3; 68; -6,4; 988,5618;1014,1250;5; 23,2; 23,2; 0,0; 0,0;247,5; 107,2
2020-03-15 05:02:59; -1,3; 68; -6,4; 988,5618;1014,1250;5; 23,2; 23,2; 0,0; 0,0;247,5; 107,2
2020-03-15 05:13:00; -1,5; 69; -6,4; 988,5618;1014,1250;5; 23,2; 23,2; 0,0; 0,0;247,5; 107,2
2020-03-15 05:22:59; -1,5; 70; -6,3; 988,5618;1014,1250;5; 23,2; 23,2; 0,0; 0,0;247,5; 107,2
2020-03-15 05:33:00; -1,7; 70; -6,4; 988,5618;1014,1250;5; 23,2; 23,2; 0,0; 0,0;247,5; 107,2
2020-03-15 05:42:59; -1,7; 70; -6,4; 988,5618;1014,1250;5; 23,2; 23,2; 0,0; 0,0;247,5; 107,2
2020-03-15 05:53:00; -1,6; 71; -6,2; 988,5618;1014,1250;5; 23,2; 23,2; 0,0; 0,0;247,5; 107,2
2020-03-15 06:02:59; -1,4; 71; -6,0; 988,5618;1014,1250;5; 23,2; 23,2; 0,0; 0,0;247,5; 107,2
2020-03-15 06:12:59; -1,3; 71; -5,9; 988,4993;1014,0625;5; 23,2; 23,2; 0,0; 0,0;247,5; 107,2
2020-03-15 06:23:00; -1,2; 72; -5,6; 988,4993;1014,0625;5; 23,3; 23,3; 0,0; 0,0;247,5; 107,2
2020-03-15 06:32:59; -0,9; 72; -5,3; 988,4993;1014,0625;5; 23,3; 23,3; 0,0; 0,0;247,5; 107,2
2020-03-15 06:43:00; -0,4; 71; -5,0; 988,4993;1014,0625;5; 23,3; 23,3; 0,0; 0,0;247,5; 107,2
2020-03-15 06:52:59; 0,3; 69; -4,7; 988,4368;1014,0000;5; 23,4; 23,4; 0,0; 0,0;247,5; 107,2
2020-03-15 07:03:00; 1,1; 68; -4,1; 988,4368;1014,0000;5; 23,4; 23,4; 0,0; 0,0;247,5; 107,2
2020-03-15 07:12:59; 2,1; 65; -3,8; 988,8118;1014,3750;5; 23,7; 23,7; 0,0; 0,0;247,5; 107,2
2020-03-15 07:23:00; 2,9; 63; -3,5; 988,8118;1014,3750;5; 24,2; 24,2; 0,0; 0,0;247,5; 107,2
2020-03-15 07:32:59; 3,7; 60; -3,3; 988,9368;1014,5000;5; 24,6; 24,6; 0,0; 0,0;247,5; 107,2
2020-03-15 07:42:59; 4,5; 58; -3,0; 988,9368;1014,5000;5; 24,8; 24,8; 0,0; 0,0;247,5; 107,2
2020-03-15 07:53:00; 5,3; 56; -2,8; 989,0618;1014,6250;5; 25,0; 25,0; 0,0; 0,0;247,5; 107,2
2020-03-15 08:02:59; 5,9; 51; -3,5; 989,0618;1014,6250;5; 25,6; 25,6; 0,0; 0,0;247,5; 107,2
2020-03-15 08:13:00; 6,6; 48; -3,6; 989,2493;1014,8125;5; 26,2; 26,2; 0,0; 0,0;247,5; 107,2
2020-03-15 08:22:59; 7,2; 47; -3,4; 989,2493;1014,8125;5; 26,6; 26,6; 0,0; 0,0;247,5; 107,2
2020-03-15 08:33:00; 7,7; 44; -3,8; 989,1243;1014,6875;5; 27,1; 27,1; 0,0; 0,0;247,5; 107,2
2020-03-15 08:42:59; 8,1; 43; -3,7; 989,1243;1014,6875;5; 27,5; 27,5; 0,0; 0,0;247,5; 107,2
2020-03-15 08:53:00; 8,5; 41; -4,0; 989,3118;1014,8750;5; 27,7; 27,7; 0,0; 0,0;247,5; 107,2
2020-03-15 09:02:59; 9,1; 41; -3,5; 989,3118;1014,8750;5; 27,9; 27,9; 0,0; 0,0;247,5; 107,2
2020-03-15 09:12:59; 9,4; 39; -3,9; 989,3118;1014,8750;5; 27,9; 27,9; 0,0; 0,0;247,5; 107,2
2020-03-15 09:23:00; 9,8; 36; -4,6; 989,3118;1014,8750;5; 28,0; 28,0; 0,0; 0,0;247,5; 107,2
2020-03-15 09:32:59; 10,2; 35; -4,6; 989,1243;1014,6875;5; 28,1; 28,1; 0,0; 0,0;247,5; 107,2
2020-03-15 09:43:00; 10,5; 33; -5,1; 989,1243;1014,6875;5; 28,1; 28,1; 0,0; 0,0;247,5; 107,2
2020-03-15 09:52:59; 11,2; 32; -4,9; 988,9368;1014,5000;5; 28,1; 28,1; 0,0; 0,0;247,5; 107,2
2020-03-15 10:03:00; 11,7; 29; -5,8; 988,9368;1014,5000;5; 28,1; 28,1; 0,0; 0,0;247,5; 107,2
2020-03-15 10:12:59; 11,9; 27; -6,5; 988,6243;1014,1875;5; 27,9; 27,9; 0,0; 0,0;247,5; 107,2
2020-03-15 10:23:00; 12,3; 28; -5,7; 988,6243;1014,1875;5; 27,7; 27,7; 0,0; 0,0;247,5; 107,2
2020-03-15 10:32:59; 12,0; 27; -6,4; 988,3118;1013,8750;5; 27,5; 27,5; 0,0; 0,0;247,5; 107,2
2020-03-15 10:42:59; 12,3; 26; -6,7; 988,3118;1013,8750;5; 27,5; 27,5; 0,0; 0,0;247,5; 107,2
2020-03-15 10:53:00; 12,3; 27; -6,2; 988,4368;1014,0000;5; 27,5; 27,5; 0,0; 0,0;247,5; 107,2
2020-03-15 11:02:59; 12,5; 26; -6,5; 988,4368;1014,0000;5; 27,4; 27,4; 0,0; 0,0;247,5; 107,2
2020-03-15 11:13:00; 12,3; 26; -6,7; 988,4993;1014,0625;5; 27,3; 27,3; 0,0; 0,0;247,5; 107,2
2020-03-15 11:22:59; 12,7; 26; -6,3; 988,4993;1014,0625;5; 27,3; 27,3; 0,0; 0,0;247,5; 107,2
2020-03-15 11:33:00; 12,7; 27; -5,8; 990,2493;1015,8125;5; 27,3; 27,3; 0,0; 0,0;247,5; 107,2
2020-03-15 11:42:59; 12,8; 28; -5,3; 990,2493;1015,8125;5; 27,3; 27,3; 0,0; 0,0;247,5; 107,2
2020-03-15 11:53:00; 12,9; 27; -5,7; 993,9993;1019,5625;6; 27,3; 27,3; 0,0; 0,0;247,5; 107,2
2020-03-15 12:02:59; 12,9; 29; -4,7; 993,9993;1019,5625;6; 27,2; 27,2; 0,0; 0,0;247,5; 107,2
2020-03-15 12:12:59; 12,8; 28; -5,3; 993,3743;1018,9375;6; 27,1; 27,1; 0,0; 0,0;247,5; 107,2
2020-03-15 12:23:00; 12,5; 29; -5,1; 993,3743;1018,9375;6; 27,0; 27,0; 0,0; 0,0;247,5; 107,2
2020-03-15 12:32:59; 12,5; 30; -4,6; 990,7493;1016,3125;6; 26,8; 26,8; 0,0; 0,0;247,5; 107,2
2020-03-15 12:43:00; 12,7; 31; -4,0; 990,7493;1016,3125;6; 26,7; 26,7; 0,0; 0,0;247,5; 107,2
2020-03-15 12:52:59; 12,5; 31; -4,2; 988,9368;1014,5000;5; 26,5; 26,5; 0,0; 0,0;247,5; 107,2
2020-03-15 13:03:00; 12,5; 31; -4,2; 988,9368;1014,5000;5; 26,4; 26,4; 0,0; 0,0;247,5; 107,2
2020-03-15 13:12:59; 12,0; 32; -4,2; 987,4368;1013,0000;5; 26,2; 26,2; 0,0; 0,0;247,5; 107,2
2020-03-15 13:23:00; 11,9; 32; -4,3; 987,4368;1013,0000;5; 26,0; 26,0; 0,0; 0,0;247,5; 107,2
2020-03-15 13:32:59; 11,7; 32; -4,5; 986,5618;1012,1250;5; 25,8; 25,8; 0,0; 0,0;247,5; 107,2
2020-03-15 13:42:59; 11,9; 33; -3,9; 986,5618;1012,1250;5; 25,7; 25,7; 0,0; 0,0;247,5; 107,2
2020-03-15 13:53:00; 11,6; 32; -4,5; 986,4993;1012,0625;4; 25,5; 25,5; 0,0; 0,0;247,5; 107,2
2020-03-15 14:02:59; 11,5; 32; -4,6; 986,4993;1012,0625;4; 25,4; 25,4; 0,0; 0,0;247,5; 107,2
2020-03-15 14:13:00; 11,6; 33; -4,1; 985,8118;1011,3750;3; 25,3; 25,3; 0,0; 0,0;247,5; 107,2
2020-03-15 14:22:59; 11,6; 33; -4,1; 985,8118;1011,3750;3; 25,2; 25,2; 0,0; 0,0;247,5; 107,2
2020-03-15 14:33:00; 11,7; 34; -3,7; 985,3743;1010,9375;3; 25,2; 25,2; 0,0; 0,0;247,5; 107,2
2020-03-15 14:42:59; 11,3; 33; -4,4; 985,3743;1010,9375;3; 25,0; 25,0; 0,0; 0,0;247,5; 107,2
2020-03-15 14:53:00; 11,0; 33; -4,7; 985,3118;1010,8750;3; 24,9; 24,9; 0,0; 0,0;247,5; 107,2
2020-03-15 15:02:59; 10,8; 34; -4,4; 985,3118;1010,8750;3; 24,8; 24,8; 0,0; 0,0;247,5; 107,2
2020-03-15 15:12:59; 10,5; 34; -4,7; 984,6868;1010,2500;3; 24,7; 24,7; 0,0; 0,0;247,5; 107,2
2020-03-15 15:23:00; 10,5; 34; -4,7; 984,6868;1010,2500;3; 24,6; 24,6; 0,0; 0,0;247,5; 107,2
2020-03-15 15:32:59; 10,4; 34; -4,8; 984,3118;1009,8750;3; 24,5; 24,5; 0,0; 0,0;247,5; 107,2
2020-03-15 15:43:00; 10,4; 34; -4,8; 984,3118;1009,8750;3; 24,4; 24,4; 0,0; 0,0;247,5; 107,2
2020-03-15 15:52:59; 10,4; 34; -4,8; 984,1243;1009,6875;3; 24,4; 24,4; 0,0; 0,0;247,5; 107,2
2020-03-15 16:03:00; 10,3; 35; -4,5; 984,1243;1009,6875;3; 24,4; 24,4; 0,0; 0,0;247,5; 107,2
2020-03-15 16:12:59; 10,1; 35; -4,7; 984,0618;1009,6250;3; 24,3; 24,3; 0,0; 0,0;247,5; 107,2
2020-03-15 16:23:00; 9,9; 35; -4,9; 984,0618;1009,6250;3; 24,2; 24,2; 0,0; 0,0;247,5; 107,2
2020-03-15 16:32:59; 9,6; 36; -4,7; 983,4368;1009,0000;3; 24,2; 24,2; 0,0; 0,0;247,5; 107,2
2020-03-15 16:42:59; 9,4; 36; -4,9; 983,4368;1009,0000;3; 24,1; 24,1; 0,0; 0,0;247,5; 107,2
2020-03-15 16:53:00; 9,2; 36; -5,1; 983,3743;1008,9375;3; 24,0; 24,0; 0,0; 0,0;247,5; 107,2
2020-03-15 17:02:59; 9,0; 37; -4,9; 983,3743;1008,9375;3; 24,0; 24,0; 0,0; 0,0;247,5; 107,2
2020-03-15 17:13:00; 8,7; 38; -4,8; 983,0618;1008,6250;3; 23,9; 23,9; 0,0; 0,0;247,5; 107,2
2020-03-15 17:22:59; 8,5; 39; -4,7; 983,0618;1008,6250;3; 23,9; 23,9; 0,0; 0,0;247,5; 107,2
2020-03-15 17:33:00; 8,3; 39; -4,9; 982,7493;1008,3125;3; 23,9; 23,9; 0,0; 0,0;247,5; 107,2
2020-03-15 17:42:59; 8,1; 39; -5,0; 982,7493;1008,3125;3; 23,8; 23,8; 0,0; 0,0;247,5; 107,2
2020-03-15 17:53:00; 8,0; 39; -5,1; 982,8118;1008,3750;3; 23,8; 23,8; 0,0; 0,0;247,5; 107,2
2020-03-15 18:02:59; 7,9; 40; -4,9; 982,8118;1008,3750;3; 23,8; 23,8; 0,0; 0,0;247,5; 107,2
2020-03-15 18:12:59; 7,7; 41; -4,7; 982,6868;1008,2500;3; 23,8; 23,8; 0,0; 0,0;247,5; 107,2
2020-03-15 18:23:00; 7,5; 41; -4,9; 982,6868;1008,2500;3; 23,7; 23,7; 0,0; 0,0;247,5; 107,2
2020-03-15 18:32:59; 7,3; 42; -4,8; 982,6243;1008,1875;3; 23,7; 23,7; 0,0; 0,0;247,5; 107,2
2020-03-15 18:43:00; 7,1; 43; -4,6; 982,6243;1008,1875;3; 23,7; 23,7; 0,0; 0,0;247,5; 107,2
2020-03-15 18:52:59; 6,8; 43; -4,9; 982,7493;1008,3125;3; 23,6; 23,6; 0,0; 0,0;247,5; 107,2
2020-03-15 19:03:00; 6,7; 44; -4,7; 982,7493;1008,3125;3; 23,6; 23,6; 0,0; 0,0;247,5; 107,2
2020-03-15 19:12:59; 6,5; 44; -4,9; 982,6868;1008,2500;3; 23,6; 23,6; 0,0; 0,0;247,5; 107,2
2020-03-15 19:23:00; 6,7; 43; -5,0; 982,6868;1008,2500;3; 23,6; 23,6; 0,0; 0,0;247,5; 107,2
2020-03-15 19:32:59; 6,7; 43; -5,0; 982,4368;1008,0000;3; 23,6; 23,6; 0,0; 0,0;247,5; 107,2
2020-03-15 19:42:59; 6,7; 43; -5,0; 982,4368;1008,0000;3; 23,6; 23,6; 0,0; 0,0;247,5; 107,2
2020-03-15 19:53:00; 6,6; 43; -5,1; 982,4368;1008,0000;4; 23,6; 23,6; 0,0; 0,0;247,5; 107,2
2020-03-15 20:02:59; 6,4; 44; -5,0; 982,4368;1008,0000;4; 23,6; 23,6; 0,0; 0,0;247,5; 107,2
2020-03-15 20:13:00; 6,3; 44; -5,1; ; ;4; 23,6; 23,6; 0,0; 0,0;247,5; 107,2
2020-03-15 20:22:59; 6,3; 44; -5,1; ; ;4; 23,5; 23,5; 0,0; 0,0;247,5; 107,2
2020-03-15 20:33:00; 6,1; 44; -5,2; 982,5618;1008,1250;4; 23,5; 23,5; 0,0; 0,0;247,5; 107,2
2020-03-15 20:42:59; 6,0; 45; -5,0; 982,5618;1008,1250;4; 23,6; 23,6; 0,0; 0,0;247,5; 107,2
2020-03-15 20:53:00; 5,9; 45; -5,1; 982,5618;1008,1250;4; 23,5; 23,5; 0,0; 0,0;247,5; 107,2
2020-03-15 21:02:59; 5,7; 46; -5,0; 982,5618;1008,1250;4; 23,5; 23,5; 0,0; 0,0;247,5; 107,2
2020-03-15 21:12:59; 5,5; 46; -5,2; 982,5618;1008,1250;4; 23,6; 23,6; 0,0; 0,0;247,5; 107,2
2020-03-15 21:23:00; 5,4; 47; -5,0; 982,5618;1008,1250;4; 23,5; 23,5; 0,0; 0,0;247,5; 107,2
2020-03-15 21:32:59; 5,3; 47; -5,1; 982,4368;1008,0000;4; 23,4; 23,4; 0,0; 0,0;247,5; 107,2
2020-03-15 21:43:00; 5,2; 47; -5,2; 982,4368;1008,0000;4; 23,4; 23,4; 0,0; 0,0;247,5; 107,2
2020-03-15 21:52:59; 5,2; 47; -5,2; 982,4368;1008,0000;4; 23,4; 23,4; 0,0; 0,0;247,5; 107,2
2020-03-15 22:03:00; 5,1; 48; -5,0; 982,4368;1008,0000;4; 23,4; 23,4; 0,0; 0,0;247,5; 107,2
2020-03-15 22:12:59; 4,9; 48; -5,2; 982,3118;1007,8750;4; 23,4; 23,4; 0,0; 0,0;247,5; 107,2
2020-03-15 22:23:00; 4,8; 48; -5,3; 982,3118;1007,8750;4; 23,4; 23,4; 0,0; 0,0;247,5; 107,2
2020-03-15 22:32:59; 4,7; 48; -5,4; ; ;4; 23,4; 23,4; 0,0; 0,0;247,5; 107,2
2020-03-15 22:42:59; 4,7; 49; -5,1; ; ;4; 23,4; 23,4; 0,0; 0,0;247,5; 107,2
2020-03-15 22:53:00; 4,6; 49; -5,2; 982,3118;1007,8750;4; 23,4; 23,4; 0,0; 0,0;247,5; 107,2
2020-03-15 23:02:59; 4,5; 49; -5,3; 982,3118;1007,8750;4; 23,4; 23,4; 0,0; 0,0;247,5; 107,2
2020-03-15 23:13:00; 4,4; 49; -5,4; 982,1243;1007,6875;4; 23,4; 23,4; 0,0; 0,0;247,5; 107,2
2020-03-15 23:22:59; 4,4; 49; -5,4; 982,1243;1007,6875;4; 23,4; 23,4; 0,0; 0,0;247,5; 107,2
2020-03-15 23:33:00; 4,4; 49; -5,4; 981,9993;1007,5625;4; 23,4; 23,4; 0,0; 0,0;247,5; 107,2
2020-03-15 23:42:59; 4,3; 49; -5,5; 981,9993;1007,5625;4; 23,4; 23,4; 0,0; 0,0;247,5; 107,2
2020-03-15 23:53:00; 4,3; 50; -5,2; 982,2493;1007,8125;4; 23,3; 23,3; 0,0; 0,0;247,5; 107,2
2020-03-16 00:02:59; 4,0; 51; -5,2; 982,2493;1007,8125;4; 23,3; 23,3; 0,0; 0,0;247,5; 107,2
2020-03-16 00:12:59; 3,9; 51; -5,3; 982,2493;1007,8125;4; 23,3; 23,3; 0,0; 0,0;247,5; 107,2
2020-03-16 00:23:00; 3,8; 52; -5,2; 982,2493;1007,8125;4; 23,3; 23,3; 0,0; 0,0;247,5; 107,2
2020-03-16 00:32:59; 3,7; 52; -5,2; 982,3118;1007,8750;4; 23,3; 23,3; 0,0; 0,0;247,5; 107,2
2020-03-16 00:43:00; 3,6; 52; -5,3; 982,3118;1007,8750;4; 23,3; 23,3; 0,0; 0,0;247,5; 107,2
2020-03-16 00:52:59; 3,6; 53; -5,1; 982,3118;1007,8750;4; 23,3; 23,3; 0,0; 0,0;247,5; 107,2
2020-03-16 01:03:00; 3,5; 53; -5,2; 982,3118;1007,8750;4; 23,3; 23,3; 0,0; 0,0;247,5; 107,2
2020-03-16 01:12:59; 3,4; 53; -5,3; ; ;4; 23,3; 23,3; 0,0; 0,0;247,5; 107,2
2020-03-16 01:23:00; 3,4; 53; -5,3; ; ;4; 23,3; 23,3; 0,0; 0,0;247,5; 107,2
2020-03-16 01:32:59; 3,3; 53; -5,4; 982,3118;1007,8750;4; 23,3; 23,3; 0,0; 0,0;247,5; 107,2
2020-03-16 01:42:59; 3,3; 53; -5,4; 982,3118;1007,8750;4; 23,2; 23,2; 0,0; 0,0;247,5; 107,2
2020-03-16 01:53:00; 3,2; 53; -5,5; 982,4368;1008,0000;4; 23,2; 23,2; 0,0; 0,0;247,5; 107,2
2020-03-16 02:02:59; 3,1; 53; -5,6; 982,4368;1008,0000;4; 23,2; 23,2; 0,0; 0,0;247,5; 107,2
2020-03-16 02:13:00; 3,0; 54; -5,4; 982,5618;1008,1250;4; 23,2; 23,2; 0,0; 0,0;247,5; 107,2
2020-03-16 02:22:59; 2,9; 54; -5,5; 982,5618;1008,1250;4; 23,2; 23,2; 0,0; 0,0;247,5; 107,2
2020-03-16 02:33:00; 2,7; 55; -5,4; 982,4993;1008,0625;4; 23,2; 23,2; 0,0; 0,0;247,5; 107,2
2020-03-16 02:42:59; 2,7; 55; -5,4; 982,4993;1008,0625;4; 23,2; 23,2; 0,0; 0,0;247,5; 107,2
2020-03-16 02:53:00; 2,7; 55; -5,4; 982,6243;1008,1875;4; 23,2; 23,2; 0,0; 0,0;247,5; 107,2
2020-03-16 03:02:59; 2,6; 55; -5,5; 982,6243;1008,1875;4; 23,2; 23,2; 0,0; 0,0;247,5; 107,2
2020-03-16 03:12:59; 2,6; 55; -5,5; 982,5618;1008,1250;4; 23,2; 23,2; 0,0; 0,0;247,5; 107,2
2020-03-16 03:23:00; 2,5; 55; -5,6; 982,5618;1008,1250;4; 23,2; 23,2; 0,0; 0,0;247,5; 107,2
2020-03-16 03:32:59; 2,4; 55; -5,7; 982,5618;1008,1250;4; 23,2; 23,2; 0,0; 0,0;247,5; 107,2
2020-03-16 03:43:00; 2,4; 55; -5,7; 982,5618;1008,1250;4; 23,2; 23,2; 0,0; 0,0;247,5; 107,2
2020-03-16 03:52:59; 2,4; 55; -5,7; 982,4368;1008,0000;4; 23,2; 23,2; 0,0; 0,0;247,5; 107,2
2020-03-16 04:03:00; 2,3; 55; -5,8; 982,4368;1008,0000;4; 23,2; 23,2; 0,0; 0,0;247,5; 107,2
2020-03-16 04:12:59; 2,3; 55; -5,8; 982,4993;1008,0625;4; 23,2; 23,2; 0,0; 0,0;247,5; 107,2
2020-03-16 04:23:00; 2,3; 55; -5,8; 982,4993;1008,0625;4; 23,2; 23,2; 0,0; 0,0;247,5; 107,2
2020-03-16 04:32:59; 2,3; 55; -5,8; 982,5618;1008,1250;4; 23,2; 23,2; 0,0; 0,0;247,5; 107,2
2020-03-16 04:42:59; 2,3; 55; -5,8; 982,5618;1008,1250;4; 23,2; 23,2; 0,0; 0,0;247,5; 107,2
2020-03-16 04:53:00; 2,3; 55; -5,8; 982,6868;1008,2500;4; 23,2; 23,2; 0,0; 0,0;247,5; 107,2
2020-03-16 05:02:59; 2,1; 55; -6,0; 982,6868;1008,2500;4; 23,2; 23,2; 0,0; 0,0;247,5; 107,2
2020-03-16 05:13:00; 2,1; 55; -6,0; 982,6868;1008,2500;4; 23,2; 23,2; 0,0; 0,0;247,5; 107,2
2020-03-16 05:22:59; 2,0; 55; -6,1; 982,6868;1008,2500;4; 23,2; 23,2; 0,0; 0,0;247,5; 107,2
2020-03-16 05:33:00; 2,0; 55; -6,1; 982,8118;1008,3750;4; 23,2; 23,2; 0,0; 0,0;247,5; 107,2
2020-03-16 05:42:59; 2,1; 55; -6,0; 982,8118;1008,3750;4; 23,2; 23,2; 0,0; 0,0;247,5; 107,2
2020-03-16 05:53:00; 2,1; 54; -6,2; 983,1243;1008,6875;4; 23,2; 23,2; 0,0; 0,0;247,5; 107,2
2020-03-16 06:02:59; 2,1; 54; -6,2; 983,1243;1008,6875;4; 23,2; 23,2; 0,0; 0,0;247,5; 107,2
2020-03-16 06:12:59; 2,3; 54; -6,1; 983,1868;1008,7500;4; 23,2; 23,2; 0,0; 0,0;247,5; 107,2
2020-03-16 06:23:00; 2,5; 54; -5,9; 983,1868;1008,7500;4; 23,3; 23,3; 0,0; 0,0;247,5; 107,2
2020-03-16 06:32:59; 2,8; 53; -5,8; 983,4368;1009,0000;4; 23,3; 23,3; 0,0; 0,0;247,5; 107,2
2020-03-16 06:43:00; 3,2; 53; -5,5; 983,4368;1009,0000;4; 23,4; 23,4; 0,0; 0,0;247,5; 107,2
2020-03-16 06:52:59; 3,6; 51; -5,6; 983,5618;1009,1250;4; 23,4; 23,4; 0,0; 0,0;247,5; 107,2
2020-03-16 07:03:00; 4,2; 51; -5,0; 983,5618;1009,1250;4; 23,4; 23,4; 0,0; 0,0;247,5; 107,2
2020-03-16 07:12:59; 4,8; 49; -5,0; 983,7493;1009,3125;4; 23,7; 23,7; 0,0; 0,0;247,5; 107,2
2020-03-16 07:23:00; 5,4; 48; -4,7; 983,7493;1009,3125;4; 24,0; 24,0; 0,0; 0,0;247,5; 107,2
2020-03-16 07:32:59; 5,9; 47; -4,6; 984,4368;1010,0000;5; 24,2; 24,2; 0,0; 0,0;247,5; 107,2
2020-03-16 07:42:59; 6,3; 45; -4,8; 984,4368;1010,0000;5; 24,4; 24,4; 0,0; 0,0;247,5; 107,2
2020-03-16 07:53:00; 6,9; 45; -4,2; 984,6243;1010,1875;5; 24,6; 24,6; 0,0; 0,0;247,5; 107,2
2020-03-16 08:02:59; 7,9; 43; -3,9; 984,6243;1010,1875;5; 25,1; 25,1; 0,0; 0,0;247,5; 107,2
2020-03-16 08:13:00; 8,7; 41; -3,8; 985,1868;1010,7500;5; 25,7; 25,7; 0,0; 0,0;247,5; 107,2
2020-03-16 08:22:59; 9,4; 41; -3,2; 985,1868;1010,7500;5; 26,2; 26,2; 0,0; 0,0;247,5; 107,2
2020-03-16 08:33:00; 9,7; 39; -3,6; 985,4993;1011,0625;5; 26,4; 26,4; 0,0; 0,0;247,5; 107,2
2020-04-09 03:33:00; 9,5; 44; -2,2; 985,9368;1011,5000;4; 24,0; 24,0; 0,0; 0,0;247,5; 111,4
2020-04-09 03:42:59; 9,4; 44; -2,2; 985,9368;1011,5000;4; 24,0; 24,0; 0,0; 0,0;247,5; 111,4
2020-04-09 03:53:00; 9,8; 43; -2,2; 985,8118;1011,3750;4; 24,0; 24,0; 0,0; 0,0;247,5; 111,4
2020-04-09 04:02:59; 9,5; 44; -2,2; 985,8118;1011,3750;4; 24,0; 24,0; 0,0; 0,0;247,5; 111,4
2020-04-09 04:12:59; 9,7; 44; -2,0; 985,7493;1011,3125;4; 24,0; 24,0; 0,0; 0,0;247,5; 111,4
2020-04-09 04:23:00; 10,0; 43; -2,0; 985,7493;1011,3125;4; 24,0; 24,0; 0,0; 0,0;247,5; 111,4
2020-04-09 04:32:59; 9,9; 44; -1,8; 985,6243;1011,1875;4; 24,0; 24,0; 0,0; 0,0;247,5; 111,4
2020-04-09 04:43:00; 9,9; 44; -1,8; 985,6243;1011,1875;4; 24,0; 24,0; 0,0; 0,0;247,5; 111,4
2020-04-09 04:52:59; 9,9; 44; -1,8; 985,8743;1011,4375;4; 24,0; 24,0; 0,0; 0,0;247,5; 111,4
2020-04-09 05:03:00; 9,8; 45; -1,6; 985,8743;1011,4375;4; 24,0; 24,0; 0,0; 0,0;247,5; 111,4
2020-04-09 05:12:59; 9,8; 45; -1,6; 985,8118;1011,3750;4; 24,0; 24,0; 0,0; 0,0;247,5; 111,4
2020-04-09 05:23:00; 9,7; 45; -1,7; 985,8118;1011,3750;4; 24,0; 24,0; 0,0; 0,0;247,5; 111,4
2020-04-09 05:32:59; 9,5; 46; -1,6; 985,9993;1011,5625;4; 24,0; 24,0; 0,0; 0,0;247,5; 111,4
2020-04-09 05:42:59; 9,3; 46; -1,7; 985,9993;1011,5625;4; 24,0; 24,0; 0,0; 0,0;247,5; 111,4
2020-04-09 05:53:00; 9,4; 46; -1,6; 985,9993;1011,5625;4; 24,0; 24,0; 0,0; 0,0;247,5; 111,4
2020-04-09 06:02:59; 9,4; 46; -1,6; 985,9993;1011,5625;4; 24,0; 24,0; 0,0; 0,0;247,5; 111,4
2020-04-09 06:13:00; 9,4; 46; -1,6; 986,1243;1011,6875;4; 24,0; 24,0; 0,0; 0,0;247,5; 111,4
2020-04-09 06:22:59; 9,3; 47; -1,4; 986,1243;1011,6875;4; 24,0; 24,0; 0,0; 0,0;247,5; 111,4
2020-04-09 06:33:00; 9,2; 47; -1,5; 986,0618;1011,6250;4; 24,0; 24,0; 0,0; 0,0;247,5; 111,4
2020-04-09 06:42:59; 9,3; 47; -1,4; 986,0618;1011,6250;4; 24,0; 24,0; 0,0; 0,0;247,5; 111,4
2020-04-09 06:53:00; 9,3; 48; -1,2; 986,0618;1011,6250;4; 24,0; 24,0; 0,0; 0,0;247,5; 111,4
2020-04-09 07:02:59; 9,5; 47; -1,3; 986,0618;1011,6250;4; 24,0; 24,0; 0,0; 0,0;247,5; 111,4
2020-04-09 07:12:59; 9,6; 47; -1,2; 986,1868;1011,7500;4; 24,0; 24,0; 0,0; 0,0;247,5; 111,4
2020-04-09 07:23:00; 9,9; 47; -0,9; 986,1868;1011,7500;4; 24,0; 24,0; 0,0; 0,0;247,5; 111,4
2020-04-09 07:32:59; 10,0; 47; -0,8; 986,5618;1012,1250;4; 24,1; 24,1; 0,0; 0,0;247,5; 111,4
2020-04-09 07:43:00; 10,2; 47; -0,6; 986,5618;1012,1250;4; 24,1; 24,1; 0,0; 0,0;247,5; 111,4
2020-04-09 07:52:59; 10,3; 47; -0,5; 986,5618;1012,1250;4; 24,1; 24,1; 0,0; 0,0;247,5; 111,4
2020-04-09 08:03:00; 10,5; 47; -0,3; 986,5618;1012,1250;4; 24,1; 24,1; 0,0; 0,0;247,5; 111,4
2020-04-09 08:12:59; 10,9; 47; 0,0; 986,6868;1012,2500;4; 24,2; 24,2; 0,0; 0,0;247,5; 111,4
2020-04-09 08:23:00; 11,6; 47; 0,7; 986,6868;1012,2500;4; 24,2; 24,2; 0,0; 0,0;247,5; 111,4
2020-04-09 08:32:59; 12,5; 45; 0,9; 986,9368;1012,5000;4; 24,3; 24,3; 0,0; 0,0;247,5; 111,4
2020-04-09 08:42:59; 13,4; 44; 1,4; 986,9368;1012,5000;4; 24,5; 24,5; 0,0; 0,0;247,5; 111,4
2020-04-09 08:53:00; 13,9; 43; 1,5; 987,0618;1012,6250;4; 24,8; 24,8; 0,0; 0,0;247,5; 111,4
2020-04-09 09:02:59; 14,3; 41; 1,2; 987,0618;1012,6250;4; 25,0; 25,0; 0,0; 0,0;247,5; 111,4
2020-04-09 09:13:00; 15,1; 40; 1,6; 987,1868;1012,7500;4; 25,2; 25,2; 0,0; 0,0;247,5; 111,4
2020-04-09 09:22:59; 15,4; 39; 1,5; 987,1868;1012,7500;4; 25,4; 25,4; 0,0; 0,0;247,5; 111,4
2020-04-09 09:33:00; 15,9; 38; 1,6; 987,4368;1013,0000;4; 25,6; 25,6; 0,0; 0,0;247,5; 111,4
2020-04-09 09:42:59; 16,7; 37; 1,9; 987,4368;1013,0000;4; 26,0; 26,0; 0,0; 0,0;247,5; 111,4
2020-04-09 09:53:00; 16,8; 36; 1,6; 987,7493;1013,3125;4; 26,0; 26,0; 0,0; 0,0;247,5; 111,4
2020-04-09 10:02:59; 16,8; 36; 1,6; 987,7493;1013,3125;4; 26,0; 26,0; 0,0; 0,0;247,5; 111,4
2020-04-09 10:12:59; 17,5; 35; 1,9; 987,9368;1013,5000;4; 26,3; 26,3; 0,0; 0,0;247,5; 111,4
2020-04-09 10:23:00; 17,9; 35; 2,2; 987,9368;1013,5000;4; 26,6; 26,6; 0,0; 0,0;247,5; 111,4
2020-04-09 10:32:59; 18,8; 35; 3,0; 987,9368;1013,5000;4; 26,9; 26,9; 0,0; 0,0;247,5; 111,4
2020-04-09 10:43:00; 19,1; 36; 3,7; 987,9368;1013,5000;4; 27,1; 27,1; 0,0; 0,0;247,5; 111,4
2020-04-09 10:52:59; 19,9; 35; 4,0; 988,5618;1014,1250;4; 27,3; 27,3; 0,0; 0,0;247,5; 111,4
2020-04-09 11:03:00; 19,7; 35; 3,8; 988,5618;1014,1250;4; 27,5; 27,5; 0,0; 0,0;247,5; 111,4
2020-04-09 11:12:59; 19,7; 36; 4,2; 988,6243;1014,1875;4; 27,7; 27,7; 0,0; 0,0;247,5; 111,4
2020-04-09 11:23:00; 20,1; 35; 4,2; 988,6243;1014,1875;4; 27,9; 27,9; 0,0; 0,0;247,5; 111,4
2020-04-09 11:32:59; 20,5; 34; 4,1; 988,7493;1014,3125;4; 27,9; 27,9; 0,0; 0,0;247,5; 111,4
2020-04-09 11:42:59; 20,9; 35; 4,9; 988,7493;1014,3125;4; 28,1; 28,1; 0,0; 0,0;247,5; 111,4
2020-04-09 11:53:00; 21,0; 35; 5,0; 989,0618;1014,6250;4; 28,0; 28,0; 0,0; 0,0;247,5; 111,4
2020-04-09 12:02:59; 21,0; 34; 4,5; 989,0618;1014,6250;4; 27,8; 27,8; 0,0; 0,0;247,5; 111,4
2020-04-09 12:13:00; 20,7; 34; 4,3; 989,0618;1014,6250;4; 27,7; 27,7; 0,0; 0,0;247,5; 111,4
2020-04-09 12:22:59; 20,4; 35; 4,4; 989,0618;1014,6250;4; 27,7; 27,7; 0,0; 0,0;247,5; 111,4
2020-04-09 12:33:00; 20,7; 36; 5,1; 989,0618;1014,6250;4; 27,7; 27,7; 0,0; 0,0;247,5; 111,4
2020-04-09 12:42:59; 20,3; 35; 4,3; 989,0618;1014,6250;4; 27,7; 27,7; 0,0; 0,0;247,5; 111,4
2020-04-09 12:53:00; 20,4; 34; 4,0; 989,0618;1014,6250;4; 27,5; 27,5; 0,0; 0,0;247,5; 111,4
2020-04-09 13:02:59; 20,9; 36; 5,3; 989,0618;1014,6250;4; 27,5; 27,5; 0,0; 0,0;247,5; 111,4
2020-04-09 13:12:59; 21,0; 36; 5,4; 988,9368;1014,5000;4; 27,5; 27,5; 0,0; 0,0;247,5; 111,4
2020-04-09 13:23:00; 21,6; 36; 5,9; 988,9368;1014,5000;4; 27,5; 27,5; 0,0; 0,0;247,5; 111,4
2020-04-09 13:32:59; 21,8; 35; 5,7; 989,3743;1014,9375;4; 27,5; 27,5; 0,0; 0,0;247,5; 111,4
2020-04-09 13:43:00; 22,3; 35; 6,1; 989,3743;1014,9375;4; 27,5; 27,5; 0,0; 0,0;247,5; 111,4
2020-04-09 13:52:59; 22,0; 37; 6,6; 989,4368;1015,0000;4; 27,4; 27,4; 0,0; 0,0;247,5; 111,4
2020-04-09 14:03:00; 22,0; 37; 6,6; 989,4368;1015,0000;4; 27,4; 27,4; 0,0; 0,0;247,5; 111,4
2020-04-09 14:12:59; 22,3; 38; 7,3; 989,9993;1015,5625;5; 27,3; 27,3; 0,0; 0,0;247,5; 111,4
2020-04-09 14:23:00; 22,5; 37; 7,1; 989,9993;1015,5625;5; 27,3; 27,3; 0,0; 0,0;247,5; 111,4
2020-04-09 14:32:59; 22,1; 38; 7,1; 989,4368;1015,0000;5; 27,1; 27,1; 0,0; 0,0;247,5; 111,4
2020-04-09 14:42:59; 22,3; 38; 7,3; 989,4368;1015,0000;5; 27,1; 27,1; 0,0; 0,0;247,5; 111,4
2020-04-09 14:53:00; 21,3; 39; 6,8; 989,3743;1014,9375;5; 26,9; 26,9; 0,0; 0,0;247,5; 111,4
2020-04-09 15:02:59; 20,9; 40; 6,8; 989,3743;1014,9375;5; 26,7; 26,7; 0,0; 0,0;247,5; 111,4
2020-04-09 15:13:00; 20,8; 40; 6,7; 989,0618;1014,6250;5; 26,7; 26,7; 0,0; 0,0;247,5; 111,4
2020-04-09 15:22:59; 21,2; 39; 6,7; 989,0618;1014,6250;5; 26,6; 26,6; 0,0; 0,0;247,5; 111,4
2020-04-09 15:33:00; 20,1; 41; 6,4; 988,9368;1014,5000;5; 26,5; 26,5; 0,0; 0,0;247,5; 111,4
2020-04-09 15:42:59; 20,3; 41; 6,6; 988,9368;1014,5000;5; 26,5; 26,5; 0,0; 0,0;247,5; 111,4
2020-04-09 15:53:00; 20,7; 41; 7,0; 988,8743;1014,4375;5; 26,4; 26,4; 0,0; 0,0;247,5; 111,4
2020-04-09 16:02:59; 21,4; 40; 7,2; 988,8743;1014,4375;5; 26,3; 26,3; 0,0; 0,0;247,5; 111,4
2020-04-09 16:12:59; 21,7; 40; 7,5; 988,4368;1014,0000;5; 26,4; 26,4; 0,0; 0,0;247,5; 111,4
2020-04-09 16:23:00; 20,9; 42; 7,5; 988,4368;1014,0000;5; 26,3; 26,3; 0,0; 0,0;247,5; 111,4
2020-04-09 16:32:59; 20,2; 43; 7,2; 988,4368;1014,0000;5; 26,2; 26,2; 0,0; 0,0;247,5; 111,4
2020-04-09 16:43:00; 19,9; 44; 7,3; 988,4368;1014,0000;5; 26,1; 26,1; 0,0; 0,0;247,5; 111,4
2020-04-09 16:52:59; 19,3; 45; 7,1; 988,1243;1013,6875;5; 26,0; 26,0; 0,0; 0,0;247,5; 111,4
2020-04-09 17:03:00; 19,3; 45; 7,1; 988,1243;1013,6875;5; 25,8; 25,8; 0,0; 0,0;247,5; 111,4
2020-04-09 17:12:59; 19,4; 45; 7,2; 988,1243;1013,6875;5; 25,8; 25,8; 0,0; 0,0;247,5; 111,4
2020-04-09 17:23:00; 19,2; 44; 6,7; 988,1243;1013,6875;5; 25,7; 25,7; 0,0; 0,0;247,5; 111,4
2020-04-09 17:32:59; 19,5; 44; 6,9; 987,8743;1013,4375;5; 25,7; 25,7; 0,0; 0,0;247,5; 111,4
2020-04-09 17:42:59; 19,1; 44; 6,6; 987,8743;1013,4375;5; 25,6; 25,6; 0,0; 0,0;247,5; 111,4
2020-04-09 17:53:00; 18,8; 44; 6,3; 987,8118;1013,3750;5; 25,6; 25,6; 0,0; 0,0;247,5; 111,4
2020-04-09 18:02:59; 19,0; 45; 6,8; 987,8118;1013,3750;5; 25,5; 25,5; 0,0; 0,0;247,5; 111,4
2020-04-09 18:13:00; 18,5; 45; 6,3; 987,9993;1013,5625;5; 25,4; 25,4; 0,0; 0,0;247,5; 111,4
2020-04-09 18:22:59; 18,0; 46; 6,2; 987,9993;1013,5625;5; 25,3; 25,3; 0,0; 0,0;247,5; 111,4
2020-04-09 18:33:00; 17,9; 46; 6,1; 988,1868;1013,7500;5; 25,3; 25,3; 0,0; 0,0;247,5; 111,4
2020-04-09 18:42:59; 17,8; 46; 6,0; 988,1868;1013,7500;5; 25,2; 25,2; 0,0; 0,0;247,5; 111,4
2020-04-09 18:53:00; 17,5; 47; 6,1; 987,7493;1013,3125;5; 25,2; 25,2; 0,0; 0,0;247,5; 111,4
2020-04-09 19:02:59; 17,2; 47; 5,8; 987,7493;1013,3125;5; 25,2; 25,2; 0,0; 0,0;247,5; 111,4
2020-04-09 19:12:59; 16,8; 47; 5,4; 987,9368;1013,5000;5; 25,1; 25,1; 0,0; 0,0;247,5; 111,4
2020-04-09 19:23:00; 16,7; 47; 5,3; 987,9368;1013,5000;5; 25,0; 25,0; 0,0; 0,0;247,5; 111,4
2020-04-09 19:32:59; 16,5; 48; 5,5; 987,9993;1013,5625;5; 25,0; 25,0; 0,0; 0,0;247,5; 111,4
2020-04-09 19:43:00; 16,2; 48; 5,2; 987,9993;1013,5625;5; 24,9; 24,9; 0,0; 0,0;247,5; 111,4
2020-04-09 19:52:59; 16,0; 48; 5,0; 988,1868;1013,7500;5; 24,9; 24,9; 0,0; 0,0;247,5; 111,4
2020-04-09 20:03:00; 15,8; 48; 4,8; 988,1868;1013,7500;5; 24,8; 24,8; 0,0; 0,0;247,5; 111,4
2020-04-09 20:12:59; 15,5; 48; 4,5; 988,3743;1013,9375;5; 24,7; 24,7; 0,0; 0,0;247,5; 111,4
2020-04-09 20:23:00; 15,3; 49; 4,6; 988,3743;1013,9375;5; 24,7; 24,7; 0,0; 0,0;247,5; 111,4
2020-04-09 20:32:59; 15,1; 49; 4,5; 988,6868;1014,2500;5; 24,7; 24,7; 0,0; 0,0;247,5; 111,4
2020-04-09 20:42:59; 15,1; 49; 4,5; 988,6868;1014,2500;5; 24,6; 24,6; 0,0; 0,0;247,5; 111,4
2020-04-09 20:53:00; 14,9; 49; 4,3; 988,7493;1014,3125;5; 24,6; 24,6; 0,0; 0,0;247,5; 111,4
2020-04-09 21:02:59; 14,7; 50; 4,4; 988,7493;1014,3125;5; 24,5; 24,5; 0,0; 0,0;247,5; 111,4
2020-04-09 21:13:00; 14,4; 51; 4,4; 988,8743;1014,4375;5; 24,5; 24,5; 0,0; 0,0;247,5; 111,4
2020-04-09 21:22:59; 14,3; 51; 4,3; 988,8743;1014,4375;5; 24,5; 24,5; 0,0; 0,0;247,5; 111,4
2020-04-09 21:33:00; 14,1; 52; 4,4; 989,1868;1014,7500;5; 24,5; 24,5; 0,0; 0,0;247,5; 111,4
2020-04-09 21:42:59; 13,9; 52; 4,2; 989,1868;1014,7500;5; 24,6; 24,6; 0,0; 0,0;247,5; 111,4
2020-04-09 21:53:00; 13,7; 53; 4,3; 989,1868;1014,7500;5; 24,5; 24,5; 0,0; 0,0;247,5; 111,4
2020-04-09 22:02:59; 13,5; 53; 4,1; 989,1868;1014,7500;5; 24,5; 24,5; 0,0; 0,0;247,5; 111,4
2020-04-09 22:12:59; 13,3; 53; 3,9; 989,3743;1014,9375;5; 24,5; 24,5; 0,0; 0,0;247,5; 111,4
2020-04-09 22:23:00; 13,2; 54; 4,1; 989,3743;1014,9375;5; 24,5; 24,5; 0,0; 0,0;247,5; 111,4
2020-04-09 22:32:59; 12,9; 55; 4,1; 989,3743;1014,9375;5; 24,5; 24,5; 0,0; 0,0;247,5; 111,4
2020-04-09 22:43:00; 12,7; 55; 3,9; 989,3743;1014,9375;5; 24,5; 24,5; 0,0; 0,0;247,5; 111,4
2020-04-09 22:52:59; 12,5; 56; 4,0; 989,4368;1015,0000;5; 24,5; 24,5; 0,0; 0,0;247,5; 111,4
2020-04-09 23:03:00; 12,3; 56; 3,8; 989,4368;1015,0000;5; 24,5; 24,5; 0,0; 0,0;247,5; 111,4
2020-04-09 23:12:59; 12,3; 57; 4,0; 989,4368;1015,0000;5; 24,5; 24,5; 0,0; 0,0;247,5; 111,4
2020-04-09 23:23:00; 12,1; 57; 3,8; 989,4368;1015,0000;5; 24,5; 24,5; 0,0; 0,0;247,5; 111,4
2020-04-09 23:32:59; 12,0; 58; 4,0; 990,1243;1015,6875;5; 24,5; 24,5; 0,0; 0,0;247,5; 111,4
2020-04-09 23:42:59; 12,0; 58; 4,0; 990,1243;1015,6875;5; 24,5; 24,5; 0,0; 0,0;247,5; 111,4
2020-04-09 23:53:00; 11,9; 58; 3,9; 990,1868;1015,7500;5; 24,5; 24,5; 0,0; 0,0;247,5; 111,4
2020-04-10 00:02:59; 11,9; 58; 3,9; 990,1868;1015,7500;5; 24,5; 24,5; 0,0; 0,0;247,5; 111,4
2020-04-10 00:13:00; 11,9; 59; 4,1; 989,5618;1015,1250;5; 24,5; 24,5; 0,0; 0,0;247,5; 111,4
2020-04-10 00:22:59; 11,7; 59; 4,0; 989,5618;1015,1250;5; 24,5; 24,5; 0,0; 0,0;247,5; 111,4
2020-04-10 00:33:00; 11,7; 59; 4,0; 989,6243;1015,1875;5; 24,5; 24,5; 0,0; 0,0;247,5; 111,4
2020-04-10 00:42:59; 11,6; 60; 4,1; 989,6243;1015,1875;5; 24,5; 24,5; 0,0; 0,0;247,5; 111,4
2020-04-10 00:53:00; 11,5; 60; 4,0; 989,8118;1015,3750;5; 24,5; 24,5; 0,0; 0,0;247,5; 111,4
2020-04-10 01:02:59; 11,4; 60; 3,9; 989,8118;1015,3750;5; 24,5; 24,5; 0,0; 0,0;247,5; 111,4
2020-04-10 01:12:59; 11,3; 60; 3,8; 990,4993;1016,0625;5; 24,5; 24,5; 0,0; 0,0;247,5; 111,4
2020-04-10 01:23:00; 11,4; 59; 3,7; 990,4993;1016,0625;5; 24,5; 24,5; 0,0; 0,0;247,5; 111,4
2020-04-10 01:32:59; 11,4; 60; 3,9; 989,8743;1015,4375;5; 24,5; 24,5; 0,0; 0,0;247,5; 111,4
2020-04-10 01:43:00; 11,4; 59; 3,7; 989,8743;1015,4375;5; 24,5; 24,5; 0,0; 0,0;247,5; 111,4
2020-04-10 01:52:59; 11,3; 59; 3,6; 989,9993;1015,5625;5; 24,4; 24,4; 0,0; 0,0;247,5; 111,4
2020-04-10 02:03:00; 11,3; 60; 3,8; 989,9993;1015,5625;5; 24,4; 24,4; 0,0; 0,0;247,5; 111,4
2020-04-10 02:12:59; 11,1; 61; 3,9; 989,9368;1015,5000;5; 24,4; 24,4; 0,0; 0,0;247,5; 111,4
2020-04-10 02:23:00; 11,1; 61; 3,9; 989,9368;1015,5000;5; 24,4; 24,4; 0,0; 0,0;247,5; 111,4
2020-04-10 02:32:59; 10,9; 61; 3,7; 990,0618;1015,6250;5; 24,4; 24,4; 0,0; 0,0;247,5; 111,4
2020-04-10 02:42:59; 10,7; 62; 3,7; 990,0618;1015,6250;5; 24,4; 24,4; 0,0; 0,0;247,5; 111,4
2020-04-10 02:53:00; 10,5; 62; 3,5; 990,0618;1015,6250;5; 24,4; 24,4; 0,0; 0,0;247,5; 111,4
2020-04-10 03:02:59; 10,4; 63; 3,7; 990,0618;1015,6250;5; 24,4; 24,4; 0,0; 0,0;247,5; 111,4
2020-04-10 03:13:00; 10,1; 64; 3,6; 989,9993;1015,5625;5; 24,4; 24,4; 0,0; 0,0;247,5; 111,4
2020-04-10 03:22:59; 10,1; 64; 3,6; 989,9993;1015,5625;5; 24,4; 24,4; 0,0; 0,0;247,5; 111,4
2020-04-10 03:33:00; 9,9; 65; 3,6; 990,0618;1015,6250;5; 24,4; 24,4; 0,0; 0,0;247,5; 111,4
2020-04-10 03:42:59; 9,7; 65; 3,4; 990,0618;1015,6250;5; 24,3; 24,3; 0,0; 0,0;247,5; 111,4
2020-04-10 03:53:00; 9,5; 65; 3,2; 990,1243;1015,6875;5; 24,4; 24,4; 0,0; 0,0;247,5; 111,4
2020-04-10 04:02:59; 9,3; 66; 3,3; 990,1243;1015,6875;5; 24,4; 24,4; 0,0; 0,0;247,5; 111,4
2020-04-10 04:12:59; 9,1; 66; 3,1; 990,1243;1015,6875;5; 24,4; 24,4; 0,0; 0,0;247,5; 111,4
2020-04-10 04:23:00; 8,9; 67; 3,1; 990,1243;1015,6875;5; 24,4; 24,4; 0,0; 0,0;247,5; 111,4
2020-04-10 04:32:59; 8,7; 67; 2,9; 990,1243;1015,6875;5; 24,3; 24,3; 0,0; 0,0;247,5; 111,4
2020-04-10 04:43:00; 8,6; 67; 2,8; 990,1243;1015,6875;5; 24,3; 24,3; 0,0; 0,0;247,5; 111,4
2020-04-10 04:52:59; 8,5; 68; 2,9; 990,3118;1015,8750;5; 24,3; 24,3; 0,0; 0,0;247,5; 111,4
2020-04-10 05:03:00; 8,3; 68; 2,7; 990,3118;1015,8750;5; 24,3; 24,3; 0,0; 0,0;247,5; 111,4
2020-04-10 05:12:59; 8,3; 68; 2,7; 990,1868;1015,7500;5; 24,3; 24,3; 0,0; 0,0;247,5; 111,4
2020-04-10 05:23:00; 8,1; 69; 2,8; 990,1868;1015,7500;5; 24,3; 24,3; 0,0; 0,0;247,5; 111,4
2020-04-10 05:32:59; 8,0; 69; 2,7; 990,3118;1015,8750;5; 24,2; 24,2; 0,0; 0,0;247,5; 111,4
2020-04-10 05:42:59; 7,9; 69; 2,6; 990,3118;1015,8750;5; 24,2; 24,2; 0,0; 0,0;247,5; 111,4
2020-04-10 05:53:00; 7,6; 70; 2,5; 990,0618;1015,6250;5; 24,2; 24,2; 0,0; 0,0;247,5; 111,4
2020-04-10 06:02:59; 7,5; 70; 2,4; 990,0618;1015,6250;5; 24,2; 24,2; 0,0; 0,0;247,5; 111,4
2020-04-10 06:13:00; 7,4; 71; 2,5; 990,1243;1015,6875;5; 24,2; 24,2; 0,0; 0,0;247,5; 111,4
2020-04-10 06:22:59; 7,3; 71; 2,4; 990,1243;1015,6875;5; 24,2; 24,2; 0,0; 0,0;247,5; 111,4
2020-04-10 06:33:00; 7,1; 72; 2,4; 990,1243;1015,6875;5; 24,2; 24,2; 0,0; 0,0;247,5; 111,4
2020-04-10 06:42:59; 7,1; 72; 2,4; 990,1243;1015,6875;5; 24,2; 24,2; 0,0; 0,0;247,5; 111,4
2020-04-10 06:53:00; 6,9; 73; 2,4; 990,3118;1015,8750;5; 24,2; 24,2; 0,0; 0,0;247,5; 111,4
2020-04-10 07:02:59; 7,0; 73; 2,5; 990,3118;1015,8750;5; 24,2; 24,2; 0,0; 0,0;247,5; 111,4
2020-04-10 07:12:59; 7,1; 73; 2,6; 990,5618;1016,1250;5; 24,2; 24,2; 0,0; 0,0;247,5; 111,4
2020-04-10 07:23:00; 7,1; 73; 2,6; 990,5618;1016,1250;5; 24,3; 24,3; 0,0; 0,0;247,5; 111,4
2020-04-10 07:32:59; 7,3; 74; 3,0; 990,7493;1016,3125;5; 24,3; 24,3; 0,0; 0,0;247,5; 111,4
2020-04-10 07:43:00; 7,7; 73; 3,2; 990,7493;1016,3125;5; 24,3; 24,3; 0,0; 0,0;247,5; 111,4
2020-04-10 07:52:59; 7,9; 72; 3,2; 990,8743;1016,4375;5; 24,4; 24,4; 0,0; 0,0;247,5; 111,4
2020-04-10 08:03:00; 8,2; 72; 3,5; 990,8743;1016,4375;5; 24,4; 24,4; 0,0; 0,0;247,5; 111,4
2020-04-10 08:12:59; 8,6; 72; 3,8; 990,9993;1016,5625;5; 24,4; 24,4; 0,0; 0,0;247,5; 111,4
2020-04-10 08:23:00; 9,3; 70; 4,1; 990,9993;1016,5625;5; 24,5; 24,5; 0,0; 0,0;247,5; 111,4
2020-04-10 08:32:59; 10,1; 69; 4,7; 991,1868;1016,7500;5; 24,6; 24,6; 0,0; 0,0;247,5; 111,4
2020-04-10 08:42:59; 10,6; 67; 4,7; 991,1868;1016,7500;5; 24,7; 24,7; 0,0; 0,0;247,5; 111,4
2020-04-10 08:53:00; 11,1; 67; 5,2; 990,9368;1016,5000;5; 24,8; 24,8; 0,0; 0,0;247,5; 111,4
2020-04-10 09:02:59; 11,7; 64; 5,1; 990,9368;1016,5000;5; 24,9; 24,9; 0,0; 0,0;247,5; 111,4
2020-04-10 09:13:00; 12,3; 63; 5,5; 991,2493;1016,8125;5; 25,1; 25,1; 0,0; 0,0;247,5; 111,4
2020-04-10 09:22:59; 13,1; 61; 5,7; 991,2493;1016,8125;5; 25,2; 25,2; 0,0; 0,0;247,5; 111,4
2020-04-10 09:33:00; 13,8; 59; 5,9; 991,4993;1017,0625;5; 25,5; 25,5; 0,0; 0,0;247,5; 111,4
2020-04-10 09:42:59; 13,5; 58; 5,4; 991,4993;1017,0625;5; 25,6; 25,6; 0,0; 0,0;247,5; 111,4
2020-04-10 09:53:00; 14,1; 57; 5,7; 991,4368;1017,0000;5; 25,6; 25,6; 0,0; 0,0;247,5; 111,4
2020-04-10 10:02:59; 14,3; 56; 5,6; 991,4368;1017,0000;5; 25,6; 25,6; 0,0; 0,0;247,5; 111,4
2020-04-10 10:12:59; 14,6; 55; 5,7; 991,6868;1017,2500;5; 25,9; 25,9; 0,0; 0,0;247,5; 111,4
2020-04-10 10:23:00; 15,1; 53; 5,6; 991,6868;1017,2500;5; 26,0; 26,0; 0,0; 0,0;247,5; 111,4
2020-04-10 10:32:59; 15,3; 51; 5,2; 991,4368;1017,0000;5; 26,4; 26,4; 0,0; 0,0;247,5; 111,4
2020-04-10 10:43:00; 15,9; 49; 5,2; 991,4368;1017,0000;5; 26,8; 26,8; 0,0; 0,0;247,5; 111,4
2020-04-10 10:52:59; 16,3; 50; 5,9; 991,8743;1017,4375;5; 27,2; 27,2; 0,0; 0,0;247,5; 111,4
2020-04-10 11:03:00; 16,5; 48; 5,5; 991,8743;1017,4375;5; 27,5; 27,5; 0,0; 0,0;247,5; 111,4
2020-04-10 11:12:59; 17,1; 49; 6,3; 992,0618;1017,6250;5; 27,8; 27,8; 0,0; 0,0;247,5; 111,4
2020-04-10 11:23:00; 17,5; 46; 5,7; 992,0618;1017,6250;5; 27,9; 27,9; 0,0; 0,0;247,5; 111,4
2020-04-10 11:32:59; 17,9; 47; 6,4; 991,9368;1017,5000;5; 28,0; 28,0; 0,0; 0,0;247,5; 111,4
2020-04-10 11:42:59; 17,9; 46; 6,1; 991,9368;1017,5000;5; 27,9; 27,9; 0,0; 0,0;247,5; 111,4
2020-04-10 11:53:00; 18,7; 44; 6,2; 991,9368;1017,5000;5; 27,9; 27,9; 0,0; 0,0;247,5; 111,4
2020-04-10 12:02:59; 18,5; 44; 6,0; 991,9368;1017,5000;5; 27,9; 27,9; 0,0; 0,0;247,5; 111,4
2020-04-10 12:13:00; 18,1; 43; 5,3; 991,8743;1017,4375;5; 27,6; 27,6; 0,0; 0,0;247,5; 111,4
2020-04-10 12:22:59; 19,1; 43; 6,2; 991,8743;1017,4375;5; 27,7; 27,7; 0,0; 0,0;247,5; 111,4
2020-04-10 12:33:00; 19,1; 43; 6,2; 991,8118;1017,3750;5; 27,7; 27,7; 0,0; 0,0;247,5; 111,4
2020-04-10 12:42:59; 18,3; 43; 5,5; 991,8118;1017,3750;5; 27,6; 27,6; 0,0; 0,0;247,5; 111,4
2020-04-10 12:53:00; 18,9; 43; 6,0; 991,8743;1017,4375;5; 27,5; 27,5; 0,0; 0,0;247,5; 111,4
2020-04-10 13:02:59; 19,7; 41; 6,1; 991,8743;1017,4375;5; 27,5; 27,5; 0,0; 0,0;247,5; 111,4
2020-04-10 13:12:59; 19,2; 40; 5,3; 991,4993;1017,0625;5; 27,3; 27,3; 0,0; 0,0;247,5; 111,4
2020-04-10 13:23:00; 20,0; 39; 5,6; 991,4993;1017,0625;5; 27,4; 27,4; 0,0; 0,0;247,5; 111,4
2020-04-10 13:32:59; 19,6; 41; 6,0; 991,4368;1017,0000;5; 27,5; 27,5; 0,0; 0,0;247,5; 111,4
2020-04-10 13:43:00; 19,5; 39; 5,2; 991,4368;1017,0000;5; 27,4; 27,4; 0,0; 0,0;247,5; 111,4
2020-04-10 13:52:59; 19,5; 39; 5,2; 991,1243;1016,6875;5; 27,2; 27,2; 0,0; 0,0;247,5; 111,4
2020-04-10 14:03:00; 19,6; 40; 5,6; 991,1243;1016,6875;5; 27,1; 27,1; 0,0; 0,0;247,5; 111,4
2020-04-10 14:12:59; 19,9; 40; 5,9; 990,8743;1016,4375;5; 27,1; 27,1; 0,0; 0,0;247,5; 111,4
2020-04-10 14:23:00; 20,3; 38; 5,5; 990,8743;1016,4375;5; 27,1; 27,1; 0,0; 0,0;247,5; 111,4
2020-04-10 14:32:59; 19,8; 39; 5,4; 990,7493;1016,3125;5; 27,1; 27,1; 0,0; 0,0;247,5; 111,4
2020-04-10 14:42:59; 19,7; 39; 5,4; 990,7493;1016,3125;5; 27,1; 27,1; 0,0; 0,0;247,5; 111,4
2020-04-10 14:53:00; 19,8; 38; 5,1; 990,5618;1016,1250;5; 26,9; 26,9; 0,0; 0,0;247,5; 111,4
2020-04-10 15:02:59; 19,3; 39; 5,0; 990,5618;1016,1250;5; 26,9; 26,9; 0,0; 0,0;247,5; 111,4
2020-04-10 15:13:00; 19,8; 39; 5,4; 990,3743;1015,9375;5; 26,8; 26,8; 0,0; 0,0;247,5; 111,4
2020-04-10 15:22:59; 20,0; 38; 5,2; 990,3743;1015,9375;5; 26,8; 26,8; 0,0; 0,0;247,5; 111,4
2020-04-10 15:33:00; 18,8; 39; 4,5; 990,0618;1015,6250;5; 26,7; 26,7; 0,0; 0,0;247,5; 111,4
2020-04-10 15:42:59; 19,3; 39; 5,0; 990,0618;1015,6250;5; 26,6; 26,6; 0,0; 0,0;247,5; 111,4
2020-04-10 15:53:00; 19,6; 39; 5,3; 989,8743;1015,4375;5; 26,6; 26,6; 0,0; 0,0;247,5; 111,4
2020-04-10 16:02:59; 19,4; 39; 5,1; 989,8743;1015,4375;5; 26,6; 26,6; 0,0; 0,0;247,5; 111,4
2020-04-10 16:12:59; 19,1; 39; 4,8; 989,7493;1015,3125;5; 26,5; 26,5; 0,0; 0,0;247,5; 111,4
2020-04-10 16:23:00; 19,1; 40; 5,2; 989,7493;1015,3125;5; 26,5; 26,5; 0,0; 0,0;247,5; 111,4
2020-04-10 16:32:59; 19,1; 39; 4,8; 989,5618;1015,1250;5; 26,4; 26,4; 0,0; 0,0;247,5; 111,4
2020-04-10 16:43:00; 19,4; 38; 4,7; 989,5618;1015,1250;5; 26,3; 26,3; 0,0; 0,0;247,5; 111,4
2020-04-10 16:52:59; 19,1; 39; 4,8; 989,1868;1014,7500;5; 26,3; 26,3; 0,0; 0,0;247,5; 111,4
2020-04-10 17:03:00; 19,1; 39; 4,8; 989,1868;1014,7500;5; 26,2; 26,2; 0,0; 0,0;247,5; 111,4
2020-04-10 17:12:59; 19,1; 39; 4,8; 989,1243;1014,6875;5; 26,1; 26,1; 0,0; 0,0;247,5; 111,4
2020-04-10 17:23:00; 18,3; 40; 4,5; 989,1243;1014,6875;5; 26,0; 26,0; 0,0; 0,0;247,5; 111,4
2020-04-10 17:32:59; 18,6; 40; 4,7; 988,8118;1014,3750;5; 26,0; 26,0; 0,0; 0,0;247,5; 111,4
2020-04-10 17:42:59; 18,7; 40; 4,8; 988,8118;1014,3750;5; 25,9; 25,9; 0,0; 0,0;247,5; 111,4
2020-04-10 17:53:00; 18,2; 40; 4,4; 988,6868;1014,2500;5; 25,8; 25,8; 0,0; 0,0;247,5; 111,4
2020-04-10 18:02:59; 18,3; 39; 4,1; 988,6868;1014,2500;5; 25,8; 25,8; 0,0; 0,0;247,5; 111,4
2020-04-10 18:13:00; 18,1; 40; 4,3; 988,5618;1014,1250;5; 25,6; 25,6; 0,0; 0,0;247,5; 111,4
2020-04-10 18:22:59; 17,1; 41; 3,7; 988,5618;1014,1250;5; 25,6; 25,6; 0,0; 0,0;247,5; 111,4
2020-04-10 18:33:00; 17,4; 41; 4,0; 988,7493;1014,3125;5; 25,4; 25,4; 0,0; 0,0;247,5; 111,4
2020-04-10 18:42:59; 16,9; 42; 3,9; 988,7493;1014,3125;5; 25,4; 25,4; 0,0; 0,0;247,5; 111,4
2020-04-10 18:53:00; 16,8; 42; 3,8; 988,4368;1014,0000;5; 25,3; 25,3; 0,0; 0,0;247,5; 111,4
2020-04-10 19:02:59; 16,8; 42; 3,8; 988,4368;1014,0000;5; 25,3; 25,3; 0,0; 0,0;247,5; 111,4
2020-04-10 19:12:59; 16,7; 43; 4,1; 988,3743;1013,9375;5; 25,2; 25,2; 0,0; 0,0;247,5; 111,4
2020-04-10 19:23:00; 16,5; 43; 3,9; 988,3743;1013,9375;5; 25,1; 25,1; 0,0; 0,0;247,5; 111,4
2020-04-10 19:32:59; 16,3; 44; 4,0; 988,4993;1014,0625;5; 25,1; 25,1; 0,0; 0,0;247,5; 111,4
2020-04-10 19:43:00; 16,0; 44; 3,7; 988,4993;1014,0625;5; 25,1; 25,1; 0,0; 0,0;247,5; 111,4
2020-04-10 19:52:59; 15,7; 45; 3,8; 988,2493;1013,8125;5; 25,0; 25,0; 0,0; 0,0;247,5; 111,4
2020-04-10 20:03:00; 15,5; 45; 3,6; 988,2493;1013,8125;5; 25,0; 25,0; 0,0; 0,0;247,5; 111,4
2020-04-10 20:12:59; 15,3; 46; 3,7; 988,1868;1013,7500;5; 24,9; 24,9; 0,0; 0,0;247,5; 111,4
2020-04-10 20:23:00; 14,8; 47; 3,6; 988,1868;1013,7500;5; 24,9; 24,9; 0,0; 0,0;247,5; 111,4
2020-04-10 20:32:59; 14,5; 48; 3,6; 988,2493;1013,8125;5; 24,9; 24,9; 0,0; 0,0;247,5; 111,4
2020-04-10 20:42:59; 14,2; 49; 3,6; 988,2493;1013,8125;5; 24,8; 24,8; 0,0; 0,0;247,5; 111,4
2020-04-10 20:53:00; 13,9; 50; 3,6; 988,5618;1014,1250;5; 24,8; 24,8; 0,0; 0,0;247,5; 111,4
2020-04-10 21:02:59; 13,6; 50; 3,4; 988,5618;1014,1250;5; 24,7; 24,7; 0,0; 0,0;247,5; 111,4
2020-04-10 21:13:00; 13,5; 51; 3,6; 988,6243;1014,1875;5; 24,7; 24,7; 0,0; 0,0;247,5; 111,4
2020-04-10 21:22:59; 13,2; 51; 3,3; 988,6243;1014,1875;5; 24,7; 24,7; 0,0; 0,0;247,5; 111,4
2020-04-10 21:33:00; 13,0; 51; 3,1; 988,6243;1014,1875;5; 24,7; 24,7; 0,0; 0,0;247,5; 111,4
2020-04-10 21:42:59; 12,8; 51; 2,9; 988,6243;1014,1875;5; 24,7; 24,7; 0,0; 0,0;247,5; 111,4
2020-04-10 21:53:00; 12,7; 51; 2,8; 988,7493;1014,3125;5; 24,7; 24,7; 0,0; 0,0;247,5; 111,4
2020-04-10 22:02:59; 12,5; 51; 2,6; 988,7493;1014,3125;5; 24,7; 24,7; 0,0; 0,0;247,5; 111,4
2020-04-10 22:12:59; 12,4; 52; 2,8; 988,8743;1014,4375;5; 24,7; 24,7; 0,0; 0,0;247,5; 111,4
2020-04-10 22:23:00; 12,3; 52; 2,7; 988,8743;1014,4375;5; 24,7; 24,7; 0,0; 0,0;247,5; 111,4
2020-04-10 22:32:59; 12,2; 53; 2,9; 988,9993;1014,5625;5; 24,7; 24,7; 0,0; 0,0;247,5; 111,4
2020-04-10 22:43:00; 11,9; 53; 2,6; 988,9993;1014,5625;5; 24,7; 24,7; 0,0; 0,0;247,5; 111,4
2020-04-10 22:52:59; 11,8; 54; 2,8; 988,9993;1014,5625;5; 24,7; 24,7; 0,0; 0,0;247,5; 111,4
2020-04-10 23:03:00; 11,8; 54; 2,8; 988,9993;1014,5625;5; 24,7; 24,7; 0,0; 0,0;247,5; 111,4
2020-04-10 23:12:59; 11,6; 54; 2,6; 988,8118;1014,3750;5; 24,7; 24,7; 0,0; 0,0;247,5; 111,4
2020-04-10 23:23:00; 11,5; 53; 2,2; 988,8118;1014,3750;5; 24,7; 24,7; 0,0; 0,0;247,5; 111,4
2020-04-10 23:32:59; 11,3; 52; 1,8; 989,1243;1014,6875;5; 24,7; 24,7; 0,0; 0,0;247,5; 111,4
2020-04-10 23:42:59; 11,2; 52; 1,7; 989,1243;1014,6875;5; 24,7; 24,7; 0,0; 0,0;247,5; 111,4
2020-04-10 23:53:00; 11,1; 52; 1,6; 989,2493;1014,8125;5; 24,7; 24,7; 0,0; 0,0;247,5; 111,4
2020-04-11 00:02:59; 11,1; 53; 1,9; 989,2493;1014,8125;5; 24,7; 24,7; 0,0; 0,0;247,5; 111,4
2020-04-11 00:13:00; 10,9; 54; 2,0; 989,0618;1014,6250;5; 24,6; 24,6; 0,0; 0,0;247,5; 111,4
2020-04-11 00:22:59; 10,7; 54; 1,8; 989,0618;1014,6250;5; 24,6; 24,6; 0,0; 0,0;247,5; 111,4
2020-04-11 00:33:00; 10,5; 55; 1,8; 989,1243;1014,6875;5; 24,6; 24,6; 0,0; 0,0;247,5; 111,4
2020-04-11 00:42:59; 10,3; 55; 1,7; 989,1243;1014,6875;5; 24,6; 24,6; 0,0; 0,0;247,5; 111,4
2020-04-11 00:53:00; 10,0; 55; 1,4; 989,1868;1014,7500;5; 24,6; 24,6; 0,0; 0,0;247,5; 111,4
2020-04-11 01:02:59; 9,9; 55; 1,3; 989,1868;1014,7500;5; 24,6; 24,6; 0,0; 0,0;247,5; 111,4
2020-04-11 01:12:59; 9,9; 54; 1,0; 989,3743;1014,9375;5; 24,6; 24,6; 0,0; 0,0;247,5; 111,4
2020-04-11 01:23:00; 9,9; 54; 1,0; 989,3743;1014,9375;5; 24,5; 24,5; 0,0; 0,0;247,5; 111,4
2020-04-11 01:32:59; 9,7; 55; 1,1; 989,5618;1015,1250;5; 24,5; 24,5; 0,0; 0,0;247,5; 111,4
2020-04-11 01:43:00; 9,6; 55; 1,0; 989,5618;1015,1250;5; 24,5; 24,5; 0,0; 0,0;247,5; 111,4
2020-04-11 01:52:59; 9,4; 56; 1,1; 989,6868;1015,2500;5; 24,5; 24,5; 0,0; 0,0;247,5; 111,4
2020-04-11 02:03:00; 9,3; 56; 1,0; 989,6868;1015,2500;5; 24,5; 24,5; 0,0; 0,0;247,5; 111,4
2020-04-11 02:12:59; 9,1; 55; 0,5; 989,7493;1015,3125;5; 24,5; 24,5; 0,0; 0,0;247,5; 111,4
2020-04-11 02:23:00; 9,0; 55; 0,4; 989,7493;1015,3125;5; 24,5; 24,5; 0,0; 0,0;247,5; 111,4
2020-04-11 02:32:59; 8,9; 56; 0,6; 989,7493;1015,3125;5; 24,5; 24,5; 0,0; 0,0;247,5; 111,4
2020-04-11 02:42:59; 8,7; 56; 0,4; 989,7493;1015,3125;5; 24,5; 24,5; 0,0; 0,0;247,5; 111,4
2020-04-11 02:53:00; 8,5; 56; 0,2; 989,5618;1015,1250;5; 24,5; 24,5; 0,0; 0,0;247,5; 111,4
2020-04-11 03:02:59; 8,4; 56; 0,1; 989,5618;1015,1250;5; 24,5; 24,5; 0,0; 0,0;247,5; 111,4
2020-04-11 03:13:00; 8,3; 56; 0,0; 989,8743;1015,4375;5; 24,5; 24,5; 0,0; 0,0;247,5; 111,4
2020-04-11 03:22:59; 8,1; 57; 0,1; 989,8743;1015,4375;5; 24,5; 24,5; 0,0; 0,0;247,5; 111,4
2020-04-11 03:33:00; 7,9; 57; -0,1; 989,6868;1015,2500;5; 24,4; 24,4; 0,0; 0,0;247,5; 111,4
2020-04-11 03:42:59; 7,7; 58; 0,0; 989,6868;1015,2500;5; 24,4; 24,4; 0,0; 0,0;247,5; 111,4
2020-04-11 03:53:00; 7,5; 58; -0,2; 989,9993;1015,5625;5; 24,4; 24,4; 0,0; 0,0;247,5; 111,4
2020-04-11 04:02:59; 7,3; 59; -0,2; 989,9993;1015,5625;5; 24,4; 24,4; 0,0; 0,0;247,5; 111,4
2020-04-11 04:12:59; 7,1; 60; -0,1; 989,9993;1015,5625;5; 24,4; 24,4; 0,0; 0,0;247,5; 111,4
2020-04-11 04:23:00; 6,8; 61; -0,2; 989,9993;1015,5625;5; 24,4; 24,4; 0,0; 0,0;247,5; 111,4
2020-04-11 04:32:59; 6,7; 61; -0,3; 989,8118;1015,3750;5; 24,4; 24,4; 0,0; 0,0;247,5; 111,4
2020-04-11 04:43:00; 6,5; 61; -0,5; 989,8118;1015,3750;5; 24,4; 24,4; 0,0; 0,0;247,5; 111,4
2020-04-11 04:52:59; 6,5; 62; -0,3; 990,1868;1015,7500;5; 24,4; 24,4; 0,0; 0,0;247,5; 111,4
2020-04-11 05:03:00; 6,4; 62; -0,4; 990,1868;1015,7500;5; 24,4; 24,4; 0,0; 0,0;247,5; 111,4
2020-04-11 05:12:59; 6,3; 62; -0,4; 990,4368;1016,0000;5; 24,4; 24,4; 0,0; 0,0;247,5; 111,4
2020-04-11 05:23:00; 6,2; 63; -0,3; 990,4368;1016,0000;5; 24,3; 24,3; 0,0; 0,0;247,5; 111,4
2020-04-11 05:32:59; 6,1; 62; -0,6; 990,0618;1015,6250;5; 24,4; 24,4; 0,0; 0,0;247,5; 111,4
2020-04-11 05:42:59; 6,0; 63; -0,5; 990,0618;1015,6250;5; 24,4; 24,4; 0,0; 0,0;247,5; 111,4
2020-04-11 05:53:00; 5,9; 63; -0,6; 990,0618;1015,6250;5; 24,4; 24,4; 0,0; 0,0;247,5; 111,4
2020-04-11 06:02:59; 5,8; 63; -0,7; 990,0618;1015,6250;5; 24,4; 24,4; 0,0; 0,0;247,5; 111,4
2020-04-11 06:13:00; 5,6; 63; -0,9; 990,2493;1015,8125;5; 24,4; 24,4; 0,0; 0,0;247,5; 111,4
2020-04-11 06:22:59; 5,5; 63; -1,0; 990,2493;1015,8125;5; 24,3; 24,3; 0,0; 0,0;247,5; 111,4
2020-04-11 06:33:00; 5,4; 64; -0,9; 990,4368;1016,0000;5; 24,3; 24,3; 0,0; 0,0;247,5; 111,4
2020-04-11 06:42:59; 5,3; 64; -1,0; 990,4368;1016,0000;5; 24,4; 24,4; 0,0; 0,0;247,5; 111,4
2020-04-11 06:53:00; 5,3; 64; -1,0; 990,6868;1016,2500;5; 24,4; 24,4; 0,0; 0,0;247,5; 111,4
2020-04-11 07:02:59; 5,3; 65; -0,7; 990,6868;1016,2500;5; 24,4; 24,4; 0,0; 0,0;247,5; 111,4
2020-04-11 07:12:59; 5,2; 65; -0,8; 990,6243;1016,1875;5; 24,4; 24,4; 0,0; 0,0;247,5; 111,4
2020-04-11 07:23:00; 5,3; 65; -0,7; 990,6243;1016,1875;5; 24,4; 24,4; 0,0; 0,0;247,5; 111,4
2020-04-11 07:32:59; 5,3; 66; -0,5; 990,9993;1016,5625;5; 24,4; 24,4; 0,0; 0,0;247,5; 111,4
2020-04-11 07:43:00; 5,5; 65; -0,6; 990,9993;1016,5625;5; 24,4; 24,4; 0,0; 0,0;247,5; 111,4
2020-04-11 07:52:59; 5,8; 65; -0,3; 991,0618;1016,6250;5; 24,4; 24,4; 0,0; 0,0;247,5; 111,4
2020-04-11 08:03:00; 6,2; 65; 0,1; 991,0618;1016,6250;5; 24,4; 24,4; 0,0; 0,0;247,5; 111,4
2020-04-11 08:12:59; 6,7; 64; 0,4; 991,2493;1016,8125;5; 24,5; 24,5; 0,0; 0,0;247,5; 111,4
2020-04-11 08:23:00; 7,1; 64; 0,7; 991,2493;1016,8125;5; 24,5; 24,5; 0,0; 0,0;247,5; 111,4
2020-04-11 08:32:59; 7,8; 63; 1,2; 991,2493;1016,8125;5; 24,6; 24,6; 0,0; 0,0;247,5; 111,4
2020-04-11 08:42:59; 8,5; 61; 1,4; 991,2493;1016,8125;5; 24,9; 24,9; 0,0; 0,0;247,5; 111,4
2020-04-11 08:53:00; 9,0; 59; 1,4; 991,5618;1017,1250;5; 25,1; 25,1; 0,0; 0,0;247,5; 111,4
2020-04-11 09:02:59; 9,4; 58; 1,6; 991,5618;1017,1250;5; 25,3; 25,3; 0,0; 0,0;247,5; 111,4
2020-04-11 09:13:00; 10,6; 56; 2,2; 991,8118;1017,3750;5; 25,4; 25,4; 0,0; 0,0;247,5; 111,4
2020-04-11 09:22:59; 10,9; 54; 2,0; 991,8118;1017,3750;5; 25,6; 25,6; 0,0; 0,0;247,5; 111,4
2020-04-11 09:33:00; 11,6; 52; 2,1; 991,8743;1017,4375;5; 25,9; 25,9; 0,0; 0,0;247,5; 111,4
2020-04-11 09:42:59; 11,7; 51; 1,9; 991,8743;1017,4375;5; 26,2; 26,2; 0,0; 0,0;247,5; 111,4
2020-04-11 09:53:00; 12,0; 51; 2,2; 991,9993;1017,5625;5; 26,3; 26,3; 0,0; 0,0;247,5; 111,4
2020-04-11 10:02:59; 11,9; 50; 1,8; 991,9993;1017,5625;5; 26,3; 26,3; 0,0; 0,0;247,5; 111,4
2020-04-11 10:12:59; 13,0; 49; 2,5; 992,3118;1017,8750;5; 26,5; 26,5; 0,0; 0,0;247,5; 111,4
2020-04-11 10:23:00; 13,8; 46; 2,4; 992,3118;1017,8750;5; 26,9; 26,9; 0,0; 0,0;247,5; 111,4
2020-04-11 10:32:59; 13,4; 46; 2,0; 992,1243;1017,6875;5; 27,1; 27,1; 0,0; 0,0;247,5; 111,4
2020-04-11 10:43:00; 14,4; 46; 2,9; 992,1243;1017,6875;5; 27,5; 27,5; 0,0; 0,0;247,5; 111,4
2020-04-11 10:52:59; 14,6; 44; 2,5; 992,6868;1018,2500;5; 27,7; 27,7; 0,0; 0,0;247,5; 111,4
2020-04-11 11:03:00; 15,1; 43; 2,6; 992,6868;1018,2500;5; 27,8; 27,8; 0,0; 0,0;247,5; 111,4
2020-04-11 11:12:59; 15,4; 41; 2,2; 992,6868;1018,2500;5; 27,9; 27,9; 0,0; 0,0;247,5; 111,4
2020-04-11 11:23:00; 15,5; 41; 2,3; 992,6868;1018,2500;5; 27,9; 27,9; 0,0; 0,0;247,5; 111,4
2020-04-11 11:32:59; 16,3; 38; 2,0; 992,6868;1018,2500;5; 27,9; 27,9; 0,0; 0,0;247,5; 111,4
2020-04-11 11:42:59; 16,5; 39; 2,5; 992,6868;1018,2500;5; 27,9; 27,9; 0,0; 0,0;247,5; 111,4
2020-04-11 11:53:00; 16,1; 39; 2,1; 992,6243;1018,1875;5; 27,9; 27,9; 0,0; 0,0;247,5; 111,4
2020-04-11 12:02:59; 16,7; 38; 2,3; 992,6243;1018,1875;5; 27,8; 27,8; 0,0; 0,0;247,5; 111,4
2020-04-11 12:13:00; 17,8; 37; 2,9; 992,4993;1018,0625;5; 27,9; 27,9; 0,0; 0,0;247,5; 111,4
2020-04-11 12:22:59; 17,7; 36; 2,4; 992,4993;1018,0625;5; 27,9; 27,9; 0,0; 0,0;247,5; 111,4
2020-04-11 12:33:00; 17,7; 33; 1,2; 992,3118;1017,8750;5; 27,9; 27,9; 0,0; 0,0;247,5; 111,4
2020-04-11 12:42:59; 17,5; 35; 1,9; 992,3118;1017,8750;5; 27,9; 27,9; 0,0; 0,0;247,5; 111,4
2020-04-11 12:53:00; 18,3; 33; 1,7; 992,3743;1017,9375;5; 27,8; 27,8; 0,0; 0,0;247,5; 111,4
2020-04-11 13:02:59; 18,7; 31; 1,2; 992,3743;1017,9375;5; 27,7; 27,7; 0,0; 0,0;247,5; 111,4
2020-04-11 13:12:59; 17,9; 29; -0,4; 992,1243;1017,6875;5; 27,7; 27,7; 0,0; 0,0;247,5; 111,4
2020-04-11 13:23:00; 17,9; 29; -0,4; 992,1243;1017,6875;5; 27,6; 27,6; 0,0; 0,0;247,5; 111,4
2020-04-11 13:32:59; 19,2; 29; 0,7; 992,1868;1017,7500;5; 27,6; 27,6; 0,0; 0,0;247,5; 111,4
2020-04-11 13:43:00; 18,7; 29; 0,3; 992,1868;1017,7500;5; 27,7; 27,7; 0,0; 0,0;247,5; 111,4
2020-04-11 13:52:59; 18,7; 25; -1,7; 992,3118;1017,8750;5; 27,6; 27,6; 0,0; 0,0;247,5; 111,4
2020-04-11 14:03:00; 18,9; 28; 0,0; 992,3118;1017,8750;5; 27,5; 27,5; 0,0; 0,0;247,5; 111,4
2020-04-11 14:12:59; 19,9; 26; -0,2; 992,1868;1017,7500;5; 27,5; 27,5; 0,0; 0,0;247,5; 111,4
2020-04-11 14:23:00; 19,6; 26; -0,4; 992,1868;1017,7500;5; 27,3; 27,3; 0,0; 0,0;247,5; 111,4
2020-04-11 14:32:59; 19,3; 27; -0,2; 991,6868;1017,2500;5; 27,3; 27,3; 0,0; 0,0;247,5; 111,4
2020-04-11 14:42:59; 18,8; 28; -0,1; 991,6868;1017,2500;5; 27,1; 27,1; 0,0; 0,0;247,5; 111,4
2020-04-11 14:53:00; 19,0; 28; 0,1; 991,6243;1017,1875;5; 27,1; 27,1; 0,0; 0,0;247,5; 111,4
2020-04-11 15:02:59; 18,8; 28; -0,1; 991,6243;1017,1875;5; 26,9; 26,9; 0,0; 0,0;247,5; 111,4
2020-04-11 15:13:00; 19,0; 28; 0,1; 991,3118;1016,8750;5; 26,9; 26,9; 0,0; 0,0;247,5; 111,4
2020-04-11 15:22:59; 19,8; 27; 0,3; 991,3118;1016,8750;5; 26,8; 26,8; 0,0; 0,0;247,5; 111,4
2020-04-11 15:33:00; 19,9; 27; 0,3; 991,2493;1016,8125;5; 26,8; 26,8; 0,0; 0,0;247,5; 111,4
2020-04-11 15:42:59; 19,9; 27; 0,3; 991,2493;1016,8125;5; 26,7; 26,7; 0,0; 0,0;247,5; 111,4
2020-04-11 15:53:00; 19,5; 27; 0,0; 991,0618;1016,6250;5; 26,6; 26,6; 0,0; 0,0;247,5; 111,4
2020-04-11 16:02:59; 19,8; 27; 0,3; 991,0618;1016,6250;5; 26,6; 26,6; 0,0; 0,0;247,5; 111,4
2020-04-11 16:12:59; 19,6; 27; 0,1; 990,4993;1016,0625;5; 26,6; 26,6; 0,0; 0,0;247,5; 111,4
2020-04-11 16:23:00; 19,5; 27; 0,0; 990,4993;1016,0625;5; 26,5; 26,5; 0,0; 0,0;247,5; 111,4
2020-04-11 16:32:59; 19,4; 26; -0,6; 990,5618;1016,1250;5; 26,5; 26,5; 0,0; 0,0;247,5; 111,4
2020-04-11 16:43:00; 19,3; 27; -0,2; 990,5618;1016,1250;5; 26,4; 26,4; 0,0; 0,0;247,5; 111,4
2020-04-11 16:52:59; 19,1; 27; -0,3; 990,0618;1015,6250;5; 26,3; 26,3; 0,0; 0,0;247,5; 111,4
2020-04-11 17:03:00; 19,1; 27; -0,3; 990,0618;1015,6250;5; 26,3; 26,3; 0,0; 0,0;247,5; 111,4
2020-04-11 17:12:59; 18,8; 27; -0,6; 989,9368;1015,5000;5; 26,2; 26,2; 0,0; 0,0;247,5; 111,4
2020-04-11 17:23:00; 18,4; 28; -0,4; 989,9368;1015,5000;5; 26,1; 26,1; 0,0; 0,0;247,5; 111,4
2020-04-11 17:32:59; 18,3; 28; -0,5; 989,6243;1015,1875;5; 26,0; 26,0; 0,0; 0,0;247,5; 111,4
2020-04-11 17:42:59; 18,6; 29; 0,2; 989,6243;1015,1875;5; 26,0; 26,0; 0,0; 0,0;247,5; 111,4
2020-04-11 17:53:00; 18,5; 30; 0,6; 989,6243;1015,1875;5; 25,9; 25,9; 0,0; 0,0;247,5; 111,4
2020-04-11 18:02:59; 18,6; 30; 0,7; 989,6243;1015,1875;5; 25,8; 25,8; 0,0; 0,0;247,5; 111,4
2020-04-11 18:13:00; 18,1; 31; 0,7; 989,1868;1014,7500;5; 25,8; 25,8; 0,0; 0,0;247,5; 111,4
2020-04-11 18:22:59; 17,8; 31; 0,4; 989,1868;1014,7500;5; 25,7; 25,7; 0,0; 0,0;247,5; 111,4
2020-04-11 18:33:00; 18,1; 31; 0,7; 989,2493;1014,8125;5; 25,6; 25,6; 0,0; 0,0;247,5; 111,4
2020-04-11 18:42:59; 17,7; 32; 0,8; 989,2493;1014,8125;5; 25,5; 25,5; 0,0; 0,0;247,5; 111,4
2020-04-11 18:53:00; 17,3; 32; 0,4; 989,1243;1014,6875;5; 25,4; 25,4; 0,0; 0,0;247,5; 111,4
2020-04-11 19:02:59; 16,9; 33; 0,5; 989,1243;1014,6875;5; 25,4; 25,4; 0,0; 0,0;247,5; 111,4
2020-04-11 19:12:59; 16,2; 35; 0,7; 988,9993;1014,5625;5; 25,3; 25,3; 0,0; 0,0;247,5; 111,4
2020-04-11 19:23:00; 15,8; 36; 0,8; 988,9993;1014,5625;5; 25,3; 25,3; 0,0; 0,0;247,5; 111,4
2020-04-11 19:32:59; 15,4; 37; 0,8; 988,6243;1014,1875;5; 25,2; 25,2; 0,0; 0,0;247,5; 111,4
2020-04-11 19:43:00; 15,4; 37; 0,8; 988,6243;1014,1875;5; 25,1; 25,1; 0,0; 0,0;247,5; 111,4
2020-04-11 19:52:59; 15,1; 38; 0,9; 988,0618;1013,6250;5; 25,1; 25,1; 0,0; 0,0;247,5; 111,4
2020-04-11 20:03:00; 14,8; 39; 1,0; 988,0618;1013,6250;5; 25,1; 25,1; 0,0; 0,0;247,5; 111,4
2020-04-11 20:12:59; 14,3; 39; 0,5; 988,6243;1014,1875;5; 25,0; 25,0; 0,0; 0,0;247,5; 111,4
2020-04-11 20:23:00; 14,1; 40; 0,7; 988,6243;1014,1875;5; 25,0; 25,0; 0,0; 0,0;247,5; 111,4
2020-04-11 20:32:59; 13,7; 41; 0,7; 988,6243;1014,1875;5; 24,9; 24,9; 0,0; 0,0;247,5; 111,4
2020-04-11 20:42:59; 13,5; 42; 0,8; 988,6243;1014,1875;5; 24,9; 24,9; 0,0; 0,0;247,5; 111,4
2020-04-11 20:53:00; 13,2; 43; 0,9; 988,6868;1014,2500;5; 24,9; 24,9; 0,0; 0,0;247,5; 111,4
2020-04-11 21:02:59; 13,1; 43; 0,8; 988,6868;1014,2500;5; 24,8; 24,8; 0,0; 0,0;247,5; 111,4
2020-04-11 21:13:00; 12,8; 44; 0,8; 988,7493;1014,3125;5; 24,8; 24,8; 0,0; 0,0;247,5; 111,4
2020-04-11 21:22:59; 12,5; 44; 0,6; 988,7493;1014,3125;5; 24,8; 24,8; 0,0; 0,0;247,5; 111,4
2020-04-11 21:33:00; 12,3; 45; 0,7; 988,4368;1014,0000;5; 24,8; 24,8; 0,0; 0,0;247,5; 111,4
2020-04-11 21:42:59; 12,1; 45; 0,5; 988,4368;1014,0000;5; 24,8; 24,8; 0,0; 0,0;247,5; 111,4
2020-04-11 21:53:00; 11,8; 46; 0,6; 988,4368;1014,0000;5; 24,8; 24,8; 0,0; 0,0;247,5; 111,4
2020-04-11 22:02:59; 11,5; 46; 0,3; 988,4368;1014,0000;5; 24,8; 24,8; 0,0; 0,0;247,5; 111,4
2020-04-11 22:12:59; 11,4; 46; 0,2; 988,4368;1014,0000;5; 24,8; 24,8; 0,0; 0,0;247,5; 111,4
2020-04-11 22:23:00; 11,2; 47; 0,3; 988,4368;1014,0000;5; 24,8; 24,8; 0,0; 0,0;247,5; 111,4
2020-04-11 22:32:59; 11,0; 47; 0,1; 988,3118;1013,8750;5; 24,7; 24,7; 0,0; 0,0;247,5; 111,4
2020-04-11 22:43:00; 10,5; 49; 0,2; 988,3118;1013,8750;5; 24,7; 24,7; 0,0; 0,0;247,5; 111,4
2020-04-11 22:52:59; 10,4; 49; 0,1; 988,1868;1013,7500;5; 24,7; 24,7; 0,0; 0,0;247,5; 111,4
2020-04-11 23:03:00; 10,2; 50; 0,2; 988,1868;1013,7500;5; 24,7; 24,7; 0,0; 0,0;247,5; 111,4
2020-04-11 23:12:59; 10,0; 50; 0,1; 988,1243;1013,6875;5; 24,7; 24,7; 0,0; 0,0;247,5; 111,4
2020-04-11 23:23:00; 9,8; 50; -0,1; 988,1243;1013,6875;5; 24,7; 24,7; 0,0; 0,0;247,5; 111,4
2020-04-11 23:32:59; 9,6; 51; 0,0; 987,9993;1013,5625;5; 24,7; 24,7; 0,0; 0,0;247,5; 111,4
2020-04-11 23:42:59; 9,4; 51; -0,2; 987,9993;1013,5625;5; 24,7; 24,7; 0,0; 0,0;247,5; 111,4
2020-04-11 23:53:00; 9,2; 51; -0,4; 987,9368;1013,5000;5; 24,7; 24,7; 0,0; 0,0;247,5; 111,4
2020-04-12 00:02:59; 9,2; 51; -0,4; 987,9368;1013,5000;5; 24,6; 24,6; 0,0; 0,0;247,5; 111,4
2020-04-12 00:13:00; 8,9; 52; -0,4; 987,6868;1013,2500;5; 24,6; 24,6; 0,0; 0,0;247,5; 111,4
2020-04-12 00:22:59; 8,6; 53; -0,4; 987,6868;1013,2500;5; 24,6; 24,6; 0,0; 0,0;247,5; 111,4
2020-04-12 00:33:00; 8,5; 53; -0,5; 987,6868;1013,2500;5; 24,6; 24,6; 0,0; 0,0;247,5; 111,4
2020-04-12 00:42:59; 8,5; 53; -0,5; 987,6868;1013,2500;5; 24,6; 24,6; 0,0; 0,0;247,5; 111,4
2020-04-12 00:53:00; 8,5; 54; -0,3; 987,3118;1012,8750;4; 24,5; 24,5; 0,0; 0,0;247,5; 111,4
2020-04-12 01:02:59; 8,4; 54; -0,4; 987,3118;1012,8750;4; 24,5; 24,5; 0,0; 0,0;247,5; 111,4
2020-04-12 01:12:59; 8,3; 54; -0,5; 987,3743;1012,9375;4; 24,5; 24,5; 0,0; 0,0;247,5; 111,4
2020-04-12 01:23:00; 8,2; 54; -0,6; 987,3743;1012,9375;4; 24,5; 24,5; 0,0; 0,0;247,5; 111,4
2020-04-12 01:32:59; 8,1; 55; -0,4; 987,0618;1012,6250;4; 24,5; 24,5; 0,0; 0,0;247,5; 111,4
2020-04-12 01:43:00; 8,0; 55; -0,5; 987,0618;1012,6250;4; 24,5; 24,5; 0,0; 0,0;247,5; 111,4
2020-04-12 01:52:59; 7,8; 56; -0,4; 986,7493;1012,3125;4; 24,5; 24,5; 0,0; 0,0;247,5; 111,4
2020-04-12 02:03:00; 7,7; 56; -0,5; 986,7493;1012,3125;4; 24,5; 24,5; 0,0; 0,0;247,5; 111,4
2020-04-12 02:12:59; 7,6; 56; -0,6; 986,4993;1012,0625;4; 24,5; 24,5; 0,0; 0,0;247,5; 111,4
2020-04-12 02:23:00; 7,5; 57; -0,5; 986,4993;1012,0625;4; 24,5; 24,5; 0,0; 0,0;247,5; 111,4
2020-04-12 02:32:59; 7,4; 57; -0,6; 986,4993;1012,0625;4; 24,5; 24,5; 0,0; 0,0;247,5; 111,4
2020-04-12 02:42:59; 7,3; 57; -0,7; 986,4993;1012,0625;4; 24,5; 24,5; 0,0; 0,0;247,5; 111,4
2020-04-12 02:53:00; 7,2; 58; -0,5; 986,1243;1011,6875;4; 24,5; 24,5; 0,0; 0,0;247,5; 111,4
2020-04-12 03:02:59; 7,1; 58; -0,6; 986,1243;1011,6875;4; 24,5; 24,5; 0,0; 0,0;247,5; 111,4
2020-04-12 03:13:00; 6,9; 59; -0,6; 985,9368;1011,5000;4; 24,4; 24,4; 0,0; 0,0;247,5; 111,4
2020-04-12 03:22:59; 6,7; 60; -0,5; 985,9368;1011,5000;4; 24,4; 24,4; 0,0; 0,0;247,5; 111,4
2020-04-12 03:33:00; 6,6; 60; -0,6; 985,7493;1011,3125;4; 24,4; 24,4; 0,0; 0,0;247,5; 111,4
2020-04-12 03:42:59; 6,6; 60; -0,6; 985,7493;1011,3125;4; 24,4; 24,4; 0,0; 0,0;247,5; 111,4
2020-04-12 03:53:00; 6,5; 61; -0,5; 985,4993;1011,0625;4; 24,4; 24,4; 0,0; 0,0;247,5; 111,4
2020-04-12 04:02:59; 6,4; 60; -0,8; 985,4993;1011,0625;4; 24,4; 24,4; 0,0; 0,0;247,5; 111,4
2020-04-12 04:12:59; 6,3; 60; -0,9; 985,3743;1010,9375;4; 24,4; 24,4; 0,0; 0,0;247,5; 111,4
2020-04-12 04:23:00; 6,2; 60; -1,0; 985,3743;1010,9375;4; 24,4; 24,4; 0,0; 0,0;247,5; 111,4
2020-04-12 04:32:59; 6,0; 61; -1,0; 985,3743;1010,9375;4; 24,4; 24,4; 0,0; 0,0;247,5; 111,4
2020-04-12 04:43:00; 5,9; 61; -1,0; 985,3743;1010,9375;4; 24,4; 24,4; 0,0; 0,0;247,5; 111,4
2020-04-12 04:52:59; 5,9; 61; -1,0; 985,1243;1010,6875;4; 24,4; 24,4; 0,0; 0,0;247,5; 111,4
2020-04-12 05:03:00; 5,8; 62; -0,9; 985,1243;1010,6875;4; 24,4; 24,4; 0,0; 0,0;247,5; 111,4
2020-04-12 05:12:59; 5,7; 62; -1,0; 984,9993;1010,5625;4; 24,4; 24,4; 0,0; 0,0;247,5; 111,4
2020-04-12 05:23:00; 5,6; 63; -0,9; 984,9993;1010,5625;4; 24,4; 24,4; 0,0; 0,0;247,5; 111,4
2020-04-12 05:32:59; 5,6; 63; -0,9; 984,9368;1010,5000;4; 24,4; 24,4; 0,0; 0,0;247,5; 111,4
2020-04-12 05:42:59; 5,6; 63; -0,9; 984,9368;1010,5000;4; 24,4; 24,4; 0,0; 0,0;247,5; 111,4
2020-04-12 05:53:00; 5,5; 63; -1,0; 984,9368;1010,5000;4; 24,4; 24,4; 0,0; 0,0;247,5; 111,4
2020-04-12 06:02:59; 5,5; 64; -0,8; 984,9368;1010,5000;4; 24,4; 24,4; 0,0; 0,0;247,5; 111,4
2020-04-12 06:13:00; 5,4; 64; -0,9; 984,8743;1010,4375;4; 24,4; 24,4; 0,0; 0,0;247,5; 111,4
2020-04-12 06:22:59; 5,4; 64; -0,9; 984,8743;1010,4375;4; 24,4; 24,4; 0,0; 0,0;247,5; 111,4
2020-04-12 06:33:00; 5,5; 64; -0,8; 984,7493;1010,3125;4; 24,4; 24,4; 0,0; 0,0;247,5; 111,4
2020-04-12 06:42:59; 5,5; 64; -0,8; 984,7493;1010,3125;4; 24,4; 24,4; 0,0; 0,0;247,5; 111,4
2020-04-12 06:53:00; 5,5; 64; -0,8; 984,6868;1010,2500;4; 24,4; 24,4; 0,0; 0,0;247,5; 111,4
2020-04-12 07:02:59; 5,5; 65; -0,6; 984,6868;1010,2500;4; 24,4; 24,4; 0,0; 0,0;247,5; 111,4
2020-04-12 07:12:59; 5,6; 66; -0,3; 984,9368;1010,5000;4; 24,4; 24,4; 0,0; 0,0;247,5; 111,4
2020-04-12 07:23:00; 5,9; 66; 0,0; 984,9368;1010,5000;4; 24,5; 24,5; 0,0; 0,0;247,5; 111,4
2020-04-12 07:32:59; 6,1; 65; 0,0; 984,6868;1010,2500;4; 24,5; 24,5; 0,0; 0,0;247,5; 111,4
2020-04-12 07:43:00; 6,4; 64; 0,1; 984,6868;1010,2500;4; 24,5; 24,5; 0,0; 0,0;247,5; 111,4
2020-04-12 07:52:59; 6,8; 63; 0,2; 984,6868;1010,2500;4; 24,5; 24,5; 0,0; 0,0;247,5; 111,4
2020-04-12 08:03:00; 7,3; 63; 0,7; 984,6868;1010,2500;4; 24,5; 24,5; 0,0; 0,0;247,5; 111,4
2020-04-12 08:12:59; 8,1; 62; 1,3; 984,5618;1010,1250;3; 24,5; 24,5; 0,0; 0,0;247,5; 111,4
2020-04-12 08:23:00; 9,2; 60; 1,8; 984,5618;1010,1250;3; 24,6; 24,6; 0,0; 0,0;247,5; 111,4
2020-04-12 08:32:59; 10,2; 57; 2,1; 984,3118;1009,8750;3; 24,8; 24,8; 0,0; 0,0;247,5; 111,4
2020-04-12 08:42:59; 11,1; 56; 2,7; 984,3118;1009,8750;3; 25,0; 25,0; 0,0; 0,0;247,5; 111,4
2020-04-12 08:53:00; 12,1; 54; 3,1; 984,4368;1010,0000;3; 25,2; 25,2; 0,0; 0,0;247,5; 111,4
2020-04-12 09:02:59; 13,4; 52; 3,7; 984,4368;1010,0000;3; 25,4; 25,4; 0,0; 0,0;247,5; 111,4
2020-04-12 09:13:00; 14,1; 50; 3,8; 984,3118;1009,8750;3; 25,5; 25,5; 0,0; 0,0;247,5; 111,4
2020-04-12 09:22:59; 14,9; 48; 4,0; 984,3118;1009,8750;3; 25,8; 25,8; 0,0; 0,0;247,5; 111,4
2020-04-12 09:33:00; 16,0; 46; 4,4; 984,1868;1009,7500;3; 26,1; 26,1; 0,0; 0,0;247,5; 111,4
2020-04-12 09:42:59; 16,8; 45; 4,8; 984,1868;1009,7500;3; 26,3; 26,3; 0,0; 0,0;247,5; 111,4
2020-04-12 09:53:00; 17,5; 43; 4,8; 984,1868;1009,7500;3; 26,5; 26,5; 0,0; 0,0;247,5; 111,4
2020-04-12 10:02:59; 18,5; 42; 5,3; 984,1868;1009,7500;3; 26,5; 26,5; 0,0; 0,0;247,5; 111,4
2020-04-12 10:12:59; 18,6; 41; 5,1; 984,3743;1009,9375;3; 26,6; 26,6; 0,0; 0,0;247,5; 111,4
2020-04-12 10:23:00; 18,9; 41; 5,4; 984,3743;1009,9375;3; 27,0; 27,0; 0,0; 0,0;247,5; 111,4
2020-04-12 10:32:59; 19,4; 41; 5,8; 983,8743;1009,4375;3; 27,3; 27,3; 0,0; 0,0;247,5; 111,4
2020-04-12 10:43:00; 19,7; 38; 5,0; 983,8743;1009,4375;3; 27,5; 27,5; 0,0; 0,0;247,5; 111,4
2020-04-12 10:52:59; 21,1; 39; 6,6; 984,1868;1009,7500;3; 27,8; 27,8; 0,0; 0,0;247,5; 111,4
2020-04-12 11:03:00; 21,7; 32; 4,3; 984,1868;1009,7500;3; 27,9; 27,9; 0,0; 0,0;247,5; 111,4
2020-04-12 11:12:59; 22,1; 34; 5,5; 984,1868;1009,7500;3; 27,9; 27,9; 0,0; 0,0;247,5; 111,4
2020-04-12 11:23:00; 21,9; 31; 4,0; 984,1868;1009,7500;3; 28,0; 28,0; 0,0; 0,0;247,5; 111,4
2020-04-12 11:32:59; 22,4; 31; 4,4; 984,0618;1009,6250;3; 28,0; 28,0; 0,0; 0,0;247,5; 111,4
2020-04-12 11:42:59; 22,7; 31; 4,7; 984,0618;1009,6250;3; 28,1; 28,1; 0,0; 0,0;247,5; 111,4
2020-04-12 11:53:00; 23,0; 29; 4,0; 983,8118;1009,3750;3; 28,1; 28,1; 0,0; 0,0;247,5; 111,4
2020-04-12 12:02:59; 23,2; 29; 4,2; 983,8118;1009,3750;3; 28,1; 28,1; 0,0; 0,0;247,5; 111,4
2020-04-12 12:13:00; 23,8; 28; 4,2; 983,4993;1009,0625;3; 28,2; 28,2; 0,0; 0,0;247,5; 111,4
2020-04-12 12:22:59; 23,5; 28; 3,9; 983,4993;1009,0625;3; 28,3; 28,3; 0,0; 0,0;247,5; 111,4
2020-04-12 12:33:00; 23,9; 27; 3,8; 983,3743;1008,9375;3; 28,3; 28,3; 0,0; 0,0;247,5; 111,4
2020-04-12 12:42:59; 24,2; 27; 4,0; 983,3743;1008,9375;3; 28,2; 28,2; 0,0; 0,0;247,5; 111,4
2020-04-12 12:53:00; 24,3; 27; 4,1; 983,0618;1008,6250;3; 28,1; 28,1; 0,0; 0,0;247,5; 111,4
2020-04-12 13:02:59; 24,5; 27; 4,3; 983,0618;1008,6250;3; 28,0; 28,0; 0,0; 0,0;247,5; 111,4
2020-04-12 13:12:59; 24,2; 25; 2,9; 982,6243;1008,1875;3; 27,9; 27,9; 0,0; 0,0;247,5; 111,4
2020-04-12 13:23:00; 24,5; 23; 2,0; 982,6243;1008,1875;3; 27,9; 27,9; 0,0; 0,0;247,5; 111,4
2020-04-12 13:32:59; 24,9; 23; 2,3; 982,8743;1008,4375;3; 27,9; 27,9; 0,0; 0,0;247,5; 111,4
2020-04-12 13:43:00; 25,2; 22; 2,0; 982,8743;1008,4375;3; 27,9; 27,9; 0,0; 0,0;247,5; 111,4
2020-04-12 13:52:59; 25,5; 23; 2,8; 982,7493;1008,3125;3; 27,9; 27,9; 0,0; 0,0;247,5; 111,4
2020-04-12 14:03:00; 25,4; 22; 2,1; 982,7493;1008,3125;3; 27,8; 27,8; 0,0; 0,0;247,5; 111,4
2020-04-12 14:12:59; 25,0; 23; 2,4; 982,6868;1008,2500;3; 27,7; 27,7; 0,0; 0,0;247,5; 111,4
2020-04-12 14:23:00; 25,4; 23; 2,8; 982,6868;1008,2500;3; 27,7; 27,7; 0,0; 0,0;247,5; 111,4
2020-04-12 14:32:59; 25,0; 22; 1,8; ; ;3; 27,5; 27,5; 0,0; 0,0;247,5; 111,4
2020-04-12 14:42:59; 24,7; 21; 0,9; ; ;3; 27,5; 27,5; 0,0; 0,0;247,5; 111,4
2020-04-12 14:53:00; 24,8; 22; 1,6; 981,9993;1007,5625;3; 27,3; 27,3; 0,0; 0,0;247,5; 111,4
2020-04-12 15:02:59; 25,7; 22; 2,4; 981,9993;1007,5625;3; 27,3; 27,3; 0,0; 0,0;247,5; 111,4
2020-04-12 15:13:00; 25,5; 21; 1,6; 981,5618;1007,1250;3; 27,1; 27,1; 0,0; 0,0;247,5; 111,4
2020-04-12 15:22:59; 26,2; 22; 2,8; 981,5618;1007,1250;3; 27,1; 27,1; 0,0; 0,0;247,5; 111,4
2020-04-12 15:33:00; 25,9; 22; 2,6; 981,4368;1007,0000;3; 27,0; 27,0; 0,0; 0,0;247,5; 111,4
2020-04-12 15:42:59; 25,9; 22; 2,6; 981,4368;1007,0000;3; 26,9; 26,9; 0,0; 0,0;247,5; 111,4
2020-04-12 15:53:00; 25,3; 23; 2,7; 981,3118;1006,8750;3; 26,9; 26,9; 0,0; 0,0;247,5; 111,4
2020-04-12 16:02:59; 25,5; 23; 2,8; 981,3118;1006,8750;3; 26,8; 26,8; 0,0; 0,0;247,5; 111,4
2020-04-12 16:12:59; 25,1; 23; 2,5; 980,8743;1006,4375;3; 26,7; 26,7; 0,0; 0,0;247,5; 111,4
2020-04-12 16:23:00; 25,5; 23; 2,8; 980,8743;1006,4375;3; 26,6; 26,6; 0,0; 0,0;247,5; 111,4
2020-04-12 16:32:59; 25,0; 23; 2,4; 980,5618;1006,1250;3; 26,6; 26,6; 0,0; 0,0;247,5; 111,4
2020-04-12 16:43:00; 24,9; 23; 2,3; 980,5618;1006,1250;3; 26,5; 26,5; 0,0; 0,0;247,5; 111,4
2020-04-12 16:52:59; 25,2; 24; 3,2; 980,4993;1006,0625;3; 26,5; 26,5; 0,0; 0,0;247,5; 111,4
2020-04-12 17:03:00; 24,3; 24; 2,4; 980,4993;1006,0625;3; 26,5; 26,5; 0,0; 0,0;247,5; 111,4
2020-04-12 17:12:59; 24,4; 24; 2,5; 980,0618;1005,6250;3; 26,4; 26,4; 0,0; 0,0;247,5; 111,4
2020-04-12 17:23:00; 23,9; 24; 2,1; 980,0618;1005,6250;3; 26,3; 26,3; 0,0; 0,0;247,5; 111,4
2020-04-12 17:32:59; 23,6; 25; 2,4; 979,8743;1005,4375;3; 26,3; 26,3; 0,0; 0,0;247,5; 111,4
2020-04-12 17:42:59; 23,5; 25; 2,3; 979,8743;1005,4375;3; 26,2; 26,2; 0,0; 0,0;247,5; 111,4
2020-04-12 17:53:00; 23,8; 27; 3,7; 979,8118;1005,3750;3; 26,1; 26,1; 0,0; 0,0;247,5; 111,4
2020-04-12 18:02:59; 24,2; 27; 4,0; 979,8118;1005,3750;3; 26,1; 26,1; 0,0; 0,0;247,5; 111,4
2020-04-12 18:13:00; 24,3; 25; 3,0; 979,4368;1005,0000;3; 26,0; 26,0; 0,0; 0,0;247,5; 111,4
2020-04-12 18:22:59; 24,2; 25; 2,9; 979,4368;1005,0000;3; 26,0; 26,0; 0,0; 0,0;247,5; 111,4
2020-04-12 18:33:00; 24,1; 25; 2,8; 979,3743;1004,9375;3; 26,0; 26,0; 0,0; 0,0;247,5; 111,4
2020-04-12 18:42:59; 24,1; 25; 2,8; 979,3743;1004,9375;3; 25,9; 25,9; 0,0; 0,0;247,5; 111,4
2020-04-12 18:53:00; 23,4; 25; 2,2; 978,9368;1004,5000;3; 25,8; 25,8; 0,0; 0,0;247,5; 111,4
2020-04-12 19:02:59; 22,9; 26; 2,4; 978,9368;1004,5000;3; 25,8; 25,8; 0,0; 0,0;247,5; 111,4
2020-04-12 19:12:59; 22,7; 28; 3,2; 978,7493;1004,3125;3; 25,7; 25,7; 0,0; 0,0;247,5; 111,4
2020-04-12 19:23:00; 22,3; 28; 2,9; 978,7493;1004,3125;3; 25,6; 25,6; 0,0; 0,0;247,5; 111,4
2020-04-12 19:32:59; 22,0; 30; 3,6; 978,3743;1003,9375;3; 25,6; 25,6; 0,0; 0,0;247,5; 111,4
2020-04-12 19:43:00; 21,5; 31; 3,7; 978,3743;1003,9375;3; 25,5; 25,5; 0,0; 0,0;247,5; 111,4
2020-04-12 19:52:59; 21,1; 32; 3,8; 978,3743;1003,9375;3; 25,4; 25,4; 0,0; 0,0;247,5; 111,4
2020-04-12 20:03:00; 20,7; 32; 3,4; 978,3743;1003,9375;3; 25,4; 25,4; 0,0; 0,0;247,5; 111,4
2020-04-12 20:12:59; 20,3; 34; 3,9; 978,2493;1003,8125;3; 25,3; 25,3; 0,0; 0,0;247,5; 111,4
2020-04-12 20:23:00; 20,0; 34; 3,7; 978,2493;1003,8125;3; 25,3; 25,3; 0,0; 0,0;247,5; 111,4
2020-04-12 20:32:59; 19,7; 35; 3,8; 978,1243;1003,6875;3; 25,2; 25,2; 0,0; 0,0;247,5; 111,4
2020-04-12 20:42:59; 19,5; 35; 3,6; 978,1243;1003,6875;3; 25,2; 25,2; 0,0; 0,0;247,5; 111,4
2020-04-12 20:53:00; 19,2; 35; 3,4; 978,0618;1003,6250;3; 25,1; 25,1; 0,0; 0,0;247,5; 111,4
2020-04-12 21:02:59; 18,8; 36; 3,4; 978,0618;1003,6250;3; 25,2; 25,2; 0,0; 0,0;247,5; 111,4
2020-04-12 21:13:00; 18,5; 36; 3,1; 977,8743;1003,4375;3; 25,1; 25,1; 0,0; 0,0;247,5; 111,4
2020-04-12 21:22:59; 18,3; 37; 3,4; 977,8743;1003,4375;3; 25,1; 25,1; 0,0; 0,0;247,5; 111,4
2020-04-12 21:33:00; 18,2; 37; 3,3; 977,6243;1003,1875;3; 25,0; 25,0; 0,0; 0,0;247,5; 111,4
2020-04-12 21:42:59; 18,1; 38; 3,6; 977,6243;1003,1875;3; 25,0; 25,0; 0,0; 0,0;247,5; 111,4
2020-04-12 21:53:00; 17,9; 38; 3,4; 977,6868;1003,2500;3; 25,0; 25,0; 0,0; 0,0;247,5; 111,4
2020-04-12 22:02:59; 17,8; 38; 3,3; 977,6868;1003,2500;3; 25,0; 25,0; 0,0; 0,0;247,5; 111,4
2020-04-12 22:12:59; 17,6; 39; 3,5; 977,6243;1003,1875;3; 25,0; 25,0; 0,0; 0,0;247,5; 111,4
2020-04-12 22:23:00; 17,4; 40; 3,7; 977,6243;1003,1875;3; 25,0; 25,0; 0,0; 0,0;247,5; 111,4
2020-04-12 22:32:59; 17,3; 40; 3,6; 977,4993;1003,0625;3; 24,9; 24,9; 0,0; 0,0;247,5; 111,4
2020-04-12 22:43:00; 17,0; 41; 3,6; 977,4993;1003,0625;3; 24,9; 24,9; 0,0; 0,0;247,5; 111,4
2020-04-12 22:52:59; 16,8; 41; 3,5; 977,8118;1003,3750;3; 24,9; 24,9; 0,0; 0,0;247,5; 111,4
2020-04-12 23:03:00; 17,0; 41; 3,6; 977,8118;1003,3750;3; 24,9; 24,9; 0,0; 0,0;247,5; 111,4
2020-04-12 23:12:59; 17,0; 42; 4,0; 977,6868;1003,2500;3; 24,9; 24,9; 0,0; 0,0;247,5; 111,4
2020-04-12 23:23:00; 16,9; 42; 3,9; 977,6868;1003,2500;3; 24,9; 24,9; 0,0; 0,0;247,5; 111,4
2020-04-12 23:32:59; 16,8; 43; 4,1; 977,5618;1003,1250;3; 24,9; 24,9; 0,0; 0,0;247,5; 111,4
2020-04-12 23:42:59; 16,6; 44; 4,3; 977,5618;1003,1250;3; 24,9; 24,9; 0,0; 0,0;247,5; 111,4
2020-04-12 23:53:00; 16,3; 45; 4,3; 977,2493;1002,8125;3; 24,9; 24,9; 0,0; 0,0;247,5; 111,4
2020-04-13 00:02:59; 16,1; 45; 4,2; 977,2493;1002,8125;3; 24,8; 24,8; 0,0; 0,0;247,5; 111,4
2020-04-13 00:13:00; 16,0; 46; 4,4; 977,4368;1003,0000;3; 24,8; 24,8; 0,0; 0,0;247,5; 111,4
2020-04-13 00:22:59; 15,9; 47; 4,6; 977,4368;1003,0000;3; 24,8; 24,8; 0,0; 0,0;247,5; 111,4
2020-04-13 00:33:00; 15,7; 48; 4,7; 976,9993;1002,5625;3; 24,8; 24,8; 0,0; 0,0;247,5; 111,4
2020-04-13 00:42:59; 15,6; 48; 4,6; 976,9993;1002,5625;3; 24,8; 24,8; 0,0; 0,0;247,5; 111,4
2020-04-13 00:53:00; 15,5; 48; 4,5; 976,8743;1002,4375;3; 24,7; 24,7; 0,0; 0,0;247,5; 111,4
2020-04-13 01:02:59; 15,4; 49; 4,7; 976,8743;1002,4375;3; 24,8; 24,8; 0,0; 0,0;247,5; 111,4
2020-04-13 01:12:59; 15,3; 49; 4,6; 976,8743;1002,4375;3; 24,8; 24,8; 0,0; 0,0;247,5; 111,4
2020-04-13 01:23:00; 15,1; 50; 4,8; 976,8743;1002,4375;3; 24,8; 24,8; 0,0; 0,0;247,5; 111,4
2020-04-13 01:32:59; 15,0; 50; 4,7; 976,5618;1002,1250;3; 24,8; 24,8; 0,0; 0,0;247,5; 111,4
2020-04-13 01:43:00; 14,9; 50; 4,6; 976,5618;1002,1250;3; 24,8; 24,8; 0,0; 0,0;247,5; 111,4
2020-04-13 01:52:59; 14,7; 51; 4,7; 976,5618;1002,1250;3; 24,8; 24,8; 0,0; 0,0;247,5; 111,4
2020-04-13 02:03:00; 14,6; 52; 4,9; 976,5618;1002,1250;3; 24,8; 24,8; 0,0; 0,0;247,5; 111,4
2020-04-13 02:12:59; 14,3; 52; 4,6; 976,5618;1002,1250;3; 24,8; 24,8; 0,0; 0,0;247,5; 111,4
2020-04-13 02:23:00; 14,3; 52; 4,6; 976,5618;1002,1250;3; 24,8; 24,8; 0,0; 0,0;247,5; 111,4
2020-04-13 02:32:59; 14,2; 52; 4,5; 976,4993;1002,0625;3; 24,8; 24,8; 0,0; 0,0;247,5; 111,4
2020-04-13 02:42:59; 14,1; 52; 4,4; 976,4993;1002,0625;3; 24,8; 24,8; 0,0; 0,0;247,5; 111,4
2020-04-13 02:53:00; 13,9; 53; 4,5; 976,7493;1002,3125;3; 24,8; 24,8; 0,0; 0,0;247,5; 111,4
2020-04-13 03:02:59; 13,9; 53; 4,5; 976,7493;1002,3125;3; 24,8; 24,8; 0,0; 0,0;247,5; 111,4
2020-04-13 03:13:00; 14,0; 54; 4,8; 976,5618;1002,1250;3; 24,8; 24,8; 0,0; 0,0;247,5; 111,4
2020-04-13 03:22:59; 14,1; 54; 4,9; 976,5618;1002,1250;3; 24,8; 24,8; 0,0; 0,0;247,5; 111,4
2020-04-13 03:33:00; 14,2; 54; 5,0; 976,6243;1002,1875;3; 24,7; 24,7; 0,0; 0,0;247,5; 111,4
2020-04-13 03:42:59; 14,2; 53; 4,8; 976,6243;1002,1875;3; 24,8; 24,8; 0,0; 0,0;247,5; 111,4
2020-04-13 03:53:00; 14,1; 53; 4,7; 976,4368;1002,0000;3; 24,8; 24,8; 0,0; 0,0;247,5; 111,4
2020-04-13 04:02:59; 14,0; 53; 4,6; 976,4368;1002,0000;3; 24,8; 24,8; 0,0; 0,0;247,5; 111,4
2020-04-13 04:12:59; 13,9; 54; 4,7; 976,0618;1001,6250;3; 24,8; 24,8; 0,0; 0,0;247,5; 111,4
2020-04-13 04:23:00; 13,6; 54; 4,5; 976,0618;1001,6250;3; 24,8; 24,8; 0,0; 0,0;247,5; 111,4
2020-04-13 04:32:59; 13,5; 54; 4,4; 975,9368;1001,5000;3; 24,8; 24,8; 0,0; 0,0;247,5; 111,4
2020-04-13 04:43:00; 13,3; 55; 4,4; 975,9368;1001,5000;3; 24,8; 24,8; 0,0; 0,0;247,5; 111,4
2020-04-13 04:52:59; 13,1; 55; 4,3; 976,1868;1001,7500;3; 24,7; 24,7; 0,0; 0,0;247,5; 111,4
2020-04-13 05:03:00; 12,9; 56; 4,3; 976,1868;1001,7500;3; 24,7; 24,7; 0,0; 0,0;247,5; 111,4
2020-04-13 05:12:59; 12,7; 56; 4,1; 975,9993;1001,5625;3; 24,7; 24,7; 0,0; 0,0;247,5; 111,4
2020-04-13 05:23:00; 12,6; 56; 4,1; 975,9993;1001,5625;3; 24,7; 24,7; 0,0; 0,0;247,5; 111,4
2020-04-13 05:32:59; 12,4; 57; 4,1; 975,9368;1001,5000;3; 24,7; 24,7; 0,0; 0,0;247,5; 111,4
2020-04-13 05:42:59; 12,3; 58; 4,3; 975,9368;1001,5000;3; 24,7; 24,7; 0,0; 0,0;247,5; 111,4
2020-04-13 05:53:00; 12,3; 58; 4,3; 975,8118;1001,3750;3; 24,7; 24,7; 0,0; 0,0;247,5; 111,4
2020-04-13 06:02:59; 12,4; 58; 4,4; 975,8118;1001,3750;3; 24,7; 24,7; 0,0; 0,0;247,5; 111,4
2020-04-13 06:13:00; 12,3; 58; 4,3; 975,4993;1001,0625;3; 24,7; 24,7; 0,0; 0,0;247,5; 111,4
2020-04-13 06:22:59; 12,3; 58; 4,3; 975,4993;1001,0625;3; 24,7; 24,7; 0,0; 0,0;247,5; 111,4
2020-04-13 06:33:00; 12,3; 58; 4,3; 975,5618;1001,1250;3; 24,7; 24,7; 0,0; 0,0;247,5; 111,4
2020-04-13 06:42:59; 12,1; 59; 4,3; 975,5618;1001,1250;3; 24,7; 24,7; 0,0; 0,0;247,5; 111,4
2020-04-13 06:53:00; 11,9; 60; 4,4; 975,8118;1001,3750;3; 24,7; 24,7; 0,0; 0,0;247,5; 111,4
2020-04-13 07:02:59; 11,9; 60; 4,4; 975,8118;1001,3750;3; 24,7; 24,7; 0,0; 0,0;247,5; 111,4
2020-04-13 07:12:59; 11,8; 60; 4,3; 976,3743;1001,9375;3; 24,7; 24,7; 0,0; 0,0;247,5; 111,4
2020-04-13 07:23:00; 11,9; 60; 4,4; 976,3743;1001,9375;3; 24,7; 24,7; 0,0; 0,0;247,5; 111,4
2020-04-13 07:32:59; 12,2; 60; 4,7; 976,1868;1001,7500;3; 24,8; 24,8; 0,0; 0,0;247,5; 111,4
2020-04-13 07:43:00; 12,6; 59; 4,8; 976,1868;1001,7500;3; 24,8; 24,8; 0,0; 0,0;247,5; 111,4
2020-04-13 07:52:59; 13,1; 58; 5,0; 976,4993;1002,0625;3; 24,8; 24,8; 0,0; 0,0;247,5; 111,4
2020-04-13 08:03:00; 13,3; 57; 5,0; 976,4993;1002,0625;3; 24,9; 24,9; 0,0; 0,0;247,5; 111,4
2020-04-13 08:12:59; 13,4; 57; 5,1; 976,9993;1002,5625;3; 24,9; 24,9; 0,0; 0,0;247,5; 111,4
2020-04-13 08:23:00; 13,3; 58; 5,2; 976,9993;1002,5625;3; 24,9; 24,9; 0,0; 0,0;247,5; 111,4
2020-04-13 08:32:59; 13,3; 59; 5,5; 977,4368;1003,0000;3; 24,9; 24,9; 0,0; 0,0;247,5; 111,4
2020-04-13 08:42:59; 13,0; 60; 5,4; 977,4368;1003,0000;3; 24,9; 24,9; 0,0; 0,0;247,5; 111,4
2020-04-13 08:53:00; 12,7; 62; 5,6; 977,9993;1003,5625;4; 24,9; 24,9; 0,0; 0,0;247,5; 111,4
2020-04-13 09:02:59; 12,7; 63; 5,8; 977,9993;1003,5625;4; 24,9; 24,9; 0,0; 0,0;247,5; 111,4
2020-04-13 09:13:00; 12,4; 65; 6,0; 978,4368;1004,0000;4; 24,9; 24,9; 0,0; 0,0;247,5; 111,4
2020-04-13 09:22:59; 11,8; 68; 6,1; 978,4368;1004,0000;4; 24,9; 24,9; 0,0; 0,0;247,5; 111,4
2020-04-13 09:33:00; 11,9; 69; 6,4; 978,4368;1004,0000;4; 24,9; 24,9; 0,0; 0,0;247,5; 111,4
2020-04-13 09:42:59; 11,1; 71; 6,0; 978,4368;1004,0000;4; 24,8; 24,8; 0,0; 0,0;247,5; 111,4
2020-04-13 09:53:00; 10,8; 73; 6,2; 978,7493;1004,3125;4; 24,8; 24,8; 0,0; 0,0;247,5; 111,4
2020-04-13 10:02:59; 10,7; 73; 6,1; 978,7493;1004,3125;4; 24,8; 24,8; 0,0; 0,0;247,5; 111,4
2020-04-13 10:12:59; 10,7; 73; 6,1; 978,9368;1004,5000;4; 24,8; 24,8; 0,0; 0,0;247,5; 111,4
2020-04-13 10:23:00; 10,6; 74; 6,2; 978,9368;1004,5000;4; 24,7; 24,7; 0,0; 0,0;247,5; 111,4
2020-04-13 10:32:59; 10,3; 75; 6,1; 978,9993;1004,5625;4; 24,7; 24,7; 0,0; 0,0;247,5; 111,4
2020-04-13 10:43:00; 10,3; 76; 6,3; 978,9993;1004,5625;4; 24,7; 24,7; 0,0; 0,0;247,5; 111,4
2020-04-13 10:52:59; 10,2; 75; 6,0; 979,1868;1004,7500;4; 24,7; 24,7; 0,0; 0,0;247,5; 111,4
2020-04-13 11:03:00; 9,7; 77; 5,9; 979,1868;1004,7500;4; 24,7; 24,7; 0,0; 0,0;247,5; 111,4
2020-04-13 11:12:59; 9,7; 78; 6,0; 979,3118;1004,8750;4; 24,7; 24,7; 0,0; 0,0;247,5; 111,4
2020-04-13 11:23:00; 9,3; 79; 5,8; 979,3118;1004,8750;4; 24,7; 24,7; 0,0; 0,0;247,5; 111,4
2020-04-13 11:32:59; 9,1; 80; 5,8; 979,4368;1005,0000;4; 24,7; 24,7; 0,0; 0,0;247,5; 111,4
2020-04-13 11:42:59; 8,5; 75; 4,3; 979,4368;1005,0000;4; 24,7; 24,7; 0,0; 0,0;247,5; 111,4
2020-04-13 11:53:00; 8,0; 74; 3,6; 980,0618;1005,6250;4; 24,6; 24,6; 0,0; 0,0;247,5; 111,4
2020-04-13 12:02:59; 7,7; 76; 3,7; 980,0618;1005,6250;4; 24,6; 24,6; 0,0; 0,0;247,5; 111,4
2020-04-13 12:13:00; 7,5; 78; 3,9; 980,3743;1005,9375;4; 24,6; 24,6; 0,0; 0,0;247,5; 111,4
2020-04-13 12:22:59; 7,4; 79; 4,0; 980,3743;1005,9375;4; 24,6; 24,6; 0,0; 0,0;247,5; 111,4
2020-04-13 12:33:00; 7,5; 79; 4,1; 980,3743;1005,9375;4; 24,5; 24,5; 0,0; 0,0;247,5; 111,4
2020-04-13 12:42:59; 7,4; 78; 3,8; 980,3743;1005,9375;4; 24,5; 24,5; 0,0; 0,0;247,5; 112,2
2020-04-13 12:53:00; 7,5; 79; 4,1; 980,6243;1006,1875;4; 24,6; 24,6; 0,0; 0,0;247,5; 112,2
2020-04-13 13:02:59; 7,3; 79; 3,9; 980,6243;1006,1875;4; 24,5; 24,5; 0,0; 0,0;247,5; 112,2
2020-04-13 13:12:59; 7,2; 80; 4,0; 980,8118;1006,3750;4; 24,5; 24,5; 0,0; 0,0;247,5; 112,9
2020-04-13 13:23:00; 7,1; 81; 4,1; 980,8118;1006,3750;4; 24,5; 24,5; 0,0; 0,0;247,5; 112,9
2020-04-13 13:32:59; 6,7; 81; 3,7; 980,9368;1006,5000;4; 24,5; 24,5; 0,0; 0,0;247,5; 113,6
2020-04-13 13:43:00; 6,6; 80; 3,4; 980,9368;1006,5000;4; 24,6; 24,6; 0,0; 0,0;247,5; 113,6
2020-04-13 13:52:59; 6,6; 80; 3,4; 981,0618;1006,6250;4; 24,6; 24,6; 0,0; 0,0;247,5; 113,6
2020-04-13 14:03:00; 6,8; 79; 3,4; 981,0618;1006,6250;4; 24,6; 24,6; 0,0; 0,0;247,5; 113,6
2020-04-13 14:12:59; 7,0; 76; 3,1; 981,1243;1006,6875;4; 24,7; 24,7; 0,0; 0,0;247,5; 113,6
2020-04-13 14:23:00; 7,1; 74; 2,8; 981,1243;1006,6875;4; 24,7; 24,7; 0,0; 0,0;247,5; 113,6
2020-04-13 14:32:59; 7,6; 73; 3,1; 980,9368;1006,5000;4; 24,7; 24,7; 0,0; 0,0;247,5; 113,6
2020-04-13 14:42:59; 7,9; 69; 2,6; 980,9368;1006,5000;4; 24,7; 24,7; 0,0; 0,0;247,5; 113,6
2020-04-13 14:53:00; 7,9; 65; 1,7; 981,1868;1006,7500;4; 24,8; 24,8; 0,0; 0,0;247,5; 113,6
2020-04-13 15:02:59; 8,2; 64; 1,8; 981,1868;1006,7500;4; 24,9; 24,9; 0,0; 0,0;247,5; 113,6
2020-04-13 15:13:00; 8,9; 63; 2,2; 981,1243;1006,6875;4; 24,9; 24,9; 0,0; 0,0;247,5; 113,6
2020-04-13 15:22:59; 9,8; 55; 1,2; 981,1243;1006,6875;4; 25,1; 25,1; 0,0; 0,0;247,5; 113,6
2020-04-13 15:33:00; 10,2; 53; 1,0; 981,5618;1007,1250;4; 25,2; 25,2; 0,0; 0,0;247,5; 113,6
2020-04-13 15:42:59; 10,0; 49; -0,2; 981,5618;1007,1250;4; 25,3; 25,3; 0,0; 0,0;247,5; 113,6
2020-04-13 15:53:00; 10,1; 49; -0,1; 981,8118;1007,3750;4; 25,3; 25,3; 0,0; 0,0;247,5; 113,6
2020-04-13 16:02:59; 9,9; 47; -0,9; 981,8118;1007,3750;4; 25,3; 25,3; 0,0; 0,0;247,5; 113,6
2020-04-13 16:12:59; 10,0; 48; -0,5; 981,5618;1007,1250;4; 25,3; 25,3; 0,0; 0,0;247,5; 113,6
2020-04-13 16:23:00; 10,1; 46; -1,0; 981,5618;1007,1250;4; 25,4; 25,4; 0,0; 0,0;247,5; 113,6
2020-04-13 16:32:59; 9,9; 47; -0,9; 981,3743;1006,9375;4; 25,3; 25,3; 0,0; 0,0;247,5; 113,6
2020-04-13 16:43:00; 9,9; 45; -1,5; 981,3743;1006,9375;4; 25,3; 25,3; 0,0; 0,0;247,5; 113,6
2020-04-13 16:52:59; 9,5; 45; -1,8; 981,3743;1006,9375;4; 25,3; 25,3; 0,0; 0,0;247,5; 113,6
2020-04-13 17:03:00; 9,8; 45; -1,6; 981,3743;1006,9375;4; 25,3; 25,3; 0,0; 0,0;247,5; 113,6
2020-04-13 17:12:59; 9,5; 44; -2,2; 981,2493;1006,8125;4; 25,2; 25,2; 0,0; 0,0;247,5; 113,6
2020-04-13 17:23:00; 9,4; 43; -2,6; 981,2493;1006,8125;4; 25,2; 25,2; 0,0; 0,0;247,5; 113,6
2020-04-13 17:32:59; 9,9; 43; -2,1; 981,4368;1007,0000;4; 25,2; 25,2; 0,0; 0,0;247,5; 113,6
2020-04-13 17:42:59; 9,6; 42; -2,7; 981,4368;1007,0000;4; 25,2; 25,2; 0,0; 0,0;247,5; 113,6
2020-04-13 17:53:00; 9,1; 42; -3,1; 981,4368;1007,0000;4; 25,1; 25,1; 0,0; 0,0;247,5; 113,6
2020-04-13 18:02:59; 8,8; 41; -3,7; 981,4368;1007,0000;4; 25,0; 25,0; 0,0; 0,0;247,5; 113,6
2020-04-13 18:13:00; 8,9; 43; -3,0; 981,4368;1007,0000;4; 25,0; 25,0; 0,0; 0,0;247,5; 113,6
2020-04-13 18:22:59; 9,0; 42; -3,2; 981,4368;1007,0000;4; 24,9; 24,9; 0,0; 0,0;247,5; 113,6
2020-04-13 18:33:00; 8,9; 41; -3,6; 981,3743;1006,9375;4; 24,9; 24,9; 0,0; 0,0;247,5; 113,6
2020-04-13 18:42:59; 8,7; 42; -3,5; 981,3743;1006,9375;4; 24,8; 24,8; 0,0; 0,0;247,5; 113,6
2020-04-13 18:53:00; 8,6; 41; -3,9; 981,2493;1006,8125;4; 24,8; 24,8; 0,0; 0,0;247,5; 113,6
2020-04-13 19:02:59; 8,4; 42; -3,8; 981,2493;1006,8125;4; 24,7; 24,7; 0,0; 0,0;247,5; 113,6
2020-04-13 19:12:59; 8,3; 41; -4,2; 981,3743;1006,9375;4; 24,7; 24,7; 0,0; 0,0;247,5; 113,6
2020-04-13 19:23:00; 8,1; 41; -4,4; 981,3743;1006,9375;4; 24,7; 24,7; 0,0; 0,0;247,5; 113,6
2020-04-13 19:32:59; 7,9; 42; -4,2; 981,3743;1006,9375;4; 24,6; 24,6; 0,0; 0,0;247,5; 113,6
2020-04-13 19:43:00; 7,9; 43; -3,9; 981,3743;1006,9375;4; 24,6; 24,6; 0,0; 0,0;247,5; 113,6
2020-04-13 19:52:59; 7,7; 43; -4,1; 981,3743;1006,9375;4; 24,6; 24,6; 0,0; 0,0;247,5; 113,6
2020-04-13 20:03:00; 7,7; 43; -4,1; 981,3743;1006,9375;4; 24,5; 24,5; 0,0; 0,0;247,5; 113,6
2020-04-13 20:12:59; 7,5; 42; -4,6; 981,6243;1007,1875;4; 24,5; 24,5; 0,0; 0,0;247,5; 113,6
2020-04-13 20:23:00; 7,4; 41; -5,0; 981,6243;1007,1875;4; 24,5; 24,5; 0,0; 0,0;247,5; 113,6
2020-04-13 20:32:59; 7,3; 41; -5,1; 981,6868;1007,2500;4; 24,5; 24,5; 0,0; 0,0;247,5; 113,6
2020-04-13 20:42:59; 7,1; 42; -5,0; 981,6868;1007,2500;4; 24,5; 24,5; 0,0; 0,0;247,5; 113,6
2020-04-13 20:53:00; 6,9; 42; -5,1; 981,9368;1007,5000;4; 24,5; 24,5; 0,0; 0,0;247,5; 113,6
2020-04-13 21:02:59; 6,7; 43; -5,0; 981,9368;1007,5000;4; 24,5; 24,5; 0,0; 0,0;247,5; 113,6
2020-04-13 21:13:00; 6,6; 44; -4,8; 981,9368;1007,5000;4; 24,5; 24,5; 0,0; 0,0;247,5; 113,6
2020-04-13 21:22:59; 6,4; 45; -4,7; 981,9368;1007,5000;4; 24,4; 24,4; 0,0; 0,0;247,5; 113,6
2020-04-13 21:33:00; 6,3; 46; -4,5; 981,8743;1007,4375;4; 24,4; 24,4; 0,0; 0,0;247,5; 113,6
2020-04-13 21:42:59; 6,1; 46; -4,7; 981,8743;1007,4375;4; 24,4; 24,4; 0,0; 0,0;247,5; 113,6
2020-04-13 21:53:00; 5,9; 47; -4,6; 981,8743;1007,4375;4; 24,4; 24,4; 0,0; 0,0;247,5; 113,6
2020-04-13 22:02:59; 5,8; 47; -4,6; 981,8743;1007,4375;4; 24,4; 24,4; 0,0; 0,0;247,5; 113,6
2020-04-13 22:12:59; 5,8; 48; -4,4; 981,9993;1007,5625;4; 24,4; 24,4; 0,0; 0,0;247,5; 113,6
2020-04-13 22:23:00; 5,7; 48; -4,5; 981,9993;1007,5625;4; 24,4; 24,4; 0,0; 0,0;247,5; 113,6
2020-04-13 22:32:59; 5,6; 48; -4,6; 981,9368;1007,5000;4; 24,4; 24,4; 0,0; 0,0;247,5; 113,6
2020-04-13 22:43:00; 5,5; 48; -4,6; 981,9368;1007,5000;4; 24,4; 24,4; 0,0; 0,0;247,5; 113,6
2020-04-13 22:52:59; 5,5; 49; -4,4; 981,9993;1007,5625;4; 24,4; 24,4; 0,0; 0,0;247,5; 113,6
2020-04-13 23:03:00; 5,3; 49; -4,6; 981,9993;1007,5625;4; 24,4; 24,4; 0,0; 0,0;247,5; 113,6
2020-04-13 23:12:59; 5,3; 49; -4,6; 982,1243;1007,6875;4; 24,4; 24,4; 0,0; 0,0;247,5; 113,6
2020-04-13 23:23:00; 5,2; 48; -4,9; 982,1243;1007,6875;4; 24,3; 24,3; 0,0; 0,0;247,5; 113,6
2020-04-13 23:32:59; 5,2; 49; -4,6; 982,1243;1007,6875;4; 24,4; 24,4; 0,0; 0,0;247,5; 113,6
2020-04-13 23:42:59; 5,1; 49; -4,7; 982,1243;1007,6875;4; 24,4; 24,4; 0,0; 0,0;247,5; 113,6
2020-04-13 23:53:00; 5,1; 49; -4,7; 982,1868;1007,7500;4; 24,3; 24,3; 0,0; 0,0;247,5; 113,6
2020-04-14 00:02:59; 5,1; 49; -4,7; 982,1868;1007,7500;4; 24,4; 24,4; 0,0; 0,0;247,5; 113,6
2020-04-14 00:13:00; 4,9; 50; -4,7; 982,3118;1007,8750;4; 24,4; 24,4; 0,0; 0,0;247,5; 113,6
2020-04-14 00:22:59; 4,9; 49; -4,9; 982,3118;1007,8750;4; 24,4; 24,4; 0,0; 0,0;247,5; 113,6
2020-04-14 00:33:00; 4,8; 49; -5,0; 982,5618;1008,1250;4; 24,3; 24,3; 0,0; 0,0;247,5; 113,6
2020-04-14 00:42:59; 4,7; 49; -5,1; 982,5618;1008,1250;4; 24,3; 24,3; 0,0; 0,0;247,5; 113,6
2020-04-14 00:53:00; 4,6; 49; -5,2; 982,6868;1008,2500;4; 24,3; 24,3; 0,0; 0,0;247,5; 113,6
2020-04-14 01:02:59; 4,5; 48; -5,6; 982,6868;1008,2500;4; 24,3; 24,3; 0,0; 0,0;247,5; 113,6
2020-04-14 01:12:59; 4,3; 48; -5,7; 982,8118;1008,3750;5; 24,3; 24,3; 0,0; 0,0;247,5; 113,6
2020-04-14 01:23:00; 4,2; 48; -5,8; 982,8118;1008,3750;5; 24,3; 24,3; 0,0; 0,0;247,5; 113,6
2020-04-14 01:32:59; 4,0; 50; -5,5; 983,0618;1008,6250;5; 24,3; 24,3; 0,0; 0,0;247,5; 113,6
2020-04-14 01:43:00; 3,8; 51; -5,4; 983,0618;1008,6250;5; 24,3; 24,3; 0,0; 0,0;247,5; 113,6
2020-04-14 01:52:59; 3,6; 51; -5,6; 982,9993;1008,5625;5; 24,2; 24,2; 0,0; 0,0;247,5; 113,6
2020-04-14 02:03:00; 3,5; 52; -5,4; 982,9993;1008,5625;5; 24,2; 24,2; 0,0; 0,0;247,5; 113,6
2020-04-14 02:12:59; 3,5; 51; -5,7; 982,9993;1008,5625;5; 24,2; 24,2; 0,0; 0,0;247,5; 113,6
2020-04-14 02:23:00; 3,3; 52; -5,6; 982,9993;1008,5625;5; 24,2; 24,2; 0,0; 0,0;247,5; 113,6
2020-04-14 02:32:59; 3,1; 52; -5,8; 983,1243;1008,6875;5; 24,2; 24,2; 0,0; 0,0;247,5; 113,6
2020-04-14 02:42:59; 3,0; 52; -5,9; 983,1243;1008,6875;5; 24,2; 24,2; 0,0; 0,0;247,5; 113,6
2020-04-14 02:53:00; 2,9; 53; -5,7; 983,1868;1008,7500;5; 24,2; 24,2; 0,0; 0,0;247,5; 113,6
2020-04-14 03:02:59; 2,8; 54; -5,6; 983,1868;1008,7500;5; 24,2; 24,2; 0,0; 0,0;247,5; 113,6
2020-04-14 03:13:00; 2,7; 56; -5,2; 983,1868;1008,7500;5; 24,2; 24,2; 0,0; 0,0;247,5; 113,6
2020-04-14 03:22:59; 2,5; 57; -5,2; 983,1868;1008,7500;5; 24,2; 24,2; 0,0; 0,0;247,5; 113,6
2020-04-14 03:33:00; 2,5; 58; -4,9; 983,4368;1009,0000;5; 24,2; 24,2; 0,0; 0,0;247,5; 113,6
2020-04-14 03:42:59; 2,5; 58; -4,9; 983,4368;1009,0000;5; 24,2; 24,2; 0,0; 0,0;247,5; 113,6
2020-04-14 03:53:00; 2,6; 60; -4,4; 983,5618;1009,1250;5; 24,2; 24,2; 0,0; 0,0;247,5; 113,6
2020-04-14 04:02:59; 2,6; 59; -4,6; 983,5618;1009,1250;5; 24,2; 24,2; 0,0; 0,0;247,5; 113,6
2020-04-14 04:12:59; 2,5; 60; -4,5; 983,6868;1009,2500;5; 24,2; 24,2; 0,0; 0,0;247,5; 113,6
2020-04-14 04:23:00; 2,5; 60; -4,5; 983,6868;1009,2500;5; 24,2; 24,2; 0,0; 0,0;247,5; 113,6
2020-04-14 04:32:59; 2,4; 61; -4,4; 983,8118;1009,3750;5; 24,2; 24,2; 0,0; 0,0;247,5; 113,6
2020-04-14 04:43:00; 2,3; 62; -4,2; 983,8118;1009,3750;5; 24,2; 24,2; 0,0; 0,0;247,5; 113,6
2020-04-14 04:52:59; 2,3; 63; -4,0; 983,9993;1009,5625;5; 24,2; 24,2; 0,0; 0,0;247,5; 113,6
2020-04-14 05:03:00; 2,3; 64; -3,8; 983,9993;1009,5625;5; 24,2; 24,2; 0,0; 0,0;247,5; 113,6
2020-04-14 05:12:59; 2,2; 65; -3,7; 983,9368;1009,5000;5; 24,2; 24,2; 0,0; 0,0;247,5; 113,6
2020-04-14 05:23:00; 2,1; 68; -3,2; 983,9368;1009,5000;5; 24,2; 24,2; 0,0; 0,0;247,5; 113,6
2020-04-14 05:32:59; 1,9; 70; -3,0; 983,9368;1009,5000;5; 24,2; 24,2; 0,0; 0,0;247,5; 113,6
2020-04-14 05:42:59; 2,0; 68; -3,3; 983,9368;1009,5000;5; 24,2; 24,2; 0,0; 0,0;247,5; 113,6
2020-04-14 05:53:00; 2,0; 68; -3,3; 984,1243;1009,6875;5; 24,2; 24,2; 0,0; 0,0;247,5; 113,6
2020-04-14 06:02:59; 2,1; 67; -3,4; 984,1243;1009,6875;5; 24,2; 24,2; 0,0; 0,0;247,5; 113,6
2020-04-14 06:13:00; 2,1; 68; -3,2; 984,1868;1009,7500;5; 24,2; 24,2; 0,0; 0,0;247,5; 113,6
2020-04-14 06:22:59; 2,1; 68; -3,2; 984,1868;1009,7500;5; 24,2; 24,2; 0,0; 0,0;247,5; 113,6
2020-04-14 06:33:00; 1,9; 68; -3,4; 984,6243;1010,1875;5; 24,2; 24,2; 0,0; 0,0;247,5; 113,6
2020-04-14 06:42:59; 1,7; 69; -3,4; 984,6243;1010,1875;5; 24,2; 24,2; 0,0; 0,0;247,5; 113,6
2020-04-14 06:53:00; 1,7; 70; -3,2; 984,8118;1010,3750;5; 24,2; 24,2; 0,0; 0,0;247,5; 113,6
2020-04-14 07:02:59; 1,7; 70; -3,2; 984,8118;1010,3750;5; 24,2; 24,2; 0,0; 0,0;247,5; 113,6
2020-04-14 07:12:59; 1,7; 70; -3,2; 984,9993;1010,5625;5; 24,2; 24,2; 0,0; 0,0;247,5; 113,6
2020-04-14 07:23:00; 1,7; 70; -3,2; 984,9993;1010,5625;5; 24,2; 24,2; 0,0; 0,0;247,5; 113,6
2020-04-14 07:32:59; 1,9; 70; -3,0; 985,3118;1010,8750;5; 24,3; 24,3; 0,0; 0,0;247,5; 113,6
2020-04-14 07:43:00; 2,1; 70; -2,8; 985,3118;1010,8750;5; 24,3; 24,3; 0,0; 0,0;247,5; 113,6
2020-04-14 07:52:59; 2,3; 69; -2,8; 985,6243;1011,1875;5; 24,3; 24,3; 0,0; 0,0;247,5; 113,6
2020-04-14 08:03:00; 2,5; 68; -2,8; 985,6243;1011,1875;5; 24,3; 24,3; 0,0; 0,0;247,5; 113,6
2020-04-14 08:12:59; 2,9; 68; -2,4; 985,7493;1011,3125;5; 24,4; 24,4; 0,0; 0,0;247,5; 113,6
2020-04-14 08:23:00; 3,3; 67; -2,2; 985,7493;1011,3125;5; 24,4; 24,4; 0,0; 0,0;247,5; 113,6
2020-04-14 08:32:59; 3,7; 66; -2,1; 986,0618;1011,6250;5; 24,5; 24,5; 0,0; 0,0;247,5; 113,6
2020-04-14 08:42:59; 4,0; 65; -2,0; 986,0618;1011,6250;5; 24,7; 24,7; 0,0; 0,0;247,5; 113,6
2020-04-14 08:53:00; 4,1; 64; -2,1; 986,3743;1011,9375;5; 24,9; 24,9; 0,0; 0,0;247,5; 113,6
2020-04-14 09:02:59; 4,9; 62; -1,8; 986,3743;1011,9375;5; 25,1; 25,1; 0,0; 0,0;247,5; 113,6
2020-04-14 09:13:00; 5,0; 60; -2,1; 986,6868;1012,2500;5; 25,2; 25,2; 0,0; 0,0;247,5; 113,6
2020-04-14 09:22:59; 5,5; 59; -1,9; 986,6868;1012,2500;5; 25,3; 25,3; 0,0; 0,0;247,5; 113,6
2020-04-14 09:33:00; 6,3; 57; -1,6; 986,8743;1012,4375;5; 25,6; 25,6; 0,0; 0,0;247,5; 113,6
2020-04-14 09:42:59; 5,7; 57; -2,2; 986,8743;1012,4375;5; 25,8; 25,8; 0,0; 0,0;247,5; 113,6
2020-04-14 09:53:00; 6,7; 55; -1,7; 986,8743;1012,4375;5; 26,0; 26,0; 0,0; 0,0;247,5; 113,6
2020-04-14 10:02:59; 7,3; 52; -1,9; 986,8743;1012,4375;5; 26,0; 26,0; 0,0; 0,0;247,5; 113,6
2020-04-14 10:12:59; 8,0; 50; -1,8; 987,3118;1012,8750;5; 26,1; 26,1; 0,0; 0,0;247,5; 113,6
2020-04-14 10:23:00; 8,4; 49; -1,7; 987,3118;1012,8750;5; 26,4; 26,4; 0,0; 0,0;247,5; 113,6
2020-04-14 10:32:59; 9,0; 46; -2,0; 987,6243;1013,1875;6; 26,6; 26,6; 0,0; 0,0;247,5; 113,6
2020-04-14 10:43:00; 8,3; 44; -3,2; 987,6243;1013,1875;6; 26,5; 26,5; 0,0; 0,0;247,5; 113,6
2020-04-14 10:52:59; 8,9; 43; -3,0; 987,6243;1013,1875;6; 26,7; 26,7; 0,0; 0,0;247,5; 113,6
2020-04-14 11:03:00; 8,6; 42; -3,6; 987,6243;1013,1875;6; 26,6; 26,6; 0,0; 0,0;247,5; 113,6
2020-04-14 11:12:59; 8,7; 42; -3,5; 987,7493;1013,3125;6; 26,6; 26,6; 0,0; 0,0;247,5; 113,6
2020-04-14 11:23:00; 9,0; 40; -3,9; 987,7493;1013,3125;6; 26,6; 26,6; 0,0; 0,0;247,5; 113,6
2020-04-14 11:32:59; 9,0; 38; -4,6; 988,0618;1013,6250;6; 26,6; 26,6; 0,0; 0,0;247,5; 113,6
2020-04-14 11:42:59; 8,7; 39; -4,5; 988,0618;1013,6250;6; 26,5; 26,5; 0,0; 0,0;247,5; 113,6
2020-04-14 11:53:00; 9,9; 38; -3,8; 987,8118;1013,3750;6; 26,6; 26,6; 0,0; 0,0;247,5; 113,6
2020-04-14 12:02:59; 8,9; 35; -5,7; 987,8118;1013,3750;6; 26,5; 26,5; 0,0; 0,0;247,5; 113,6
2020-04-14 12:13:00; 10,3; 33; -5,3; 988,0618;1013,6250;6; 26,6; 26,6; 0,0; 0,0;247,5; 113,6
2020-04-14 12:22:59; 9,8; 33; -5,7; 988,0618;1013,6250;6; 26,7; 26,7; 0,0; 0,0;247,5; 113,6
2020-04-14 12:33:00; 10,5; 32; -5,5; 988,1243;1013,6875;6; 26,9; 26,9; 0,0; 0,0;247,5; 113,6
2020-04-14 12:42:59; 10,7; 30; -6,2; 988,1243;1013,6875;6; 27,1; 27,1; 0,0; 0,0;247,5; 113,6
2020-04-14 12:53:00; 10,4; 31; -6,0; 988,4368;1014,0000;6; 27,0; 27,0; 0,0; 0,0;247,5; 113,6
2020-04-14 13:02:59; 10,1; 33; -5,5; 988,4368;1014,0000;6; 26,8; 26,8; 0,0; 0,0;247,5; 113,6
2020-04-14 13:12:59; 9,3; 32; -6,6; 988,3118;1013,8750;6; 26,6; 26,6; 0,0; 0,0;247,5; 113,6
2020-04-14 13:23:00; 10,3; 32; -5,7; 988,3118;1013,8750;6; 26,6; 26,6; 0,0; 0,0;247,5; 113,6
2020-04-14 13:32:59; 9,5; 31; -6,8; 988,3118;1013,8750;6; 26,5; 26,5; 0,0; 0,0;247,5; 113,6
2020-04-14 13:43:00; 9,7; 32; -6,2; 988,3118;1013,8750;6; 26,5; 26,5; 0,0; 0,0;247,5; 113,6
2020-04-14 13:52:59; 10,4; 32; -5,6; 988,3118;1013,8750;6; 26,5; 26,5; 0,0; 0,0;247,5; 113,6
2020-04-14 14:03:00; 9,5; 33; -6,0; 988,3118;1013,8750;6; 26,3; 26,3; 0,0; 0,0;247,5; 113,6
2020-04-14 14:12:59; 10,1; 31; -6,3; 988,3118;1013,8750;6; 26,1; 26,1; 0,0; 0,0;247,5; 113,6
2020-04-14 14:23:00; 9,7; 34; -5,4; 988,3118;1013,8750;6; 26,1; 26,1; 0,0; 0,0;247,5; 113,6
2020-04-14 14:32:59; 9,5; 35; -5,2; 988,3118;1013,8750;6; 26,0; 26,0; 0,0; 0,0;247,5; 113,6
2020-04-14 14:42:59; 9,9; 34; -5,2; 988,3118;1013,8750;6; 26,0; 26,0; 0,0; 0,0;247,5; 113,6
2020-04-14 14:53:00; 8,7; 36; -5,5; 988,1868;1013,7500;6; 25,9; 25,9; 0,0; 0,0;247,5; 113,6
2020-04-14 15:02:59; 8,9; 35; -5,7; 988,1868;1013,7500;6; 25,7; 25,7; 0,0; 0,0;247,5; 113,6
2020-04-14 15:13:00; 9,6; 35; -5,1; 988,0618;1013,6250;6; 25,8; 25,8; 0,0; 0,0;247,5; 113,6
2020-04-14 15:22:59; 9,1; 36; -5,2; 988,0618;1013,6250;6; 25,7; 25,7; 0,0; 0,0;247,5; 113,6
2020-04-14 15:33:00; 9,6; 34; -5,5; 988,0618;1013,6250;6; 25,6; 25,6; 0,0; 0,0;247,5; 113,6
2020-04-14 15:42:59; 9,1; 36; -5,2; 988,0618;1013,6250;6; 25,6; 25,6; 0,0; 0,0;247,5; 113,6
2020-04-14 15:53:00; 9,2; 36; -5,1; 988,1868;1013,7500;6; 25,5; 25,5; 0,0; 0,0;247,5; 113,6
2020-04-14 16:02:59; 9,4; 35; -5,3; 988,1868;1013,7500;6; 25,5; 25,5; 0,0; 0,0;247,5; 113,6
2020-04-14 16:12:59; 8,7; 36; -5,5; 988,3118;1013,8750;6; 25,4; 25,4; 0,0; 0,0;247,5; 113,6
2020-04-14 16:23:00; 8,7; 37; -5,2; 988,3118;1013,8750;6; 25,3; 25,3; 0,0; 0,0;247,5; 113,6
2020-04-14 16:32:59; 9,2; 36; -5,1; 988,0618;1013,6250;6; 25,4; 25,4; 0,0; 0,0;247,5; 113,6
2020-04-14 16:43:00; 9,5; 34; -5,6; 988,0618;1013,6250;6; 25,4; 25,4; 0,0; 0,0;247,5; 113,6
2020-04-14 16:52:59; 8,7; 34; -6,3; 987,9993;1013,5625;6; 25,3; 25,3; 0,0; 0,0;247,5; 113,6
2020-04-14 17:03:00; 8,6; 37; -5,3; 987,9993;1013,5625;6; 25,1; 25,1; 0,0; 0,0;247,5; 113,6
2020-04-14 17:12:59; 8,6; 38; -4,9; 987,8743;1013,4375;6; 25,1; 25,1; 0,0; 0,0;247,5; 113,6
2020-04-14 17:23:00; 8,9; 37; -5,0; 987,8743;1013,4375;6; 25,1; 25,1; 0,0; 0,0;247,5; 113,6
2020-04-14 17:32:59; 8,7; 35; -5,9; 987,7493;1013,3125;6; 25,0; 25,0; 0,0; 0,0;247,5; 113,6
2020-04-14 17:42:59; 8,7; 36; -5,5; 987,7493;1013,3125;6; 25,0; 25,0; 0,0; 0,0;247,5; 113,6
2020-04-14 17:53:00; 9,1; 35; -5,6; 987,4368;1013,0000;6; 25,0; 25,0; 0,0; 0,0;247,5; 113,6
2020-04-14 18:02:59; 8,9; 35; -5,7; 987,4368;1013,0000;6; 25,0; 25,0; 0,0; 0,0;247,5; 113,6
2020-04-14 18:13:00; 8,9; 36; -5,4; 987,5618;1013,1250;6; 24,9; 24,9; 0,0; 0,0;247,5; 113,6
2020-04-14 18:22:59; 9,0; 36; -5,3; 987,5618;1013,1250;6; 24,9; 24,9; 0,0; 0,0;247,5; 113,6
2020-04-14 18:33:00; 9,1; 36; -5,2; 987,4993;1013,0625;6; 24,9; 24,9; 0,0; 0,0;247,5; 113,6
2020-04-14 18:42:59; 8,9; 36; -5,4; 987,4993;1013,0625;6; 24,8; 24,8; 0,0; 0,0;247,5; 113,6
2020-04-14 18:53:00; 8,6; 37; -5,3; 987,6243;1013,1875;6; 24,7; 24,7; 0,0; 0,0;247,5; 113,6
2020-04-14 19:02:59; 8,3; 37; -5,5; 987,6243;1013,1875;6; 24,7; 24,7; 0,0; 0,0;247,5; 113,6
2020-04-14 19:12:59; 8,0; 37; -5,8; 987,3743;1012,9375;6; 24,7; 24,7; 0,0; 0,0;247,5; 113,6
2020-04-14 19:23:00; 7,8; 38; -5,6; 987,3743;1012,9375;6; 24,6; 24,6; 0,0; 0,0;247,5; 113,6
2020-04-14 19:32:59; 7,7; 38; -5,7; 987,5618;1013,1250;6; 24,6; 24,6; 0,0; 0,0;247,5; 113,6
2020-04-14 19:43:00; 7,5; 39; -5,6; 987,5618;1013,1250;6; 24,5; 24,5; 0,0; 0,0;247,5; 113,6
2020-04-14 19:52:59; 7,2; 40; -5,5; 987,4993;1013,0625;6; 24,5; 24,5; 0,0; 0,0;247,5; 113,6
2020-04-14 20:03:00; 7,1; 41; -5,3; 987,4993;1013,0625;6; 24,5; 24,5; 0,0; 0,0;247,5; 113,6
2020-04-14 20:12:59; 6,8; 41; -5,5; 987,6868;1013,2500;6; 24,4; 24,4; 0,0; 0,0;247,5; 113,6
2020-04-14 20:23:00; 6,7; 42; -5,3; 987,6868;1013,2500;6; 24,4; 24,4; 0,0; 0,0;247,5; 113,6
2020-04-14 20:32:59; 6,7; 42; -5,3; 987,9368;1013,5000;6; 24,4; 24,4; 0,0; 0,0;247,5; 113,6
2020-04-14 20:42:59; 6,6; 43; -5,1; 987,9368;1013,5000;6; 24,3; 24,3; 0,0; 0,0;247,5; 113,6
2020-04-14 20:53:00; 6,5; 44; -4,9; 987,8118;1013,3750;6; 24,3; 24,3; 0,0; 0,0;247,5; 113,6
2020-04-14 21:02:59; 6,3; 44; -5,1; 987,8118;1013,3750;6; 24,4; 24,4; 0,0; 0,0;247,5; 113,6
2020-04-14 21:13:00; 6,1; 45; -4,9; 987,9368;1013,5000;6; 24,4; 24,4; 0,0; 0,0;247,5; 113,6
2020-04-14 21:22:59; 6,0; 45; -5,0; 987,9368;1013,5000;6; 24,3; 24,3; 0,0; 0,0;247,5; 113,6
2020-04-14 21:33:00; 5,9; 45; -5,1; 987,9993;1013,5625;6; 24,3; 24,3; 0,0; 0,0;247,5; 113,6
2020-04-14 21:42:59; 5,7; 45; -5,3; 987,9993;1013,5625;6; 24,3; 24,3; 0,0; 0,0;247,5; 113,6
2020-04-14 21:53:00; 5,6; 46; -5,1; 988,1868;1013,7500;6; 24,3; 24,3; 0,0; 0,0;247,5; 113,6
2020-04-14 22:02:59; 5,5; 46; -5,2; 988,1868;1013,7500;6; 24,2; 24,2; 0,0; 0,0;247,5; 113,6
2020-04-14 22:12:59; 5,3; 47; -5,1; 988,0618;1013,6250;6; 24,2; 24,2; 0,0; 0,0;247,5; 113,6
2020-04-14 22:23:00; 5,2; 48; -4,9; 988,0618;1013,6250;6; 24,2; 24,2; 0,0; 0,0;247,5; 113,6
2020-04-14 22:32:59; 5,1; 48; -5,0; 988,1868;1013,7500;6; 24,2; 24,2; 0,0; 0,0;247,5; 113,6
2020-04-14 22:43:00; 5,1; 48; -5,0; 988,1868;1013,7500;6; 24,2; 24,2; 0,0; 0,0;247,5; 113,6
2020-04-14 22:52:59; 5,0; 49; -4,8; 988,0618;1013,6250;6; 24,2; 24,2; 0,0; 0,0;247,5; 113,6
2020-04-14 23:03:00; 5,0; 49; -4,8; 988,0618;1013,6250;6; 24,2; 24,2; 0,0; 0,0;247,5; 113,6
2020-04-14 23:12:59; 5,1; 50; -4,5; 987,9368;1013,5000;6; 24,2; 24,2; 0,0; 0,0;247,5; 113,6
2020-04-14 23:23:00; 5,1; 50; -4,5; 987,9368;1013,5000;6; 24,2; 24,2; 0,0; 0,0;247,5; 113,6
2020-04-14 23:32:59; 4,9; 50; -4,7; 987,9368;1013,5000;6; 24,2; 24,2; 0,0; 0,0;247,5; 113,6
2020-04-14 23:42:59; 4,8; 51; -4,5; 987,9368;1013,5000;6; 24,2; 24,2; 0,0; 0,0;247,5; 113,6
2020-04-14 23:53:00; 4,7; 51; -4,6; 987,8743;1013,4375;6; 24,2; 24,2; 0,0; 0,0;247,5; 113,6
2020-04-15 00:02:59; 4,6; 53; -4,2; 987,8743;1013,4375;6; 24,2; 24,2; 0,0; 0,0;247,5; 113,6
2020-04-15 00:13:00; 4,7; 54; -3,8; 988,1243;1013,6875;6; 24,2; 24,2; 0,0; 0,0;247,5; 113,6
2020-04-15 00:22:59; 4,6; 54; -3,9; 988,1243;1013,6875;6; 24,2; 24,2; 0,0; 0,0;247,5; 113,6
2020-04-15 00:33:00; 4,5; 54; -4,0; 988,0618;1013,6250;6; 24,2; 24,2; 0,0; 0,0;247,5; 113,6
2020-04-15 00:42:59; 4,3; 55; -3,9; 988,0618;1013,6250;6; 24,2; 24,2; 0,0; 0,0;247,5; 113,6
2020-04-15 00:53:00; 4,3; 55; -3,9; 988,2493;1013,8125;6; 24,2; 24,2; 0,0; 0,0;247,5; 113,6
2020-04-15 01:02:59; 4,3; 56; -3,7; 988,2493;1013,8125;6; 24,2; 24,2; 0,0; 0,0;247,5; 113,6
2020-04-15 01:12:59; 4,3; 56; -3,7; 988,3743;1013,9375;6; 24,2; 24,2; 0,0; 0,0;247,5; 113,6
2020-04-15 01:23:00; 4,3; 56; -3,7; 988,3743;1013,9375;6; 24,2; 24,2; 0,0; 0,0;247,5; 113,6
2020-04-15 01:32:59; 4,2; 56; -3,8; 987,9993;1013,5625;6; 24,1; 24,1; 0,0; 0,0;247,5; 113,6
2020-04-15 01:43:00; 4,1; 56; -3,9; 987,9993;1013,5625;6; 24,1; 24,1; 0,0; 0,0;247,5; 113,6
2020-04-15 01:52:59; 4,0; 57; -3,8; 988,4368;1014,0000;6; 24,1; 24,1; 0,0; 0,0;247,5; 113,6
2020-04-15 02:03:00; 4,0; 58; -3,5; 988,4368;1014,0000;6; 24,1; 24,1; 0,0; 0,0;247,5; 113,6
2020-04-15 02:12:59; 4,0; 58; -3,5; 988,2493;1013,8125;6; 24,1; 24,1; 0,0; 0,0;247,5; 113,6
2020-04-15 02:23:00; 4,0; 58; -3,5; 988,2493;1013,8125;6; 24,1; 24,1; 0,0; 0,0;247,5; 113,6
2020-04-15 02:32:59; 3,9; 59; -3,4; 987,8743;1013,4375;6; 24,1; 24,1; 0,0; 0,0;247,5; 113,6
2020-04-15 02:42:59; 3,8; 59; -3,5; 987,8743;1013,4375;6; 24,1; 24,1; 0,0; 0,0;247,5; 113,6
2020-04-15 02:53:00; 3,8; 59; -3,5; 987,9993;1013,5625;6; 24,1; 24,1; 0,0; 0,0;247,5; 113,6
2020-04-15 03:02:59; 3,8; 59; -3,5; 987,9993;1013,5625;6; 24,1; 24,1; 0,0; 0,0;247,5; 113,6
2020-04-15 03:13:00; 3,8; 60; -3,3; 987,8743;1013,4375;6; 24,1; 24,1; 0,0; 0,0;247,5; 113,6
2020-04-15 03:22:59; 3,7; 60; -3,3; 987,8743;1013,4375;6; 24,1; 24,1; 0,0; 0,0;247,5; 113,6
2020-04-15 03:33:00; 3,7; 60; -3,3; 988,0618;1013,6250;6; 24,1; 24,1; 0,0; 0,0;247,5; 113,6
2020-04-15 03:42:59; 3,7; 60; -3,3; 988,0618;1013,6250;6; 24,1; 24,1; 0,0; 0,0;247,5; 113,6
2020-04-15 03:53:00; 3,7; 60; -3,3; 988,3118;1013,8750;6; 24,0; 24,0; 0,0; 0,0;247,5; 113,6
2020-04-15 04:02:59; 3,7; 60; -3,3; 988,3118;1013,8750;6; 24,0; 24,0; 0,0; 0,0;247,5; 113,6
2020-04-15 04:12:59; 3,7; 60; -3,3; 988,1868;1013,7500;6; 24,0; 24,0; 0,0; 0,0;247,5; 113,6
2020-04-15 04:23:00; 3,5; 60; -3,5; 988,1868;1013,7500;6; 24,0; 24,0; 0,0; 0,0;247,5; 113,6
2020-04-15 04:32:59; 3,6; 61; -3,2; 987,9368;1013,5000;6; 24,0; 24,0; 0,0; 0,0;247,5; 113,6
2020-04-15 04:43:00; 3,5; 61; -3,3; 987,9368;1013,5000;6; 24,0; 24,0; 0,0; 0,0;247,5; 113,6
2020-04-15 04:52:59; 3,6; 61; -3,2; 987,8118;1013,3750;6; 24,0; 24,0; 0,0; 0,0;247,5; 113,6
2020-04-15 05:03:00; 3,6; 60; -3,4; 987,8118;1013,3750;6; 24,0; 24,0; 0,0; 0,0;247,5; 113,6
2020-04-15 05:12:59; 3,6; 61; -3,2; 987,8743;1013,4375;6; 24,0; 24,0; 0,0; 0,0;247,5; 113,6
2020-04-15 05:23:00; 3,6; 61; -3,2; 987,8743;1013,4375;6; 24,0; 24,0; 0,0; 0,0;247,5; 113,6
2020-04-15 05:32:59; 3,5; 61; -3,3; 987,9993;1013,5625;6; 24,0; 24,0; 0,0; 0,0;247,5; 113,6
2020-04-15 05:42:59; 3,5; 62; -3,1; 987,9993;1013,5625;6; 24,0; 24,0; 0,0; 0,0;247,5; 113,6
2020-04-15 05:53:00; 3,5; 62; -3,1; 987,9368;1013,5000;6; 24,0; 24,0; 0,0; 0,0;247,5; 113,6
2020-04-15 06:02:59; 3,5; 62; -3,1; 987,9368;1013,5000;6; 24,0; 24,0; 0,0; 0,0;247,5; 113,6
2020-04-15 06:13:00; 3,4; 62; -3,2; 987,7493;1013,3125;6; 24,0; 24,0; 0,0; 0,0;247,5; 113,6
2020-04-15 06:22:59; 3,4; 62; -3,2; 987,7493;1013,3125;6; 24,0; 24,0; 0,0; 0,0;247,5; 113,6
2020-04-15 06:33:00; 3,3; 62; -3,3; 987,8118;1013,3750;6; 24,0; 24,0; 0,0; 0,0;247,5; 113,6
2020-04-15 06:42:59; 3,3; 63; -3,1; 987,8118;1013,3750;6; 24,0; 24,0; 0,0; 0,0;247,5; 113,6
2020-04-15 06:53:00; 3,4; 62; -3,2; 988,0618;1013,6250;6; 24,0; 24,0; 0,0; 0,0;247,5; 113,6
2020-04-15 07:02:59; 3,5; 63; -2,9; 988,0618;1013,6250;6; 24,0; 24,0; 0,0; 0,0;247,5; 113,6
2020-04-15 07:12:59; 3,5; 63; -2,9; 987,9993;1013,5625;6; 24,0; 24,0; 0,0; 0,0;247,5; 113,6
2020-04-15 07:23:00; 3,7; 63; -2,7; 987,9993;1013,5625;6; 24,1; 24,1; 0,0; 0,0;247,5; 113,6
2020-04-15 07:32:59; 3,9; 62; -2,7; 987,9368;1013,5000;6; 24,1; 24,1; 0,0; 0,0;247,5; 113,6
2020-04-15 07:43:00; 4,1; 62; -2,5; 987,9368;1013,5000;6; 24,1; 24,1; 0,0; 0,0;247,5; 113,6
2020-04-15 07:52:59; 4,3; 62; -2,3; 988,3118;1013,8750;6; 24,2; 24,2; 0,0; 0,0;247,5; 113,6
2020-04-15 08:03:00; 4,6; 62; -2,1; 988,3118;1013,8750;6; 24,2; 24,2; 0,0; 0,0;247,5; 113,6
2020-04-15 08:12:59; 4,9; 61; -2,0; 988,1868;1013,7500;6; 24,2; 24,2; 0,0; 0,0;247,5; 113,6
2020-04-15 08:23:00; 5,2; 62; -1,5; 988,1868;1013,7500;6; 24,2; 24,2; 0,0; 0,0;247,5; 113,6
2020-04-15 08:32:59; 5,6; 60; -1,6; 988,6243;1014,1875;6; 24,3; 24,3; 0,0; 0,0;247,5; 113,6
2020-04-15 08:42:59; 5,9; 59; -1,5; 988,6243;1014,1875;6; 24,4; 24,4; 0,0; 0,0;247,5; 113,6
2020-04-15 08:53:00; 6,4; 59; -1,0; 988,6243;1014,1875;6; 24,5; 24,5; 0,0; 0,0;247,5; 113,6
2020-04-15 09:02:59; 7,0; 57; -0,9; 988,6243;1014,1875;6; 24,6; 24,6; 0,0; 0,0;247,5; 113,6
2020-04-15 09:13:00; 7,3; 56; -0,9; 988,4993;1014,0625;6; 24,7; 24,7; 0,0; 0,0;247,5; 113,6
2020-04-15 09:22:59; 7,8; 55; -0,7; 988,4993;1014,0625;6; 24,8; 24,8; 0,0; 0,0;247,5; 113,6
2020-04-15 09:33:00; 8,3; 53; -0,7; 988,5618;1014,1250;6; 25,0; 25,0; 0,0; 0,0;247,5; 113,6
2020-04-15 09:42:59; 8,5; 51; -1,1; 988,5618;1014,1250;6; 25,2; 25,2; 0,0; 0,0;247,5; 113,6
2020-04-15 09:53:00; 8,7; 52; -0,6; 988,7493;1014,3125;6; 25,3; 25,3; 0,0; 0,0;247,5; 113,6
2020-04-15 10:02:59; 8,9; 50; -1,0; 988,7493;1014,3125;6; 25,3; 25,3; 0,0; 0,0;247,5; 113,6
2020-04-15 10:12:59; 9,1; 50; -0,8; 988,8118;1014,3750;6; 25,4; 25,4; 0,0; 0,0;247,5; 113,6
2020-04-15 10:23:00; 9,3; 50; -0,6; 988,8118;1014,3750;6; 25,5; 25,5; 0,0; 0,0;247,5; 113,6
2020-04-15 10:32:59; 9,7; 51; 0,0; 989,1243;1014,6875;6; 25,8; 25,8; 0,0; 0,0;247,5; 113,6
2020-04-15 10:43:00; 10,1; 49; -0,1; 989,1243;1014,6875;6; 25,8; 25,8; 0,0; 0,0;247,5; 113,6
2020-04-15 10:52:59; 10,1; 48; -0,4; 988,7493;1014,3125;6; 25,9; 25,9; 0,0; 0,0;247,5; 113,6
2020-04-15 11:03:00; 9,7; 49; -0,5; 988,7493;1014,3125;6; 25,9; 25,9; 0,0; 0,0;247,5; 113,6
2020-04-15 11:12:59; 9,8; 49; -0,4; 988,9993;1014,5625;6; 25,9; 25,9; 0,0; 0,0;247,5; 113,6
2020-04-15 11:23:00; 10,3; 48; -0,2; 988,9993;1014,5625;6; 26,0; 26,0; 0,0; 0,0;247,5; 113,6
2020-04-15 11:32:59; 10,6; 48; 0,0; 989,1868;1014,7500;6; 26,0; 26,0; 0,0; 0,0;247,5; 113,6
2020-04-15 11:42:59; 10,8; 47; -0,1; 989,1868;1014,7500;6; 26,0; 26,0; 0,0; 0,0;247,5; 113,6
2020-04-15 11:53:00; 11,1; 47; 0,2; 989,0618;1014,6250;6; 26,1; 26,1; 0,0; 0,0;247,5; 113,6
2020-04-15 12:02:59; 11,5; 45; 0,0; 989,0618;1014,6250;6; 26,3; 26,3; 0,0; 0,0;247,5; 113,6
2020-04-15 12:13:00; 11,2; 46; 0,0; 989,1868;1014,7500;6; 26,3; 26,3; 0,0; 0,0;247,5; 113,6
2020-04-15 12:22:59; 12,2; 45; 0,6; 989,1868;1014,7500;6; 26,5; 26,5; 0,0; 0,0;247,5; 113,6
2020-04-15 12:33:00; 12,7; 43; 0,4; 988,7493;1014,3125;6; 26,7; 26,7; 0,0; 0,0;247,5; 113,6
2020-04-15 12:42:59; 12,4; 43; 0,2; 988,7493;1014,3125;6; 26,8; 26,8; 0,0; 0,0;247,5; 113,6
2020-04-15 12:53:00; 13,1; 42; 0,5; 988,6868;1014,2500;6; 26,8; 26,8; 0,0; 0,0;247,5; 113,6
2020-04-15 13:02:59; 13,5; 40; 0,2; 988,6868;1014,2500;6; 26,7; 26,7; 0,0; 0,0;247,5; 113,6
2020-04-15 13:12:59; 13,7; 39; 0,0; 988,7493;1014,3125;6; 26,6; 26,6; 0,0; 0,0;247,5; 113,6
2020-04-15 13:23:00; 13,9; 39; 0,2; 988,7493;1014,3125;6; 26,6; 26,6; 0,0; 0,0;247,5; 113,6
2020-04-15 13:32:59; 13,7; 41; 0,7; 988,3743;1013,9375;6; 26,6; 26,6; 0,0; 0,0;247,5; 113,6
2020-04-15 13:43:00; 14,1; 39; 0,3; 988,3743;1013,9375;6; 26,6; 26,6; 0,0; 0,0;247,5; 113,6
2020-04-15 13:52:59; 14,7; 39; 0,9; 988,6243;1014,1875;6; 26,5; 26,5; 0,0; 0,0;247,5; 113,6
2020-04-15 14:03:00; 15,1; 37; 0,5; 988,6243;1014,1875;6; 26,4; 26,4; 0,0; 0,0;247,5; 113,6
2020-04-15 14:12:59; 15,4; 36; 0,4; 988,0618;1013,6250;6; 26,4; 26,4; 0,0; 0,0;247,5; 113,6
2020-04-15 14:23:00; 15,0; 38; 0,8; 988,0618;1013,6250;6; 26,3; 26,3; 0,0; 0,0;247,5; 113,6
2020-04-15 14:32:59; 15,0; 36; 0,0; 988,1243;1013,6875;6; 26,3; 26,3; 0,0; 0,0;247,5; 113,6
2020-04-15 14:42:59; 14,9; 37; 0,3; 988,1243;1013,6875;6; 26,1; 26,1; 0,0; 0,0;247,5; 113,6
2020-04-15 14:53:00; 14,8; 37; 0,2; 988,0618;1013,6250;6; 26,0; 26,0; 0,0; 0,0;247,5; 113,6
2020-04-15 15:02:59; 15,7; 36; 0,7; 988,0618;1013,6250;6; 26,0; 26,0; 0,0; 0,0;247,5; 113,6
2020-04-15 15:13:00; 15,7; 35; 0,3; 987,8118;1013,3750;6; 26,0; 26,0; 0,0; 0,0;247,5; 113,6
2020-04-15 15:22:59; 15,9; 34; 0,1; 987,8118;1013,3750;6; 26,0; 26,0; 0,0; 0,0;247,5; 113,6
2020-04-15 15:33:00; 15,6; 35; 0,2; 987,7493;1013,3125;6; 25,9; 25,9; 0,0; 0,0;247,5; 113,6
2020-04-15 15:42:59; 15,8; 35; 0,4; 987,7493;1013,3125;6; 25,9; 25,9; 0,0; 0,0;247,5; 113,6
2020-04-15 15:53:00; 15,8; 34; 0,0; 987,6243;1013,1875;6; 25,9; 25,9; 0,0; 0,0;247,5; 113,6
2020-04-15 16:02:59; 16,3; 35; 0,8; 987,6243;1013,1875;6; 25,8; 25,8; 0,0; 0,0;247,5; 113,6
2020-04-15 16:12:59; 16,0; 34; 0,1; 987,3118;1012,8750;6; 25,8; 25,8; 0,0; 0,0;247,5; 113,6
2020-04-15 16:23:00; 15,5; 34; -0,3; 987,3118;1012,8750;6; 25,8; 25,8; 0,0; 0,0;247,5; 113,6
2020-04-15 16:32:59; 15,5; 35; 0,1; 987,2493;1012,8125;6; 25,6; 25,6; 0,0; 0,0;247,5; 113,6
2020-04-15 16:43:00; 16,0; 34; 0,1; 987,2493;1012,8125;6; 25,6; 25,6; 0,0; 0,0;247,5; 113,6
2020-04-15 16:52:59; 15,9; 35; 0,5; 986,9993;1012,5625;6; 25,6; 25,6; 0,0; 0,0;247,5; 113,6
2020-04-15 17:03:00; 15,8; 33; -0,4; 986,9993;1012,5625;6; 25,5; 25,5; 0,0; 0,0;247,5; 113,6
2020-04-15 17:12:59; 15,8; 34; 0,0; 986,7493;1012,3125;5; 25,5; 25,5; 0,0; 0,0;247,5; 113,6
2020-04-15 17:23:00; 15,7; 33; -0,5; 986,7493;1012,3125;5; 25,4; 25,4; 0,0; 0,0;247,5; 113,6
2020-04-15 17:32:59; 15,9; 34; 0,1; 986,4993;1012,0625;5; 25,4; 25,4; 0,0; 0,0;247,5; 113,6
2020-04-15 17:42:59; 15,5; 34; -0,3; 986,4993;1012,0625;5; 25,3; 25,3; 0,0; 0,0;247,5; 113,6
2020-04-15 17:53:00; 15,5; 34; -0,3; 986,5618;1012,1250;5; 25,3; 25,3; 0,0; 0,0;247,5; 113,6
2020-04-15 18:02:59; 15,6; 34; -0,2; 986,5618;1012,1250;5; 25,3; 25,3; 0,0; 0,0;247,5; 113,6
2020-04-15 18:13:00; 15,7; 34; -0,1; 986,3743;1011,9375;5; 25,2; 25,2; 0,0; 0,0;247,5; 113,6
2020-04-15 18:22:59; 15,7; 33; -0,5; 986,3743;1011,9375;5; 25,2; 25,2; 0,0; 0,0;247,5; 113,6
2020-04-15 18:33:00; 15,6; 33; -0,6; 986,1868;1011,7500;5; 25,1; 25,1; 0,0; 0,0;247,5; 113,6
2020-04-15 18:42:59; 15,3; 35; -0,1; 986,1868;1011,7500;5; 25,0; 25,0; 0,0; 0,0;247,5; 113,6
2020-04-15 18:53:00; 15,0; 35; -0,3; 986,2493;1011,8125;5; 25,0; 25,0; 0,0; 0,0;247,5; 113,6
2020-04-15 19:02:59; 14,6; 36; -0,3; 986,2493;1011,8125;5; 24,9; 24,9; 0,0; 0,0;247,5; 113,6
2020-04-15 19:12:59; 14,3; 36; -0,6; 986,0618;1011,6250;5; 24,9; 24,9; 0,0; 0,0;247,5; 113,6
2020-04-15 19:23:00; 14,1; 36; -0,8; 986,0618;1011,6250;5; 24,9; 24,9; 0,0; 0,0;247,5; 113,6
2020-04-15 19:32:59; 13,8; 37; -0,6; 986,1868;1011,7500;5; 24,8; 24,8; 0,0; 0,0;247,5; 113,6
2020-04-15 19:43:00; 13,5; 38; -0,5; 986,1868;1011,7500;5; 24,7; 24,7; 0,0; 0,0;247,5; 113,6
2020-04-15 19:52:59; 13,3; 38; -0,7; 986,0618;1011,6250;5; 24,7; 24,7; 0,0; 0,0;247,5; 113,6
2020-04-15 20:03:00; 13,1; 39; -0,5; 986,0618;1011,6250;5; 24,7; 24,7; 0,0; 0,0;247,5; 113,6
2020-04-15 20:12:59; 12,9; 40; -0,4; 986,2493;1011,8125;5; 24,6; 24,6; 0,0; 0,0;247,5; 113,6
2020-04-15 20:23:00; 12,7; 40; -0,6; 986,2493;1011,8125;5; 24,6; 24,6; 0,0; 0,0;247,5; 113,6
2020-04-15 20:32:59; 12,5; 41; -0,4; 986,1243;1011,6875;5; 24,5; 24,5; 0,0; 0,0;247,5; 113,6
2020-04-15 20:42:59; 12,2; 42; -0,3; 986,1243;1011,6875;5; 24,5; 24,5; 0,0; 0,0;247,5; 113,6
2020-04-15 20:53:00; 11,8; 43; -0,4; 986,1868;1011,7500;5; 24,5; 24,5; 0,0; 0,0;247,5; 113,6
2020-04-15 21:02:59; 11,7; 43; -0,5; 986,1868;1011,7500;5; 24,5; 24,5; 0,0; 0,0;247,5; 113,6
2020-04-15 21:13:00; 11,1; 44; -0,7; 986,0618;1011,6250;5; 24,4; 24,4; 0,0; 0,0;247,5; 113,6
2020-04-15 21:22:59; 11,0; 45; -0,5; 986,0618;1011,6250;5; 24,4; 24,4; 0,0; 0,0;247,5; 113,6
2020-04-15 21:33:00; 10,9; 45; -0,6; 985,9368;1011,5000;5; 24,4; 24,4; 0,0; 0,0;247,5; 113,6
2020-04-15 21:42:59; 10,7; 45; -0,8; 985,9368;1011,5000;5; 24,3; 24,3; 0,0; 0,0;247,5; 113,6
2020-04-15 21:53:00; 10,3; 46; -0,8; 985,9368;1011,5000;5; 24,4; 24,4; 0,0; 0,0;247,5; 113,6
2020-04-15 22:02:59; 10,1; 47; -0,7; 985,9368;1011,5000;5; 24,4; 24,4; 0,0; 0,0;247,5; 113,6
2020-04-15 22:12:59; 9,9; 48; -0,6; 985,6868;1011,2500;5; 24,3; 24,3; 0,0; 0,0;247,5; 113,6
2020-04-15 22:23:00; 9,8; 49; -0,4; 985,6868;1011,2500;5; 24,3; 24,3; 0,0; 0,0;247,5; 113,6
2020-04-15 22:32:59; 9,5; 49; -0,7; 985,7493;1011,3125;5; 24,3; 24,3; 0,0; 0,0;247,5; 113,6
2020-04-15 22:43:00; 9,4; 50; -0,5; 985,7493;1011,3125;5; 24,2; 24,2; 0,0; 0,0;247,5; 113,6
2020-04-15 22:52:59; 9,3; 49; -0,9; 985,6868;1011,2500;5; 24,2; 24,2; 0,0; 0,0;247,5; 113,6
2020-04-15 23:03:00; 9,2; 49; -1,0; 985,6868;1011,2500;5; 24,2; 24,2; 0,0; 0,0;247,5; 113,6
2020-04-15 23:12:59; 9,1; 49; -1,1; 985,4368;1011,0000;5; 24,2; 24,2; 0,0; 0,0;247,5; 113,6
2020-04-15 23:23:00; 8,9; 50; -1,0; 985,4368;1011,0000;5; 24,2; 24,2; 0,0; 0,0;247,5; 113,6
2020-04-15 23:32:59; 8,7; 51; -0,9; 985,4993;1011,0625;5; 24,2; 24,2; 0,0; 0,0;247,5; 113,6
2020-04-15 23:42:59; 8,7; 51; -0,9; 985,4993;1011,0625;5; 24,2; 24,2; 0,0; 0,0;247,5; 113,6
2020-04-15 23:53:00; 8,6; 51; -1,0; 985,3118;1010,8750;5; 24,2; 24,2; 0,0; 0,0;247,5; 113,6
2020-04-16 00:02:59; 8,5; 52; -0,8; 985,3118;1010,8750;5; 24,2; 24,2; 0,0; 0,0;247,5; 113,6
2020-04-16 00:13:00; 8,3; 53; -0,7; 985,3118;1010,8750;5; 24,1; 24,1; 0,0; 0,0;247,5; 113,6
2020-04-16 00:22:59; 8,3; 53; -0,7; 985,3118;1010,8750;5; 24,1; 24,1; 0,0; 0,0;247,5; 113,6
2020-04-16 00:33:00; 8,2; 53; -0,8; 985,3118;1010,8750;5; 24,1; 24,1; 0,0; 0,0;247,5; 113,6
2020-04-16 00:42:59; 8,0; 54; -0,7; 985,3118;1010,8750;5; 24,1; 24,1; 0,0; 0,0;247,5; 113,6
2020-04-16 00:53:00; 7,9; 54; -0,8; 985,0618;1010,6250;5; 24,1; 24,1; 0,0; 0,0;247,5; 113,6
2020-04-16 01:02:59; 7,8; 55; -0,7; 985,0618;1010,6250;5; 24,1; 24,1; 0,0; 0,0;247,5; 113,6
2020-04-16 01:12:59; 7,6; 55; -0,9; 984,6243;1010,1875;5; 24,1; 24,1; 0,0; 0,0;247,5; 113,6
2020-04-16 01:23:00; 7,5; 56; -0,7; 984,6243;1010,1875;5; 24,1; 24,1; 0,0; 0,0;247,5; 113,6
2020-04-16 01:32:59; 7,7; 55; -0,8; 984,4368;1010,0000;5; 24,1; 24,1; 0,0; 0,0;247,5; 113,6
2020-04-16 01:43:00; 7,6; 56; -0,6; 984,4368;1010,0000;5; 24,0; 24,0; 0,0; 0,0;247,5; 113,6
2020-04-16 01:52:59; 7,5; 56; -0,7; 984,2493;1009,8125;5; 24,0; 24,0; 0,0; 0,0;247,5; 113,6
2020-04-16 02:03:00; 7,5; 56; -0,7; 984,2493;1009,8125;5; 24,0; 24,0; 0,0; 0,0;247,5; 113,6
2020-04-16 02:12:59; 7,4; 56; -0,8; 984,1868;1009,7500;5; 24,0; 24,0; 0,0; 0,0;247,5; 113,6
2020-04-16 02:23:00; 7,5; 57; -0,5; 984,1868;1009,7500;5; 24,0; 24,0; 0,0; 0,0;247,5; 113,6
2020-04-16 02:32:59; 7,6; 58; -0,1; 984,1243;1009,6875;5; 24,0; 24,0; 0,0; 0,0;247,5; 113,6
2020-04-16 02:42:59; 7,7; 58; 0,0; 984,1243;1009,6875;5; 24,0; 24,0; 0,0; 0,0;247,5; 113,6
2020-04-16 02:53:00; 7,4; 58; -0,3; 983,9993;1009,5625;5; 24,0; 24,0; 0,0; 0,0;247,5; 113,6
2020-04-16 03:02:59; 7,2; 59; -0,3; 983,9993;1009,5625;5; 24,0; 24,0; 0,0; 0,0;247,5; 113,6
2020-04-16 03:13:00; 7,0; 59; -0,5; 983,8743;1009,4375;5; 24,0; 24,0; 0,0; 0,0;247,5; 113,6
2020-04-16 03:22:59; 7,0; 61; 0,0; 983,8743;1009,4375;5; 24,0; 24,0; 0,0; 0,0;247,5; 113,6
2020-04-16 03:33:00; 6,9; 61; -0,1; 984,1243;1009,6875;5; 24,0; 24,0; 0,0; 0,0;247,5; 113,6
2020-04-16 03:42:59; 6,8; 60; -0,4; 984,1243;1009,6875;5; 24,0; 24,0; 0,0; 0,0;247,5; 113,6
2020-04-16 03:53:00; 6,5; 61; -0,5; 983,6243;1009,1875;5; 24,0; 24,0; 0,0; 0,0;247,5; 113,6
2020-04-16 04:02:59; 6,5; 62; -0,3; 983,6243;1009,1875;5; 24,0; 24,0; 0,0; 0,0;247,5; 113,6
2020-04-16 04:12:59; 6,4; 62; -0,4; 983,7493;1009,3125;5; 24,0; 24,0; 0,0; 0,0;247,5; 113,6
2020-04-16 04:23:00; 6,5; 63; 0,0; 983,7493;1009,3125;5; 24,0; 24,0; 0,0; 0,0;247,5; 113,6
2020-04-16 04:32:59; 6,6; 62; -0,2; 983,6868;1009,2500;5; 24,0; 24,0; 0,0; 0,0;247,5; 113,6
2020-04-16 04:43:00; 6,5; 62; -0,3; 983,6868;1009,2500;5; 24,0; 24,0; 0,0; 0,0;247,5; 113,6
2020-04-16 04:52:59; 6,3; 62; -0,4; 983,7493;1009,3125;5; 24,0; 24,0; 0,0; 0,0;247,5; 113,6
2020-04-16 05:03:00; 6,0; 63; -0,5; 983,7493;1009,3125;5; 24,0; 24,0; 0,0; 0,0;247,5; 113,6
2020-04-16 05:12:59; 5,8; 63; -0,7; 983,8118;1009,3750;5; 24,0; 24,0; 0,0; 0,0;247,5; 113,6
2020-04-16 05:23:00; 5,6; 63; -0,9; 983,8118;1009,3750;5; 24,0; 24,0; 0,0; 0,0;247,5; 113,6
2020-04-16 05:32:59; 5,5; 66; -0,3; 983,6243;1009,1875;5; 24,0; 24,0; 0,0; 0,0;247,5; 113,6
2020-04-16 05:42:59; 6,2; 64; -0,1; 983,6243;1009,1875;5; 24,0; 24,0; 0,0; 0,0;247,5; 113,6
2020-04-16 05:53:00; 5,8; 63; -0,7; 983,4368;1009,0000;5; 24,0; 24,0; 0,0; 0,0;247,5; 113,6
2020-04-16 06:02:59; 5,7; 63; -0,8; 983,4368;1009,0000;5; 24,0; 24,0; 0,0; 0,0;247,5; 113,6
2020-04-16 06:13:00; 5,4; 64; -0,9; 983,6243;1009,1875;5; 24,0; 24,0; 0,0; 0,0;247,5; 113,6
2020-04-16 06:22:59; 5,1; 65; -0,9; 983,6243;1009,1875;5; 24,0; 24,0; 0,0; 0,0;247,5; 113,6
2020-04-16 06:33:00; 5,1; 65; -0,9; 983,3743;1008,9375;5; 24,0; 24,0; 0,0; 0,0;247,5; 113,6
2020-04-16 06:42:59; 5,2; 65; -0,8; 983,3743;1008,9375;5; 24,0; 24,0; 0,0; 0,0;247,5; 113,6
2020-04-16 06:53:00; 5,2; 65; -0,8; 983,2493;1008,8125;5; 24,0; 24,0; 0,0; 0,0;247,5; 113,6
2020-04-16 07:02:59; 5,2; 66; -0,6; 983,2493;1008,8125;5; 24,0; 24,0; 0,0; 0,0;247,5; 113,6
2020-04-16 07:12:59; 5,3; 66; -0,5; 983,5618;1009,1250;5; 24,0; 24,0; 0,0; 0,0;247,5; 113,6
2020-04-16 07:23:00; 5,4; 66; -0,4; 983,5618;1009,1250;5; 24,0; 24,0; 0,0; 0,0;247,5; 113,6
2020-04-16 07:32:59; 5,6; 66; -0,3; 983,5618;1009,1250;5; 24,1; 24,1; 0,0; 0,0;247,5; 113,6
2020-04-16 07:43:00; 5,9; 66; 0,0; 983,5618;1009,1250;5; 24,1; 24,1; 0,0; 0,0;247,5; 113,6
2020-04-16 07:52:59; 6,3; 66; 0,4; 983,5618;1009,1250;5; 24,1; 24,1; 0,0; 0,0;247,5; 113,6
2020-04-16 08:03:00; 7,0; 66; 1,1; 983,5618;1009,1250;5; 24,2; 24,2; 0,0; 0,0;247,5; 113,6
2020-04-16 08:12:59; 7,8; 62; 1,0; 983,5618;1009,1250;5; 24,2; 24,2; 0,0; 0,0;247,5; 113,6
2020-04-16 08:23:00; 8,6; 61; 1,5; 983,5618;1009,1250;5; 24,3; 24,3; 0,0; 0,0;247,5; 113,6
2020-04-16 08:32:59; 9,6; 59; 2,0; 983,4993;1009,0625;5; 24,4; 24,4; 0,0; 0,0;247,5; 113,6
2020-04-16 08:42:59; 10,8; 58; 2,9; 983,4993;1009,0625;5; 24,6; 24,6; 0,0; 0,0;247,5; 113,6
2020-04-16 08:53:00; 12,8; 51; 2,9; 984,1868;1009,7500;5; 24,8; 24,8; 0,0; 0,0;247,5; 113,6
2020-04-16 09:02:59; 12,3; 51; 2,4; 984,1868;1009,7500;5; 25,1; 25,1; 0,0; 0,0;247,5; 113,6
2020-04-16 09:13:00; 13,1; 48; 2,3; 983,3743;1008,9375;5; 25,2; 25,2; 0,0; 0,0;247,5; 113,6
2020-04-16 09:22:59; 13,3; 48; 2,5; 983,3743;1008,9375;5; 25,3; 25,3; 0,0; 0,0;247,5; 113,6
2020-04-16 09:33:00; 13,7; 47; 2,6; 983,4993;1009,0625;5; 25,4; 25,4; 0,0; 0,0;247,5; 113,6
2020-04-16 09:42:59; 14,8; 46; 3,3; 983,4993;1009,0625;5; 25,7; 25,7; 0,0; 0,0;247,5; 113,6
2020-04-16 09:53:00; 15,8; 44; 3,6; 983,3743;1008,9375;5; 25,8; 25,8; 0,0; 0,0;247,5; 113,6
2020-04-16 10:02:59; 16,6; 43; 4,0; 983,3743;1008,9375;5; 25,9; 25,9; 0,0; 0,0;247,5; 113,6
2020-04-16 10:12:59; 17,1; 42; 4,1; 983,5618;1009,1250;5; 26,0; 26,0; 0,0; 0,0;247,5; 113,6
2020-04-16 10:23:00; 17,9; 39; 3,7; 983,5618;1009,1250;5; 26,2; 26,2; 0,0; 0,0;247,5; 113,6
2020-04-16 10:32:59; 18,2; 38; 3,6; 983,6243;1009,1875;5; 26,4; 26,4; 0,0; 0,0;247,5; 113,6
2020-04-16 10:43:00; 18,6; 36; 3,2; 983,6243;1009,1875;5; 26,5; 26,5; 0,0; 0,0;247,5; 113,6
2020-04-16 10:52:59; 18,4; 36; 3,1; 983,7493;1009,3125;5; 26,6; 26,6; 0,0; 0,0;247,5; 113,6
2020-04-16 11:03:00; 19,1; 36; 3,7; 983,7493;1009,3125;5; 26,8; 26,8; 0,0; 0,0;247,5; 113,6
2020-04-16 11:12:59; 19,3; 36; 3,9; 983,6243;1009,1875;5; 26,8; 26,8; 0,0; 0,0;247,5; 113,6
2020-04-16 11:23:00; 19,5; 34; 3,2; 983,6243;1009,1875;5; 26,9; 26,9; 0,0; 0,0;247,5; 113,6
2020-04-16 11:32:59; 20,7; 34; 4,3; 984,4368;1010,0000;5; 27,0; 27,0; 0,0; 0,0;247,5; 113,6
2020-04-16 11:42:59; 20,8; 33; 3,9; 984,4368;1010,0000;5; 27,0; 27,0; 0,0; 0,0;247,5; 113,6
2020-04-16 11:53:00; 20,4; 33; 3,6; 983,4368;1009,0000;5; 27,1; 27,1; 0,0; 0,0;247,5; 113,6
2020-04-16 12:02:59; 20,5; 33; 3,7; 983,4368;1009,0000;5; 27,1; 27,1; 0,0; 0,0;247,5; 113,6
2020-04-16 12:13:00; 20,7; 33; 3,8; 983,3118;1008,8750;5; 27,3; 27,3; 0,0; 0,0;247,5; 113,6
2020-04-16 12:22:59; 21,3; 32; 3,9; 983,3118;1008,8750;5; 27,4; 27,4; 0,0; 0,0;247,5; 113,6
2020-04-16 12:33:00; 21,7; 32; 4,3; 983,1868;1008,7500;5; 27,5; 27,5; 0,0; 0,0;247,5; 113,6
2020-04-16 12:42:59; 21,6; 31; 3,7; 983,1868;1008,7500;5; 27,4; 27,4; 0,0; 0,0;247,5; 113,6
2020-04-16 12:53:00; 20,7; 32; 3,4; 983,3118;1008,8750;5; 27,3; 27,3; 0,0; 0,0;247,5; 113,6
2020-04-16 13:02:59; 20,8; 33; 3,9; 983,3118;1008,8750;5; 27,1; 27,1; 0,0; 0,0;247,5; 113,6
2020-04-16 13:12:59; 21,5; 33; 4,5; 983,1868;1008,7500;5; 27,1; 27,1; 0,0; 0,0;247,5; 113,6
2020-04-16 13:23:00; 21,5; 31; 3,7; 983,1868;1008,7500;5; 26,9; 26,9; 0,0; 0,0;247,5; 113,6
2020-04-16 13:32:59; 21,9; 32; 4,5; 982,9993;1008,5625;5; 26,9; 26,9; 0,0; 0,0;247,5; 113,6
2020-04-16 13:43:00; 22,0; 31; 4,1; 982,9993;1008,5625;5; 27,0; 27,0; 0,0; 0,0;247,5; 113,6
2020-04-16 13:52:59; 22,0; 31; 4,1; 983,1868;1008,7500;5; 26,9; 26,9; 0,0; 0,0;247,5; 113,6
2020-04-16 14:03:00; 21,9; 32; 4,5; 983,1868;1008,7500;5; 26,8; 26,8; 0,0; 0,0;247,5; 113,6
2020-04-16 14:12:59; 22,0; 32; 4,5; 982,6243;1008,1875;5; 26,8; 26,8; 0,0; 0,0;247,5; 113,6
2020-04-16 14:23:00; 22,1; 31; 4,2; 982,6243;1008,1875;5; 26,7; 26,7; 0,0; 0,0;247,5; 113,6
2020-04-16 14:32:59; 22,5; 32; 5,0; 982,6243;1008,1875;5; 26,7; 26,7; 0,0; 0,0;247,5; 113,6
2020-04-16 14:42:59; 23,2; 31; 5,1; 982,6243;1008,1875;5; 26,6; 26,6; 0,0; 0,0;247,5; 113,6
2020-04-16 14:53:00; 23,9; 31; 5,7; 982,2493;1007,8125;5; 26,6; 26,6; 0,0; 0,0;247,5; 113,6
2020-04-16 15:02:59; 23,3; 30; 4,7; 982,2493;1007,8125;5; 26,5; 26,5; 0,0; 0,0;247,5; 113,6
2020-04-16 15:13:00; 23,3; 30; 4,7; 981,9368;1007,5000;5; 26,4; 26,4; 0,0; 0,0;247,5; 113,6
2020-04-16 15:22:59; 23,5; 30; 4,9; 981,9368;1007,5000;5; 26,4; 26,4; 0,0; 0,0;247,5; 113,6
2020-04-16 15:33:00; 23,5; 30; 4,9; 981,6868;1007,2500;5; 26,3; 26,3; 0,0; 0,0;247,5; 113,6
2020-04-16 15:42:59; 23,6; 31; 5,5; 981,6868;1007,2500;5; 26,3; 26,3; 0,0; 0,0;247,5; 113,6
2020-04-16 15:53:00; 23,8; 31; 5,7; 981,4368;1007,0000;5; 26,3; 26,3; 0,0; 0,0;247,5; 113,6
2020-04-16 16:02:59; 24,0; 31; 5,8; 981,4368;1007,0000;5; 26,2; 26,2; 0,0; 0,0;247,5; 113,6
2020-04-16 16:12:59; 23,5; 31; 5,4; 981,1243;1006,6875;5; 26,1; 26,1; 0,0; 0,0;247,5; 113,6
2020-04-16 16:23:00; 23,5; 30; 4,9; 981,1243;1006,6875;5; 26,1; 26,1; 0,0; 0,0;247,5; 113,6
2020-04-16 16:32:59; 23,1; 31; 5,0; 980,8118;1006,3750;4; 26,0; 26,0; 0,0; 0,0;247,5; 113,6
2020-04-16 16:43:00; 23,0; 32; 5,4; 980,8118;1006,3750;4; 26,0; 26,0; 0,0; 0,0;247,5; 113,6
2020-04-16 16:52:59; 23,1; 32; 5,5; 980,6243;1006,1875;4; 25,9; 25,9; 0,0; 0,0;247,5; 113,6
2020-04-16 17:03:00; 22,8; 32; 5,2; 980,6243;1006,1875;4; 25,9; 25,9; 0,0; 0,0;247,5; 113,6
2020-04-16 17:12:59; 22,8; 31; 4,8; 980,5618;1006,1250;4; 25,8; 25,8; 0,0; 0,0;247,5; 113,6
2020-04-16 17:23:00; 22,7; 32; 5,2; 980,5618;1006,1250;4; 25,8; 25,8; 0,0; 0,0;247,5; 113,6
2020-04-16 17:32:59; 22,9; 32; 5,3; 980,3743;1005,9375;4; 25,7; 25,7; 0,0; 0,0;247,5; 113,6
2020-04-16 17:42:59; 22,7; 33; 5,6; 980,3743;1005,9375;4; 25,6; 25,6; 0,0; 0,0;247,5; 113,6
2020-04-16 17:53:00; 22,7; 33; 5,6; 980,3743;1005,9375;4; 25,6; 25,6; 0,0; 0,0;247,5; 113,6
2020-04-16 18:02:59; 22,8; 33; 5,7; 980,3743;1005,9375;4; 25,5; 25,5; 0,0; 0,0;247,5; 113,6
2020-04-16 18:13:00; 22,7; 33; 5,6; 979,9993;1005,5625;4; 25,4; 25,4; 0,0; 0,0;247,5; 113,6
2020-04-16 18:22:59; 22,8; 33; 5,7; 979,9993;1005,5625;4; 25,4; 25,4; 0,0; 0,0;247,5; 113,6
2020-04-16 18:33:00; 23,0; 33; 5,9; 979,9368;1005,5000;4; 25,3; 25,3; 0,0; 0,0;247,5; 113,6
2020-04-16 18:42:59; 22,7; 33; 5,6; 979,9368;1005,5000;4; 25,3; 25,3; 0,0; 0,0;247,5; 113,6
2020-04-16 18:53:00; 22,3; 33; 5,2; 979,8118;1005,3750;4; 25,2; 25,2; 0,0; 0,0;247,5; 113,6
2020-04-16 19:02:59; 21,7; 34; 5,2; 979,8118;1005,3750;4; 25,1; 25,1; 0,0; 0,0;247,5; 113,6
2020-04-16 19:12:59; 21,4; 35; 5,3; 979,6868;1005,2500;4; 25,1; 25,1; 0,0; 0,0;247,5; 113,6
2020-04-16 19:23:00; 21,1; 35; 5,0; 979,6868;1005,2500;4; 25,1; 25,1; 0,0; 0,0;247,5; 113,6
2020-04-16 19:32:59; 20,7; 36; 5,1; 979,4368;1005,0000;4; 25,0; 25,0; 0,0; 0,0;247,5; 113,6
2020-04-16 19:43:00; 20,1; 37; 5,0; 979,4368;1005,0000;4; 24,9; 24,9; 0,0; 0,0;247,5; 113,6
2020-04-16 19:52:59; 19,8; 39; 5,4; 979,4993;1005,0625;4; 24,9; 24,9; 0,0; 0,0;247,5; 113,6
2020-04-16 20:03:00; 19,1; 40; 5,2; 979,4993;1005,0625;4; 24,9; 24,9; 0,0; 0,0;247,5; 113,6
2020-04-16 20:12:59; 18,7; 40; 4,8; 979,5618;1005,1250;4; 24,8; 24,8; 0,0; 0,0;247,5; 113,6
2020-04-16 20:23:00; 18,2; 42; 5,1; 979,5618;1005,1250;4; 24,7; 24,7; 0,0; 0,0;247,5; 113,6
2020-04-16 20:32:59; 17,8; 43; 5,1; 979,4993;1005,0625;4; 24,7; 24,7; 0,0; 0,0;247,5; 113,6
2020-04-16 20:42:59; 17,2; 44; 4,8; 979,4993;1005,0625;4; 24,7; 24,7; 0,0; 0,0;247,5; 113,6
2020-04-16 20:53:00; 16,9; 45; 4,9; 979,7493;1005,3125;4; 24,6; 24,6; 0,0; 0,0;247,5; 113,6
2020-04-16 21:02:59; 16,5; 45; 4,5; 979,7493;1005,3125;4; 24,6; 24,6; 0,0; 0,0;247,5; 113,6
2020-04-16 21:13:00; 16,3; 46; 4,7; 979,8743;1005,4375;4; 24,5; 24,5; 0,0; 0,0;247,5; 113,6
2020-04-16 21:22:59; 15,9; 47; 4,6; 979,8743;1005,4375;4; 24,5; 24,5; 0,0; 0,0;247,5; 113,6
2020-04-16 21:33:00; 15,5; 47; 4,2; 979,6868;1005,2500;4; 24,5; 24,5; 0,0; 0,0;247,5; 113,6
2020-04-16 21:42:59; 15,5; 48; 4,5; 979,6868;1005,2500;4; 24,5; 24,5; 0,0; 0,0;247,5; 113,6
2020-04-16 21:53:00; 15,1; 49; 4,5; 979,6243;1005,1875;4; 24,4; 24,4; 0,0; 0,0;247,5; 113,6
2020-04-16 22:02:59; 15,0; 49; 4,4; 979,6243;1005,1875;4; 24,4; 24,4; 0,0; 0,0;247,5; 113,6
2020-04-16 22:12:59; 14,9; 50; 4,6; 979,7493;1005,3125;4; 24,4; 24,4; 0,0; 0,0;247,5; 113,6
2020-04-16 22:23:00; 14,7; 50; 4,4; 979,7493;1005,3125;4; 24,4; 24,4; 0,0; 0,0;247,5; 113,6
2020-04-16 22:32:59; 14,4; 52; 4,7; 979,8743;1005,4375;4; 24,4; 24,4; 0,0; 0,0;247,5; 113,6
2020-04-16 22:43:00; 14,2; 52; 4,5; 979,8743;1005,4375;4; 24,3; 24,3; 0,0; 0,0;247,5; 113,6
2020-04-16 22:52:59; 13,9; 53; 4,5; 979,8743;1005,4375;4; 24,3; 24,3; 0,0; 0,0;247,5; 113,6
2020-04-16 23:03:00; 13,7; 53; 4,3; 979,8743;1005,4375;4; 24,3; 24,3; 0,0; 0,0;247,5; 113,6
2020-04-16 23:12:59; 13,5; 54; 4,4; 979,7493;1005,3125;4; 24,3; 24,3; 0,0; 0,0;247,5; 113,6
2020-04-16 23:23:00; 13,3; 54; 4,2; 979,7493;1005,3125;4; 24,3; 24,3; 0,0; 0,0;247,5; 113,6
2020-04-16 23:32:59; 13,2; 54; 4,1; 980,0618;1005,6250;4; 24,3; 24,3; 0,0; 0,0;247,5; 113,6
2020-04-16 23:42:59; 13,1; 54; 4,0; 980,0618;1005,6250;4; 24,3; 24,3; 0,0; 0,0;247,5; 113,6
2020-04-16 23:53:00; 12,9; 55; 4,1; 980,0618;1005,6250;4; 24,3; 24,3; 0,0; 0,0;247,5; 113,6
2020-04-17 00:02:59; 12,7; 55; 3,9; 980,0618;1005,6250;4; 24,3; 24,3; 0,0; 0,0;247,5; 113,6
2020-04-17 00:13:00; 12,5; 56; 4,0; 979,9993;1005,5625;4; 24,3; 24,3; 0,0; 0,0;247,5; 113,6
2020-04-17 00:22:59; 12,3; 56; 3,8; 979,9993;1005,5625;4; 24,3; 24,3; 0,0; 0,0;247,5; 113,6
2020-04-17 00:33:00; 12,1; 57; 3,8; 980,3118;1005,8750;4; 24,3; 24,3; 0,0; 0,0;247,5; 113,6
2020-04-17 00:42:59; 11,9; 58; 3,9; 980,3118;1005,8750;4; 24,2; 24,2; 0,0; 0,0;247,5; 113,6
2020-04-17 00:53:00; 11,7; 58; 3,7; 980,4368;1006,0000;4; 24,2; 24,2; 0,0; 0,0;247,5; 113,6
2020-04-17 01:02:59; 11,4; 59; 3,7; 980,4368;1006,0000;4; 24,2; 24,2; 0,0; 0,0;247,5; 113,6
2020-04-17 01:12:59; 11,3; 59; 3,6; 980,7493;1006,3125;4; 24,2; 24,2; 0,0; 0,0;247,5; 113,6
2020-04-17 01:23:00; 11,1; 60; 3,6; 980,7493;1006,3125;4; 24,2; 24,2; 0,0; 0,0;247,5; 113,6
2020-04-17 01:32:59; 11,0; 60; 3,5; 980,8118;1006,3750;4; 24,2; 24,2; 0,0; 0,0;247,5; 113,6
2020-04-17 01:43:00; 10,9; 60; 3,4; 980,8118;1006,3750;4; 24,2; 24,2; 0,0; 0,0;247,5; 113,6
2020-04-17 01:52:59; 10,8; 60; 3,3; 980,7493;1006,3125;4; 24,2; 24,2; 0,0; 0,0;247,5; 113,6
2020-04-17 02:03:00; 10,7; 61; 3,5; 980,7493;1006,3125;4; 24,2; 24,2; 0,0; 0,0;247,5; 113,6
2020-04-17 02:12:59; 10,5; 62; 3,5; 980,6243;1006,1875;4; 24,2; 24,2; 0,0; 0,0;247,5; 113,6
2020-04-17 02:23:00; 10,3; 62; 3,3; 980,6243;1006,1875;4; 24,2; 24,2; 0,0; 0,0;247,5; 113,6
2020-04-17 02:32:59; 10,2; 62; 3,2; 980,6868;1006,2500;4; 24,2; 24,2; 0,0; 0,0;247,5; 113,6
2020-04-17 02:42:59; 10,1; 62; 3,1; 980,6868;1006,2500;4; 24,2; 24,2; 0,0; 0,0;247,5; 113,6
2020-04-17 02:53:00; 10,0; 63; 3,3; 980,6243;1006,1875;4; 24,2; 24,2; 0,0; 0,0;247,5; 113,6
2020-04-17 03:02:59; 9,9; 63; 3,2; 980,6243;1006,1875;4; 24,2; 24,2; 0,0; 0,0;247,5; 113,6
2020-04-17 03:13:00; 9,7; 63; 3,0; 980,7493;1006,3125;4; 24,2; 24,2; 0,0; 0,0;247,5; 113,6
2020-04-17 03:22:59; 9,6; 63; 2,9; 980,7493;1006,3125;4; 24,1; 24,1; 0,0; 0,0;247,5; 113,6
2020-04-17 03:33:00; 9,5; 64; 3,0; 980,7493;1006,3125;4; 24,1; 24,1; 0,0; 0,0;247,5; 113,6
2020-04-17 03:42:59; 9,3; 64; 2,8; 980,7493;1006,3125;4; 24,1; 24,1; 0,0; 0,0;247,5; 113,6
2020-04-17 03:53:00; 9,2; 64; 2,7; 980,8118;1006,3750;4; 24,1; 24,1; 0,0; 0,0;247,5; 113,6
2020-04-17 04:02:59; 9,1; 64; 2,6; 980,8118;1006,3750;4; 24,1; 24,1; 0,0; 0,0;247,5; 113,6
2020-04-17 04:12:59; 8,8; 65; 2,6; 980,6868;1006,2500;4; 24,1; 24,1; 0,0; 0,0;247,5; 113,6
2020-04-17 04:23:00; 8,7; 65; 2,5; 980,6868;1006,2500;4; 24,1; 24,1; 0,0; 0,0;247,5; 113,6
2020-04-17 04:32:59; 8,7; 65; 2,5; 981,0618;1006,6250;4; 24,1; 24,1; 0,0; 0,0;247,5; 113,6
2020-04-17 04:43:00; 8,6; 65; 2,4; 981,0618;1006,6250;4; 24,1; 24,1; 0,0; 0,0;247,5; 113,6
2020-04-17 04:52:59; 8,5; 66; 2,5; 980,8743;1006,4375;4; 24,0; 24,0; 0,0; 0,0;247,5; 113,6
2020-04-17 05:03:00; 8,4; 66; 2,4; 980,8743;1006,4375;4; 24,0; 24,0; 0,0; 0,0;247,5; 113,6
2020-04-17 05:12:59; 8,0; 68; 2,5; 981,1868;1006,7500;4; 24,0; 24,0; 0,0; 0,0;247,5; 113,6
2020-04-17 05:23:00; 7,9; 67; 2,2; 981,1868;1006,7500;4; 24,0; 24,0; 0,0; 0,0;247,5; 113,6
2020-04-17 05:32:59; 7,9; 66; 1,9; 981,2493;1006,8125;4; 24,0; 24,0; 0,0; 0,0;247,5; 113,6
2020-04-17 05:42:59; 7,7; 67; 2,0; 981,2493;1006,8125;4; 24,0; 24,0; 0,0; 0,0;247,5; 113,6
2020-04-17 05:53:00; 7,6; 67; 1,9; 981,3118;1006,8750;4; 24,0; 24,0; 0,0; 0,0;247,5; 113,6
2020-04-17 06:02:59; 7,5; 67; 1,8; 981,3118;1006,8750;4; 24,0; 24,0; 0,0; 0,0;247,5; 113,6
2020-04-17 06:13:00; 7,4; 66; 1,5; 981,1243;1006,6875;4; 24,0; 24,0; 0,0; 0,0;247,5; 113,6
2020-04-17 06:22:59; 7,3; 67; 1,6; 981,1243;1006,6875;4; 24,0; 24,0; 0,0; 0,0;247,5; 113,6
2020-04-17 06:33:00; 7,3; 67; 1,6; 981,4368;1007,0000;4; 24,0; 24,0; 0,0; 0,0;247,5; 113,6
2020-04-17 06:42:59; 7,3; 67; 1,6; 981,4368;1007,0000;4; 24,0; 24,0; 0,0; 0,0;247,5; 113,6
2020-04-17 06:53:00; 7,4; 67; 1,7; 981,6868;1007,2500;4; 24,0; 24,0; 0,0; 0,0;247,5; 113,6
2020-04-17 07:02:59; 7,5; 68; 2,0; 981,6868;1007,2500;4; 24,0; 24,0; 0,0; 0,0;247,5; 113,6
2020-04-17 07:12:59; 7,5; 68; 2,0; 981,7493;1007,3125;4; 24,0; 24,0; 0,0; 0,0;247,5; 113,6
2020-04-17 07:23:00; 7,7; 67; 2,0; 981,7493;1007,3125;4; 24,1; 24,1; 0,0; 0,0;247,5; 113,6
2020-04-17 07:32:59; 7,8; 68; 2,3; 981,7493;1007,3125;4; 24,1; 24,1; 0,0; 0,0;247,5; 113,6
2020-04-17 07:43:00; 8,1; 67; 2,3; 981,7493;1007,3125;4; 24,2; 24,2; 0,0; 0,0;247,5; 113,6
2020-04-17 07:52:59; 8,5; 66; 2,5; 982,0618;1007,6250;4; 24,2; 24,2; 0,0; 0,0;247,5; 113,6
2020-04-17 08:03:00; 9,0; 65; 2,8; 982,0618;1007,6250;4; 24,2; 24,2; 0,0; 0,0;247,5; 113,6
2020-04-17 08:12:59; 9,5; 65; 3,2; 982,2493;1007,8125;4; 24,3; 24,3; 0,0; 0,0;247,5; 113,6
2020-04-17 08:23:00; 10,0; 64; 3,5; 982,2493;1007,8125;4; 24,4; 24,4; 0,0; 0,0;247,5; 113,6
2020-04-17 08:32:59; 10,7; 63; 3,9; ; ;4; 24,5; 24,5; 0,0; 0,0;247,5; 113,6
2020-04-17 08:42:59; 11,4; 62; 4,4; ; ;4; 24,7; 24,7; 0,0; 0,0;247,5; 113,6
2020-04-17 08:53:00; 11,8; 60; 4,3; 982,4368;1008,0000;4; 24,9; 24,9; 0,0; 0,0;247,5; 113,6
2020-04-17 09:02:59; 12,5; 58; 4,5; 982,4368;1008,0000;4; 25,0; 25,0; 0,0; 0,0;247,5; 113,6
2020-04-17 09:13:00; 13,4; 56; 4,8; 982,5618;1008,1250;4; 25,2; 25,2; 0,0; 0,0;247,5; 113,6
2020-04-17 09:22:59; 14,1; 54; 4,9; 982,5618;1008,1250;4; 25,3; 25,3; 0,0; 0,0;247,5; 113,6
2020-04-17 09:33:00; 14,5; 52; 4,8; 982,8118;1008,3750;4; 25,4; 25,4; 0,0; 0,0;247,5; 113,6
2020-04-17 09:42:59; 14,6; 51; 4,6; 982,8118;1008,3750;4; 25,6; 25,6; 0,0; 0,0;247,5; 113,6
2020-04-17 09:53:00; 15,2; 50; 4,8; 982,8743;1008,4375;4; 25,8; 25,8; 0,0; 0,0;247,5; 113,6
2020-04-17 10:02:59; 15,7; 50; 5,3; 982,8743;1008,4375;4; 25,9; 25,9; 0,0; 0,0;247,5; 113,6
2020-04-17 10:12:59; 16,3; 50; 5,9; 983,1243;1008,6875;4; 26,0; 26,0; 0,0; 0,0;247,5; 113,6
2020-04-17 10:23:00; 16,4; 49; 5,7; 983,1243;1008,6875;4; 26,2; 26,2; 0,0; 0,0;247,5; 113,6
2020-04-17 10:32:59; 16,6; 48; 5,5; 983,4368;1009,0000;4; 26,4; 26,4; 0,0; 0,0;247,5; 113,6
2020-04-17 10:43:00; 16,6; 48; 5,5; 983,4368;1009,0000;4; 26,6; 26,6; 0,0; 0,0;247,5; 113,6
2020-04-17 10:52:59; 17,2; 46; 5,5; 983,4993;1009,0625;5; 26,8; 26,8; 0,0; 0,0;247,5; 113,6
2020-04-17 11:03:00; 18,0; 45; 5,9; 983,4993;1009,0625;5; 27,0; 27,0; 0,0; 0,0;247,5; 113,6
2020-04-17 11:12:59; 18,1; 45; 6,0; 983,5618;1009,1250;5; 27,1; 27,1; 0,0; 0,0;247,5; 113,6
2020-04-17 11:23:00; 18,9; 44; 6,4; 983,5618;1009,1250;5; 27,3; 27,3; 0,0; 0,0;247,5; 113,6
2020-04-17 11:32:59; 19,1; 44; 6,6; 983,4993;1009,0625;5; 27,3; 27,3; 0,0; 0,0;247,5; 113,6
2020-04-17 11:42:59; 19,1; 43; 6,2; 983,4993;1009,0625;5; 27,4; 27,4; 0,0; 0,0;247,5; 113,6
2020-04-17 11:53:00; 19,1; 44; 6,6; 983,5618;1009,1250;5; 27,5; 27,5; 0,0; 0,0;247,5; 113,6
2020-04-17 12:02:59; 20,1; 42; 6,8; 983,5618;1009,1250;5; 27,5; 27,5; 0,0; 0,0;247,5; 113,6
2020-04-17 12:13:00; 19,7; 43; 6,8; 983,4368;1009,0000;5; 27,7; 27,7; 0,0; 0,0;247,5; 113,6
2020-04-17 12:22:59; 20,5; 42; 7,1; 983,4368;1009,0000;5; 27,7; 27,7; 0,0; 0,0;247,5; 113,6
2020-04-17 12:33:00; 20,1; 41; 6,4; 983,5618;1009,1250;5; 27,6; 27,6; 0,0; 0,0;247,5; 113,6
2020-04-17 12:42:59; 20,7; 42; 7,3; 983,5618;1009,1250;5; 27,7; 27,7; 0,0; 0,0;247,5; 113,6
2020-04-17 12:53:00; 20,8; 40; 6,7; 983,6243;1009,1875;5; 27,5; 27,5; 0,0; 0,0;247,5; 113,6
2020-04-17 13:02:59; 20,9; 40; 6,8; 983,6243;1009,1875;5; 27,5; 27,5; 0,0; 0,0;247,5; 113,6
2020-04-17 13:12:59; 20,9; 41; 7,2; 983,4993;1009,0625;5; 27,4; 27,4; 0,0; 0,0;247,5; 113,6
2020-04-17 13:23:00; 21,7; 41; 7,9; 983,4993;1009,0625;5; 27,3; 27,3; 0,0; 0,0;247,5; 113,6
2020-04-17 13:32:59; 21,7; 39; 7,1; 983,4993;1009,0625;5; 27,3; 27,3; 0,0; 0,0;247,5; 113,6
2020-04-17 13:43:00; 21,1; 37; 5,8; 983,4993;1009,0625;5; 27,3; 27,3; 0,0; 0,0;247,5; 113,6
2020-04-17 13:52:59; 21,8; 39; 7,2; 983,4368;1009,0000;5; 27,2; 27,2; 0,0; 0,0;247,5; 113,6
2020-04-17 14:03:00; 21,9; 37; 6,5; 983,4368;1009,0000;5; 27,1; 27,1; 0,0; 0,0;247,5; 113,6
2020-04-17 14:12:59; 21,6; 38; 6,7; 983,1868;1008,7500;5; 27,1; 27,1; 0,0; 0,0;247,5; 113,6
2020-04-17 14:23:00; 21,7; 38; 6,8; 983,1868;1008,7500;5; 26,9; 26,9; 0,0; 0,0;247,5; 113,6
2020-04-17 14:32:59; 21,5; 38; 6,6; 983,1868;1008,7500;5; 26,9; 26,9; 0,0; 0,0;247,5; 113,6
2020-04-17 14:42:59; 22,1; 36; 6,3; 983,1868;1008,7500;5; 26,8; 26,8; 0,0; 0,0;247,5; 113,6
2020-04-17 14:53:00; 21,9; 38; 6,9; 983,2493;1008,8125;5; 26,8; 26,8; 0,0; 0,0;247,5; 113,6
2020-04-17 15:02:59; 21,6; 36; 5,9; 983,2493;1008,8125;5; 26,7; 26,7; 0,0; 0,0;247,5; 113,6
2020-04-17 15:13:00; 21,0; 38; 6,1; 983,1243;1008,6875;5; 26,6; 26,6; 0,0; 0,0;247,5; 113,6
2020-04-17 15:22:59; 21,4; 37; 6,1; 983,1243;1008,6875;5; 26,6; 26,6; 0,0; 0,0;247,5; 113,6
2020-04-17 15:33:00; 21,3; 37; 6,0; 982,6868;1008,2500;5; 26,6; 26,6; 0,0; 0,0;247,5; 113,6
2020-04-17 15:42:59; 21,7; 38; 6,8; 982,6868;1008,2500;5; 26,5; 26,5; 0,0; 0,0;247,5; 113,6
2020-04-17 15:53:00; 20,8; 39; 6,3; 982,4993;1008,0625;5; 26,5; 26,5; 0,0; 0,0;247,5; 113,6
2020-04-17 16:02:59; 20,8; 39; 6,3; 982,4993;1008,0625;5; 26,4; 26,4; 0,0; 0,0;247,5; 113,6
2020-04-17 16:12:59; 20,8; 39; 6,3; 982,3118;1007,8750;5; 26,3; 26,3; 0,0; 0,0;247,5; 113,6
2020-04-17 16:23:00; 20,7; 39; 6,2; 982,3118;1007,8750;5; 26,3; 26,3; 0,0; 0,0;247,5; 113,6
2020-04-17 16:32:59; 20,9; 37; 5,7; 982,1243;1007,6875;5; 26,2; 26,2; 0,0; 0,0;247,5; 113,6
2020-04-17 16:43:00; 20,6; 38; 5,8; 982,1243;1007,6875;5; 26,1; 26,1; 0,0; 0,0;247,5; 113,6
2020-04-17 16:52:59; 20,6; 38; 5,8; 982,1243;1007,6875;5; 26,1; 26,1; 0,0; 0,0;247,5; 113,6
2020-04-17 17:03:00; 20,9; 39; 6,4; 982,1243;1007,6875;5; 26,0; 26,0; 0,0; 0,0;247,5; 113,6
2020-04-17 17:12:59; 20,1; 38; 5,3; 981,8743;1007,4375;5; 26,0; 26,0; 0,0; 0,0;247,5; 113,6
2020-04-17 17:23:00; 20,5; 37; 5,3; 981,8743;1007,4375;5; 25,9; 25,9; 0,0; 0,0;247,5; 113,6
2020-04-17 17:32:59; 20,0; 38; 5,2; 981,4993;1007,0625;5; 25,8; 25,8; 0,0; 0,0;247,5; 113,6
2020-04-17 17:42:59; 19,8; 39; 5,4; 981,4993;1007,0625;5; 25,8; 25,8; 0,0; 0,0;247,5; 113,6
2020-04-17 17:53:00; 19,8; 39; 5,4; 981,6868;1007,2500;5; 25,7; 25,7; 0,0; 0,0;247,5; 113,6
2020-04-17 18:02:59; 19,5; 39; 5,2; 981,6868;1007,2500;5; 25,6; 25,6; 0,0; 0,0;247,5; 113,6
2020-04-17 18:13:00; 19,3; 40; 5,4; 981,5618;1007,1250;5; 25,5; 25,5; 0,0; 0,0;247,5; 113,6
2020-04-17 18:22:59; 19,6; 39; 5,3; 981,5618;1007,1250;5; 25,4; 25,4; 0,0; 0,0;247,5; 113,6
2020-04-17 18:33:00; 19,7; 39; 5,4; 981,4993;1007,0625;5; 25,4; 25,4; 0,0; 0,0;247,5; 113,6
2020-04-17 18:42:59; 19,7; 39; 5,4; 981,4993;1007,0625;5; 25,3; 25,3; 0,0; 0,0;247,5; 113,6
2020-04-17 18:53:00; 19,5; 39; 5,2; 981,3743;1006,9375;5; 25,3; 25,3; 0,0; 0,0;247,5; 113,6
2020-04-17 19:02:59; 19,1; 40; 5,2; 981,3743;1006,9375;5; 25,2; 25,2; 0,0; 0,0;247,5; 113,6
2020-04-17 19:12:59; 18,4; 40; 4,6; 981,1868;1006,7500;4; 25,1; 25,1; 0,0; 0,0;247,5; 113,6
2020-04-17 19:23:00; 18,3; 41; 4,8; 981,1868;1006,7500;4; 25,1; 25,1; 0,0; 0,0;247,5; 113,6
2020-04-17 19:32:59; 18,0; 42; 4,9; 981,4993;1007,0625;4; 25,1; 25,1; 0,0; 0,0;247,5; 113,6
2020-04-17 19:43:00; 17,7; 42; 4,6; 981,4993;1007,0625;4; 25,0; 25,0; 0,0; 0,0;247,5; 113,6
2020-04-17 19:52:59; 17,5; 43; 4,8; 981,4368;1007,0000;4; 24,9; 24,9; 0,0; 0,0;247,5; 113,6
2020-04-17 20:03:00; 17,2; 43; 4,5; 981,4368;1007,0000;4; 24,9; 24,9; 0,0; 0,0;247,5; 113,6
2020-04-17 20:12:59; 16,7; 45; 4,7; 981,4368;1007,0000;4; 24,9; 24,9; 0,0; 0,0;247,5; 113,6
2020-04-17 20:23:00; 16,4; 46; 4,7; 981,4368;1007,0000;4; 24,8; 24,8; 0,0; 0,0;247,5; 113,6
2020-04-17 20:32:59; 16,2; 47; 4,9; 981,4368;1007,0000;4; 24,7; 24,7; 0,0; 0,0;247,5; 113,6
2020-04-17 20:42:59; 15,9; 47; 4,6; 981,4368;1007,0000;4; 24,7; 24,7; 0,0; 0,0;247,5; 113,6
2020-04-17 20:53:00; 15,6; 48; 4,6; 981,6243;1007,1875;4; 24,7; 24,7; 0,0; 0,0;247,5; 113,6
2020-04-17 21:02:59; 15,2; 49; 4,6; 981,6243;1007,1875;4; 24,7; 24,7; 0,0; 0,0;247,5; 113,6
2020-04-17 21:13:00; 14,9; 50; 4,6; 981,6868;1007,2500;4; 24,6; 24,6; 0,0; 0,0;247,5; 113,6
2020-04-17 21:22:59; 14,6; 51; 4,6; 981,6868;1007,2500;4; 24,6; 24,6; 0,0; 0,0;247,5; 113,6
2020-04-17 21:33:00; 14,3; 52; 4,6; 981,6868;1007,2500;4; 24,5; 24,5; 0,0; 0,0;247,5; 113,6
2020-04-17 21:42:59; 14,0; 53; 4,6; 981,6868;1007,2500;4; 24,5; 24,5; 0,0; 0,0;247,5; 113,6
2020-04-17 21:53:00; 13,9; 53; 4,5; 981,7493;1007,3125;4; 24,5; 24,5; 0,0; 0,0;247,5; 113,6
2020-04-17 22:02:59; 13,5; 54; 4,4; 981,7493;1007,3125;4; 24,5; 24,5; 0,0; 0,0;247,5; 113,6
2020-04-17 22:12:59; 13,3; 54; 4,2; 981,8743;1007,4375;4; 24,5; 24,5; 0,0; 0,0;247,5; 113,6
2020-04-17 22:23:00; 13,1; 55; 4,3; 981,8743;1007,4375;4; 24,5; 24,5; 0,0; 0,0;247,5; 113,6
2020-04-17 22:32:59; 12,8; 55; 4,0; 981,9993;1007,5625;4; 24,5; 24,5; 0,0; 0,0;247,5; 113,6
2020-04-17 22:43:00; 12,7; 56; 4,1; 981,9993;1007,5625;4; 24,5; 24,5; 0,0; 0,0;247,5; 113,6
2020-04-17 22:52:59; 12,3; 56; 3,8; 981,9993;1007,5625;4; 24,5; 24,5; 0,0; 0,0;247,5; 113,6
2020-04-17 23:03:00; 12,1; 57; 3,8; 981,9993;1007,5625;4; 24,5; 24,5; 0,0; 0,0;247,5; 113,6
2020-04-17 23:12:59; 11,9; 58; 3,9; 981,9993;1007,5625;4; 24,5; 24,5; 0,0; 0,0;247,5; 113,6
2020-04-17 23:23:00; 11,7; 58; 3,7; 981,9993;1007,5625;4; 24,5; 24,5; 0,0; 0,0;247,5; 113,6
2020-04-17 23:32:59; 11,5; 58; 3,5; 982,1243;1007,6875;4; 24,4; 24,4; 0,0; 0,0;247,5; 113,6
2020-04-17 23:42:59; 11,3; 59; 3,6; 982,1243;1007,6875;4; 24,4; 24,4; 0,0; 0,0;247,5; 113,6
2020-04-17 23:53:00; 11,1; 60; 3,6; 982,3118;1007,8750;4; 24,4; 24,4; 0,0; 0,0;247,5; 113,6
2020-04-18 00:02:59; 11,0; 61; 3,8; 982,3118;1007,8750;4; 24,4; 24,4; 0,0; 0,0;247,5; 113,6
2020-04-18 00:13:00; 10,9; 61; 3,7; 982,1868;1007,7500;4; 24,4; 24,4; 0,0; 0,0;247,5; 113,6
2020-04-18 00:22:59; 10,7; 61; 3,5; 982,1868;1007,7500;4; 24,4; 24,4; 0,0; 0,0;247,5; 113,6
2020-04-18 00:33:00; 10,5; 61; 3,3; 982,2493;1007,8125;4; 24,4; 24,4; 0,0; 0,0;247,5; 113,6
2020-04-18 00:42:59; 10,3; 61; 3,1; 982,2493;1007,8125;4; 24,3; 24,3; 0,0; 0,0;247,5; 113,6
2020-04-18 00:53:00; 10,2; 61; 3,0; 982,3118;1007,8750;4; 24,4; 24,4; 0,0; 0,0;247,5; 113,6
2020-04-18 01:02:59; 10,1; 61; 2,9; 982,3118;1007,8750;4; 24,3; 24,3; 0,0; 0,0;247,5; 113,6
2020-04-18 01:12:59; 9,9; 61; 2,7; 982,3118;1007,8750;4; 24,3; 24,3; 0,0; 0,0;247,5; 113,6
2020-04-18 01:23:00; 9,8; 63; 3,1; 982,3118;1007,8750;4; 24,4; 24,4; 0,0; 0,0;247,5; 113,6
2020-04-18 01:32:59; 9,3; 65; 3,1; 982,3118;1007,8750;4; 24,4; 24,4; 0,0; 0,0;247,5; 113,6
2020-04-18 01:43:00; 9,1; 66; 3,1; 982,3118;1007,8750;4; 24,4; 24,4; 0,0; 0,0;247,5; 113,6
2020-04-18 01:52:59; 9,0; 66; 3,0; 982,3118;1007,8750;4; 24,3; 24,3; 0,0; 0,0;247,5; 113,6
2020-04-18 02:03:00; 9,0; 65; 2,8; 982,3118;1007,8750;4; 24,3; 24,3; 0,0; 0,0;247,5; 113,6
2020-04-18 02:12:59; 8,9; 65; 2,7; 982,2493;1007,8125;4; 24,3; 24,3; 0,0; 0,0;247,5; 113,6
2020-04-18 02:23:00; 8,8; 65; 2,6; 982,2493;1007,8125;4; 24,3; 24,3; 0,0; 0,0;247,5; 113,6
2020-04-18 02:32:59; 8,6; 66; 2,6; 981,9368;1007,5000;4; 24,3; 24,3; 0,0; 0,0;247,5; 113,6
2020-04-18 02:42:59; 8,5; 67; 2,7; 981,9368;1007,5000;4; 24,3; 24,3; 0,0; 0,0;247,5; 113,6
2020-04-18 02:53:00; 8,4; 67; 2,6; 981,8118;1007,3750;4; 24,3; 24,3; 0,0; 0,0;247,5; 113,6
2020-04-18 03:02:59; 8,3; 67; 2,5; 981,8118;1007,3750;4; 24,2; 24,2; 0,0; 0,0;247,5; 113,6
2020-04-18 03:13:00; 8,2; 67; 2,4; 981,7493;1007,3125;4; 24,2; 24,2; 0,0; 0,0;247,5; 113,6
2020-04-18 03:22:59; 8,0; 67; 2,2; 981,7493;1007,3125;4; 24,2; 24,2; 0,0; 0,0;247,5; 113,6
2020-04-18 03:33:00; 7,9; 68; 2,4; 981,3743;1006,9375;4; 24,2; 24,2; 0,0; 0,0;247,5; 113,6
2020-04-18 03:42:59; 7,7; 68; 2,2; 981,3743;1006,9375;4; 24,2; 24,2; 0,0; 0,0;247,5; 113,6
2020-04-18 03:53:00; 7,6; 69; 2,3; 981,7493;1007,3125;4; 24,2; 24,2; 0,0; 0,0;247,5; 113,6
2020-04-18 04:02:59; 7,5; 69; 2,2; 981,7493;1007,3125;4; 24,2; 24,2; 0,0; 0,0;247,5; 113,6
2020-04-18 04:12:59; 7,2; 70; 2,1; 981,7493;1007,3125;4; 24,2; 24,2; 0,0; 0,0;247,5; 113,6
2020-04-18 04:23:00; 7,2; 69; 1,9; 981,7493;1007,3125;4; 24,2; 24,2; 0,0; 0,0;247,5; 113,6
2020-04-18 04:32:59; 7,1; 69; 1,8; 981,9368;1007,5000;4; 24,2; 24,2; 0,0; 0,0;247,5; 113,6
2020-04-18 04:43:00; 7,1; 69; 1,8; 981,9368;1007,5000;4; 24,2; 24,2; 0,0; 0,0;247,5; 113,6
2020-04-18 04:52:59; 6,9; 70; 1,8; 981,9368;1007,5000;4; 24,2; 24,2; 0,0; 0,0;247,5; 113,6
2020-04-18 05:03:00; 6,8; 70; 1,7; 981,9368;1007,5000;4; 24,2; 24,2; 0,0; 0,0;247,5; 113,6
2020-04-18 05:12:59; 6,7; 71; 1,8; 981,8118;1007,3750;4; 24,2; 24,2; 0,0; 0,0;247,5; 113,6
2020-04-18 05:23:00; 6,6; 70; 1,5; 981,8118;1007,3750;4; 24,2; 24,2; 0,0; 0,0;247,5; 113,6
2020-04-18 05:32:59; 6,6; 70; 1,5; 981,9993;1007,5625;4; 24,2; 24,2; 0,0; 0,0;247,5; 113,6
2020-04-18 05:42:59; 6,3; 70; 1,2; 981,9993;1007,5625;4; 24,2; 24,2; 0,0; 0,0;247,5; 113,6
2020-04-18 05:53:00; 6,3; 70; 1,2; 981,8743;1007,4375;4; 24,2; 24,2; 0,0; 0,0;247,5; 113,6
2020-04-18 06:02:59; 6,3; 70; 1,2; 981,8743;1007,4375;4; 24,2; 24,2; 0,0; 0,0;247,5; 113,6
2020-04-18 06:13:00; 6,3; 70; 1,2; 982,0618;1007,6250;4; 24,2; 24,2; 0,0; 0,0;247,5; 113,6
2020-04-18 06:22:59; 6,1; 71; 1,2; 982,0618;1007,6250;4; 24,2; 24,2; 0,0; 0,0;247,5; 113,6
2020-04-18 06:33:00; 5,9; 72; 1,2; ; ;4; 24,2; 24,2; 0,0; 0,0;247,5; 113,6
2020-04-18 06:42:59; 6,1; 71; 1,2; ; ;4; 24,2; 24,2; 0,0; 0,0;247,5; 113,6
2020-04-18 06:53:00; 6,1; 72; 1,4; 982,6868;1008,2500;4; 24,2; 24,2; 0,0; 0,0;247,5; 113,6
2020-04-18 07:02:59; 6,2; 71; 1,3; 982,6868;1008,2500;4; 24,2; 24,2; 0,0; 0,0;247,5; 113,6
2020-04-18 07:12:59; 6,3; 72; 1,6; 982,6868;1008,2500;4; 24,2; 24,2; 0,0; 0,0;247,5; 113,6
2020-04-18 07:23:00; 6,7; 71; 1,8; 982,6868;1008,2500;4; 24,3; 24,3; 0,0; 0,0;247,5; 113,6
2020-04-18 07:32:59; 6,9; 72; 2,2; 982,6243;1008,1875;4; 24,3; 24,3; 0,0; 0,0;247,5; 113,6
2020-04-18 07:43:00; 7,2; 70; 2,1; 982,6243;1008,1875;4; 24,4; 24,4; 0,0; 0,0;247,5; 113,6
2020-04-18 07:52:59; 7,7; 69; 2,4; 982,7493;1008,3125;4; 24,4; 24,4; 0,0; 0,0;247,5; 113,6
2020-04-18 08:03:00; 8,3; 67; 2,5; 982,7493;1008,3125;4; 24,4; 24,4; 0,0; 0,0;247,5; 113,6
2020-04-18 08:12:59; 8,9; 66; 2,9; 982,9368;1008,5000;4; 24,5; 24,5; 0,0; 0,0;247,5; 113,6
2020-04-18 08:23:00; 9,8; 64; 3,3; 982,9368;1008,5000;4; 24,6; 24,6; 0,0; 0,0;247,5; 113,6
2020-04-18 08:32:59; 10,5; 62; 3,5; 982,9368;1008,5000;4; 24,7; 24,7; 0,0; 0,0;247,5; 113,6
2020-04-18 08:42:59; 11,5; 59; 3,8; 982,9368;1008,5000;4; 24,9; 24,9; 0,0; 0,0;247,5; 113,6
2020-04-18 08:53:00; 12,2; 58; 4,2; 982,8743;1008,4375;4; 25,0; 25,0; 0,0; 0,0;247,5; 113,6
2020-04-18 09:02:59; 12,8; 56; 4,2; 982,8743;1008,4375;4; 25,2; 25,2; 0,0; 0,0;247,5; 113,6
2020-04-18 09:13:00; 13,1; 54; 4,0; 982,7493;1008,3125;4; 25,3; 25,3; 0,0; 0,0;247,5; 113,6
2020-04-18 09:22:59; 14,0; 51; 4,0; 982,7493;1008,3125;4; 25,4; 25,4; 0,0; 0,0;247,5; 113,6
2020-04-18 09:33:00; 14,2; 50; 3,9; 983,1868;1008,7500;4; 25,6; 25,6; 0,0; 0,0;247,5; 113,6
2020-04-18 09:42:59; 14,9; 48; 4,0; 983,1868;1008,7500;4; 25,9; 25,9; 0,0; 0,0;247,5; 113,6
2020-04-18 09:53:00; 15,1; 47; 3,9; 983,1868;1008,7500;4; 26,1; 26,1; 0,0; 0,0;247,5; 113,6
2020-04-18 10:02:59; 16,0; 45; 4,1; 983,1868;1008,7500;4; 26,1; 26,1; 0,0; 0,0;247,5; 113,6
2020-04-18 10:12:59; 16,4; 42; 3,5; 983,0618;1008,6250;4; 26,1; 26,1; 0,0; 0,0;247,5; 113,6
2020-04-18 10:23:00; 16,7; 41; 3,4; 983,0618;1008,6250;4; 26,3; 26,3; 0,0; 0,0;247,5; 113,6
2020-04-18 10:32:59; 17,4; 41; 4,0; 983,4368;1009,0000;5; 26,5; 26,5; 0,0; 0,0;247,5; 113,6
2020-04-18 10:43:00; 18,7; 39; 4,5; 983,4368;1009,0000;5; 26,7; 26,7; 0,0; 0,0;247,5; 113,6
2020-04-18 10:52:59; 19,3; 36; 3,9; 983,4993;1009,0625;5; 26,9; 26,9; 0,0; 0,0;247,5; 113,6
2020-04-18 11:03:00; 19,9; 36; 4,4; 983,4993;1009,0625;5; 27,1; 27,1; 0,0; 0,0;247,5; 113,6
2020-04-18 11:12:59; 20,2; 35; 4,2; 983,4368;1009,0000;5; 27,2; 27,2; 0,0; 0,0;247,5; 113,6
2020-04-18 11:23:00; 20,3; 34; 3,9; 983,4368;1009,0000;5; 27,3; 27,3; 0,0; 0,0;247,5; 113,6
2020-04-18 11:32:59; 20,3; 35; 4,3; 983,4993;1009,0625;5; 27,4; 27,4; 0,0; 0,0;247,5; 113,6
2020-04-18 11:42:59; 20,5; 35; 4,5; 983,4993;1009,0625;5; 27,5; 27,5; 0,0; 0,0;247,5; 113,6
2020-04-18 11:53:00; 21,3; 33; 4,4; 983,2493;1008,8125;5; 27,7; 27,7; 0,0; 0,0;247,5; 113,6
2020-04-18 12:02:59; 21,7; 33; 4,7; 983,2493;1008,8125;5; 27,7; 27,7; 0,0; 0,0;247,5; 113,6
2020-04-18 12:13:00; 21,7; 33; 4,7; 983,3743;1008,9375;5; 27,8; 27,8; 0,0; 0,0;247,5; 113,6
2020-04-18 12:22:59; 21,6; 34; 5,1; 983,3743;1008,9375;5; 27,8; 27,8; 0,0; 0,0;247,5; 113,6
2020-04-18 12:33:00; 21,8; 34; 5,2; 983,0618;1008,6250;5; 27,8; 27,8; 0,0; 0,0;247,5; 113,6
2020-04-18 12:42:59; 22,0; 34; 5,4; 983,0618;1008,6250;5; 27,8; 27,8; 0,0; 0,0;247,5; 113,6
2020-04-18 12:53:00; 22,7; 32; 5,2; 983,2493;1008,8125;5; 27,7; 27,7; 0,0; 0,0;247,5; 113,6
2020-04-18 13:02:59; 23,1; 32; 5,5; 983,2493;1008,8125;5; 27,7; 27,7; 0,0; 0,0;247,5; 113,6
2020-04-18 13:12:59; 22,7; 32; 5,2; 983,1868;1008,7500;5; 27,6; 27,6; 0,0; 0,0;247,5; 113,6
2020-04-18 13:23:00; 22,2; 32; 4,7; 983,1868;1008,7500;5; 27,5; 27,5; 0,0; 0,0;247,5; 113,6
2020-04-18 13:32:59; 22,8; 31; 4,8; 982,9993;1008,5625;5; 27,5; 27,5; 0,0; 0,0;247,5; 113,6
2020-04-18 13:43:00; 23,3; 29; 4,3; 982,9993;1008,5625;5; 27,4; 27,4; 0,0; 0,0;247,5; 113,6
2020-04-18 13:52:59; 23,0; 30; 4,5; 983,0618;1008,6250;5; 27,3; 27,3; 0,0; 0,0;247,5; 113,6
2020-04-18 14:03:00; 23,0; 30; 4,5; 983,0618;1008,6250;5; 27,3; 27,3; 0,0; 0,0;247,5; 113,6
2020-04-18 14:12:59; 22,8; 30; 4,3; 983,0618;1008,6250;5; 27,2; 27,2; 0,0; 0,0;247,5; 113,6
2020-04-18 14:23:00; 23,1; 30; 4,6; 983,0618;1008,6250;5; 27,1; 27,1; 0,0; 0,0;247,5; 113,6
2020-04-18 14:32:59; 24,3; 29; 5,1; 982,7493;1008,3125;5; 27,1; 27,1; 0,0; 0,0;247,5; 113,6
2020-04-18 14:42:59; 24,3; 29; 5,1; 982,7493;1008,3125;5; 27,1; 27,1; 0,0; 0,0;247,5; 113,6
2020-04-18 14:53:00; 23,9; 29; 4,8; 982,6243;1008,1875;5; 27,0; 27,0; 0,0; 0,0;247,5; 113,6
2020-04-18 15:02:59; 23,7; 28; 4,1; 982,6243;1008,1875;5; 26,9; 26,9; 0,0; 0,0;247,5; 113,6
2020-04-18 15:13:00; 24,3; 28; 4,6; 982,1243;1007,6875;5; 26,9; 26,9; 0,0; 0,0;247,5; 113,6
2020-04-18 15:22:59; 24,3; 28; 4,6; 982,1243;1007,6875;5; 26,8; 26,8; 0,0; 0,0;247,5; 113,6
2020-04-18 15:33:00; 23,7; 28; 4,1; 981,8118;1007,3750;5; 26,8; 26,8; 0,0; 0,0;247,5; 113,6
2020-04-18 15:42:59; 23,9; 28; 4,3; 981,8118;1007,3750;5; 26,7; 26,7; 0,0; 0,0;247,5; 113,6
2020-04-18 15:53:00; 23,6; 28; 4,0; 981,5618;1007,1250;5; 26,6; 26,6; 0,0; 0,0;247,5; 113,6
2020-04-18 16:02:59; 23,4; 28; 3,9; 981,5618;1007,1250;5; 26,6; 26,6; 0,0; 0,0;247,5; 113,6
2020-04-18 16:12:59; 23,0; 29; 4,0; 981,4368;1007,0000;5; 26,5; 26,5; 0,0; 0,0;247,5; 113,6
2020-04-18 16:23:00; 23,0; 29; 4,0; 981,4368;1007,0000;5; 26,5; 26,5; 0,0; 0,0;247,5; 113,6
2020-04-18 16:32:59; 22,9; 29; 3,9; 981,3118;1006,8750;5; 26,5; 26,5; 0,0; 0,0;247,5; 113,6
2020-04-18 16:43:00; 23,2; 29; 4,2; 981,3118;1006,8750;5; 26,4; 26,4; 0,0; 0,0;247,5; 113,6
2020-04-18 16:52:59; 22,7; 29; 3,7; 981,1868;1006,7500;4; 26,3; 26,3; 0,0; 0,0;247,5; 113,6
2020-04-18 17:03:00; 23,0; 29; 4,0; 981,1868;1006,7500;4; 26,3; 26,3; 0,0; 0,0;247,5; 113,6
2020-04-18 17:12:59; 22,6; 29; 3,7; 981,0618;1006,6250;4; 26,3; 26,3; 0,0; 0,0;247,5; 113,6
2020-04-18 17:23:00; 22,7; 29; 3,7; 981,0618;1006,6250;4; 26,2; 26,2; 0,0; 0,0;247,5; 113,6
2020-04-18 17:32:59; 22,5; 29; 3,6; 981,0618;1006,6250;4; 26,1; 26,1; 0,0; 0,0;247,5; 113,6
2020-04-18 17:42:59; 22,3; 29; 3,4; 981,0618;1006,6250;4; 26,1; 26,1; 0,0; 0,0;247,5; 113,6
2020-04-18 17:53:00; 21,9; 29; 3,1; 980,9368;1006,5000;4; 26,0; 26,0; 0,0; 0,0;247,5; 113,6
2020-04-18 18:02:59; 21,8; 29; 3,0; 980,9368;1006,5000;4; 25,9; 25,9; 0,0; 0,0;247,5; 113,6
2020-04-18 18:13:00; 21,3; 29; 2,5; 980,8743;1006,4375;4; 25,8; 25,8; 0,0; 0,0;247,5; 113,6
2020-04-18 18:22:59; 21,2; 29; 2,5; 980,8743;1006,4375;4; 25,7; 25,7; 0,0; 0,0;247,5; 113,6
2020-04-18 18:33:00; 21,2; 29; 2,5; 980,4993;1006,0625;4; 25,6; 25,6; 0,0; 0,0;247,5; 113,6
2020-04-18 18:42:59; 21,1; 30; 2,8; 980,4993;1006,0625;4; 25,6; 25,6; 0,0; 0,0;247,5; 113,6
2020-04-18 18:53:00; 21,0; 30; 2,8; 980,4368;1006,0000;4; 25,6; 25,6; 0,0; 0,0;247,5; 113,6
2020-04-18 19:02:59; 20,5; 30; 2,3; 980,4368;1006,0000;4; 25,4; 25,4; 0,0; 0,0;247,5; 113,6
2020-04-18 19:12:59; 20,1; 31; 2,4; 980,4368;1006,0000;4; 25,4; 25,4; 0,0; 0,0;247,5; 113,6
2020-04-18 19:23:00; 19,7; 31; 2,1; 980,4368;1006,0000;4; 25,3; 25,3; 0,0; 0,0;247,5; 113,6
2020-04-18 19:32:59; 19,5; 31; 1,9; 980,2493;1005,8125;4; 25,3; 25,3; 0,0; 0,0;247,5; 113,6
2020-04-18 19:43:00; 19,2; 32; 2,1; 980,2493;1005,8125;4; 25,2; 25,2; 0,0; 0,0;247,5; 113,6
2020-04-18 19:52:59; 18,7; 31; 1,2; 980,4368;1006,0000;4; 25,1; 25,1; 0,0; 0,0;247,5; 113,6
2020-04-18 20:03:00; 18,5; 31; 1,0; 980,4368;1006,0000;4; 25,1; 25,1; 0,0; 0,0;247,5; 113,6
2020-04-18 20:12:59; 18,3; 31; 0,9; 980,6243;1006,1875;4; 25,1; 25,1; 0,0; 0,0;247,5; 113,6
2020-04-18 20:23:00; 17,8; 31; 0,4; 980,6243;1006,1875;4; 25,0; 25,0; 0,0; 0,0;247,5; 113,6
2020-04-18 20:32:59; 17,5; 31; 0,2; 980,4993;1006,0625;4; 25,0; 25,0; 0,0; 0,0;247,5; 113,6
2020-04-18 20:42:59; 17,1; 32; 0,3; 980,4993;1006,0625;4; 24,9; 24,9; 0,0; 0,0;247,5; 113,6
2020-04-18 20:53:00; 16,9; 32; 0,1; 980,8118;1006,3750;4; 24,9; 24,9; 0,0; 0,0;247,5; 113,6
2020-04-18 21:02:59; 16,6; 32; -0,2; 980,8118;1006,3750;4; 24,9; 24,9; 0,0; 0,0;247,5; 113,6
2020-04-18 21:13:00; 16,4; 32; -0,3; 980,9368;1006,5000;4; 24,9; 24,9; 0,0; 0,0;247,5; 113,6
2020-04-18 21:22:59; 16,1; 32; -0,6; 980,9368;1006,5000;4; 24,9; 24,9; 0,0; 0,0;247,5; 113,6
2020-04-18 21:33:00; 16,0; 33; -0,3; 980,7493;1006,3125;4; 24,8; 24,8; 0,0; 0,0;247,5; 113,6
2020-04-18 21:42:59; 15,9; 33; -0,4; 980,7493;1006,3125;4; 24,8; 24,8; 0,0; 0,0;247,5; 113,6
2020-04-18 21:53:00; 15,9; 33; -0,4; 980,7493;1006,3125;4; 24,8; 24,8; 0,0; 0,0;247,5; 113,6
2020-04-18 22:02:59; 15,8; 33; -0,4; 980,7493;1006,3125;4; 24,7; 24,7; 0,0; 0,0;247,5; 113,6
2020-04-18 22:12:59; 15,9; 33; -0,4; 980,8118;1006,3750;4; 24,7; 24,7; 0,0; 0,0;247,5; 113,6
2020-04-18 22:23:00; 15,7; 34; -0,1; 980,8118;1006,3750;4; 24,7; 24,7; 0,0; 0,0;247,5; 113,6
2020-04-18 22:32:59; 15,4; 33; -0,8; 980,8118;1006,3750;4; 24,7; 24,7; 0,0; 0,0;247,5; 113,6
2020-04-18 22:43:00; 15,2; 33; -1,0; 980,8118;1006,3750;4; 24,7; 24,7; 0,0; 0,0;247,5; 113,6
2020-04-18 22:52:59; 15,1; 33; -1,1; 980,8743;1006,4375;4; 24,7; 24,7; 0,0; 0,0;247,5; 113,6
2020-04-18 23:03:00; 15,0; 33; -1,1; 980,8743;1006,4375;4; 24,7; 24,7; 0,0; 0,0;247,5; 113,6
2020-04-18 23:12:59; 14,8; 33; -1,3; 980,8743;1006,4375;4; 24,7; 24,7; 0,0; 0,0;247,5; 113,6
2020-04-18 23:23:00; 14,7; 34; -1,0; 980,8743;1006,4375;4; 24,7; 24,7; 0,0; 0,0;247,5; 113,6
2020-04-18 23:32:59; 14,5; 34; -1,2; 980,7493;1006,3125;4; 24,7; 24,7; 0,0; 0,0;247,5; 113,6
2020-04-18 23:42:59; 14,4; 35; -0,9; 980,7493;1006,3125;4; 24,7; 24,7; 0,0; 0,0;247,5; 113,6
2020-04-18 23:53:00; 14,3; 35; -1,0; 980,8118;1006,3750;4; 24,7; 24,7; 0,0; 0,0;247,5; 113,6
2020-04-19 00:02:59; 14,1; 36; -0,8; 980,8118;1006,3750;4; 24,7; 24,7; 0,0; 0,0;247,5; 113,6
2020-04-19 00:13:00; 14,1; 36; -0,8; 980,8118;1006,3750;4; 24,7; 24,7; 0,0; 0,0;247,5; 113,6
2020-04-19 00:22:59; 13,9; 37; -0,6; 980,8118;1006,3750;4; 24,7; 24,7; 0,0; 0,0;247,5; 113,6
2020-04-19 00:33:00; 13,7; 37; -0,7; 981,0618;1006,6250;4; 24,7; 24,7; 0,0; 0,0;247,5; 113,6
2020-04-19 00:42:59; 13,6; 38; -0,5; 981,0618;1006,6250;4; 24,7; 24,7; 0,0; 0,0;247,5; 113,6
2020-04-19 00:53:00; 13,1; 39; -0,5; 981,1868;1006,7500;4; 24,7; 24,7; 0,0; 0,0;247,5; 113,6
2020-04-19 01:02:59; 12,8; 40; -0,5; 981,1868;1006,7500;4; 24,7; 24,7; 0,0; 0,0;247,5; 113,6
2020-04-19 01:12:59; 12,7; 40; -0,6; 980,9993;1006,5625;4; 24,7; 24,7; 0,0; 0,0;247,5; 113,6
2020-04-19 01:23:00; 12,5; 41; -0,4; 980,9993;1006,5625;4; 24,7; 24,7; 0,0; 0,0;247,5; 113,6
2020-04-19 01:32:59; 12,4; 41; -0,5; 980,9993;1006,5625;4; 24,7; 24,7; 0,0; 0,0;247,5; 113,6
2020-04-19 01:43:00; 12,3; 41; -0,6; 980,9993;1006,5625;4; 24,7; 24,7; 0,0; 0,0;247,5; 113,6
2020-04-19 01:52:59; 12,1; 42; -0,4; 980,9368;1006,5000;4; 24,7; 24,7; 0,0; 0,0;247,5; 113,6
2020-04-19 02:03:00; 11,9; 42; -0,6; 980,9368;1006,5000;4; 24,6; 24,6; 0,0; 0,0;247,5; 113,6
2020-04-19 02:12:59; 11,9; 42; -0,6; 980,8743;1006,4375;4; 24,6; 24,6; 0,0; 0,0;247,5; 113,6
2020-04-19 02:23:00; 11,5; 42; -1,0; 980,8743;1006,4375;4; 24,6; 24,6; 0,0; 0,0;247,5; 113,6
2020-04-19 02:32:59; 11,5; 43; -0,7; 980,9993;1006,5625;4; 24,6; 24,6; 0,0; 0,0;247,5; 113,6
2020-04-19 02:42:59; 11,5; 43; -0,7; 980,9993;1006,5625;4; 24,6; 24,6; 0,0; 0,0;247,5; 113,6
2020-04-19 02:53:00; 11,2; 43; -0,9; 980,9993;1006,5625;4; 24,5; 24,5; 0,0; 0,0;247,5; 113,6
2020-04-19 04:02:59; 11,1; 43; -1,0; 980,9993;1006,5625;4; 24,5; 24,5; 0,0; 0,0;247,5; 113,6
2020-04-19 04:12:59; 11,1; 44; -0,7; 981,1868;1006,7500;4; 24,5; 24,5; 0,0; 0,0;247,5; 113,6
2020-04-19 04:23:00; 11,1; 44; -0,7; 981,1868;1006,7500;4; 24,5; 24,5; 0,0; 0,0;247,5; 113,6
2020-04-19 04:32:59; 11,0; 44; -0,8; 981,1868;1006,7500;4; 24,5; 24,5; 0,0; 0,0;247,5; 113,6
2020-04-19 04:43:00; 10,9; 44; -0,9; 981,1868;1006,7500;4; 24,5; 24,5; 0,0; 0,0;247,5; 113,6
2020-04-19 04:52:59; 10,9; 44; -0,9; 981,0618;1006,6250;4; 24,5; 24,5; 0,0; 0,0;247,5; 113,6
2020-04-19 05:03:00; 10,7; 45; -0,8; 981,0618;1006,6250;4; 24,5; 24,5; 0,0; 0,0;247,5; 113,6
2020-04-19 05:12:59; 10,6; 45; -0,8; 981,2493;1006,8125;4; 24,5; 24,5; 0,0; 0,0;247,5; 113,6
2020-04-19 05:23:00; 10,4; 45; -1,0; 981,2493;1006,8125;4; 24,5; 24,5; 0,0; 0,0;247,5; 113,6
2020-04-19 05:32:59; 10,3; 46; -0,8; 981,3118;1006,8750;4; 24,5; 24,5; 0,0; 0,0;247,5; 113,6
2020-04-19 05:42:59; 10,1; 46; -1,0; 981,3118;1006,8750;4; 24,5; 24,5; 0,0; 0,0;247,5; 113,6
2020-04-19 05:53:00; 10,0; 46; -1,1; 981,0618;1006,6250;4; 24,5; 24,5; 0,0; 0,0;247,5; 113,6
2020-04-19 05:03:00; 10,0; 46; -1,1; 981,0618;1006,6250;4; 24,5; 24,5; 0,0; 0,0;247,5; 113,6
2020-04-19 05:12:59; 10,0; 46; -1,1; 981,3118;1006,8750;4; 24,5; 24,5; 0,0; 0,0;247,5; 113,6
2020-04-19 05:23:00; 10,0; 47; -0,8; 981,3118;1006,8750;4; 24,5; 24,5; 0,0; 0,0;247,5; 113,6
2020-04-19 05:32:59; 9,9; 46; -1,2; 981,6243;1007,1875;4; 24,5; 24,5; 0,0; 0,0;247,5; 113,6
2020-04-19 05:42:59; 9,9; 46; -1,2; 981,6243;1007,1875;4; 24,5; 24,5; 0,0; 0,0;247,5; 113,6
2020-04-19 05:53:00; 9,9; 46; -1,2; 981,8118;1007,3750;4; 24,5; 24,5; 0,0; 0,0;247,5; 113,6
2020-04-19 06:02:59; 9,8; 46; -1,3; 981,8118;1007,3750;4; 24,5; 24,5; 0,0; 0,0;247,5; 113,6
2020-04-19 06:13:00; 9,7; 46; -1,4; 981,9368;1007,5000;4; 24,5; 24,5; 0,0; 0,0;247,5; 113,6
2020-04-19 06:22:59; 9,3; 48; -1,2; 981,9368;1007,5000;4; 24,5; 24,5; 0,0; 0,0;247,5; 113,6
2020-04-19 06:33:00; 9,1; 48; -1,3; 982,0618;1007,6250;4; 24,5; 24,5; 0,0; 0,0;247,5; 113,6
2020-04-19 06:42:59; 9,2; 48; -1,2; 982,0618;1007,6250;4; 24,5; 24,5; 0,0; 0,0;247,5; 113,6
2020-04-19 06:53:00; 9,2; 48; -1,2; 982,4368;1008,0000;4; 24,5; 24,5; 0,0; 0,0;247,5; 113,6
2020-04-19 07:02:59; 9,1; 47; -1,6; 982,4368;1008,0000;4; 24,5; 24,5; 0,0; 0,0;247,5; 113,6
2020-04-19 07:12:59; 9,2; 48; -1,2; 982,6243;1008,1875;4; 24,5; 24,5; 0,0; 0,0;247,5; 113,6
2020-04-19 07:23:00; 9,1; 48; -1,3; 982,6243;1008,1875;4; 24,5; 24,5; 0,0; 0,0;247,5; 113,6
2020-04-19 07:32:59; 9,0; 47; -1,7; 982,8743;1008,4375;4; 24,5; 24,5; 0,0; 0,0;247,5; 113,6
2020-04-19 07:43:00; 8,7; 45; -2,6; 982,8743;1008,4375;4; 24,5; 24,5; 0,0; 0,0;247,5; 113,6
2020-04-19 07:52:59; 8,7; 45; -2,6; 983,1868;1008,7500;4; 24,5; 24,5; 0,0; 0,0;247,5; 113,6
2020-04-19 08:03:00; 8,8; 45; -2,5; 983,1868;1008,7500;4; 24,5; 24,5; 0,0; 0,0;247,5; 113,6
2020-04-19 08:12:59; 8,9; 44; -2,7; 983,6868;1009,2500;5; 24,5; 24,5; 0,0; 0,0;247,5; 113,6
2020-04-19 08:23:00; 8,7; 43; -3,2; 983,6868;1009,2500;5; 24,5; 24,5; 0,0; 0,0;247,5; 113,6
2020-04-19 08:32:59; 9,2; 43; -2,7; 983,6243;1009,1875;5; 24,6; 24,6; 0,0; 0,0;247,5; 113,6
2020-04-19 08:42:59; 9,2; 41; -3,4; 983,6243;1009,1875;5; 24,7; 24,7; 0,0; 0,0;247,5; 113,6
2020-04-19 08:53:00; 9,8; 41; -2,8; 983,8118;1009,3750;5; 24,8; 24,8; 0,0; 0,0;247,5; 113,6
2020-04-19 09:02:59; 9,9; 40; -3,1; 983,8118;1009,3750;5; 24,9; 24,9; 0,0; 0,0;247,5; 113,6
2020-04-19 09:13:00; 9,9; 41; -2,7; 983,8118;1009,3750;5; 24,9; 24,9; 0,0; 0,0;247,5; 113,6
2020-04-19 09:22:59; 10,2; 40; -2,8; 983,8118;1009,3750;5; 24,9; 24,9; 0,0; 0,0;247,5; 113,6
2020-04-19 09:33:00; 10,3; 40; -2,7; 984,0618;1009,6250;5; 25,0; 25,0; 0,0; 0,0;247,5; 113,6
2020-04-19 09:42:59; 10,4; 40; -2,6; 984,0618;1009,6250;5; 25,0; 25,0; 0,0; 0,0;247,5; 113,6
2020-04-19 09:53:00; 10,1; 38; -3,6; 984,3743;1009,9375;5; 25,0; 25,0; 0,0; 0,0;247,5; 113,6
2020-04-19 10:02:59; 10,1; 40; -2,9; 984,3743;1009,9375;5; 25,1; 25,1; 0,0; 0,0;247,5; 113,6
2020-04-19 10:12:59; 10,7; 40; -2,4; 984,4368;1010,0000;5; 25,2; 25,2; 0,0; 0,0;247,5; 113,6
2020-04-19 10:23:00; 11,5; 39; -2,0; 984,4368;1010,0000;5; 25,6; 25,6; 0,0; 0,0;247,5; 113,6
2020-04-19 10:32:59; 12,0; 38; -1,9; 984,8743;1010,4375;5; 26,0; 26,0; 0,0; 0,0;247,5; 113,6
2020-04-19 10:43:00; 12,6; 37; -1,7; 984,8743;1010,4375;5; 26,3; 26,3; 0,0; 0,0;247,5; 113,6
2020-04-19 10:52:59; 12,9; 36; -1,8; 985,4368;1011,0000;5; 26,6; 26,6; 0,0; 0,0;247,5; 113,6
2020-04-19 11:03:00; 13,1; 35; -2,0; 985,4368;1011,0000;5; 26,8; 26,8; 0,0; 0,0;247,5; 113,6
2020-04-19 11:12:59; 13,6; 34; -2,0; 985,7493;1011,3125;5; 27,0; 27,0; 0,0; 0,0;247,5; 113,6
2020-04-19 11:23:00; 13,6; 34; -2,0; 985,7493;1011,3125;5; 27,0; 27,0; 0,0; 0,0;247,5; 113,6
2020-04-19 11:32:59; 14,1; 34; -1,5; 985,8743;1011,4375;5; 27,1; 27,1; 0,0; 0,0;247,5; 113,6
2020-04-19 11:42:59; 14,9; 33; -1,2; 985,8743;1011,4375;5; 27,3; 27,3; 0,0; 0,0;247,5; 113,6
2020-04-19 11:53:00; 15,1; 34; -0,7; 985,9368;1011,5000;5; 27,5; 27,5; 0,0; 0,0;247,5; 113,6
2020-04-19 12:02:59; 15,9; 33; -0,4; 985,9368;1011,5000;5; 27,5; 27,5; 0,0; 0,0;247,5; 113,6
2020-04-19 12:13:00; 16,7; 32; -0,1; 985,8743;1011,4375;5; 27,5; 27,5; 0,0; 0,0;247,5; 113,6
2020-04-19 12:22:59; 16,9; 29; -1,3; 985,8743;1011,4375;5; 27,6; 27,6; 0,0; 0,0;247,5; 113,6
2020-04-19 12:33:00; 16,8; 29; -1,3; 985,8743;1011,4375;5; 27,6; 27,6; 0,0; 0,0;247,5; 113,6
2020-04-19 12:42:59; 17,8; 27; -1,5; 985,8743;1011,4375;5; 27,6; 27,6; 0,0; 0,0;247,5; 113,6
2020-04-19 12:53:00; 17,8; 27; -1,5; 986,2493;1011,8125;5; 27,5; 27,5; 0,0; 0,0;247,5; 113,6
2020-04-19 13:02:59; 17,6; 26; -2,1; 986,2493;1011,8125;5; 27,4; 27,4; 0,0; 0,0;247,5; 113,6
2020-04-19 13:12:59; 17,5; 27; -1,7; 986,3743;1011,9375;5; 27,3; 27,3; 0,0; 0,0;247,5; 113,6
2020-04-19 13:23:00; 17,9; 26; -1,9; 986,3743;1011,9375;5; 27,3; 27,3; 0,0; 0,0;247,5; 113,6
2020-04-19 13:32:59; 17,3; 25; -2,9; 986,3743;1011,9375;5; 27,3; 27,3; 0,0; 0,0;247,5; 113,6
2020-04-19 13:43:00; 18,2; 26; -1,6; 986,3743;1011,9375;5; 27,2; 27,2; 0,0; 0,0;247,5; 113,6
2020-04-19 13:52:59; 18,4; 25; -2,0; 986,4368;1012,0000;5; 27,1; 27,1; 0,0; 0,0;247,5; 113,6
2020-04-19 14:03:00; 18,1; 25; -2,2; 986,4368;1012,0000;5; 27,1; 27,1; 0,0; 0,0;247,5; 113,6
2020-04-19 14:12:59; 18,2; 25; -2,2; 986,4993;1012,0625;5; 26,9; 26,9; 0,0; 0,0;247,5; 113,6
2020-04-19 14:23:00; 18,6; 23; -2,9; 986,4993;1012,0625;5; 26,9; 26,9; 0,0; 0,0;247,5; 113,6
2020-04-19 14:32:59; 18,4; 24; -2,5; 986,4993;1012,0625;5; 26,8; 26,8; 0,0; 0,0;247,5; 113,6
2020-04-19 14:42:59; 18,6; 24; -2,4; 986,4993;1012,0625;5; 26,8; 26,8; 0,0; 0,0;247,5; 113,6
2020-04-19 14:53:00; 18,9; 24; -2,1; 986,4993;1012,0625;5; 26,7; 26,7; 0,0; 0,0;247,5; 113,6
2020-04-19 15:02:59; 18,9; 25; -1,6; 986,4993;1012,0625;5; 26,7; 26,7; 0,0; 0,0;247,5; 113,6
2020-04-19 15:13:00; 19,3; 24; -1,8; 986,3743;1011,9375;5; 26,6; 26,6; 0,0; 0,0;247,5; 113,6
2020-04-19 15:22:59; 18,9; 24; -2,1; 986,3743;1011,9375;5; 26,6; 26,6; 0,0; 0,0;247,5; 113,6
2020-04-19 15:33:00; 19,4; 23; -2,3; 986,3118;1011,8750;5; 26,6; 26,6; 0,0; 0,0;247,5; 113,6
2020-04-19 15:42:59; 18,7; 25; -1,7; 986,3118;1011,8750;5; 26,5; 26,5; 0,0; 0,0;247,5; 113,6
2020-04-19 15:53:00; 18,5; 24; -2,5; 986,3118;1011,8750;5; 26,5; 26,5; 0,0; 0,0;247,5; 113,6
2020-04-19 16:02:59; 17,9; 24; -3,0; 986,3118;1011,8750;5; 26,5; 26,5; 0,0; 0,0;247,5; 113,6
2020-04-19 16:12:59; 17,8; 25; -2,5; 986,1243;1011,6875;5; 26,4; 26,4; 0,0; 0,0;247,5; 113,6
2020-04-19 16:23:00; 17,5; 25; -2,8; 986,1243;1011,6875;5; 26,3; 26,3; 0,0; 0,0;247,5; 113,6
2020-04-19 16:32:59; 17,8; 26; -2,0; 986,0618;1011,6250;5; 26,3; 26,3; 0,0; 0,0;247,5; 113,6
2020-04-19 16:43:00; 17,4; 25; -2,8; 986,0618;1011,6250;5; 26,2; 26,2; 0,0; 0,0;247,5; 113,6
2020-04-19 16:52:59; 17,8; 26; -2,0; 985,6243;1011,1875;5; 26,1; 26,1; 0,0; 0,0;247,5; 113,6
2020-04-19 17:03:00; 17,9; 25; -2,4; 985,6243;1011,1875;5; 26,1; 26,1; 0,0; 0,0;247,5; 113,6
2020-04-19 17:12:59; 17,5; 25; -2,8; 985,7493;1011,3125;5; 26,0; 26,0; 0,0; 0,0;247,5; 113,6
2020-04-19 17:23:00; 16,9; 26; -2,7; 985,7493;1011,3125;5; 26,0; 26,0; 0,0; 0,0;247,5; 113,6
2020-04-19 17:32:59; 16,7; 26; -2,9; 985,5618;1011,1250;5; 25,9; 25,9; 0,0; 0,0;247,5; 113,6
2020-04-19 17:42:59; 16,5; 27; -2,6; 985,5618;1011,1250;5; 25,8; 25,8; 0,0; 0,0;247,5; 113,6
2020-04-19 17:53:00; 16,4; 27; -2,7; 985,3743;1010,9375;5; 25,8; 25,8; 0,0; 0,0;247,5; 113,6
2020-04-19 18:02:59; 16,3; 27; -2,7; 985,3743;1010,9375;5; 25,7; 25,7; 0,0; 0,0;247,5; 113,6
2020-04-19 18:13:00; 15,9; 27; -3,1; 985,3743;1010,9375;5; 25,6; 25,6; 0,0; 0,0;247,5; 113,6
2020-04-19 18:22:59; 16,2; 28; -2,3; 985,3743;1010,9375;5; 25,6; 25,6; 0,0; 0,0;247,5; 113,6
2020-04-19 18:33:00; 16,5; 28; -2,1; 985,3743;1010,9375;5; 25,5; 25,5; 0,0; 0,0;247,5; 113,6
2020-04-19 18:42:59; 16,5; 28; -2,1; 985,3743;1010,9375;5; 25,4; 25,4; 0,0; 0,0;247,5; 113,6
2020-04-19 18:53:00; 16,0; 28; -2,5; 985,3743;1010,9375;5; 25,4; 25,4; 0,0; 0,0;247,5; 113,6
2020-04-19 19:02:59; 15,4; 29; -2,6; 985,3743;1010,9375;5; 25,4; 25,4; 0,0; 0,0;247,5; 113,6
2020-04-19 19:12:59; 15,0; 30; -2,4; 985,6868;1011,2500;5; 25,3; 25,3; 0,0; 0,0;247,5; 113,6
2020-04-19 19:23:00; 14,6; 31; -2,3; 985,6868;1011,2500;5; 25,3; 25,3; 0,0; 0,0;247,5; 113,6
2020-04-19 19:32:59; 14,3; 31; -2,6; 985,6243;1011,1875;5; 25,3; 25,3; 0,0; 0,0;247,5; 113,6
2020-04-19 19:43:00; 13,9; 31; -3,0; 985,6243;1011,1875;5; 25,2; 25,2; 0,0; 0,0;247,5; 113,6
2020-04-19 19:52:59; 13,6; 32; -2,8; 985,9993;1011,5625;5; 25,1; 25,1; 0,0; 0,0;247,5; 113,6
2020-04-19 20:03:00; 13,3; 33; -2,6; 985,9993;1011,5625;5; 25,1; 25,1; 0,0; 0,0;247,5; 113,6
2020-04-19 20:12:59; 13,1; 33; -2,8; 986,1868;1011,7500;5; 25,1; 25,1; 0,0; 0,0;247,5; 113,6
2020-04-19 20:23:00; 12,8; 34; -2,7; 986,1868;1011,7500;5; 25,1; 25,1; 0,0; 0,0;247,5; 113,6
2020-04-19 20:32:59; 12,6; 34; -2,9; 986,6243;1012,1875;5; 25,0; 25,0; 0,0; 0,0;247,5; 113,6
2020-04-19 20:42:59; 12,5; 36; -2,2; 986,6243;1012,1875;5; 25,0; 25,0; 0,0; 0,0;247,5; 113,6
2020-04-19 20:53:00; 12,3; 36; -2,4; 986,6868;1012,2500;5; 25,0; 25,0; 0,0; 0,0;247,5; 113,6
2020-04-19 21:02:59; 12,0; 36; -2,6; 986,6868;1012,2500;5; 24,9; 24,9; 0,0; 0,0;247,5; 113,6
2020-04-19 21:13:00; 11,9; 36; -2,7; 986,9368;1012,5000;5; 24,9; 24,9; 0,0; 0,0;247,5; 113,6
2020-04-19 21:22:59; 11,6; 37; -2,6; 986,9368;1012,5000;5; 24,9; 24,9; 0,0; 0,0;247,5; 113,6
2020-04-19 21:33:00; 11,4; 37; -2,8; 987,1868;1012,7500;5; 24,9; 24,9; 0,0; 0,0;247,5; 113,6
2020-04-19 21:42:59; 11,2; 38; -2,6; 987,1868;1012,7500;5; 24,9; 24,9; 0,0; 0,0;247,5; 113,6
2020-04-19 21:53:00; 11,0; 38; -2,8; 987,2493;1012,8125;5; 24,9; 24,9; 0,0; 0,0;247,5; 113,6
2020-04-19 22:02:59; 10,9; 38; -2,9; 987,2493;1012,8125;5; 24,8; 24,8; 0,0; 0,0;247,5; 113,6
2020-04-19 22:12:59; 10,7; 39; -2,7; 987,3118;1012,8750;5; 24,8; 24,8; 0,0; 0,0;247,5; 113,6
2020-04-19 22:23:00; 10,5; 39; -2,9; 987,3118;1012,8750;5; 24,8; 24,8; 0,0; 0,0;247,5; 113,6
2020-04-19 22:32:59; 10,3; 38; -3,4; 987,4368;1013,0000;5; 24,8; 24,8; 0,0; 0,0;247,5; 113,6
2020-04-19 22:43:00; 10,1; 39; -3,2; 987,4368;1013,0000;5; 24,7; 24,7; 0,0; 0,0;247,5; 113,6
2020-04-19 22:52:59; 9,9; 39; -3,4; 987,3118;1012,8750;5; 24,7; 24,7; 0,0; 0,0;247,5; 113,6
2020-04-19 23:03:00; 9,7; 39; -3,6; 987,3118;1012,8750;5; 24,7; 24,7; 0,0; 0,0;247,5; 113,6
2020-04-19 23:12:59; 9,6; 39; -3,7; 987,5618;1013,1250;5; 24,7; 24,7; 0,0; 0,0;247,5; 113,6
2020-04-19 23:23:00; 9,5; 39; -3,8; 987,5618;1013,1250;5; 24,7; 24,7; 0,0; 0,0;247,5; 113,6
2020-04-19 23:32:59; 9,4; 40; -3,5; 987,6243;1013,1875;5; 24,7; 24,7; 0,0; 0,0;247,5; 113,6
2020-04-19 23:42:59; 9,1; 40; -3,8; 987,6243;1013,1875;5; 24,7; 24,7; 0,0; 0,0;247,5; 113,6
2020-04-19 23:53:00; 8,9; 41; -3,6; 987,7493;1013,3125;6; 24,7; 24,7; 0,0; 0,0;247,5; 113,6
2020-04-20 00:02:59; 8,7; 41; -3,8; 987,7493;1013,3125;6; 24,7; 24,7; 0,0; 0,0;247,5; 113,6
2020-04-20 00:13:00; 8,5; 42; -3,7; 987,8118;1013,3750;6; 24,6; 24,6; 0,0; 0,0;247,5; 113,6
2020-04-20 00:22:59; 8,3; 43; -3,6; 987,8118;1013,3750;6; 24,6; 24,6; 0,0; 0,0;247,5; 113,6
2020-04-20 00:33:00; 8,0; 44; -3,5; 987,9993;1013,5625;6; 24,6; 24,6; 0,0; 0,0;247,5; 113,6
2020-04-20 00:42:59; 7,7; 45; -3,5; 987,9993;1013,5625;6; 24,6; 24,6; 0,0; 0,0;247,5; 113,6
2020-04-20 00:53:00; 7,5; 46; -3,4; 988,1243;1013,6875;6; 24,5; 24,5; 0,0; 0,0;247,5; 113,6
2020-04-20 01:02:59; 7,3; 46; -3,6; 988,1243;1013,6875;6; 24,5; 24,5; 0,0; 0,0;247,5; 113,6
2020-04-20 01:12:59; 7,1; 47; -3,5; 988,2493;1013,8125;6; 24,5; 24,5; 0,0; 0,0;247,5; 113,6
2020-04-20 01:23:00; 6,9; 48; -3,4; 988,2493;1013,8125;6; 24,5; 24,5; 0,0; 0,0;247,5; 113,6
2020-04-20 01:32:59; 6,7; 48; -3,5; 988,3118;1013,8750;6; 24,5; 24,5; 0,0; 0,0;247,5; 113,6
2020-04-20 01:43:00; 6,6; 49; -3,4; 988,3118;1013,8750;6; 24,5; 24,5; 0,0; 0,0;247,5; 113,6
2020-04-20 01:52:59; 6,3; 49; -3,6; 988,3118;1013,8750;6; 24,5; 24,5; 0,0; 0,0;247,5; 113,6
2020-04-20 02:03:00; 6,2; 49; -3,7; 988,3118;1013,8750;6; 24,5; 24,5; 0,0; 0,0;247,5; 113,6
2020-04-20 02:12:59; 6,0; 50; -3,6; 988,3118;1013,8750;6; 24,5; 24,5; 0,0; 0,0;247,5; 113,6
2020-04-20 02:23:00; 5,8; 50; -3,8; 988,3118;1013,8750;6; 24,5; 24,5; 0,0; 0,0;247,5; 113,6
2020-04-20 02:32:59; 5,6; 50; -4,0; 988,3118;1013,8750;6; 24,5; 24,5; 0,0; 0,0;247,5; 113,6
2020-04-20 02:42:59; 5,4; 50; -4,2; 988,3118;1013,8750;6; 24,4; 24,4; 0,0; 0,0;247,5; 113,6
2020-04-20 02:53:00; 5,3; 51; -4,0; 988,1868;1013,7500;6; 24,4; 24,4; 0,0; 0,0;247,5; 113,6
2020-04-20 03:02:59; 5,2; 51; -4,1; 988,1868;1013,7500;6; 24,4; 24,4; 0,0; 0,0;247,5; 113,6
2020-04-20 03:13:00; 5,1; 51; -4,2; 988,1868;1013,7500;6; 24,4; 24,4; 0,0; 0,0;247,5; 113,6
2020-04-20 03:22:59; 4,8; 52; -4,2; 988,1868;1013,7500;6; 24,4; 24,4; 0,0; 0,0;247,5; 113,6
2020-04-20 03:33:00; 4,8; 52; -4,2; 988,1868;1013,7500;6; 24,4; 24,4; 0,0; 0,0;247,5; 113,6
2020-04-20 03:42:59; 4,6; 52; -4,4; 988,1868;1013,7500;6; 24,4; 24,4; 0,0; 0,0;247,5; 113,6
2020-04-20 03:53:00; 4,4; 53; -4,3; 987,9993;1013,5625;6; 24,4; 24,4; 0,0; 0,0;247,5; 113,6
2020-04-20 04:02:59; 4,4; 53; -4,3; 987,9993;1013,5625;6; 24,4; 24,4; 0,0; 0,0;247,5; 113,6
2020-04-20 04:12:59; 4,2; 54; -4,3; 987,9368;1013,5000;6; 24,4; 24,4; 0,0; 0,0;247,5; 113,6
2020-04-20 04:23:00; 4,1; 55; -4,1; 987,9368;1013,5000;6; 24,4; 24,4; 0,0; 0,0;247,5; 113,6
2020-04-20 04:32:59; 4,0; 55; -4,2; 988,0618;1013,6250;6; 24,3; 24,3; 0,0; 0,0;247,5; 113,6
2020-04-20 04:43:00; 3,8; 55; -4,4; 988,0618;1013,6250;6; 24,3; 24,3; 0,0; 0,0;247,5; 113,6
2020-04-20 04:52:59; 3,8; 55; -4,4; 988,3743;1013,9375;6; 24,3; 24,3; 0,0; 0,0;247,5; 113,6
2020-04-20 05:03:00; 3,6; 56; -4,4; 988,3743;1013,9375;6; 24,3; 24,3; 0,0; 0,0;247,5; 113,6
2020-04-20 05:12:59; 3,5; 56; -4,5; 988,3743;1013,9375;6; 24,3; 24,3; 0,0; 0,0;247,5; 113,6
2020-04-20 05:23:00; 3,5; 56; -4,5; 988,3743;1013,9375;6; 24,3; 24,3; 0,0; 0,0;247,5; 113,6
2020-04-20 05:32:59; 3,3; 57; -4,4; 988,4993;1014,0625;6; 24,3; 24,3; 0,0; 0,0;247,5; 113,6
2020-04-20 05:42:59; 3,3; 57; -4,4; 988,4993;1014,0625;6; 24,3; 24,3; 0,0; 0,0;247,5; 113,6
2020-04-20 05:53:00; 3,1; 58; -4,4; 988,6868;1014,2500;6; 24,3; 24,3; 0,0; 0,0;247,5; 113,6
2020-04-20 06:02:59; 3,1; 59; -4,1; 988,6868;1014,2500;6; 24,3; 24,3; 0,0; 0,0;247,5; 113,6
2020-04-20 06:13:00; 3,1; 58; -4,4; 988,7493;1014,3125;6; 24,3; 24,3; 0,0; 0,0;247,5; 113,6
2020-04-20 06:22:59; 3,1; 59; -4,1; 988,7493;1014,3125;6; 24,4; 24,4; 0,0; 0,0;247,5; 113,6
2020-04-20 06:33:00; 3,1; 59; -4,1; 988,8743;1014,4375;6; 24,4; 24,4; 0,0; 0,0;247,5; 113,6
2020-04-20 06:42:59; 3,1; 60; -3,9; 988,8743;1014,4375;6; 24,4; 24,4; 0,0; 0,0;247,5; 113,6
2020-04-20 06:53:00; 3,2; 59; -4,0; 988,9993;1014,5625;6; 24,3; 24,3; 0,0; 0,0;247,5; 113,6
2020-04-20 07:02:59; 3,3; 60; -3,7; 988,9993;1014,5625;6; 24,3; 24,3; 0,0; 0,0;247,5; 113,6
2020-04-20 07:12:59; 3,5; 60; -3,5; 989,1243;1014,6875;6; 24,4; 24,4; 0,0; 0,0;247,5; 113,6
2020-04-20 07:23:00; 3,7; 60; -3,3; 989,1243;1014,6875;6; 24,4; 24,4; 0,0; 0,0;247,5; 113,6
2020-04-20 07:32:59; 3,8; 59; -3,5; 989,1243;1014,6875;6; 24,5; 24,5; 0,0; 0,0;247,5; 113,6
2020-04-20 07:43:00; 4,1; 59; -3,2; 989,1243;1014,6875;6; 24,5; 24,5; 0,0; 0,0;247,5; 113,6
2020-04-20 07:52:59; 4,7; 57; -3,1; 989,2493;1014,8125;6; 24,5; 24,5; 0,0; 0,0;247,5; 113,6
2020-04-20 08:03:00; 5,5; 56; -2,6; 989,2493;1014,8125;6; 24,5; 24,5; 0,0; 0,0;247,5; 113,6
2020-04-20 08:12:59; 6,4; 54; -2,2; 989,2493;1014,8125;6; 24,6; 24,6; 0,0; 0,0;247,5; 113,6
2020-04-20 08:23:00; 7,4; 51; -2,1; 989,2493;1014,8125;6; 24,7; 24,7; 0,0; 0,0;247,5; 113,6
2020-04-20 08:32:59; 8,4; 49; -1,7; 989,1243;1014,6875;6; 24,8; 24,8; 0,0; 0,0;247,5; 113,6
2020-04-20 08:42:59; 9,3; 47; -1,4; 989,1243;1014,6875;6; 25,0; 25,0; 0,0; 0,0;247,5; 113,6
2020-04-20 08:53:00; 10,0; 45; -1,4; 989,4368;1015,0000;6; 25,2; 25,2; 0,0; 0,0;247,5; 113,6
2020-04-20 09:02:59; 10,8; 44; -1,0; 989,4368;1015,0000;6; 25,3; 25,3; 0,0; 0,0;247,5; 113,6
2020-04-20 09:13:00; 11,4; 42; -1,1; 989,6243;1015,1875;6; 25,4; 25,4; 0,0; 0,0;247,5; 113,6
2020-04-20 09:22:59; 11,9; 41; -0,9; 989,6243;1015,1875;6; 25,6; 25,6; 0,0; 0,0;247,5; 113,6
2020-04-20 09:33:00; 12,5; 40; -0,7; 989,4368;1015,0000;6; 25,8; 25,8; 0,0; 0,0;247,5; 113,6
2020-04-20 09:42:59; 12,9; 39; -0,7; 989,4368;1015,0000;6; 26,0; 26,0; 0,0; 0,0;247,5; 113,6
2020-04-20 09:53:00; 13,3; 38; -0,7; 989,5618;1015,1250;6; 26,3; 26,3; 0,0; 0,0;247,5; 113,6
2020-04-20 10:02:59; 13,5; 35; -1,7; 989,5618;1015,1250;6; 26,3; 26,3; 0,0; 0,0;247,5; 113,6
2020-04-20 10:16:59; 14,3; 35; -1,0; 989,4368;1015,0000;6; 26,4; 26,4; 0,0; 0,0;247,5; 113,6
2020-04-20 10:23:00; 14,3; 35; -1,0; 989,4368;1015,0000;6; 26,5; 26,5; 0,0; 0,0;247,5; 113,6
2020-04-20 10:32:59; 14,7; 34; -1,0; 989,4993;1015,0625;6; 26,8; 26,8; 0,0; 0,0;247,5; 113,6
2020-04-20 10:43:00; 15,0; 34; -0,7; 989,4993;1015,0625;6; 26,9; 26,9; 0,0; 0,0;247,5; 113,6
2020-04-20 10:52:59; 14,9; 34; -0,8; 989,4993;1015,0625;6; 27,1; 27,1; 0,0; 0,0;247,5; 113,6
2020-04-20 11:03:00; 14,8; 33; -1,3; 989,4993;1015,0625;6; 27,1; 27,1; 0,0; 0,0;247,5; 113,6
2020-04-20 11:12:59; 14,5; 33; -1,6; 989,4368;1015,0000;6; 27,1; 27,1; 0,0; 0,0;247,5; 113,6
2020-04-20 11:23:00; 15,1; 33; -1,1; 989,4368;1015,0000;6; 27,3; 27,3; 0,0; 0,0;247,5; 113,6
2020-04-20 11:32:59; 15,9; 32; -0,8; 989,4368;1015,0000;6; 27,3; 27,3; 0,0; 0,0;247,5; 113,6
2020-04-20 11:42:59; 16,2; 30; -1,4; 989,4368;1015,0000;6; 27,5; 27,5; 0,0; 0,0;247,5; 113,6
2020-04-20 11:53:00; 15,1; 31; -1,9; 989,2493;1014,8125;6; 27,6; 27,6; 0,0; 0,0;247,5; 113,6
2020-04-20 12:04:59; 15,1; 31; -1,9; 989,2493;1014,8125;6; 27,6; 27,6; 0,0; 0,0;247,5; 113,6
2020-04-20 12:24:59; 16,3; 29; -1,8; 989,2493;1014,8125;6; 27,7; 27,7; 0,0; 0,0;247,5; 113,6
2020-04-20 12:45:00; 16,6; 28; -2,0; 989,2493;1014,8125;6; 27,8; 27,8; 0,0; 0,0;247,5; 113,6
2020-04-20 13:05:00; 16,5; 27; -2,6; 989,3118;1014,8750;6; 27,5; 27,5; 0,0; 0,0;247,5; 113,6
2020-04-20 13:25:00; 16,9; 25; -3,3; 989,0618;1014,6250;6; 27,3; 27,3; 0,0; 0,0;247,5; 113,6
2020-04-20 13:45:00; 17,6; 25; -2,7; 988,7493;1014,3125;6; 27,1; 27,1; 0,0; 0,0;247,5; 113,6
2020-04-20 14:05:00; 17,3; 25; -2,9; 988,8743;1014,4375;6; 27,0; 27,0; 0,0; 0,0;247,5; 113,6
2020-04-20 14:24:59; 17,8; 25; -2,5; 988,6868;1014,2500;6; 26,8; 26,8; 0,0; 0,0;247,5; 113,6
2020-04-20 14:44:59; 18,2; 26; -1,6; 988,4993;1014,0625;6; 26,8; 26,8; 0,0; 0,0;247,5; 113,6
2020-04-20 15:04:59; 18,3; 25; -2,1; 988,4993;1014,0625;6; 26,6; 26,6; 0,0; 0,0;247,5; 113,6
2020-04-20 15:24:59; 19,0; 25; -1,5; 988,2493;1013,8125;6; 26,6; 26,6; 0,0; 0,0;247,5; 113,6
2020-04-20 15:45:00; 18,5; 26; -1,4; 988,0618;1013,6250;6; 26,5; 26,5; 0,0; 0,0;247,5; 113,6
2020-04-20 16:05:00; 17,1; 27; -2,1; 987,9993;1013,5625;6; 26,4; 26,4; 0,0; 0,0;247,5; 113,6
2020-04-20 16:25:00; 17,6; 26; -2,1; 987,6243;1013,1875;5; 26,3; 26,3; 0,0; 0,0;247,5; 113,6
2020-04-20 16:45:00; 17,7; 26; -2,1; 987,2493;1012,8125;5; 26,1; 26,1; 0,0; 0,0;247,5; 113,6
2020-04-20 17:05:00; 17,7; 27; -1,5; 986,9993;1012,5625;5; 26,0; 26,0; 0,0; 0,0;247,5; 113,6
2020-04-20 17:24:59; 17,3; 28; -1,4; 986,8118;1012,3750;5; 25,9; 25,9; 0,0; 0,0;247,5; 113,6
2020-04-20 17:44:59; 17,1; 28; -1,6; 986,8118;1012,3750;5; 25,8; 25,8; 0,0; 0,0;247,5; 113,6
2020-04-20 18:04:59; 16,7; 29; -1,4; 986,7493;1012,3125;5; 25,6; 25,6; 0,0; 0,0;247,5; 113,6
2020-04-20 18:24:59; 16,4; 30; -1,2; 986,8118;1012,3750;5; 25,5; 25,5; 0,0; 0,0;247,5; 113,6
2020-04-20 18:45:00; 15,8; 30; -1,7; 986,8118;1012,3750;5; 25,4; 25,4; 0,0; 0,0;247,5; 113,6
2020-04-20 19:05:00; 15,0; 33; -1,1; 986,6243;1012,1875;5; 25,3; 25,3; 0,0; 0,0;247,5; 113,6
2020-04-20 19:25:00; 14,3; 34; -1,4; 986,8743;1012,4375;5; 25,3; 25,3; 0,0; 0,0;247,5; 113,6
2020-04-20 19:45:00; 13,9; 35; -1,3; 986,8118;1012,3750;5; 25,1; 25,1; 0,0; 0,0;247,5; 113,6
2020-04-20 20:05:00; 13,4; 37; -1,0; 987,1243;1012,6875;5; 25,1; 25,1; 0,0; 0,0;247,5; 113,6
2020-04-20 20:24:59; 13,0; 38; -1,0; 987,1868;1012,7500;5; 25,0; 25,0; 0,0; 0,0;247,5; 113,6
2020-04-20 20:44:59; 12,7; 39; -0,9; 987,4368;1013,0000;5; 25,0; 25,0; 0,0; 0,0;247,5; 113,6
2020-04-20 21:04:59; 12,3; 40; -0,9; 987,5618;1013,1250;5; 24,9; 24,9; 0,0; 0,0;247,5; 113,6
2020-04-20 21:24:59; 11,9; 41; -0,9; 987,7493;1013,3125;5; 24,9; 24,9; 0,0; 0,0;247,5; 113,6
2020-04-20 21:45:00; 11,6; 41; -1,2; 987,8743;1013,4375;5; 24,9; 24,9; 0,0; 0,0;247,5; 113,6
2020-04-20 22:05:00; 11,1; 43; -1,0; 987,9368;1013,5000;5; 24,8; 24,8; 0,0; 0,0;247,5; 113,6
2020-04-20 22:25:00; 10,8; 43; -1,3; 987,6868;1013,2500;5; 24,8; 24,8; 0,0; 0,0;247,5; 113,6
2020-04-20 22:45:00; 10,6; 44; -1,2; 987,7493;1013,3125;5; 24,7; 24,7; 0,0; 0,0;247,5; 113,6
2020-04-20 23:05:00; 10,2; 45; -1,2; 987,7493;1013,3125;5; 24,7; 24,7; 0,0; 0,0;247,5; 113,6
2020-04-20 23:24:59; 9,9; 46; -1,2; 987,6243;1013,1875;5; 24,7; 24,7; 0,0; 0,0;247,5; 113,6
2020-04-20 23:44:59; 9,6; 47; -1,2; 987,6243;1013,1875;5; 24,7; 24,7; 0,0; 0,0;247,5; 113,6
2020-04-21 00:04:59; 9,4; 48; -1,1; 987,6243;1013,1875;5; 24,7; 24,7; 0,0; 0,0;247,5; 113,6
2020-04-21 00:24:59; 9,2; 48; -1,2; 987,6868;1013,2500;5; 24,6; 24,6; 0,0; 0,0;247,5; 113,6
2020-04-21 00:45:00; 8,9; 48; -1,5; 987,8743;1013,4375;5; 24,6; 24,6; 0,0; 0,0;247,5; 113,6
2020-04-21 01:05:00; 8,7; 48; -1,7; 987,8743;1013,4375;5; 24,6; 24,6; 0,0; 0,0;247,5; 113,6
2020-04-21 01:25:00; 8,3; 50; -1,5; 987,8743;1013,4375;5; 24,5; 24,5; 0,0; 0,0;247,5; 113,6
2020-04-21 01:45:00; 7,7; 52; -1,5; 987,9368;1013,5000;5; 24,5; 24,5; 0,0; 0,0;247,5; 113,6
2020-04-21 02:05:00; 7,4; 53; -1,6; 987,8743;1013,4375;5; 24,5; 24,5; 0,0; 0,0;247,5; 113,6
2020-04-21 02:24:59; 7,1; 55; -1,3; 987,8743;1013,4375;5; 24,5; 24,5; 0,0; 0,0;247,5; 113,6
2020-04-21 02:44:59; 6,7; 55; -1,7; 987,8743;1013,4375;5; 24,5; 24,5; 0,0; 0,0;247,5; 113,6
2020-04-21 03:04:59; 6,3; 56; -1,8; 987,5618;1013,1250;5; 24,5; 24,5; 0,0; 0,0;247,5; 113,6
2020-04-21 03:24:59; 6,1; 57; -1,8; 987,4993;1013,0625;5; 24,4; 24,4; 0,0; 0,0;247,5; 113,6
2020-04-21 03:45:00; 5,9; 58; -1,7; 987,4368;1013,0000;5; 24,4; 24,4; 0,0; 0,0;247,5; 113,6
2020-04-21 04:05:00; 5,8; 57; -2,1; 987,4368;1013,0000;5; 24,4; 24,4; 0,0; 0,0;247,5; 113,6
2020-04-21 04:25:00; 5,7; 58; -1,9; 987,4993;1013,0625;5; 24,4; 24,4; 0,0; 0,0;247,5; 113,6
2020-04-21 04:45:00; 5,5; 58; -2,1; 987,4993;1013,0625;5; 24,3; 24,3; 0,0; 0,0;247,5; 113,6
2020-04-21 05:05:00; 5,3; 59; -2,1; 987,3118;1012,8750;5; 24,3; 24,3; 0,0; 0,0;247,5; 113,6
2020-04-21 05:24:59; 5,0; 60; -2,1; 987,3743;1012,9375;5; 24,3; 24,3; 0,0; 0,0;247,5; 113,6
2020-04-21 05:44:59; 4,5; 61; -2,4; 987,3743;1012,9375;5; 24,3; 24,3; 0,0; 0,0;247,5; 113,6
2020-04-21 06:04:59; 4,4; 61; -2,5; 987,3743;1012,9375;5; 24,3; 24,3; 0,0; 0,0;247,5; 113,6
2020-04-21 06:24:59; 4,4; 63; -2,0; 987,4368;1013,0000;5; 24,3; 24,3; 0,0; 0,0;247,5; 113,6
2020-04-21 06:45:00; 4,6; 63; -1,8; 987,3743;1012,9375;5; 24,3; 24,3; 0,0; 0,0;247,5; 113,6
2020-04-21 07:05:00; 4,9; 62; -1,8; 987,6243;1013,1875;5; 24,3; 24,3; 0,0; 0,0;247,5; 113,6
2020-04-21 07:25:00; 5,3; 62; -1,4; 987,6868;1013,2500;5; 24,4; 24,4; 0,0; 0,0;247,5; 113,6
2020-04-21 07:45:00; 5,8; 61; -1,1; 987,6868;1013,2500;5; 24,5; 24,5; 0,0; 0,0;247,5; 113,6
2020-04-21 08:05:00; 7,1; 59; -0,4; 987,6243;1013,1875;5; 24,6; 24,6; 0,0; 0,0;247,5; 113,6
2020-04-21 08:24:59; 8,5; 54; -0,3; 987,5618;1013,1250;5; 24,7; 24,7; 0,0; 0,0;247,5; 113,6
2020-04-21 08:44:59; 10,0; 50; 0,1; 987,6868;1013,2500;5; 25,0; 25,0; 0,0; 0,0;247,5; 113,6
2020-04-21 09:04:59; 11,0; 47; 0,1; 987,8118;1013,3750;5; 25,3; 25,3; 0,0; 0,0;247,5; 113,6
2020-04-21 09:24:59; 12,7; 44; 0,8; 987,8743;1013,4375;5; 25,6; 25,6; 0,0; 0,0;247,5; 113,6
2020-04-21 09:45:00; 13,8; 42; 1,1; 987,9368;1013,5000;5; 26,0; 26,0; 0,0; 0,0;247,5; 113,6
2020-04-21 10:05:00; 15,0; 39; 1,2; 988,1243;1013,6875;5; 26,3; 26,3; 0,0; 0,0;247,5; 113,6
2020-04-21 10:25:00; 14,9; 37; 0,3; 988,1243;1013,6875;5; 26,4; 26,4; 0,0; 0,0;247,5; 113,6
2020-04-21 10:45:00; 16,5; 36; 1,4; 988,1243;1013,6875;5; 26,8; 26,8; 0,0; 0,0;247,5; 113,6
2020-04-21 11:05:00; 17,4; 34; 1,4; 988,0618;1013,6250;5; 27,1; 27,1; 0,0; 0,0;247,5; 113,6
2020-04-21 11:24:59; 17,9; 32; 1,0; 988,3118;1013,8750;5; 27,3; 27,3; 0,0; 0,0;247,5; 113,6
2020-04-21 11:44:59; 18,1; 31; 0,7; 988,2493;1013,8125;5; 27,5; 27,5; 0,0; 0,0;247,5; 113,6
2020-04-21 12:04:59; 18,5; 30; 0,6; 988,1868;1013,7500;5; 27,6; 27,6; 0,0; 0,0;247,5; 113,6
2020-04-21 12:24:59; 19,0; 28; 0,1; 988,1868;1013,7500;5; 27,8; 27,8; 0,0; 0,0;247,5; 113,6
2020-04-21 12:45:00; 19,2; 30; 1,2; 988,0618;1013,6250;5; 27,8; 27,8; 0,0; 0,0;247,5; 113,6
2020-04-21 13:05:00; 19,1; 28; 0,2; 988,1243;1013,6875;5; 27,5; 27,5; 0,0; 0,0;247,5; 113,6
2020-04-21 13:25:00; 19,5; 28; 0,5; 988,3118;1013,8750;5; 27,3; 27,3; 0,0; 0,0;247,5; 113,6
2020-04-21 13:45:00; 20,4; 27; 0,8; 988,4368;1014,0000;5; 27,2; 27,2; 0,0; 0,0;247,5; 113,6
2020-04-21 14:05:00; 19,3; 30; 1,3; 988,3118;1013,8750;5; 27,1; 27,1; 0,0; 0,0;247,5; 113,6
2020-04-21 14:24:59; 19,6; 28; 0,6; 988,3743;1013,9375;5; 26,9; 26,9; 0,0; 0,0;247,5; 113,6
2020-04-21 14:44:59; 19,0; 30; 1,0; 988,3118;1013,8750;5; 26,8; 26,8; 0,0; 0,0;247,5; 113,6
2020-04-21 15:04:59; 20,2; 29; 1,6; 988,3118;1013,8750;5; 26,8; 26,8; 0,0; 0,0;247,5; 113,6
2020-04-21 15:24:59; 19,0; 30; 1,0; 988,0618;1013,6250;5; 26,7; 26,7; 0,0; 0,0;247,5; 113,6
2020-04-21 15:45:00; 19,6; 30; 1,5; 988,1243;1013,6875;5; 26,6; 26,6; 0,0; 0,0;247,5; 113,6
2020-04-21 16:05:00; 18,9; 30; 0,9; 987,9368;1013,5000;5; 26,5; 26,5; 0,0; 0,0;247,5; 113,6
2020-04-21 16:25:00; 19,3; 30; 1,3; 987,9368;1013,5000;5; 26,3; 26,3; 0,0; 0,0;247,5; 113,6
2020-04-21 16:45:00; 18,9; 30; 0,9; 987,9368;1013,5000;5; 26,2; 26,2; 0,0; 0,0;247,5; 113,6
2020-04-21 17:05:00; 18,9; 30; 0,9; 987,5618;1013,1250;5; 26,1; 26,1; 0,0; 0,0;247,5; 113,6
2020-04-21 17:24:59; 18,2; 29; -0,1; 987,5618;1013,1250;5; 26,0; 26,0; 0,0; 0,0;247,5; 113,6
2020-04-21 17:44:59; 18,7; 30; 0,8; 987,4368;1013,0000;5; 25,9; 25,9; 0,0; 0,0;247,5; 113,6
2020-04-21 18:04:59; 18,2; 29; -0,1; 987,5618;1013,1250;5; 25,8; 25,8; 0,0; 0,0;247,5; 113,6
2020-04-21 18:24:59; 18,0; 29; -0,3; 987,4368;1013,0000;5; 25,6; 25,6; 0,0; 0,0;247,5; 113,6
2020-04-21 18:45:00; 17,6; 31; 0,3; 987,6868;1013,2500;5; 25,5; 25,5; 0,0; 0,0;247,5; 113,6
2020-04-21 19:05:00; 16,9; 32; 0,1; 987,5618;1013,1250;5; 25,4; 25,4; 0,0; 0,0;247,5; 113,6
2020-04-21 19:25:00; 16,3; 33; 0,0; 987,4993;1013,0625;5; 25,4; 25,4; 0,0; 0,0;247,5; 113,6
2020-04-21 19:45:00; 15,6; 34; -0,2; 987,5618;1013,1250;5; 25,3; 25,3; 0,0; 0,0;247,5; 113,6
2020-04-21 20:05:00; 15,1; 35; -0,3; 987,6243;1013,1875;5; 25,2; 25,2; 0,0; 0,0;247,5; 113,6
2020-04-21 20:24:59; 14,7; 36; -0,2; 987,8118;1013,3750;5; 25,1; 25,1; 0,0; 0,0;247,5; 113,6
2020-04-21 20:44:59; 14,3; 37; -0,2; 987,9993;1013,5625;5; 25,1; 25,1; 0,0; 0,0;247,5; 113,6
2020-04-21 21:04:59; 13,9; 38; -0,2; 988,6243;1014,1875;6; 25,0; 25,0; 0,0; 0,0;247,5; 113,6
2020-04-21 21:24:59; 13,5; 39; -0,2; 988,1243;1013,6875;6; 25,0; 25,0; 0,0; 0,0;247,5; 113,6
2020-04-21 21:45:00; 13,1; 40; -0,2; 988,2493;1013,8125;6; 25,0; 25,0; 0,0; 0,0;247,5; 113,6
2020-04-21 22:05:00; 12,7; 41; -0,2; 988,3743;1013,9375;6; 24,9; 24,9; 0,0; 0,0;247,5; 113,6
2020-04-21 22:25:00; 12,3; 41; -0,6; 988,3118;1013,8750;6; 24,9; 24,9; 0,0; 0,0;247,5; 113,6
2020-04-21 22:45:00; 12,0; 42; -0,5; 988,3118;1013,8750;6; 24,9; 24,9; 0,0; 0,0;247,5; 113,6
2020-04-21 23:05:00; 11,7; 42; -0,8; 988,3743;1013,9375;6; 24,8; 24,8; 0,0; 0,0;247,5; 113,6
2020-04-21 23:24:59; 11,1; 44; -0,7; 988,2493;1013,8125;6; 24,8; 24,8; 0,0; 0,0;247,5; 113,6
2020-04-21 23:44:59; 10,7; 44; -1,1; 988,8743;1014,4375;6; 24,8; 24,8; 0,0; 0,0;247,5; 113,6
2020-04-22 00:04:59; 10,3; 46; -0,8; 988,2493;1013,8125;6; 24,7; 24,7; 0,0; 0,0;247,5; 113,6
2020-04-22 00:24:59; 9,7; 47; -1,1; 988,1868;1013,7500;6; 24,7; 24,7; 0,0; 0,0;247,5; 113,6
2020-04-22 00:45:00; 9,3; 48; -1,2; 988,5618;1014,1250;6; 24,7; 24,7; 0,0; 0,0;247,5; 113,6
2020-04-22 01:05:00; 8,8; 49; -1,3; 988,5618;1014,1250;6; 24,7; 24,7; 0,0; 0,0;247,5; 113,6
2020-04-22 01:25:00; 8,3; 49; -1,8; 988,5618;1014,1250;6; 24,6; 24,6; 0,0; 0,0;247,5; 113,6
2020-04-22 01:45:00; 8,1; 50; -1,7; 988,4993;1014,0625;6; 24,6; 24,6; 0,0; 0,0;247,5; 113,6
2020-04-22 02:05:00; 7,8; 50; -2,0; 988,4993;1014,0625;6; 24,5; 24,5; 0,0; 0,0;247,5; 113,6
2020-04-22 02:24:59; 7,4; 52; -1,8; 988,3743;1013,9375;6; 24,5; 24,5; 0,0; 0,0;247,5; 113,6
2020-04-22 02:44:59; 7,1; 53; -1,8; 988,3743;1013,9375;6; 24,5; 24,5; 0,0; 0,0;247,5; 113,6
2020-04-22 03:04:59; 6,8; 54; -1,9; 988,3118;1013,8750;6; 24,5; 24,5; 0,0; 0,0;247,5; 113,6
2020-04-22 03:24:59; 6,5; 54; -2,1; 988,3743;1013,9375;6; 24,5; 24,5; 0,0; 0,0;247,5; 113,6
2020-04-22 03:45:00; 6,2; 55; -2,2; 988,5618;1014,1250;6; 24,5; 24,5; 0,0; 0,0;247,5; 113,6
2020-04-22 04:05:00; 5,9; 56; -2,2; 988,6243;1014,1875;6; 24,4; 24,4; 0,0; 0,0;247,5; 113,6
2020-04-22 04:25:00; 5,8; 56; -2,3; 988,6243;1014,1875;6; 24,4; 24,4; 0,0; 0,0;247,5; 113,6
2020-04-22 04:45:00; 5,4; 58; -2,2; 988,3118;1013,8750;6; 24,4; 24,4; 0,0; 0,0;247,5; 113,6
2020-04-22 05:05:00; 5,2; 58; -2,4; 988,3743;1013,9375;6; 24,4; 24,4; 0,0; 0,0;247,5; 113,6
2020-04-22 05:24:59; 5,1; 58; -2,5; 988,3743;1013,9375;6; 24,4; 24,4; 0,0; 0,0;247,5; 113,6
2020-04-22 05:44:59; 4,7; 59; -2,6; 988,3118;1013,8750;6; 24,3; 24,3; 0,0; 0,0;247,5; 113,6
2020-04-22 06:04:59; 4,6; 59; -2,7; 988,3118;1013,8750;6; 24,3; 24,3; 0,0; 0,0;247,5; 113,6
2020-04-22 06:24:59; 4,5; 60; -2,6; 988,4368;1014,0000;6; 24,3; 24,3; 0,0; 0,0;247,5; 113,6
2020-04-22 06:45:00; 4,3; 61; -2,6; 988,4368;1014,0000;6; 24,3; 24,3; 0,0; 0,0;247,5; 113,6
2020-04-22 07:05:00; 4,9; 61; -2,0; 988,8743;1014,4375;6; 24,4; 24,4; 0,0; 0,0;247,5; 113,6
2020-04-22 07:25:00; 5,2; 59; -2,2; 988,9993;1014,5625;6; 24,5; 24,5; 0,0; 0,0;247,5; 113,6
2020-04-22 07:45:00; 5,7; 58; -1,9; 988,8118;1014,3750;6; 24,5; 24,5; 0,0; 0,0;247,5; 113,6
2020-04-22 08:05:00; 7,2; 55; -1,2; 988,9993;1014,5625;6; 24,6; 24,6; 0,0; 0,0;247,5; 113,6
2020-04-22 08:24:59; 9,0; 50; -0,9; 988,9993;1014,5625;6; 24,8; 24,8; 0,0; 0,0;247,5; 113,6
2020-04-22 08:44:59; 10,6; 46; -0,5; 989,3743;1014,9375;6; 25,1; 25,1; 0,0; 0,0;247,5; 113,6
2020-04-22 09:04:59; 12,5; 44; 0,6; 989,5618;1015,1250;6; 25,4; 25,4; 0,0; 0,0;247,5; 113,6
2020-04-22 09:24:59; 14,2; 40; 0,8; 989,4993;1015,0625;6; 25,6; 25,6; 0,0; 0,0;247,5; 113,6
2020-04-22 09:45:00; 15,1; 37; 0,5; 989,4993;1015,0625;6; 26,1; 26,1; 0,0; 0,0;247,5; 113,6
2020-04-22 10:05:00; 16,5; 36; 1,4; 989,3743;1014,9375;6; 26,4; 26,4; 0,0; 0,0;247,5; 113,6
2020-04-22 10:25:00; 17,8; 33; 1,3; 989,4368;1015,0000;6; 26,6; 26,6; 0,0; 0,0;247,5; 113,6
2020-04-22 10:45:00; 18,6; 31; 1,1; 989,4368;1015,0000;6; 26,9; 26,9; 0,0; 0,0;247,5; 113,6
2020-04-22 11:05:00; 19,8; 30; 1,7; 989,4368;1015,0000;6; 27,3; 27,3; 0,0; 0,0;247,5; 113,6
2020-04-22 11:24:59; 20,2; 29; 1,6; 989,4368;1015,0000;6; 27,6; 27,6; 0,0; 0,0;247,5; 113,6
2020-04-22 11:44:59; 20,2; 27; 0,6; 989,4368;1015,0000;6; 27,8; 27,8; 0,0; 0,0;247,5; 113,6
2020-04-22 12:04:59; 21,2; 27; 1,5; 989,5618;1015,1250;6; 27,9; 27,9; 0,0; 0,0;247,5; 113,6
2020-04-22 12:24:59; 21,0; 26; 0,8; 989,4368;1015,0000;6; 28,1; 28,1; 0,0; 0,0;247,5; 113,6
2020-04-22 12:45:00; 21,6; 26; 1,3; 989,1868;1014,7500;6; 27,9; 27,9; 0,0; 0,0;247,5; 113,6
2020-04-22 13:05:00; 20,3; 27; 0,7; 989,3118;1014,8750;6; 27,6; 27,6; 0,0; 0,0;247,5; 113,6
2020-04-22 13:25:00; 21,1; 27; 1,4; 989,2493;1014,8125;6; 27,5; 27,5; 0,0; 0,0;247,5; 113,6
2020-04-22 13:45:00; 21,9; 27; 2,1; 989,3118;1014,8750;6; 27,3; 27,3; 0,0; 0,0;247,5; 113,6
2020-04-22 14:05:00; 21,7; 28; 2,4; 988,8743;1014,4375;6; 27,1; 27,1; 0,0; 0,0;247,5; 113,6
2020-04-22 14:24:59; 22,4; 26; 2,0; 988,9993;1014,5625;6; 27,1; 27,1; 0,0; 0,0;247,5; 113,6
2020-04-22 14:44:59; 22,1; 26; 1,7; 988,8118;1014,3750;6; 26,9; 26,9; 0,0; 0,0;247,5; 113,6
2020-04-22 15:04:59; 21,2; 27; 1,5; 988,6868;1014,2500;6; 26,9; 26,9; 0,0; 0,0;247,5; 113,6
2020-04-22 15:24:59; 20,8; 29; 2,1; 988,3743;1013,9375;6; 26,7; 26,7; 0,0; 0,0;247,5; 113,6
2020-04-22 15:45:00; 20,4; 29; 1,8; 988,3118;1013,8750;6; 26,6; 26,6; 0,0; 0,0;247,5; 113,6
2020-04-22 16:05:00; 19,9; 28; 0,8; 987,9368;1013,5000;5; 26,5; 26,5; 0,0; 0,0;247,5; 113,6
2020-04-22 16:25:00; 19,7; 30; 1,6; 987,8743;1013,4375;5; 26,4; 26,4; 0,0; 0,0;247,5; 113,6
2020-04-22 16:45:00; 20,5; 29; 1,9; 987,6868;1013,2500;5; 26,3; 26,3; 0,0; 0,0;247,5; 113,6
2020-04-22 17:05:00; 19,7; 28; 0,7; 987,4368;1013,0000;5; 26,1; 26,1; 0,0; 0,0;247,5; 113,6
2020-04-22 17:24:59; 19,3; 30; 1,3; 987,2493;1012,8125;5; 26,0; 26,0; 0,0; 0,0;247,5; 113,6
2020-04-22 17:44:59; 19,4; 30; 1,4; 987,2493;1012,8125;5; 25,9; 25,9; 0,0; 0,0;247,5; 113,6
2020-04-22 18:04:59; 19,2; 30; 1,2; 987,1243;1012,6875;5; 25,8; 25,8; 0,0; 0,0;247,5; 113,6
2020-04-22 18:24:59; 18,4; 31; 1,0; 987,0618;1012,6250;5; 25,6; 25,6; 0,0; 0,0;247,5; 113,6
2020-04-22 18:45:00; 18,3; 32; 1,3; 986,9993;1012,5625;5; 25,4; 25,4; 0,0; 0,0;247,5; 113,6
2020-04-22 19:05:00; 17,9; 32; 1,0; 986,9368;1012,5000;5; 25,3; 25,3; 0,0; 0,0;247,5; 113,6
2020-04-22 19:25:00; 17,1; 33; 0,7; 987,4993;1013,0625;5; 25,2; 25,2; 0,0; 0,0;247,5; 113,6
2020-04-22 19:45:00; 16,6; 34; 0,7; 986,8743;1012,4375;5; 25,1; 25,1; 0,0; 0,0;247,5; 113,6
2020-04-22 20:05:00; 16,2; 34; 0,3; 986,7493;1012,3125;5; 25,1; 25,1; 0,0; 0,0;247,5; 113,6
2020-04-22 20:24:59; 15,8; 35; 0,4; 987,0618;1012,6250;5; 25,0; 25,0; 0,0; 0,0;247,5; 113,6
2020-04-22 20:44:59; 15,3; 36; 0,3; 987,2493;1012,8125;5; 24,9; 24,9; 0,0; 0,0;247,5; 113,6
2020-04-22 21:04:59; 14,8; 37; 0,2; 987,3118;1012,8750;5; 24,9; 24,9; 0,0; 0,0;247,5; 113,6
2020-04-22 21:24:59; 14,5; 38; 0,3; 987,5618;1013,1250;5; 24,8; 24,8; 0,0; 0,0;247,5; 113,6
2020-04-22 21:45:00; 14,0; 39; 0,3; 987,6243;1013,1875;5; 24,9; 24,9; 0,0; 0,0;247,5; 113,6
2020-04-22 22:05:00; 13,6; 40; 0,2; 988,2493;1013,8125;5; 24,8; 24,8; 0,0; 0,0;247,5; 113,6
2020-04-22 22:25:00; 13,0; 42; 0,4; 987,6243;1013,1875;5; 24,8; 24,8; 0,0; 0,0;247,5; 113,6
2020-04-22 22:45:00; 12,5; 43; 0,3; 987,6868;1013,2500;5; 24,8; 24,8; 0,0; 0,0;247,5; 113,6
2020-04-22 23:05:00; 11,9; 45; 0,3; 987,7493;1013,3125;5; 24,8; 24,8; 0,0; 0,0;247,5; 113,6
2020-04-22 23:24:59; 11,4; 47; 0,5; 987,9993;1013,5625;5; 24,7; 24,7; 0,0; 0,0;247,5; 113,6
2020-04-22 23:44:59; 11,1; 47; 0,2; 987,7493;1013,3125;5; 24,7; 24,7; 0,0; 0,0;247,5; 113,6
2020-04-23 00:04:59; 10,7; 48; 0,1; 987,6243;1013,1875;5; 24,7; 24,7; 0,0; 0,0;247,5; 113,6
2020-04-23 00:24:59; 10,1; 50; 0,1; 987,8118;1013,3750;5; 24,7; 24,7; 0,0; 0,0;247,5; 113,6
2020-04-23 00:45:00; 10,0; 50; 0,1; 987,8118;1013,3750;5; 24,6; 24,6; 0,0; 0,0;247,5; 113,6
2020-04-23 01:05:00; 9,7; 51; 0,0; 988,0618;1013,6250;5; 24,6; 24,6; 0,0; 0,0;247,5; 113,6
2020-04-23 01:25:00; 9,2; 51; -0,4; 988,1243;1013,6875;5; 24,6; 24,6; 0,0; 0,0;247,5; 113,6
2020-04-23 01:45:00; 8,9; 53; -0,2; 987,9993;1013,5625;5; 24,5; 24,5; 0,0; 0,0;247,5; 113,6
2020-04-23 02:05:00; 8,7; 53; -0,4; 987,9368;1013,5000;5; 24,5; 24,5; 0,0; 0,0;247,5; 113,6
2020-04-23 02:24:59; 8,3; 54; -0,5; 988,0618;1013,6250;5; 24,5; 24,5; 0,0; 0,0;247,5; 113,6
2020-04-23 02:44:59; 7,9; 56; -0,3; 987,9993;1013,5625;5; 24,5; 24,5; 0,0; 0,0;247,5; 113,6
2020-04-23 03:04:59; 7,7; 56; -0,5; 987,9368;1013,5000;5; 24,5; 24,5; 0,0; 0,0;247,5; 113,6
2020-04-23 03:24:59; 7,4; 58; -0,3; 987,9368;1013,5000;5; 24,5; 24,5; 0,0; 0,0;247,5; 113,6
2020-04-23 03:45:00; 7,1; 58; -0,6; 987,9993;1013,5625;5; 24,4; 24,4; 0,0; 0,0;247,5; 113,6
2020-04-23 04:05:00; 6,9; 60; -0,3; 987,9993;1013,5625;5; 24,4; 24,4; 0,0; 0,0;247,5; 113,6
2020-04-23 04:25:00; 6,7; 61; -0,3; 987,7493;1013,3125;5; 24,4; 24,4; 0,0; 0,0;247,5; 113,6
2020-04-23 04:45:00; 6,5; 61; -0,5; 987,6243;1013,1875;5; 24,4; 24,4; 0,0; 0,0;247,5; 113,6
2020-04-23 05:05:00; 6,3; 61; -0,7; 987,7493;1013,3125;5; 24,3; 24,3; 0,0; 0,0;247,5; 113,6
2020-04-23 05:24:59; 6,1; 61; -0,9; 987,8118;1013,3750;5; 24,3; 24,3; 0,0; 0,0;247,5; 113,6
2020-04-23 05:44:59; 5,8; 62; -0,9; 987,8118;1013,3750;5; 24,3; 24,3; 0,0; 0,0;247,5; 113,6
2020-04-23 06:04:59; 5,7; 63; -0,8; 987,8743;1013,4375;5; 24,3; 24,3; 0,0; 0,0;247,5; 113,6
2020-04-23 06:24:59; 5,7; 63; -0,8; 987,8743;1013,4375;5; 24,3; 24,3; 0,0; 0,0;247,5; 113,6
2020-04-23 06:45:00; 5,7; 63; -0,8; 987,9993;1013,5625;5; 24,3; 24,3; 0,0; 0,0;247,5; 113,6
2020-04-23 07:05:00; 5,9; 63; -0,6; 988,3118;1013,8750;5; 24,4; 24,4; 0,0; 0,0;247,5; 113,6
2020-04-23 07:25:00; 6,3; 63; -0,2; 988,3118;1013,8750;5; 24,4; 24,4; 0,0; 0,0;247,5; 113,6
2020-04-23 07:45:00; 7,0; 61; 0,0; 988,3743;1013,9375;5; 24,5; 24,5; 0,0; 0,0;247,5; 113,6
2020-04-23 08:05:00; 7,9; 59; 0,4; 988,5618;1014,1250;5; 24,6; 24,6; 0,0; 0,0;247,5; 113,6
2020-04-23 08:24:59; 9,9; 55; 1,3; 988,4993;1014,0625;5; 24,8; 24,8; 0,0; 0,0;247,5; 113,6
2020-04-23 08:44:59; 11,1; 51; 1,3; 988,6243;1014,1875;5; 25,0; 25,0; 0,0; 0,0;247,5; 113,6
2020-04-23 09:04:59; 13,1; 48; 2,3; 988,7493;1014,3125;5; 25,3; 25,3; 0,0; 0,0;247,5; 113,6
2020-04-23 09:24:59; 14,9; 44; 2,8; 988,6868;1014,2500;5; 25,6; 25,6; 0,0; 0,0;247,5; 113,6
2020-04-23 09:45:00; 15,7; 42; 2,8; 988,7493;1014,3125;5; 26,1; 26,1; 0,0; 0,0;247,5; 113,6
2020-04-23 10:05:00; 17,7; 39; 3,6; 988,7493;1014,3125;5; 26,4; 26,4; 0,0; 0,0;247,5; 113,6
2020-04-23 10:25:00; 18,6; 36; 3,2; 988,9368;1014,5000;6; 26,5; 26,5; 0,0; 0,0;247,5; 113,6
2020-04-23 10:45:00; 19,5; 32; 2,4; 988,9368;1014,5000;6; 27,0; 27,0; 0,0; 0,0;247,5; 113,6
2020-04-23 11:05:00; 20,7; 31; 3,0; 988,8118;1014,3750;6; 27,3; 27,3; 0,0; 0,0;247,5; 113,6
2020-04-23 11:24:59; 20,7; 29; 2,0; 988,8743;1014,4375;6; 27,6; 27,6; 0,0; 0,0;247,5; 113,6
2020-04-23 11:44:59; 21,7; 28; 2,4; 988,8118;1014,3750;6; 27,8; 27,8; 0,0; 0,0;247,5; 113,6
2020-04-23 12:04:59; 22,1; 26; 1,7; 988,9368;1014,5000;6; 27,9; 27,9; 0,0; 0,0;247,5; 113,6
2020-04-23 12:24:59; 21,6; 28; 2,3; 988,6243;1014,1875;6; 28,1; 28,1; 0,0; 0,0;247,5; 113,6
2020-04-23 12:45:00; 22,5; 26; 2,0; 988,3118;1013,8750;6; 27,9; 27,9; 0,0; 0,0;247,5; 113,6
2020-04-23 13:05:00; 23,0; 25; 1,9; 987,6243;1013,1875;5; 27,6; 27,6; 0,0; 0,0;247,5; 113,6
2020-04-23 13:25:00; 22,1; 25; 1,1; 988,0618;1013,6250;5; 27,5; 27,5; 0,0; 0,0;247,5; 113,6
2020-04-23 13:45:00; 24,0; 24; 2,2; 987,8743;1013,4375;5; 27,3; 27,3; 0,0; 0,0;247,5; 113,6
2020-04-23 14:05:00; 23,9; 24; 2,1; 987,7493;1013,3125;5; 27,2; 27,2; 0,0; 0,0;247,5; 113,6
2020-04-23 14:24:59; 24,5; 24; 2,6; 987,4368;1013,0000;5; 27,1; 27,1; 0,0; 0,0;247,5; 113,6
2020-04-23 14:44:59; 23,7; 23; 1,3; 987,1868;1012,7500;5; 26,9; 26,9; 0,0; 0,0;247,5; 113,6
2020-04-23 15:04:59; 24,6; 22; 1,5; 986,9368;1012,5000;5; 26,9; 26,9; 0,0; 0,0;247,5; 113,6
2020-04-23 15:24:59; 23,7; 24; 1,9; 986,6243;1012,1875;5; 26,7; 26,7; 0,0; 0,0;247,5; 113,6
2020-04-23 15:45:00; 23,4; 24; 1,7; 986,2493;1011,8125;5; 26,7; 26,7; 0,0; 0,0;247,5; 113,6
2020-04-23 16:05:00; 24,3; 24; 2,4; 985,9993;1011,5625;5; 26,6; 26,6; 0,0; 0,0;247,5; 113,6
2020-04-23 16:25:00; 23,4; 25; 2,2; 985,4368;1011,0000;5; 26,5; 26,5; 0,0; 0,0;247,5; 113,6
2020-04-23 16:45:00; 24,2; 24; 2,4; 985,3118;1010,8750;5; 26,3; 26,3; 0,0; 0,0;247,5; 113,6
2020-04-23 17:05:00; 24,0; 24; 2,2; 984,6868;1010,2500;5; 26,3; 26,3; 0,0; 0,0;247,5; 113,6
2020-04-23 17:24:59; 24,2; 25; 2,9; 984,4368;1010,0000;5; 26,1; 26,1; 0,0; 0,0;247,5; 113,6
2020-04-23 17:44:59; 24,1; 24; 2,3; 984,3118;1009,8750;5; 26,1; 26,1; 0,0; 0,0;247,5; 113,6
2020-04-23 18:04:59; 22,9; 26; 2,4; 983,8118;1009,3750;5; 25,9; 25,9; 0,0; 0,0;247,5; 113,6
2020-04-23 18:24:59; 22,3; 26; 1,9; 983,7493;1009,3125;5; 25,8; 25,8; 0,0; 0,0;247,5; 113,6
2020-04-23 18:45:00; 22,7; 26; 2,2; 983,5618;1009,1250;5; 25,8; 25,8; 0,0; 0,0;247,5; 113,6
2020-04-23 19:05:00; 22,3; 26; 1,9; 983,2493;1008,8125;5; 25,6; 25,6; 0,0; 0,0;247,5; 113,6
2020-04-23 19:25:00; 21,3; 29; 2,5; 982,9993;1008,5625;4; 25,5; 25,5; 0,0; 0,0;247,5; 113,6
2020-04-23 19:45:00; 20,7; 31; 3,0; 982,9993;1008,5625;4; 25,4; 25,4; 0,0; 0,0;247,5; 113,6
2020-04-23 20:05:00; 19,8; 33; 3,1; 982,9368;1008,5000;4; 25,3; 25,3; 0,0; 0,0;247,5; 113,6
2020-04-23 20:24:59; 18,8; 35; 3,0; 982,8118;1008,3750;4; 25,1; 25,1; 0,0; 0,0;247,5; 113,6
2020-04-23 20:44:59; 18,1; 37; 3,2; 982,9368;1008,5000;4; 25,1; 25,1; 0,0; 0,0;247,5; 113,6
2020-04-23 21:04:59; 17,2; 40; 3,5; 982,8743;1008,4375;4; 25,0; 25,0; 0,0; 0,0;247,5; 113,6
2020-04-23 21:24:59; 16,3; 41; 3,0; 982,9368;1008,5000;4; 25,0; 25,0; 0,0; 0,0;247,5; 113,6
2020-04-23 21:45:00; 15,9; 42; 3,0; 982,7493;1008,3125;4; 24,9; 24,9; 0,0; 0,0;247,5; 113,6
2020-04-23 22:05:00; 15,5; 43; 3,0; 982,0618;1007,6250;4; 24,9; 24,9; 0,0; 0,0;247,5; 113,6
2020-04-23 22:25:00; 14,9; 44; 2,8; ; ;4; 24,8; 24,8; 0,0; 0,0;247,5; 113,6
2020-04-23 22:45:00; 14,2; 46; 2,7; 982,2493;1007,8125;4; 24,7; 24,7; 0,0; 0,0;247,5; 113,6
2020-04-23 23:05:00; 13,2; 49; 2,7; 982,1868;1007,7500;4; 24,7; 24,7; 0,0; 0,0;247,5; 113,6
2020-04-23 23:24:59; 12,5; 49; 2,1; 981,4368;1007,0000;4; 24,6; 24,6; 0,0; 0,0;247,5; 113,6
2020-04-23 23:44:59; 12,5; 48; 1,8; 981,6868;1007,2500;4; 24,6; 24,6; 0,0; 0,0;247,5; 113,6
2020-04-24 00:04:59; 12,0; 48; 1,3; 981,4993;1007,0625;4; 24,6; 24,6; 0,0; 0,0;247,5; 113,6
2020-04-24 00:24:59; 11,6; 49; 1,2; 981,4993;1007,0625;4; 24,6; 24,6; 0,0; 0,0;247,5; 113,6
2020-04-24 00:45:00; 11,4; 49; 1,1; 981,3743;1006,9375;4; 24,6; 24,6; 0,0; 0,0;247,5; 113,6
2020-04-24 01:05:00; 11,2; 49; 0,9; 981,4993;1007,0625;4; 24,6; 24,6; 0,0; 0,0;247,5; 113,6
2020-04-24 01:25:00; 11,1; 49; 0,8; 981,2493;1006,8125;4; 24,6; 24,6; 0,0; 0,0;247,5; 113,6
2020-04-24 01:45:00; 10,7; 50; 0,7; 980,9368;1006,5000;4; 24,5; 24,5; 0,0; 0,0;247,5; 113,6
2020-04-24 02:05:00; 10,4; 51; 0,7; 980,7493;1006,3125;3; 24,5; 24,5; 0,0; 0,0;247,5; 113,6
2020-04-24 02:24:59; 10,1; 53; 0,9; 980,2493;1005,8125;3; 24,5; 24,5; 0,0; 0,0;247,5; 113,6
2020-04-24 02:44:59; 9,9; 53; 0,8; 979,8743;1005,4375;3; 24,5; 24,5; 0,0; 0,0;247,5; 113,6
2020-04-24 03:04:59; 9,7; 54; 0,8; 979,8118;1005,3750;3; 24,5; 24,5; 0,0; 0,0;247,5; 113,6
2020-04-24 03:24:59; 9,3; 55; 0,7; 979,6243;1005,1875;3; 24,5; 24,5; 0,0; 0,0;247,5; 113,6
2020-04-24 03:45:00; 9,0; 57; 0,9; 979,7493;1005,3125;3; 24,5; 24,5; 0,0; 0,0;247,5; 113,6
2020-04-24 04:05:00; 9,1; 56; 0,8; 979,4993;1005,0625;3; 24,5; 24,5; 0,0; 0,0;247,5; 113,6
2020-04-24 04:25:00; 9,1; 57; 1,0; 979,2493;1004,8125;3; 24,5; 24,5; 0,0; 0,0;247,5; 113,6
2020-04-24 04:45:00; 9,4; 56; 1,1; 978,9368;1004,5000;3; 24,5; 24,5; 0,0; 0,0;247,5; 113,6
2020-04-24 05:05:00; 9,7; 55; 1,1; 978,8118;1004,3750;3; 24,5; 24,5; 0,0; 0,0;247,5; 113,6
2020-04-24 05:24:59; 10,2; 54; 1,3; 978,4993;1004,0625;3; 24,5; 24,5; 0,0; 0,0;247,5; 113,6
2020-04-24 05:44:59; 10,3; 53; 1,1; 977,9368;1003,5000;3; 24,5; 24,5; 0,0; 0,0;247,5; 113,6
2020-04-24 06:04:59; 10,4; 53; 1,2; 977,9993;1003,5625;3; 24,5; 24,5; 0,0; 0,0;247,5; 113,6
2020-04-24 06:24:59; 10,8; 51; 1,1; 977,8118;1003,3750;3; 24,5; 24,5; 0,0; 0,0;247,5; 113,6
2020-04-24 06:45:00; 11,2; 51; 1,4; 977,6868;1003,2500;3; 24,5; 24,5; 0,0; 0,0;247,5; 113,6
2020-04-24 07:05:00; 11,6; 50; 1,5; 977,4993;1003,0625;3; 24,6; 24,6; 0,0; 0,0;247,5; 113,6
2020-04-24 07:25:00; 11,9; 50; 1,8; 977,3743;1002,9375;3; 24,7; 24,7; 0,0; 0,0;247,5; 113,6
2020-04-24 07:45:00; 12,4; 49; 2,0; 977,3743;1002,9375;3; 24,7; 24,7; 0,0; 0,0;247,5; 113,6
2020-04-24 08:05:00; 13,6; 48; 2,8; 977,1868;1002,7500;3; 24,8; 24,8; 0,0; 0,0;247,5; 113,6
2020-04-24 08:24:59; 15,2; 46; 3,7; 977,0618;1002,6250;3; 25,0; 25,0; 0,0; 0,0;247,5; 113,6
2020-04-24 08:44:59; 17,1; 41; 3,7; 977,0618;1002,6250;3; 25,2; 25,2; 0,0; 0,0;247,5; 113,6
2020-04-24 09:04:59; 18,4; 37; 3,4; 976,9368;1002,5000;3; 25,4; 25,4; 0,0; 0,0;247,5; 113,6
2020-04-24 09:24:59; 19,8; 35; 3,9; 976,9993;1002,5625;3; 25,7; 25,7; 0,0; 0,0;247,5; 113,6
2020-04-24 09:45:00; 20,1; 33; 3,3; 976,5618;1002,1250;3; 26,2; 26,2; 0,0; 0,0;247,5; 113,6
2020-04-24 10:05:00; 20,3; 32; 3,1; 976,8743;1002,4375;3; 26,4; 26,4; 0,0; 0,0;247,5; 113,6
2020-04-24 10:25:00; 19,9; 33; 3,1; 976,6243;1002,1875;3; 26,4; 26,4; 0,0; 0,0;247,5; 113,6
2020-04-24 10:45:00; 20,5; 32; 3,2; 976,6868;1002,2500;3; 26,6; 26,6; 0,0; 0,0;247,5; 113,6
2020-04-24 11:05:00; 20,3; 33; 3,5; 976,4993;1002,0625;3; 26,6; 26,6; 0,0; 0,0;247,5; 113,6
2020-04-24 11:24:59; 20,8; 34; 4,4; 976,4368;1002,0000;3; 26,8; 26,8; 0,0; 0,0;247,5; 113,6
2020-04-24 11:44:59; 20,5; 33; 3,7; 975,8743;1001,4375;2; 26,9; 26,9; 0,0; 0,0;247,5; 113,6
2020-04-24 12:04:59; 21,3; 33; 4,4; 976,2493;1001,8125;2; 26,8; 26,8; 0,0; 0,0;247,5; 113,6
2020-04-24 12:24:59; 21,0; 33; 4,1; 975,9368;1001,5000;2; 26,7; 26,7; 0,0; 0,0;247,5; 113,6
2020-04-24 12:45:00; 20,7; 35; 4,7; 975,6243;1001,1875;2; 26,7; 26,7; 0,0; 0,0;247,5; 113,6
2020-04-24 13:05:00; 21,3; 33; 4,4; 976,0618;1001,6250;2; 26,6; 26,6; 0,0; 0,0;247,5; 113,6
2020-04-24 13:25:00; 21,3; 33; 4,4; 975,8743;1001,4375;2; 26,6; 26,6; 0,0; 0,0;247,5; 113,6
2020-04-24 13:45:00; 21,8; 31; 3,9; 975,8743;1001,4375;2; 26,8; 26,8; 0,0; 0,0;247,5; 113,6
2020-04-24 14:05:00; 21,1; 32; 3,8; 975,8118;1001,3750;2; 26,6; 26,6; 0,0; 0,0;247,5; 113,6
2020-04-24 14:24:59; 21,7; 32; 4,3; 975,5618;1001,1250;2; 26,5; 26,5; 0,0; 0,0;247,5; 113,6
2020-04-24 14:44:59; 21,8; 31; 3,9; 975,6868;1001,2500;2; 26,6; 26,6; 0,0; 0,0;247,5; 113,6
2020-04-24 15:04:59; 22,3; 32; 4,8; 975,4993;1001,0625;2; 26,6; 26,6; 0,0; 0,0;247,5; 113,6
2020-04-24 15:24:59; 21,9; 31; 4,0; 975,1868;1000,7500;2; 26,5; 26,5; 0,0; 0,0;247,5; 113,6
2020-04-24 15:45:00; 22,1; 31; 4,2; 974,9368;1000,5000;2; 26,5; 26,5; 0,0; 0,0;247,5; 113,6
2020-04-24 16:05:00; 22,1; 31; 4,2; 974,6243;1000,1875;2; 26,3; 26,3; 0,0; 0,0;247,5; 113,6
2020-04-24 16:25:00; 22,0; 32; 4,5; 974,4993;1000,0625;2; 26,3; 26,3; 0,0; 0,0;247,5; 113,6
2020-04-24 16:45:00; 21,9; 31; 4,0; 974,2493; 999,8125;2; 26,1; 26,1; 0,0; 0,0;247,5; 113,6
2020-04-24 17:05:00; 21,8; 32; 4,4; 974,1243; 999,6875;2; 26,0; 26,0; 0,0; 0,0;247,5; 113,6
2020-04-24 17:24:59; 21,8; 32; 4,4; 973,8118; 999,3750;2; 25,9; 25,9; 0,0; 0,0;247,5; 113,6
2020-04-24 17:44:59; 21,8; 33; 4,8; 973,5618; 999,1250;2; 25,8; 25,8; 0,0; 0,0;247,5; 113,6
2020-04-24 18:04:59; 21,2; 33; 4,3; 973,4368; 999,0000;2; 25,7; 25,7; 0,0; 0,0;247,5; 113,6
2020-04-24 18:24:59; 21,1; 34; 4,6; 973,1243; 998,6875;2; 25,6; 25,6; 0,0; 0,0;247,5; 113,6
2020-04-24 18:45:00; 20,6; 34; 4,2; 972,9368; 998,5000;2; 25,5; 25,5; 0,0; 0,0;247,5; 113,6
2020-04-24 19:05:00; 19,9; 36; 4,4; 972,9368; 998,5000;2; 25,4; 25,4; 0,0; 0,0;247,5; 113,6
2020-04-24 19:25:00; 19,2; 37; 4,2; 972,7493; 998,3125;2; 25,3; 25,3; 0,0; 0,0;247,5; 113,6
2020-04-24 19:45:00; 18,5; 39; 4,3; 972,5618; 998,1250;2; 25,1; 25,1; 0,0; 0,0;247,5; 113,6
2020-04-24 20:05:00; 18,1; 40; 4,3; 972,4368; 998,0000;2; 25,1; 25,1; 0,0; 0,0;247,5; 113,6
2020-04-24 20:24:59; 17,5; 42; 4,4; 972,5618; 998,1250;2; 25,0; 25,0; 0,0; 0,0;247,5; 113,6
2020-04-24 20:44:59; 17,1; 43; 4,4; 972,4993; 998,0625;2; 24,9; 24,9; 0,0; 0,0;247,5; 113,6
2020-04-24 21:04:59; 16,7; 42; 3,7; 972,7493; 998,3125;2; 24,9; 24,9; 0,0; 0,0;247,5; 113,6
2020-04-24 21:24:59; 16,3; 44; 4,0; 972,6868; 998,2500;2; 24,9; 24,9; 0,0; 0,0;247,5; 113,6
2020-04-24 21:45:00; 15,9; 44; 3,7; 972,7493; 998,3125;2; 24,8; 24,8; 0,0; 0,0;247,5; 113,6
2020-04-24 22:05:00; 15,4; 44; 3,2; 972,5618; 998,1250;2; 24,7; 24,7; 0,0; 0,0;247,5; 113,6
2020-04-24 22:25:00; 15,1; 43; 2,6; 972,6243; 998,1875;2; 24,7; 24,7; 0,0; 0,0;247,5; 113,6
2020-04-24 22:45:00; 14,6; 44; 2,5; 972,7493; 998,3125;2; 24,7; 24,7; 0,0; 0,0;247,5; 113,6
2020-04-24 23:05:00; 14,1; 45; 2,3; 972,8743; 998,4375;2; 24,6; 24,6; 0,0; 0,0;247,5; 113,6
2020-04-24 23:24:59; 13,7; 45; 2,0; 972,9993; 998,5625;2; 24,6; 24,6; 0,0; 0,0;247,5; 113,6
2020-04-24 23:44:59; 13,3; 46; 1,9; 972,9993; 998,5625;2; 24,6; 24,6; 0,0; 0,0;247,5; 113,6
2020-04-25 00:04:59; 12,9; 46; 1,6; 972,8743; 998,4375;2; 24,6; 24,6; 0,0; 0,0;247,5; 113,6
2020-04-25 00:24:59; 12,6; 46; 1,3; 973,0618; 998,6250;2; 24,6; 24,6; 0,0; 0,0;247,5; 113,6
2020-04-25 00:45:00; 12,3; 46; 1,0; 973,0618; 998,6250;2; 24,6; 24,6; 0,0; 0,0;247,5; 113,6
2020-04-25 01:05:00; 12,0; 47; 1,0; 972,9993; 998,5625;2; 24,6; 24,6; 0,0; 0,0;247,5; 113,6
2020-04-25 01:25:00; 11,6; 48; 1,0; 972,9993; 998,5625;2; 24,5; 24,5; 0,0; 0,0;247,5; 113,6
2020-04-25 01:45:00; 11,1; 47; 0,2; 973,1243; 998,6875;2; 24,5; 24,5; 0,0; 0,0;247,5; 113,6
2020-04-25 02:05:00; 10,8; 48; 0,2; 973,0618; 998,6250;2; 24,5; 24,5; 0,0; 0,0;247,5; 113,6
2020-04-25 02:24:59; 10,4; 48; -0,1; 973,0618; 998,6250;2; 24,5; 24,5; 0,0; 0,0;247,5; 113,6
2020-04-25 02:44:59; 9,9; 48; -0,6; 973,0618; 998,6250;2; 24,5; 24,5; 0,0; 0,0;247,5; 113,6
2020-04-25 03:04:59; 9,3; 50; -0,6; 973,1868; 998,7500;2; 24,5; 24,5; 0,0; 0,0;247,5; 113,6
2020-04-25 03:24:59; 8,7; 54; -0,1; 973,3118; 998,8750;2; 24,4; 24,4; 0,0; 0,0;247,5; 113,6
2020-04-25 03:45:00; 8,3; 57; 0,3; 973,3743; 998,9375;2; 24,4; 24,4; 0,0; 0,0;247,5; 113,6
2020-04-25 04:05:00; 7,8; 61; 0,7; 973,4368; 999,0000;2; 24,4; 24,4; 0,0; 0,0;247,5; 113,6
2020-04-25 04:25:00; 7,4; 63; 0,8; 973,6243; 999,1875;2; 24,3; 24,3; 0,0; 0,0;247,5; 113,6
2020-04-25 04:45:00; 7,2; 67; 1,5; 973,9993; 999,5625;2; 24,3; 24,3; 0,0; 0,0;247,5; 113,6
2020-04-25 05:05:00; 6,9; 67; 1,2; 974,1868; 999,7500;2; 24,3; 24,3; 0,0; 0,0;247,5; 113,6
2020-04-25 05:24:59; 6,7; 68; 1,2; 974,1868; 999,7500;2; 24,3; 24,3; 0,0; 0,0;247,5; 113,6
2020-04-25 05:44:59; 6,7; 68; 1,2; 974,2493; 999,8125;2; 24,3; 24,3; 0,0; 0,0;247,5; 113,6
2020-04-25 06:04:59; 6,7; 69; 1,4; 974,2493; 999,8125;2; 24,3; 24,3; 0,0; 0,0;247,5; 113,6
2020-04-25 06:24:59; 6,7; 70; 1,6; 974,1868; 999,7500;2; 24,3; 24,3; 0,0; 0,0;247,5; 113,6
2020-04-25 06:45:00; 6,8; 69; 1,5; 974,3743; 999,9375;2; 24,3; 24,3; 0,0; 0,0;247,5; 113,6
2020-04-25 07:05:00; 6,9; 68; 1,4; 974,4368;1000,0000;2; 24,3; 24,3; 0,0; 0,0;247,5; 113,6
2020-04-25 07:25:00; 7,0; 67; 1,3; 974,4993;1000,0625;2; 24,3; 24,3; 0,0; 0,0;247,5; 113,6
2020-04-25 07:45:00; 7,1; 66; 1,2; 974,6243;1000,1875;3; 24,4; 24,4; 0,0; 0,0;247,5; 113,6
2020-04-25 08:05:00; 7,4; 65; 1,3; 974,8743;1000,4375;3; 24,4; 24,4; 0,0; 0,0;247,5; 113,6
2020-04-25 08:24:59; 7,5; 65; 1,3; 974,9993;1000,5625;3; 24,4; 24,4; 0,0; 0,0;247,5; 113,6
2020-04-25 08:44:59; 7,5; 66; 1,6; 975,3118;1000,8750;3; 24,4; 24,4; 0,0; 0,0;247,5; 113,6
2020-04-25 09:04:59; 7,6; 66; 1,7; 975,5618;1001,1250;3; 24,4; 24,4; 0,0; 0,0;247,5; 113,6
2020-04-25 09:24:59; 7,6; 66; 1,7; 975,7493;1001,3125;3; 24,4; 24,4; 0,0; 0,0;247,5; 113,6
2020-04-25 09:45:00; 7,7; 66; 1,7; 975,9993;1001,5625;3; 24,4; 24,4; 0,0; 0,0;247,5; 113,6
2020-04-25 10:05:00; 7,8; 66; 1,8; 976,2493;1001,8125;3; 24,5; 24,5; 0,0; 0,0;247,5; 113,6
2020-04-25 10:25:00; 8,2; 66; 2,2; 976,3743;1001,9375;3; 24,5; 24,5; 0,0; 0,0;247,5; 113,6
2020-04-25 10:45:00; 8,5; 67; 2,7; 976,8118;1002,3750;3; 24,6; 24,6; 0,0; 0,0;247,5; 113,6
2020-04-25 11:05:00; 8,7; 65; 2,5; 976,9368;1002,5000;3; 24,6; 24,6; 0,0; 0,0;247,5; 113,6
2020-04-25 11:24:59; 8,8; 65; 2,6; 976,9993;1002,5625;3; 24,6; 24,6; 0,0; 0,0;247,5; 113,6
2020-04-25 11:44:59; 9,1; 65; 2,9; 977,1868;1002,7500;3; 24,7; 24,7; 0,0; 0,0;247,5; 113,6
2020-04-25 12:04:59; 9,4; 64; 2,9; 977,1868;1002,7500;3; 24,7; 24,7; 0,0; 0,0;247,5; 113,6
2020-04-25 12:24:59; 9,9; 64; 3,4; 977,3743;1002,9375;3; 24,8; 24,8; 0,0; 0,0;247,5; 113,6
2020-04-25 12:45:00; 10,9; 61; 3,7; 977,5618;1003,1250;4; 25,0; 25,0; 0,0; 0,0;247,5; 113,6
2020-04-25 13:05:00; 11,2; 60; 3,7; 977,7493;1003,3125;4; 25,0; 25,0; 0,0; 0,0;247,5; 113,6
2020-04-25 13:25:00; 10,9; 60; 3,4; 977,8118;1003,3750;4; 24,9; 24,9; 0,0; 0,0;247,5; 113,6
2020-04-25 13:45:00; 10,7; 61; 3,5; 977,8743;1003,4375;4; 24,9; 24,9; 0,0; 0,0;247,5; 113,6
2020-04-25 14:05:00; 11,0; 59; 3,3; 977,9368;1003,5000;4; 24,8; 24,8; 0,0; 0,0;247,5; 113,6
2020-04-25 14:24:59; 11,5; 58; 3,5; 977,9368;1003,5000;4; 24,9; 24,9; 0,0; 0,0;247,5; 113,6
2020-04-25 14:44:59; 11,9; 56; 3,4; 977,9993;1003,5625;4; 25,0; 25,0; 0,0; 0,0;247,5; 113,6
2020-04-25 15:04:59; 11,5; 59; 3,8; 977,8743;1003,4375;4; 25,0; 25,0; 0,0; 0,0;247,5; 113,6
2020-04-25 15:24:59; 12,1; 58; 4,1; 977,8118;1003,3750;4; 25,0; 25,0; 0,0; 0,0;247,5; 113,6
2020-04-25 15:45:00; 11,9; 57; 3,6; 977,6243;1003,1875;4; 25,0; 25,0; 0,0; 0,0;247,5; 113,6
2020-04-25 16:05:00; 12,1; 57; 3,8; 977,5618;1003,1250;4; 24,9; 24,9; 0,0; 0,0;247,5; 113,6
2020-04-25 16:25:00; 12,4; 55; 3,6; 977,4368;1003,0000;4; 25,0; 25,0; 0,0; 0,0;247,5; 113,6
2020-04-25 16:45:00; 13,3; 53; 3,9; 977,4368;1003,0000;4; 25,0; 25,0; 0,0; 0,0;247,5; 113,6
2020-04-25 17:05:00; 13,9; 51; 3,9; 977,3118;1002,8750;4; 25,1; 25,1; 0,0; 0,0;247,5; 113,6
2020-04-25 17:24:59; 13,5; 53; 4,1; 977,1868;1002,7500;4; 25,1; 25,1; 0,0; 0,0;247,5; 113,6
2020-04-25 17:44:59; 13,1; 53; 3,7; 977,2493;1002,8125;4; 25,1; 25,1; 0,0; 0,0;247,5; 113,6
2020-04-25 18:04:59; 12,7; 54; 3,6; 977,0618;1002,6250;4; 24,9; 24,9; 0,0; 0,0;247,5; 113,6
2020-04-25 18:24:59; 12,7; 55; 3,9; 976,9368;1002,5000;4; 24,8; 24,8; 0,0; 0,0;247,5; 113,6
2020-04-25 18:45:00; 12,6; 55; 3,8; 976,6868;1002,2500;4; 24,8; 24,8; 0,0; 0,0;247,5; 113,6
2020-04-25 19:05:00; 12,4; 55; 3,6; 976,4993;1002,0625;4; 24,7; 24,7; 0,0; 0,0;247,5; 113,6
2020-04-25 19:25:00; 12,1; 56; 3,6; 976,6243;1002,1875;4; 24,7; 24,7; 0,0; 0,0;247,5; 113,6
2020-04-25 19:45:00; 12,1; 57; 3,8; 976,6868;1002,2500;4; 24,7; 24,7; 0,0; 0,0;247,5; 113,6
2020-04-25 20:05:00; 11,8; 58; 3,8; 976,6243;1002,1875;4; 24,6; 24,6; 0,0; 0,0;247,5; 113,6
2020-04-25 20:24:59; 11,6; 58; 3,6; 976,6243;1002,1875;4; 24,6; 24,6; 0,0; 0,0;247,5; 113,6
2020-04-25 20:44:59; 11,5; 59; 3,8; 976,7493;1002,3125;4; 24,5; 24,5; 0,0; 0,0;247,5; 113,6
2020-04-25 21:04:59; 11,4; 59; 3,7; 976,9993;1002,5625;4; 24,5; 24,5; 0,0; 0,0;247,5; 113,6
2020-04-25 21:24:59; 11,3; 59; 3,6; 977,0618;1002,6250;4; 24,5; 24,5; 0,0; 0,0;247,5; 113,6
2020-04-25 21:45:00; 11,1; 60; 3,6; 976,8118;1002,3750;4; 24,5; 24,5; 0,0; 0,0;247,5; 113,6
2020-04-25 22:05:00; 11,0; 60; 3,5; 976,8118;1002,3750;4; 24,5; 24,5; 0,0; 0,0;247,5; 113,6
2020-04-25 22:25:00; 10,8; 61; 3,6; 976,8743;1002,4375;4; 24,4; 24,4; 0,0; 0,0;247,5; 113,6
2020-04-25 22:45:00; 10,8; 61; 3,6; 976,7493;1002,3125;4; 24,4; 24,4; 0,0; 0,0;247,5; 113,6
2020-04-25 23:05:00; 10,7; 62; 3,7; 976,6868;1002,2500;4; 24,4; 24,4; 0,0; 0,0;247,5; 113,6
2020-04-25 23:24:59; 10,7; 62; 3,7; 976,5618;1002,1250;4; 24,4; 24,4; 0,0; 0,0;247,5; 113,6
2020-04-25 23:44:59; 10,5; 62; 3,5; 976,7493;1002,3125;4; 24,4; 24,4; 0,0; 0,0;247,5; 113,6
2020-04-26 00:04:59; 10,4; 62; 3,4; 976,7493;1002,3125;4; 24,3; 24,3; 0,0; 0,0;247,5; 113,6
2020-04-26 00:24:59; 10,3; 62; 3,3; 976,7493;1002,3125;4; 24,3; 24,3; 0,0; 0,0;247,5; 113,6
2020-04-26 00:45:00; 10,2; 64; 3,7; 976,8118;1002,3750;4; 24,3; 24,3; 0,0; 0,0;247,5; 113,6
2020-04-26 01:05:00; 9,8; 65; 3,5; 976,7493;1002,3125;4; 24,3; 24,3; 0,0; 0,0;247,5; 113,6
2020-04-26 01:25:00; 9,7; 66; 3,7; 976,7493;1002,3125;4; 24,3; 24,3; 0,0; 0,0;247,5; 113,6
2020-04-26 01:45:00; 9,5; 66; 3,5; 976,6868;1002,2500;4; 24,3; 24,3; 0,0; 0,0;247,5; 113,6
2020-04-26 02:05:00; 9,0; 68; 3,4; 976,7493;1002,3125;4; 24,3; 24,3; 0,0; 0,0;247,5; 113,6
2020-04-26 02:24:59; 8,5; 68; 2,9; 976,8743;1002,4375;4; 24,3; 24,3; 0,0; 0,0;247,5; 113,6
2020-04-26 02:44:59; 8,3; 69; 2,9; 976,9368;1002,5000;4; 24,2; 24,2; 0,0; 0,0;247,5; 113,6
2020-04-26 03:04:59; 8,0; 70; 2,9; 976,6243;1002,1875;4; 24,2; 24,2; 0,0; 0,0;247,5; 113,6
2020-04-26 03:24:59; 7,7; 71; 2,8; 976,6868;1002,2500;4; 24,2; 24,2; 0,0; 0,0;247,5; 113,6
2020-04-26 03:45:00; 7,4; 71; 2,5; 976,6868;1002,2500;4; 24,2; 24,2; 0,0; 0,0;247,5; 113,6
2020-04-26 04:05:00; 7,3; 71; 2,4; 976,7493;1002,3125;4; 24,2; 24,2; 0,0; 0,0;247,5; 113,6
2020-04-26 04:25:00; 7,2; 71; 2,3; 976,8118;1002,3750;4; 24,2; 24,2; 0,0; 0,0;247,5; 113,6
2020-04-26 04:45:00; 7,3; 72; 2,6; 976,6868;1002,2500;4; 24,1; 24,1; 0,0; 0,0;247,5; 113,6
2020-04-26 05:05:00; 7,3; 71; 2,4; 976,7493;1002,3125;4; 24,1; 24,1; 0,0; 0,0;247,5; 113,6
2020-04-26 05:24:59; 7,3; 71; 2,4; 976,6868;1002,2500;4; 24,1; 24,1; 0,0; 0,0;247,5; 113,6
2020-04-26 05:44:59; 7,3; 71; 2,4; 976,6243;1002,1875;4; 24,1; 24,1; 0,0; 0,0;247,5; 113,6
2020-04-26 06:04:59; 7,3; 71; 2,4; 976,6868;1002,2500;4; 24,1; 24,1; 0,0; 0,0;247,5; 113,6
2020-04-26 06:24:59; 7,5; 70; 2,4; 976,9368;1002,5000;4; 24,1; 24,1; 0,0; 0,0;247,5; 113,6
2020-04-26 06:45:00; 7,8; 70; 2,7; 976,9368;1002,5000;4; 24,2; 24,2; 0,0; 0,0;247,5; 113,6
2020-04-26 07:05:00; 7,9; 70; 2,8; 976,9368;1002,5000;4; 24,2; 24,2; 0,0; 0,0;247,5; 113,6
2020-04-26 07:25:00; 8,2; 69; 2,9; 976,9368;1002,5000;4; 24,2; 24,2; 0,0; 0,0;247,5; 113,6
2020-04-26 07:45:00; 8,7; 69; 3,3; 977,2493;1002,8125;4; 24,2; 24,2; 0,0; 0,0;247,5; 113,6
2020-04-26 08:05:00; 9,2; 67; 3,4; 977,2493;1002,8125;4; 24,3; 24,3; 0,0; 0,0;247,5; 113,6
2020-04-26 08:24:59; 9,9; 65; 3,6; 977,3743;1002,9375;4; 24,3; 24,3; 0,0; 0,0;247,5; 113,6
2020-04-26 08:44:59; 10,1; 65; 3,8; 977,5618;1003,1250;4; 24,3; 24,3; 0,0; 0,0;247,5; 113,6
2020-04-26 09:04:59; 10,3; 63; 3,6; 977,7493;1003,3125;4; 24,3; 24,3; 0,0; 0,0;247,5; 113,6
2020-04-26 09:24:59; 10,5; 62; 3,5; 977,7493;1003,3125;4; 24,4; 24,4; 0,0; 0,0;247,5; 113,6
2020-04-26 09:45:00; 10,5; 61; 3,3; 977,9368;1003,5000;4; 24,4; 24,4; 0,0; 0,0;247,5; 113,6
2020-04-26 10:05:00; 10,9; 61; 3,7; 977,9993;1003,5625;4; 24,4; 24,4; 0,0; 0,0;247,5; 113,6
2020-04-26 10:25:00; 11,1; 60; 3,6; 978,1243;1003,6875;4; 24,5; 24,5; 0,0; 0,0;247,5; 113,6
2020-04-26 10:45:00; 11,3; 60; 3,8; 978,1868;1003,7500;4; 24,5; 24,5; 0,0; 0,0;247,5; 113,6
2020-04-26 11:05:00; 11,8; 59; 4,0; 978,2493;1003,8125;4; 24,5; 24,5; 0,0; 0,0;247,5; 113,6
2020-04-26 11:24:59; 12,7; 57; 4,4; 978,4368;1004,0000;4; 24,6; 24,6; 0,0; 0,0;247,5; 113,6
2020-04-26 11:44:59; 13,9; 55; 5,0; 978,4368;1004,0000;4; 25,0; 25,0; 0,0; 0,0;247,5; 113,6
2020-04-26 12:04:59; 14,7; 53; 5,2; 978,5618;1004,1250;4; 25,4; 25,4; 0,0; 0,0;247,5; 113,6
2020-04-26 12:24:59; 17,1; 47; 5,7; 978,4993;1004,0625;4; 26,3; 26,3; 0,0; 0,0;247,5; 113,6
2020-04-26 12:45:00; 16,6; 46; 4,9; 978,4368;1004,0000;4; 26,6; 26,6; 0,0; 0,0;247,5; 113,6
2020-04-26 13:05:00; 17,7; 42; 4,6; 978,3743;1003,9375;4; 26,4; 26,4; 0,0; 0,0;247,5; 113,6
2020-04-26 13:25:00; 17,1; 43; 4,4; 978,4368;1004,0000;4; 26,2; 26,2; 0,0; 0,0;247,5; 113,6
2020-04-26 13:45:00; 17,5; 40; 3,7; 978,2493;1003,8125;4; 26,0; 26,0; 0,0; 0,0;247,5; 113,6
2020-04-26 14:05:00; 18,9; 38; 4,3; 978,1868;1003,7500;4; 26,1; 26,1; 0,0; 0,0;247,5; 113,6
2020-04-26 14:24:59; 18,4; 39; 4,2; 978,2493;1003,8125;4; 26,0; 26,0; 0,0; 0,0;247,5; 113,6
2020-04-26 14:44:59; 18,5; 39; 4,3; 978,1243;1003,6875;4; 25,9; 25,9; 0,0; 0,0;247,5; 113,6
2020-04-26 15:04:59; 19,0; 37; 4,0; 977,8743;1003,4375;4; 26,0; 26,0; 0,0; 0,0;247,5; 113,6
2020-04-26 15:24:59; 20,3; 34; 3,9; 977,8118;1003,3750;4; 26,1; 26,1; 0,0; 0,0;247,5; 113,6
2020-04-26 15:45:00; 20,4; 31; 2,7; 977,5618;1003,1250;4; 26,1; 26,1; 0,0; 0,0;247,5; 113,6
2020-04-26 16:05:00; 20,0; 32; 2,8; 977,6243;1003,1875;4; 26,0; 26,0; 0,0; 0,0;247,5; 113,6
2020-04-26 16:25:00; 19,9; 30; 1,8; 977,3743;1002,9375;4; 25,9; 25,9; 0,0; 0,0;247,5; 113,6
2020-04-26 16:45:00; 19,5; 31; 1,9; 977,1868;1002,7500;4; 25,8; 25,8; 0,0; 0,0;247,5; 113,6
2020-04-26 17:05:00; 19,9; 32; 2,7; 976,8743;1002,4375;4; 25,6; 25,6; 0,0; 0,0;247,5; 113,6
2020-04-26 17:24:59; 19,5; 31; 1,9; 976,9368;1002,5000;4; 25,5; 25,5; 0,0; 0,0;247,5; 113,6
2020-04-26 17:44:59; 19,1; 32; 2,0; 976,4368;1002,0000;4; 25,4; 25,4; 0,0; 0,0;247,5; 113,6
2020-04-26 18:04:59; 19,0; 32; 1,9; 976,5618;1002,1250;4; 25,3; 25,3; 0,0; 0,0;247,5; 113,6
2020-04-26 18:24:59; 18,8; 33; 2,2; 976,1243;1001,6875;4; 25,1; 25,1; 0,0; 0,0;247,5; 113,6
2020-04-26 18:45:00; 18,6; 33; 2,0; 976,2493;1001,8125;4; 25,0; 25,0; 0,0; 0,0;247,5; 113,6
2020-04-26 19:05:00; 18,1; 33; 1,6; 976,2493;1001,8125;4; 25,0; 25,0; 0,0; 0,0;247,5; 113,6
2020-04-26 19:25:00; 17,5; 35; 1,9; 976,1868;1001,7500;4; 24,9; 24,9; 0,0; 0,0;247,5; 113,6
2020-04-26 19:45:00; 17,0; 35; 1,4; 975,9368;1001,5000;4; 24,7; 24,7; 0,0; 0,0;247,5; 113,6
2020-04-26 20:05:00; 16,4; 38; 2,0; 975,8743;1001,4375;4; 24,7; 24,7; 0,0; 0,0;247,5; 113,6
2020-04-26 20:24:59; 15,7; 40; 2,1; 975,7493;1001,3125;4; 24,5; 24,5; 0,0; 0,0;247,5; 113,6
2020-04-26 20:44:59; 14,9; 42; 2,1; 975,9368;1001,5000;4; 24,5; 24,5; 0,0; 0,0;247,5; 113,6
2020-04-26 21:04:59; 14,1; 44; 2,0; 975,8743;1001,4375;4; 24,4; 24,4; 0,0; 0,0;247,5; 113,6
2020-04-26 21:24:59; 13,5; 45; 1,8; 975,8743;1001,4375;4; 24,3; 24,3; 0,0; 0,0;247,5; 113,6
2020-04-26 21:45:00; 12,9; 46; 1,6; 976,0618;1001,6250;4; 24,3; 24,3; 0,0; 0,0;247,5; 113,6
2020-04-26 22:05:00; 12,4; 47; 1,4; 976,1868;1001,7500;4; 24,2; 24,2; 0,0; 0,0;247,5; 113,6
2020-04-26 22:25:00; 12,0; 49; 1,6; 975,9368;1001,5000;4; 24,2; 24,2; 0,0; 0,0;247,5; 113,6
2020-04-26 22:45:00; 11,7; 50; 1,6; 976,0618;1001,6250;4; 24,2; 24,2; 0,0; 0,0;247,5; 113,6
2020-04-26 23:05:00; 11,2; 52; 1,7; 975,9993;1001,5625;4; 24,2; 24,2; 0,0; 0,0;247,5; 113,6
2020-04-26 23:24:59; 10,4; 55; 1,7; 976,1243;1001,6875;4; 24,2; 24,2; 0,0; 0,0;247,5; 113,6
2020-04-26 23:44:59; 10,2; 55; 1,6; 976,2493;1001,8125;4; 24,2; 24,2; 0,0; 0,0;247,5; 113,6
2020-04-27 00:04:59; 10,0; 56; 1,6; 976,3118;1001,8750;4; 24,2; 24,2; 0,0; 0,0;247,5; 113,6
2020-04-27 00:24:59; 9,5; 58; 1,6; 976,3118;1001,8750;4; 24,1; 24,1; 0,0; 0,0;247,5; 113,6
2020-04-27 00:45:00; 8,8; 60; 1,5; 976,4368;1002,0000;4; 24,1; 24,1; 0,0; 0,0;247,5; 113,6
2020-04-27 01:05:00; 8,7; 60; 1,4; 976,3743;1001,9375;4; 24,1; 24,1; 0,0; 0,0;247,5; 113,6
2020-04-27 01:25:00; 8,5; 60; 1,2; 976,3118;1001,8750;4; 24,0; 24,0; 0,0; 0,0;247,5; 113,6
2020-04-27 01:45:00; 8,3; 61; 1,2; 976,2493;1001,8125;4; 24,0; 24,0; 0,0; 0,0;247,5; 113,6
2020-04-27 02:05:00; 8,2; 61; 1,1; 976,2493;1001,8125;4; 24,0; 24,0; 0,0; 0,0;247,5; 113,6
2020-04-27 02:24:59; 7,9; 62; 1,1; 976,3118;1001,8750;4; 24,0; 24,0; 0,0; 0,0;247,5; 113,6
2020-04-27 02:44:59; 7,6; 62; 0,8; 976,1243;1001,6875;4; 24,0; 24,0; 0,0; 0,0;247,5; 113,6
2020-04-27 03:04:59; 7,5; 62; 0,7; 976,0618;1001,6250;4; 24,0; 24,0; 0,0; 0,0;247,5; 113,6
2020-04-27 03:24:59; 7,2; 63; 0,6; 975,8743;1001,4375;4; 24,0; 24,0; 0,0; 0,0;247,5; 113,6
2020-04-27 03:45:00; 7,0; 63; 0,4; 975,8743;1001,4375;4; 24,0; 24,0; 0,0; 0,0;247,5; 113,6
2020-04-27 04:05:00; 6,7; 64; 0,4; 975,8743;1001,4375;4; 24,0; 24,0; 0,0; 0,0;247,5; 113,6
2020-04-27 04:25:00; 6,6; 64; 0,3; 975,8118;1001,3750;4; 23,9; 23,9; 0,0; 0,0;247,5; 113,6
2020-04-27 04:45:00; 6,4; 64; 0,1; 975,5618;1001,1250;3; 23,9; 23,9; 0,0; 0,0;247,5; 113,6
2020-04-27 05:05:00; 6,3; 65; 0,2; 975,3743;1000,9375;3; 23,9; 23,9; 0,0; 0,0;247,5; 113,6
2020-04-27 05:24:59; 6,2; 66; 0,3; 975,4368;1001,0000;3; 23,9; 23,9; 0,0; 0,0;247,5; 113,6
2020-04-27 05:44:59; 6,1; 66; 0,2; 975,3118;1000,8750;3; 23,9; 23,9; 0,0; 0,0;247,5; 113,6
2020-04-27 06:04:59; 6,1; 67; 0,4; 975,4993;1001,0625;3; 23,9; 23,9; 0,0; 0,0;247,5; 113,6
2020-04-27 06:24:59; 6,3; 66; 0,4; 975,5618;1001,1250;3; 23,9; 23,9; 0,0; 0,0;247,5; 113,6
2020-04-27 06:45:00; 6,5; 67; 0,8; 975,6243;1001,1875;3; 24,0; 24,0; 0,0; 0,0;247,5; 113,6
2020-04-27 07:05:00; 7,1; 65; 1,0; 975,6868;1001,2500;3; 24,0; 24,0; 0,0; 0,0;247,5; 113,6
2020-04-27 07:25:00; 7,6; 65; 1,4; 975,6868;1001,2500;3; 24,0; 24,0; 0,0; 0,0;247,5; 113,6
2020-04-27 07:45:00; 8,3; 63; 1,7; 975,7493;1001,3125;3; 24,1; 24,1; 0,0; 0,0;247,5; 113,6
2020-04-27 08:05:00; 9,6; 61; 2,4; 975,6243;1001,1875;3; 24,2; 24,2; 0,0; 0,0;247,5; 113,6
2020-04-27 08:24:59; 11,7; 57; 3,5; 975,8743;1001,4375;3; 24,3; 24,3; 0,0; 0,0;247,5; 113,6
2020-04-27 08:44:59; 13,7; 52; 4,0; 975,8743;1001,4375;3; 24,5; 24,5; 0,0; 0,0;247,5; 113,6
2020-04-27 09:04:59; 15,1; 48; 4,2; 975,9993;1001,5625;3; 24,8; 24,8; 0,0; 0,0;247,5; 113,6
2020-04-27 09:24:59; 16,7; 45; 4,7; 975,9993;1001,5625;3; 25,1; 25,1; 0,0; 0,0;247,5; 113,6
2020-04-27 09:45:00; 18,3; 43; 5,5; 975,9993;1001,5625;3; 25,5; 25,5; 0,0; 0,0;247,5; 113,6
2020-04-27 10:05:00; 19,5; 41; 5,9; 976,1868;1001,7500;3; 25,9; 25,9; 0,0; 0,0;247,5; 113,6
2020-04-27 10:25:00; 20,3; 36; 4,7; 976,2493;1001,8125;3; 26,1; 26,1; 0,0; 0,0;247,5; 113,6
2020-04-27 10:45:00; 21,7; 34; 5,2; 976,3118;1001,8750;3; 26,5; 26,5; 0,0; 0,0;247,5; 113,6
2020-04-27 11:05:00; 21,5; 33; 4,5; 976,3118;1001,8750;3; 26,6; 26,6; 0,0; 0,0;247,5; 113,6
2020-04-27 11:24:59; 22,3; 31; 4,4; 976,1868;1001,7500;3; 26,8; 26,8; 0,0; 0,0;247,5; 113,6
2020-04-27 11:44:59; 23,2; 28; 3,7; 975,9993;1001,5625;3; 27,1; 27,1; 0,0; 0,0;247,5; 113,6
2020-04-27 12:04:59; 23,9; 28; 4,3; 975,8743;1001,4375;3; 27,2; 27,2; 0,0; 0,0;247,5; 113,6
2020-04-27 12:24:59; 25,0; 23; 2,4; 975,8118;1001,3750;3; 27,3; 27,3; 0,0; 0,0;247,5; 113,6
2020-04-27 12:45:00; 25,5; 22; 2,2; 975,4993;1001,0625;3; 27,3; 27,3; 0,0; 0,0;247,5; 113,6
2020-04-27 13:05:00; 25,6; 21; 1,6; 975,2493;1000,8125;3; 26,9; 26,9; 0,0; 0,0;247,5; 113,6
2020-04-27 13:25:00; 25,2; 21; 1,3; 975,3118;1000,8750;3; 26,7; 26,7; 0,0; 0,0;247,5; 113,6
2020-04-27 13:45:00; 25,4; 22; 2,1; 975,3118;1000,8750;3; 26,6; 26,6; 0,0; 0,0;247,5; 113,6
2020-04-27 14:05:00; 25,8; 21; 1,8; 975,1868;1000,7500;3; 26,6; 26,6; 0,0; 0,0;247,5; 113,6
2020-04-27 14:24:59; 26,1; 20; 1,4; 975,0618;1000,6250;3; 26,6; 26,6; 0,0; 0,0;247,5; 113,6
2020-04-27 14:44:59; 26,6; 21; 2,5; 974,9993;1000,5625;3; 26,5; 26,5; 0,0; 0,0;247,5; 113,6
2020-04-27 15:04:59; 26,1; 22; 2,7; 974,8743;1000,4375;3; 26,5; 26,5; 0,0; 0,0;247,5; 113,6
2020-04-27 15:24:59; 26,1; 22; 2,7; 974,5618;1000,1250;3; 26,4; 26,4; 0,0; 0,0;247,5; 113,6
2020-04-27 15:45:00; 26,2; 21; 2,1; 974,4368;1000,0000;2; 26,3; 26,3; 0,0; 0,0;247,5; 113,6
2020-04-27 16:05:00; 25,0; 23; 2,4; 974,3118; 999,8750;2; 26,2; 26,2; 0,0; 0,0;247,5; 113,6
2020-04-27 16:25:00; 25,5; 23; 2,8; 974,1243; 999,6875;2; 26,1; 26,1; 0,0; 0,0;247,5; 113,6
2020-04-27 16:45:00; 25,5; 22; 2,2; 973,9368; 999,5000;2; 26,0; 26,0; 0,0; 0,0;247,5; 113,6
2020-04-27 17:05:00; 25,4; 23; 2,8; 973,8118; 999,3750;2; 26,0; 26,0; 0,0; 0,0;247,5; 113,6
2020-04-27 17:24:59; 25,1; 22; 1,9; 973,3743; 998,9375;2; 25,8; 25,8; 0,0; 0,0;247,5; 113,6
2020-04-27 17:44:59; 25,3; 23; 2,7; 973,3118; 998,8750;2; 25,7; 25,7; 0,0; 0,0;247,5; 113,6
2020-04-27 18:04:59; 23,3; 24; 1,6; 973,1868; 998,7500;2; 25,6; 25,6; 0,0; 0,0;247,5; 113,6
2020-04-27 18:24:59; 23,7; 25; 2,5; 973,0618; 998,6250;2; 25,4; 25,4; 0,0; 0,0;247,5; 113,6
2020-04-27 18:45:00; 23,1; 26; 2,5; 972,8743; 998,4375;2; 25,3; 25,3; 0,0; 0,0;247,5; 113,6
2020-04-27 19:05:00; 23,3; 28; 3,8; 972,8118; 998,3750;2; 25,3; 25,3; 0,0; 0,0;247,5; 113,6
2020-04-27 19:25:00; 22,3; 28; 2,9; 972,6868; 998,2500;2; 25,1; 25,1; 0,0; 0,0;247,5; 113,6
2020-04-27 19:45:00; 21,5; 30; 3,2; 972,9368; 998,5000;2; 25,1; 25,1; 0,0; 0,0;247,5; 113,6
2020-04-27 20:05:00; 21,2; 33; 4,3; 972,8118; 998,3750;2; 25,0; 25,0; 0,0; 0,0;247,5; 113,6
2020-04-27 20:24:59; 20,5; 35; 4,5; 972,7493; 998,3125;2; 24,9; 24,9; 0,0; 0,0;247,5; 113,6
2020-04-27 20:44:59; 19,7; 36; 4,2; 972,9368; 998,5000;2; 24,8; 24,8; 0,0; 0,0;247,5; 113,6
2020-04-27 21:04:59; 19,2; 36; 3,8; 972,7493; 998,3125;2; 24,7; 24,7; 0,0; 0,0;247,5; 113,6
2020-04-27 21:24:59; 18,4; 37; 3,4; 972,8743; 998,4375;2; 24,7; 24,7; 0,0; 0,0;247,5; 113,6
2020-04-27 21:45:00; 17,6; 39; 3,5; 972,6243; 998,1875;2; 24,6; 24,6; 0,0; 0,0;247,5; 113,6
2020-04-27 22:05:00; 17,1; 41; 3,7; 972,7493; 998,3125;2; 24,5; 24,5; 0,0; 0,0;247,5; 113,6
2020-04-27 22:25:00; 16,8; 42; 3,8; 972,8118; 998,3750;2; 24,5; 24,5; 0,0; 0,0;247,5; 113,6
2020-04-27 22:45:00; 16,3; 43; 3,7; 972,6243; 998,1875;2; 24,4; 24,4; 0,0; 0,0;247,5; 113,6
2020-04-27 23:05:00; 15,8; 45; 3,9; 972,6243; 998,1875;2; 24,4; 24,4; 0,0; 0,0;247,5; 113,6
2020-04-27 23:24:59; 15,6; 46; 4,0; 972,6868; 998,2500;2; 24,3; 24,3; 0,0; 0,0;247,5; 113,6
2020-04-27 23:44:59; 15,3; 47; 4,1; 972,5618; 998,1250;2; 24,3; 24,3; 0,0; 0,0;247,5; 113,6
2020-04-28 00:04:59; 15,1; 48; 4,2; 972,5618; 998,1250;2; 24,3; 24,3; 0,0; 0,0;247,5; 113,6
2020-04-28 00:24:59; 14,9; 49; 4,3; 972,4993; 998,0625;2; 24,2; 24,2; 0,0; 0,0;247,5; 113,6
2020-04-28 00:45:00; 14,6; 49; 4,0; 972,3743; 997,9375;2; 24,2; 24,2; 0,0; 0,0;247,5; 113,6
2020-04-28 01:05:00; 14,4; 50; 4,1; 972,3118; 997,8750;2; 24,3; 24,3; 0,0; 0,0;247,5; 113,6
2020-04-28 01:25:00; 14,2; 52; 4,5; 972,3743; 997,9375;2; 24,3; 24,3; 0,0; 0,0;247,5; 113,6
2020-04-28 01:45:00; 14,2; 53; 4,8; 972,3118; 997,8750;2; 24,3; 24,3; 0,0; 0,0;247,5; 113,6
2020-04-28 02:05:00; 14,1; 53; 4,7; 972,1243; 997,6875;2; 24,3; 24,3; 0,0; 0,0;247,5; 113,6
2020-04-28 02:24:59; 14,1; 54; 4,9; 972,1868; 997,7500;2; 24,3; 24,3; 0,0; 0,0;247,5; 113,6
2020-04-28 02:44:59; 14,0; 55; 5,1; 972,1243; 997,6875;2; 24,3; 24,3; 0,0; 0,0;247,5; 113,6
2020-04-28 03:04:59; 13,9; 55; 5,0; 971,9993; 997,5625;2; 24,3; 24,3; 0,0; 0,0;247,5; 113,6
2020-04-28 03:24:59; 13,7; 56; 5,1; 971,9993; 997,5625;2; 24,3; 24,3; 0,0; 0,0;247,5; 113,6
2020-04-28 03:45:00; 13,5; 58; 5,4; 971,9368; 997,5000;2; 24,3; 24,3; 0,0; 0,0;247,5; 113,6
2020-04-28 04:05:00; 13,4; 59; 5,5; 971,9993; 997,5625;2; 24,3; 24,3; 0,0; 0,0;247,5; 113,6
2020-04-28 04:25:00; 13,4; 59; 5,5; 972,0618; 997,6250;2; 24,3; 24,3; 0,0; 0,0;247,5; 113,6
2020-04-28 04:45:00; 13,4; 60; 5,8; 972,1243; 997,6875;2; 24,3; 24,3; 0,0; 0,0;247,5; 113,6
2020-04-28 05:05:00; 13,4; 60; 5,8; 972,0618; 997,6250;2; 24,3; 24,3; 0,0; 0,0;247,5; 113,6
2020-04-28 05:24:59; 13,1; 61; 5,7; 971,9993; 997,5625;2; 24,3; 24,3; 0,0; 0,0;247,5; 113,6
2020-04-28 05:44:59; 13,1; 61; 5,7; 971,9368; 997,5000;2; 24,3; 24,3; 0,0; 0,0;247,5; 113,6
2020-04-28 06:04:59; 13,1; 62; 6,0; 971,9368; 997,5000;2; 24,3; 24,3; 0,0; 0,0;247,5; 113,6
2020-04-28 06:24:59; 13,1; 63; 6,2; 971,8743; 997,4375;2; 24,3; 24,3; 0,0; 0,0;247,5; 113,6
2020-04-28 06:45:00; 13,2; 63; 6,3; 971,9368; 997,5000;2; 24,3; 24,3; 0,0; 0,0;247,5; 113,6
2020-04-28 07:05:00; 13,3; 64; 6,6; 971,9368; 997,5000;2; 24,3; 24,3; 0,0; 0,0;247,5; 113,6
2020-04-28 07:25:00; 13,3; 62; 6,2; 971,8743; 997,4375;2; 24,4; 24,4; 0,0; 0,0;247,5; 113,6
2020-04-28 07:45:00; 13,8; 63; 6,9; 972,1243; 997,6875;2; 24,5; 24,5; 0,0; 0,0;247,5; 113,6
2020-04-28 08:05:00; 14,8; 61; 7,4; 971,9993; 997,5625;2; 24,6; 24,6; 0,0; 0,0;247,5; 113,6
2020-04-28 08:24:59; 16,2; 57; 7,7; 972,0618; 997,6250;2; 24,7; 24,7; 0,0; 0,0;247,5; 113,6
2020-04-28 08:44:59; 18,2; 53; 8,5; 972,2493; 997,8125;2; 24,9; 24,9; 0,0; 0,0;247,5; 113,6
2020-04-28 09:04:59; 19,9; 50; 9,2; 972,2493; 997,8125;2; 25,2; 25,2; 0,0; 0,0;247,5; 113,6
2020-04-28 09:24:59; 21,2; 46; 9,1; 972,3118; 997,8750;2; 25,4; 25,4; 0,0; 0,0;247,5; 113,6
2020-04-28 09:45:00; 21,6; 45; 9,2; 972,3118; 997,8750;2; 25,8; 25,8; 0,0; 0,0;247,5; 113,6
2020-04-28 10:05:00; 23,1; 42; 9,5; 972,3743; 997,9375;2; 26,1; 26,1; 0,0; 0,0;247,5; 113,6
2020-04-28 10:25:00; 23,6; 41; 9,6; 972,3743; 997,9375;2; 26,1; 26,1; 0,0; 0,0;247,5; 113,6
2020-04-28 10:45:00; 24,1; 39; 9,3; 972,4993; 998,0625;2; 26,4; 26,4; 0,0; 0,0;247,5; 113,6
2020-04-28 11:05:00; 24,3; 36; 8,3; 972,4368; 998,0000;2; 26,6; 26,6; 0,0; 0,0;247,5; 113,6
2020-04-28 11:24:59; 26,1; 32; 8,1; 972,2493; 997,8125;2; 26,8; 26,8; 0,0; 0,0;247,5; 113,6
2020-04-28 11:44:59; 26,4; 26; 5,3; 972,3118; 997,8750;2; 26,9; 26,9; 0,0; 0,0;247,5; 113,6
2020-04-28 12:04:59; 26,4; 26; 5,3; 972,1868; 997,7500;2; 27,1; 27,1; 0,0; 0,0;247,5; 113,6
2020-04-28 12:24:59; 27,0; 24; 4,7; 972,1243; 997,6875;2; 27,3; 27,3; 0,0; 0,0;247,5; 113,6
2020-04-28 12:45:00; 26,1; 24; 4,0; 971,9368; 997,5000;2; 27,3; 27,3; 0,0; 0,0;247,5; 113,6
2020-04-28 13:05:00; 26,9; 24; 4,6; 971,8743; 997,4375;2; 27,0; 27,0; 0,0; 0,0;247,5; 113,6
2020-04-28 13:25:00; 26,6; 24; 4,4; 971,5618; 997,1250;2; 26,9; 26,9; 0,0; 0,0;247,5; 113,6
2020-04-28 13:45:00; 28,3; 22; 4,5; 971,3743; 996,9375;2; 26,9; 26,9; 0,0; 0,0;247,5; 113,6
2020-04-28 14:05:00; 27,9; 23; 4,9; 971,4368; 997,0000;2; 26,8; 26,8; 0,0; 0,0;247,5; 113,6
2020-04-28 14:24:59; 28,0; 25; 6,1; 971,3118; 996,8750;2; 26,8; 26,8; 0,0; 0,0;247,5; 113,6
2020-04-28 14:44:59; 26,9; 25; 5,2; 971,2493; 996,8125;2; 26,5; 26,5; 0,0; 0,0;247,5; 113,6
2020-04-28 15:04:59; 27,1; 24; 4,8; 970,9993; 996,5625;2; 26,4; 26,4; 0,0; 0,0;247,5; 113,6
2020-04-28 15:24:59; 27,7; 24; 5,3; 970,8118; 996,3750;2; 26,3; 26,3; 0,0; 0,0;247,5; 113,6
2020-04-28 15:45:00; 27,1; 24; 4,8; 970,3118; 995,8750;2; 26,3; 26,3; 0,0; 0,0;247,5; 113,6
2020-04-28 16:05:00; 25,9; 26; 4,9; 970,2493; 995,8125;2; 26,1; 26,1; 0,0; 0,0;247,5; 113,6
2020-04-28 16:25:00; 25,1; 28; 5,3; 970,2493; 995,8125;2; 25,9; 25,9; 0,0; 0,0;247,5; 113,6
2020-04-28 16:45:00; 24,3; 30; 5,6; 969,9368; 995,5000;2; 25,8; 25,8; 0,0; 0,0;247,5; 113,6
2020-04-28 17:05:00; 23,9; 30; 5,3; 969,8743; 995,4375;2; 25,6; 25,6; 0,0; 0,0;247,5; 113,6
2020-04-28 17:24:59; 23,3; 32; 5,7; 969,6868; 995,2500;2; 25,5; 25,5; 0,0; 0,0;247,5; 113,6
2020-04-28 17:44:59; 22,7; 33; 5,6; 969,7493; 995,3125;2; 25,4; 25,4; 0,0; 0,0;247,5; 113,6
2020-04-28 18:04:59; 22,2; 34; 5,6; 969,7493; 995,3125;2; 25,3; 25,3; 0,0; 0,0;247,5; 113,6
2020-04-28 18:24:59; 21,8; 36; 6,1; 969,8743; 995,4375;2; 25,3; 25,3; 0,0; 0,0;247,5; 113,6
2020-04-28 18:45:00; 21,5; 36; 5,8; 969,7493; 995,3125;2; 25,3; 25,3; 0,0; 0,0;247,5; 113,6
2020-04-28 19:05:00; 21,2; 37; 5,9; 969,6243; 995,1875;2; 25,2; 25,2; 0,0; 0,0;247,5; 113,6
2020-04-28 19:25:00; 20,5; 38; 5,7; 969,8118; 995,3750;2; 25,1; 25,1; 0,0; 0,0;247,5; 113,6
2020-04-28 19:45:00; 19,8; 41; 6,2; 969,9993; 995,5625;2; 25,1; 25,1; 0,0; 0,0;247,5; 113,6
2020-04-28 20:05:00; 19,1; 45; 6,9; 969,8743; 995,4375;2; 25,0; 25,0; 0,0; 0,0;247,5; 113,6
2020-04-28 20:24:59; 19,1; 46; 7,2; 969,8118; 995,3750;2; 24,9; 24,9; 0,0; 0,0;247,5; 113,6
2020-04-28 20:44:59; 19,0; 47; 7,4; 969,9368; 995,5000;2; 24,9; 24,9; 0,0; 0,0;247,5; 113,6
2020-04-28 21:04:59; 19,0; 48; 7,7; 969,9993; 995,5625;2; 24,9; 24,9; 0,0; 0,0;247,5; 113,6
2020-04-28 21:24:59; 18,8; 49; 7,9; 969,8743; 995,4375;2; 24,8; 24,8; 0,0; 0,0;247,5; 113,6
2020-04-28 21:45:00; 18,4; 49; 7,5; 969,9368; 995,5000;2; 24,7; 24,7; 0,0; 0,0;247,5; 113,6
2020-04-28 22:05:00; 18,4; 50; 7,8; 969,8743; 995,4375;2; 24,7; 24,7; 0,0; 0,0;247,5; 113,6
2020-04-28 22:25:00; 18,4; 50; 7,8; 969,8118; 995,3750;2; 24,7; 24,7; 0,0; 0,0;247,5; 113,6
2020-04-28 22:45:00; 18,2; 50; 7,6; 969,7493; 995,3125;2; 24,7; 24,7; 0,0; 0,0;247,5; 113,6
2020-04-28 23:05:00; 17,9; 51; 7,6; 969,7493; 995,3125;2; 24,7; 24,7; 0,0; 0,0;247,5; 113,6
2020-04-28 23:24:59; 17,5; 54; 8,1; 969,6868; 995,2500;2; 24,6; 24,6; 0,0; 0,0;247,5; 113,6
2020-04-28 23:44:59; 17,2; 57; 8,6; 969,6243; 995,1875;2; 24,6; 24,6; 0,0; 0,0;247,5; 113,6
2020-04-29 00:04:59; 17,0; 60; 9,2; 969,6243; 995,1875;2; 24,6; 24,6; 0,0; 0,0;247,5; 113,6
2020-04-29 00:24:59; 16,7; 62; 9,4; 969,8118; 995,3750;2; 24,5; 24,5; 0,0; 0,0;247,5; 113,6
2020-04-29 00:45:00; 16,6; 63; 9,5; 969,6243; 995,1875;2; 24,5; 24,5; 0,0; 0,0;247,5; 113,6
2020-04-29 01:05:00; 16,3; 64; 9,5; 969,6868; 995,2500;2; 24,5; 24,5; 0,0; 0,0;247,5; 113,6
2020-04-29 01:25:00; 16,1; 64; 9,3; 969,7493; 995,3125;2; 24,5; 24,5; 0,0; 0,0;247,5; 113,6
2020-04-29 01:45:00; 16,0; 65; 9,4; 969,8743; 995,4375;2; 24,5; 24,5; 0,0; 0,0;247,5; 113,6
2020-04-29 02:05:00; 15,8; 65; 9,2; 969,6243; 995,1875;2; 24,5; 24,5; 0,0; 0,0;247,5; 113,6
2020-04-29 02:24:59; 15,6; 66; 9,3; 970,0618; 995,6250;2; 24,5; 24,5; 0,0; 0,0;247,5; 113,6
2020-04-29 02:44:59; 15,4; 67; 9,3; 969,6868; 995,2500;2; 24,6; 24,6; 0,0; 0,0;247,5; 113,6
2020-04-29 03:04:59; 15,4; 67; 9,3; 969,6868; 995,2500;2; 24,6; 24,6; 0,0; 0,0;247,5; 113,6
2020-04-29 03:24:59; 14,9; 69; 9,3; 969,9368; 995,5000;2; 24,6; 24,6; 0,0; 0,0;247,5; 113,6
2020-04-29 03:45:00; 14,7; 69; 9,1; 969,8743; 995,4375;2; 24,5; 24,5; 0,0; 0,0;247,5; 113,6
2020-04-29 04:05:00; 14,3; 71; 9,1; 969,6868; 995,2500;2; 24,5; 24,5; 0,0; 0,0;247,5; 113,6
2020-04-29 04:25:00; 14,0; 72; 9,0; 969,6868; 995,2500;2; 24,5; 24,5; 0,0; 0,0;247,5; 113,6
2020-04-29 04:45:00; 13,9; 72; 8,9; 969,6868; 995,2500;2; 24,5; 24,5; 0,0; 0,0;247,5; 113,6
2020-04-29 05:05:00; 13,9; 73; 9,1; 969,8118; 995,3750;2; 24,5; 24,5; 0,0; 0,0;247,5; 113,6
2020-04-29 05:24:59; 13,9; 73; 9,1; 969,8118; 995,3750;2; 24,5; 24,5; 0,0; 0,0;247,5; 113,6
2020-04-29 05:44:59; 13,8; 74; 9,2; 969,7493; 995,3125;2; 24,5; 24,5; 0,0; 0,0;247,5; 113,6
2020-04-29 06:04:59; 13,7; 73; 8,9; 969,8118; 995,3750;2; 24,5; 24,5; 0,0; 0,0;247,5; 113,6
2020-04-29 06:24:59; 13,7; 74; 9,1; 969,8118; 995,3750;2; 24,5; 24,5; 0,0; 0,0;247,5; 113,6
2020-04-29 06:45:00; 13,6; 74; 9,1; 970,2493; 995,8125;2; 24,6; 24,6; 0,0; 0,0;247,5; 113,6
2020-04-29 07:05:00; 13,7; 74; 9,1; 970,3743; 995,9375;2; 24,6; 24,6; 0,0; 0,0;247,5; 113,6
2020-04-29 07:25:00; 13,9; 73; 9,1; 970,7493; 996,3125;2; 24,7; 24,7; 0,0; 0,0;247,5; 113,6
2020-04-29 07:45:00; 13,9; 72; 8,9; 970,5618; 996,1250;2; 24,7; 24,7; 0,0; 0,0;247,5; 113,6
2020-04-29 08:05:00; 14,1; 72; 9,1; 970,9368; 996,5000;2; 24,7; 24,7; 0,0; 0,0;247,5; 113,6
2020-04-29 08:24:59; 14,2; 71; 9,0; 971,0618; 996,6250;2; 24,7; 24,7; 0,0; 0,0;247,5; 113,6
2020-04-29 08:44:59; 14,4; 71; 9,2; 971,1243; 996,6875;2; 24,8; 24,8; 0,0; 0,0;247,5; 113,6
2020-04-29 09:04:59; 14,6; 70; 9,2; 971,4368; 997,0000;3; 24,9; 24,9; 0,0; 0,0;247,5; 113,6
2020-04-29 09:24:59; 14,9; 69; 9,3; 971,3743; 996,9375;3; 25,0; 25,0; 0,0; 0,0;247,5; 113,6
2020-04-29 09:45:00; 15,7; 67; 9,6; 971,3743; 996,9375;3; 25,2; 25,2; 0,0; 0,0;247,5; 113,6
2020-04-29 10:05:00; 15,9; 66; 9,6; 971,7493; 997,3125;3; 25,4; 25,4; 0,0; 0,0;247,5; 113,6
2020-04-29 10:25:00; 16,6; 64; 9,8; 971,8743; 997,4375;3; 25,6; 25,6; 0,0; 0,0;247,5; 113,6
2020-04-29 10:45:00; 16,7; 63; 9,6; 971,9368; 997,5000;3; 25,8; 25,8; 0,0; 0,0;247,5; 113,6
2020-04-29 11:05:00; 17,6; 61; 10,0; 971,9368; 997,5000;3; 25,8; 25,8; 0,0; 0,0;247,5; 113,6
2020-04-29 11:24:59; 17,9; 58; 9,5; 972,2493; 997,8125;3; 26,1; 26,1; 0,0; 0,0;247,5; 113,6
2020-04-29 11:44:59; 18,1; 57; 9,4; 972,3743; 997,9375;3; 26,3; 26,3; 0,0; 0,0;247,5; 113,6
2020-04-29 12:04:59; 18,2; 56; 9,3; 972,3743; 997,9375;3; 26,5; 26,5; 0,0; 0,0;247,5; 113,6
2020-04-29 12:24:59; 17,5; 57; 8,9; 972,3743; 997,9375;3; 26,0; 26,0; 0,0; 0,0;247,5; 113,6
2020-04-29 12:45:00; 17,1; 57; 8,5; 972,1243; 997,6875;3; 25,8; 25,8; 0,0; 0,0;247,5; 113,6
2020-04-29 13:05:00; 18,1; 56; 9,2; 972,1868; 997,7500;3; 25,8; 25,8; 0,0; 0,0;247,5; 113,6
2020-04-29 13:25:00; 18,9; 53; 9,1; 972,1868; 997,7500;3; 25,9; 25,9; 0,0; 0,0;247,5; 113,6
2020-04-29 13:45:00; 18,4; 56; 9,5; 972,3118; 997,8750;3; 25,9; 25,9; 0,0; 0,0;247,5; 113,6
2020-04-29 14:05:00; 17,3; 55; 8,2; 972,4368; 998,0000;3; 25,7; 25,7; 0,0; 0,0;247,5; 113,6
2020-04-29 14:24:59; 18,1; 55; 8,9; 972,4993; 998,0625;3; 25,7; 25,7; 0,0; 0,0;247,5; 113,6
2020-04-29 14:44:59; 18,5; 55; 9,3; 972,6243; 998,1875;3; 25,8; 25,8; 0,0; 0,0;247,5; 113,6
2020-04-29 15:04:59; 19,2; 53; 9,4; 972,5618; 998,1250;3; 25,8; 25,8; 0,0; 0,0;247,5; 113,6
2020-04-29 15:24:59; 18,8; 54; 9,3; 972,4993; 998,0625;3; 25,7; 25,7; 0,0; 0,0;247,5; 113,6
2020-04-29 15:45:00; 19,5; 55; 10,2; 972,4993; 998,0625;3; 25,6; 25,6; 0,0; 0,0;247,5; 113,6
2020-04-29 16:05:00; 19,8; 54; 10,2; 972,4368; 998,0000;3; 25,7; 25,7; 0,0; 0,0;247,5; 113,6
2020-04-29 16:25:00; 19,3; 53; 9,5; 972,4993; 998,0625;3; 25,6; 25,6; 0,0; 0,0;247,5; 113,6
2020-04-29 16:45:00; 19,0; 53; 9,2; 972,7493; 998,3125;3; 25,5; 25,5; 0,0; 0,0;247,5; 113,6
2020-04-29 17:05:00; 19,3; 52; 9,2; 972,6868; 998,2500;3; 25,5; 25,5; 0,0; 0,0;247,5; 113,6
2020-04-29 17:24:59; 18,8; 53; 9,0; 972,6243; 998,1875;3; 25,4; 25,4; 0,0; 0,0;247,5; 113,6
2020-04-29 17:44:59; 16,9; 62; 9,6; 972,6243; 998,1875;3; 25,3; 25,3; 0,0; 0,0;247,5; 113,6
2020-04-29 18:04:59; 15,9; 67; 9,8; 972,8118; 998,3750;3; 25,2; 25,2; 0,0; 0,0;247,5; 118,5
2020-04-29 18:24:59; 15,6; 69; 9,9; 972,8743; 998,4375;3; 25,1; 25,1; 0,0; 0,0;247,5; 119,2
2020-04-29 18:45:00; 15,8; 68; 9,9; 972,8743; 998,4375;3; 25,1; 25,1; 0,0; 0,0;247,5; 119,2
2020-04-29 19:05:00; 15,9; 71; 10,6; 972,9993; 998,5625;3; 25,1; 25,1; 0,0; 0,0;247,5; 119,2
2020-04-29 19:25:00; 15,6; 72; 10,6; 973,1243; 998,6875;3; 25,0; 25,0; 0,0; 0,0;247,5; 119,2
2020-04-29 19:45:00; 15,2; 73; 10,4; 972,8118; 998,3750;3; 25,0; 25,0; 0,0; 0,0;247,5; 119,2
2020-04-29 20:05:00; 15,0; 73; 10,2; 973,2493; 998,8125;3; 24,9; 24,9; 0,0; 0,0;247,5; 119,9
2020-04-29 20:24:59; 14,3; 73; 9,5; 973,0618; 998,6250;3; 24,9; 24,9; 0,0; 0,0;247,5; 119,9
2020-04-29 20:44:59; 13,9; 74; 9,3; 973,0618; 998,6250;3; 24,9; 24,9; 0,0; 0,0;247,5; 119,9
2020-04-29 21:04:59; 13,8; 75; 9,4; 973,3118; 998,8750;3; 24,9; 24,9; 0,0; 0,0;247,5; 119,9
2020-04-29 21:24:59; 13,8; 76; 9,6; 973,4993; 999,0625;3; 24,8; 24,8; 0,0; 0,0;247,5; 119,9
2020-04-29 21:45:00; 13,8; 78; 10,0; 973,4993; 999,0625;3; 24,8; 24,8; 0,0; 0,0;247,5; 119,9
2020-04-29 22:05:00; 13,4; 76; 9,3; 973,9993; 999,5625;4; 24,8; 24,8; 0,0; 0,0;247,5; 119,9
2020-04-29 22:25:00; 13,4; 78; 9,6; 973,4368; 999,0000;4; 24,8; 24,8; 0,0; 0,0;247,5; 119,9
2020-04-29 22:45:00; 13,2; 78; 9,4; 973,9368; 999,5000;4; 24,8; 24,8; 0,0; 0,0;247,5; 119,9
2020-04-29 23:05:00; 13,2; 78; 9,4; 973,8743; 999,4375;4; 24,7; 24,7; 0,0; 0,0;247,5; 119,9
2020-04-29 23:24:59; 12,9; 79; 9,3; 973,8743; 999,4375;4; 24,7; 24,7; 0,0; 0,0;247,5; 119,9
2020-04-29 23:44:59; 12,8; 79; 9,2; 973,8743; 999,4375;4; 24,7; 24,7; 0,0; 0,0;247,5; 119,9
2020-04-30 00:04:59; 12,6; 79; 9,1; 973,9368; 999,5000;4; 24,7; 24,7; 0,0; 0,0;247,5; 119,9
2020-04-30 00:24:59; 12,1; 79; 8,6; 974,2493; 999,8125;4; 24,7; 24,7; 0,0; 0,0;247,5; 119,9
2020-04-30 00:45:00; 11,9; 79; 8,4; 974,1868; 999,7500;4; 24,7; 24,7; 0,0; 0,0;247,5; 119,9
2020-04-30 01:05:00; 11,7; 78; 8,0; 974,1868; 999,7500;4; 24,7; 24,7; 0,0; 0,0;247,5; 119,9
2020-04-30 01:25:00; 11,5; 78; 7,8; 974,3118; 999,8750;4; 24,7; 24,7; 0,0; 0,0;247,5; 119,9
2020-04-30 01:45:00; 11,6; 78; 7,9; 974,1868; 999,7500;4; 24,7; 24,7; 0,0; 0,0;247,5; 119,9
2020-04-30 02:05:00; 11,4; 79; 7,9; 974,1868; 999,7500;4; 24,7; 24,7; 0,0; 0,0;247,5; 119,9
2020-04-30 02:24:59; 11,1; 79; 7,6; 973,9993; 999,5625;4; 24,6; 24,6; 0,0; 0,0;247,5; 119,9
2020-04-30 02:44:59; 10,7; 79; 7,2; 973,9368; 999,5000;4; 24,6; 24,6; 0,0; 0,0;247,5; 119,9
2020-04-30 03:04:59; 10,5; 79; 7,0; 973,9368; 999,5000;4; 24,6; 24,6; 0,0; 0,0;247,5; 119,9
2020-04-30 03:24:59; 10,3; 79; 6,8; 973,6868; 999,2500;4; 24,6; 24,6; 0,0; 0,0;247,5; 119,9
2020-04-30 03:45:00; 10,3; 77; 6,4; 973,6243; 999,1875;4; 24,6; 24,6; 0,0; 0,0;247,5; 119,9
2020-04-30 04:05:00; 10,5; 76; 6,4; 973,6868; 999,2500;4; 24,5; 24,5; 0,0; 0,0;247,5; 119,9
2020-04-30 04:25:00; 10,3; 76; 6,3; 973,5618; 999,1250;4; 24,5; 24,5; 0,0; 0,0;247,5; 119,9
2020-04-30 04:45:00; 10,4; 76; 6,4; 973,4993; 999,0625;4; 24,5; 24,5; 0,0; 0,0;247,5; 119,9
2020-04-30 05:05:00; 10,3; 75; 6,1; 973,4368; 999,0000;4; 24,5; 24,5; 0,0; 0,0;247,5; 119,9
2020-04-30 05:24:59; 10,2; 76; 6,2; 973,4368; 999,0000;4; 24,5; 24,5; 0,0; 0,0;247,5; 119,9
2020-04-30 05:44:59; 10,2; 75; 6,0; 973,3118; 998,8750;4; 24,5; 24,5; 0,0; 0,0;247,5; 119,9
2020-04-30 06:04:59; 10,3; 75; 6,1; 973,4993; 999,0625;4; 24,5; 24,5; 0,0; 0,0;247,5; 119,9
2020-04-30 06:24:59; 10,4; 75; 6,2; 973,4368; 999,0000;4; 24,5; 24,5; 0,0; 0,0;247,5; 119,9
2020-04-30 06:45:00; 10,7; 74; 6,3; 973,4368; 999,0000;4; 24,5; 24,5; 0,0; 0,0;247,5; 119,9
2020-04-30 07:05:00; 10,7; 73; 6,1; 973,3743; 998,9375;4; 24,6; 24,6; 0,0; 0,0;247,5; 119,9
2020-04-30 07:25:00; 11,3; 73; 6,6; 973,4368; 999,0000;4; 24,7; 24,7; 0,0; 0,0;247,5; 119,9
2020-04-30 07:45:00; 11,9; 73; 7,2; 973,3118; 998,8750;4; 24,7; 24,7; 0,0; 0,0;247,5; 119,9
2020-04-30 08:05:00; 13,0; 71; 7,9; 973,2493; 998,8125;4; 24,8; 24,8; 0,0; 0,0;247,5; 119,9
2020-04-30 08:24:59; 13,8; 67; 7,8; 973,3743; 998,9375;4; 24,9; 24,9; 0,0; 0,0;247,5; 119,9
2020-04-30 08:44:59; 14,7; 66; 8,4; 973,5618; 999,1250;4; 25,0; 25,0; 0,0; 0,0;247,5; 119,9
2020-04-30 09:04:59; 15,3; 63; 8,3; 973,3743; 998,9375;4; 25,0; 25,0; 0,0; 0,0;247,5; 119,9
2020-04-30 09:24:59; 16,5; 57; 8,0; 973,5618; 999,1250;4; 25,2; 25,2; 0,0; 0,0;247,5; 119,9
2020-04-30 09:45:00; 16,9; 55; 7,8; 973,5618; 999,1250;4; 25,4; 25,4; 0,0; 0,0;247,5; 119,9
2020-04-30 10:05:00; 17,3; 55; 8,2; 973,3743; 998,9375;4; 25,5; 25,5; 0,0; 0,0;247,5; 119,9
2020-04-30 10:25:00; 18,6; 52; 8,6; 973,6868; 999,2500;4; 25,8; 25,8; 0,0; 0,0;247,5; 119,9
2020-04-30 10:45:00; 18,7; 50; 8,1; 973,6868; 999,2500;4; 25,9; 25,9; 0,0; 0,0;247,5; 119,9
2020-04-30 11:05:00; 17,9; 51; 7,6; 973,4368; 999,0000;4; 25,6; 25,6; 0,0; 0,0;247,5; 119,9
2020-04-30 11:24:59; 17,9; 49; 7,0; 973,3743; 998,9375;4; 25,6; 25,6; 0,0; 0,0;247,5; 119,9
2020-04-30 11:44:59; 18,2; 49; 7,3; 973,1868; 998,7500;4; 25,6; 25,6; 0,0; 0,0;247,5; 119,9
2020-04-30 12:04:59; 18,7; 48; 7,5; 972,9993; 998,5625;4; 25,8; 25,8; 0,0; 0,0;247,5; 119,9
2020-04-30 12:24:59; 18,9; 48; 7,6; 973,1868; 998,7500;4; 25,8; 25,8; 0,0; 0,0;247,5; 119,9
2020-04-30 12:45:00; 18,9; 49; 8,0; 973,0618; 998,6250;4; 25,8; 25,8; 0,0; 0,0;247,5; 119,9
2020-04-30 13:05:00; 19,7; 47; 8,1; 972,8118; 998,3750;4; 26,0; 26,0; 0,0; 0,0;247,5; 119,9
2020-04-30 13:25:00; 18,7; 50; 8,1; 972,7493; 998,3125;4; 22,7; 22,7; 0,0; 0,1;135,0; 119,9
2020-04-30 13:45:00; 18,9; 52; 8,8; 972,6868; 998,2500;4; 19,4; 19,4; 0,0; 0,0;337,5; 119,9
2020-04-30 14:05:00; 18,9; 51; 8,5; 972,6868; 998,2500;4; 19,3; 19,3; 0,0; 0,0;112,5; 119,9
2020-04-30 14:24:59; 18,8; 52; 8,7; 972,6868; 998,2500;4; 19,3; 19,3; 0,0; 0,0;180,0; 119,9
2020-04-30 14:44:59; 18,3; 58; 9,9; 972,7493; 998,3125;4; 16,8; 16,8; 0,0; 1,7;157,5; 119,9
2020-04-30 15:04:59; 18,4; 54; 8,9; 972,7493; 998,3125;4; 18,0; 18,0; 6,6; 1,3;112,5; 119,9
2020-04-30 15:24:59; 18,4; 50; 7,8; 972,8118; 998,3750;4; 18,8; 18,8; 3,3; 3,9;157,5; 119,9
2020-04-30 15:45:00; 17,9; 51; 7,6; 972,9993; 998,5625;4; 17,8; 17,8; 2,0; 2,8; 90,0; 119,9
2020-04-30 16:05:00; 17,7; 54; 8,3; 972,7493; 998,3125;4; 17,3; 17,3; 6,5; 2,1; 0,0; 119,9
2020-04-30 16:25:00; 18,4; 53; 8,6; 972,6868; 998,2500;4; 18,2; 18,2; 2,8; 1,7; 67,5; 119,9
2020-04-30 16:45:00; 18,4; 53; 8,6; 972,4368; 998,0000;4; 18,2; 18,2; 2,9; 1,2; 45,0; 119,9
2020-04-30 17:05:00; 17,8; 53; 8,1; 972,3118; 997,8750;4; 17,4; 17,4; 1,0; 1,7;112,5; 119,9
2020-04-30 17:24:59; 18,0; 52; 8,0; 972,0618; 997,6250;3; 17,4; 17,4; 1,6; 1,5;157,5; 119,9
2020-04-30 17:44:59; 17,9; 53; 8,2; 972,0618; 997,6250;3; 17,2; 17,2; 0,0; 0,9;135,0; 119,9
2020-04-30 18:04:59; 18,1; 52; 8,1; 971,9993; 997,5625;3; 17,0; 17,0; 0,0; 0,3;112,5; 119,9
2020-04-30 18:24:59; 17,8; 52; 7,8; 971,8118; 997,3750;3; 16,6; 16,6; 1,9; 0,3;135,0; 119,9
2020-04-30 18:45:00; 17,7; 53; 8,0; 971,5618; 997,1250;3; 16,3; 16,3; 0,0; 0,1; 22,5; 119,9
2020-04-30 19:05:00; 17,7; 55; 8,5; 971,6243; 997,1875;3; 15,9; 15,9; 0,0; 0,1; 45,0; 119,9
2020-04-30 19:25:00; 17,4; 54; 8,0; 971,4368; 997,0000;3; 15,8; 15,8; 0,0; 0,2; 22,5; 119,9
2020-04-30 19:45:00; 17,1; 55; 8,0; 971,3743; 996,9375;3; 15,3; 15,3; 0,0; 0,0;337,5; 119,9
2020-04-30 20:05:00; 16,8; 56; 8,0; 971,3118; 996,8750;3; 15,0; 15,0; 0,0; 0,0; 22,5; 119,9
2020-04-30 20:24:59; 16,6; 58; 8,3; 971,3118; 996,8750;3; 14,7; 14,7; 0,0; 0,0;315,0; 119,9
2020-04-30 20:44:59; 16,3; 59; 8,3; 971,1243; 996,6875;3; 14,1; 14,1; 0,0; 0,0; 0,0; 119,9
2020-04-30 21:04:59; 16,0; 60; 8,2; 971,0618; 996,6250;2; 13,6; 13,6; 0,0; 0,0; 0,0; 119,9
2020-04-30 21:24:59; 15,7; 60; 8,0; 971,4368; 997,0000;2; 13,5; 13,5; 0,0; 0,0; 22,5; 119,9
2020-04-30 21:45:00; 15,6; 60; 7,9; 971,4993; 997,0625;2; 13,9; 13,9; 0,0; 0,0;135,0; 119,9
2020-04-30 22:05:00; 15,5; 61; 8,0; 971,1243; 996,6875;2; 13,9; 13,9; 0,0; 0,0;337,5; 119,9
2020-04-30 22:25:00; 15,2; 61; 7,7; 970,9368; 996,5000;2; 13,7; 13,7; 0,0; 0,1; 45,0; 119,9
2020-04-30 22:45:00; 15,1; 61; 7,6; 970,8743; 996,4375;2; 13,9; 13,9; 0,0; 0,0;337,5; 119,9
2020-04-30 23:05:00; 15,0; 59; 7,1; 970,7493; 996,3125;2; 14,1; 14,1; 0,0; 0,5; 22,5; 119,9
2020-04-30 23:24:59; 14,9; 59; 7,0; 971,0618; 996,6250;2; 14,0; 14,0; 0,0; 0,3; 45,0; 119,9
2020-04-30 23:44:59; 14,7; 59; 6,8; 971,0618; 996,6250;2; 13,7; 13,7; 1,9; 0,5; 67,5; 119,9
2020-05-01 00:04:59; 14,6; 60; 6,9; 971,1868; 996,7500;2; 13,6; 13,6; 0,0; 0,5;337,5; 119,9
2020-05-01 00:24:59; 14,3; 62; 7,1; 970,9993; 996,5625;2; 13,1; 13,1; 0,0; 0,2;225,0; 119,9
2020-05-01 00:45:00; 14,1; 62; 6,9; 971,3118; 996,8750;2; 12,7; 12,7; 3,6; 0,7; 45,0; 119,9
2020-05-01 01:05:00; 14,0; 60; 6,4; 970,8743; 996,4375;2; 13,0; 13,0; 2,1; 1,2;112,5; 119,9
2020-05-01 01:25:00; 13,9; 59; 6,0; 971,4368; 997,0000;2; 13,2; 13,2; 0,0; 1,3;135,0; 119,9
2020-05-01 01:45:00; 13,7; 60; 6,1; 971,5618; 997,1250;2; 12,9; 12,9; 0,0; 1,0; 22,5; 119,9
2020-05-01 02:05:00; 13,5; 61; 6,1; 971,4368; 997,0000;2; 12,7; 12,7; 1,8; 1,7;112,5; 119,9
2020-05-01 02:24:59; 13,3; 62; 6,2; 971,4368; 997,0000;2; 12,4; 12,4; 2,3; 1,0; 67,5; 119,9
2020-05-01 02:44:59; 13,1; 62; 6,0; 971,3118; 996,8750;2; 12,4; 12,4; 5,4; 1,7; 90,0; 119,9
2020-05-01 03:04:59; 13,0; 61; 5,7; 971,1243; 996,6875;2; 12,3; 12,3; 9,2; 3,2;112,5; 119,9
2020-05-01 03:24:59; 12,8; 61; 5,5; 971,0618; 996,6250;2; 12,2; 12,2; 4,6; 3,6;112,5; 119,9
2020-05-01 03:45:00; 12,6; 62; 5,5; 970,9368; 996,5000;2; 11,9; 11,9; 4,9; 2,4; 67,5; 119,9
2020-05-01 04:05:00; 12,3; 63; 5,5; 970,9993; 996,5625;2; 11,3; 11,3; 0,0; 1,4;135,0; 119,9
2020-05-01 04:25:00; 12,1; 65; 5,7; 970,9368; 996,5000;2; 10,7; 10,7; 0,0; 0,2; 90,0; 119,9
2020-05-01 04:45:00; 11,9; 65; 5,5; 971,1243; 996,6875;2; 10,2; 10,2; 0,0; 0,3; 67,5; 119,9
2020-05-01 05:05:00; 11,6; 67; 5,7; 970,7493; 996,3125;2; 9,7; 9,7; 0,0; 0,0; 67,5; 119,9
2020-05-01 05:24:59; 11,5; 67; 5,6; 970,6868; 996,2500;2; 9,4; 9,4; 0,0; 0,0; 22,5; 119,9
2020-05-01 05:44:59; 11,2; 67; 5,3; 970,8118; 996,3750;2; 9,0; 9,0; 0,0; 0,0; 22,5; 119,9
2020-05-01 06:04:59; 10,9; 68; 5,2; 970,6868; 996,2500;2; 8,7; 8,7; 0,0; 0,0; 22,5; 119,9
2020-05-01 06:24:59; 10,9; 68; 5,2; 970,6243; 996,1875;2; 8,8; 8,8; 0,0; 0,0; 22,5; 119,9
2020-05-01 06:45:00; 11,1; 68; 5,4; 970,5618; 996,1250;2; 9,5; 9,5; 0,0; 0,1; 67,5; 119,9
2020-05-01 07:05:00; 11,4; 67; 5,5; 970,9368; 996,5000;2; 10,2; 10,2; 0,0; 0,1;270,0; 119,9
2020-05-01 07:25:00; 12,2; 65; 5,8; 970,9993; 996,5625;2; 12,8; 12,8; 0,0; 0,5; 45,0; 119,9
2020-05-01 07:45:00; 12,6; 63; 5,7; 970,9993; 996,5625;2; 12,9; 12,9; 1,9; 2,1; 67,5; 119,9
2020-05-01 08:05:00; 12,7; 61; 5,4; 971,1243; 996,6875;2; 13,2; 13,2; 3,8; 2,8;112,5; 119,9
2020-05-01 08:24:59; 13,1; 58; 5,0; 971,3118; 996,8750;2; 13,5; 13,5; 2,3; 2,5;135,0; 119,9
2020-05-01 08:44:59; 14,0; 54; 4,8; 971,6243; 997,1875;2; 15,0; 15,0; 2,7; 3,4; 45,0; 119,9
2020-05-01 09:04:59; 15,1; 51; 5,0; 970,9368; 996,5000;2; 15,9; 15,9; 6,0; 3,1; 67,5; 119,9
2020-05-01 09:24:59; 15,6; 48; 4,6; 971,4993; 997,0625;2; 16,3; 16,3; 3,6; 3,8;180,0; 119,9
2020-05-01 09:45:00; 16,1; 47; 4,8; 971,4993; 997,0625;2; 16,7; 16,7; 6,3; 4,1;135,0; 119,9
2020-05-01 10:05:00; 16,9; 45; 4,9; 971,8743; 997,4375;3; 17,4; 17,4; 4,0; 3,2;135,0; 119,9
2020-05-01 10:25:00; 15,6; 47; 4,3; 971,5618; 997,1250;3; 15,7; 15,7; 4,8; 5,2;180,0; 119,9
2020-05-01 10:45:00; 15,9; 48; 4,9; 971,6243; 997,1875;3; 16,2; 16,2; 4,6; 4,0; 67,5; 119,9
2020-05-01 11:05:00; 16,5; 45; 4,5; 971,6243; 997,1875;3; 17,1; 17,1; 5,4; 4,3;135,0; 119,9
2020-05-01 11:24:59; 17,2; 43; 4,5; 971,4993; 997,0625;3; 17,6; 17,6; 6,3; 3,2; 45,0; 119,9
2020-05-01 11:44:59; 16,3; 44; 4,0; 971,3743; 996,9375;3; 16,3; 16,3; 6,4; 3,9;315,0; 119,9
2020-05-01 12:04:59; 16,0; 46; 4,4; 971,3118; 996,8750;3; 15,7; 15,7; 0,0; 3,5;337,5; 119,9
2020-05-01 12:24:59; 17,3; 45; 5,3; 971,0618; 996,6250;2; 17,6; 17,6; 5,0; 4,2;135,0; 119,9
2020-05-01 12:45:00; 18,3; 40; 4,5; 971,1243; 996,6875;2; 19,0; 19,0; 6,3; 4,6; 90,0; 119,9
2020-05-01 13:05:00; 18,1; 41; 4,6; 970,8118; 996,3750;2; 19,0; 19,0; 2,3; 4,8;270,0; 119,9
2020-05-01 13:25:00; 18,2; 40; 4,4; 970,6868; 996,2500;2; 18,0; 18,0; 4,4; 3,7; 67,5; 119,9
2020-05-01 13:45:00; 19,8; 38; 5,1; 970,9368; 996,5000;2; 20,8; 20,8; 3,2; 3,5;180,0; 119,9
2020-05-01 14:05:00; 20,1; 36; 4,6; 970,8118; 996,3750;2; 20,4; 20,4; 8,5; 3,8;135,0; 119,9
2020-05-01 14:24:59; 18,8; 37; 3,8; 970,8118; 996,3750;2; 18,1; 18,1; 1,1; 3,3; 0,0; 119,9
2020-05-01 14:44:59; 19,2; 35; 3,4; 970,4993; 996,0625;2; 20,0; 20,0; 5,5; 4,2;157,5; 119,9
2020-05-01 15:04:59; 18,1; 42; 5,0; 970,6868; 996,2500;2; 18,6; 18,6; 9,2; 6,6;135,0; 119,9
2020-05-0